<?xml version="1.0" encoding="UTF-8" standalone="no" ?>
<gpx xmlns="http://www.topografix.com/GPX/1/1" xmlns:xsi="http://www.w3.org/2001/XMLSchema-instance" xsi:schemaLocation="http://www.topografix.com/GPX/1/1 http://www.topografix.com/GPX/1/1/gpx.xsd" version="1.1" creator="VisuGPX - https://www.visugpx.com">
  <metadata>
    <name>LE SUQUET PERA CAVA COL DE PORTE</name>
    <desc><![CDATA[Départ du Suquet parking du bar à coté du pont sur la Vésubie. montée par la route jusqu'à Lentosque, prendre la route du bas qui passe sous Lentosque puis le chemin à droite après le pont. on rejoint le GR qui grimpe en lacets jusqu'à la piste qui monte au Turini.
Piste pendant plusieurs km puis à droite soit par la piste qui part dans un virage, soit un peu plus loin chemin qui monte fort (poussage) jusqu'en crête. Le chemin redescend coté sud mouta cala jusqu'à rejoindre la route de Peira cava.
A Peira cava belle descente sur la Baisse de beasse puis à gauche le parcours TransV jusqu'au col de porte.
La piste sur 1, 5km puis au col GR à droite qui redescend au suquet.La fin est assez technique mais tout passe à vélo.]]></desc>
  </metadata>
  <trk>
    <name><![CDATA[20190421100604-p4Mez]]></name>
    <trkseg>
      <trkpt lat="43.94376" lon="7.28308">
        <ele>351.20001220703</ele>
        <time>2019-04-20T07:31:34.000Z</time>
      </trkpt>
      <trkpt lat="43.94391" lon="7.28316">
        <ele>351.39999389648</ele>
        <time>2019-04-20T07:31:39.000Z</time>
      </trkpt>
      <trkpt lat="43.94426" lon="7.28332">
        <ele>352</ele>
        <time>2019-04-20T07:31:50.000Z</time>
      </trkpt>
      <trkpt lat="43.94429" lon="7.28334">
        <ele>352.20001220703</ele>
        <time>2019-04-20T07:31:51.000Z</time>
      </trkpt>
      <trkpt lat="43.94454" lon="7.28346">
        <ele>352.79998779297</ele>
        <time>2019-04-20T07:31:59.000Z</time>
      </trkpt>
      <trkpt lat="43.9447" lon="7.28353">
        <ele>353.20001220703</ele>
        <time>2019-04-20T07:32:04.000Z</time>
      </trkpt>
      <trkpt lat="43.9448" lon="7.28357">
        <ele>353.39999389648</ele>
        <time>2019-04-20T07:32:07.000Z</time>
      </trkpt>
      <trkpt lat="43.94499" lon="7.28366">
        <ele>354</ele>
        <time>2019-04-20T07:32:13.000Z</time>
      </trkpt>
      <trkpt lat="43.94516" lon="7.28373">
        <ele>354.20001220703</ele>
        <time>2019-04-20T07:32:18.000Z</time>
      </trkpt>
      <trkpt lat="43.94529" lon="7.28379">
        <ele>354.60000610352</ele>
        <time>2019-04-20T07:32:22.000Z</time>
      </trkpt>
      <trkpt lat="43.94546" lon="7.28387">
        <ele>355.39999389648</ele>
        <time>2019-04-20T07:32:27.000Z</time>
      </trkpt>
      <trkpt lat="43.94558" lon="7.28392">
        <ele>355.79998779297</ele>
        <time>2019-04-20T07:32:31.000Z</time>
      </trkpt>
      <trkpt lat="43.94571" lon="7.28398">
        <ele>356</ele>
        <time>2019-04-20T07:32:35.000Z</time>
      </trkpt>
      <trkpt lat="43.94595" lon="7.28409">
        <ele>356.39999389648</ele>
        <time>2019-04-20T07:32:42.000Z</time>
      </trkpt>
      <trkpt lat="43.94598" lon="7.2841">
        <ele>356.39999389648</ele>
        <time>2019-04-20T07:32:43.000Z</time>
      </trkpt>
      <trkpt lat="43.94628" lon="7.28424">
        <ele>357.20001220703</ele>
        <time>2019-04-20T07:32:52.000Z</time>
      </trkpt>
      <trkpt lat="43.94635" lon="7.28427">
        <ele>357.60000610352</ele>
        <time>2019-04-20T07:32:54.000Z</time>
      </trkpt>
      <trkpt lat="43.94655" lon="7.28437">
        <ele>358.20001220703</ele>
        <time>2019-04-20T07:33:00.000Z</time>
      </trkpt>
      <trkpt lat="43.94668" lon="7.28445">
        <ele>358.60000610352</ele>
        <time>2019-04-20T07:33:04.000Z</time>
      </trkpt>
      <trkpt lat="43.94681" lon="7.28457">
        <ele>359</ele>
        <time>2019-04-20T07:33:08.000Z</time>
      </trkpt>
      <trkpt lat="43.94695" lon="7.28472">
        <ele>359.60000610352</ele>
        <time>2019-04-20T07:33:13.000Z</time>
      </trkpt>
      <trkpt lat="43.94703" lon="7.28482">
        <ele>360</ele>
        <time>2019-04-20T07:33:16.000Z</time>
      </trkpt>
      <trkpt lat="43.94711" lon="7.28497">
        <ele>360.60000610352</ele>
        <time>2019-04-20T07:33:20.000Z</time>
      </trkpt>
      <trkpt lat="43.94718" lon="7.28512">
        <ele>361.39999389648</ele>
        <time>2019-04-20T07:33:24.000Z</time>
      </trkpt>
      <trkpt lat="43.94719" lon="7.28516">
        <ele>361.60000610352</ele>
        <time>2019-04-20T07:33:25.000Z</time>
      </trkpt>
      <trkpt lat="43.94724" lon="7.28535">
        <ele>362.39999389648</ele>
        <time>2019-04-20T07:33:30.000Z</time>
      </trkpt>
      <trkpt lat="43.94726" lon="7.28543">
        <ele>362.79998779297</ele>
        <time>2019-04-20T07:33:32.000Z</time>
      </trkpt>
      <trkpt lat="43.94731" lon="7.28561">
        <ele>363.60000610352</ele>
        <time>2019-04-20T07:33:37.000Z</time>
      </trkpt>
      <trkpt lat="43.94732" lon="7.28564">
        <ele>363.79998779297</ele>
        <time>2019-04-20T07:33:38.000Z</time>
      </trkpt>
      <trkpt lat="43.9474" lon="7.2859">
        <ele>364.79998779297</ele>
        <time>2019-04-20T07:33:45.000Z</time>
      </trkpt>
      <trkpt lat="43.94753" lon="7.28623">
        <ele>366</ele>
        <time>2019-04-20T07:33:54.000Z</time>
      </trkpt>
      <trkpt lat="43.94762" lon="7.28649">
        <ele>367</ele>
        <time>2019-04-20T07:34:01.000Z</time>
      </trkpt>
      <trkpt lat="43.94764" lon="7.28657">
        <ele>367.20001220703</ele>
        <time>2019-04-20T07:34:03.000Z</time>
      </trkpt>
      <trkpt lat="43.9477" lon="7.28674">
        <ele>368</ele>
        <time>2019-04-20T07:34:08.000Z</time>
      </trkpt>
      <trkpt lat="43.94771" lon="7.28676">
        <ele>368.20001220703</ele>
        <time>2019-04-20T07:34:09.000Z</time>
      </trkpt>
      <trkpt lat="43.94772" lon="7.2868">
        <ele>368.60000610352</ele>
        <time>2019-04-20T07:34:13.000Z</time>
      </trkpt>
      <trkpt lat="43.94773" lon="7.2868">
        <ele>368.60000610352</ele>
        <time>2019-04-20T07:34:19.000Z</time>
      </trkpt>
      <trkpt lat="43.94772" lon="7.2868">
        <ele>368.60000610352</ele>
        <time>2019-04-20T07:34:21.000Z</time>
      </trkpt>
      <trkpt lat="43.94771" lon="7.28677">
        <ele>369</ele>
        <time>2019-04-20T07:34:23.000Z</time>
      </trkpt>
      <trkpt lat="43.94768" lon="7.28675">
        <ele>368.39999389648</ele>
        <time>2019-04-20T07:34:30.000Z</time>
      </trkpt>
      <trkpt lat="43.94767" lon="7.28676">
        <ele>368.20001220703</ele>
        <time>2019-04-20T07:34:38.000Z</time>
      </trkpt>
      <trkpt lat="43.94765" lon="7.28676">
        <ele>368</ele>
        <time>2019-04-20T07:34:44.000Z</time>
      </trkpt>
      <trkpt lat="43.94766" lon="7.28675">
        <ele>368.39999389648</ele>
        <time>2019-04-20T07:34:51.000Z</time>
      </trkpt>
      <trkpt lat="43.94766" lon="7.28675">
        <ele>368.20001220703</ele>
        <time>2019-04-20T07:34:57.000Z</time>
      </trkpt>
      <trkpt lat="43.94765" lon="7.28673">
        <ele>368.60000610352</ele>
        <time>2019-04-20T07:35:09.000Z</time>
      </trkpt>
      <trkpt lat="43.94764" lon="7.28674">
        <ele>368.39999389648</ele>
        <time>2019-04-20T07:35:17.000Z</time>
      </trkpt>
      <trkpt lat="43.94765" lon="7.28675">
        <ele>368.20001220703</ele>
        <time>2019-04-20T07:35:25.000Z</time>
      </trkpt>
      <trkpt lat="43.94764" lon="7.28676">
        <ele>367.79998779297</ele>
        <time>2019-04-20T07:35:36.000Z</time>
      </trkpt>
      <trkpt lat="43.94763" lon="7.28677">
        <ele>368.20001220703</ele>
        <time>2019-04-20T07:35:47.000Z</time>
      </trkpt>
      <trkpt lat="43.94761" lon="7.28678">
        <ele>368.20001220703</ele>
        <time>2019-04-20T07:35:58.000Z</time>
      </trkpt>
      <trkpt lat="43.94762" lon="7.28678">
        <ele>368.20001220703</ele>
        <time>2019-04-20T07:36:09.000Z</time>
      </trkpt>
      <trkpt lat="43.94762" lon="7.28679">
        <ele>368.39999389648</ele>
        <time>2019-04-20T07:36:17.000Z</time>
      </trkpt>
      <trkpt lat="43.9476" lon="7.28677">
        <ele>368.60000610352</ele>
        <time>2019-04-20T07:36:27.000Z</time>
      </trkpt>
      <trkpt lat="43.94758" lon="7.28677">
        <ele>368.60000610352</ele>
        <time>2019-04-20T07:36:39.000Z</time>
      </trkpt>
      <trkpt lat="43.94759" lon="7.28676">
        <ele>368.60000610352</ele>
        <time>2019-04-20T07:36:50.000Z</time>
      </trkpt>
      <trkpt lat="43.94759" lon="7.28677">
        <ele>368.60000610352</ele>
        <time>2019-04-20T07:36:57.000Z</time>
      </trkpt>
      <trkpt lat="43.94759" lon="7.28675">
        <ele>368.60000610352</ele>
        <time>2019-04-20T07:37:03.000Z</time>
      </trkpt>
      <trkpt lat="43.94759" lon="7.28674">
        <ele>368.39999389648</ele>
        <time>2019-04-20T07:37:13.000Z</time>
      </trkpt>
      <trkpt lat="43.94758" lon="7.28673">
        <ele>368.60000610352</ele>
        <time>2019-04-20T07:37:26.000Z</time>
      </trkpt>
      <trkpt lat="43.94758" lon="7.28672">
        <ele>368</ele>
        <time>2019-04-20T07:37:42.000Z</time>
      </trkpt>
      <trkpt lat="43.94758" lon="7.28672">
        <ele>368.20001220703</ele>
        <time>2019-04-20T07:37:59.000Z</time>
      </trkpt>
      <trkpt lat="43.9476" lon="7.28671">
        <ele>368.60000610352</ele>
        <time>2019-04-20T07:38:11.000Z</time>
      </trkpt>
      <trkpt lat="43.94761" lon="7.28671">
        <ele>368.39999389648</ele>
        <time>2019-04-20T07:38:20.000Z</time>
      </trkpt>
      <trkpt lat="43.94761" lon="7.28671">
        <ele>369.20001220703</ele>
        <time>2019-04-20T07:38:25.000Z</time>
      </trkpt>
      <trkpt lat="43.94761" lon="7.28671">
        <ele>369.39999389648</ele>
        <time>2019-04-20T07:38:31.000Z</time>
      </trkpt>
      <trkpt lat="43.94763" lon="7.28673">
        <ele>369.39999389648</ele>
        <time>2019-04-20T07:38:40.000Z</time>
      </trkpt>
      <trkpt lat="43.94765" lon="7.28674">
        <ele>369.20001220703</ele>
        <time>2019-04-20T07:38:48.000Z</time>
      </trkpt>
      <trkpt lat="43.94767" lon="7.28675">
        <ele>369.20001220703</ele>
        <time>2019-04-20T07:38:56.000Z</time>
      </trkpt>
      <trkpt lat="43.94771" lon="7.28675">
        <ele>369.39999389648</ele>
        <time>2019-04-20T07:39:05.000Z</time>
      </trkpt>
      <trkpt lat="43.9477" lon="7.28674">
        <ele>369.39999389648</ele>
        <time>2019-04-20T07:39:15.000Z</time>
      </trkpt>
      <trkpt lat="43.9477" lon="7.28674">
        <ele>369.60000610352</ele>
        <time>2019-04-20T07:39:25.000Z</time>
      </trkpt>
      <trkpt lat="43.94769" lon="7.28674">
        <ele>369</ele>
        <time>2019-04-20T07:39:31.000Z</time>
      </trkpt>
      <trkpt lat="43.94767" lon="7.28673">
        <ele>369.39999389648</ele>
        <time>2019-04-20T07:39:37.000Z</time>
      </trkpt>
      <trkpt lat="43.94766" lon="7.28674">
        <ele>369.60000610352</ele>
        <time>2019-04-20T07:39:44.000Z</time>
      </trkpt>
      <trkpt lat="43.94766" lon="7.28673">
        <ele>369.20001220703</ele>
        <time>2019-04-20T07:39:52.000Z</time>
      </trkpt>
      <trkpt lat="43.94764" lon="7.28671">
        <ele>369.39999389648</ele>
        <time>2019-04-20T07:40:04.000Z</time>
      </trkpt>
      <trkpt lat="43.94765" lon="7.2867">
        <ele>369.20001220703</ele>
        <time>2019-04-20T07:40:10.000Z</time>
      </trkpt>
      <trkpt lat="43.94769" lon="7.28679">
        <ele>369.60000610352</ele>
        <time>2019-04-20T07:40:14.000Z</time>
      </trkpt>
      <trkpt lat="43.94777" lon="7.28698">
        <ele>370.20001220703</ele>
        <time>2019-04-20T07:40:20.000Z</time>
      </trkpt>
      <trkpt lat="43.94785" lon="7.2871">
        <ele>371.39999389648</ele>
        <time>2019-04-20T07:40:25.000Z</time>
      </trkpt>
      <trkpt lat="43.94786" lon="7.28712">
        <ele>371.39999389648</ele>
        <time>2019-04-20T07:40:26.000Z</time>
      </trkpt>
      <trkpt lat="43.948" lon="7.28726">
        <ele>372.20001220703</ele>
        <time>2019-04-20T07:40:32.000Z</time>
      </trkpt>
      <trkpt lat="43.94802" lon="7.28728">
        <ele>372.39999389648</ele>
        <time>2019-04-20T07:40:33.000Z</time>
      </trkpt>
      <trkpt lat="43.94818" lon="7.28739">
        <ele>373.39999389648</ele>
        <time>2019-04-20T07:40:39.000Z</time>
      </trkpt>
      <trkpt lat="43.94832" lon="7.28745">
        <ele>374.39999389648</ele>
        <time>2019-04-20T07:40:44.000Z</time>
      </trkpt>
      <trkpt lat="43.9484" lon="7.2875">
        <ele>374.60000610352</ele>
        <time>2019-04-20T07:40:47.000Z</time>
      </trkpt>
      <trkpt lat="43.94845" lon="7.28754">
        <ele>374.79998779297</ele>
        <time>2019-04-20T07:40:49.000Z</time>
      </trkpt>
      <trkpt lat="43.94856" lon="7.28766">
        <ele>375.60000610352</ele>
        <time>2019-04-20T07:40:54.000Z</time>
      </trkpt>
      <trkpt lat="43.94861" lon="7.28771">
        <ele>375.79998779297</ele>
        <time>2019-04-20T07:40:56.000Z</time>
      </trkpt>
      <trkpt lat="43.9487" lon="7.28786">
        <ele>376.20001220703</ele>
        <time>2019-04-20T07:41:01.000Z</time>
      </trkpt>
      <trkpt lat="43.94876" lon="7.28794">
        <ele>376.60000610352</ele>
        <time>2019-04-20T07:41:04.000Z</time>
      </trkpt>
      <trkpt lat="43.94881" lon="7.288">
        <ele>377</ele>
        <time>2019-04-20T07:41:06.000Z</time>
      </trkpt>
      <trkpt lat="43.94892" lon="7.28818">
        <ele>377.60000610352</ele>
        <time>2019-04-20T07:41:12.000Z</time>
      </trkpt>
      <trkpt lat="43.94901" lon="7.28834">
        <ele>378.39999389648</ele>
        <time>2019-04-20T07:41:17.000Z</time>
      </trkpt>
      <trkpt lat="43.94905" lon="7.28846">
        <ele>378.79998779297</ele>
        <time>2019-04-20T07:41:20.000Z</time>
      </trkpt>
      <trkpt lat="43.94906" lon="7.28854">
        <ele>379</ele>
        <time>2019-04-20T07:41:22.000Z</time>
      </trkpt>
      <trkpt lat="43.9491" lon="7.28879">
        <ele>380</ele>
        <time>2019-04-20T07:41:28.000Z</time>
      </trkpt>
      <trkpt lat="43.94912" lon="7.28888">
        <ele>380.20001220703</ele>
        <time>2019-04-20T07:41:30.000Z</time>
      </trkpt>
      <trkpt lat="43.94915" lon="7.28917">
        <ele>381</ele>
        <time>2019-04-20T07:41:37.000Z</time>
      </trkpt>
      <trkpt lat="43.94916" lon="7.28925">
        <ele>381.20001220703</ele>
        <time>2019-04-20T07:41:39.000Z</time>
      </trkpt>
      <trkpt lat="43.94919" lon="7.28951">
        <ele>382</ele>
        <time>2019-04-20T07:41:45.000Z</time>
      </trkpt>
      <trkpt lat="43.94924" lon="7.28976">
        <ele>383.20001220703</ele>
        <time>2019-04-20T07:41:52.000Z</time>
      </trkpt>
      <trkpt lat="43.94926" lon="7.29">
        <ele>384</ele>
        <time>2019-04-20T07:41:58.000Z</time>
      </trkpt>
      <trkpt lat="43.94927" lon="7.29009">
        <ele>384.20001220703</ele>
        <time>2019-04-20T07:42:00.000Z</time>
      </trkpt>
      <trkpt lat="43.9493" lon="7.29034">
        <ele>385.39999389648</ele>
        <time>2019-04-20T07:42:06.000Z</time>
      </trkpt>
      <trkpt lat="43.94931" lon="7.29038">
        <ele>385.79998779297</ele>
        <time>2019-04-20T07:42:07.000Z</time>
      </trkpt>
      <trkpt lat="43.94932" lon="7.29048">
        <ele>386.39999389648</ele>
        <time>2019-04-20T07:42:10.000Z</time>
      </trkpt>
      <trkpt lat="43.94933" lon="7.29066">
        <ele>387.60000610352</ele>
        <time>2019-04-20T07:42:15.000Z</time>
      </trkpt>
      <trkpt lat="43.94933" lon="7.2907">
        <ele>387.79998779297</ele>
        <time>2019-04-20T07:42:16.000Z</time>
      </trkpt>
      <trkpt lat="43.94933" lon="7.2908">
        <ele>388.60000610352</ele>
        <time>2019-04-20T07:42:19.000Z</time>
      </trkpt>
      <trkpt lat="43.94931" lon="7.29093">
        <ele>389.39999389648</ele>
        <time>2019-04-20T07:42:23.000Z</time>
      </trkpt>
      <trkpt lat="43.94929" lon="7.291">
        <ele>389.79998779297</ele>
        <time>2019-04-20T07:42:25.000Z</time>
      </trkpt>
      <trkpt lat="43.94924" lon="7.29117">
        <ele>390.60000610352</ele>
        <time>2019-04-20T07:42:30.000Z</time>
      </trkpt>
      <trkpt lat="43.94924" lon="7.29121">
        <ele>390.79998779297</ele>
        <time>2019-04-20T07:42:31.000Z</time>
      </trkpt>
      <trkpt lat="43.94925" lon="7.29139">
        <ele>391.39999389648</ele>
        <time>2019-04-20T07:42:36.000Z</time>
      </trkpt>
      <trkpt lat="43.94927" lon="7.29149">
        <ele>391.79998779297</ele>
        <time>2019-04-20T07:42:39.000Z</time>
      </trkpt>
      <trkpt lat="43.94931" lon="7.29156">
        <ele>392.39999389648</ele>
        <time>2019-04-20T07:42:41.000Z</time>
      </trkpt>
      <trkpt lat="43.94932" lon="7.29159">
        <ele>392.79998779297</ele>
        <time>2019-04-20T07:42:42.000Z</time>
      </trkpt>
      <trkpt lat="43.94937" lon="7.29169">
        <ele>393.79998779297</ele>
        <time>2019-04-20T07:42:45.000Z</time>
      </trkpt>
      <trkpt lat="43.94941" lon="7.29175">
        <ele>393.79998779297</ele>
        <time>2019-04-20T07:42:47.000Z</time>
      </trkpt>
      <trkpt lat="43.94954" lon="7.29189">
        <ele>393.39999389648</ele>
        <time>2019-04-20T07:42:53.000Z</time>
      </trkpt>
      <trkpt lat="43.94971" lon="7.29204">
        <ele>394.20001220703</ele>
        <time>2019-04-20T07:43:00.000Z</time>
      </trkpt>
      <trkpt lat="43.94985" lon="7.29209">
        <ele>395</ele>
        <time>2019-04-20T07:43:04.000Z</time>
      </trkpt>
      <trkpt lat="43.94989" lon="7.29209">
        <ele>395.20001220703</ele>
        <time>2019-04-20T07:43:05.000Z</time>
      </trkpt>
      <trkpt lat="43.95006" lon="7.2921">
        <ele>396.20001220703</ele>
        <time>2019-04-20T07:43:10.000Z</time>
      </trkpt>
      <trkpt lat="43.95022" lon="7.29208">
        <ele>396.79998779297</ele>
        <time>2019-04-20T07:43:15.000Z</time>
      </trkpt>
      <trkpt lat="43.95028" lon="7.29208">
        <ele>397.20001220703</ele>
        <time>2019-04-20T07:43:17.000Z</time>
      </trkpt>
      <trkpt lat="43.95034" lon="7.2921">
        <ele>397.39999389648</ele>
        <time>2019-04-20T07:43:19.000Z</time>
      </trkpt>
      <trkpt lat="43.95043" lon="7.29215">
        <ele>398</ele>
        <time>2019-04-20T07:43:24.000Z</time>
      </trkpt>
      <trkpt lat="43.95046" lon="7.29216">
        <ele>398.20001220703</ele>
        <time>2019-04-20T07:43:26.000Z</time>
      </trkpt>
      <trkpt lat="43.95047" lon="7.29216">
        <ele>398.60000610352</ele>
        <time>2019-04-20T07:43:29.000Z</time>
      </trkpt>
      <trkpt lat="43.95048" lon="7.29216">
        <ele>398.60000610352</ele>
        <time>2019-04-20T07:43:34.000Z</time>
      </trkpt>
      <trkpt lat="43.95051" lon="7.29217">
        <ele>398.60000610352</ele>
        <time>2019-04-20T07:43:40.000Z</time>
      </trkpt>
      <trkpt lat="43.95054" lon="7.2922">
        <ele>398.79998779297</ele>
        <time>2019-04-20T07:43:42.000Z</time>
      </trkpt>
      <trkpt lat="43.95057" lon="7.29224">
        <ele>399</ele>
        <time>2019-04-20T07:43:44.000Z</time>
      </trkpt>
      <trkpt lat="43.95061" lon="7.29229">
        <ele>399.39999389648</ele>
        <time>2019-04-20T07:43:46.000Z</time>
      </trkpt>
      <trkpt lat="43.95069" lon="7.2924">
        <ele>400</ele>
        <time>2019-04-20T07:43:50.000Z</time>
      </trkpt>
      <trkpt lat="43.95076" lon="7.29246">
        <ele>400.39999389648</ele>
        <time>2019-04-20T07:43:53.000Z</time>
      </trkpt>
      <trkpt lat="43.95084" lon="7.29252">
        <ele>400.60000610352</ele>
        <time>2019-04-20T07:43:56.000Z</time>
      </trkpt>
      <trkpt lat="43.95095" lon="7.29264">
        <ele>401.39999389648</ele>
        <time>2019-04-20T07:44:01.000Z</time>
      </trkpt>
      <trkpt lat="43.95097" lon="7.29268">
        <ele>401.60000610352</ele>
        <time>2019-04-20T07:44:02.000Z</time>
      </trkpt>
      <trkpt lat="43.95106" lon="7.29287">
        <ele>402.39999389648</ele>
        <time>2019-04-20T07:44:07.000Z</time>
      </trkpt>
      <trkpt lat="43.95109" lon="7.29296">
        <ele>402.60000610352</ele>
        <time>2019-04-20T07:44:09.000Z</time>
      </trkpt>
      <trkpt lat="43.95116" lon="7.29319">
        <ele>403.39999389648</ele>
        <time>2019-04-20T07:44:14.000Z</time>
      </trkpt>
      <trkpt lat="43.95118" lon="7.29329">
        <ele>403.60000610352</ele>
        <time>2019-04-20T07:44:16.000Z</time>
      </trkpt>
      <trkpt lat="43.95123" lon="7.29353">
        <ele>404.79998779297</ele>
        <time>2019-04-20T07:44:21.000Z</time>
      </trkpt>
      <trkpt lat="43.9513" lon="7.29376">
        <ele>405.60000610352</ele>
        <time>2019-04-20T07:44:26.000Z</time>
      </trkpt>
      <trkpt lat="43.95131" lon="7.29381">
        <ele>405.79998779297</ele>
        <time>2019-04-20T07:44:27.000Z</time>
      </trkpt>
      <trkpt lat="43.95136" lon="7.29398">
        <ele>406.79998779297</ele>
        <time>2019-04-20T07:44:31.000Z</time>
      </trkpt>
      <trkpt lat="43.95141" lon="7.29414">
        <ele>407.79998779297</ele>
        <time>2019-04-20T07:44:35.000Z</time>
      </trkpt>
      <trkpt lat="43.95142" lon="7.29418">
        <ele>408</ele>
        <time>2019-04-20T07:44:36.000Z</time>
      </trkpt>
      <trkpt lat="43.95151" lon="7.2943">
        <ele>408.79998779297</ele>
        <time>2019-04-20T07:44:40.000Z</time>
      </trkpt>
      <trkpt lat="43.95156" lon="7.29435">
        <ele>409.20001220703</ele>
        <time>2019-04-20T07:44:42.000Z</time>
      </trkpt>
      <trkpt lat="43.9517" lon="7.29447">
        <ele>409.79998779297</ele>
        <time>2019-04-20T07:44:47.000Z</time>
      </trkpt>
      <trkpt lat="43.95178" lon="7.29453">
        <ele>410.39999389648</ele>
        <time>2019-04-20T07:44:50.000Z</time>
      </trkpt>
      <trkpt lat="43.95191" lon="7.29465">
        <ele>411</ele>
        <time>2019-04-20T07:44:55.000Z</time>
      </trkpt>
      <trkpt lat="43.95198" lon="7.29474">
        <ele>411.39999389648</ele>
        <time>2019-04-20T07:44:58.000Z</time>
      </trkpt>
      <trkpt lat="43.95206" lon="7.29489">
        <ele>412</ele>
        <time>2019-04-20T07:45:02.000Z</time>
      </trkpt>
      <trkpt lat="43.95209" lon="7.29497">
        <ele>412.60000610352</ele>
        <time>2019-04-20T07:45:04.000Z</time>
      </trkpt>
      <trkpt lat="43.95214" lon="7.29508">
        <ele>413.20001220703</ele>
        <time>2019-04-20T07:45:07.000Z</time>
      </trkpt>
      <trkpt lat="43.95224" lon="7.29525">
        <ele>414</ele>
        <time>2019-04-20T07:45:12.000Z</time>
      </trkpt>
      <trkpt lat="43.95228" lon="7.2953">
        <ele>414.39999389648</ele>
        <time>2019-04-20T07:45:14.000Z</time>
      </trkpt>
      <trkpt lat="43.95237" lon="7.29539">
        <ele>415.20001220703</ele>
        <time>2019-04-20T07:45:18.000Z</time>
      </trkpt>
      <trkpt lat="43.95239" lon="7.2954">
        <ele>415.39999389648</ele>
        <time>2019-04-20T07:45:19.000Z</time>
      </trkpt>
      <trkpt lat="43.95257" lon="7.29547">
        <ele>416.60000610352</ele>
        <time>2019-04-20T07:45:25.000Z</time>
      </trkpt>
      <trkpt lat="43.95274" lon="7.29551">
        <ele>417.60000610352</ele>
        <time>2019-04-20T07:45:31.000Z</time>
      </trkpt>
      <trkpt lat="43.9528" lon="7.29553">
        <ele>418</ele>
        <time>2019-04-20T07:45:33.000Z</time>
      </trkpt>
      <trkpt lat="43.95295" lon="7.29559">
        <ele>418.60000610352</ele>
        <time>2019-04-20T07:45:38.000Z</time>
      </trkpt>
      <trkpt lat="43.953" lon="7.29562">
        <ele>419</ele>
        <time>2019-04-20T07:45:40.000Z</time>
      </trkpt>
      <trkpt lat="43.95314" lon="7.29571">
        <ele>419.60000610352</ele>
        <time>2019-04-20T07:45:45.000Z</time>
      </trkpt>
      <trkpt lat="43.95319" lon="7.29575">
        <ele>420</ele>
        <time>2019-04-20T07:45:47.000Z</time>
      </trkpt>
      <trkpt lat="43.95331" lon="7.29582">
        <ele>420.79998779297</ele>
        <time>2019-04-20T07:45:51.000Z</time>
      </trkpt>
      <trkpt lat="43.95339" lon="7.29585">
        <ele>421.20001220703</ele>
        <time>2019-04-20T07:45:54.000Z</time>
      </trkpt>
      <trkpt lat="43.95351" lon="7.2959">
        <ele>422</ele>
        <time>2019-04-20T07:45:58.000Z</time>
      </trkpt>
      <trkpt lat="43.95359" lon="7.29593">
        <ele>422.60000610352</ele>
        <time>2019-04-20T07:46:01.000Z</time>
      </trkpt>
      <trkpt lat="43.95365" lon="7.29596">
        <ele>423</ele>
        <time>2019-04-20T07:46:03.000Z</time>
      </trkpt>
      <trkpt lat="43.95379" lon="7.29604">
        <ele>424</ele>
        <time>2019-04-20T07:46:09.000Z</time>
      </trkpt>
      <trkpt lat="43.95384" lon="7.29608">
        <ele>424.20001220703</ele>
        <time>2019-04-20T07:46:11.000Z</time>
      </trkpt>
      <trkpt lat="43.95395" lon="7.29621">
        <ele>425</ele>
        <time>2019-04-20T07:46:16.000Z</time>
      </trkpt>
      <trkpt lat="43.95396" lon="7.29624">
        <ele>425.20001220703</ele>
        <time>2019-04-20T07:46:17.000Z</time>
      </trkpt>
      <trkpt lat="43.95404" lon="7.29639">
        <ele>425.79998779297</ele>
        <time>2019-04-20T07:46:22.000Z</time>
      </trkpt>
      <trkpt lat="43.95407" lon="7.29645">
        <ele>426.20001220703</ele>
        <time>2019-04-20T07:46:24.000Z</time>
      </trkpt>
      <trkpt lat="43.95417" lon="7.29661">
        <ele>427</ele>
        <time>2019-04-20T07:46:29.000Z</time>
      </trkpt>
      <trkpt lat="43.9542" lon="7.29668">
        <ele>427.39999389648</ele>
        <time>2019-04-20T07:46:31.000Z</time>
      </trkpt>
      <trkpt lat="43.95429" lon="7.29684">
        <ele>428</ele>
        <time>2019-04-20T07:46:36.000Z</time>
      </trkpt>
      <trkpt lat="43.95434" lon="7.29693">
        <ele>428.39999389648</ele>
        <time>2019-04-20T07:46:39.000Z</time>
      </trkpt>
      <trkpt lat="43.95437" lon="7.297">
        <ele>428.60000610352</ele>
        <time>2019-04-20T07:46:41.000Z</time>
      </trkpt>
      <trkpt lat="43.95445" lon="7.29715">
        <ele>429.39999389648</ele>
        <time>2019-04-20T07:46:45.000Z</time>
      </trkpt>
      <trkpt lat="43.95453" lon="7.29732">
        <ele>430.20001220703</ele>
        <time>2019-04-20T07:46:50.000Z</time>
      </trkpt>
      <trkpt lat="43.95454" lon="7.29735">
        <ele>430.39999389648</ele>
        <time>2019-04-20T07:46:51.000Z</time>
      </trkpt>
      <trkpt lat="43.95461" lon="7.29748">
        <ele>431</ele>
        <time>2019-04-20T07:46:55.000Z</time>
      </trkpt>
      <trkpt lat="43.95465" lon="7.29753">
        <ele>431.39999389648</ele>
        <time>2019-04-20T07:46:57.000Z</time>
      </trkpt>
      <trkpt lat="43.95475" lon="7.29762">
        <ele>432</ele>
        <time>2019-04-20T07:47:01.000Z</time>
      </trkpt>
      <trkpt lat="43.95483" lon="7.29767">
        <ele>432.60000610352</ele>
        <time>2019-04-20T07:47:04.000Z</time>
      </trkpt>
      <trkpt lat="43.95494" lon="7.2977">
        <ele>433.39999389648</ele>
        <time>2019-04-20T07:47:08.000Z</time>
      </trkpt>
      <trkpt lat="43.955" lon="7.29769">
        <ele>433.60000610352</ele>
        <time>2019-04-20T07:47:10.000Z</time>
      </trkpt>
      <trkpt lat="43.95519" lon="7.29766">
        <ele>434.39999389648</ele>
        <time>2019-04-20T07:47:16.000Z</time>
      </trkpt>
      <trkpt lat="43.95525" lon="7.29765">
        <ele>434.79998779297</ele>
        <time>2019-04-20T07:47:18.000Z</time>
      </trkpt>
      <trkpt lat="43.95548" lon="7.29764">
        <ele>435.79998779297</ele>
        <time>2019-04-20T07:47:25.000Z</time>
      </trkpt>
      <trkpt lat="43.95551" lon="7.29764">
        <ele>436</ele>
        <time>2019-04-20T07:47:26.000Z</time>
      </trkpt>
      <trkpt lat="43.95572" lon="7.2977">
        <ele>437</ele>
        <time>2019-04-20T07:47:33.000Z</time>
      </trkpt>
      <trkpt lat="43.95574" lon="7.29772">
        <ele>437.20001220703</ele>
        <time>2019-04-20T07:47:34.000Z</time>
      </trkpt>
      <trkpt lat="43.95589" lon="7.29779">
        <ele>438.20001220703</ele>
        <time>2019-04-20T07:47:39.000Z</time>
      </trkpt>
      <trkpt lat="43.95594" lon="7.29781">
        <ele>438.60000610352</ele>
        <time>2019-04-20T07:47:41.000Z</time>
      </trkpt>
      <trkpt lat="43.95606" lon="7.29787">
        <ele>439.20001220703</ele>
        <time>2019-04-20T07:47:45.000Z</time>
      </trkpt>
      <trkpt lat="43.95616" lon="7.29792">
        <ele>439.79998779297</ele>
        <time>2019-04-20T07:47:49.000Z</time>
      </trkpt>
      <trkpt lat="43.95622" lon="7.29796">
        <ele>440.20001220703</ele>
        <time>2019-04-20T07:47:51.000Z</time>
      </trkpt>
      <trkpt lat="43.95636" lon="7.29805">
        <ele>441</ele>
        <time>2019-04-20T07:47:56.000Z</time>
      </trkpt>
      <trkpt lat="43.95644" lon="7.29812">
        <ele>441.39999389648</ele>
        <time>2019-04-20T07:47:59.000Z</time>
      </trkpt>
      <trkpt lat="43.95656" lon="7.29826">
        <ele>442</ele>
        <time>2019-04-20T07:48:04.000Z</time>
      </trkpt>
      <trkpt lat="43.95661" lon="7.29832">
        <ele>442.39999389648</ele>
        <time>2019-04-20T07:48:06.000Z</time>
      </trkpt>
      <trkpt lat="43.95677" lon="7.29855">
        <ele>443.39999389648</ele>
        <time>2019-04-20T07:48:13.000Z</time>
      </trkpt>
      <trkpt lat="43.95698" lon="7.29885">
        <ele>444.39999389648</ele>
        <time>2019-04-20T07:48:22.000Z</time>
      </trkpt>
      <trkpt lat="43.957" lon="7.29888">
        <ele>444.39999389648</ele>
        <time>2019-04-20T07:48:23.000Z</time>
      </trkpt>
      <trkpt lat="43.95719" lon="7.29914">
        <ele>445</ele>
        <time>2019-04-20T07:48:31.000Z</time>
      </trkpt>
      <trkpt lat="43.95741" lon="7.29925">
        <ele>445</ele>
        <time>2019-04-20T07:48:37.000Z</time>
      </trkpt>
      <trkpt lat="43.95763" lon="7.29925">
        <ele>445</ele>
        <time>2019-04-20T07:48:42.000Z</time>
      </trkpt>
      <trkpt lat="43.95789" lon="7.29925">
        <ele>444</ele>
        <time>2019-04-20T07:48:47.000Z</time>
      </trkpt>
      <trkpt lat="43.95795" lon="7.29928">
        <ele>443.60000610352</ele>
        <time>2019-04-20T07:48:48.000Z</time>
      </trkpt>
      <trkpt lat="43.95805" lon="7.29937">
        <ele>443.39999389648</ele>
        <time>2019-04-20T07:48:50.000Z</time>
      </trkpt>
      <trkpt lat="43.95814" lon="7.29947">
        <ele>443</ele>
        <time>2019-04-20T07:48:52.000Z</time>
      </trkpt>
      <trkpt lat="43.95826" lon="7.29975">
        <ele>442.60000610352</ele>
        <time>2019-04-20T07:48:56.000Z</time>
      </trkpt>
      <trkpt lat="43.95829" lon="7.29982">
        <ele>442.60000610352</ele>
        <time>2019-04-20T07:48:57.000Z</time>
      </trkpt>
      <trkpt lat="43.95852" lon="7.30036">
        <ele>442.39999389648</ele>
        <time>2019-04-20T07:49:05.000Z</time>
      </trkpt>
      <trkpt lat="43.95855" lon="7.30043">
        <ele>442.39999389648</ele>
        <time>2019-04-20T07:49:06.000Z</time>
      </trkpt>
      <trkpt lat="43.95865" lon="7.30074">
        <ele>441.60000610352</ele>
        <time>2019-04-20T07:49:10.000Z</time>
      </trkpt>
      <trkpt lat="43.95869" lon="7.3009">
        <ele>441.20001220703</ele>
        <time>2019-04-20T07:49:12.000Z</time>
      </trkpt>
      <trkpt lat="43.9588" lon="7.30158">
        <ele>440.39999389648</ele>
        <time>2019-04-20T07:49:20.000Z</time>
      </trkpt>
      <trkpt lat="43.95881" lon="7.30166">
        <ele>440.20001220703</ele>
        <time>2019-04-20T07:49:21.000Z</time>
      </trkpt>
      <trkpt lat="43.95893" lon="7.30233">
        <ele>439.20001220703</ele>
        <time>2019-04-20T07:49:29.000Z</time>
      </trkpt>
      <trkpt lat="43.95894" lon="7.30241">
        <ele>439</ele>
        <time>2019-04-20T07:49:30.000Z</time>
      </trkpt>
      <trkpt lat="43.96008" lon="7.30266">
        <ele>437.20001220703</ele>
        <time>2019-04-20T07:49:51.000Z</time>
      </trkpt>
      <trkpt lat="43.96014" lon="7.30266">
        <ele>437.20001220703</ele>
        <time>2019-04-20T07:49:52.000Z</time>
      </trkpt>
      <trkpt lat="43.96027" lon="7.30267">
        <ele>437</ele>
        <time>2019-04-20T07:49:54.000Z</time>
      </trkpt>
      <trkpt lat="43.96057" lon="7.30276">
        <ele>436.39999389648</ele>
        <time>2019-04-20T07:49:59.000Z</time>
      </trkpt>
      <trkpt lat="43.96081" lon="7.30286">
        <ele>435.79998779297</ele>
        <time>2019-04-20T07:50:03.000Z</time>
      </trkpt>
      <trkpt lat="43.96111" lon="7.30299">
        <ele>435</ele>
        <time>2019-04-20T07:50:08.000Z</time>
      </trkpt>
      <trkpt lat="43.96123" lon="7.30307">
        <ele>435</ele>
        <time>2019-04-20T07:50:10.000Z</time>
      </trkpt>
      <trkpt lat="43.96134" lon="7.30313">
        <ele>434.79998779297</ele>
        <time>2019-04-20T07:50:12.000Z</time>
      </trkpt>
      <trkpt lat="43.96146" lon="7.30317">
        <ele>434.60000610352</ele>
        <time>2019-04-20T07:50:14.000Z</time>
      </trkpt>
      <trkpt lat="43.96191" lon="7.3032">
        <ele>433.79998779297</ele>
        <time>2019-04-20T07:50:21.000Z</time>
      </trkpt>
      <trkpt lat="43.96197" lon="7.30321">
        <ele>433.60000610352</ele>
        <time>2019-04-20T07:50:22.000Z</time>
      </trkpt>
      <trkpt lat="43.96229" lon="7.30319">
        <ele>433</ele>
        <time>2019-04-20T07:50:27.000Z</time>
      </trkpt>
      <trkpt lat="43.96254" lon="7.30315">
        <ele>432.60000610352</ele>
        <time>2019-04-20T07:50:31.000Z</time>
      </trkpt>
      <trkpt lat="43.96266" lon="7.30308">
        <ele>432.39999389648</ele>
        <time>2019-04-20T07:50:33.000Z</time>
      </trkpt>
      <trkpt lat="43.96421" lon="7.3022">
        <ele>432.79998779297</ele>
        <time>2019-04-20T07:51:01.000Z</time>
      </trkpt>
      <trkpt lat="43.96426" lon="7.30222">
        <ele>432.79998779297</ele>
        <time>2019-04-20T07:51:02.000Z</time>
      </trkpt>
      <trkpt lat="43.96459" lon="7.30238">
        <ele>433.60000610352</ele>
        <time>2019-04-20T07:51:09.000Z</time>
      </trkpt>
      <trkpt lat="43.96464" lon="7.3024">
        <ele>433.79998779297</ele>
        <time>2019-04-20T07:51:10.000Z</time>
      </trkpt>
      <trkpt lat="43.96501" lon="7.30263">
        <ele>434.60000610352</ele>
        <time>2019-04-20T07:51:18.000Z</time>
      </trkpt>
      <trkpt lat="43.96505" lon="7.30267">
        <ele>434.79998779297</ele>
        <time>2019-04-20T07:51:19.000Z</time>
      </trkpt>
      <trkpt lat="43.96535" lon="7.30303">
        <ele>435.20001220703</ele>
        <time>2019-04-20T07:51:27.000Z</time>
      </trkpt>
      <trkpt lat="43.96545" lon="7.30317">
        <ele>435.60000610352</ele>
        <time>2019-04-20T07:51:30.000Z</time>
      </trkpt>
      <trkpt lat="43.9655" lon="7.30328">
        <ele>435.79998779297</ele>
        <time>2019-04-20T07:51:32.000Z</time>
      </trkpt>
      <trkpt lat="43.96552" lon="7.30334">
        <ele>435.79998779297</ele>
        <time>2019-04-20T07:51:33.000Z</time>
      </trkpt>
      <trkpt lat="43.9656" lon="7.3035">
        <ele>436</ele>
        <time>2019-04-20T07:51:36.000Z</time>
      </trkpt>
      <trkpt lat="43.96563" lon="7.30355">
        <ele>436.20001220703</ele>
        <time>2019-04-20T07:51:37.000Z</time>
      </trkpt>
      <trkpt lat="43.96566" lon="7.30359">
        <ele>436.20001220703</ele>
        <time>2019-04-20T07:51:38.000Z</time>
      </trkpt>
      <trkpt lat="43.96577" lon="7.3037">
        <ele>436.39999389648</ele>
        <time>2019-04-20T07:51:41.000Z</time>
      </trkpt>
      <trkpt lat="43.96588" lon="7.3038">
        <ele>436.79998779297</ele>
        <time>2019-04-20T07:51:44.000Z</time>
      </trkpt>
      <trkpt lat="43.96623" lon="7.30408">
        <ele>437.79998779297</ele>
        <time>2019-04-20T07:51:53.000Z</time>
      </trkpt>
      <trkpt lat="43.96659" lon="7.30435">
        <ele>438.60000610352</ele>
        <time>2019-04-20T07:52:02.000Z</time>
      </trkpt>
      <trkpt lat="43.96663" lon="7.30437">
        <ele>438.79998779297</ele>
        <time>2019-04-20T07:52:03.000Z</time>
      </trkpt>
      <trkpt lat="43.96667" lon="7.30438">
        <ele>438.79998779297</ele>
        <time>2019-04-20T07:52:04.000Z</time>
      </trkpt>
      <trkpt lat="43.96691" lon="7.30446">
        <ele>439.39999389648</ele>
        <time>2019-04-20T07:52:10.000Z</time>
      </trkpt>
      <trkpt lat="43.96699" lon="7.30449">
        <ele>439.60000610352</ele>
        <time>2019-04-20T07:52:12.000Z</time>
      </trkpt>
      <trkpt lat="43.96709" lon="7.3046">
        <ele>439.79998779297</ele>
        <time>2019-04-20T07:52:15.000Z</time>
      </trkpt>
      <trkpt lat="43.96712" lon="7.30463">
        <ele>439.79998779297</ele>
        <time>2019-04-20T07:52:16.000Z</time>
      </trkpt>
      <trkpt lat="43.96733" lon="7.3048">
        <ele>440.39999389648</ele>
        <time>2019-04-20T07:52:22.000Z</time>
      </trkpt>
      <trkpt lat="43.9675" lon="7.30494">
        <ele>440.79998779297</ele>
        <time>2019-04-20T07:52:27.000Z</time>
      </trkpt>
      <trkpt lat="43.96761" lon="7.30503">
        <ele>441</ele>
        <time>2019-04-20T07:52:30.000Z</time>
      </trkpt>
      <trkpt lat="43.96793" lon="7.30529">
        <ele>441.79998779297</ele>
        <time>2019-04-20T07:52:39.000Z</time>
      </trkpt>
      <trkpt lat="43.96797" lon="7.3053">
        <ele>442</ele>
        <time>2019-04-20T07:52:40.000Z</time>
      </trkpt>
      <trkpt lat="43.96821" lon="7.30541">
        <ele>442.39999389648</ele>
        <time>2019-04-20T07:52:46.000Z</time>
      </trkpt>
      <trkpt lat="43.96852" lon="7.30561">
        <ele>442.79998779297</ele>
        <time>2019-04-20T07:52:54.000Z</time>
      </trkpt>
      <trkpt lat="43.96856" lon="7.30565">
        <ele>443</ele>
        <time>2019-04-20T07:52:55.000Z</time>
      </trkpt>
      <trkpt lat="43.96862" lon="7.30573">
        <ele>443.20001220703</ele>
        <time>2019-04-20T07:52:57.000Z</time>
      </trkpt>
      <trkpt lat="43.96871" lon="7.30586">
        <ele>443.39999389648</ele>
        <time>2019-04-20T07:53:00.000Z</time>
      </trkpt>
      <trkpt lat="43.96895" lon="7.30622">
        <ele>444.20001220703</ele>
        <time>2019-04-20T07:53:08.000Z</time>
      </trkpt>
      <trkpt lat="43.96897" lon="7.30626">
        <ele>444.20001220703</ele>
        <time>2019-04-20T07:53:09.000Z</time>
      </trkpt>
      <trkpt lat="43.969" lon="7.30631">
        <ele>444.20001220703</ele>
        <time>2019-04-20T07:53:10.000Z</time>
      </trkpt>
      <trkpt lat="43.96918" lon="7.3067">
        <ele>444.79998779297</ele>
        <time>2019-04-20T07:53:18.000Z</time>
      </trkpt>
      <trkpt lat="43.9692" lon="7.30681">
        <ele>445</ele>
        <time>2019-04-20T07:53:20.000Z</time>
      </trkpt>
      <trkpt lat="43.96926" lon="7.30715">
        <ele>445.39999389648</ele>
        <time>2019-04-20T07:53:26.000Z</time>
      </trkpt>
      <trkpt lat="43.96932" lon="7.30738">
        <ele>445.79998779297</ele>
        <time>2019-04-20T07:53:30.000Z</time>
      </trkpt>
      <trkpt lat="43.96937" lon="7.30747">
        <ele>445.79998779297</ele>
        <time>2019-04-20T07:53:32.000Z</time>
      </trkpt>
      <trkpt lat="43.96943" lon="7.30755">
        <ele>446</ele>
        <time>2019-04-20T07:53:34.000Z</time>
      </trkpt>
      <trkpt lat="43.96952" lon="7.30768">
        <ele>446.39999389648</ele>
        <time>2019-04-20T07:53:37.000Z</time>
      </trkpt>
      <trkpt lat="43.96954" lon="7.30774">
        <ele>446.39999389648</ele>
        <time>2019-04-20T07:53:38.000Z</time>
      </trkpt>
      <trkpt lat="43.96956" lon="7.30779">
        <ele>446.39999389648</ele>
        <time>2019-04-20T07:53:39.000Z</time>
      </trkpt>
      <trkpt lat="43.96958" lon="7.30797">
        <ele>446.60000610352</ele>
        <time>2019-04-20T07:53:42.000Z</time>
      </trkpt>
      <trkpt lat="43.96958" lon="7.30809">
        <ele>446.79998779297</ele>
        <time>2019-04-20T07:53:44.000Z</time>
      </trkpt>
      <trkpt lat="43.96957" lon="7.30846">
        <ele>447.20001220703</ele>
        <time>2019-04-20T07:53:50.000Z</time>
      </trkpt>
      <trkpt lat="43.96954" lon="7.30857">
        <ele>447.39999389648</ele>
        <time>2019-04-20T07:53:52.000Z</time>
      </trkpt>
      <trkpt lat="43.9695" lon="7.30867">
        <ele>447.39999389648</ele>
        <time>2019-04-20T07:53:54.000Z</time>
      </trkpt>
      <trkpt lat="43.96948" lon="7.30872">
        <ele>447.60000610352</ele>
        <time>2019-04-20T07:53:55.000Z</time>
      </trkpt>
      <trkpt lat="43.96939" lon="7.30889">
        <ele>448</ele>
        <time>2019-04-20T07:53:59.000Z</time>
      </trkpt>
      <trkpt lat="43.96937" lon="7.30895">
        <ele>448</ele>
        <time>2019-04-20T07:54:00.000Z</time>
      </trkpt>
      <trkpt lat="43.96938" lon="7.30913">
        <ele>448.20001220703</ele>
        <time>2019-04-20T07:54:03.000Z</time>
      </trkpt>
      <trkpt lat="43.96941" lon="7.30924">
        <ele>448.39999389648</ele>
        <time>2019-04-20T07:54:05.000Z</time>
      </trkpt>
      <trkpt lat="43.96945" lon="7.3094">
        <ele>448.60000610352</ele>
        <time>2019-04-20T07:54:08.000Z</time>
      </trkpt>
      <trkpt lat="43.96947" lon="7.30945">
        <ele>448.79998779297</ele>
        <time>2019-04-20T07:54:09.000Z</time>
      </trkpt>
      <trkpt lat="43.96964" lon="7.3097">
        <ele>449.20001220703</ele>
        <time>2019-04-20T07:54:15.000Z</time>
      </trkpt>
      <trkpt lat="43.96967" lon="7.30974">
        <ele>449.20001220703</ele>
        <time>2019-04-20T07:54:16.000Z</time>
      </trkpt>
      <trkpt lat="43.96967" lon="7.3099">
        <ele>449.39999389648</ele>
        <time>2019-04-20T07:54:19.000Z</time>
      </trkpt>
      <trkpt lat="43.96963" lon="7.31">
        <ele>449.60000610352</ele>
        <time>2019-04-20T07:54:21.000Z</time>
      </trkpt>
      <trkpt lat="43.96961" lon="7.31005">
        <ele>449.79998779297</ele>
        <time>2019-04-20T07:54:22.000Z</time>
      </trkpt>
      <trkpt lat="43.9696" lon="7.31015">
        <ele>450</ele>
        <time>2019-04-20T07:54:24.000Z</time>
      </trkpt>
      <trkpt lat="43.96966" lon="7.31029">
        <ele>450</ele>
        <time>2019-04-20T07:54:27.000Z</time>
      </trkpt>
      <trkpt lat="43.96991" lon="7.31056">
        <ele>450.60000610352</ele>
        <time>2019-04-20T07:54:35.000Z</time>
      </trkpt>
      <trkpt lat="43.96995" lon="7.3106">
        <ele>450.79998779297</ele>
        <time>2019-04-20T07:54:36.000Z</time>
      </trkpt>
      <trkpt lat="43.97009" lon="7.31078">
        <ele>451.20001220703</ele>
        <time>2019-04-20T07:54:41.000Z</time>
      </trkpt>
      <trkpt lat="43.97018" lon="7.31089">
        <ele>451.39999389648</ele>
        <time>2019-04-20T07:54:44.000Z</time>
      </trkpt>
      <trkpt lat="43.97025" lon="7.31096">
        <ele>451.39999389648</ele>
        <time>2019-04-20T07:54:46.000Z</time>
      </trkpt>
      <trkpt lat="43.97029" lon="7.311">
        <ele>451.60000610352</ele>
        <time>2019-04-20T07:54:47.000Z</time>
      </trkpt>
      <trkpt lat="43.9704" lon="7.31111">
        <ele>451.79998779297</ele>
        <time>2019-04-20T07:54:50.000Z</time>
      </trkpt>
      <trkpt lat="43.97073" lon="7.31143">
        <ele>452.39999389648</ele>
        <time>2019-04-20T07:54:59.000Z</time>
      </trkpt>
      <trkpt lat="43.9709" lon="7.31161">
        <ele>452.79998779297</ele>
        <time>2019-04-20T07:55:04.000Z</time>
      </trkpt>
      <trkpt lat="43.97099" lon="7.31175">
        <ele>453.20001220703</ele>
        <time>2019-04-20T07:55:07.000Z</time>
      </trkpt>
      <trkpt lat="43.97109" lon="7.31194">
        <ele>453.60000610352</ele>
        <time>2019-04-20T07:55:11.000Z</time>
      </trkpt>
      <trkpt lat="43.97117" lon="7.31209">
        <ele>453.79998779297</ele>
        <time>2019-04-20T07:55:14.000Z</time>
      </trkpt>
      <trkpt lat="43.97125" lon="7.31223">
        <ele>454</ele>
        <time>2019-04-20T07:55:17.000Z</time>
      </trkpt>
      <trkpt lat="43.97127" lon="7.31234">
        <ele>454.20001220703</ele>
        <time>2019-04-20T07:55:19.000Z</time>
      </trkpt>
      <trkpt lat="43.97133" lon="7.31253">
        <ele>454.79998779297</ele>
        <time>2019-04-20T07:55:23.000Z</time>
      </trkpt>
      <trkpt lat="43.97135" lon="7.31258">
        <ele>455</ele>
        <time>2019-04-20T07:55:24.000Z</time>
      </trkpt>
      <trkpt lat="43.97147" lon="7.31278">
        <ele>455.60000610352</ele>
        <time>2019-04-20T07:55:28.000Z</time>
      </trkpt>
      <trkpt lat="43.97153" lon="7.31288">
        <ele>455.60000610352</ele>
        <time>2019-04-20T07:55:30.000Z</time>
      </trkpt>
      <trkpt lat="43.97167" lon="7.31311">
        <ele>455.79998779297</ele>
        <time>2019-04-20T07:55:35.000Z</time>
      </trkpt>
      <trkpt lat="43.97174" lon="7.31318">
        <ele>456</ele>
        <time>2019-04-20T07:55:37.000Z</time>
      </trkpt>
      <trkpt lat="43.97177" lon="7.31321">
        <ele>456</ele>
        <time>2019-04-20T07:55:38.000Z</time>
      </trkpt>
      <trkpt lat="43.97184" lon="7.31327">
        <ele>456.20001220703</ele>
        <time>2019-04-20T07:55:40.000Z</time>
      </trkpt>
      <trkpt lat="43.97191" lon="7.31333">
        <ele>456.39999389648</ele>
        <time>2019-04-20T07:55:42.000Z</time>
      </trkpt>
      <trkpt lat="43.97194" lon="7.31338">
        <ele>456.60000610352</ele>
        <time>2019-04-20T07:55:43.000Z</time>
      </trkpt>
      <trkpt lat="43.97194" lon="7.31355">
        <ele>456.79998779297</ele>
        <time>2019-04-20T07:55:46.000Z</time>
      </trkpt>
      <trkpt lat="43.97194" lon="7.31366">
        <ele>457.20001220703</ele>
        <time>2019-04-20T07:55:48.000Z</time>
      </trkpt>
      <trkpt lat="43.97195" lon="7.31372">
        <ele>457.20001220703</ele>
        <time>2019-04-20T07:55:49.000Z</time>
      </trkpt>
      <trkpt lat="43.97199" lon="7.31388">
        <ele>457.60000610352</ele>
        <time>2019-04-20T07:55:52.000Z</time>
      </trkpt>
      <trkpt lat="43.97214" lon="7.31407">
        <ele>458</ele>
        <time>2019-04-20T07:55:57.000Z</time>
      </trkpt>
      <trkpt lat="43.97227" lon="7.31414">
        <ele>458.20001220703</ele>
        <time>2019-04-20T07:56:00.000Z</time>
      </trkpt>
      <trkpt lat="43.97239" lon="7.31419">
        <ele>458.39999389648</ele>
        <time>2019-04-20T07:56:03.000Z</time>
      </trkpt>
      <trkpt lat="43.97252" lon="7.31418">
        <ele>458.60000610352</ele>
        <time>2019-04-20T07:56:06.000Z</time>
      </trkpt>
      <trkpt lat="43.97261" lon="7.31418">
        <ele>458.79998779297</ele>
        <time>2019-04-20T07:56:08.000Z</time>
      </trkpt>
      <trkpt lat="43.97282" lon="7.31419">
        <ele>459.20001220703</ele>
        <time>2019-04-20T07:56:13.000Z</time>
      </trkpt>
      <trkpt lat="43.97285" lon="7.31419">
        <ele>459.20001220703</ele>
        <time>2019-04-20T07:56:14.000Z</time>
      </trkpt>
      <trkpt lat="43.97302" lon="7.31417">
        <ele>459.60000610352</ele>
        <time>2019-04-20T07:56:19.000Z</time>
      </trkpt>
      <trkpt lat="43.9732" lon="7.31417">
        <ele>460</ele>
        <time>2019-04-20T07:56:23.000Z</time>
      </trkpt>
      <trkpt lat="43.97334" lon="7.31419">
        <ele>460.20001220703</ele>
        <time>2019-04-20T07:56:26.000Z</time>
      </trkpt>
      <trkpt lat="43.97348" lon="7.31422">
        <ele>460.39999389648</ele>
        <time>2019-04-20T07:56:29.000Z</time>
      </trkpt>
      <trkpt lat="43.97361" lon="7.3143">
        <ele>461</ele>
        <time>2019-04-20T07:56:33.000Z</time>
      </trkpt>
      <trkpt lat="43.97362" lon="7.3143">
        <ele>461.20001220703</ele>
        <time>2019-04-20T07:56:36.000Z</time>
      </trkpt>
      <trkpt lat="43.97373" lon="7.3143">
        <ele>461.60000610352</ele>
        <time>2019-04-20T07:56:39.000Z</time>
      </trkpt>
      <trkpt lat="43.9739" lon="7.31428">
        <ele>462</ele>
        <time>2019-04-20T07:56:44.000Z</time>
      </trkpt>
      <trkpt lat="43.97396" lon="7.31431">
        <ele>462.39999389648</ele>
        <time>2019-04-20T07:56:46.000Z</time>
      </trkpt>
      <trkpt lat="43.97406" lon="7.31437">
        <ele>463.20001220703</ele>
        <time>2019-04-20T07:56:50.000Z</time>
      </trkpt>
      <trkpt lat="43.97408" lon="7.31438">
        <ele>463.60000610352</ele>
        <time>2019-04-20T07:56:51.000Z</time>
      </trkpt>
      <trkpt lat="43.97419" lon="7.31442">
        <ele>464.60000610352</ele>
        <time>2019-04-20T07:56:56.000Z</time>
      </trkpt>
      <trkpt lat="43.97424" lon="7.31444">
        <ele>465.20001220703</ele>
        <time>2019-04-20T07:56:59.000Z</time>
      </trkpt>
      <trkpt lat="43.97429" lon="7.31444">
        <ele>465.60000610352</ele>
        <time>2019-04-20T07:57:02.000Z</time>
      </trkpt>
      <trkpt lat="43.9743" lon="7.31444">
        <ele>465.79998779297</ele>
        <time>2019-04-20T07:57:03.000Z</time>
      </trkpt>
      <trkpt lat="43.97433" lon="7.31445">
        <ele>466</ele>
        <time>2019-04-20T07:57:05.000Z</time>
      </trkpt>
      <trkpt lat="43.97436" lon="7.31448">
        <ele>466.39999389648</ele>
        <time>2019-04-20T07:57:08.000Z</time>
      </trkpt>
      <trkpt lat="43.97437" lon="7.31449">
        <ele>466.79998779297</ele>
        <time>2019-04-20T07:57:14.000Z</time>
      </trkpt>
      <trkpt lat="43.97438" lon="7.3145">
        <ele>466.79998779297</ele>
        <time>2019-04-20T07:57:15.000Z</time>
      </trkpt>
      <trkpt lat="43.97439" lon="7.31451">
        <ele>466.79998779297</ele>
        <time>2019-04-20T07:57:28.000Z</time>
      </trkpt>
      <trkpt lat="43.9744" lon="7.31452">
        <ele>466.79998779297</ele>
        <time>2019-04-20T07:57:41.000Z</time>
      </trkpt>
      <trkpt lat="43.97443" lon="7.31452">
        <ele>467.20001220703</ele>
        <time>2019-04-20T07:57:56.000Z</time>
      </trkpt>
      <trkpt lat="43.97443" lon="7.31452">
        <ele>467.39999389648</ele>
        <time>2019-04-20T07:58:04.000Z</time>
      </trkpt>
      <trkpt lat="43.97444" lon="7.31452">
        <ele>467</ele>
        <time>2019-04-20T07:58:17.000Z</time>
      </trkpt>
      <trkpt lat="43.97443" lon="7.31452">
        <ele>466.60000610352</ele>
        <time>2019-04-20T07:58:22.000Z</time>
      </trkpt>
      <trkpt lat="43.97444" lon="7.31452">
        <ele>467</ele>
        <time>2019-04-20T07:58:31.000Z</time>
      </trkpt>
      <trkpt lat="43.97447" lon="7.31452">
        <ele>467.20001220703</ele>
        <time>2019-04-20T07:58:43.000Z</time>
      </trkpt>
      <trkpt lat="43.97448" lon="7.31452">
        <ele>467</ele>
        <time>2019-04-20T07:58:54.000Z</time>
      </trkpt>
      <trkpt lat="43.97449" lon="7.31451">
        <ele>467</ele>
        <time>2019-04-20T07:59:01.000Z</time>
      </trkpt>
      <trkpt lat="43.97449" lon="7.31452">
        <ele>466.79998779297</ele>
        <time>2019-04-20T07:59:18.000Z</time>
      </trkpt>
      <trkpt lat="43.9745" lon="7.31452">
        <ele>467.20001220703</ele>
        <time>2019-04-20T07:59:28.000Z</time>
      </trkpt>
      <trkpt lat="43.97449" lon="7.31453">
        <ele>467</ele>
        <time>2019-04-20T07:59:43.000Z</time>
      </trkpt>
      <trkpt lat="43.97448" lon="7.31453">
        <ele>467</ele>
        <time>2019-04-20T07:59:56.000Z</time>
      </trkpt>
      <trkpt lat="43.97446" lon="7.31454">
        <ele>467</ele>
        <time>2019-04-20T08:00:09.000Z</time>
      </trkpt>
      <trkpt lat="43.97446" lon="7.31454">
        <ele>467</ele>
        <time>2019-04-20T08:00:21.000Z</time>
      </trkpt>
      <trkpt lat="43.97447" lon="7.31454">
        <ele>467.20001220703</ele>
        <time>2019-04-20T08:00:30.000Z</time>
      </trkpt>
      <trkpt lat="43.97448" lon="7.31454">
        <ele>467.20001220703</ele>
        <time>2019-04-20T08:00:37.000Z</time>
      </trkpt>
      <trkpt lat="43.97447" lon="7.31455">
        <ele>467.20001220703</ele>
        <time>2019-04-20T08:00:48.000Z</time>
      </trkpt>
      <trkpt lat="43.97449" lon="7.31455">
        <ele>467.20001220703</ele>
        <time>2019-04-20T08:00:58.000Z</time>
      </trkpt>
      <trkpt lat="43.9745" lon="7.31456">
        <ele>467.20001220703</ele>
        <time>2019-04-20T08:01:01.000Z</time>
      </trkpt>
      <trkpt lat="43.97453" lon="7.31457">
        <ele>467.39999389648</ele>
        <time>2019-04-20T08:01:03.000Z</time>
      </trkpt>
      <trkpt lat="43.97456" lon="7.3146">
        <ele>467.39999389648</ele>
        <time>2019-04-20T08:01:05.000Z</time>
      </trkpt>
      <trkpt lat="43.97462" lon="7.31464">
        <ele>467.79998779297</ele>
        <time>2019-04-20T08:01:09.000Z</time>
      </trkpt>
      <trkpt lat="43.97472" lon="7.31468">
        <ele>468.79998779297</ele>
        <time>2019-04-20T08:01:15.000Z</time>
      </trkpt>
      <trkpt lat="43.97474" lon="7.31467">
        <ele>469</ele>
        <time>2019-04-20T08:01:16.000Z</time>
      </trkpt>
      <trkpt lat="43.97482" lon="7.31465">
        <ele>469.20001220703</ele>
        <time>2019-04-20T08:01:19.000Z</time>
      </trkpt>
      <trkpt lat="43.97485" lon="7.31468">
        <ele>469.39999389648</ele>
        <time>2019-04-20T08:01:21.000Z</time>
      </trkpt>
      <trkpt lat="43.9749" lon="7.3147">
        <ele>470</ele>
        <time>2019-04-20T08:01:23.000Z</time>
      </trkpt>
      <trkpt lat="43.97493" lon="7.31472">
        <ele>470.60000610352</ele>
        <time>2019-04-20T08:01:25.000Z</time>
      </trkpt>
      <trkpt lat="43.97495" lon="7.31474">
        <ele>471.20001220703</ele>
        <time>2019-04-20T08:01:27.000Z</time>
      </trkpt>
      <trkpt lat="43.97499" lon="7.31477">
        <ele>472.20001220703</ele>
        <time>2019-04-20T08:01:30.000Z</time>
      </trkpt>
      <trkpt lat="43.97501" lon="7.31477">
        <ele>472.39999389648</ele>
        <time>2019-04-20T08:01:31.000Z</time>
      </trkpt>
      <trkpt lat="43.97506" lon="7.31482">
        <ele>473.60000610352</ele>
        <time>2019-04-20T08:01:35.000Z</time>
      </trkpt>
      <trkpt lat="43.97512" lon="7.31488">
        <ele>474.60000610352</ele>
        <time>2019-04-20T08:01:39.000Z</time>
      </trkpt>
      <trkpt lat="43.97514" lon="7.3149">
        <ele>474.79998779297</ele>
        <time>2019-04-20T08:01:40.000Z</time>
      </trkpt>
      <trkpt lat="43.97518" lon="7.31496">
        <ele>475.79998779297</ele>
        <time>2019-04-20T08:01:44.000Z</time>
      </trkpt>
      <trkpt lat="43.97519" lon="7.31497">
        <ele>476.39999389648</ele>
        <time>2019-04-20T08:01:45.000Z</time>
      </trkpt>
      <trkpt lat="43.97521" lon="7.31498">
        <ele>476.79998779297</ele>
        <time>2019-04-20T08:01:46.000Z</time>
      </trkpt>
      <trkpt lat="43.97525" lon="7.31505">
        <ele>478.20001220703</ele>
        <time>2019-04-20T08:01:50.000Z</time>
      </trkpt>
      <trkpt lat="43.97526" lon="7.31507">
        <ele>478.60000610352</ele>
        <time>2019-04-20T08:01:51.000Z</time>
      </trkpt>
      <trkpt lat="43.97526" lon="7.3151">
        <ele>479</ele>
        <time>2019-04-20T08:01:52.000Z</time>
      </trkpt>
      <trkpt lat="43.97526" lon="7.31513">
        <ele>479.39999389648</ele>
        <time>2019-04-20T08:01:53.000Z</time>
      </trkpt>
      <trkpt lat="43.97524" lon="7.31517">
        <ele>480.20001220703</ele>
        <time>2019-04-20T08:01:55.000Z</time>
      </trkpt>
      <trkpt lat="43.97523" lon="7.31518">
        <ele>480.60000610352</ele>
        <time>2019-04-20T08:01:56.000Z</time>
      </trkpt>
      <trkpt lat="43.97521" lon="7.31524">
        <ele>481.79998779297</ele>
        <time>2019-04-20T08:01:59.000Z</time>
      </trkpt>
      <trkpt lat="43.97521" lon="7.31526">
        <ele>482.60000610352</ele>
        <time>2019-04-20T08:02:01.000Z</time>
      </trkpt>
      <trkpt lat="43.97521" lon="7.31527">
        <ele>483</ele>
        <time>2019-04-20T08:02:02.000Z</time>
      </trkpt>
      <trkpt lat="43.9752" lon="7.31533">
        <ele>484</ele>
        <time>2019-04-20T08:02:05.000Z</time>
      </trkpt>
      <trkpt lat="43.9752" lon="7.31535">
        <ele>484</ele>
        <time>2019-04-20T08:02:06.000Z</time>
      </trkpt>
      <trkpt lat="43.97519" lon="7.31548">
        <ele>485.39999389648</ele>
        <time>2019-04-20T08:02:12.000Z</time>
      </trkpt>
      <trkpt lat="43.97519" lon="7.31555">
        <ele>486.60000610352</ele>
        <time>2019-04-20T08:02:16.000Z</time>
      </trkpt>
      <trkpt lat="43.97519" lon="7.31556">
        <ele>486.79998779297</ele>
        <time>2019-04-20T08:02:17.000Z</time>
      </trkpt>
      <trkpt lat="43.9752" lon="7.31562">
        <ele>487.79998779297</ele>
        <time>2019-04-20T08:02:20.000Z</time>
      </trkpt>
      <trkpt lat="43.97521" lon="7.3157">
        <ele>488.39999389648</ele>
        <time>2019-04-20T08:02:24.000Z</time>
      </trkpt>
      <trkpt lat="43.97522" lon="7.31572">
        <ele>488.60000610352</ele>
        <time>2019-04-20T08:02:25.000Z</time>
      </trkpt>
      <trkpt lat="43.97523" lon="7.31578">
        <ele>489</ele>
        <time>2019-04-20T08:02:28.000Z</time>
      </trkpt>
      <trkpt lat="43.97526" lon="7.31586">
        <ele>490</ele>
        <time>2019-04-20T08:02:32.000Z</time>
      </trkpt>
      <trkpt lat="43.97526" lon="7.31588">
        <ele>490.20001220703</ele>
        <time>2019-04-20T08:02:33.000Z</time>
      </trkpt>
      <trkpt lat="43.97529" lon="7.31594">
        <ele>491.39999389648</ele>
        <time>2019-04-20T08:02:37.000Z</time>
      </trkpt>
      <trkpt lat="43.9753" lon="7.31595">
        <ele>491.60000610352</ele>
        <time>2019-04-20T08:02:38.000Z</time>
      </trkpt>
      <trkpt lat="43.97532" lon="7.31597">
        <ele>492.39999389648</ele>
        <time>2019-04-20T08:02:40.000Z</time>
      </trkpt>
      <trkpt lat="43.97539" lon="7.31609">
        <ele>493.39999389648</ele>
        <time>2019-04-20T08:02:47.000Z</time>
      </trkpt>
      <trkpt lat="43.9754" lon="7.31611">
        <ele>493.39999389648</ele>
        <time>2019-04-20T08:02:48.000Z</time>
      </trkpt>
      <trkpt lat="43.97544" lon="7.31622">
        <ele>494.20001220703</ele>
        <time>2019-04-20T08:02:54.000Z</time>
      </trkpt>
      <trkpt lat="43.97545" lon="7.31626">
        <ele>494.60000610352</ele>
        <time>2019-04-20T08:02:56.000Z</time>
      </trkpt>
      <trkpt lat="43.9755" lon="7.31637">
        <ele>495.60000610352</ele>
        <time>2019-04-20T08:03:02.000Z</time>
      </trkpt>
      <trkpt lat="43.97555" lon="7.31643">
        <ele>497</ele>
        <time>2019-04-20T08:03:06.000Z</time>
      </trkpt>
      <trkpt lat="43.97556" lon="7.31645">
        <ele>497.39999389648</ele>
        <time>2019-04-20T08:03:07.000Z</time>
      </trkpt>
      <trkpt lat="43.97559" lon="7.31647">
        <ele>498</ele>
        <time>2019-04-20T08:03:09.000Z</time>
      </trkpt>
      <trkpt lat="43.97562" lon="7.3165">
        <ele>499</ele>
        <time>2019-04-20T08:03:12.000Z</time>
      </trkpt>
      <trkpt lat="43.97561" lon="7.31649">
        <ele>499.39999389648</ele>
        <time>2019-04-20T08:03:13.000Z</time>
      </trkpt>
      <trkpt lat="43.97564" lon="7.31653">
        <ele>500.60000610352</ele>
        <time>2019-04-20T08:03:17.000Z</time>
      </trkpt>
      <trkpt lat="43.97564" lon="7.31653">
        <ele>501</ele>
        <time>2019-04-20T08:03:18.000Z</time>
      </trkpt>
      <trkpt lat="43.97564" lon="7.31653">
        <ele>501.79998779297</ele>
        <time>2019-04-20T08:03:20.000Z</time>
      </trkpt>
      <trkpt lat="43.97562" lon="7.31652">
        <ele>501.79998779297</ele>
        <time>2019-04-20T08:03:26.000Z</time>
      </trkpt>
      <trkpt lat="43.9756" lon="7.3165">
        <ele>501.79998779297</ele>
        <time>2019-04-20T08:03:35.000Z</time>
      </trkpt>
      <trkpt lat="43.97562" lon="7.3165">
        <ele>502</ele>
        <time>2019-04-20T08:03:37.000Z</time>
      </trkpt>
      <trkpt lat="43.97564" lon="7.31651">
        <ele>502.20001220703</ele>
        <time>2019-04-20T08:03:40.000Z</time>
      </trkpt>
      <trkpt lat="43.97566" lon="7.31652">
        <ele>502.79998779297</ele>
        <time>2019-04-20T08:03:44.000Z</time>
      </trkpt>
      <trkpt lat="43.97569" lon="7.31654">
        <ele>503.39999389648</ele>
        <time>2019-04-20T08:03:48.000Z</time>
      </trkpt>
      <trkpt lat="43.97572" lon="7.31657">
        <ele>504</ele>
        <time>2019-04-20T08:03:50.000Z</time>
      </trkpt>
      <trkpt lat="43.97574" lon="7.3166">
        <ele>504.60000610352</ele>
        <time>2019-04-20T08:03:54.000Z</time>
      </trkpt>
      <trkpt lat="43.97576" lon="7.31662">
        <ele>505</ele>
        <time>2019-04-20T08:03:56.000Z</time>
      </trkpt>
      <trkpt lat="43.97581" lon="7.31667">
        <ele>506</ele>
        <time>2019-04-20T08:04:02.000Z</time>
      </trkpt>
      <trkpt lat="43.97584" lon="7.3167">
        <ele>507</ele>
        <time>2019-04-20T08:04:08.000Z</time>
      </trkpt>
      <trkpt lat="43.97584" lon="7.31671">
        <ele>507.20001220703</ele>
        <time>2019-04-20T08:04:09.000Z</time>
      </trkpt>
      <trkpt lat="43.97586" lon="7.31675">
        <ele>507.60000610352</ele>
        <time>2019-04-20T08:04:15.000Z</time>
      </trkpt>
      <trkpt lat="43.97587" lon="7.31676">
        <ele>507.79998779297</ele>
        <time>2019-04-20T08:04:21.000Z</time>
      </trkpt>
      <trkpt lat="43.97588" lon="7.31676">
        <ele>507.79998779297</ele>
        <time>2019-04-20T08:04:22.000Z</time>
      </trkpt>
      <trkpt lat="43.97593" lon="7.31678">
        <ele>507.79998779297</ele>
        <time>2019-04-20T08:04:25.000Z</time>
      </trkpt>
      <trkpt lat="43.97599" lon="7.31679">
        <ele>508.20001220703</ele>
        <time>2019-04-20T08:04:28.000Z</time>
      </trkpt>
      <trkpt lat="43.97607" lon="7.31683">
        <ele>509.20001220703</ele>
        <time>2019-04-20T08:04:33.000Z</time>
      </trkpt>
      <trkpt lat="43.97612" lon="7.31685">
        <ele>510.39999389648</ele>
        <time>2019-04-20T08:04:36.000Z</time>
      </trkpt>
      <trkpt lat="43.97616" lon="7.3169">
        <ele>511.39999389648</ele>
        <time>2019-04-20T08:04:39.000Z</time>
      </trkpt>
      <trkpt lat="43.97617" lon="7.31691">
        <ele>512</ele>
        <time>2019-04-20T08:04:40.000Z</time>
      </trkpt>
      <trkpt lat="43.97619" lon="7.31693">
        <ele>513</ele>
        <time>2019-04-20T08:04:42.000Z</time>
      </trkpt>
      <trkpt lat="43.97625" lon="7.31697">
        <ele>514</ele>
        <time>2019-04-20T08:04:46.000Z</time>
      </trkpt>
      <trkpt lat="43.97627" lon="7.31698">
        <ele>514.20001220703</ele>
        <time>2019-04-20T08:04:47.000Z</time>
      </trkpt>
      <trkpt lat="43.97634" lon="7.31706">
        <ele>515.20001220703</ele>
        <time>2019-04-20T08:04:53.000Z</time>
      </trkpt>
      <trkpt lat="43.97639" lon="7.31712">
        <ele>516.40002441406</ele>
        <time>2019-04-20T08:04:57.000Z</time>
      </trkpt>
      <trkpt lat="43.97642" lon="7.31718">
        <ele>517.79998779297</ele>
        <time>2019-04-20T08:05:01.000Z</time>
      </trkpt>
      <trkpt lat="43.97644" lon="7.31721">
        <ele>518.79998779297</ele>
        <time>2019-04-20T08:05:04.000Z</time>
      </trkpt>
      <trkpt lat="43.97646" lon="7.31724">
        <ele>519.40002441406</ele>
        <time>2019-04-20T08:05:06.000Z</time>
      </trkpt>
      <trkpt lat="43.97648" lon="7.31726">
        <ele>519.79998779297</ele>
        <time>2019-04-20T08:05:08.000Z</time>
      </trkpt>
      <trkpt lat="43.97654" lon="7.31732">
        <ele>521</ele>
        <time>2019-04-20T08:05:13.000Z</time>
      </trkpt>
      <trkpt lat="43.97656" lon="7.31733">
        <ele>521.20001220703</ele>
        <time>2019-04-20T08:05:14.000Z</time>
      </trkpt>
      <trkpt lat="43.97661" lon="7.31738">
        <ele>521.59997558594</ele>
        <time>2019-04-20T08:05:17.000Z</time>
      </trkpt>
      <trkpt lat="43.97666" lon="7.31743">
        <ele>522</ele>
        <time>2019-04-20T08:05:22.000Z</time>
      </trkpt>
      <trkpt lat="43.97674" lon="7.31748">
        <ele>521.79998779297</ele>
        <time>2019-04-20T08:05:25.000Z</time>
      </trkpt>
      <trkpt lat="43.9768" lon="7.31754">
        <ele>522.20001220703</ele>
        <time>2019-04-20T08:05:29.000Z</time>
      </trkpt>
      <trkpt lat="43.97683" lon="7.31757">
        <ele>522.40002441406</ele>
        <time>2019-04-20T08:05:31.000Z</time>
      </trkpt>
      <trkpt lat="43.97691" lon="7.31767">
        <ele>523.20001220703</ele>
        <time>2019-04-20T08:05:37.000Z</time>
      </trkpt>
      <trkpt lat="43.97692" lon="7.31769">
        <ele>523.59997558594</ele>
        <time>2019-04-20T08:05:38.000Z</time>
      </trkpt>
      <trkpt lat="43.97692" lon="7.3177">
        <ele>524.20001220703</ele>
        <time>2019-04-20T08:05:39.000Z</time>
      </trkpt>
      <trkpt lat="43.97692" lon="7.31771">
        <ele>525.20001220703</ele>
        <time>2019-04-20T08:05:43.000Z</time>
      </trkpt>
      <trkpt lat="43.97693" lon="7.31771">
        <ele>525.20001220703</ele>
        <time>2019-04-20T08:05:54.000Z</time>
      </trkpt>
      <trkpt lat="43.97693" lon="7.31771">
        <ele>525.20001220703</ele>
        <time>2019-04-20T08:06:04.000Z</time>
      </trkpt>
      <trkpt lat="43.97695" lon="7.31771">
        <ele>525.20001220703</ele>
        <time>2019-04-20T08:06:17.000Z</time>
      </trkpt>
      <trkpt lat="43.97695" lon="7.31771">
        <ele>525.20001220703</ele>
        <time>2019-04-20T08:06:24.000Z</time>
      </trkpt>
      <trkpt lat="43.97695" lon="7.31772">
        <ele>525.40002441406</ele>
        <time>2019-04-20T08:06:29.000Z</time>
      </trkpt>
      <trkpt lat="43.977" lon="7.31783">
        <ele>525.20001220703</ele>
        <time>2019-04-20T08:06:33.000Z</time>
      </trkpt>
      <trkpt lat="43.97711" lon="7.31795">
        <ele>524.59997558594</ele>
        <time>2019-04-20T08:06:39.000Z</time>
      </trkpt>
      <trkpt lat="43.97726" lon="7.31811">
        <ele>526.40002441406</ele>
        <time>2019-04-20T08:06:47.000Z</time>
      </trkpt>
      <trkpt lat="43.97742" lon="7.31825">
        <ele>527.20001220703</ele>
        <time>2019-04-20T08:06:54.000Z</time>
      </trkpt>
      <trkpt lat="43.97748" lon="7.31829">
        <ele>527.40002441406</ele>
        <time>2019-04-20T08:06:56.000Z</time>
      </trkpt>
      <trkpt lat="43.97756" lon="7.31833">
        <ele>527.59997558594</ele>
        <time>2019-04-20T08:06:59.000Z</time>
      </trkpt>
      <trkpt lat="43.97756" lon="7.31834">
        <ele>528</ele>
        <time>2019-04-20T08:07:02.000Z</time>
      </trkpt>
      <trkpt lat="43.97758" lon="7.31835">
        <ele>527.79998779297</ele>
        <time>2019-04-20T08:07:08.000Z</time>
      </trkpt>
      <trkpt lat="43.97758" lon="7.31836">
        <ele>528</ele>
        <time>2019-04-20T08:07:12.000Z</time>
      </trkpt>
      <trkpt lat="43.97758" lon="7.31836">
        <ele>528</ele>
        <time>2019-04-20T08:07:13.000Z</time>
      </trkpt>
      <trkpt lat="43.9776" lon="7.31837">
        <ele>528</ele>
        <time>2019-04-20T08:07:14.000Z</time>
      </trkpt>
      <trkpt lat="43.97768" lon="7.31842">
        <ele>528</ele>
        <time>2019-04-20T08:07:18.000Z</time>
      </trkpt>
      <trkpt lat="43.97789" lon="7.31858">
        <ele>528.20001220703</ele>
        <time>2019-04-20T08:07:26.000Z</time>
      </trkpt>
      <trkpt lat="43.97802" lon="7.31869">
        <ele>528.40002441406</ele>
        <time>2019-04-20T08:07:31.000Z</time>
      </trkpt>
      <trkpt lat="43.97807" lon="7.31874">
        <ele>528.59997558594</ele>
        <time>2019-04-20T08:07:33.000Z</time>
      </trkpt>
      <trkpt lat="43.97828" lon="7.31893">
        <ele>528.40002441406</ele>
        <time>2019-04-20T08:07:40.000Z</time>
      </trkpt>
      <trkpt lat="43.97847" lon="7.31904">
        <ele>527.59997558594</ele>
        <time>2019-04-20T08:07:45.000Z</time>
      </trkpt>
      <trkpt lat="43.9785" lon="7.31906">
        <ele>527.20001220703</ele>
        <time>2019-04-20T08:07:46.000Z</time>
      </trkpt>
      <trkpt lat="43.97861" lon="7.31915">
        <ele>526.20001220703</ele>
        <time>2019-04-20T08:07:50.000Z</time>
      </trkpt>
      <trkpt lat="43.97866" lon="7.31914">
        <ele>526.20001220703</ele>
        <time>2019-04-20T08:07:51.000Z</time>
      </trkpt>
      <trkpt lat="43.97874" lon="7.31906">
        <ele>525.59997558594</ele>
        <time>2019-04-20T08:07:53.000Z</time>
      </trkpt>
      <trkpt lat="43.97876" lon="7.31901">
        <ele>524.79998779297</ele>
        <time>2019-04-20T08:07:54.000Z</time>
      </trkpt>
      <trkpt lat="43.97879" lon="7.31894">
        <ele>524.40002441406</ele>
        <time>2019-04-20T08:07:55.000Z</time>
      </trkpt>
      <trkpt lat="43.97883" lon="7.31883">
        <ele>523.79998779297</ele>
        <time>2019-04-20T08:07:57.000Z</time>
      </trkpt>
      <trkpt lat="43.97888" lon="7.31871">
        <ele>523.59997558594</ele>
        <time>2019-04-20T08:07:59.000Z</time>
      </trkpt>
      <trkpt lat="43.97891" lon="7.31866">
        <ele>523.20001220703</ele>
        <time>2019-04-20T08:08:00.000Z</time>
      </trkpt>
      <trkpt lat="43.97901" lon="7.31858">
        <ele>522.79998779297</ele>
        <time>2019-04-20T08:08:02.000Z</time>
      </trkpt>
      <trkpt lat="43.97919" lon="7.31854">
        <ele>522</ele>
        <time>2019-04-20T08:08:05.000Z</time>
      </trkpt>
      <trkpt lat="43.97926" lon="7.31854">
        <ele>521.40002441406</ele>
        <time>2019-04-20T08:08:06.000Z</time>
      </trkpt>
      <trkpt lat="43.97945" lon="7.31853">
        <ele>520.20001220703</ele>
        <time>2019-04-20T08:08:09.000Z</time>
      </trkpt>
      <trkpt lat="43.97957" lon="7.31852">
        <ele>519.20001220703</ele>
        <time>2019-04-20T08:08:11.000Z</time>
      </trkpt>
      <trkpt lat="43.97963" lon="7.31852">
        <ele>518.79998779297</ele>
        <time>2019-04-20T08:08:12.000Z</time>
      </trkpt>
      <trkpt lat="43.97968" lon="7.31854">
        <ele>518.20001220703</ele>
        <time>2019-04-20T08:08:13.000Z</time>
      </trkpt>
      <trkpt lat="43.97979" lon="7.31864">
        <ele>516.79998779297</ele>
        <time>2019-04-20T08:08:15.000Z</time>
      </trkpt>
      <trkpt lat="43.97984" lon="7.3188">
        <ele>515.40002441406</ele>
        <time>2019-04-20T08:08:17.000Z</time>
      </trkpt>
      <trkpt lat="43.97985" lon="7.31888">
        <ele>514.79998779297</ele>
        <time>2019-04-20T08:08:18.000Z</time>
      </trkpt>
      <trkpt lat="43.97987" lon="7.31893">
        <ele>514.40002441406</ele>
        <time>2019-04-20T08:08:19.000Z</time>
      </trkpt>
      <trkpt lat="43.97989" lon="7.31898">
        <ele>513.20001220703</ele>
        <time>2019-04-20T08:08:21.000Z</time>
      </trkpt>
      <trkpt lat="43.9799" lon="7.31898">
        <ele>512.79998779297</ele>
        <time>2019-04-20T08:08:25.000Z</time>
      </trkpt>
      <trkpt lat="43.97991" lon="7.31898">
        <ele>512.59997558594</ele>
        <time>2019-04-20T08:08:38.000Z</time>
      </trkpt>
      <trkpt lat="43.97991" lon="7.31898">
        <ele>513</ele>
        <time>2019-04-20T08:08:45.000Z</time>
      </trkpt>
      <trkpt lat="43.9799" lon="7.31897">
        <ele>513.40002441406</ele>
        <time>2019-04-20T08:08:49.000Z</time>
      </trkpt>
      <trkpt lat="43.97991" lon="7.31896">
        <ele>512.59997558594</ele>
        <time>2019-04-20T08:08:54.000Z</time>
      </trkpt>
      <trkpt lat="43.97993" lon="7.31896">
        <ele>512.40002441406</ele>
        <time>2019-04-20T08:08:58.000Z</time>
      </trkpt>
      <trkpt lat="43.97993" lon="7.31896">
        <ele>512.40002441406</ele>
        <time>2019-04-20T08:09:00.000Z</time>
      </trkpt>
      <trkpt lat="43.97994" lon="7.31895">
        <ele>513</ele>
        <time>2019-04-20T08:09:08.000Z</time>
      </trkpt>
      <trkpt lat="43.97997" lon="7.31902">
        <ele>513</ele>
        <time>2019-04-20T08:09:14.000Z</time>
      </trkpt>
      <trkpt lat="43.98002" lon="7.31915">
        <ele>514.40002441406</ele>
        <time>2019-04-20T08:09:22.000Z</time>
      </trkpt>
      <trkpt lat="43.98003" lon="7.31915">
        <ele>514.40002441406</ele>
        <time>2019-04-20T08:09:23.000Z</time>
      </trkpt>
      <trkpt lat="43.98005" lon="7.31917">
        <ele>515.20001220703</ele>
        <time>2019-04-20T08:09:28.000Z</time>
      </trkpt>
      <trkpt lat="43.98006" lon="7.31917">
        <ele>515.40002441406</ele>
        <time>2019-04-20T08:09:29.000Z</time>
      </trkpt>
      <trkpt lat="43.98007" lon="7.31915">
        <ele>516.40002441406</ele>
        <time>2019-04-20T08:09:32.000Z</time>
      </trkpt>
      <trkpt lat="43.98008" lon="7.31914">
        <ele>516.59997558594</ele>
        <time>2019-04-20T08:09:33.000Z</time>
      </trkpt>
      <trkpt lat="43.98008" lon="7.31912">
        <ele>517.79998779297</ele>
        <time>2019-04-20T08:09:37.000Z</time>
      </trkpt>
      <trkpt lat="43.98009" lon="7.31911">
        <ele>518.40002441406</ele>
        <time>2019-04-20T08:09:39.000Z</time>
      </trkpt>
      <trkpt lat="43.98009" lon="7.31909">
        <ele>518.40002441406</ele>
        <time>2019-04-20T08:09:40.000Z</time>
      </trkpt>
      <trkpt lat="43.98011" lon="7.31906">
        <ele>518.79998779297</ele>
        <time>2019-04-20T08:09:43.000Z</time>
      </trkpt>
      <trkpt lat="43.98012" lon="7.31905">
        <ele>519</ele>
        <time>2019-04-20T08:09:44.000Z</time>
      </trkpt>
      <trkpt lat="43.98013" lon="7.31903">
        <ele>519.20001220703</ele>
        <time>2019-04-20T08:09:46.000Z</time>
      </trkpt>
      <trkpt lat="43.98015" lon="7.319">
        <ele>520.20001220703</ele>
        <time>2019-04-20T08:09:49.000Z</time>
      </trkpt>
      <trkpt lat="43.98016" lon="7.31897">
        <ele>520.59997558594</ele>
        <time>2019-04-20T08:09:51.000Z</time>
      </trkpt>
      <trkpt lat="43.98017" lon="7.31895">
        <ele>520.79998779297</ele>
        <time>2019-04-20T08:09:53.000Z</time>
      </trkpt>
      <trkpt lat="43.98018" lon="7.31894">
        <ele>521.20001220703</ele>
        <time>2019-04-20T08:09:55.000Z</time>
      </trkpt>
      <trkpt lat="43.98025" lon="7.31892">
        <ele>522.20001220703</ele>
        <time>2019-04-20T08:10:00.000Z</time>
      </trkpt>
      <trkpt lat="43.98031" lon="7.31893">
        <ele>522.40002441406</ele>
        <time>2019-04-20T08:10:06.000Z</time>
      </trkpt>
      <trkpt lat="43.98032" lon="7.31892">
        <ele>522.59997558594</ele>
        <time>2019-04-20T08:10:08.000Z</time>
      </trkpt>
      <trkpt lat="43.98036" lon="7.31893">
        <ele>522.79998779297</ele>
        <time>2019-04-20T08:10:11.000Z</time>
      </trkpt>
      <trkpt lat="43.98036" lon="7.31893">
        <ele>523</ele>
        <time>2019-04-20T08:10:16.000Z</time>
      </trkpt>
      <trkpt lat="43.98037" lon="7.31893">
        <ele>523</ele>
        <time>2019-04-20T08:10:17.000Z</time>
      </trkpt>
      <trkpt lat="43.98042" lon="7.31893">
        <ele>523.20001220703</ele>
        <time>2019-04-20T08:10:20.000Z</time>
      </trkpt>
      <trkpt lat="43.98046" lon="7.31894">
        <ele>523.40002441406</ele>
        <time>2019-04-20T08:10:22.000Z</time>
      </trkpt>
      <trkpt lat="43.98062" lon="7.319">
        <ele>524.20001220703</ele>
        <time>2019-04-20T08:10:28.000Z</time>
      </trkpt>
      <trkpt lat="43.98065" lon="7.31901">
        <ele>524.40002441406</ele>
        <time>2019-04-20T08:10:29.000Z</time>
      </trkpt>
      <trkpt lat="43.9808" lon="7.31906">
        <ele>524.59997558594</ele>
        <time>2019-04-20T08:10:34.000Z</time>
      </trkpt>
      <trkpt lat="43.98093" lon="7.31912">
        <ele>525.40002441406</ele>
        <time>2019-04-20T08:10:40.000Z</time>
      </trkpt>
      <trkpt lat="43.98103" lon="7.31913">
        <ele>525.40002441406</ele>
        <time>2019-04-20T08:10:44.000Z</time>
      </trkpt>
      <trkpt lat="43.98107" lon="7.31913">
        <ele>525.40002441406</ele>
        <time>2019-04-20T08:10:45.000Z</time>
      </trkpt>
      <trkpt lat="43.98126" lon="7.31916">
        <ele>526</ele>
        <time>2019-04-20T08:10:52.000Z</time>
      </trkpt>
      <trkpt lat="43.98129" lon="7.31916">
        <ele>526.59997558594</ele>
        <time>2019-04-20T08:10:53.000Z</time>
      </trkpt>
      <trkpt lat="43.98142" lon="7.31917">
        <ele>527.20001220703</ele>
        <time>2019-04-20T08:10:58.000Z</time>
      </trkpt>
      <trkpt lat="43.98148" lon="7.31918">
        <ele>527.59997558594</ele>
        <time>2019-04-20T08:11:00.000Z</time>
      </trkpt>
      <trkpt lat="43.9816" lon="7.31922">
        <ele>528.20001220703</ele>
        <time>2019-04-20T08:11:05.000Z</time>
      </trkpt>
      <trkpt lat="43.98165" lon="7.31924">
        <ele>528.59997558594</ele>
        <time>2019-04-20T08:11:07.000Z</time>
      </trkpt>
      <trkpt lat="43.98169" lon="7.31925">
        <ele>529</ele>
        <time>2019-04-20T08:11:09.000Z</time>
      </trkpt>
      <trkpt lat="43.98171" lon="7.31926">
        <ele>529.59997558594</ele>
        <time>2019-04-20T08:11:13.000Z</time>
      </trkpt>
      <trkpt lat="43.98174" lon="7.31927">
        <ele>529.20001220703</ele>
        <time>2019-04-20T08:11:27.000Z</time>
      </trkpt>
      <trkpt lat="43.98175" lon="7.31927">
        <ele>529.59997558594</ele>
        <time>2019-04-20T08:11:32.000Z</time>
      </trkpt>
      <trkpt lat="43.98178" lon="7.3193">
        <ele>529.40002441406</ele>
        <time>2019-04-20T08:11:39.000Z</time>
      </trkpt>
      <trkpt lat="43.98181" lon="7.31935">
        <ele>529.79998779297</ele>
        <time>2019-04-20T08:11:42.000Z</time>
      </trkpt>
      <trkpt lat="43.98184" lon="7.31939">
        <ele>530</ele>
        <time>2019-04-20T08:11:44.000Z</time>
      </trkpt>
      <trkpt lat="43.98194" lon="7.31954">
        <ele>530.59997558594</ele>
        <time>2019-04-20T08:11:49.000Z</time>
      </trkpt>
      <trkpt lat="43.98195" lon="7.31957">
        <ele>531</ele>
        <time>2019-04-20T08:11:50.000Z</time>
      </trkpt>
      <trkpt lat="43.98199" lon="7.31966">
        <ele>531.59997558594</ele>
        <time>2019-04-20T08:11:53.000Z</time>
      </trkpt>
      <trkpt lat="43.98203" lon="7.31972">
        <ele>532.20001220703</ele>
        <time>2019-04-20T08:11:55.000Z</time>
      </trkpt>
      <trkpt lat="43.98209" lon="7.31986">
        <ele>533.40002441406</ele>
        <time>2019-04-20T08:11:59.000Z</time>
      </trkpt>
      <trkpt lat="43.98219" lon="7.32007">
        <ele>534</ele>
        <time>2019-04-20T08:12:05.000Z</time>
      </trkpt>
      <trkpt lat="43.98227" lon="7.32022">
        <ele>534.59997558594</ele>
        <time>2019-04-20T08:12:10.000Z</time>
      </trkpt>
      <trkpt lat="43.98238" lon="7.32041">
        <ele>534.79998779297</ele>
        <time>2019-04-20T08:12:15.000Z</time>
      </trkpt>
      <trkpt lat="43.98251" lon="7.32059">
        <ele>534</ele>
        <time>2019-04-20T08:12:21.000Z</time>
      </trkpt>
      <trkpt lat="43.98256" lon="7.32064">
        <ele>534.20001220703</ele>
        <time>2019-04-20T08:12:25.000Z</time>
      </trkpt>
      <trkpt lat="43.98264" lon="7.32067">
        <ele>534.79998779297</ele>
        <time>2019-04-20T08:12:31.000Z</time>
      </trkpt>
      <trkpt lat="43.98279" lon="7.32069">
        <ele>533.20001220703</ele>
        <time>2019-04-20T08:12:36.000Z</time>
      </trkpt>
      <trkpt lat="43.98291" lon="7.32083">
        <ele>532.79998779297</ele>
        <time>2019-04-20T08:12:41.000Z</time>
      </trkpt>
      <trkpt lat="43.98299" lon="7.32105">
        <ele>533.40002441406</ele>
        <time>2019-04-20T08:12:47.000Z</time>
      </trkpt>
      <trkpt lat="43.983" lon="7.32117">
        <ele>533.59997558594</ele>
        <time>2019-04-20T08:12:51.000Z</time>
      </trkpt>
      <trkpt lat="43.98302" lon="7.32123">
        <ele>534.40002441406</ele>
        <time>2019-04-20T08:12:53.000Z</time>
      </trkpt>
      <trkpt lat="43.98303" lon="7.32134">
        <ele>535.59997558594</ele>
        <time>2019-04-20T08:12:56.000Z</time>
      </trkpt>
      <trkpt lat="43.98304" lon="7.3214">
        <ele>536</ele>
        <time>2019-04-20T08:12:58.000Z</time>
      </trkpt>
      <trkpt lat="43.98305" lon="7.32147">
        <ele>536.79998779297</ele>
        <time>2019-04-20T08:13:00.000Z</time>
      </trkpt>
      <trkpt lat="43.98307" lon="7.32155">
        <ele>538</ele>
        <time>2019-04-20T08:13:03.000Z</time>
      </trkpt>
      <trkpt lat="43.98308" lon="7.32164">
        <ele>538.59997558594</ele>
        <time>2019-04-20T08:13:06.000Z</time>
      </trkpt>
      <trkpt lat="43.9831" lon="7.32172">
        <ele>539</ele>
        <time>2019-04-20T08:13:09.000Z</time>
      </trkpt>
      <trkpt lat="43.98311" lon="7.3218">
        <ele>539.79998779297</ele>
        <time>2019-04-20T08:13:12.000Z</time>
      </trkpt>
      <trkpt lat="43.98315" lon="7.32189">
        <ele>540.20001220703</ele>
        <time>2019-04-20T08:13:15.000Z</time>
      </trkpt>
      <trkpt lat="43.98317" lon="7.32196">
        <ele>540.59997558594</ele>
        <time>2019-04-20T08:13:17.000Z</time>
      </trkpt>
      <trkpt lat="43.98325" lon="7.32219">
        <ele>541</ele>
        <time>2019-04-20T08:13:24.000Z</time>
      </trkpt>
      <trkpt lat="43.98327" lon="7.32229">
        <ele>540.79998779297</ele>
        <time>2019-04-20T08:13:27.000Z</time>
      </trkpt>
      <trkpt lat="43.98329" lon="7.32234">
        <ele>541.20001220703</ele>
        <time>2019-04-20T08:13:29.000Z</time>
      </trkpt>
      <trkpt lat="43.9833" lon="7.32237">
        <ele>541.20001220703</ele>
        <time>2019-04-20T08:13:30.000Z</time>
      </trkpt>
      <trkpt lat="43.98333" lon="7.32242">
        <ele>541.59997558594</ele>
        <time>2019-04-20T08:13:32.000Z</time>
      </trkpt>
      <trkpt lat="43.98335" lon="7.32244">
        <ele>541.79998779297</ele>
        <time>2019-04-20T08:13:33.000Z</time>
      </trkpt>
      <trkpt lat="43.98343" lon="7.32257">
        <ele>542.40002441406</ele>
        <time>2019-04-20T08:13:38.000Z</time>
      </trkpt>
      <trkpt lat="43.98344" lon="7.3226">
        <ele>542.40002441406</ele>
        <time>2019-04-20T08:13:39.000Z</time>
      </trkpt>
      <trkpt lat="43.98348" lon="7.32274">
        <ele>543.20001220703</ele>
        <time>2019-04-20T08:13:44.000Z</time>
      </trkpt>
      <trkpt lat="43.98357" lon="7.3229">
        <ele>543.20001220703</ele>
        <time>2019-04-20T08:13:49.000Z</time>
      </trkpt>
      <trkpt lat="43.9836" lon="7.32294">
        <ele>543.40002441406</ele>
        <time>2019-04-20T08:13:51.000Z</time>
      </trkpt>
      <trkpt lat="43.9836" lon="7.32297">
        <ele>543.20001220703</ele>
        <time>2019-04-20T08:13:52.000Z</time>
      </trkpt>
      <trkpt lat="43.98359" lon="7.32299">
        <ele>543.40002441406</ele>
        <time>2019-04-20T08:13:53.000Z</time>
      </trkpt>
      <trkpt lat="43.98355" lon="7.32297">
        <ele>544</ele>
        <time>2019-04-20T08:13:56.000Z</time>
      </trkpt>
      <trkpt lat="43.98354" lon="7.32293">
        <ele>544.40002441406</ele>
        <time>2019-04-20T08:13:58.000Z</time>
      </trkpt>
      <trkpt lat="43.98353" lon="7.32292">
        <ele>544.40002441406</ele>
        <time>2019-04-20T08:13:59.000Z</time>
      </trkpt>
      <trkpt lat="43.98351" lon="7.32288">
        <ele>545.20001220703</ele>
        <time>2019-04-20T08:14:02.000Z</time>
      </trkpt>
      <trkpt lat="43.9835" lon="7.32287">
        <ele>545.40002441406</ele>
        <time>2019-04-20T08:14:03.000Z</time>
      </trkpt>
      <trkpt lat="43.98347" lon="7.32282">
        <ele>546.79998779297</ele>
        <time>2019-04-20T08:14:07.000Z</time>
      </trkpt>
      <trkpt lat="43.98343" lon="7.32278">
        <ele>548</ele>
        <time>2019-04-20T08:14:11.000Z</time>
      </trkpt>
      <trkpt lat="43.98342" lon="7.32277">
        <ele>548.20001220703</ele>
        <time>2019-04-20T08:14:12.000Z</time>
      </trkpt>
      <trkpt lat="43.98338" lon="7.32274">
        <ele>549.20001220703</ele>
        <time>2019-04-20T08:14:16.000Z</time>
      </trkpt>
      <trkpt lat="43.98336" lon="7.32272">
        <ele>549.59997558594</ele>
        <time>2019-04-20T08:14:18.000Z</time>
      </trkpt>
      <trkpt lat="43.98333" lon="7.32269">
        <ele>550.20001220703</ele>
        <time>2019-04-20T08:14:21.000Z</time>
      </trkpt>
      <trkpt lat="43.98332" lon="7.32268">
        <ele>551.20001220703</ele>
        <time>2019-04-20T08:14:24.000Z</time>
      </trkpt>
      <trkpt lat="43.98331" lon="7.32267">
        <ele>551.40002441406</ele>
        <time>2019-04-20T08:14:25.000Z</time>
      </trkpt>
      <trkpt lat="43.98327" lon="7.32263">
        <ele>552.40002441406</ele>
        <time>2019-04-20T08:14:30.000Z</time>
      </trkpt>
      <trkpt lat="43.98323" lon="7.32258">
        <ele>553.59997558594</ele>
        <time>2019-04-20T08:14:36.000Z</time>
      </trkpt>
      <trkpt lat="43.9832" lon="7.32254">
        <ele>554.59997558594</ele>
        <time>2019-04-20T08:14:41.000Z</time>
      </trkpt>
      <trkpt lat="43.98319" lon="7.32252">
        <ele>554.79998779297</ele>
        <time>2019-04-20T08:14:42.000Z</time>
      </trkpt>
      <trkpt lat="43.98315" lon="7.32247">
        <ele>555.79998779297</ele>
        <time>2019-04-20T08:14:46.000Z</time>
      </trkpt>
      <trkpt lat="43.98314" lon="7.32245">
        <ele>556.20001220703</ele>
        <time>2019-04-20T08:14:47.000Z</time>
      </trkpt>
      <trkpt lat="43.98312" lon="7.3224">
        <ele>557</ele>
        <time>2019-04-20T08:14:51.000Z</time>
      </trkpt>
      <trkpt lat="43.9831" lon="7.32237">
        <ele>557.20001220703</ele>
        <time>2019-04-20T08:14:53.000Z</time>
      </trkpt>
      <trkpt lat="43.98309" lon="7.32235">
        <ele>557.59997558594</ele>
        <time>2019-04-20T08:14:54.000Z</time>
      </trkpt>
      <trkpt lat="43.98307" lon="7.32233">
        <ele>558</ele>
        <time>2019-04-20T08:14:56.000Z</time>
      </trkpt>
      <trkpt lat="43.98305" lon="7.32231">
        <ele>558.40002441406</ele>
        <time>2019-04-20T08:14:57.000Z</time>
      </trkpt>
      <trkpt lat="43.98302" lon="7.32229">
        <ele>559</ele>
        <time>2019-04-20T08:15:00.000Z</time>
      </trkpt>
      <trkpt lat="43.98301" lon="7.32228">
        <ele>559.59997558594</ele>
        <time>2019-04-20T08:15:02.000Z</time>
      </trkpt>
      <trkpt lat="43.98301" lon="7.32227">
        <ele>560.20001220703</ele>
        <time>2019-04-20T08:15:04.000Z</time>
      </trkpt>
      <trkpt lat="43.98299" lon="7.32225">
        <ele>560.20001220703</ele>
        <time>2019-04-20T08:15:07.000Z</time>
      </trkpt>
      <trkpt lat="43.98298" lon="7.32224">
        <ele>560.40002441406</ele>
        <time>2019-04-20T08:15:09.000Z</time>
      </trkpt>
      <trkpt lat="43.98297" lon="7.32223">
        <ele>561.20001220703</ele>
        <time>2019-04-20T08:15:11.000Z</time>
      </trkpt>
      <trkpt lat="43.98296" lon="7.32221">
        <ele>561.40002441406</ele>
        <time>2019-04-20T08:15:13.000Z</time>
      </trkpt>
      <trkpt lat="43.98294" lon="7.32219">
        <ele>562.20001220703</ele>
        <time>2019-04-20T08:15:18.000Z</time>
      </trkpt>
      <trkpt lat="43.98293" lon="7.32219">
        <ele>562.59997558594</ele>
        <time>2019-04-20T08:15:20.000Z</time>
      </trkpt>
      <trkpt lat="43.98291" lon="7.32219">
        <ele>563.20001220703</ele>
        <time>2019-04-20T08:15:24.000Z</time>
      </trkpt>
      <trkpt lat="43.98289" lon="7.32218">
        <ele>563.79998779297</ele>
        <time>2019-04-20T08:15:27.000Z</time>
      </trkpt>
      <trkpt lat="43.98287" lon="7.32217">
        <ele>564.40002441406</ele>
        <time>2019-04-20T08:15:30.000Z</time>
      </trkpt>
      <trkpt lat="43.98285" lon="7.32216">
        <ele>565</ele>
        <time>2019-04-20T08:15:33.000Z</time>
      </trkpt>
      <trkpt lat="43.98285" lon="7.32215">
        <ele>565.40002441406</ele>
        <time>2019-04-20T08:15:36.000Z</time>
      </trkpt>
      <trkpt lat="43.98284" lon="7.32214">
        <ele>565.79998779297</ele>
        <time>2019-04-20T08:15:39.000Z</time>
      </trkpt>
      <trkpt lat="43.98281" lon="7.32214">
        <ele>566.59997558594</ele>
        <time>2019-04-20T08:15:43.000Z</time>
      </trkpt>
      <trkpt lat="43.9828" lon="7.32214">
        <ele>567</ele>
        <time>2019-04-20T08:15:45.000Z</time>
      </trkpt>
      <trkpt lat="43.98278" lon="7.32214">
        <ele>567.79998779297</ele>
        <time>2019-04-20T08:15:49.000Z</time>
      </trkpt>
      <trkpt lat="43.98278" lon="7.32214">
        <ele>568.20001220703</ele>
        <time>2019-04-20T08:15:51.000Z</time>
      </trkpt>
      <trkpt lat="43.98276" lon="7.32213">
        <ele>568.59997558594</ele>
        <time>2019-04-20T08:15:58.000Z</time>
      </trkpt>
      <trkpt lat="43.98273" lon="7.32212">
        <ele>569</ele>
        <time>2019-04-20T08:16:04.000Z</time>
      </trkpt>
      <trkpt lat="43.98273" lon="7.32212">
        <ele>569</ele>
        <time>2019-04-20T08:16:05.000Z</time>
      </trkpt>
      <trkpt lat="43.9827" lon="7.32213">
        <ele>570</ele>
        <time>2019-04-20T08:16:10.000Z</time>
      </trkpt>
      <trkpt lat="43.9827" lon="7.32214">
        <ele>570.20001220703</ele>
        <time>2019-04-20T08:16:11.000Z</time>
      </trkpt>
      <trkpt lat="43.9827" lon="7.32215">
        <ele>570.79998779297</ele>
        <time>2019-04-20T08:16:14.000Z</time>
      </trkpt>
      <trkpt lat="43.98271" lon="7.32216">
        <ele>571.20001220703</ele>
        <time>2019-04-20T08:16:16.000Z</time>
      </trkpt>
      <trkpt lat="43.98271" lon="7.32219">
        <ele>572.20001220703</ele>
        <time>2019-04-20T08:16:22.000Z</time>
      </trkpt>
      <trkpt lat="43.98272" lon="7.32222">
        <ele>573.40002441406</ele>
        <time>2019-04-20T08:16:27.000Z</time>
      </trkpt>
      <trkpt lat="43.98272" lon="7.32222">
        <ele>573.59997558594</ele>
        <time>2019-04-20T08:16:28.000Z</time>
      </trkpt>
      <trkpt lat="43.98272" lon="7.32222">
        <ele>574.20001220703</ele>
        <time>2019-04-20T08:16:34.000Z</time>
      </trkpt>
      <trkpt lat="43.98274" lon="7.32224">
        <ele>574</ele>
        <time>2019-04-20T08:16:38.000Z</time>
      </trkpt>
      <trkpt lat="43.98275" lon="7.32226">
        <ele>574.20001220703</ele>
        <time>2019-04-20T08:16:40.000Z</time>
      </trkpt>
      <trkpt lat="43.98278" lon="7.3223">
        <ele>574.20001220703</ele>
        <time>2019-04-20T08:16:43.000Z</time>
      </trkpt>
      <trkpt lat="43.9828" lon="7.32234">
        <ele>574.40002441406</ele>
        <time>2019-04-20T08:16:45.000Z</time>
      </trkpt>
      <trkpt lat="43.98281" lon="7.32237">
        <ele>574.59997558594</ele>
        <time>2019-04-20T08:16:47.000Z</time>
      </trkpt>
      <trkpt lat="43.98282" lon="7.32244">
        <ele>575.59997558594</ele>
        <time>2019-04-20T08:16:50.000Z</time>
      </trkpt>
      <trkpt lat="43.98283" lon="7.32246">
        <ele>576.59997558594</ele>
        <time>2019-04-20T08:16:53.000Z</time>
      </trkpt>
      <trkpt lat="43.98283" lon="7.32248">
        <ele>577.20001220703</ele>
        <time>2019-04-20T08:16:55.000Z</time>
      </trkpt>
      <trkpt lat="43.98285" lon="7.32252">
        <ele>577.79998779297</ele>
        <time>2019-04-20T08:16:58.000Z</time>
      </trkpt>
      <trkpt lat="43.98284" lon="7.32255">
        <ele>578.59997558594</ele>
        <time>2019-04-20T08:17:01.000Z</time>
      </trkpt>
      <trkpt lat="43.98284" lon="7.32254">
        <ele>578.79998779297</ele>
        <time>2019-04-20T08:17:02.000Z</time>
      </trkpt>
      <trkpt lat="43.98283" lon="7.32256">
        <ele>578.79998779297</ele>
        <time>2019-04-20T08:17:03.000Z</time>
      </trkpt>
      <trkpt lat="43.98282" lon="7.32259">
        <ele>580</ele>
        <time>2019-04-20T08:17:08.000Z</time>
      </trkpt>
      <trkpt lat="43.98281" lon="7.32259">
        <ele>580.59997558594</ele>
        <time>2019-04-20T08:17:11.000Z</time>
      </trkpt>
      <trkpt lat="43.98281" lon="7.32259">
        <ele>580.59997558594</ele>
        <time>2019-04-20T08:17:12.000Z</time>
      </trkpt>
      <trkpt lat="43.98279" lon="7.3226">
        <ele>581.20001220703</ele>
        <time>2019-04-20T08:17:16.000Z</time>
      </trkpt>
      <trkpt lat="43.98279" lon="7.3226">
        <ele>581.79998779297</ele>
        <time>2019-04-20T08:17:18.000Z</time>
      </trkpt>
      <trkpt lat="43.98277" lon="7.32261">
        <ele>582.40002441406</ele>
        <time>2019-04-20T08:17:23.000Z</time>
      </trkpt>
      <trkpt lat="43.98277" lon="7.32262">
        <ele>582.79998779297</ele>
        <time>2019-04-20T08:17:25.000Z</time>
      </trkpt>
      <trkpt lat="43.98277" lon="7.32263">
        <ele>583.40002441406</ele>
        <time>2019-04-20T08:17:29.000Z</time>
      </trkpt>
      <trkpt lat="43.98276" lon="7.32263">
        <ele>583.59997558594</ele>
        <time>2019-04-20T08:17:30.000Z</time>
      </trkpt>
      <trkpt lat="43.98275" lon="7.32263">
        <ele>584.40002441406</ele>
        <time>2019-04-20T08:17:35.000Z</time>
      </trkpt>
      <trkpt lat="43.98275" lon="7.32263">
        <ele>584.59997558594</ele>
        <time>2019-04-20T08:17:36.000Z</time>
      </trkpt>
      <trkpt lat="43.98275" lon="7.32266">
        <ele>585.59997558594</ele>
        <time>2019-04-20T08:17:42.000Z</time>
      </trkpt>
      <trkpt lat="43.98275" lon="7.32267">
        <ele>585.79998779297</ele>
        <time>2019-04-20T08:17:43.000Z</time>
      </trkpt>
      <trkpt lat="43.98273" lon="7.3227">
        <ele>586.59997558594</ele>
        <time>2019-04-20T08:17:48.000Z</time>
      </trkpt>
      <trkpt lat="43.98273" lon="7.32272">
        <ele>587.59997558594</ele>
        <time>2019-04-20T08:17:52.000Z</time>
      </trkpt>
      <trkpt lat="43.98272" lon="7.32275">
        <ele>588.40002441406</ele>
        <time>2019-04-20T08:17:56.000Z</time>
      </trkpt>
      <trkpt lat="43.98271" lon="7.32276">
        <ele>588.79998779297</ele>
        <time>2019-04-20T08:17:58.000Z</time>
      </trkpt>
      <trkpt lat="43.98271" lon="7.32279">
        <ele>589.59997558594</ele>
        <time>2019-04-20T08:18:01.000Z</time>
      </trkpt>
      <trkpt lat="43.98271" lon="7.3228">
        <ele>589.79998779297</ele>
        <time>2019-04-20T08:18:02.000Z</time>
      </trkpt>
      <trkpt lat="43.9827" lon="7.32282">
        <ele>590</ele>
        <time>2019-04-20T08:18:04.000Z</time>
      </trkpt>
      <trkpt lat="43.9827" lon="7.32284">
        <ele>590.40002441406</ele>
        <time>2019-04-20T08:18:08.000Z</time>
      </trkpt>
      <trkpt lat="43.98269" lon="7.32286">
        <ele>591.20001220703</ele>
        <time>2019-04-20T08:18:11.000Z</time>
      </trkpt>
      <trkpt lat="43.98268" lon="7.32291">
        <ele>592.20001220703</ele>
        <time>2019-04-20T08:18:16.000Z</time>
      </trkpt>
      <trkpt lat="43.98267" lon="7.32295">
        <ele>593.20001220703</ele>
        <time>2019-04-20T08:18:22.000Z</time>
      </trkpt>
      <trkpt lat="43.98267" lon="7.32297">
        <ele>593.59997558594</ele>
        <time>2019-04-20T08:18:24.000Z</time>
      </trkpt>
      <trkpt lat="43.98267" lon="7.32299">
        <ele>594.20001220703</ele>
        <time>2019-04-20T08:18:28.000Z</time>
      </trkpt>
      <trkpt lat="43.98267" lon="7.323">
        <ele>594.59997558594</ele>
        <time>2019-04-20T08:18:31.000Z</time>
      </trkpt>
      <trkpt lat="43.98266" lon="7.32305">
        <ele>595.40002441406</ele>
        <time>2019-04-20T08:18:37.000Z</time>
      </trkpt>
      <trkpt lat="43.98266" lon="7.32305">
        <ele>595.59997558594</ele>
        <time>2019-04-20T08:18:38.000Z</time>
      </trkpt>
      <trkpt lat="43.98266" lon="7.3231">
        <ele>596.40002441406</ele>
        <time>2019-04-20T08:18:42.000Z</time>
      </trkpt>
      <trkpt lat="43.98265" lon="7.32314">
        <ele>597.40002441406</ele>
        <time>2019-04-20T08:18:47.000Z</time>
      </trkpt>
      <trkpt lat="43.98265" lon="7.32315">
        <ele>597.59997558594</ele>
        <time>2019-04-20T08:18:48.000Z</time>
      </trkpt>
      <trkpt lat="43.98263" lon="7.32317">
        <ele>598.59997558594</ele>
        <time>2019-04-20T08:18:53.000Z</time>
      </trkpt>
      <trkpt lat="43.98263" lon="7.32317">
        <ele>599</ele>
        <time>2019-04-20T08:18:55.000Z</time>
      </trkpt>
      <trkpt lat="43.98262" lon="7.32314">
        <ele>599.79998779297</ele>
        <time>2019-04-20T08:18:59.000Z</time>
      </trkpt>
      <trkpt lat="43.9826" lon="7.32313">
        <ele>600</ele>
        <time>2019-04-20T08:19:01.000Z</time>
      </trkpt>
      <trkpt lat="43.9826" lon="7.32311">
        <ele>600.40002441406</ele>
        <time>2019-04-20T08:19:03.000Z</time>
      </trkpt>
      <trkpt lat="43.98259" lon="7.3231">
        <ele>600.79998779297</ele>
        <time>2019-04-20T08:19:05.000Z</time>
      </trkpt>
      <trkpt lat="43.98257" lon="7.32306">
        <ele>602</ele>
        <time>2019-04-20T08:19:11.000Z</time>
      </trkpt>
      <trkpt lat="43.98255" lon="7.32304">
        <ele>603</ele>
        <time>2019-04-20T08:19:17.000Z</time>
      </trkpt>
      <trkpt lat="43.98255" lon="7.32305">
        <ele>603.20001220703</ele>
        <time>2019-04-20T08:19:18.000Z</time>
      </trkpt>
      <trkpt lat="43.98254" lon="7.32307">
        <ele>604.20001220703</ele>
        <time>2019-04-20T08:19:22.000Z</time>
      </trkpt>
      <trkpt lat="43.98253" lon="7.32308">
        <ele>604.59997558594</ele>
        <time>2019-04-20T08:19:24.000Z</time>
      </trkpt>
      <trkpt lat="43.98253" lon="7.3231">
        <ele>605.40002441406</ele>
        <time>2019-04-20T08:19:27.000Z</time>
      </trkpt>
      <trkpt lat="43.98252" lon="7.32312">
        <ele>606</ele>
        <time>2019-04-20T08:19:30.000Z</time>
      </trkpt>
      <trkpt lat="43.98251" lon="7.32313">
        <ele>606.40002441406</ele>
        <time>2019-04-20T08:19:32.000Z</time>
      </trkpt>
      <trkpt lat="43.9825" lon="7.32315">
        <ele>607.20001220703</ele>
        <time>2019-04-20T08:19:36.000Z</time>
      </trkpt>
      <trkpt lat="43.9825" lon="7.32316">
        <ele>607.40002441406</ele>
        <time>2019-04-20T08:19:38.000Z</time>
      </trkpt>
      <trkpt lat="43.98248" lon="7.32318">
        <ele>608.20001220703</ele>
        <time>2019-04-20T08:19:43.000Z</time>
      </trkpt>
      <trkpt lat="43.98247" lon="7.32318">
        <ele>608.40002441406</ele>
        <time>2019-04-20T08:19:44.000Z</time>
      </trkpt>
      <trkpt lat="43.98245" lon="7.32314">
        <ele>609.79998779297</ele>
        <time>2019-04-20T08:19:50.000Z</time>
      </trkpt>
      <trkpt lat="43.98245" lon="7.32313">
        <ele>610</ele>
        <time>2019-04-20T08:19:51.000Z</time>
      </trkpt>
      <trkpt lat="43.98244" lon="7.32311">
        <ele>610.79998779297</ele>
        <time>2019-04-20T08:19:54.000Z</time>
      </trkpt>
      <trkpt lat="43.98243" lon="7.32309">
        <ele>611.40002441406</ele>
        <time>2019-04-20T08:19:57.000Z</time>
      </trkpt>
      <trkpt lat="43.98242" lon="7.32308">
        <ele>612</ele>
        <time>2019-04-20T08:20:00.000Z</time>
      </trkpt>
      <trkpt lat="43.98242" lon="7.32308">
        <ele>612.40002441406</ele>
        <time>2019-04-20T08:20:03.000Z</time>
      </trkpt>
      <trkpt lat="43.98239" lon="7.32305">
        <ele>613</ele>
        <time>2019-04-20T08:20:08.000Z</time>
      </trkpt>
      <trkpt lat="43.98237" lon="7.32304">
        <ele>613.59997558594</ele>
        <time>2019-04-20T08:20:11.000Z</time>
      </trkpt>
      <trkpt lat="43.98235" lon="7.32303">
        <ele>614.20001220703</ele>
        <time>2019-04-20T08:20:14.000Z</time>
      </trkpt>
      <trkpt lat="43.98232" lon="7.32302">
        <ele>615.20001220703</ele>
        <time>2019-04-20T08:20:19.000Z</time>
      </trkpt>
      <trkpt lat="43.98232" lon="7.32302">
        <ele>615.40002441406</ele>
        <time>2019-04-20T08:20:20.000Z</time>
      </trkpt>
      <trkpt lat="43.9823" lon="7.32302">
        <ele>616.20001220703</ele>
        <time>2019-04-20T08:20:24.000Z</time>
      </trkpt>
      <trkpt lat="43.98228" lon="7.32301">
        <ele>617</ele>
        <time>2019-04-20T08:20:27.000Z</time>
      </trkpt>
      <trkpt lat="43.98227" lon="7.32301">
        <ele>617.20001220703</ele>
        <time>2019-04-20T08:20:29.000Z</time>
      </trkpt>
      <trkpt lat="43.98224" lon="7.32301">
        <ele>618.40002441406</ele>
        <time>2019-04-20T08:20:34.000Z</time>
      </trkpt>
      <trkpt lat="43.98221" lon="7.32301">
        <ele>619.59997558594</ele>
        <time>2019-04-20T08:20:39.000Z</time>
      </trkpt>
      <trkpt lat="43.98219" lon="7.32301">
        <ele>620.20001220703</ele>
        <time>2019-04-20T08:20:43.000Z</time>
      </trkpt>
      <trkpt lat="43.98218" lon="7.32301">
        <ele>620.59997558594</ele>
        <time>2019-04-20T08:20:45.000Z</time>
      </trkpt>
      <trkpt lat="43.98217" lon="7.323">
        <ele>621.40002441406</ele>
        <time>2019-04-20T08:20:50.000Z</time>
      </trkpt>
      <trkpt lat="43.98217" lon="7.323">
        <ele>621.59997558594</ele>
        <time>2019-04-20T08:20:51.000Z</time>
      </trkpt>
      <trkpt lat="43.98215" lon="7.32302">
        <ele>621.59997558594</ele>
        <time>2019-04-20T08:20:57.000Z</time>
      </trkpt>
      <trkpt lat="43.98214" lon="7.32304">
        <ele>622.20001220703</ele>
        <time>2019-04-20T08:21:01.000Z</time>
      </trkpt>
      <trkpt lat="43.98214" lon="7.32303">
        <ele>622.59997558594</ele>
        <time>2019-04-20T08:21:02.000Z</time>
      </trkpt>
      <trkpt lat="43.98214" lon="7.32304">
        <ele>622.79998779297</ele>
        <time>2019-04-20T08:21:03.000Z</time>
      </trkpt>
      <trkpt lat="43.98212" lon="7.32305">
        <ele>623.40002441406</ele>
        <time>2019-04-20T08:21:05.000Z</time>
      </trkpt>
      <trkpt lat="43.98211" lon="7.32305">
        <ele>623.79998779297</ele>
        <time>2019-04-20T08:21:07.000Z</time>
      </trkpt>
      <trkpt lat="43.98211" lon="7.32306">
        <ele>624</ele>
        <time>2019-04-20T08:21:08.000Z</time>
      </trkpt>
      <trkpt lat="43.98208" lon="7.32307">
        <ele>625.40002441406</ele>
        <time>2019-04-20T08:21:13.000Z</time>
      </trkpt>
      <trkpt lat="43.98206" lon="7.32309">
        <ele>626.40002441406</ele>
        <time>2019-04-20T08:21:18.000Z</time>
      </trkpt>
      <trkpt lat="43.98205" lon="7.32309">
        <ele>626.79998779297</ele>
        <time>2019-04-20T08:21:20.000Z</time>
      </trkpt>
      <trkpt lat="43.98205" lon="7.32309">
        <ele>627</ele>
        <time>2019-04-20T08:21:21.000Z</time>
      </trkpt>
      <trkpt lat="43.98205" lon="7.32309">
        <ele>627.59997558594</ele>
        <time>2019-04-20T08:21:23.000Z</time>
      </trkpt>
      <trkpt lat="43.98202" lon="7.32311">
        <ele>628.79998779297</ele>
        <time>2019-04-20T08:21:27.000Z</time>
      </trkpt>
      <trkpt lat="43.98201" lon="7.32313">
        <ele>629.20001220703</ele>
        <time>2019-04-20T08:21:30.000Z</time>
      </trkpt>
      <trkpt lat="43.98201" lon="7.32315">
        <ele>629.79998779297</ele>
        <time>2019-04-20T08:21:34.000Z</time>
      </trkpt>
      <trkpt lat="43.98201" lon="7.32317">
        <ele>630.40002441406</ele>
        <time>2019-04-20T08:21:37.000Z</time>
      </trkpt>
      <trkpt lat="43.982" lon="7.32318">
        <ele>631</ele>
        <time>2019-04-20T08:21:40.000Z</time>
      </trkpt>
      <trkpt lat="43.98199" lon="7.32318">
        <ele>631.20001220703</ele>
        <time>2019-04-20T08:21:41.000Z</time>
      </trkpt>
      <trkpt lat="43.98196" lon="7.32317">
        <ele>632.20001220703</ele>
        <time>2019-04-20T08:21:46.000Z</time>
      </trkpt>
      <trkpt lat="43.98196" lon="7.32317">
        <ele>632.40002441406</ele>
        <time>2019-04-20T08:21:47.000Z</time>
      </trkpt>
      <trkpt lat="43.98194" lon="7.32317">
        <ele>632.20001220703</ele>
        <time>2019-04-20T08:21:51.000Z</time>
      </trkpt>
      <trkpt lat="43.98193" lon="7.32316">
        <ele>632.20001220703</ele>
        <time>2019-04-20T08:21:52.000Z</time>
      </trkpt>
      <trkpt lat="43.98186" lon="7.32313">
        <ele>632.79998779297</ele>
        <time>2019-04-20T08:21:58.000Z</time>
      </trkpt>
      <trkpt lat="43.98185" lon="7.32312">
        <ele>633.20001220703</ele>
        <time>2019-04-20T08:22:00.000Z</time>
      </trkpt>
      <trkpt lat="43.98179" lon="7.3231">
        <ele>634.20001220703</ele>
        <time>2019-04-20T08:22:04.000Z</time>
      </trkpt>
      <trkpt lat="43.98178" lon="7.3231">
        <ele>634.40002441406</ele>
        <time>2019-04-20T08:22:05.000Z</time>
      </trkpt>
      <trkpt lat="43.98175" lon="7.3231">
        <ele>635.20001220703</ele>
        <time>2019-04-20T08:22:09.000Z</time>
      </trkpt>
      <trkpt lat="43.98174" lon="7.3231">
        <ele>635.40002441406</ele>
        <time>2019-04-20T08:22:10.000Z</time>
      </trkpt>
      <trkpt lat="43.98169" lon="7.32308">
        <ele>636.59997558594</ele>
        <time>2019-04-20T08:22:16.000Z</time>
      </trkpt>
      <trkpt lat="43.9816" lon="7.32308">
        <ele>637.40002441406</ele>
        <time>2019-04-20T08:22:22.000Z</time>
      </trkpt>
      <trkpt lat="43.98157" lon="7.32308">
        <ele>637.59997558594</ele>
        <time>2019-04-20T08:22:24.000Z</time>
      </trkpt>
      <trkpt lat="43.98149" lon="7.32308">
        <ele>638.20001220703</ele>
        <time>2019-04-20T08:22:29.000Z</time>
      </trkpt>
      <trkpt lat="43.98145" lon="7.32308">
        <ele>638.79998779297</ele>
        <time>2019-04-20T08:22:32.000Z</time>
      </trkpt>
      <trkpt lat="43.98144" lon="7.32309">
        <ele>639</ele>
        <time>2019-04-20T08:22:33.000Z</time>
      </trkpt>
      <trkpt lat="43.98145" lon="7.32308">
        <ele>639.20001220703</ele>
        <time>2019-04-20T08:22:34.000Z</time>
      </trkpt>
      <trkpt lat="43.98145" lon="7.32308">
        <ele>639.40002441406</ele>
        <time>2019-04-20T08:22:36.000Z</time>
      </trkpt>
      <trkpt lat="43.98145" lon="7.32308">
        <ele>640</ele>
        <time>2019-04-20T08:22:38.000Z</time>
      </trkpt>
      <trkpt lat="43.98147" lon="7.32309">
        <ele>640.40002441406</ele>
        <time>2019-04-20T08:22:39.000Z</time>
      </trkpt>
      <trkpt lat="43.98149" lon="7.32311">
        <ele>641.40002441406</ele>
        <time>2019-04-20T08:22:43.000Z</time>
      </trkpt>
      <trkpt lat="43.9815" lon="7.32312">
        <ele>641.59997558594</ele>
        <time>2019-04-20T08:22:44.000Z</time>
      </trkpt>
      <trkpt lat="43.98154" lon="7.32314">
        <ele>642.40002441406</ele>
        <time>2019-04-20T08:22:48.000Z</time>
      </trkpt>
      <trkpt lat="43.98155" lon="7.32316">
        <ele>642.79998779297</ele>
        <time>2019-04-20T08:22:50.000Z</time>
      </trkpt>
      <trkpt lat="43.98157" lon="7.32318">
        <ele>643.20001220703</ele>
        <time>2019-04-20T08:22:52.000Z</time>
      </trkpt>
      <trkpt lat="43.98157" lon="7.32319">
        <ele>643.40002441406</ele>
        <time>2019-04-20T08:22:53.000Z</time>
      </trkpt>
      <trkpt lat="43.98158" lon="7.32321">
        <ele>644</ele>
        <time>2019-04-20T08:22:56.000Z</time>
      </trkpt>
      <trkpt lat="43.98158" lon="7.32322">
        <ele>644.59997558594</ele>
        <time>2019-04-20T08:22:58.000Z</time>
      </trkpt>
      <trkpt lat="43.98161" lon="7.32325">
        <ele>645.40002441406</ele>
        <time>2019-04-20T08:23:01.000Z</time>
      </trkpt>
      <trkpt lat="43.9816" lon="7.32324">
        <ele>645.59997558594</ele>
        <time>2019-04-20T08:23:02.000Z</time>
      </trkpt>
      <trkpt lat="43.98164" lon="7.3233">
        <ele>646.40002441406</ele>
        <time>2019-04-20T08:23:05.000Z</time>
      </trkpt>
      <trkpt lat="43.98166" lon="7.32332">
        <ele>646.79998779297</ele>
        <time>2019-04-20T08:23:07.000Z</time>
      </trkpt>
      <trkpt lat="43.98168" lon="7.32334">
        <ele>647.20001220703</ele>
        <time>2019-04-20T08:23:09.000Z</time>
      </trkpt>
      <trkpt lat="43.98168" lon="7.32335">
        <ele>647.59997558594</ele>
        <time>2019-04-20T08:23:11.000Z</time>
      </trkpt>
      <trkpt lat="43.98171" lon="7.32338">
        <ele>647.79998779297</ele>
        <time>2019-04-20T08:23:12.000Z</time>
      </trkpt>
      <trkpt lat="43.98173" lon="7.32342">
        <ele>648.59997558594</ele>
        <time>2019-04-20T08:23:15.000Z</time>
      </trkpt>
      <trkpt lat="43.98175" lon="7.32344">
        <ele>649</ele>
        <time>2019-04-20T08:23:17.000Z</time>
      </trkpt>
      <trkpt lat="43.98179" lon="7.32348">
        <ele>649.79998779297</ele>
        <time>2019-04-20T08:23:20.000Z</time>
      </trkpt>
      <trkpt lat="43.98181" lon="7.3235">
        <ele>650.20001220703</ele>
        <time>2019-04-20T08:23:22.000Z</time>
      </trkpt>
      <trkpt lat="43.98183" lon="7.32352">
        <ele>650.40002441406</ele>
        <time>2019-04-20T08:23:23.000Z</time>
      </trkpt>
      <trkpt lat="43.98183" lon="7.32354">
        <ele>650.59997558594</ele>
        <time>2019-04-20T08:23:24.000Z</time>
      </trkpt>
      <trkpt lat="43.98187" lon="7.32358">
        <ele>651</ele>
        <time>2019-04-20T08:23:27.000Z</time>
      </trkpt>
      <trkpt lat="43.98187" lon="7.32361">
        <ele>651.40002441406</ele>
        <time>2019-04-20T08:23:29.000Z</time>
      </trkpt>
      <trkpt lat="43.98187" lon="7.32362">
        <ele>652</ele>
        <time>2019-04-20T08:23:31.000Z</time>
      </trkpt>
      <trkpt lat="43.98189" lon="7.32364">
        <ele>651.79998779297</ele>
        <time>2019-04-20T08:23:39.000Z</time>
      </trkpt>
      <trkpt lat="43.98188" lon="7.32364">
        <ele>651.79998779297</ele>
        <time>2019-04-20T08:23:40.000Z</time>
      </trkpt>
      <trkpt lat="43.98186" lon="7.32364">
        <ele>652.59997558594</ele>
        <time>2019-04-20T08:23:44.000Z</time>
      </trkpt>
      <trkpt lat="43.98186" lon="7.32363">
        <ele>652.79998779297</ele>
        <time>2019-04-20T08:23:46.000Z</time>
      </trkpt>
      <trkpt lat="43.98183" lon="7.32361">
        <ele>653.40002441406</ele>
        <time>2019-04-20T08:23:52.000Z</time>
      </trkpt>
      <trkpt lat="43.98183" lon="7.32361">
        <ele>653.59997558594</ele>
        <time>2019-04-20T08:23:53.000Z</time>
      </trkpt>
      <trkpt lat="43.98184" lon="7.32362">
        <ele>653.79998779297</ele>
        <time>2019-04-20T08:24:02.000Z</time>
      </trkpt>
      <trkpt lat="43.98184" lon="7.32361">
        <ele>654</ele>
        <time>2019-04-20T08:24:14.000Z</time>
      </trkpt>
      <trkpt lat="43.98183" lon="7.32361">
        <ele>653.79998779297</ele>
        <time>2019-04-20T08:24:19.000Z</time>
      </trkpt>
      <trkpt lat="43.98184" lon="7.32361">
        <ele>653</ele>
        <time>2019-04-20T08:24:29.000Z</time>
      </trkpt>
      <trkpt lat="43.98184" lon="7.32362">
        <ele>653.59997558594</ele>
        <time>2019-04-20T08:24:34.000Z</time>
      </trkpt>
      <trkpt lat="43.98183" lon="7.32361">
        <ele>653</ele>
        <time>2019-04-20T08:24:42.000Z</time>
      </trkpt>
      <trkpt lat="43.98179" lon="7.32359">
        <ele>654.40002441406</ele>
        <time>2019-04-20T08:24:48.000Z</time>
      </trkpt>
      <trkpt lat="43.98179" lon="7.32359">
        <ele>654.79998779297</ele>
        <time>2019-04-20T08:24:50.000Z</time>
      </trkpt>
      <trkpt lat="43.98178" lon="7.32359">
        <ele>654.79998779297</ele>
        <time>2019-04-20T08:24:53.000Z</time>
      </trkpt>
      <trkpt lat="43.98171" lon="7.32357">
        <ele>655</ele>
        <time>2019-04-20T08:24:58.000Z</time>
      </trkpt>
      <trkpt lat="43.98168" lon="7.32357">
        <ele>655.40002441406</ele>
        <time>2019-04-20T08:25:02.000Z</time>
      </trkpt>
      <trkpt lat="43.98166" lon="7.32357">
        <ele>655.79998779297</ele>
        <time>2019-04-20T08:25:04.000Z</time>
      </trkpt>
      <trkpt lat="43.98161" lon="7.32356">
        <ele>656.40002441406</ele>
        <time>2019-04-20T08:25:08.000Z</time>
      </trkpt>
      <trkpt lat="43.98159" lon="7.32358">
        <ele>656.79998779297</ele>
        <time>2019-04-20T08:25:11.000Z</time>
      </trkpt>
      <trkpt lat="43.98156" lon="7.32358">
        <ele>657.40002441406</ele>
        <time>2019-04-20T08:25:14.000Z</time>
      </trkpt>
      <trkpt lat="43.98154" lon="7.32358">
        <ele>657.79998779297</ele>
        <time>2019-04-20T08:25:16.000Z</time>
      </trkpt>
      <trkpt lat="43.9815" lon="7.32358">
        <ele>658</ele>
        <time>2019-04-20T08:25:18.000Z</time>
      </trkpt>
      <trkpt lat="43.98145" lon="7.32358">
        <ele>658.40002441406</ele>
        <time>2019-04-20T08:25:20.000Z</time>
      </trkpt>
      <trkpt lat="43.98142" lon="7.32358">
        <ele>658.40002441406</ele>
        <time>2019-04-20T08:25:22.000Z</time>
      </trkpt>
      <trkpt lat="43.98139" lon="7.3236">
        <ele>658.40002441406</ele>
        <time>2019-04-20T08:25:24.000Z</time>
      </trkpt>
      <trkpt lat="43.98139" lon="7.32361">
        <ele>658.40002441406</ele>
        <time>2019-04-20T08:25:25.000Z</time>
      </trkpt>
      <trkpt lat="43.98132" lon="7.32363">
        <ele>658.79998779297</ele>
        <time>2019-04-20T08:25:29.000Z</time>
      </trkpt>
      <trkpt lat="43.98129" lon="7.32367">
        <ele>659.20001220703</ele>
        <time>2019-04-20T08:25:32.000Z</time>
      </trkpt>
      <trkpt lat="43.98129" lon="7.32366">
        <ele>659.40002441406</ele>
        <time>2019-04-20T08:25:33.000Z</time>
      </trkpt>
      <trkpt lat="43.98129" lon="7.32367">
        <ele>660.40002441406</ele>
        <time>2019-04-20T08:25:36.000Z</time>
      </trkpt>
      <trkpt lat="43.9813" lon="7.32367">
        <ele>660.59997558594</ele>
        <time>2019-04-20T08:25:37.000Z</time>
      </trkpt>
      <trkpt lat="43.98131" lon="7.32367">
        <ele>661</ele>
        <time>2019-04-20T08:25:38.000Z</time>
      </trkpt>
      <trkpt lat="43.98133" lon="7.32368">
        <ele>661.40002441406</ele>
        <time>2019-04-20T08:25:41.000Z</time>
      </trkpt>
      <trkpt lat="43.98134" lon="7.32369">
        <ele>662.20001220703</ele>
        <time>2019-04-20T08:25:44.000Z</time>
      </trkpt>
      <trkpt lat="43.98134" lon="7.3237">
        <ele>662.79998779297</ele>
        <time>2019-04-20T08:25:46.000Z</time>
      </trkpt>
      <trkpt lat="43.98136" lon="7.3237">
        <ele>663.59997558594</ele>
        <time>2019-04-20T08:25:49.000Z</time>
      </trkpt>
      <trkpt lat="43.98137" lon="7.32372">
        <ele>663.79998779297</ele>
        <time>2019-04-20T08:25:50.000Z</time>
      </trkpt>
      <trkpt lat="43.98141" lon="7.32374">
        <ele>665</ele>
        <time>2019-04-20T08:25:55.000Z</time>
      </trkpt>
      <trkpt lat="43.98142" lon="7.32375">
        <ele>665</ele>
        <time>2019-04-20T08:25:56.000Z</time>
      </trkpt>
      <trkpt lat="43.98143" lon="7.32376">
        <ele>665.40002441406</ele>
        <time>2019-04-20T08:25:58.000Z</time>
      </trkpt>
      <trkpt lat="43.98146" lon="7.32379">
        <ele>666</ele>
        <time>2019-04-20T08:26:01.000Z</time>
      </trkpt>
      <trkpt lat="43.98147" lon="7.3238">
        <ele>666.20001220703</ele>
        <time>2019-04-20T08:26:02.000Z</time>
      </trkpt>
      <trkpt lat="43.98152" lon="7.32384">
        <ele>667</ele>
        <time>2019-04-20T08:26:06.000Z</time>
      </trkpt>
      <trkpt lat="43.98153" lon="7.32386">
        <ele>667.59997558594</ele>
        <time>2019-04-20T08:26:08.000Z</time>
      </trkpt>
      <trkpt lat="43.98156" lon="7.32389">
        <ele>668</ele>
        <time>2019-04-20T08:26:10.000Z</time>
      </trkpt>
      <trkpt lat="43.9816" lon="7.32395">
        <ele>669.20001220703</ele>
        <time>2019-04-20T08:26:15.000Z</time>
      </trkpt>
      <trkpt lat="43.98166" lon="7.324">
        <ele>670</ele>
        <time>2019-04-20T08:26:18.000Z</time>
      </trkpt>
      <trkpt lat="43.98168" lon="7.32402">
        <ele>670.40002441406</ele>
        <time>2019-04-20T08:26:20.000Z</time>
      </trkpt>
      <trkpt lat="43.98172" lon="7.32407">
        <ele>671.20001220703</ele>
        <time>2019-04-20T08:26:24.000Z</time>
      </trkpt>
      <trkpt lat="43.98174" lon="7.3241">
        <ele>671.40002441406</ele>
        <time>2019-04-20T08:26:26.000Z</time>
      </trkpt>
      <trkpt lat="43.98177" lon="7.32415">
        <ele>672</ele>
        <time>2019-04-20T08:26:30.000Z</time>
      </trkpt>
      <trkpt lat="43.98177" lon="7.32416">
        <ele>672.20001220703</ele>
        <time>2019-04-20T08:26:31.000Z</time>
      </trkpt>
      <trkpt lat="43.98177" lon="7.32417">
        <ele>672.59997558594</ele>
        <time>2019-04-20T08:26:34.000Z</time>
      </trkpt>
      <trkpt lat="43.98176" lon="7.32417">
        <ele>672.79998779297</ele>
        <time>2019-04-20T08:26:36.000Z</time>
      </trkpt>
      <trkpt lat="43.98174" lon="7.32417">
        <ele>673</ele>
        <time>2019-04-20T08:26:39.000Z</time>
      </trkpt>
      <trkpt lat="43.98173" lon="7.32417">
        <ele>673.79998779297</ele>
        <time>2019-04-20T08:26:42.000Z</time>
      </trkpt>
      <trkpt lat="43.98172" lon="7.32417">
        <ele>674</ele>
        <time>2019-04-20T08:26:43.000Z</time>
      </trkpt>
      <trkpt lat="43.98172" lon="7.32418">
        <ele>674.79998779297</ele>
        <time>2019-04-20T08:26:47.000Z</time>
      </trkpt>
      <trkpt lat="43.98171" lon="7.32418">
        <ele>675</ele>
        <time>2019-04-20T08:26:49.000Z</time>
      </trkpt>
      <trkpt lat="43.98171" lon="7.32418">
        <ele>675.20001220703</ele>
        <time>2019-04-20T08:26:52.000Z</time>
      </trkpt>
      <trkpt lat="43.98169" lon="7.32418">
        <ele>675.20001220703</ele>
        <time>2019-04-20T08:26:54.000Z</time>
      </trkpt>
      <trkpt lat="43.98163" lon="7.32417">
        <ele>675.79998779297</ele>
        <time>2019-04-20T08:26:58.000Z</time>
      </trkpt>
      <trkpt lat="43.9816" lon="7.32417">
        <ele>676.20001220703</ele>
        <time>2019-04-20T08:27:00.000Z</time>
      </trkpt>
      <trkpt lat="43.98157" lon="7.32417">
        <ele>676.79998779297</ele>
        <time>2019-04-20T08:27:03.000Z</time>
      </trkpt>
      <trkpt lat="43.98153" lon="7.32417">
        <ele>677.40002441406</ele>
        <time>2019-04-20T08:27:06.000Z</time>
      </trkpt>
      <trkpt lat="43.98151" lon="7.32416">
        <ele>677.79998779297</ele>
        <time>2019-04-20T08:27:08.000Z</time>
      </trkpt>
      <trkpt lat="43.98149" lon="7.32417">
        <ele>678.59997558594</ele>
        <time>2019-04-20T08:27:11.000Z</time>
      </trkpt>
      <trkpt lat="43.98147" lon="7.32418">
        <ele>678.79998779297</ele>
        <time>2019-04-20T08:27:13.000Z</time>
      </trkpt>
      <trkpt lat="43.98146" lon="7.32418">
        <ele>679</ele>
        <time>2019-04-20T08:27:14.000Z</time>
      </trkpt>
      <trkpt lat="43.98143" lon="7.32418">
        <ele>679</ele>
        <time>2019-04-20T08:27:16.000Z</time>
      </trkpt>
      <trkpt lat="43.98142" lon="7.32419">
        <ele>679.20001220703</ele>
        <time>2019-04-20T08:27:17.000Z</time>
      </trkpt>
      <trkpt lat="43.98134" lon="7.32421">
        <ele>680</ele>
        <time>2019-04-20T08:27:22.000Z</time>
      </trkpt>
      <trkpt lat="43.98127" lon="7.32426">
        <ele>681</ele>
        <time>2019-04-20T08:27:28.000Z</time>
      </trkpt>
      <trkpt lat="43.98122" lon="7.32428">
        <ele>682</ele>
        <time>2019-04-20T08:27:33.000Z</time>
      </trkpt>
      <trkpt lat="43.98121" lon="7.32429">
        <ele>682.20001220703</ele>
        <time>2019-04-20T08:27:34.000Z</time>
      </trkpt>
      <trkpt lat="43.98114" lon="7.32431">
        <ele>683</ele>
        <time>2019-04-20T08:27:39.000Z</time>
      </trkpt>
      <trkpt lat="43.98113" lon="7.32432">
        <ele>683.20001220703</ele>
        <time>2019-04-20T08:27:40.000Z</time>
      </trkpt>
      <trkpt lat="43.98106" lon="7.32434">
        <ele>684</ele>
        <time>2019-04-20T08:27:45.000Z</time>
      </trkpt>
      <trkpt lat="43.98105" lon="7.32435">
        <ele>684.20001220703</ele>
        <time>2019-04-20T08:27:46.000Z</time>
      </trkpt>
      <trkpt lat="43.98102" lon="7.32436">
        <ele>684.79998779297</ele>
        <time>2019-04-20T08:27:48.000Z</time>
      </trkpt>
      <trkpt lat="43.98099" lon="7.32438">
        <ele>685.20001220703</ele>
        <time>2019-04-20T08:27:50.000Z</time>
      </trkpt>
      <trkpt lat="43.98096" lon="7.32441">
        <ele>686.20001220703</ele>
        <time>2019-04-20T08:27:53.000Z</time>
      </trkpt>
      <trkpt lat="43.98093" lon="7.32443">
        <ele>686.40002441406</ele>
        <time>2019-04-20T08:27:55.000Z</time>
      </trkpt>
      <trkpt lat="43.98091" lon="7.32445">
        <ele>686.59997558594</ele>
        <time>2019-04-20T08:27:57.000Z</time>
      </trkpt>
      <trkpt lat="43.98087" lon="7.32448">
        <ele>687.40002441406</ele>
        <time>2019-04-20T08:28:00.000Z</time>
      </trkpt>
      <trkpt lat="43.98087" lon="7.32448">
        <ele>687.59997558594</ele>
        <time>2019-04-20T08:28:01.000Z</time>
      </trkpt>
      <trkpt lat="43.98082" lon="7.32451">
        <ele>688.40002441406</ele>
        <time>2019-04-20T08:28:04.000Z</time>
      </trkpt>
      <trkpt lat="43.98082" lon="7.32451">
        <ele>688.40002441406</ele>
        <time>2019-04-20T08:28:05.000Z</time>
      </trkpt>
      <trkpt lat="43.98081" lon="7.32451">
        <ele>688.59997558594</ele>
        <time>2019-04-20T08:28:06.000Z</time>
      </trkpt>
      <trkpt lat="43.98083" lon="7.32452">
        <ele>689.40002441406</ele>
        <time>2019-04-20T08:28:11.000Z</time>
      </trkpt>
      <trkpt lat="43.98083" lon="7.32452">
        <ele>689.59997558594</ele>
        <time>2019-04-20T08:28:13.000Z</time>
      </trkpt>
      <trkpt lat="43.98084" lon="7.32452">
        <ele>690</ele>
        <time>2019-04-20T08:28:15.000Z</time>
      </trkpt>
      <trkpt lat="43.98085" lon="7.32452">
        <ele>690.79998779297</ele>
        <time>2019-04-20T08:28:18.000Z</time>
      </trkpt>
      <trkpt lat="43.98085" lon="7.32452">
        <ele>691</ele>
        <time>2019-04-20T08:28:19.000Z</time>
      </trkpt>
      <trkpt lat="43.98088" lon="7.32452">
        <ele>691.79998779297</ele>
        <time>2019-04-20T08:28:22.000Z</time>
      </trkpt>
      <trkpt lat="43.98092" lon="7.32454">
        <ele>692.59997558594</ele>
        <time>2019-04-20T08:28:25.000Z</time>
      </trkpt>
      <trkpt lat="43.98092" lon="7.32454">
        <ele>693</ele>
        <time>2019-04-20T08:28:26.000Z</time>
      </trkpt>
      <trkpt lat="43.98098" lon="7.32456">
        <ele>694</ele>
        <time>2019-04-20T08:28:31.000Z</time>
      </trkpt>
      <trkpt lat="43.98101" lon="7.32457">
        <ele>695</ele>
        <time>2019-04-20T08:28:36.000Z</time>
      </trkpt>
      <trkpt lat="43.98103" lon="7.32458">
        <ele>695.20001220703</ele>
        <time>2019-04-20T08:28:37.000Z</time>
      </trkpt>
      <trkpt lat="43.98108" lon="7.3246">
        <ele>696.40002441406</ele>
        <time>2019-04-20T08:28:42.000Z</time>
      </trkpt>
      <trkpt lat="43.98108" lon="7.3246">
        <ele>697.40002441406</ele>
        <time>2019-04-20T08:28:47.000Z</time>
      </trkpt>
      <trkpt lat="43.98112" lon="7.32463">
        <ele>698.40002441406</ele>
        <time>2019-04-20T08:28:53.000Z</time>
      </trkpt>
      <trkpt lat="43.98113" lon="7.32463">
        <ele>698.59997558594</ele>
        <time>2019-04-20T08:28:54.000Z</time>
      </trkpt>
      <trkpt lat="43.98117" lon="7.32467">
        <ele>699.40002441406</ele>
        <time>2019-04-20T08:28:59.000Z</time>
      </trkpt>
      <trkpt lat="43.98118" lon="7.32468">
        <ele>700</ele>
        <time>2019-04-20T08:29:02.000Z</time>
      </trkpt>
      <trkpt lat="43.9812" lon="7.32469">
        <ele>700</ele>
        <time>2019-04-20T08:29:09.000Z</time>
      </trkpt>
      <trkpt lat="43.98121" lon="7.3247">
        <ele>700.20001220703</ele>
        <time>2019-04-20T08:29:12.000Z</time>
      </trkpt>
      <trkpt lat="43.98123" lon="7.32472">
        <ele>700.20001220703</ele>
        <time>2019-04-20T08:29:15.000Z</time>
      </trkpt>
      <trkpt lat="43.98124" lon="7.32473">
        <ele>700.59997558594</ele>
        <time>2019-04-20T08:29:17.000Z</time>
      </trkpt>
      <trkpt lat="43.98127" lon="7.32476">
        <ele>701.40002441406</ele>
        <time>2019-04-20T08:29:21.000Z</time>
      </trkpt>
      <trkpt lat="43.98129" lon="7.32478">
        <ele>701.79998779297</ele>
        <time>2019-04-20T08:29:23.000Z</time>
      </trkpt>
      <trkpt lat="43.98132" lon="7.3248">
        <ele>702.59997558594</ele>
        <time>2019-04-20T08:29:27.000Z</time>
      </trkpt>
      <trkpt lat="43.98134" lon="7.32482">
        <ele>703</ele>
        <time>2019-04-20T08:29:29.000Z</time>
      </trkpt>
      <trkpt lat="43.98137" lon="7.32485">
        <ele>704</ele>
        <time>2019-04-20T08:29:34.000Z</time>
      </trkpt>
      <trkpt lat="43.98139" lon="7.32488">
        <ele>704.20001220703</ele>
        <time>2019-04-20T08:29:35.000Z</time>
      </trkpt>
      <trkpt lat="43.98142" lon="7.3249">
        <ele>704.59997558594</ele>
        <time>2019-04-20T08:29:38.000Z</time>
      </trkpt>
      <trkpt lat="43.98143" lon="7.32491">
        <ele>704.79998779297</ele>
        <time>2019-04-20T08:29:39.000Z</time>
      </trkpt>
      <trkpt lat="43.98145" lon="7.32493">
        <ele>705.20001220703</ele>
        <time>2019-04-20T08:29:41.000Z</time>
      </trkpt>
      <trkpt lat="43.98148" lon="7.32497">
        <ele>706</ele>
        <time>2019-04-20T08:29:45.000Z</time>
      </trkpt>
      <trkpt lat="43.98149" lon="7.325">
        <ele>706.40002441406</ele>
        <time>2019-04-20T08:29:47.000Z</time>
      </trkpt>
      <trkpt lat="43.98153" lon="7.32505">
        <ele>707.20001220703</ele>
        <time>2019-04-20T08:29:52.000Z</time>
      </trkpt>
      <trkpt lat="43.98153" lon="7.32504">
        <ele>707.40002441406</ele>
        <time>2019-04-20T08:29:53.000Z</time>
      </trkpt>
      <trkpt lat="43.98155" lon="7.32509">
        <ele>708</ele>
        <time>2019-04-20T08:29:56.000Z</time>
      </trkpt>
      <trkpt lat="43.98156" lon="7.3251">
        <ele>708.40002441406</ele>
        <time>2019-04-20T08:29:58.000Z</time>
      </trkpt>
      <trkpt lat="43.98158" lon="7.32512">
        <ele>708.59997558594</ele>
        <time>2019-04-20T08:29:59.000Z</time>
      </trkpt>
      <trkpt lat="43.98161" lon="7.32519">
        <ele>709.79998779297</ele>
        <time>2019-04-20T08:30:04.000Z</time>
      </trkpt>
      <trkpt lat="43.98161" lon="7.32521">
        <ele>710</ele>
        <time>2019-04-20T08:30:05.000Z</time>
      </trkpt>
      <trkpt lat="43.98162" lon="7.32522">
        <ele>710.59997558594</ele>
        <time>2019-04-20T08:30:09.000Z</time>
      </trkpt>
      <trkpt lat="43.98161" lon="7.32522">
        <ele>710.79998779297</ele>
        <time>2019-04-20T08:30:10.000Z</time>
      </trkpt>
      <trkpt lat="43.98163" lon="7.32522">
        <ele>711.40002441406</ele>
        <time>2019-04-20T08:30:16.000Z</time>
      </trkpt>
      <trkpt lat="43.98169" lon="7.32524">
        <ele>711.20001220703</ele>
        <time>2019-04-20T08:30:34.000Z</time>
      </trkpt>
      <trkpt lat="43.98167" lon="7.32523">
        <ele>711.40002441406</ele>
        <time>2019-04-20T08:30:37.000Z</time>
      </trkpt>
      <trkpt lat="43.98166" lon="7.32522">
        <ele>711.59997558594</ele>
        <time>2019-04-20T08:30:39.000Z</time>
      </trkpt>
      <trkpt lat="43.98165" lon="7.32522">
        <ele>712</ele>
        <time>2019-04-20T08:30:41.000Z</time>
      </trkpt>
      <trkpt lat="43.98162" lon="7.32522">
        <ele>712.79998779297</ele>
        <time>2019-04-20T08:30:45.000Z</time>
      </trkpt>
      <trkpt lat="43.98162" lon="7.32522">
        <ele>713</ele>
        <time>2019-04-20T08:30:46.000Z</time>
      </trkpt>
      <trkpt lat="43.98158" lon="7.32523">
        <ele>713.59997558594</ele>
        <time>2019-04-20T08:30:49.000Z</time>
      </trkpt>
      <trkpt lat="43.98155" lon="7.32522">
        <ele>714</ele>
        <time>2019-04-20T08:30:51.000Z</time>
      </trkpt>
      <trkpt lat="43.98154" lon="7.32521">
        <ele>714.20001220703</ele>
        <time>2019-04-20T08:30:52.000Z</time>
      </trkpt>
      <trkpt lat="43.98149" lon="7.32522">
        <ele>715.40002441406</ele>
        <time>2019-04-20T08:30:57.000Z</time>
      </trkpt>
      <trkpt lat="43.98143" lon="7.32522">
        <ele>716.40002441406</ele>
        <time>2019-04-20T08:31:01.000Z</time>
      </trkpt>
      <trkpt lat="43.98142" lon="7.32522">
        <ele>716.59997558594</ele>
        <time>2019-04-20T08:31:02.000Z</time>
      </trkpt>
      <trkpt lat="43.98141" lon="7.32523">
        <ele>717</ele>
        <time>2019-04-20T08:31:03.000Z</time>
      </trkpt>
      <trkpt lat="43.98137" lon="7.32523">
        <ele>717.79998779297</ele>
        <time>2019-04-20T08:31:06.000Z</time>
      </trkpt>
      <trkpt lat="43.98135" lon="7.32523">
        <ele>718</ele>
        <time>2019-04-20T08:31:07.000Z</time>
      </trkpt>
      <trkpt lat="43.9813" lon="7.32523">
        <ele>718.79998779297</ele>
        <time>2019-04-20T08:31:11.000Z</time>
      </trkpt>
      <trkpt lat="43.98127" lon="7.32524">
        <ele>719.20001220703</ele>
        <time>2019-04-20T08:31:13.000Z</time>
      </trkpt>
      <trkpt lat="43.98127" lon="7.32524">
        <ele>719.40002441406</ele>
        <time>2019-04-20T08:31:14.000Z</time>
      </trkpt>
      <trkpt lat="43.98124" lon="7.32524">
        <ele>719.79998779297</ele>
        <time>2019-04-20T08:31:16.000Z</time>
      </trkpt>
      <trkpt lat="43.98121" lon="7.32524">
        <ele>720</ele>
        <time>2019-04-20T08:31:18.000Z</time>
      </trkpt>
      <trkpt lat="43.98113" lon="7.32529">
        <ele>721</ele>
        <time>2019-04-20T08:31:24.000Z</time>
      </trkpt>
      <trkpt lat="43.98111" lon="7.3253">
        <ele>721.40002441406</ele>
        <time>2019-04-20T08:31:26.000Z</time>
      </trkpt>
      <trkpt lat="43.98108" lon="7.32531">
        <ele>721.79998779297</ele>
        <time>2019-04-20T08:31:28.000Z</time>
      </trkpt>
      <trkpt lat="43.98106" lon="7.32532">
        <ele>722</ele>
        <time>2019-04-20T08:31:29.000Z</time>
      </trkpt>
      <trkpt lat="43.98105" lon="7.32534">
        <ele>722.40002441406</ele>
        <time>2019-04-20T08:31:31.000Z</time>
      </trkpt>
      <trkpt lat="43.98102" lon="7.32534">
        <ele>722.79998779297</ele>
        <time>2019-04-20T08:31:33.000Z</time>
      </trkpt>
      <trkpt lat="43.98101" lon="7.32534">
        <ele>723</ele>
        <time>2019-04-20T08:31:34.000Z</time>
      </trkpt>
      <trkpt lat="43.98097" lon="7.32537">
        <ele>723.79998779297</ele>
        <time>2019-04-20T08:31:37.000Z</time>
      </trkpt>
      <trkpt lat="43.98096" lon="7.32539">
        <ele>724.20001220703</ele>
        <time>2019-04-20T08:31:39.000Z</time>
      </trkpt>
      <trkpt lat="43.98093" lon="7.32542">
        <ele>724.79998779297</ele>
        <time>2019-04-20T08:31:42.000Z</time>
      </trkpt>
      <trkpt lat="43.98091" lon="7.32551">
        <ele>726</ele>
        <time>2019-04-20T08:31:48.000Z</time>
      </trkpt>
      <trkpt lat="43.98081" lon="7.32555">
        <ele>727.40002441406</ele>
        <time>2019-04-20T08:31:56.000Z</time>
      </trkpt>
      <trkpt lat="43.9808" lon="7.32557">
        <ele>727.59997558594</ele>
        <time>2019-04-20T08:31:57.000Z</time>
      </trkpt>
      <trkpt lat="43.98075" lon="7.32559">
        <ele>728.40002441406</ele>
        <time>2019-04-20T08:32:00.000Z</time>
      </trkpt>
      <trkpt lat="43.98073" lon="7.32559">
        <ele>728.79998779297</ele>
        <time>2019-04-20T08:32:01.000Z</time>
      </trkpt>
      <trkpt lat="43.98067" lon="7.32558">
        <ele>729.59997558594</ele>
        <time>2019-04-20T08:32:04.000Z</time>
      </trkpt>
      <trkpt lat="43.98064" lon="7.32559">
        <ele>730.20001220703</ele>
        <time>2019-04-20T08:32:07.000Z</time>
      </trkpt>
      <trkpt lat="43.9806" lon="7.32559">
        <ele>730.40002441406</ele>
        <time>2019-04-20T08:32:08.000Z</time>
      </trkpt>
      <trkpt lat="43.98058" lon="7.32559">
        <ele>730.59997558594</ele>
        <time>2019-04-20T08:32:09.000Z</time>
      </trkpt>
      <trkpt lat="43.98052" lon="7.32558">
        <ele>731</ele>
        <time>2019-04-20T08:32:12.000Z</time>
      </trkpt>
      <trkpt lat="43.9805" lon="7.32558">
        <ele>731.40002441406</ele>
        <time>2019-04-20T08:32:14.000Z</time>
      </trkpt>
      <trkpt lat="43.98047" lon="7.32558">
        <ele>731.59997558594</ele>
        <time>2019-04-20T08:32:15.000Z</time>
      </trkpt>
      <trkpt lat="43.98046" lon="7.32559">
        <ele>731.79998779297</ele>
        <time>2019-04-20T08:32:16.000Z</time>
      </trkpt>
      <trkpt lat="43.98045" lon="7.32562">
        <ele>732.20001220703</ele>
        <time>2019-04-20T08:32:19.000Z</time>
      </trkpt>
      <trkpt lat="43.98042" lon="7.32563">
        <ele>732.40002441406</ele>
        <time>2019-04-20T08:32:21.000Z</time>
      </trkpt>
      <trkpt lat="43.98041" lon="7.32563">
        <ele>732.79998779297</ele>
        <time>2019-04-20T08:32:23.000Z</time>
      </trkpt>
      <trkpt lat="43.9804" lon="7.32562">
        <ele>733</ele>
        <time>2019-04-20T08:32:24.000Z</time>
      </trkpt>
      <trkpt lat="43.98031" lon="7.32563">
        <ele>733.79998779297</ele>
        <time>2019-04-20T08:32:29.000Z</time>
      </trkpt>
      <trkpt lat="43.98029" lon="7.32566">
        <ele>734.59997558594</ele>
        <time>2019-04-20T08:32:32.000Z</time>
      </trkpt>
      <trkpt lat="43.98029" lon="7.32569">
        <ele>735</ele>
        <time>2019-04-20T08:32:34.000Z</time>
      </trkpt>
      <trkpt lat="43.98027" lon="7.32572">
        <ele>735.59997558594</ele>
        <time>2019-04-20T08:32:37.000Z</time>
      </trkpt>
      <trkpt lat="43.98024" lon="7.32574">
        <ele>736.20001220703</ele>
        <time>2019-04-20T08:32:40.000Z</time>
      </trkpt>
      <trkpt lat="43.98016" lon="7.32578">
        <ele>737.20001220703</ele>
        <time>2019-04-20T08:32:46.000Z</time>
      </trkpt>
      <trkpt lat="43.98015" lon="7.32582">
        <ele>738.20001220703</ele>
        <time>2019-04-20T08:32:51.000Z</time>
      </trkpt>
      <trkpt lat="43.98016" lon="7.32584">
        <ele>738.79998779297</ele>
        <time>2019-04-20T08:32:56.000Z</time>
      </trkpt>
      <trkpt lat="43.98015" lon="7.32585">
        <ele>738.79998779297</ele>
        <time>2019-04-20T08:33:02.000Z</time>
      </trkpt>
      <trkpt lat="43.98011" lon="7.32584">
        <ele>739.40002441406</ele>
        <time>2019-04-20T08:33:07.000Z</time>
      </trkpt>
      <trkpt lat="43.98014" lon="7.32585">
        <ele>740.20001220703</ele>
        <time>2019-04-20T08:33:13.000Z</time>
      </trkpt>
      <trkpt lat="43.98015" lon="7.32586">
        <ele>740.40002441406</ele>
        <time>2019-04-20T08:33:15.000Z</time>
      </trkpt>
      <trkpt lat="43.98017" lon="7.32586">
        <ele>740.79998779297</ele>
        <time>2019-04-20T08:33:18.000Z</time>
      </trkpt>
      <trkpt lat="43.98018" lon="7.32585">
        <ele>740.79998779297</ele>
        <time>2019-04-20T08:33:19.000Z</time>
      </trkpt>
      <trkpt lat="43.9802" lon="7.32584">
        <ele>741</ele>
        <time>2019-04-20T08:33:23.000Z</time>
      </trkpt>
      <trkpt lat="43.98024" lon="7.32583">
        <ele>741.59997558594</ele>
        <time>2019-04-20T08:33:28.000Z</time>
      </trkpt>
      <trkpt lat="43.98024" lon="7.32583">
        <ele>741.59997558594</ele>
        <time>2019-04-20T08:33:29.000Z</time>
      </trkpt>
      <trkpt lat="43.98026" lon="7.32583">
        <ele>742.40002441406</ele>
        <time>2019-04-20T08:33:34.000Z</time>
      </trkpt>
      <trkpt lat="43.98028" lon="7.32584">
        <ele>742.59997558594</ele>
        <time>2019-04-20T08:33:36.000Z</time>
      </trkpt>
      <trkpt lat="43.98029" lon="7.32583">
        <ele>743</ele>
        <time>2019-04-20T08:33:39.000Z</time>
      </trkpt>
      <trkpt lat="43.98033" lon="7.32584">
        <ele>743.59997558594</ele>
        <time>2019-04-20T08:33:44.000Z</time>
      </trkpt>
      <trkpt lat="43.98032" lon="7.32583">
        <ele>743.79998779297</ele>
        <time>2019-04-20T08:33:45.000Z</time>
      </trkpt>
      <trkpt lat="43.98036" lon="7.32584">
        <ele>744.20001220703</ele>
        <time>2019-04-20T08:33:50.000Z</time>
      </trkpt>
      <trkpt lat="43.98038" lon="7.32585">
        <ele>744.79998779297</ele>
        <time>2019-04-20T08:33:54.000Z</time>
      </trkpt>
      <trkpt lat="43.9804" lon="7.32586">
        <ele>745</ele>
        <time>2019-04-20T08:33:56.000Z</time>
      </trkpt>
      <trkpt lat="43.9804" lon="7.32586">
        <ele>745.59997558594</ele>
        <time>2019-04-20T08:34:01.000Z</time>
      </trkpt>
      <trkpt lat="43.98041" lon="7.32587">
        <ele>745.79998779297</ele>
        <time>2019-04-20T08:34:04.000Z</time>
      </trkpt>
      <trkpt lat="43.98043" lon="7.32588">
        <ele>745.59997558594</ele>
        <time>2019-04-20T08:34:09.000Z</time>
      </trkpt>
      <trkpt lat="43.98052" lon="7.32595">
        <ele>745.79998779297</ele>
        <time>2019-04-20T08:34:23.000Z</time>
      </trkpt>
      <trkpt lat="43.98056" lon="7.32596">
        <ele>746.79998779297</ele>
        <time>2019-04-20T08:34:28.000Z</time>
      </trkpt>
      <trkpt lat="43.98059" lon="7.32597">
        <ele>747.20001220703</ele>
        <time>2019-04-20T08:34:30.000Z</time>
      </trkpt>
      <trkpt lat="43.98063" lon="7.326">
        <ele>747.79998779297</ele>
        <time>2019-04-20T08:34:33.000Z</time>
      </trkpt>
      <trkpt lat="43.98065" lon="7.326">
        <ele>748.40002441406</ele>
        <time>2019-04-20T08:34:35.000Z</time>
      </trkpt>
      <trkpt lat="43.98066" lon="7.32601">
        <ele>749</ele>
        <time>2019-04-20T08:34:37.000Z</time>
      </trkpt>
      <trkpt lat="43.98069" lon="7.32602">
        <ele>750</ele>
        <time>2019-04-20T08:34:41.000Z</time>
      </trkpt>
      <trkpt lat="43.9807" lon="7.32603">
        <ele>750.59997558594</ele>
        <time>2019-04-20T08:34:43.000Z</time>
      </trkpt>
      <trkpt lat="43.98073" lon="7.32603">
        <ele>751.20001220703</ele>
        <time>2019-04-20T08:34:46.000Z</time>
      </trkpt>
      <trkpt lat="43.98078" lon="7.32605">
        <ele>752.40002441406</ele>
        <time>2019-04-20T08:34:50.000Z</time>
      </trkpt>
      <trkpt lat="43.98084" lon="7.32608">
        <ele>753.59997558594</ele>
        <time>2019-04-20T08:34:55.000Z</time>
      </trkpt>
      <trkpt lat="43.98084" lon="7.32608">
        <ele>753.79998779297</ele>
        <time>2019-04-20T08:34:56.000Z</time>
      </trkpt>
      <trkpt lat="43.98089" lon="7.3261">
        <ele>754.79998779297</ele>
        <time>2019-04-20T08:34:59.000Z</time>
      </trkpt>
      <trkpt lat="43.98093" lon="7.32612">
        <ele>755.79998779297</ele>
        <time>2019-04-20T08:35:02.000Z</time>
      </trkpt>
      <trkpt lat="43.98092" lon="7.32611">
        <ele>755.79998779297</ele>
        <time>2019-04-20T08:35:03.000Z</time>
      </trkpt>
      <trkpt lat="43.98099" lon="7.32614">
        <ele>756.79998779297</ele>
        <time>2019-04-20T08:35:07.000Z</time>
      </trkpt>
      <trkpt lat="43.98098" lon="7.32614">
        <ele>757</ele>
        <time>2019-04-20T08:35:08.000Z</time>
      </trkpt>
      <trkpt lat="43.98105" lon="7.32618">
        <ele>758.20001220703</ele>
        <time>2019-04-20T08:35:13.000Z</time>
      </trkpt>
      <trkpt lat="43.98109" lon="7.3262">
        <ele>759.20001220703</ele>
        <time>2019-04-20T08:35:17.000Z</time>
      </trkpt>
      <trkpt lat="43.9811" lon="7.3262">
        <ele>759.59997558594</ele>
        <time>2019-04-20T08:35:19.000Z</time>
      </trkpt>
      <trkpt lat="43.98115" lon="7.32623">
        <ele>760.40002441406</ele>
        <time>2019-04-20T08:35:22.000Z</time>
      </trkpt>
      <trkpt lat="43.98118" lon="7.32626">
        <ele>761.20001220703</ele>
        <time>2019-04-20T08:35:25.000Z</time>
      </trkpt>
      <trkpt lat="43.9812" lon="7.32627">
        <ele>761.59997558594</ele>
        <time>2019-04-20T08:35:27.000Z</time>
      </trkpt>
      <trkpt lat="43.98126" lon="7.32633">
        <ele>762.79998779297</ele>
        <time>2019-04-20T08:35:33.000Z</time>
      </trkpt>
      <trkpt lat="43.98131" lon="7.32642">
        <ele>763.79998779297</ele>
        <time>2019-04-20T08:35:40.000Z</time>
      </trkpt>
      <trkpt lat="43.98132" lon="7.32643">
        <ele>764</ele>
        <time>2019-04-20T08:35:41.000Z</time>
      </trkpt>
      <trkpt lat="43.98134" lon="7.32645">
        <ele>764.40002441406</ele>
        <time>2019-04-20T08:35:43.000Z</time>
      </trkpt>
      <trkpt lat="43.98136" lon="7.32648">
        <ele>764.79998779297</ele>
        <time>2019-04-20T08:35:46.000Z</time>
      </trkpt>
      <trkpt lat="43.98135" lon="7.32648">
        <ele>765</ele>
        <time>2019-04-20T08:35:47.000Z</time>
      </trkpt>
      <trkpt lat="43.9814" lon="7.32654">
        <ele>765.59997558594</ele>
        <time>2019-04-20T08:35:51.000Z</time>
      </trkpt>
      <trkpt lat="43.98141" lon="7.32656">
        <ele>766</ele>
        <time>2019-04-20T08:35:53.000Z</time>
      </trkpt>
      <trkpt lat="43.98144" lon="7.32661">
        <ele>766.79998779297</ele>
        <time>2019-04-20T08:35:57.000Z</time>
      </trkpt>
      <trkpt lat="43.98146" lon="7.32663">
        <ele>767</ele>
        <time>2019-04-20T08:35:59.000Z</time>
      </trkpt>
      <trkpt lat="43.98147" lon="7.32667">
        <ele>767.59997558594</ele>
        <time>2019-04-20T08:36:02.000Z</time>
      </trkpt>
      <trkpt lat="43.9815" lon="7.3267">
        <ele>768.20001220703</ele>
        <time>2019-04-20T08:36:05.000Z</time>
      </trkpt>
      <trkpt lat="43.9815" lon="7.32672">
        <ele>768.59997558594</ele>
        <time>2019-04-20T08:36:07.000Z</time>
      </trkpt>
      <trkpt lat="43.98152" lon="7.32675">
        <ele>768.79998779297</ele>
        <time>2019-04-20T08:36:09.000Z</time>
      </trkpt>
      <trkpt lat="43.98152" lon="7.32677">
        <ele>769.20001220703</ele>
        <time>2019-04-20T08:36:11.000Z</time>
      </trkpt>
      <trkpt lat="43.98153" lon="7.3268">
        <ele>769.79998779297</ele>
        <time>2019-04-20T08:36:13.000Z</time>
      </trkpt>
      <trkpt lat="43.98154" lon="7.32682">
        <ele>770.40002441406</ele>
        <time>2019-04-20T08:36:16.000Z</time>
      </trkpt>
      <trkpt lat="43.98155" lon="7.32682">
        <ele>770.59997558594</ele>
        <time>2019-04-20T08:36:17.000Z</time>
      </trkpt>
      <trkpt lat="43.98156" lon="7.32683">
        <ele>771</ele>
        <time>2019-04-20T08:36:21.000Z</time>
      </trkpt>
      <trkpt lat="43.98155" lon="7.32682">
        <ele>771.40002441406</ele>
        <time>2019-04-20T08:36:26.000Z</time>
      </trkpt>
      <trkpt lat="43.98153" lon="7.32681">
        <ele>771.79998779297</ele>
        <time>2019-04-20T08:36:28.000Z</time>
      </trkpt>
      <trkpt lat="43.98154" lon="7.32681">
        <ele>772.40002441406</ele>
        <time>2019-04-20T08:36:32.000Z</time>
      </trkpt>
      <trkpt lat="43.98154" lon="7.32681">
        <ele>772.40002441406</ele>
        <time>2019-04-20T08:36:33.000Z</time>
      </trkpt>
      <trkpt lat="43.98153" lon="7.3268">
        <ele>772.40002441406</ele>
        <time>2019-04-20T08:36:41.000Z</time>
      </trkpt>
      <trkpt lat="43.98153" lon="7.32679">
        <ele>772.40002441406</ele>
        <time>2019-04-20T08:36:45.000Z</time>
      </trkpt>
      <trkpt lat="43.98154" lon="7.32679">
        <ele>772.20001220703</ele>
        <time>2019-04-20T08:36:52.000Z</time>
      </trkpt>
      <trkpt lat="43.98153" lon="7.32678">
        <ele>772.59997558594</ele>
        <time>2019-04-20T08:36:58.000Z</time>
      </trkpt>
      <trkpt lat="43.98149" lon="7.32676">
        <ele>773.59997558594</ele>
        <time>2019-04-20T08:37:03.000Z</time>
      </trkpt>
      <trkpt lat="43.98146" lon="7.32675">
        <ele>774</ele>
        <time>2019-04-20T08:37:05.000Z</time>
      </trkpt>
      <trkpt lat="43.98143" lon="7.32675">
        <ele>774.59997558594</ele>
        <time>2019-04-20T08:37:08.000Z</time>
      </trkpt>
      <trkpt lat="43.98139" lon="7.32674">
        <ele>775.79998779297</ele>
        <time>2019-04-20T08:37:12.000Z</time>
      </trkpt>
      <trkpt lat="43.98136" lon="7.32673">
        <ele>776.79998779297</ele>
        <time>2019-04-20T08:37:17.000Z</time>
      </trkpt>
      <trkpt lat="43.9813" lon="7.32672">
        <ele>777.79998779297</ele>
        <time>2019-04-20T08:37:21.000Z</time>
      </trkpt>
      <trkpt lat="43.98129" lon="7.32672">
        <ele>778</ele>
        <time>2019-04-20T08:37:22.000Z</time>
      </trkpt>
      <trkpt lat="43.98124" lon="7.32672">
        <ele>779.20001220703</ele>
        <time>2019-04-20T08:37:27.000Z</time>
      </trkpt>
      <trkpt lat="43.98121" lon="7.32672">
        <ele>779.79998779297</ele>
        <time>2019-04-20T08:37:30.000Z</time>
      </trkpt>
      <trkpt lat="43.98119" lon="7.32672">
        <ele>780.20001220703</ele>
        <time>2019-04-20T08:37:32.000Z</time>
      </trkpt>
      <trkpt lat="43.98114" lon="7.32672">
        <ele>781</ele>
        <time>2019-04-20T08:37:36.000Z</time>
      </trkpt>
      <trkpt lat="43.98114" lon="7.32672">
        <ele>781.20001220703</ele>
        <time>2019-04-20T08:37:37.000Z</time>
      </trkpt>
      <trkpt lat="43.98111" lon="7.32673">
        <ele>781.79998779297</ele>
        <time>2019-04-20T08:37:41.000Z</time>
      </trkpt>
      <trkpt lat="43.98105" lon="7.32674">
        <ele>782.40002441406</ele>
        <time>2019-04-20T08:37:45.000Z</time>
      </trkpt>
      <trkpt lat="43.98104" lon="7.32675">
        <ele>782.59997558594</ele>
        <time>2019-04-20T08:37:46.000Z</time>
      </trkpt>
      <trkpt lat="43.98101" lon="7.32677">
        <ele>783.59997558594</ele>
        <time>2019-04-20T08:37:50.000Z</time>
      </trkpt>
      <trkpt lat="43.98095" lon="7.32678">
        <ele>784.59997558594</ele>
        <time>2019-04-20T08:37:55.000Z</time>
      </trkpt>
      <trkpt lat="43.98094" lon="7.32679">
        <ele>784.79998779297</ele>
        <time>2019-04-20T08:37:56.000Z</time>
      </trkpt>
      <trkpt lat="43.98094" lon="7.32681">
        <ele>785.79998779297</ele>
        <time>2019-04-20T08:38:01.000Z</time>
      </trkpt>
      <trkpt lat="43.98097" lon="7.32683">
        <ele>786.59997558594</ele>
        <time>2019-04-20T08:38:04.000Z</time>
      </trkpt>
      <trkpt lat="43.98096" lon="7.32683">
        <ele>787</ele>
        <time>2019-04-20T08:38:05.000Z</time>
      </trkpt>
      <trkpt lat="43.98097" lon="7.32684">
        <ele>787.40002441406</ele>
        <time>2019-04-20T08:38:07.000Z</time>
      </trkpt>
      <trkpt lat="43.98099" lon="7.32685">
        <ele>788</ele>
        <time>2019-04-20T08:38:10.000Z</time>
      </trkpt>
      <trkpt lat="43.98099" lon="7.32686">
        <ele>788.20001220703</ele>
        <time>2019-04-20T08:38:11.000Z</time>
      </trkpt>
      <trkpt lat="43.98097" lon="7.32687">
        <ele>788.40002441406</ele>
        <time>2019-04-20T08:38:19.000Z</time>
      </trkpt>
      <trkpt lat="43.98094" lon="7.32689">
        <ele>788.40002441406</ele>
        <time>2019-04-20T08:38:36.000Z</time>
      </trkpt>
      <trkpt lat="43.98095" lon="7.32689">
        <ele>788.59997558594</ele>
        <time>2019-04-20T08:38:42.000Z</time>
      </trkpt>
      <trkpt lat="43.98093" lon="7.32689">
        <ele>788.79998779297</ele>
        <time>2019-04-20T08:38:48.000Z</time>
      </trkpt>
      <trkpt lat="43.98093" lon="7.3269">
        <ele>788.79998779297</ele>
        <time>2019-04-20T08:38:59.000Z</time>
      </trkpt>
      <trkpt lat="43.98095" lon="7.3269">
        <ele>789</ele>
        <time>2019-04-20T08:39:02.000Z</time>
      </trkpt>
      <trkpt lat="43.98097" lon="7.3269">
        <ele>789</ele>
        <time>2019-04-20T08:39:04.000Z</time>
      </trkpt>
      <trkpt lat="43.98102" lon="7.32694">
        <ele>789.59997558594</ele>
        <time>2019-04-20T08:39:07.000Z</time>
      </trkpt>
      <trkpt lat="43.98104" lon="7.32695">
        <ele>790.20001220703</ele>
        <time>2019-04-20T08:39:09.000Z</time>
      </trkpt>
      <trkpt lat="43.98105" lon="7.32696">
        <ele>790.40002441406</ele>
        <time>2019-04-20T08:39:10.000Z</time>
      </trkpt>
      <trkpt lat="43.98107" lon="7.32698">
        <ele>791.20001220703</ele>
        <time>2019-04-20T08:39:14.000Z</time>
      </trkpt>
      <trkpt lat="43.9811" lon="7.32701">
        <ele>791.79998779297</ele>
        <time>2019-04-20T08:39:16.000Z</time>
      </trkpt>
      <trkpt lat="43.98114" lon="7.32706">
        <ele>792.40002441406</ele>
        <time>2019-04-20T08:39:20.000Z</time>
      </trkpt>
      <trkpt lat="43.98113" lon="7.32705">
        <ele>792.59997558594</ele>
        <time>2019-04-20T08:39:21.000Z</time>
      </trkpt>
      <trkpt lat="43.98118" lon="7.32713">
        <ele>793.79998779297</ele>
        <time>2019-04-20T08:39:25.000Z</time>
      </trkpt>
      <trkpt lat="43.98118" lon="7.32712">
        <ele>794</ele>
        <time>2019-04-20T08:39:26.000Z</time>
      </trkpt>
      <trkpt lat="43.98121" lon="7.32718">
        <ele>795</ele>
        <time>2019-04-20T08:39:29.000Z</time>
      </trkpt>
      <trkpt lat="43.98124" lon="7.32723">
        <ele>796</ele>
        <time>2019-04-20T08:39:33.000Z</time>
      </trkpt>
      <trkpt lat="43.98124" lon="7.32725">
        <ele>796.40002441406</ele>
        <time>2019-04-20T08:39:34.000Z</time>
      </trkpt>
      <trkpt lat="43.98127" lon="7.32729">
        <ele>797.20001220703</ele>
        <time>2019-04-20T08:39:37.000Z</time>
      </trkpt>
      <trkpt lat="43.98128" lon="7.3273">
        <ele>797.40002441406</ele>
        <time>2019-04-20T08:39:38.000Z</time>
      </trkpt>
      <trkpt lat="43.98129" lon="7.32731">
        <ele>797.59997558594</ele>
        <time>2019-04-20T08:39:39.000Z</time>
      </trkpt>
      <trkpt lat="43.98131" lon="7.32735">
        <ele>798</ele>
        <time>2019-04-20T08:39:42.000Z</time>
      </trkpt>
      <trkpt lat="43.98133" lon="7.32738">
        <ele>798.40002441406</ele>
        <time>2019-04-20T08:39:44.000Z</time>
      </trkpt>
      <trkpt lat="43.98133" lon="7.32739">
        <ele>798.59997558594</ele>
        <time>2019-04-20T08:39:45.000Z</time>
      </trkpt>
      <trkpt lat="43.98136" lon="7.32742">
        <ele>799.59997558594</ele>
        <time>2019-04-20T08:39:48.000Z</time>
      </trkpt>
      <trkpt lat="43.98138" lon="7.32745">
        <ele>800</ele>
        <time>2019-04-20T08:39:50.000Z</time>
      </trkpt>
      <trkpt lat="43.98139" lon="7.32747">
        <ele>800.59997558594</ele>
        <time>2019-04-20T08:39:52.000Z</time>
      </trkpt>
      <trkpt lat="43.9814" lon="7.32748">
        <ele>800.59997558594</ele>
        <time>2019-04-20T08:39:53.000Z</time>
      </trkpt>
      <trkpt lat="43.98143" lon="7.32754">
        <ele>801.79998779297</ele>
        <time>2019-04-20T08:39:58.000Z</time>
      </trkpt>
      <trkpt lat="43.98147" lon="7.32762">
        <ele>802.59997558594</ele>
        <time>2019-04-20T08:40:04.000Z</time>
      </trkpt>
      <trkpt lat="43.98147" lon="7.32763">
        <ele>802.79998779297</ele>
        <time>2019-04-20T08:40:05.000Z</time>
      </trkpt>
      <trkpt lat="43.98148" lon="7.32767">
        <ele>803.40002441406</ele>
        <time>2019-04-20T08:40:08.000Z</time>
      </trkpt>
      <trkpt lat="43.9815" lon="7.32771">
        <ele>804</ele>
        <time>2019-04-20T08:40:11.000Z</time>
      </trkpt>
      <trkpt lat="43.9815" lon="7.32772">
        <ele>804.20001220703</ele>
        <time>2019-04-20T08:40:12.000Z</time>
      </trkpt>
      <trkpt lat="43.98151" lon="7.32775">
        <ele>804.40002441406</ele>
        <time>2019-04-20T08:40:14.000Z</time>
      </trkpt>
      <trkpt lat="43.98154" lon="7.32779">
        <ele>805</ele>
        <time>2019-04-20T08:40:17.000Z</time>
      </trkpt>
      <trkpt lat="43.98155" lon="7.32782">
        <ele>805.40002441406</ele>
        <time>2019-04-20T08:40:19.000Z</time>
      </trkpt>
      <trkpt lat="43.98159" lon="7.32788">
        <ele>806</ele>
        <time>2019-04-20T08:40:23.000Z</time>
      </trkpt>
      <trkpt lat="43.9816" lon="7.3279">
        <ele>806.79998779297</ele>
        <time>2019-04-20T08:40:27.000Z</time>
      </trkpt>
      <trkpt lat="43.98162" lon="7.32794">
        <ele>807.20001220703</ele>
        <time>2019-04-20T08:40:29.000Z</time>
      </trkpt>
      <trkpt lat="43.98164" lon="7.32798">
        <ele>808.20001220703</ele>
        <time>2019-04-20T08:40:34.000Z</time>
      </trkpt>
      <trkpt lat="43.98167" lon="7.32798">
        <ele>808.79998779297</ele>
        <time>2019-04-20T08:40:39.000Z</time>
      </trkpt>
      <trkpt lat="43.9817" lon="7.328">
        <ele>809</ele>
        <time>2019-04-20T08:40:44.000Z</time>
      </trkpt>
      <trkpt lat="43.9817" lon="7.328">
        <ele>809.40002441406</ele>
        <time>2019-04-20T08:40:45.000Z</time>
      </trkpt>
      <trkpt lat="43.98172" lon="7.32802">
        <ele>810.40002441406</ele>
        <time>2019-04-20T08:40:50.000Z</time>
      </trkpt>
      <trkpt lat="43.98172" lon="7.32803">
        <ele>810.40002441406</ele>
        <time>2019-04-20T08:40:51.000Z</time>
      </trkpt>
      <trkpt lat="43.98173" lon="7.32805">
        <ele>811.59997558594</ele>
        <time>2019-04-20T08:40:57.000Z</time>
      </trkpt>
      <trkpt lat="43.98174" lon="7.32806">
        <ele>811.79998779297</ele>
        <time>2019-04-20T08:40:59.000Z</time>
      </trkpt>
      <trkpt lat="43.98176" lon="7.32808">
        <ele>812.40002441406</ele>
        <time>2019-04-20T08:41:04.000Z</time>
      </trkpt>
      <trkpt lat="43.98176" lon="7.32809">
        <ele>812.59997558594</ele>
        <time>2019-04-20T08:41:06.000Z</time>
      </trkpt>
      <trkpt lat="43.98177" lon="7.32811">
        <ele>813.40002441406</ele>
        <time>2019-04-20T08:41:10.000Z</time>
      </trkpt>
      <trkpt lat="43.98178" lon="7.32811">
        <ele>813.59997558594</ele>
        <time>2019-04-20T08:41:11.000Z</time>
      </trkpt>
      <trkpt lat="43.98181" lon="7.32815">
        <ele>814.59997558594</ele>
        <time>2019-04-20T08:41:17.000Z</time>
      </trkpt>
      <trkpt lat="43.98181" lon="7.32815">
        <ele>814.79998779297</ele>
        <time>2019-04-20T08:41:18.000Z</time>
      </trkpt>
      <trkpt lat="43.98183" lon="7.32817">
        <ele>815.79998779297</ele>
        <time>2019-04-20T08:41:23.000Z</time>
      </trkpt>
      <trkpt lat="43.98185" lon="7.32819">
        <ele>816.40002441406</ele>
        <time>2019-04-20T08:41:26.000Z</time>
      </trkpt>
      <trkpt lat="43.98187" lon="7.32821">
        <ele>817</ele>
        <time>2019-04-20T08:41:29.000Z</time>
      </trkpt>
      <trkpt lat="43.9819" lon="7.32825">
        <ele>818</ele>
        <time>2019-04-20T08:41:35.000Z</time>
      </trkpt>
      <trkpt lat="43.98194" lon="7.32828">
        <ele>819</ele>
        <time>2019-04-20T08:41:41.000Z</time>
      </trkpt>
      <trkpt lat="43.98194" lon="7.32829">
        <ele>819.20001220703</ele>
        <time>2019-04-20T08:41:42.000Z</time>
      </trkpt>
      <trkpt lat="43.98197" lon="7.32832">
        <ele>820.20001220703</ele>
        <time>2019-04-20T08:41:47.000Z</time>
      </trkpt>
      <trkpt lat="43.98199" lon="7.32834">
        <ele>821</ele>
        <time>2019-04-20T08:41:51.000Z</time>
      </trkpt>
      <trkpt lat="43.98199" lon="7.32835">
        <ele>821.20001220703</ele>
        <time>2019-04-20T08:41:52.000Z</time>
      </trkpt>
      <trkpt lat="43.98201" lon="7.32838">
        <ele>822.40002441406</ele>
        <time>2019-04-20T08:41:57.000Z</time>
      </trkpt>
      <trkpt lat="43.98202" lon="7.32838">
        <ele>822.59997558594</ele>
        <time>2019-04-20T08:41:58.000Z</time>
      </trkpt>
      <trkpt lat="43.98204" lon="7.3284">
        <ele>823.40002441406</ele>
        <time>2019-04-20T08:42:02.000Z</time>
      </trkpt>
      <trkpt lat="43.98206" lon="7.32843">
        <ele>824.20001220703</ele>
        <time>2019-04-20T08:42:06.000Z</time>
      </trkpt>
      <trkpt lat="43.98207" lon="7.32845">
        <ele>824.59997558594</ele>
        <time>2019-04-20T08:42:08.000Z</time>
      </trkpt>
      <trkpt lat="43.9821" lon="7.32848">
        <ele>825.40002441406</ele>
        <time>2019-04-20T08:42:13.000Z</time>
      </trkpt>
      <trkpt lat="43.9821" lon="7.32849">
        <ele>825.59997558594</ele>
        <time>2019-04-20T08:42:14.000Z</time>
      </trkpt>
      <trkpt lat="43.98214" lon="7.32854">
        <ele>826.79998779297</ele>
        <time>2019-04-20T08:42:20.000Z</time>
      </trkpt>
      <trkpt lat="43.98216" lon="7.3286">
        <ele>827.79998779297</ele>
        <time>2019-04-20T08:42:27.000Z</time>
      </trkpt>
      <trkpt lat="43.98215" lon="7.32861">
        <ele>828.79998779297</ele>
        <time>2019-04-20T08:42:33.000Z</time>
      </trkpt>
      <trkpt lat="43.98216" lon="7.32862">
        <ele>828.79998779297</ele>
        <time>2019-04-20T08:42:35.000Z</time>
      </trkpt>
      <trkpt lat="43.98218" lon="7.32864">
        <ele>828.40002441406</ele>
        <time>2019-04-20T08:42:41.000Z</time>
      </trkpt>
      <trkpt lat="43.98218" lon="7.32868">
        <ele>829</ele>
        <time>2019-04-20T08:42:44.000Z</time>
      </trkpt>
      <trkpt lat="43.98218" lon="7.32869">
        <ele>828.79998779297</ele>
        <time>2019-04-20T08:42:46.000Z</time>
      </trkpt>
      <trkpt lat="43.98219" lon="7.3287">
        <ele>828.79998779297</ele>
        <time>2019-04-20T08:42:55.000Z</time>
      </trkpt>
      <trkpt lat="43.98218" lon="7.32872">
        <ele>828.79998779297</ele>
        <time>2019-04-20T08:43:01.000Z</time>
      </trkpt>
      <trkpt lat="43.98218" lon="7.32871">
        <ele>828.79998779297</ele>
        <time>2019-04-20T08:43:02.000Z</time>
      </trkpt>
      <trkpt lat="43.98219" lon="7.32874">
        <ele>829</ele>
        <time>2019-04-20T08:43:08.000Z</time>
      </trkpt>
      <trkpt lat="43.98217" lon="7.32872">
        <ele>828.59997558594</ele>
        <time>2019-04-20T08:43:13.000Z</time>
      </trkpt>
      <trkpt lat="43.98218" lon="7.32872">
        <ele>828.59997558594</ele>
        <time>2019-04-20T08:43:14.000Z</time>
      </trkpt>
      <trkpt lat="43.9822" lon="7.32874">
        <ele>828.40002441406</ele>
        <time>2019-04-20T08:43:20.000Z</time>
      </trkpt>
      <trkpt lat="43.9822" lon="7.32877">
        <ele>828.59997558594</ele>
        <time>2019-04-20T08:43:24.000Z</time>
      </trkpt>
      <trkpt lat="43.9822" lon="7.32878">
        <ele>828.59997558594</ele>
        <time>2019-04-20T08:43:25.000Z</time>
      </trkpt>
      <trkpt lat="43.9822" lon="7.32879">
        <ele>829.40002441406</ele>
        <time>2019-04-20T08:43:32.000Z</time>
      </trkpt>
      <trkpt lat="43.98219" lon="7.32879">
        <ele>829.40002441406</ele>
        <time>2019-04-20T08:43:35.000Z</time>
      </trkpt>
      <trkpt lat="43.98219" lon="7.32879">
        <ele>829.20001220703</ele>
        <time>2019-04-20T08:43:37.000Z</time>
      </trkpt>
      <trkpt lat="43.98219" lon="7.3288">
        <ele>829.20001220703</ele>
        <time>2019-04-20T08:43:45.000Z</time>
      </trkpt>
      <trkpt lat="43.98219" lon="7.32881">
        <ele>829.20001220703</ele>
        <time>2019-04-20T08:43:46.000Z</time>
      </trkpt>
      <trkpt lat="43.98216" lon="7.32884">
        <ele>829.40002441406</ele>
        <time>2019-04-20T08:43:50.000Z</time>
      </trkpt>
      <trkpt lat="43.98216" lon="7.32885">
        <ele>829.79998779297</ele>
        <time>2019-04-20T08:43:52.000Z</time>
      </trkpt>
      <trkpt lat="43.98214" lon="7.32886">
        <ele>830.40002441406</ele>
        <time>2019-04-20T08:43:55.000Z</time>
      </trkpt>
      <trkpt lat="43.98212" lon="7.32886">
        <ele>830.79998779297</ele>
        <time>2019-04-20T08:43:57.000Z</time>
      </trkpt>
      <trkpt lat="43.98211" lon="7.32887">
        <ele>831.20001220703</ele>
        <time>2019-04-20T08:43:58.000Z</time>
      </trkpt>
      <trkpt lat="43.98209" lon="7.32889">
        <ele>832</ele>
        <time>2019-04-20T08:44:02.000Z</time>
      </trkpt>
      <trkpt lat="43.98207" lon="7.32891">
        <ele>832.20001220703</ele>
        <time>2019-04-20T08:44:04.000Z</time>
      </trkpt>
      <trkpt lat="43.98204" lon="7.32893">
        <ele>833</ele>
        <time>2019-04-20T08:44:08.000Z</time>
      </trkpt>
      <trkpt lat="43.98205" lon="7.32893">
        <ele>833.20001220703</ele>
        <time>2019-04-20T08:44:09.000Z</time>
      </trkpt>
      <trkpt lat="43.982" lon="7.32897">
        <ele>834.20001220703</ele>
        <time>2019-04-20T08:44:14.000Z</time>
      </trkpt>
      <trkpt lat="43.982" lon="7.32897">
        <ele>834.40002441406</ele>
        <time>2019-04-20T08:44:15.000Z</time>
      </trkpt>
      <trkpt lat="43.98196" lon="7.32899">
        <ele>835.40002441406</ele>
        <time>2019-04-20T08:44:19.000Z</time>
      </trkpt>
      <trkpt lat="43.98195" lon="7.32898">
        <ele>835.59997558594</ele>
        <time>2019-04-20T08:44:20.000Z</time>
      </trkpt>
      <trkpt lat="43.98194" lon="7.32894">
        <ele>835.59997558594</ele>
        <time>2019-04-20T08:44:24.000Z</time>
      </trkpt>
      <trkpt lat="43.98194" lon="7.32895">
        <ele>835.79998779297</ele>
        <time>2019-04-20T08:44:25.000Z</time>
      </trkpt>
      <trkpt lat="43.98194" lon="7.32891">
        <ele>836.40002441406</ele>
        <time>2019-04-20T08:44:27.000Z</time>
      </trkpt>
      <trkpt lat="43.98193" lon="7.32884">
        <ele>837.59997558594</ele>
        <time>2019-04-20T08:44:32.000Z</time>
      </trkpt>
      <trkpt lat="43.98193" lon="7.32883">
        <ele>837.79998779297</ele>
        <time>2019-04-20T08:44:33.000Z</time>
      </trkpt>
      <trkpt lat="43.9819" lon="7.32878">
        <ele>838.59997558594</ele>
        <time>2019-04-20T08:44:38.000Z</time>
      </trkpt>
      <trkpt lat="43.98188" lon="7.32878">
        <ele>839</ele>
        <time>2019-04-20T08:44:40.000Z</time>
      </trkpt>
      <trkpt lat="43.98186" lon="7.32879">
        <ele>839.20001220703</ele>
        <time>2019-04-20T08:44:42.000Z</time>
      </trkpt>
      <trkpt lat="43.98184" lon="7.3288">
        <ele>839.79998779297</ele>
        <time>2019-04-20T08:44:45.000Z</time>
      </trkpt>
      <trkpt lat="43.98183" lon="7.3288">
        <ele>840</ele>
        <time>2019-04-20T08:44:46.000Z</time>
      </trkpt>
      <trkpt lat="43.98179" lon="7.32881">
        <ele>841</ele>
        <time>2019-04-20T08:44:52.000Z</time>
      </trkpt>
      <trkpt lat="43.98174" lon="7.32877">
        <ele>842</ele>
        <time>2019-04-20T08:44:57.000Z</time>
      </trkpt>
      <trkpt lat="43.98173" lon="7.32876">
        <ele>842.59997558594</ele>
        <time>2019-04-20T08:44:59.000Z</time>
      </trkpt>
      <trkpt lat="43.98172" lon="7.32875">
        <ele>843</ele>
        <time>2019-04-20T08:45:02.000Z</time>
      </trkpt>
      <trkpt lat="43.98171" lon="7.32874">
        <ele>843.20001220703</ele>
        <time>2019-04-20T08:45:05.000Z</time>
      </trkpt>
      <trkpt lat="43.98168" lon="7.32871">
        <ele>843.59997558594</ele>
        <time>2019-04-20T08:45:11.000Z</time>
      </trkpt>
      <trkpt lat="43.98167" lon="7.32869">
        <ele>844</ele>
        <time>2019-04-20T08:45:13.000Z</time>
      </trkpt>
      <trkpt lat="43.98166" lon="7.32868">
        <ele>844.20001220703</ele>
        <time>2019-04-20T08:45:15.000Z</time>
      </trkpt>
      <trkpt lat="43.98165" lon="7.32868">
        <ele>844.40002441406</ele>
        <time>2019-04-20T08:45:16.000Z</time>
      </trkpt>
      <trkpt lat="43.98162" lon="7.32865">
        <ele>845.40002441406</ele>
        <time>2019-04-20T08:45:22.000Z</time>
      </trkpt>
      <trkpt lat="43.98158" lon="7.32862">
        <ele>846.59997558594</ele>
        <time>2019-04-20T08:45:27.000Z</time>
      </trkpt>
      <trkpt lat="43.98157" lon="7.32862">
        <ele>846.79998779297</ele>
        <time>2019-04-20T08:45:28.000Z</time>
      </trkpt>
      <trkpt lat="43.98154" lon="7.32859">
        <ele>847.79998779297</ele>
        <time>2019-04-20T08:45:32.000Z</time>
      </trkpt>
      <trkpt lat="43.98152" lon="7.32859">
        <ele>848</ele>
        <time>2019-04-20T08:45:34.000Z</time>
      </trkpt>
      <trkpt lat="43.98151" lon="7.32858">
        <ele>849</ele>
        <time>2019-04-20T08:45:37.000Z</time>
      </trkpt>
      <trkpt lat="43.98149" lon="7.32858">
        <ele>849.59997558594</ele>
        <time>2019-04-20T08:45:39.000Z</time>
      </trkpt>
      <trkpt lat="43.98149" lon="7.32858">
        <ele>849.79998779297</ele>
        <time>2019-04-20T08:45:40.000Z</time>
      </trkpt>
      <trkpt lat="43.98148" lon="7.32859">
        <ele>850</ele>
        <time>2019-04-20T08:45:41.000Z</time>
      </trkpt>
      <trkpt lat="43.98147" lon="7.3286">
        <ele>850.40002441406</ele>
        <time>2019-04-20T08:45:42.000Z</time>
      </trkpt>
      <trkpt lat="43.98146" lon="7.32861">
        <ele>851</ele>
        <time>2019-04-20T08:45:44.000Z</time>
      </trkpt>
      <trkpt lat="43.98145" lon="7.32861">
        <ele>851.20001220703</ele>
        <time>2019-04-20T08:45:45.000Z</time>
      </trkpt>
      <trkpt lat="43.98144" lon="7.32861">
        <ele>851.40002441406</ele>
        <time>2019-04-20T08:45:49.000Z</time>
      </trkpt>
      <trkpt lat="43.98142" lon="7.32862">
        <ele>851.40002441406</ele>
        <time>2019-04-20T08:45:50.000Z</time>
      </trkpt>
      <trkpt lat="43.98139" lon="7.32865">
        <ele>852</ele>
        <time>2019-04-20T08:45:54.000Z</time>
      </trkpt>
      <trkpt lat="43.98139" lon="7.32865">
        <ele>852.40002441406</ele>
        <time>2019-04-20T08:45:56.000Z</time>
      </trkpt>
      <trkpt lat="43.98134" lon="7.32868">
        <ele>853.20001220703</ele>
        <time>2019-04-20T08:46:02.000Z</time>
      </trkpt>
      <trkpt lat="43.98133" lon="7.32868">
        <ele>853.40002441406</ele>
        <time>2019-04-20T08:46:03.000Z</time>
      </trkpt>
      <trkpt lat="43.98131" lon="7.32864">
        <ele>854.20001220703</ele>
        <time>2019-04-20T08:46:08.000Z</time>
      </trkpt>
      <trkpt lat="43.98131" lon="7.32861">
        <ele>854.59997558594</ele>
        <time>2019-04-20T08:46:10.000Z</time>
      </trkpt>
      <trkpt lat="43.98132" lon="7.32855">
        <ele>855.20001220703</ele>
        <time>2019-04-20T08:46:15.000Z</time>
      </trkpt>
      <trkpt lat="43.98131" lon="7.32854">
        <ele>855.59997558594</ele>
        <time>2019-04-20T08:46:17.000Z</time>
      </trkpt>
      <trkpt lat="43.98128" lon="7.32856">
        <ele>856</ele>
        <time>2019-04-20T08:46:20.000Z</time>
      </trkpt>
      <trkpt lat="43.98126" lon="7.32857">
        <ele>856.79998779297</ele>
        <time>2019-04-20T08:46:24.000Z</time>
      </trkpt>
      <trkpt lat="43.98123" lon="7.32859">
        <ele>857.40002441406</ele>
        <time>2019-04-20T08:46:28.000Z</time>
      </trkpt>
      <trkpt lat="43.9812" lon="7.32861">
        <ele>857.40002441406</ele>
        <time>2019-04-20T08:46:35.000Z</time>
      </trkpt>
      <trkpt lat="43.98117" lon="7.32862">
        <ele>857.79998779297</ele>
        <time>2019-04-20T08:46:38.000Z</time>
      </trkpt>
      <trkpt lat="43.98116" lon="7.32863">
        <ele>858.40002441406</ele>
        <time>2019-04-20T08:46:40.000Z</time>
      </trkpt>
      <trkpt lat="43.98111" lon="7.32865">
        <ele>858.79998779297</ele>
        <time>2019-04-20T08:46:44.000Z</time>
      </trkpt>
      <trkpt lat="43.98109" lon="7.32867">
        <ele>859.20001220703</ele>
        <time>2019-04-20T08:46:46.000Z</time>
      </trkpt>
      <trkpt lat="43.98103" lon="7.32869">
        <ele>860</ele>
        <time>2019-04-20T08:46:52.000Z</time>
      </trkpt>
      <trkpt lat="43.98102" lon="7.3287">
        <ele>860.20001220703</ele>
        <time>2019-04-20T08:46:53.000Z</time>
      </trkpt>
      <trkpt lat="43.98097" lon="7.32873">
        <ele>860.79998779297</ele>
        <time>2019-04-20T08:46:58.000Z</time>
      </trkpt>
      <trkpt lat="43.98095" lon="7.32874">
        <ele>861</ele>
        <time>2019-04-20T08:47:00.000Z</time>
      </trkpt>
      <trkpt lat="43.98089" lon="7.32877">
        <ele>862.20001220703</ele>
        <time>2019-04-20T08:47:06.000Z</time>
      </trkpt>
      <trkpt lat="43.98087" lon="7.32877">
        <ele>862.40002441406</ele>
        <time>2019-04-20T08:47:07.000Z</time>
      </trkpt>
      <trkpt lat="43.98086" lon="7.32878">
        <ele>863.20001220703</ele>
        <time>2019-04-20T08:47:10.000Z</time>
      </trkpt>
      <trkpt lat="43.98083" lon="7.3288">
        <ele>863.40002441406</ele>
        <time>2019-04-20T08:47:11.000Z</time>
      </trkpt>
      <trkpt lat="43.98077" lon="7.32888">
        <ele>864.79998779297</ele>
        <time>2019-04-20T08:47:17.000Z</time>
      </trkpt>
      <trkpt lat="43.98073" lon="7.32895">
        <ele>865.79998779297</ele>
        <time>2019-04-20T08:47:21.000Z</time>
      </trkpt>
      <trkpt lat="43.98072" lon="7.32898">
        <ele>866.40002441406</ele>
        <time>2019-04-20T08:47:23.000Z</time>
      </trkpt>
      <trkpt lat="43.98069" lon="7.32903">
        <ele>867</ele>
        <time>2019-04-20T08:47:26.000Z</time>
      </trkpt>
      <trkpt lat="43.98066" lon="7.32908">
        <ele>867.59997558594</ele>
        <time>2019-04-20T08:47:29.000Z</time>
      </trkpt>
      <trkpt lat="43.98064" lon="7.32911">
        <ele>868</ele>
        <time>2019-04-20T08:47:31.000Z</time>
      </trkpt>
      <trkpt lat="43.98061" lon="7.32915">
        <ele>868.79998779297</ele>
        <time>2019-04-20T08:47:36.000Z</time>
      </trkpt>
      <trkpt lat="43.9806" lon="7.32917">
        <ele>869</ele>
        <time>2019-04-20T08:47:37.000Z</time>
      </trkpt>
      <trkpt lat="43.98059" lon="7.32921">
        <ele>869.59997558594</ele>
        <time>2019-04-20T08:47:43.000Z</time>
      </trkpt>
      <trkpt lat="43.98059" lon="7.3292">
        <ele>869.79998779297</ele>
        <time>2019-04-20T08:47:48.000Z</time>
      </trkpt>
      <trkpt lat="43.98059" lon="7.32919">
        <ele>870.20001220703</ele>
        <time>2019-04-20T08:47:50.000Z</time>
      </trkpt>
      <trkpt lat="43.98058" lon="7.32919">
        <ele>870.79998779297</ele>
        <time>2019-04-20T08:47:53.000Z</time>
      </trkpt>
      <trkpt lat="43.98058" lon="7.32919">
        <ele>871.20001220703</ele>
        <time>2019-04-20T08:47:56.000Z</time>
      </trkpt>
      <trkpt lat="43.98058" lon="7.32918">
        <ele>870.79998779297</ele>
        <time>2019-04-20T08:48:00.000Z</time>
      </trkpt>
      <trkpt lat="43.98057" lon="7.32916">
        <ele>871.20001220703</ele>
        <time>2019-04-20T08:48:06.000Z</time>
      </trkpt>
      <trkpt lat="43.98057" lon="7.32916">
        <ele>871.20001220703</ele>
        <time>2019-04-20T08:48:07.000Z</time>
      </trkpt>
      <trkpt lat="43.98057" lon="7.32913">
        <ele>871.20001220703</ele>
        <time>2019-04-20T08:48:08.000Z</time>
      </trkpt>
      <trkpt lat="43.98058" lon="7.32911">
        <ele>871.40002441406</ele>
        <time>2019-04-20T08:48:11.000Z</time>
      </trkpt>
      <trkpt lat="43.98058" lon="7.3291">
        <ele>871.59997558594</ele>
        <time>2019-04-20T08:48:12.000Z</time>
      </trkpt>
      <trkpt lat="43.98061" lon="7.32903">
        <ele>872.20001220703</ele>
        <time>2019-04-20T08:48:18.000Z</time>
      </trkpt>
      <trkpt lat="43.98063" lon="7.32899">
        <ele>872.40002441406</ele>
        <time>2019-04-20T08:48:21.000Z</time>
      </trkpt>
      <trkpt lat="43.98064" lon="7.32896">
        <ele>872.79998779297</ele>
        <time>2019-04-20T08:48:25.000Z</time>
      </trkpt>
      <trkpt lat="43.98066" lon="7.32891">
        <ele>873.40002441406</ele>
        <time>2019-04-20T08:48:28.000Z</time>
      </trkpt>
      <trkpt lat="43.98069" lon="7.32887">
        <ele>873.59997558594</ele>
        <time>2019-04-20T08:48:31.000Z</time>
      </trkpt>
      <trkpt lat="43.98069" lon="7.32881">
        <ele>874</ele>
        <time>2019-04-20T08:48:34.000Z</time>
      </trkpt>
      <trkpt lat="43.98071" lon="7.32876">
        <ele>874.20001220703</ele>
        <time>2019-04-20T08:48:36.000Z</time>
      </trkpt>
      <trkpt lat="43.98071" lon="7.32873">
        <ele>874.40002441406</ele>
        <time>2019-04-20T08:48:37.000Z</time>
      </trkpt>
      <trkpt lat="43.98073" lon="7.3287">
        <ele>874.79998779297</ele>
        <time>2019-04-20T08:48:39.000Z</time>
      </trkpt>
      <trkpt lat="43.98074" lon="7.32864">
        <ele>875.40002441406</ele>
        <time>2019-04-20T08:48:42.000Z</time>
      </trkpt>
      <trkpt lat="43.98074" lon="7.32862">
        <ele>875.59997558594</ele>
        <time>2019-04-20T08:48:43.000Z</time>
      </trkpt>
      <trkpt lat="43.98075" lon="7.3286">
        <ele>875.79998779297</ele>
        <time>2019-04-20T08:48:44.000Z</time>
      </trkpt>
      <trkpt lat="43.98076" lon="7.32856">
        <ele>875.79998779297</ele>
        <time>2019-04-20T08:48:46.000Z</time>
      </trkpt>
      <trkpt lat="43.98077" lon="7.32848">
        <ele>876.59997558594</ele>
        <time>2019-04-20T08:48:50.000Z</time>
      </trkpt>
      <trkpt lat="43.98077" lon="7.32846">
        <ele>877</ele>
        <time>2019-04-20T08:48:51.000Z</time>
      </trkpt>
      <trkpt lat="43.98073" lon="7.32838">
        <ele>877.79998779297</ele>
        <time>2019-04-20T08:48:56.000Z</time>
      </trkpt>
      <trkpt lat="43.98071" lon="7.32836">
        <ele>878</ele>
        <time>2019-04-20T08:48:57.000Z</time>
      </trkpt>
      <trkpt lat="43.98067" lon="7.32833">
        <ele>878.40002441406</ele>
        <time>2019-04-20T08:48:59.000Z</time>
      </trkpt>
      <trkpt lat="43.98066" lon="7.32833">
        <ele>878.79998779297</ele>
        <time>2019-04-20T08:49:01.000Z</time>
      </trkpt>
      <trkpt lat="43.98065" lon="7.32833">
        <ele>879</ele>
        <time>2019-04-20T08:49:02.000Z</time>
      </trkpt>
      <trkpt lat="43.98063" lon="7.32833">
        <ele>880</ele>
        <time>2019-04-20T08:49:06.000Z</time>
      </trkpt>
      <trkpt lat="43.98063" lon="7.32834">
        <ele>880</ele>
        <time>2019-04-20T08:49:07.000Z</time>
      </trkpt>
      <trkpt lat="43.98063" lon="7.32833">
        <ele>880.20001220703</ele>
        <time>2019-04-20T08:49:08.000Z</time>
      </trkpt>
      <trkpt lat="43.98059" lon="7.32838">
        <ele>881</ele>
        <time>2019-04-20T08:49:13.000Z</time>
      </trkpt>
      <trkpt lat="43.98053" lon="7.32845">
        <ele>882.20001220703</ele>
        <time>2019-04-20T08:49:20.000Z</time>
      </trkpt>
      <trkpt lat="43.98049" lon="7.3285">
        <ele>883.20001220703</ele>
        <time>2019-04-20T08:49:25.000Z</time>
      </trkpt>
      <trkpt lat="43.98047" lon="7.32853">
        <ele>883.59997558594</ele>
        <time>2019-04-20T08:49:27.000Z</time>
      </trkpt>
      <trkpt lat="43.98045" lon="7.32854">
        <ele>884.20001220703</ele>
        <time>2019-04-20T08:49:31.000Z</time>
      </trkpt>
      <trkpt lat="43.98043" lon="7.32857">
        <ele>884.59997558594</ele>
        <time>2019-04-20T08:49:33.000Z</time>
      </trkpt>
      <trkpt lat="43.9804" lon="7.32859">
        <ele>885.40002441406</ele>
        <time>2019-04-20T08:49:37.000Z</time>
      </trkpt>
      <trkpt lat="43.9804" lon="7.32858">
        <ele>885.79998779297</ele>
        <time>2019-04-20T08:49:39.000Z</time>
      </trkpt>
      <trkpt lat="43.98039" lon="7.32858">
        <ele>886.20001220703</ele>
        <time>2019-04-20T08:49:46.000Z</time>
      </trkpt>
      <trkpt lat="43.98037" lon="7.32856">
        <ele>886.40002441406</ele>
        <time>2019-04-20T08:49:50.000Z</time>
      </trkpt>
      <trkpt lat="43.98037" lon="7.32855">
        <ele>886.79998779297</ele>
        <time>2019-04-20T08:49:52.000Z</time>
      </trkpt>
      <trkpt lat="43.98036" lon="7.32851">
        <ele>887.20001220703</ele>
        <time>2019-04-20T08:49:54.000Z</time>
      </trkpt>
      <trkpt lat="43.98036" lon="7.32849">
        <ele>887.59997558594</ele>
        <time>2019-04-20T08:49:56.000Z</time>
      </trkpt>
      <trkpt lat="43.98035" lon="7.32843">
        <ele>888.20001220703</ele>
        <time>2019-04-20T08:50:01.000Z</time>
      </trkpt>
      <trkpt lat="43.98035" lon="7.32844">
        <ele>888.40002441406</ele>
        <time>2019-04-20T08:50:02.000Z</time>
      </trkpt>
      <trkpt lat="43.98034" lon="7.32842">
        <ele>888.59997558594</ele>
        <time>2019-04-20T08:50:03.000Z</time>
      </trkpt>
      <trkpt lat="43.98031" lon="7.32841">
        <ele>889.79998779297</ele>
        <time>2019-04-20T08:50:09.000Z</time>
      </trkpt>
      <trkpt lat="43.9803" lon="7.32843">
        <ele>890.40002441406</ele>
        <time>2019-04-20T08:50:14.000Z</time>
      </trkpt>
      <trkpt lat="43.98029" lon="7.32846">
        <ele>890.40002441406</ele>
        <time>2019-04-20T08:50:15.000Z</time>
      </trkpt>
      <trkpt lat="43.98028" lon="7.32849">
        <ele>890.79998779297</ele>
        <time>2019-04-20T08:50:17.000Z</time>
      </trkpt>
      <trkpt lat="43.98026" lon="7.32854">
        <ele>891.40002441406</ele>
        <time>2019-04-20T08:50:20.000Z</time>
      </trkpt>
      <trkpt lat="43.98023" lon="7.32862">
        <ele>891.79998779297</ele>
        <time>2019-04-20T08:50:25.000Z</time>
      </trkpt>
      <trkpt lat="43.98022" lon="7.32865">
        <ele>892</ele>
        <time>2019-04-20T08:50:26.000Z</time>
      </trkpt>
      <trkpt lat="43.98018" lon="7.32876">
        <ele>893</ele>
        <time>2019-04-20T08:50:32.000Z</time>
      </trkpt>
      <trkpt lat="43.98015" lon="7.32889">
        <ele>894</ele>
        <time>2019-04-20T08:50:38.000Z</time>
      </trkpt>
      <trkpt lat="43.98014" lon="7.3289">
        <ele>894.20001220703</ele>
        <time>2019-04-20T08:50:39.000Z</time>
      </trkpt>
      <trkpt lat="43.9801" lon="7.32901">
        <ele>895.20001220703</ele>
        <time>2019-04-20T08:50:45.000Z</time>
      </trkpt>
      <trkpt lat="43.98009" lon="7.32902">
        <ele>895.40002441406</ele>
        <time>2019-04-20T08:50:46.000Z</time>
      </trkpt>
      <trkpt lat="43.98008" lon="7.32907">
        <ele>896.20001220703</ele>
        <time>2019-04-20T08:50:49.000Z</time>
      </trkpt>
      <trkpt lat="43.98006" lon="7.32913">
        <ele>897.20001220703</ele>
        <time>2019-04-20T08:50:54.000Z</time>
      </trkpt>
      <trkpt lat="43.98006" lon="7.32915">
        <ele>897.20001220703</ele>
        <time>2019-04-20T08:50:55.000Z</time>
      </trkpt>
      <trkpt lat="43.98004" lon="7.32919">
        <ele>897.79998779297</ele>
        <time>2019-04-20T08:51:00.000Z</time>
      </trkpt>
      <trkpt lat="43.98003" lon="7.32917">
        <ele>898.20001220703</ele>
        <time>2019-04-20T08:51:05.000Z</time>
      </trkpt>
      <trkpt lat="43.98003" lon="7.32916">
        <ele>898.20001220703</ele>
        <time>2019-04-20T08:51:06.000Z</time>
      </trkpt>
      <trkpt lat="43.98003" lon="7.32914">
        <ele>899.20001220703</ele>
        <time>2019-04-20T08:51:11.000Z</time>
      </trkpt>
      <trkpt lat="43.98003" lon="7.32914">
        <ele>899.40002441406</ele>
        <time>2019-04-20T08:51:12.000Z</time>
      </trkpt>
      <trkpt lat="43.98004" lon="7.32911">
        <ele>899.40002441406</ele>
        <time>2019-04-20T08:51:15.000Z</time>
      </trkpt>
      <trkpt lat="43.98005" lon="7.32909">
        <ele>899.40002441406</ele>
        <time>2019-04-20T08:51:17.000Z</time>
      </trkpt>
      <trkpt lat="43.98005" lon="7.32906">
        <ele>899.59997558594</ele>
        <time>2019-04-20T08:51:19.000Z</time>
      </trkpt>
      <trkpt lat="43.98006" lon="7.32902">
        <ele>900</ele>
        <time>2019-04-20T08:51:22.000Z</time>
      </trkpt>
      <trkpt lat="43.98007" lon="7.32897">
        <ele>900.40002441406</ele>
        <time>2019-04-20T08:51:25.000Z</time>
      </trkpt>
      <trkpt lat="43.98008" lon="7.32894">
        <ele>900.40002441406</ele>
        <time>2019-04-20T08:51:27.000Z</time>
      </trkpt>
      <trkpt lat="43.98006" lon="7.32886">
        <ele>900.79998779297</ele>
        <time>2019-04-20T08:51:32.000Z</time>
      </trkpt>
      <trkpt lat="43.98005" lon="7.32877">
        <ele>901.20001220703</ele>
        <time>2019-04-20T08:51:34.000Z</time>
      </trkpt>
      <trkpt lat="43.98005" lon="7.32875">
        <ele>901.40002441406</ele>
        <time>2019-04-20T08:51:35.000Z</time>
      </trkpt>
      <trkpt lat="43.98005" lon="7.32873">
        <ele>901.40002441406</ele>
        <time>2019-04-20T08:51:36.000Z</time>
      </trkpt>
      <trkpt lat="43.98006" lon="7.32871">
        <ele>901.59997558594</ele>
        <time>2019-04-20T08:51:37.000Z</time>
      </trkpt>
      <trkpt lat="43.98005" lon="7.32866">
        <ele>901.79998779297</ele>
        <time>2019-04-20T08:51:40.000Z</time>
      </trkpt>
      <trkpt lat="43.98004" lon="7.32863">
        <ele>901.79998779297</ele>
        <time>2019-04-20T08:51:41.000Z</time>
      </trkpt>
      <trkpt lat="43.98002" lon="7.32861">
        <ele>901.79998779297</ele>
        <time>2019-04-20T08:51:43.000Z</time>
      </trkpt>
      <trkpt lat="43.98001" lon="7.32859">
        <ele>902</ele>
        <time>2019-04-20T08:51:45.000Z</time>
      </trkpt>
      <trkpt lat="43.98001" lon="7.32859">
        <ele>902.40002441406</ele>
        <time>2019-04-20T08:51:48.000Z</time>
      </trkpt>
      <trkpt lat="43.98" lon="7.32859">
        <ele>902.79998779297</ele>
        <time>2019-04-20T08:51:50.000Z</time>
      </trkpt>
      <trkpt lat="43.97999" lon="7.3286">
        <ele>903.40002441406</ele>
        <time>2019-04-20T08:51:57.000Z</time>
      </trkpt>
      <trkpt lat="43.97998" lon="7.32862">
        <ele>903.40002441406</ele>
        <time>2019-04-20T08:51:58.000Z</time>
      </trkpt>
      <trkpt lat="43.97997" lon="7.32866">
        <ele>903.79998779297</ele>
        <time>2019-04-20T08:52:02.000Z</time>
      </trkpt>
      <trkpt lat="43.97995" lon="7.32872">
        <ele>904.59997558594</ele>
        <time>2019-04-20T08:52:06.000Z</time>
      </trkpt>
      <trkpt lat="43.97994" lon="7.32875">
        <ele>904.79998779297</ele>
        <time>2019-04-20T08:52:08.000Z</time>
      </trkpt>
      <trkpt lat="43.97992" lon="7.3288">
        <ele>905.59997558594</ele>
        <time>2019-04-20T08:52:12.000Z</time>
      </trkpt>
      <trkpt lat="43.9799" lon="7.32885">
        <ele>906.40002441406</ele>
        <time>2019-04-20T08:52:15.000Z</time>
      </trkpt>
      <trkpt lat="43.97989" lon="7.32888">
        <ele>906.79998779297</ele>
        <time>2019-04-20T08:52:17.000Z</time>
      </trkpt>
      <trkpt lat="43.97988" lon="7.32891">
        <ele>907.20001220703</ele>
        <time>2019-04-20T08:52:19.000Z</time>
      </trkpt>
      <trkpt lat="43.97988" lon="7.32892">
        <ele>907.59997558594</ele>
        <time>2019-04-20T08:52:21.000Z</time>
      </trkpt>
      <trkpt lat="43.97987" lon="7.32894">
        <ele>907.79998779297</ele>
        <time>2019-04-20T08:52:22.000Z</time>
      </trkpt>
      <trkpt lat="43.97986" lon="7.32897">
        <ele>908.79998779297</ele>
        <time>2019-04-20T08:52:27.000Z</time>
      </trkpt>
      <trkpt lat="43.97986" lon="7.32899">
        <ele>908.79998779297</ele>
        <time>2019-04-20T08:52:28.000Z</time>
      </trkpt>
      <trkpt lat="43.97985" lon="7.32897">
        <ele>909</ele>
        <time>2019-04-20T08:52:32.000Z</time>
      </trkpt>
      <trkpt lat="43.97985" lon="7.32895">
        <ele>909.20001220703</ele>
        <time>2019-04-20T08:52:33.000Z</time>
      </trkpt>
      <trkpt lat="43.97984" lon="7.32893">
        <ele>909.59997558594</ele>
        <time>2019-04-20T08:52:36.000Z</time>
      </trkpt>
      <trkpt lat="43.97984" lon="7.32893">
        <ele>910</ele>
        <time>2019-04-20T08:52:37.000Z</time>
      </trkpt>
      <trkpt lat="43.97985" lon="7.3289">
        <ele>910.59997558594</ele>
        <time>2019-04-20T08:52:41.000Z</time>
      </trkpt>
      <trkpt lat="43.97986" lon="7.3288">
        <ele>911</ele>
        <time>2019-04-20T08:52:46.000Z</time>
      </trkpt>
      <trkpt lat="43.97986" lon="7.32872">
        <ele>912</ele>
        <time>2019-04-20T08:52:51.000Z</time>
      </trkpt>
      <trkpt lat="43.97986" lon="7.32874">
        <ele>912.20001220703</ele>
        <time>2019-04-20T08:52:52.000Z</time>
      </trkpt>
      <trkpt lat="43.97984" lon="7.32863">
        <ele>913</ele>
        <time>2019-04-20T08:52:58.000Z</time>
      </trkpt>
      <trkpt lat="43.97983" lon="7.32861">
        <ele>913.20001220703</ele>
        <time>2019-04-20T08:53:03.000Z</time>
      </trkpt>
      <trkpt lat="43.97982" lon="7.32862">
        <ele>913.59997558594</ele>
        <time>2019-04-20T08:53:05.000Z</time>
      </trkpt>
      <trkpt lat="43.97981" lon="7.32862">
        <ele>914.40002441406</ele>
        <time>2019-04-20T08:53:10.000Z</time>
      </trkpt>
      <trkpt lat="43.97981" lon="7.32862">
        <ele>914.59997558594</ele>
        <time>2019-04-20T08:53:11.000Z</time>
      </trkpt>
      <trkpt lat="43.9798" lon="7.32865">
        <ele>914.79998779297</ele>
        <time>2019-04-20T08:53:15.000Z</time>
      </trkpt>
      <trkpt lat="43.9798" lon="7.32868">
        <ele>914.79998779297</ele>
        <time>2019-04-20T08:53:17.000Z</time>
      </trkpt>
      <trkpt lat="43.97977" lon="7.32873">
        <ele>915.40002441406</ele>
        <time>2019-04-20T08:53:21.000Z</time>
      </trkpt>
      <trkpt lat="43.97977" lon="7.32875">
        <ele>916</ele>
        <time>2019-04-20T08:53:24.000Z</time>
      </trkpt>
      <trkpt lat="43.97976" lon="7.32878">
        <ele>916.40002441406</ele>
        <time>2019-04-20T08:53:26.000Z</time>
      </trkpt>
      <trkpt lat="43.97973" lon="7.32884">
        <ele>917.20001220703</ele>
        <time>2019-04-20T08:53:31.000Z</time>
      </trkpt>
      <trkpt lat="43.97972" lon="7.32888">
        <ele>917.59997558594</ele>
        <time>2019-04-20T08:53:33.000Z</time>
      </trkpt>
      <trkpt lat="43.9797" lon="7.32892">
        <ele>918.40002441406</ele>
        <time>2019-04-20T08:53:37.000Z</time>
      </trkpt>
      <trkpt lat="43.9797" lon="7.32893">
        <ele>918.79998779297</ele>
        <time>2019-04-20T08:53:38.000Z</time>
      </trkpt>
      <trkpt lat="43.97967" lon="7.32899">
        <ele>919.79998779297</ele>
        <time>2019-04-20T08:53:42.000Z</time>
      </trkpt>
      <trkpt lat="43.97966" lon="7.32905">
        <ele>920.79998779297</ele>
        <time>2019-04-20T08:53:46.000Z</time>
      </trkpt>
      <trkpt lat="43.97965" lon="7.32908">
        <ele>921.20001220703</ele>
        <time>2019-04-20T08:53:48.000Z</time>
      </trkpt>
      <trkpt lat="43.97965" lon="7.32909">
        <ele>921.40002441406</ele>
        <time>2019-04-20T08:53:49.000Z</time>
      </trkpt>
      <trkpt lat="43.97963" lon="7.32913">
        <ele>922</ele>
        <time>2019-04-20T08:53:52.000Z</time>
      </trkpt>
      <trkpt lat="43.97963" lon="7.32915">
        <ele>922.20001220703</ele>
        <time>2019-04-20T08:53:53.000Z</time>
      </trkpt>
      <trkpt lat="43.97962" lon="7.32918">
        <ele>923.20001220703</ele>
        <time>2019-04-20T08:53:57.000Z</time>
      </trkpt>
      <trkpt lat="43.97961" lon="7.32922">
        <ele>923.40002441406</ele>
        <time>2019-04-20T08:54:00.000Z</time>
      </trkpt>
      <trkpt lat="43.9796" lon="7.32928">
        <ele>924.20001220703</ele>
        <time>2019-04-20T08:54:04.000Z</time>
      </trkpt>
      <trkpt lat="43.9796" lon="7.32928">
        <ele>924.20001220703</ele>
        <time>2019-04-20T08:54:06.000Z</time>
      </trkpt>
      <trkpt lat="43.97959" lon="7.32925">
        <ele>924.59997558594</ele>
        <time>2019-04-20T08:54:11.000Z</time>
      </trkpt>
      <trkpt lat="43.97958" lon="7.32925">
        <ele>925.20001220703</ele>
        <time>2019-04-20T08:54:13.000Z</time>
      </trkpt>
      <trkpt lat="43.97958" lon="7.32924">
        <ele>926</ele>
        <time>2019-04-20T08:54:16.000Z</time>
      </trkpt>
      <trkpt lat="43.97958" lon="7.32922">
        <ele>926</ele>
        <time>2019-04-20T08:54:19.000Z</time>
      </trkpt>
      <trkpt lat="43.97958" lon="7.32921">
        <ele>926</ele>
        <time>2019-04-20T08:54:22.000Z</time>
      </trkpt>
      <trkpt lat="43.97957" lon="7.32918">
        <ele>926.20001220703</ele>
        <time>2019-04-20T08:54:23.000Z</time>
      </trkpt>
      <trkpt lat="43.97957" lon="7.32917">
        <ele>926.40002441406</ele>
        <time>2019-04-20T08:54:25.000Z</time>
      </trkpt>
      <trkpt lat="43.97957" lon="7.32915">
        <ele>926.79998779297</ele>
        <time>2019-04-20T08:54:27.000Z</time>
      </trkpt>
      <trkpt lat="43.97957" lon="7.3291">
        <ele>927.40002441406</ele>
        <time>2019-04-20T08:54:30.000Z</time>
      </trkpt>
      <trkpt lat="43.97957" lon="7.32906">
        <ele>927.79998779297</ele>
        <time>2019-04-20T08:54:33.000Z</time>
      </trkpt>
      <trkpt lat="43.97955" lon="7.329">
        <ele>928.59997558594</ele>
        <time>2019-04-20T08:54:38.000Z</time>
      </trkpt>
      <trkpt lat="43.97955" lon="7.32898">
        <ele>928.59997558594</ele>
        <time>2019-04-20T08:54:39.000Z</time>
      </trkpt>
      <trkpt lat="43.97955" lon="7.32893">
        <ele>929.20001220703</ele>
        <time>2019-04-20T08:54:42.000Z</time>
      </trkpt>
      <trkpt lat="43.97955" lon="7.3289">
        <ele>929.40002441406</ele>
        <time>2019-04-20T08:54:45.000Z</time>
      </trkpt>
      <trkpt lat="43.97954" lon="7.32886">
        <ele>929.59997558594</ele>
        <time>2019-04-20T08:54:47.000Z</time>
      </trkpt>
      <trkpt lat="43.97954" lon="7.32883">
        <ele>929.79998779297</ele>
        <time>2019-04-20T08:54:49.000Z</time>
      </trkpt>
      <trkpt lat="43.97953" lon="7.32881">
        <ele>930</ele>
        <time>2019-04-20T08:54:51.000Z</time>
      </trkpt>
      <trkpt lat="43.97951" lon="7.32879">
        <ele>930.20001220703</ele>
        <time>2019-04-20T08:54:52.000Z</time>
      </trkpt>
      <trkpt lat="43.97949" lon="7.32876">
        <ele>930.59997558594</ele>
        <time>2019-04-20T08:54:55.000Z</time>
      </trkpt>
      <trkpt lat="43.97949" lon="7.32876">
        <ele>930.79998779297</ele>
        <time>2019-04-20T08:54:57.000Z</time>
      </trkpt>
      <trkpt lat="43.97949" lon="7.32877">
        <ele>931.59997558594</ele>
        <time>2019-04-20T08:55:05.000Z</time>
      </trkpt>
      <trkpt lat="43.97949" lon="7.32877">
        <ele>931.79998779297</ele>
        <time>2019-04-20T08:55:06.000Z</time>
      </trkpt>
      <trkpt lat="43.97948" lon="7.3288">
        <ele>932.79998779297</ele>
        <time>2019-04-20T08:55:12.000Z</time>
      </trkpt>
      <trkpt lat="43.97947" lon="7.32884">
        <ele>933.59997558594</ele>
        <time>2019-04-20T08:55:19.000Z</time>
      </trkpt>
      <trkpt lat="43.97946" lon="7.32884">
        <ele>933.79998779297</ele>
        <time>2019-04-20T08:55:21.000Z</time>
      </trkpt>
      <trkpt lat="43.97945" lon="7.32883">
        <ele>934</ele>
        <time>2019-04-20T08:55:22.000Z</time>
      </trkpt>
      <trkpt lat="43.97944" lon="7.32882">
        <ele>934</ele>
        <time>2019-04-20T08:55:23.000Z</time>
      </trkpt>
      <trkpt lat="43.97943" lon="7.32877">
        <ele>934.59997558594</ele>
        <time>2019-04-20T08:55:28.000Z</time>
      </trkpt>
      <trkpt lat="43.97942" lon="7.32875">
        <ele>935</ele>
        <time>2019-04-20T08:55:30.000Z</time>
      </trkpt>
      <trkpt lat="43.9794" lon="7.32873">
        <ele>935.79998779297</ele>
        <time>2019-04-20T08:55:35.000Z</time>
      </trkpt>
      <trkpt lat="43.9794" lon="7.32873">
        <ele>936.20001220703</ele>
        <time>2019-04-20T08:55:37.000Z</time>
      </trkpt>
      <trkpt lat="43.9794" lon="7.32874">
        <ele>936.40002441406</ele>
        <time>2019-04-20T08:55:40.000Z</time>
      </trkpt>
      <trkpt lat="43.9794" lon="7.32874">
        <ele>936.59997558594</ele>
        <time>2019-04-20T08:55:41.000Z</time>
      </trkpt>
      <trkpt lat="43.9794" lon="7.32874">
        <ele>936.59997558594</ele>
        <time>2019-04-20T08:55:43.000Z</time>
      </trkpt>
      <trkpt lat="43.97938" lon="7.32873">
        <ele>937</ele>
        <time>2019-04-20T08:55:50.000Z</time>
      </trkpt>
      <trkpt lat="43.97937" lon="7.32873">
        <ele>937.40002441406</ele>
        <time>2019-04-20T08:55:52.000Z</time>
      </trkpt>
      <trkpt lat="43.97935" lon="7.32873">
        <ele>938.20001220703</ele>
        <time>2019-04-20T08:55:56.000Z</time>
      </trkpt>
      <trkpt lat="43.97935" lon="7.32873">
        <ele>938.40002441406</ele>
        <time>2019-04-20T08:55:57.000Z</time>
      </trkpt>
      <trkpt lat="43.97932" lon="7.32875">
        <ele>939.59997558594</ele>
        <time>2019-04-20T08:56:03.000Z</time>
      </trkpt>
      <trkpt lat="43.97931" lon="7.3288">
        <ele>940.79998779297</ele>
        <time>2019-04-20T08:56:10.000Z</time>
      </trkpt>
      <trkpt lat="43.97929" lon="7.32882">
        <ele>941.59997558594</ele>
        <time>2019-04-20T08:56:15.000Z</time>
      </trkpt>
      <trkpt lat="43.97929" lon="7.32882">
        <ele>941.79998779297</ele>
        <time>2019-04-20T08:56:16.000Z</time>
      </trkpt>
      <trkpt lat="43.97928" lon="7.32884">
        <ele>942.79998779297</ele>
        <time>2019-04-20T08:56:21.000Z</time>
      </trkpt>
      <trkpt lat="43.97929" lon="7.32884">
        <ele>943.20001220703</ele>
        <time>2019-04-20T08:56:23.000Z</time>
      </trkpt>
      <trkpt lat="43.97928" lon="7.32885">
        <ele>944</ele>
        <time>2019-04-20T08:56:27.000Z</time>
      </trkpt>
      <trkpt lat="43.97927" lon="7.32885">
        <ele>944.59997558594</ele>
        <time>2019-04-20T08:56:30.000Z</time>
      </trkpt>
      <trkpt lat="43.97926" lon="7.32883">
        <ele>945</ele>
        <time>2019-04-20T08:56:32.000Z</time>
      </trkpt>
      <trkpt lat="43.97925" lon="7.32884">
        <ele>945.79998779297</ele>
        <time>2019-04-20T08:56:35.000Z</time>
      </trkpt>
      <trkpt lat="43.97925" lon="7.32885">
        <ele>946.20001220703</ele>
        <time>2019-04-20T08:56:36.000Z</time>
      </trkpt>
      <trkpt lat="43.97925" lon="7.32888">
        <ele>947</ele>
        <time>2019-04-20T08:56:41.000Z</time>
      </trkpt>
      <trkpt lat="43.97925" lon="7.3289">
        <ele>947.20001220703</ele>
        <time>2019-04-20T08:56:44.000Z</time>
      </trkpt>
      <trkpt lat="43.97924" lon="7.32892">
        <ele>947.79998779297</ele>
        <time>2019-04-20T08:56:48.000Z</time>
      </trkpt>
      <trkpt lat="43.97924" lon="7.32892">
        <ele>948.20001220703</ele>
        <time>2019-04-20T08:56:50.000Z</time>
      </trkpt>
      <trkpt lat="43.97924" lon="7.32894">
        <ele>949.20001220703</ele>
        <time>2019-04-20T08:56:55.000Z</time>
      </trkpt>
      <trkpt lat="43.97924" lon="7.32894">
        <ele>949.40002441406</ele>
        <time>2019-04-20T08:56:56.000Z</time>
      </trkpt>
      <trkpt lat="43.97923" lon="7.32896">
        <ele>950.59997558594</ele>
        <time>2019-04-20T08:57:02.000Z</time>
      </trkpt>
      <trkpt lat="43.9792" lon="7.3289">
        <ele>951.79998779297</ele>
        <time>2019-04-20T08:57:09.000Z</time>
      </trkpt>
      <trkpt lat="43.97919" lon="7.3289">
        <ele>952</ele>
        <time>2019-04-20T08:57:10.000Z</time>
      </trkpt>
      <trkpt lat="43.97916" lon="7.32886">
        <ele>953</ele>
        <time>2019-04-20T08:57:16.000Z</time>
      </trkpt>
      <trkpt lat="43.97915" lon="7.32886">
        <ele>953.40002441406</ele>
        <time>2019-04-20T08:57:19.000Z</time>
      </trkpt>
      <trkpt lat="43.97914" lon="7.32888">
        <ele>954</ele>
        <time>2019-04-20T08:57:22.000Z</time>
      </trkpt>
      <trkpt lat="43.97914" lon="7.3289">
        <ele>954.20001220703</ele>
        <time>2019-04-20T08:57:24.000Z</time>
      </trkpt>
      <trkpt lat="43.97914" lon="7.3289">
        <ele>954.40002441406</ele>
        <time>2019-04-20T08:57:25.000Z</time>
      </trkpt>
      <trkpt lat="43.97912" lon="7.3289">
        <ele>955.20001220703</ele>
        <time>2019-04-20T08:57:29.000Z</time>
      </trkpt>
      <trkpt lat="43.97911" lon="7.3289">
        <ele>955.40002441406</ele>
        <time>2019-04-20T08:57:30.000Z</time>
      </trkpt>
      <trkpt lat="43.97911" lon="7.3289">
        <ele>955.59997558594</ele>
        <time>2019-04-20T08:57:31.000Z</time>
      </trkpt>
      <trkpt lat="43.97909" lon="7.32892">
        <ele>956.59997558594</ele>
        <time>2019-04-20T08:57:34.000Z</time>
      </trkpt>
      <trkpt lat="43.97908" lon="7.32892">
        <ele>957.40002441406</ele>
        <time>2019-04-20T08:57:37.000Z</time>
      </trkpt>
      <trkpt lat="43.97907" lon="7.32893">
        <ele>957.79998779297</ele>
        <time>2019-04-20T08:57:39.000Z</time>
      </trkpt>
      <trkpt lat="43.97907" lon="7.32894">
        <ele>958.40002441406</ele>
        <time>2019-04-20T08:57:42.000Z</time>
      </trkpt>
      <trkpt lat="43.97908" lon="7.32895">
        <ele>958.79998779297</ele>
        <time>2019-04-20T08:57:44.000Z</time>
      </trkpt>
      <trkpt lat="43.97909" lon="7.329">
        <ele>959.20001220703</ele>
        <time>2019-04-20T08:57:49.000Z</time>
      </trkpt>
      <trkpt lat="43.97909" lon="7.329">
        <ele>959.40002441406</ele>
        <time>2019-04-20T08:57:50.000Z</time>
      </trkpt>
      <trkpt lat="43.97908" lon="7.32902">
        <ele>960</ele>
        <time>2019-04-20T08:57:54.000Z</time>
      </trkpt>
      <trkpt lat="43.97908" lon="7.329">
        <ele>960.20001220703</ele>
        <time>2019-04-20T08:57:56.000Z</time>
      </trkpt>
      <trkpt lat="43.97905" lon="7.32897">
        <ele>961</ele>
        <time>2019-04-20T08:58:01.000Z</time>
      </trkpt>
      <trkpt lat="43.97904" lon="7.32897">
        <ele>961.20001220703</ele>
        <time>2019-04-20T08:58:02.000Z</time>
      </trkpt>
      <trkpt lat="43.97903" lon="7.32899">
        <ele>962.20001220703</ele>
        <time>2019-04-20T08:58:08.000Z</time>
      </trkpt>
      <trkpt lat="43.97905" lon="7.32903">
        <ele>963</ele>
        <time>2019-04-20T08:58:14.000Z</time>
      </trkpt>
      <trkpt lat="43.97905" lon="7.32903">
        <ele>963.20001220703</ele>
        <time>2019-04-20T08:58:15.000Z</time>
      </trkpt>
      <trkpt lat="43.97905" lon="7.32906">
        <ele>964</ele>
        <time>2019-04-20T08:58:19.000Z</time>
      </trkpt>
      <trkpt lat="43.97905" lon="7.32908">
        <ele>964.40002441406</ele>
        <time>2019-04-20T08:58:22.000Z</time>
      </trkpt>
      <trkpt lat="43.97905" lon="7.3291">
        <ele>965</ele>
        <time>2019-04-20T08:58:26.000Z</time>
      </trkpt>
      <trkpt lat="43.97904" lon="7.32909">
        <ele>965.40002441406</ele>
        <time>2019-04-20T08:58:29.000Z</time>
      </trkpt>
      <trkpt lat="43.97902" lon="7.32907">
        <ele>966</ele>
        <time>2019-04-20T08:58:33.000Z</time>
      </trkpt>
      <trkpt lat="43.97901" lon="7.32906">
        <ele>966.20001220703</ele>
        <time>2019-04-20T08:58:34.000Z</time>
      </trkpt>
      <trkpt lat="43.97901" lon="7.32904">
        <ele>966.59997558594</ele>
        <time>2019-04-20T08:58:36.000Z</time>
      </trkpt>
      <trkpt lat="43.97901" lon="7.32903">
        <ele>966.79998779297</ele>
        <time>2019-04-20T08:58:37.000Z</time>
      </trkpt>
      <trkpt lat="43.97899" lon="7.32903">
        <ele>967.79998779297</ele>
        <time>2019-04-20T08:58:43.000Z</time>
      </trkpt>
      <trkpt lat="43.97899" lon="7.32905">
        <ele>968.20001220703</ele>
        <time>2019-04-20T08:58:45.000Z</time>
      </trkpt>
      <trkpt lat="43.97899" lon="7.32906">
        <ele>968.59997558594</ele>
        <time>2019-04-20T08:58:48.000Z</time>
      </trkpt>
      <trkpt lat="43.97898" lon="7.32908">
        <ele>968.79998779297</ele>
        <time>2019-04-20T08:58:49.000Z</time>
      </trkpt>
      <trkpt lat="43.97897" lon="7.32907">
        <ele>969.20001220703</ele>
        <time>2019-04-20T08:58:51.000Z</time>
      </trkpt>
      <trkpt lat="43.97896" lon="7.32907">
        <ele>969.59997558594</ele>
        <time>2019-04-20T08:58:53.000Z</time>
      </trkpt>
      <trkpt lat="43.97896" lon="7.32907">
        <ele>969.59997558594</ele>
        <time>2019-04-20T08:58:54.000Z</time>
      </trkpt>
      <trkpt lat="43.97894" lon="7.32907">
        <ele>970</ele>
        <time>2019-04-20T08:58:56.000Z</time>
      </trkpt>
      <trkpt lat="43.97894" lon="7.32907">
        <ele>970.20001220703</ele>
        <time>2019-04-20T08:58:57.000Z</time>
      </trkpt>
      <trkpt lat="43.97893" lon="7.32907">
        <ele>971</ele>
        <time>2019-04-20T08:59:00.000Z</time>
      </trkpt>
      <trkpt lat="43.97892" lon="7.32907">
        <ele>971.59997558594</ele>
        <time>2019-04-20T08:59:02.000Z</time>
      </trkpt>
      <trkpt lat="43.97891" lon="7.32905">
        <ele>972</ele>
        <time>2019-04-20T08:59:06.000Z</time>
      </trkpt>
      <trkpt lat="43.9789" lon="7.32905">
        <ele>972.40002441406</ele>
        <time>2019-04-20T08:59:09.000Z</time>
      </trkpt>
      <trkpt lat="43.97888" lon="7.32907">
        <ele>973.20001220703</ele>
        <time>2019-04-20T08:59:13.000Z</time>
      </trkpt>
      <trkpt lat="43.97888" lon="7.32907">
        <ele>973.40002441406</ele>
        <time>2019-04-20T08:59:14.000Z</time>
      </trkpt>
      <trkpt lat="43.97885" lon="7.32908">
        <ele>974.20001220703</ele>
        <time>2019-04-20T08:59:19.000Z</time>
      </trkpt>
      <trkpt lat="43.97885" lon="7.32908">
        <ele>974.40002441406</ele>
        <time>2019-04-20T08:59:20.000Z</time>
      </trkpt>
      <trkpt lat="43.97881" lon="7.32906">
        <ele>975.20001220703</ele>
        <time>2019-04-20T08:59:25.000Z</time>
      </trkpt>
      <trkpt lat="43.97881" lon="7.32905">
        <ele>975.40002441406</ele>
        <time>2019-04-20T08:59:26.000Z</time>
      </trkpt>
      <trkpt lat="43.97876" lon="7.32903">
        <ele>976.20001220703</ele>
        <time>2019-04-20T08:59:34.000Z</time>
      </trkpt>
      <trkpt lat="43.97871" lon="7.32902">
        <ele>976.79998779297</ele>
        <time>2019-04-20T08:59:40.000Z</time>
      </trkpt>
      <trkpt lat="43.97869" lon="7.329">
        <ele>977.20001220703</ele>
        <time>2019-04-20T08:59:42.000Z</time>
      </trkpt>
      <trkpt lat="43.97868" lon="7.32899">
        <ele>977.40002441406</ele>
        <time>2019-04-20T08:59:44.000Z</time>
      </trkpt>
      <trkpt lat="43.97866" lon="7.32897">
        <ele>977.40002441406</ele>
        <time>2019-04-20T08:59:45.000Z</time>
      </trkpt>
      <trkpt lat="43.97862" lon="7.32896">
        <ele>978.20001220703</ele>
        <time>2019-04-20T08:59:50.000Z</time>
      </trkpt>
      <trkpt lat="43.97861" lon="7.32896">
        <ele>978.40002441406</ele>
        <time>2019-04-20T08:59:51.000Z</time>
      </trkpt>
      <trkpt lat="43.97858" lon="7.32898">
        <ele>979.20001220703</ele>
        <time>2019-04-20T08:59:56.000Z</time>
      </trkpt>
      <trkpt lat="43.97855" lon="7.32896">
        <ele>980.20001220703</ele>
        <time>2019-04-20T09:00:02.000Z</time>
      </trkpt>
      <trkpt lat="43.97854" lon="7.32897">
        <ele>980.79998779297</ele>
        <time>2019-04-20T09:00:05.000Z</time>
      </trkpt>
      <trkpt lat="43.97855" lon="7.32899">
        <ele>981.20001220703</ele>
        <time>2019-04-20T09:00:08.000Z</time>
      </trkpt>
      <trkpt lat="43.97855" lon="7.329">
        <ele>981.79998779297</ele>
        <time>2019-04-20T09:00:11.000Z</time>
      </trkpt>
      <trkpt lat="43.97856" lon="7.32901">
        <ele>982</ele>
        <time>2019-04-20T09:00:13.000Z</time>
      </trkpt>
      <trkpt lat="43.97858" lon="7.329">
        <ele>982.79998779297</ele>
        <time>2019-04-20T09:00:18.000Z</time>
      </trkpt>
      <trkpt lat="43.97861" lon="7.32902">
        <ele>983.40002441406</ele>
        <time>2019-04-20T09:00:21.000Z</time>
      </trkpt>
      <trkpt lat="43.97863" lon="7.32905">
        <ele>983.59997558594</ele>
        <time>2019-04-20T09:00:23.000Z</time>
      </trkpt>
      <trkpt lat="43.97863" lon="7.32908">
        <ele>984</ele>
        <time>2019-04-20T09:00:25.000Z</time>
      </trkpt>
      <trkpt lat="43.97865" lon="7.32911">
        <ele>984.79998779297</ele>
        <time>2019-04-20T09:00:30.000Z</time>
      </trkpt>
      <trkpt lat="43.97865" lon="7.32912">
        <ele>985.20001220703</ele>
        <time>2019-04-20T09:00:32.000Z</time>
      </trkpt>
      <trkpt lat="43.97866" lon="7.32915">
        <ele>986.20001220703</ele>
        <time>2019-04-20T09:00:37.000Z</time>
      </trkpt>
      <trkpt lat="43.97868" lon="7.32916">
        <ele>987.40002441406</ele>
        <time>2019-04-20T09:00:42.000Z</time>
      </trkpt>
      <trkpt lat="43.97868" lon="7.32917">
        <ele>987.59997558594</ele>
        <time>2019-04-20T09:00:43.000Z</time>
      </trkpt>
      <trkpt lat="43.97868" lon="7.32918">
        <ele>987.79998779297</ele>
        <time>2019-04-20T09:00:45.000Z</time>
      </trkpt>
      <trkpt lat="43.97867" lon="7.3292">
        <ele>988.20001220703</ele>
        <time>2019-04-20T09:00:47.000Z</time>
      </trkpt>
      <trkpt lat="43.97866" lon="7.3292">
        <ele>988.40002441406</ele>
        <time>2019-04-20T09:00:48.000Z</time>
      </trkpt>
      <trkpt lat="43.97864" lon="7.32916">
        <ele>989.20001220703</ele>
        <time>2019-04-20T09:00:53.000Z</time>
      </trkpt>
      <trkpt lat="43.97864" lon="7.32918">
        <ele>989.59997558594</ele>
        <time>2019-04-20T09:00:55.000Z</time>
      </trkpt>
      <trkpt lat="43.97864" lon="7.3292">
        <ele>989.79998779297</ele>
        <time>2019-04-20T09:00:57.000Z</time>
      </trkpt>
      <trkpt lat="43.97864" lon="7.32922">
        <ele>990.20001220703</ele>
        <time>2019-04-20T09:00:59.000Z</time>
      </trkpt>
      <trkpt lat="43.97864" lon="7.32924">
        <ele>990.40002441406</ele>
        <time>2019-04-20T09:01:01.000Z</time>
      </trkpt>
      <trkpt lat="43.97864" lon="7.32924">
        <ele>990.79998779297</ele>
        <time>2019-04-20T09:01:02.000Z</time>
      </trkpt>
      <trkpt lat="43.97864" lon="7.32924">
        <ele>991</ele>
        <time>2019-04-20T09:01:03.000Z</time>
      </trkpt>
      <trkpt lat="43.97864" lon="7.32928">
        <ele>991.79998779297</ele>
        <time>2019-04-20T09:01:09.000Z</time>
      </trkpt>
      <trkpt lat="43.97863" lon="7.32929">
        <ele>992.79998779297</ele>
        <time>2019-04-20T09:01:15.000Z</time>
      </trkpt>
      <trkpt lat="43.97862" lon="7.3293">
        <ele>993.20001220703</ele>
        <time>2019-04-20T09:01:17.000Z</time>
      </trkpt>
      <trkpt lat="43.9786" lon="7.32929">
        <ele>993.79998779297</ele>
        <time>2019-04-20T09:01:20.000Z</time>
      </trkpt>
      <trkpt lat="43.9786" lon="7.32929">
        <ele>994</ele>
        <time>2019-04-20T09:01:21.000Z</time>
      </trkpt>
      <trkpt lat="43.97859" lon="7.32926">
        <ele>994.59997558594</ele>
        <time>2019-04-20T09:01:24.000Z</time>
      </trkpt>
      <trkpt lat="43.97858" lon="7.32925">
        <ele>995</ele>
        <time>2019-04-20T09:01:26.000Z</time>
      </trkpt>
      <trkpt lat="43.97856" lon="7.32924">
        <ele>995.59997558594</ele>
        <time>2019-04-20T09:01:29.000Z</time>
      </trkpt>
      <trkpt lat="43.97855" lon="7.32924">
        <ele>996</ele>
        <time>2019-04-20T09:01:31.000Z</time>
      </trkpt>
      <trkpt lat="43.97855" lon="7.32924">
        <ele>996.20001220703</ele>
        <time>2019-04-20T09:01:32.000Z</time>
      </trkpt>
      <trkpt lat="43.97853" lon="7.32922">
        <ele>997</ele>
        <time>2019-04-20T09:01:35.000Z</time>
      </trkpt>
      <trkpt lat="43.97852" lon="7.3292">
        <ele>997.40002441406</ele>
        <time>2019-04-20T09:01:39.000Z</time>
      </trkpt>
      <trkpt lat="43.97851" lon="7.32919">
        <ele>997.59997558594</ele>
        <time>2019-04-20T09:01:40.000Z</time>
      </trkpt>
      <trkpt lat="43.97848" lon="7.32919">
        <ele>998.20001220703</ele>
        <time>2019-04-20T09:01:44.000Z</time>
      </trkpt>
      <trkpt lat="43.97847" lon="7.3292">
        <ele>999.20001220703</ele>
        <time>2019-04-20T09:01:51.000Z</time>
      </trkpt>
      <trkpt lat="43.97847" lon="7.32922">
        <ele>1000</ele>
        <time>2019-04-20T09:01:57.000Z</time>
      </trkpt>
      <trkpt lat="43.97847" lon="7.32924">
        <ele>1000.4000244141</ele>
        <time>2019-04-20T09:02:00.000Z</time>
      </trkpt>
      <trkpt lat="43.97849" lon="7.32927">
        <ele>1001.200012207</ele>
        <time>2019-04-20T09:02:05.000Z</time>
      </trkpt>
      <trkpt lat="43.97849" lon="7.32927">
        <ele>1001.4000244141</ele>
        <time>2019-04-20T09:02:06.000Z</time>
      </trkpt>
      <trkpt lat="43.9785" lon="7.32932">
        <ele>1002.5999755859</ele>
        <time>2019-04-20T09:02:12.000Z</time>
      </trkpt>
      <trkpt lat="43.9785" lon="7.32932">
        <ele>1002.799987793</ele>
        <time>2019-04-20T09:02:14.000Z</time>
      </trkpt>
      <trkpt lat="43.9785" lon="7.32934">
        <ele>1003.799987793</ele>
        <time>2019-04-20T09:02:19.000Z</time>
      </trkpt>
      <trkpt lat="43.97849" lon="7.32938">
        <ele>1004.799987793</ele>
        <time>2019-04-20T09:02:26.000Z</time>
      </trkpt>
      <trkpt lat="43.97849" lon="7.32938">
        <ele>1004.799987793</ele>
        <time>2019-04-20T09:02:27.000Z</time>
      </trkpt>
      <trkpt lat="43.97849" lon="7.32941">
        <ele>1006</ele>
        <time>2019-04-20T09:02:33.000Z</time>
      </trkpt>
      <trkpt lat="43.97848" lon="7.32944">
        <ele>1007.4000244141</ele>
        <time>2019-04-20T09:02:37.000Z</time>
      </trkpt>
      <trkpt lat="43.97848" lon="7.32946">
        <ele>1007.799987793</ele>
        <time>2019-04-20T09:02:38.000Z</time>
      </trkpt>
      <trkpt lat="43.97846" lon="7.32952">
        <ele>1008.200012207</ele>
        <time>2019-04-20T09:02:45.000Z</time>
      </trkpt>
      <trkpt lat="43.97845" lon="7.32953">
        <ele>1008.4000244141</ele>
        <time>2019-04-20T09:02:47.000Z</time>
      </trkpt>
      <trkpt lat="43.97843" lon="7.32957">
        <ele>1009.5999755859</ele>
        <time>2019-04-20T09:02:53.000Z</time>
      </trkpt>
      <trkpt lat="43.97839" lon="7.32962">
        <ele>1010.5999755859</ele>
        <time>2019-04-20T09:02:59.000Z</time>
      </trkpt>
      <trkpt lat="43.97838" lon="7.32963">
        <ele>1010.799987793</ele>
        <time>2019-04-20T09:03:00.000Z</time>
      </trkpt>
      <trkpt lat="43.97836" lon="7.32965">
        <ele>1011.799987793</ele>
        <time>2019-04-20T09:03:05.000Z</time>
      </trkpt>
      <trkpt lat="43.97835" lon="7.32967">
        <ele>1012.200012207</ele>
        <time>2019-04-20T09:03:07.000Z</time>
      </trkpt>
      <trkpt lat="43.97834" lon="7.32969">
        <ele>1012.799987793</ele>
        <time>2019-04-20T09:03:11.000Z</time>
      </trkpt>
      <trkpt lat="43.97833" lon="7.32971">
        <ele>1013.799987793</ele>
        <time>2019-04-20T09:03:16.000Z</time>
      </trkpt>
      <trkpt lat="43.97833" lon="7.32971">
        <ele>1014</ele>
        <time>2019-04-20T09:03:17.000Z</time>
      </trkpt>
      <trkpt lat="43.97829" lon="7.32976">
        <ele>1014.799987793</ele>
        <time>2019-04-20T09:03:25.000Z</time>
      </trkpt>
      <trkpt lat="43.97829" lon="7.32976">
        <ele>1015</ele>
        <time>2019-04-20T09:03:26.000Z</time>
      </trkpt>
      <trkpt lat="43.97828" lon="7.32977">
        <ele>1016</ele>
        <time>2019-04-20T09:03:31.000Z</time>
      </trkpt>
      <trkpt lat="43.97828" lon="7.32978">
        <ele>1016.200012207</ele>
        <time>2019-04-20T09:03:33.000Z</time>
      </trkpt>
      <trkpt lat="43.97827" lon="7.32979">
        <ele>1017</ele>
        <time>2019-04-20T09:03:38.000Z</time>
      </trkpt>
      <trkpt lat="43.97825" lon="7.32982">
        <ele>1017.5999755859</ele>
        <time>2019-04-20T09:03:42.000Z</time>
      </trkpt>
      <trkpt lat="43.97824" lon="7.32983">
        <ele>1018.200012207</ele>
        <time>2019-04-20T09:03:45.000Z</time>
      </trkpt>
      <trkpt lat="43.97822" lon="7.32986">
        <ele>1019.200012207</ele>
        <time>2019-04-20T09:03:50.000Z</time>
      </trkpt>
      <trkpt lat="43.97821" lon="7.32987">
        <ele>1019.5999755859</ele>
        <time>2019-04-20T09:03:52.000Z</time>
      </trkpt>
      <trkpt lat="43.9782" lon="7.32988">
        <ele>1020.200012207</ele>
        <time>2019-04-20T09:03:55.000Z</time>
      </trkpt>
      <trkpt lat="43.97819" lon="7.32989">
        <ele>1021.4000244141</ele>
        <time>2019-04-20T09:04:01.000Z</time>
      </trkpt>
      <trkpt lat="43.97819" lon="7.32989">
        <ele>1021.4000244141</ele>
        <time>2019-04-20T09:04:03.000Z</time>
      </trkpt>
      <trkpt lat="43.97819" lon="7.32991">
        <ele>1021.4000244141</ele>
        <time>2019-04-20T09:04:13.000Z</time>
      </trkpt>
      <trkpt lat="43.97818" lon="7.32994">
        <ele>1022.4000244141</ele>
        <time>2019-04-20T09:04:20.000Z</time>
      </trkpt>
      <trkpt lat="43.97817" lon="7.32994">
        <ele>1022.799987793</ele>
        <time>2019-04-20T09:04:22.000Z</time>
      </trkpt>
      <trkpt lat="43.97817" lon="7.32996">
        <ele>1023.4000244141</ele>
        <time>2019-04-20T09:04:25.000Z</time>
      </trkpt>
      <trkpt lat="43.97817" lon="7.32998">
        <ele>1024.4000244141</ele>
        <time>2019-04-20T09:04:30.000Z</time>
      </trkpt>
      <trkpt lat="43.97817" lon="7.32999">
        <ele>1024.5999755859</ele>
        <time>2019-04-20T09:04:31.000Z</time>
      </trkpt>
      <trkpt lat="43.97815" lon="7.33003">
        <ele>1025.4000244141</ele>
        <time>2019-04-20T09:04:36.000Z</time>
      </trkpt>
      <trkpt lat="43.97814" lon="7.33007">
        <ele>1025.8000488281</ele>
        <time>2019-04-20T09:04:39.000Z</time>
      </trkpt>
      <trkpt lat="43.9781" lon="7.33019">
        <ele>1026</ele>
        <time>2019-04-20T09:04:44.000Z</time>
      </trkpt>
      <trkpt lat="43.97806" lon="7.33027">
        <ele>1026.5999755859</ele>
        <time>2019-04-20T09:04:48.000Z</time>
      </trkpt>
      <trkpt lat="43.97801" lon="7.33034">
        <ele>1027.1999511719</ele>
        <time>2019-04-20T09:04:52.000Z</time>
      </trkpt>
      <trkpt lat="43.978" lon="7.33037">
        <ele>1027.8000488281</ele>
        <time>2019-04-20T09:04:54.000Z</time>
      </trkpt>
      <trkpt lat="43.97799" lon="7.33038">
        <ele>1028.8000488281</ele>
        <time>2019-04-20T09:04:58.000Z</time>
      </trkpt>
      <trkpt lat="43.97797" lon="7.33043">
        <ele>1030</ele>
        <time>2019-04-20T09:05:04.000Z</time>
      </trkpt>
      <trkpt lat="43.97796" lon="7.33043">
        <ele>1030.1999511719</ele>
        <time>2019-04-20T09:05:05.000Z</time>
      </trkpt>
      <trkpt lat="43.97795" lon="7.33046">
        <ele>1031.1999511719</ele>
        <time>2019-04-20T09:05:11.000Z</time>
      </trkpt>
      <trkpt lat="43.97794" lon="7.33048">
        <ele>1031.5999755859</ele>
        <time>2019-04-20T09:05:13.000Z</time>
      </trkpt>
      <trkpt lat="43.97795" lon="7.33049">
        <ele>1032.1999511719</ele>
        <time>2019-04-20T09:05:16.000Z</time>
      </trkpt>
      <trkpt lat="43.97794" lon="7.3305">
        <ele>1032.8000488281</ele>
        <time>2019-04-20T09:05:19.000Z</time>
      </trkpt>
      <trkpt lat="43.97794" lon="7.33053">
        <ele>1033.4000244141</ele>
        <time>2019-04-20T09:05:24.000Z</time>
      </trkpt>
      <trkpt lat="43.97794" lon="7.33054">
        <ele>1033.5999755859</ele>
        <time>2019-04-20T09:05:25.000Z</time>
      </trkpt>
      <trkpt lat="43.97793" lon="7.33057">
        <ele>1034.5999755859</ele>
        <time>2019-04-20T09:05:29.000Z</time>
      </trkpt>
      <trkpt lat="43.97792" lon="7.33059">
        <ele>1035.5999755859</ele>
        <time>2019-04-20T09:05:33.000Z</time>
      </trkpt>
      <trkpt lat="43.97792" lon="7.33063">
        <ele>1036.5999755859</ele>
        <time>2019-04-20T09:05:38.000Z</time>
      </trkpt>
      <trkpt lat="43.97792" lon="7.33063">
        <ele>1036.8000488281</ele>
        <time>2019-04-20T09:05:39.000Z</time>
      </trkpt>
      <trkpt lat="43.97792" lon="7.3307">
        <ele>1036.8000488281</ele>
        <time>2019-04-20T09:05:44.000Z</time>
      </trkpt>
      <trkpt lat="43.97792" lon="7.33078">
        <ele>1037.5999755859</ele>
        <time>2019-04-20T09:05:49.000Z</time>
      </trkpt>
      <trkpt lat="43.97793" lon="7.33079">
        <ele>1037.8000488281</ele>
        <time>2019-04-20T09:05:50.000Z</time>
      </trkpt>
      <trkpt lat="43.97794" lon="7.33089">
        <ele>1039</ele>
        <time>2019-04-20T09:05:56.000Z</time>
      </trkpt>
      <trkpt lat="43.97794" lon="7.33091">
        <ele>1039.1999511719</ele>
        <time>2019-04-20T09:05:57.000Z</time>
      </trkpt>
      <trkpt lat="43.97794" lon="7.33101">
        <ele>1040.1999511719</ele>
        <time>2019-04-20T09:06:02.000Z</time>
      </trkpt>
      <trkpt lat="43.97793" lon="7.33104">
        <ele>1040.5999755859</ele>
        <time>2019-04-20T09:06:04.000Z</time>
      </trkpt>
      <trkpt lat="43.97793" lon="7.33107">
        <ele>1041.1999511719</ele>
        <time>2019-04-20T09:06:06.000Z</time>
      </trkpt>
      <trkpt lat="43.97792" lon="7.33113">
        <ele>1042.4000244141</ele>
        <time>2019-04-20T09:06:11.000Z</time>
      </trkpt>
      <trkpt lat="43.97791" lon="7.33122">
        <ele>1043.4000244141</ele>
        <time>2019-04-20T09:06:17.000Z</time>
      </trkpt>
      <trkpt lat="43.9779" lon="7.33124">
        <ele>1043.5999755859</ele>
        <time>2019-04-20T09:06:18.000Z</time>
      </trkpt>
      <trkpt lat="43.9779" lon="7.33127">
        <ele>1044.1999511719</ele>
        <time>2019-04-20T09:06:22.000Z</time>
      </trkpt>
      <trkpt lat="43.97789" lon="7.3313">
        <ele>1044.4000244141</ele>
        <time>2019-04-20T09:06:23.000Z</time>
      </trkpt>
      <trkpt lat="43.97789" lon="7.33131">
        <ele>1044.5999755859</ele>
        <time>2019-04-20T09:06:24.000Z</time>
      </trkpt>
      <trkpt lat="43.97789" lon="7.33134">
        <ele>1045</ele>
        <time>2019-04-20T09:06:26.000Z</time>
      </trkpt>
      <trkpt lat="43.97789" lon="7.3314">
        <ele>1045.5999755859</ele>
        <time>2019-04-20T09:06:30.000Z</time>
      </trkpt>
      <trkpt lat="43.9779" lon="7.33145">
        <ele>1046.1999511719</ele>
        <time>2019-04-20T09:06:33.000Z</time>
      </trkpt>
      <trkpt lat="43.9779" lon="7.3315">
        <ele>1046.8000488281</ele>
        <time>2019-04-20T09:06:36.000Z</time>
      </trkpt>
      <trkpt lat="43.97791" lon="7.33158">
        <ele>1047.8000488281</ele>
        <time>2019-04-20T09:06:41.000Z</time>
      </trkpt>
      <trkpt lat="43.97791" lon="7.3316">
        <ele>1048</ele>
        <time>2019-04-20T09:06:42.000Z</time>
      </trkpt>
      <trkpt lat="43.97793" lon="7.33168">
        <ele>1048.8000488281</ele>
        <time>2019-04-20T09:06:47.000Z</time>
      </trkpt>
      <trkpt lat="43.97793" lon="7.3317">
        <ele>1049</ele>
        <time>2019-04-20T09:06:48.000Z</time>
      </trkpt>
      <trkpt lat="43.97796" lon="7.33178">
        <ele>1050</ele>
        <time>2019-04-20T09:06:53.000Z</time>
      </trkpt>
      <trkpt lat="43.97799" lon="7.33189">
        <ele>1051.1999511719</ele>
        <time>2019-04-20T09:06:59.000Z</time>
      </trkpt>
      <trkpt lat="43.97802" lon="7.33196">
        <ele>1052.1999511719</ele>
        <time>2019-04-20T09:07:04.000Z</time>
      </trkpt>
      <trkpt lat="43.97803" lon="7.33198">
        <ele>1052.4000244141</ele>
        <time>2019-04-20T09:07:05.000Z</time>
      </trkpt>
      <trkpt lat="43.97807" lon="7.33208">
        <ele>1053.1999511719</ele>
        <time>2019-04-20T09:07:12.000Z</time>
      </trkpt>
      <trkpt lat="43.97807" lon="7.33209">
        <ele>1053.4000244141</ele>
        <time>2019-04-20T09:07:13.000Z</time>
      </trkpt>
      <trkpt lat="43.97806" lon="7.33214">
        <ele>1054.4000244141</ele>
        <time>2019-04-20T09:07:18.000Z</time>
      </trkpt>
      <trkpt lat="43.97805" lon="7.33216">
        <ele>1054.8000488281</ele>
        <time>2019-04-20T09:07:20.000Z</time>
      </trkpt>
      <trkpt lat="43.97804" lon="7.3322">
        <ele>1055.4000244141</ele>
        <time>2019-04-20T09:07:25.000Z</time>
      </trkpt>
      <trkpt lat="43.97803" lon="7.3322">
        <ele>1055.4000244141</ele>
        <time>2019-04-20T09:07:26.000Z</time>
      </trkpt>
      <trkpt lat="43.97798" lon="7.33224">
        <ele>1055.5999755859</ele>
        <time>2019-04-20T09:07:31.000Z</time>
      </trkpt>
      <trkpt lat="43.9779" lon="7.3323">
        <ele>1056.1999511719</ele>
        <time>2019-04-20T09:07:38.000Z</time>
      </trkpt>
      <trkpt lat="43.97788" lon="7.33231">
        <ele>1056.5999755859</ele>
        <time>2019-04-20T09:07:40.000Z</time>
      </trkpt>
      <trkpt lat="43.97784" lon="7.33234">
        <ele>1057.5999755859</ele>
        <time>2019-04-20T09:07:44.000Z</time>
      </trkpt>
      <trkpt lat="43.97783" lon="7.33234">
        <ele>1057.8000488281</ele>
        <time>2019-04-20T09:07:45.000Z</time>
      </trkpt>
      <trkpt lat="43.97782" lon="7.33235">
        <ele>1058.4000244141</ele>
        <time>2019-04-20T09:07:47.000Z</time>
      </trkpt>
      <trkpt lat="43.9778" lon="7.33236">
        <ele>1058.8000488281</ele>
        <time>2019-04-20T09:07:49.000Z</time>
      </trkpt>
      <trkpt lat="43.97779" lon="7.33236">
        <ele>1059.1999511719</ele>
        <time>2019-04-20T09:07:50.000Z</time>
      </trkpt>
      <trkpt lat="43.97778" lon="7.33239">
        <ele>1060.1999511719</ele>
        <time>2019-04-20T09:07:53.000Z</time>
      </trkpt>
      <trkpt lat="43.97777" lon="7.33242">
        <ele>1060.8000488281</ele>
        <time>2019-04-20T09:07:56.000Z</time>
      </trkpt>
      <trkpt lat="43.97774" lon="7.33244">
        <ele>1061.4000244141</ele>
        <time>2019-04-20T09:07:59.000Z</time>
      </trkpt>
      <trkpt lat="43.97771" lon="7.33246">
        <ele>1061.8000488281</ele>
        <time>2019-04-20T09:08:02.000Z</time>
      </trkpt>
      <trkpt lat="43.9777" lon="7.33248">
        <ele>1062.1999511719</ele>
        <time>2019-04-20T09:08:04.000Z</time>
      </trkpt>
      <trkpt lat="43.97768" lon="7.33249">
        <ele>1062.4000244141</ele>
        <time>2019-04-20T09:08:06.000Z</time>
      </trkpt>
      <trkpt lat="43.97766" lon="7.33252">
        <ele>1062.8000488281</ele>
        <time>2019-04-20T09:08:09.000Z</time>
      </trkpt>
      <trkpt lat="43.97763" lon="7.33256">
        <ele>1063.5999755859</ele>
        <time>2019-04-20T09:08:14.000Z</time>
      </trkpt>
      <trkpt lat="43.97762" lon="7.33258">
        <ele>1063.5999755859</ele>
        <time>2019-04-20T09:08:15.000Z</time>
      </trkpt>
      <trkpt lat="43.97762" lon="7.33257">
        <ele>1063.8000488281</ele>
        <time>2019-04-20T09:08:16.000Z</time>
      </trkpt>
      <trkpt lat="43.97758" lon="7.33266">
        <ele>1064.5999755859</ele>
        <time>2019-04-20T09:08:21.000Z</time>
      </trkpt>
      <trkpt lat="43.97757" lon="7.33267">
        <ele>1064.8000488281</ele>
        <time>2019-04-20T09:08:22.000Z</time>
      </trkpt>
      <trkpt lat="43.97751" lon="7.33275">
        <ele>1065.4000244141</ele>
        <time>2019-04-20T09:08:29.000Z</time>
      </trkpt>
      <trkpt lat="43.97746" lon="7.33279">
        <ele>1065.4000244141</ele>
        <time>2019-04-20T09:08:33.000Z</time>
      </trkpt>
      <trkpt lat="43.97743" lon="7.33283">
        <ele>1065.8000488281</ele>
        <time>2019-04-20T09:08:36.000Z</time>
      </trkpt>
      <trkpt lat="43.9774" lon="7.33287">
        <ele>1066</ele>
        <time>2019-04-20T09:08:38.000Z</time>
      </trkpt>
      <trkpt lat="43.97736" lon="7.33295">
        <ele>1065.8000488281</ele>
        <time>2019-04-20T09:08:42.000Z</time>
      </trkpt>
      <trkpt lat="43.97732" lon="7.33305">
        <ele>1066.1999511719</ele>
        <time>2019-04-20T09:08:47.000Z</time>
      </trkpt>
      <trkpt lat="43.9773" lon="7.33314">
        <ele>1066.8000488281</ele>
        <time>2019-04-20T09:08:51.000Z</time>
      </trkpt>
      <trkpt lat="43.9773" lon="7.33316">
        <ele>1066.8000488281</ele>
        <time>2019-04-20T09:08:52.000Z</time>
      </trkpt>
      <trkpt lat="43.97727" lon="7.33336">
        <ele>1067.8000488281</ele>
        <time>2019-04-20T09:08:59.000Z</time>
      </trkpt>
      <trkpt lat="43.97727" lon="7.33339">
        <ele>1068</ele>
        <time>2019-04-20T09:09:00.000Z</time>
      </trkpt>
      <trkpt lat="43.97721" lon="7.33356">
        <ele>1068.1999511719</ele>
        <time>2019-04-20T09:09:06.000Z</time>
      </trkpt>
      <trkpt lat="43.97718" lon="7.33362">
        <ele>1068.4000244141</ele>
        <time>2019-04-20T09:09:09.000Z</time>
      </trkpt>
      <trkpt lat="43.97715" lon="7.33365">
        <ele>1068.4000244141</ele>
        <time>2019-04-20T09:09:11.000Z</time>
      </trkpt>
      <trkpt lat="43.97705" lon="7.33375">
        <ele>1068.4000244141</ele>
        <time>2019-04-20T09:09:17.000Z</time>
      </trkpt>
      <trkpt lat="43.97704" lon="7.33377">
        <ele>1068.4000244141</ele>
        <time>2019-04-20T09:09:18.000Z</time>
      </trkpt>
      <trkpt lat="43.97696" lon="7.33381">
        <ele>1068.8000488281</ele>
        <time>2019-04-20T09:09:22.000Z</time>
      </trkpt>
      <trkpt lat="43.97689" lon="7.33387">
        <ele>1069</ele>
        <time>2019-04-20T09:09:26.000Z</time>
      </trkpt>
      <trkpt lat="43.97687" lon="7.33389">
        <ele>1069.1999511719</ele>
        <time>2019-04-20T09:09:27.000Z</time>
      </trkpt>
      <trkpt lat="43.97676" lon="7.33398">
        <ele>1069.5999755859</ele>
        <time>2019-04-20T09:09:31.000Z</time>
      </trkpt>
      <trkpt lat="43.9767" lon="7.33412">
        <ele>1068.8000488281</ele>
        <time>2019-04-20T09:09:36.000Z</time>
      </trkpt>
      <trkpt lat="43.97669" lon="7.33419">
        <ele>1069</ele>
        <time>2019-04-20T09:09:41.000Z</time>
      </trkpt>
      <trkpt lat="43.97668" lon="7.33426">
        <ele>1069.1999511719</ele>
        <time>2019-04-20T09:09:47.000Z</time>
      </trkpt>
      <trkpt lat="43.97664" lon="7.33438">
        <ele>1070</ele>
        <time>2019-04-20T09:09:52.000Z</time>
      </trkpt>
      <trkpt lat="43.97659" lon="7.3345">
        <ele>1070.8000488281</ele>
        <time>2019-04-20T09:09:57.000Z</time>
      </trkpt>
      <trkpt lat="43.97654" lon="7.33454">
        <ele>1071.1999511719</ele>
        <time>2019-04-20T09:09:59.000Z</time>
      </trkpt>
      <trkpt lat="43.9765" lon="7.33457">
        <ele>1071.4000244141</ele>
        <time>2019-04-20T09:10:01.000Z</time>
      </trkpt>
      <trkpt lat="43.97649" lon="7.33458">
        <ele>1071.4000244141</ele>
        <time>2019-04-20T09:10:02.000Z</time>
      </trkpt>
      <trkpt lat="43.97645" lon="7.33464">
        <ele>1071.4000244141</ele>
        <time>2019-04-20T09:10:05.000Z</time>
      </trkpt>
      <trkpt lat="43.97645" lon="7.33467">
        <ele>1071.4000244141</ele>
        <time>2019-04-20T09:10:06.000Z</time>
      </trkpt>
      <trkpt lat="43.97643" lon="7.33473">
        <ele>1071.5999755859</ele>
        <time>2019-04-20T09:10:08.000Z</time>
      </trkpt>
      <trkpt lat="43.9764" lon="7.33478">
        <ele>1072</ele>
        <time>2019-04-20T09:10:10.000Z</time>
      </trkpt>
      <trkpt lat="43.97639" lon="7.3348">
        <ele>1072.4000244141</ele>
        <time>2019-04-20T09:10:11.000Z</time>
      </trkpt>
      <trkpt lat="43.97635" lon="7.33487">
        <ele>1073.5999755859</ele>
        <time>2019-04-20T09:10:14.000Z</time>
      </trkpt>
      <trkpt lat="43.97634" lon="7.33489">
        <ele>1074</ele>
        <time>2019-04-20T09:10:15.000Z</time>
      </trkpt>
      <trkpt lat="43.97631" lon="7.33505">
        <ele>1074</ele>
        <time>2019-04-20T09:10:19.000Z</time>
      </trkpt>
      <trkpt lat="43.9763" lon="7.33516">
        <ele>1074</ele>
        <time>2019-04-20T09:10:22.000Z</time>
      </trkpt>
      <trkpt lat="43.97629" lon="7.33519">
        <ele>1074.1999511719</ele>
        <time>2019-04-20T09:10:23.000Z</time>
      </trkpt>
      <trkpt lat="43.97629" lon="7.33522">
        <ele>1074.4000244141</ele>
        <time>2019-04-20T09:10:24.000Z</time>
      </trkpt>
      <trkpt lat="43.97629" lon="7.33528">
        <ele>1074.8000488281</ele>
        <time>2019-04-20T09:10:26.000Z</time>
      </trkpt>
      <trkpt lat="43.9763" lon="7.33541">
        <ele>1075.5999755859</ele>
        <time>2019-04-20T09:10:30.000Z</time>
      </trkpt>
      <trkpt lat="43.9763" lon="7.33544">
        <ele>1076</ele>
        <time>2019-04-20T09:10:31.000Z</time>
      </trkpt>
      <trkpt lat="43.9763" lon="7.33557">
        <ele>1076.5999755859</ele>
        <time>2019-04-20T09:10:35.000Z</time>
      </trkpt>
      <trkpt lat="43.97629" lon="7.3356">
        <ele>1077</ele>
        <time>2019-04-20T09:10:36.000Z</time>
      </trkpt>
      <trkpt lat="43.97627" lon="7.33578">
        <ele>1078</ele>
        <time>2019-04-20T09:10:42.000Z</time>
      </trkpt>
      <trkpt lat="43.97626" lon="7.33581">
        <ele>1078.1999511719</ele>
        <time>2019-04-20T09:10:43.000Z</time>
      </trkpt>
      <trkpt lat="43.97622" lon="7.33596">
        <ele>1078.8000488281</ele>
        <time>2019-04-20T09:10:49.000Z</time>
      </trkpt>
      <trkpt lat="43.97619" lon="7.33601">
        <ele>1079</ele>
        <time>2019-04-20T09:10:51.000Z</time>
      </trkpt>
      <trkpt lat="43.97618" lon="7.33602">
        <ele>1079.1999511719</ele>
        <time>2019-04-20T09:10:52.000Z</time>
      </trkpt>
      <trkpt lat="43.97616" lon="7.33604">
        <ele>1080</ele>
        <time>2019-04-20T09:10:54.000Z</time>
      </trkpt>
      <trkpt lat="43.97615" lon="7.33605">
        <ele>1080.1999511719</ele>
        <time>2019-04-20T09:10:55.000Z</time>
      </trkpt>
      <trkpt lat="43.97613" lon="7.33609">
        <ele>1081</ele>
        <time>2019-04-20T09:10:58.000Z</time>
      </trkpt>
      <trkpt lat="43.97612" lon="7.33611">
        <ele>1081.1999511719</ele>
        <time>2019-04-20T09:10:59.000Z</time>
      </trkpt>
      <trkpt lat="43.97607" lon="7.33624">
        <ele>1081.8000488281</ele>
        <time>2019-04-20T09:11:04.000Z</time>
      </trkpt>
      <trkpt lat="43.97604" lon="7.33629">
        <ele>1082.1999511719</ele>
        <time>2019-04-20T09:11:06.000Z</time>
      </trkpt>
      <trkpt lat="43.97603" lon="7.33632">
        <ele>1082.4000244141</ele>
        <time>2019-04-20T09:11:07.000Z</time>
      </trkpt>
      <trkpt lat="43.97599" lon="7.3364">
        <ele>1082.5999755859</ele>
        <time>2019-04-20T09:11:10.000Z</time>
      </trkpt>
      <trkpt lat="43.97592" lon="7.33653">
        <ele>1082.5999755859</ele>
        <time>2019-04-20T09:11:15.000Z</time>
      </trkpt>
      <trkpt lat="43.97586" lon="7.33672">
        <ele>1082.8000488281</ele>
        <time>2019-04-20T09:11:20.000Z</time>
      </trkpt>
      <trkpt lat="43.97581" lon="7.33681">
        <ele>1082.1999511719</ele>
        <time>2019-04-20T09:11:24.000Z</time>
      </trkpt>
      <trkpt lat="43.97575" lon="7.33696">
        <ele>1083</ele>
        <time>2019-04-20T09:11:30.000Z</time>
      </trkpt>
      <trkpt lat="43.97573" lon="7.33698">
        <ele>1083.1999511719</ele>
        <time>2019-04-20T09:11:31.000Z</time>
      </trkpt>
      <trkpt lat="43.97568" lon="7.33707">
        <ele>1084</ele>
        <time>2019-04-20T09:11:35.000Z</time>
      </trkpt>
      <trkpt lat="43.97567" lon="7.33708">
        <ele>1084</ele>
        <time>2019-04-20T09:11:36.000Z</time>
      </trkpt>
      <trkpt lat="43.97565" lon="7.33711">
        <ele>1084.1999511719</ele>
        <time>2019-04-20T09:11:38.000Z</time>
      </trkpt>
      <trkpt lat="43.97562" lon="7.33713">
        <ele>1084.8000488281</ele>
        <time>2019-04-20T09:11:40.000Z</time>
      </trkpt>
      <trkpt lat="43.9756" lon="7.33714">
        <ele>1085</ele>
        <time>2019-04-20T09:11:41.000Z</time>
      </trkpt>
      <trkpt lat="43.97552" lon="7.33721">
        <ele>1085.1999511719</ele>
        <time>2019-04-20T09:11:46.000Z</time>
      </trkpt>
      <trkpt lat="43.97551" lon="7.33723">
        <ele>1085.5999755859</ele>
        <time>2019-04-20T09:11:47.000Z</time>
      </trkpt>
      <trkpt lat="43.97544" lon="7.33729">
        <ele>1085.8000488281</ele>
        <time>2019-04-20T09:11:51.000Z</time>
      </trkpt>
      <trkpt lat="43.97534" lon="7.33742">
        <ele>1086.4000244141</ele>
        <time>2019-04-20T09:11:58.000Z</time>
      </trkpt>
      <trkpt lat="43.97533" lon="7.33744">
        <ele>1086.5999755859</ele>
        <time>2019-04-20T09:11:59.000Z</time>
      </trkpt>
      <trkpt lat="43.97528" lon="7.3375">
        <ele>1087.8000488281</ele>
        <time>2019-04-20T09:12:03.000Z</time>
      </trkpt>
      <trkpt lat="43.97529" lon="7.3375">
        <ele>1088</ele>
        <time>2019-04-20T09:12:04.000Z</time>
      </trkpt>
      <trkpt lat="43.97526" lon="7.33754">
        <ele>1089</ele>
        <time>2019-04-20T09:12:07.000Z</time>
      </trkpt>
      <trkpt lat="43.97525" lon="7.33755">
        <ele>1089.1999511719</ele>
        <time>2019-04-20T09:12:08.000Z</time>
      </trkpt>
      <trkpt lat="43.97522" lon="7.33764">
        <ele>1089.8000488281</ele>
        <time>2019-04-20T09:12:13.000Z</time>
      </trkpt>
      <trkpt lat="43.97521" lon="7.33768">
        <ele>1090.1999511719</ele>
        <time>2019-04-20T09:12:15.000Z</time>
      </trkpt>
      <trkpt lat="43.97519" lon="7.33775">
        <ele>1091.1999511719</ele>
        <time>2019-04-20T09:12:19.000Z</time>
      </trkpt>
      <trkpt lat="43.97517" lon="7.33779">
        <ele>1092</ele>
        <time>2019-04-20T09:12:21.000Z</time>
      </trkpt>
      <trkpt lat="43.97516" lon="7.3378">
        <ele>1092.1999511719</ele>
        <time>2019-04-20T09:12:22.000Z</time>
      </trkpt>
      <trkpt lat="43.97515" lon="7.33782">
        <ele>1092.4000244141</ele>
        <time>2019-04-20T09:12:23.000Z</time>
      </trkpt>
      <trkpt lat="43.97515" lon="7.33783">
        <ele>1092.5999755859</ele>
        <time>2019-04-20T09:12:24.000Z</time>
      </trkpt>
      <trkpt lat="43.97514" lon="7.33783">
        <ele>1092.8000488281</ele>
        <time>2019-04-20T09:12:25.000Z</time>
      </trkpt>
      <trkpt lat="43.97511" lon="7.33784">
        <ele>1093.4000244141</ele>
        <time>2019-04-20T09:12:28.000Z</time>
      </trkpt>
      <trkpt lat="43.97508" lon="7.33785">
        <ele>1093.8000488281</ele>
        <time>2019-04-20T09:12:30.000Z</time>
      </trkpt>
      <trkpt lat="43.97505" lon="7.33786">
        <ele>1094.5999755859</ele>
        <time>2019-04-20T09:12:34.000Z</time>
      </trkpt>
      <trkpt lat="43.97503" lon="7.33786">
        <ele>1095</ele>
        <time>2019-04-20T09:12:36.000Z</time>
      </trkpt>
      <trkpt lat="43.975" lon="7.33787">
        <ele>1095.5999755859</ele>
        <time>2019-04-20T09:12:39.000Z</time>
      </trkpt>
      <trkpt lat="43.97498" lon="7.33787">
        <ele>1096.1999511719</ele>
        <time>2019-04-20T09:12:42.000Z</time>
      </trkpt>
      <trkpt lat="43.97498" lon="7.33787">
        <ele>1096.5999755859</ele>
        <time>2019-04-20T09:12:44.000Z</time>
      </trkpt>
      <trkpt lat="43.97496" lon="7.33789">
        <ele>1097.4000244141</ele>
        <time>2019-04-20T09:12:48.000Z</time>
      </trkpt>
      <trkpt lat="43.97495" lon="7.33789">
        <ele>1097.8000488281</ele>
        <time>2019-04-20T09:12:51.000Z</time>
      </trkpt>
      <trkpt lat="43.97493" lon="7.3379">
        <ele>1098.8000488281</ele>
        <time>2019-04-20T09:12:55.000Z</time>
      </trkpt>
      <trkpt lat="43.97492" lon="7.3379">
        <ele>1099.1999511719</ele>
        <time>2019-04-20T09:12:56.000Z</time>
      </trkpt>
      <trkpt lat="43.97489" lon="7.33792">
        <ele>1100</ele>
        <time>2019-04-20T09:13:01.000Z</time>
      </trkpt>
      <trkpt lat="43.97488" lon="7.33794">
        <ele>1100.5999755859</ele>
        <time>2019-04-20T09:13:04.000Z</time>
      </trkpt>
      <trkpt lat="43.97487" lon="7.33795">
        <ele>1101.1999511719</ele>
        <time>2019-04-20T09:13:07.000Z</time>
      </trkpt>
      <trkpt lat="43.97483" lon="7.33802">
        <ele>1102</ele>
        <time>2019-04-20T09:13:12.000Z</time>
      </trkpt>
      <trkpt lat="43.97483" lon="7.33801">
        <ele>1102.1999511719</ele>
        <time>2019-04-20T09:13:13.000Z</time>
      </trkpt>
      <trkpt lat="43.9748" lon="7.3381">
        <ele>1103.1999511719</ele>
        <time>2019-04-20T09:13:20.000Z</time>
      </trkpt>
      <trkpt lat="43.97479" lon="7.33812">
        <ele>1103.1999511719</ele>
        <time>2019-04-20T09:13:21.000Z</time>
      </trkpt>
      <trkpt lat="43.97478" lon="7.33815">
        <ele>1103.1999511719</ele>
        <time>2019-04-20T09:13:26.000Z</time>
      </trkpt>
      <trkpt lat="43.9748" lon="7.33821">
        <ele>1103</ele>
        <time>2019-04-20T09:13:42.000Z</time>
      </trkpt>
      <trkpt lat="43.9748" lon="7.33826">
        <ele>1103</ele>
        <time>2019-04-20T09:14:01.000Z</time>
      </trkpt>
      <trkpt lat="43.97481" lon="7.33829">
        <ele>1102.8000488281</ele>
        <time>2019-04-20T09:14:06.000Z</time>
      </trkpt>
      <trkpt lat="43.97483" lon="7.33831">
        <ele>1103</ele>
        <time>2019-04-20T09:14:11.000Z</time>
      </trkpt>
      <trkpt lat="43.97484" lon="7.33833">
        <ele>1103.1999511719</ele>
        <time>2019-04-20T09:14:20.000Z</time>
      </trkpt>
      <trkpt lat="43.97486" lon="7.33835">
        <ele>1103</ele>
        <time>2019-04-20T09:14:29.000Z</time>
      </trkpt>
      <trkpt lat="43.97488" lon="7.3384">
        <ele>1103</ele>
        <time>2019-04-20T09:14:36.000Z</time>
      </trkpt>
      <trkpt lat="43.97487" lon="7.3384">
        <ele>1103</ele>
        <time>2019-04-20T09:14:41.000Z</time>
      </trkpt>
      <trkpt lat="43.97487" lon="7.33841">
        <ele>1103.1999511719</ele>
        <time>2019-04-20T09:14:52.000Z</time>
      </trkpt>
      <trkpt lat="43.97486" lon="7.33842">
        <ele>1103.1999511719</ele>
        <time>2019-04-20T09:14:59.000Z</time>
      </trkpt>
      <trkpt lat="43.97486" lon="7.33842">
        <ele>1103.4000244141</ele>
        <time>2019-04-20T09:15:06.000Z</time>
      </trkpt>
      <trkpt lat="43.97485" lon="7.33843">
        <ele>1103.1999511719</ele>
        <time>2019-04-20T09:15:23.000Z</time>
      </trkpt>
      <trkpt lat="43.97485" lon="7.33844">
        <ele>1103.1999511719</ele>
        <time>2019-04-20T09:15:35.000Z</time>
      </trkpt>
      <trkpt lat="43.97485" lon="7.33845">
        <ele>1103.1999511719</ele>
        <time>2019-04-20T09:15:44.000Z</time>
      </trkpt>
      <trkpt lat="43.97486" lon="7.33847">
        <ele>1103.5999755859</ele>
        <time>2019-04-20T09:15:53.000Z</time>
      </trkpt>
      <trkpt lat="43.97485" lon="7.33847">
        <ele>1103.4000244141</ele>
        <time>2019-04-20T09:16:00.000Z</time>
      </trkpt>
      <trkpt lat="43.97487" lon="7.33846">
        <ele>1103.4000244141</ele>
        <time>2019-04-20T09:16:16.000Z</time>
      </trkpt>
      <trkpt lat="43.97487" lon="7.33845">
        <ele>1103.4000244141</ele>
        <time>2019-04-20T09:16:32.000Z</time>
      </trkpt>
      <trkpt lat="43.97487" lon="7.33844">
        <ele>1103.4000244141</ele>
        <time>2019-04-20T09:16:49.000Z</time>
      </trkpt>
      <trkpt lat="43.97486" lon="7.33842">
        <ele>1103.5999755859</ele>
        <time>2019-04-20T09:17:02.000Z</time>
      </trkpt>
      <trkpt lat="43.97485" lon="7.33841">
        <ele>1103.5999755859</ele>
        <time>2019-04-20T09:17:11.000Z</time>
      </trkpt>
      <trkpt lat="43.97486" lon="7.3384">
        <ele>1103.1999511719</ele>
        <time>2019-04-20T09:17:17.000Z</time>
      </trkpt>
      <trkpt lat="43.97486" lon="7.33841">
        <ele>1103.4000244141</ele>
        <time>2019-04-20T09:17:26.000Z</time>
      </trkpt>
      <trkpt lat="43.97485" lon="7.33843">
        <ele>1103.5999755859</ele>
        <time>2019-04-20T09:17:34.000Z</time>
      </trkpt>
      <trkpt lat="43.97484" lon="7.33848">
        <ele>1103.5999755859</ele>
        <time>2019-04-20T09:17:42.000Z</time>
      </trkpt>
      <trkpt lat="43.97483" lon="7.3385">
        <ele>1103.5999755859</ele>
        <time>2019-04-20T09:17:48.000Z</time>
      </trkpt>
      <trkpt lat="43.97483" lon="7.33851">
        <ele>1103.5999755859</ele>
        <time>2019-04-20T09:17:57.000Z</time>
      </trkpt>
      <trkpt lat="43.97482" lon="7.33852">
        <ele>1103.5999755859</ele>
        <time>2019-04-20T09:17:58.000Z</time>
      </trkpt>
      <trkpt lat="43.97478" lon="7.33856">
        <ele>1103.4000244141</ele>
        <time>2019-04-20T09:18:02.000Z</time>
      </trkpt>
      <trkpt lat="43.97473" lon="7.33865">
        <ele>1103.1999511719</ele>
        <time>2019-04-20T09:18:07.000Z</time>
      </trkpt>
      <trkpt lat="43.97469" lon="7.3387">
        <ele>1103.1999511719</ele>
        <time>2019-04-20T09:18:10.000Z</time>
      </trkpt>
      <trkpt lat="43.97464" lon="7.33874">
        <ele>1103.4000244141</ele>
        <time>2019-04-20T09:18:14.000Z</time>
      </trkpt>
      <trkpt lat="43.97462" lon="7.33877">
        <ele>1103.8000488281</ele>
        <time>2019-04-20T09:18:16.000Z</time>
      </trkpt>
      <trkpt lat="43.97458" lon="7.33884">
        <ele>1104.1999511719</ele>
        <time>2019-04-20T09:18:19.000Z</time>
      </trkpt>
      <trkpt lat="43.97452" lon="7.33894">
        <ele>1103.8000488281</ele>
        <time>2019-04-20T09:18:23.000Z</time>
      </trkpt>
      <trkpt lat="43.97451" lon="7.33896">
        <ele>1103.8000488281</ele>
        <time>2019-04-20T09:18:24.000Z</time>
      </trkpt>
      <trkpt lat="43.97451" lon="7.33906">
        <ele>1103.5999755859</ele>
        <time>2019-04-20T09:18:28.000Z</time>
      </trkpt>
      <trkpt lat="43.97454" lon="7.33922">
        <ele>1103.8000488281</ele>
        <time>2019-04-20T09:18:34.000Z</time>
      </trkpt>
      <trkpt lat="43.97458" lon="7.3393">
        <ele>1104.4000244141</ele>
        <time>2019-04-20T09:18:38.000Z</time>
      </trkpt>
      <trkpt lat="43.97461" lon="7.33935">
        <ele>1105.1999511719</ele>
        <time>2019-04-20T09:18:41.000Z</time>
      </trkpt>
      <trkpt lat="43.97462" lon="7.33936">
        <ele>1105.4000244141</ele>
        <time>2019-04-20T09:18:42.000Z</time>
      </trkpt>
      <trkpt lat="43.97464" lon="7.33938">
        <ele>1105.8000488281</ele>
        <time>2019-04-20T09:18:44.000Z</time>
      </trkpt>
      <trkpt lat="43.97466" lon="7.33941">
        <ele>1106.1999511719</ele>
        <time>2019-04-20T09:18:47.000Z</time>
      </trkpt>
      <trkpt lat="43.97467" lon="7.33941">
        <ele>1106.1999511719</ele>
        <time>2019-04-20T09:18:48.000Z</time>
      </trkpt>
      <trkpt lat="43.9747" lon="7.33943">
        <ele>1106.5999755859</ele>
        <time>2019-04-20T09:18:50.000Z</time>
      </trkpt>
      <trkpt lat="43.97478" lon="7.33949">
        <ele>1107.1999511719</ele>
        <time>2019-04-20T09:18:54.000Z</time>
      </trkpt>
      <trkpt lat="43.97484" lon="7.33954">
        <ele>1107.5999755859</ele>
        <time>2019-04-20T09:18:57.000Z</time>
      </trkpt>
      <trkpt lat="43.97491" lon="7.33965">
        <ele>1108</ele>
        <time>2019-04-20T09:19:02.000Z</time>
      </trkpt>
      <trkpt lat="43.97496" lon="7.33975">
        <ele>1108.5999755859</ele>
        <time>2019-04-20T09:19:06.000Z</time>
      </trkpt>
      <trkpt lat="43.975" lon="7.33987">
        <ele>1109</ele>
        <time>2019-04-20T09:19:09.000Z</time>
      </trkpt>
      <trkpt lat="43.97501" lon="7.33989">
        <ele>1109.4000244141</ele>
        <time>2019-04-20T09:19:10.000Z</time>
      </trkpt>
      <trkpt lat="43.97504" lon="7.33996">
        <ele>1109.5999755859</ele>
        <time>2019-04-20T09:19:12.000Z</time>
      </trkpt>
      <trkpt lat="43.97507" lon="7.34002">
        <ele>1109.8000488281</ele>
        <time>2019-04-20T09:19:14.000Z</time>
      </trkpt>
      <trkpt lat="43.97515" lon="7.34019">
        <ele>1110.5999755859</ele>
        <time>2019-04-20T09:19:20.000Z</time>
      </trkpt>
      <trkpt lat="43.97522" lon="7.3403">
        <ele>1110.5999755859</ele>
        <time>2019-04-20T09:19:24.000Z</time>
      </trkpt>
      <trkpt lat="43.97528" lon="7.3404">
        <ele>1111</ele>
        <time>2019-04-20T09:19:28.000Z</time>
      </trkpt>
      <trkpt lat="43.97531" lon="7.34046">
        <ele>1111.4000244141</ele>
        <time>2019-04-20T09:19:30.000Z</time>
      </trkpt>
      <trkpt lat="43.97534" lon="7.34055">
        <ele>1111.5999755859</ele>
        <time>2019-04-20T09:19:33.000Z</time>
      </trkpt>
      <trkpt lat="43.97535" lon="7.34058">
        <ele>1111.8000488281</ele>
        <time>2019-04-20T09:19:34.000Z</time>
      </trkpt>
      <trkpt lat="43.97542" lon="7.3407">
        <ele>1112.1999511719</ele>
        <time>2019-04-20T09:19:39.000Z</time>
      </trkpt>
      <trkpt lat="43.97548" lon="7.34082">
        <ele>1112.8000488281</ele>
        <time>2019-04-20T09:19:44.000Z</time>
      </trkpt>
      <trkpt lat="43.97548" lon="7.34084">
        <ele>1113.1999511719</ele>
        <time>2019-04-20T09:19:45.000Z</time>
      </trkpt>
      <trkpt lat="43.97548" lon="7.341">
        <ele>1113.8000488281</ele>
        <time>2019-04-20T09:19:50.000Z</time>
      </trkpt>
      <trkpt lat="43.97546" lon="7.3411">
        <ele>1113.8000488281</ele>
        <time>2019-04-20T09:19:53.000Z</time>
      </trkpt>
      <trkpt lat="43.97541" lon="7.34125">
        <ele>1114.1999511719</ele>
        <time>2019-04-20T09:19:58.000Z</time>
      </trkpt>
      <trkpt lat="43.97536" lon="7.34137">
        <ele>1115</ele>
        <time>2019-04-20T09:20:02.000Z</time>
      </trkpt>
      <trkpt lat="43.97531" lon="7.34147">
        <ele>1115.5999755859</ele>
        <time>2019-04-20T09:20:06.000Z</time>
      </trkpt>
      <trkpt lat="43.97526" lon="7.34157">
        <ele>1116.1999511719</ele>
        <time>2019-04-20T09:20:10.000Z</time>
      </trkpt>
      <trkpt lat="43.97522" lon="7.34164">
        <ele>1116.5999755859</ele>
        <time>2019-04-20T09:20:13.000Z</time>
      </trkpt>
      <trkpt lat="43.9752" lon="7.34173">
        <ele>1117.1999511719</ele>
        <time>2019-04-20T09:20:16.000Z</time>
      </trkpt>
      <trkpt lat="43.97519" lon="7.34178">
        <ele>1117.5999755859</ele>
        <time>2019-04-20T09:20:18.000Z</time>
      </trkpt>
      <trkpt lat="43.97518" lon="7.34181">
        <ele>1117.5999755859</ele>
        <time>2019-04-20T09:20:19.000Z</time>
      </trkpt>
      <trkpt lat="43.97515" lon="7.34188">
        <ele>1118.4000244141</ele>
        <time>2019-04-20T09:20:22.000Z</time>
      </trkpt>
      <trkpt lat="43.97508" lon="7.34197">
        <ele>1119.4000244141</ele>
        <time>2019-04-20T09:20:27.000Z</time>
      </trkpt>
      <trkpt lat="43.97496" lon="7.34208">
        <ele>1120.4000244141</ele>
        <time>2019-04-20T09:20:34.000Z</time>
      </trkpt>
      <trkpt lat="43.97493" lon="7.3421">
        <ele>1120.8000488281</ele>
        <time>2019-04-20T09:20:36.000Z</time>
      </trkpt>
      <trkpt lat="43.97488" lon="7.34212">
        <ele>1121.8000488281</ele>
        <time>2019-04-20T09:20:39.000Z</time>
      </trkpt>
      <trkpt lat="43.97483" lon="7.34213">
        <ele>1122.4000244141</ele>
        <time>2019-04-20T09:20:42.000Z</time>
      </trkpt>
      <trkpt lat="43.97476" lon="7.34219">
        <ele>1122.8000488281</ele>
        <time>2019-04-20T09:20:46.000Z</time>
      </trkpt>
      <trkpt lat="43.97473" lon="7.34222">
        <ele>1123</ele>
        <time>2019-04-20T09:20:48.000Z</time>
      </trkpt>
      <trkpt lat="43.9747" lon="7.34227">
        <ele>1123.4000244141</ele>
        <time>2019-04-20T09:20:50.000Z</time>
      </trkpt>
      <trkpt lat="43.97468" lon="7.34235">
        <ele>1124</ele>
        <time>2019-04-20T09:20:53.000Z</time>
      </trkpt>
      <trkpt lat="43.97466" lon="7.34239">
        <ele>1124.1999511719</ele>
        <time>2019-04-20T09:20:55.000Z</time>
      </trkpt>
      <trkpt lat="43.97463" lon="7.34248">
        <ele>1125</ele>
        <time>2019-04-20T09:20:59.000Z</time>
      </trkpt>
      <trkpt lat="43.9746" lon="7.34254">
        <ele>1125.5999755859</ele>
        <time>2019-04-20T09:21:02.000Z</time>
      </trkpt>
      <trkpt lat="43.97458" lon="7.3426">
        <ele>1126.1999511719</ele>
        <time>2019-04-20T09:21:05.000Z</time>
      </trkpt>
      <trkpt lat="43.97454" lon="7.3427">
        <ele>1127.1999511719</ele>
        <time>2019-04-20T09:21:10.000Z</time>
      </trkpt>
      <trkpt lat="43.97454" lon="7.34272">
        <ele>1127.4000244141</ele>
        <time>2019-04-20T09:21:11.000Z</time>
      </trkpt>
      <trkpt lat="43.97447" lon="7.34283">
        <ele>1128.4000244141</ele>
        <time>2019-04-20T09:21:17.000Z</time>
      </trkpt>
      <trkpt lat="43.9744" lon="7.34287">
        <ele>1129.4000244141</ele>
        <time>2019-04-20T09:21:23.000Z</time>
      </trkpt>
      <trkpt lat="43.97434" lon="7.34289">
        <ele>1130.4000244141</ele>
        <time>2019-04-20T09:21:27.000Z</time>
      </trkpt>
      <trkpt lat="43.9743" lon="7.34289">
        <ele>1131.1999511719</ele>
        <time>2019-04-20T09:21:31.000Z</time>
      </trkpt>
      <trkpt lat="43.97426" lon="7.3429">
        <ele>1131.5999755859</ele>
        <time>2019-04-20T09:21:34.000Z</time>
      </trkpt>
      <trkpt lat="43.97422" lon="7.34292">
        <ele>1132.5999755859</ele>
        <time>2019-04-20T09:21:38.000Z</time>
      </trkpt>
      <trkpt lat="43.9742" lon="7.34292">
        <ele>1132.8000488281</ele>
        <time>2019-04-20T09:21:39.000Z</time>
      </trkpt>
      <trkpt lat="43.97414" lon="7.34297">
        <ele>1134</ele>
        <time>2019-04-20T09:21:45.000Z</time>
      </trkpt>
      <trkpt lat="43.97413" lon="7.34298">
        <ele>1134.1999511719</ele>
        <time>2019-04-20T09:21:46.000Z</time>
      </trkpt>
      <trkpt lat="43.97407" lon="7.34308">
        <ele>1135</ele>
        <time>2019-04-20T09:21:52.000Z</time>
      </trkpt>
      <trkpt lat="43.97406" lon="7.3431">
        <ele>1135</ele>
        <time>2019-04-20T09:21:53.000Z</time>
      </trkpt>
      <trkpt lat="43.97402" lon="7.34323">
        <ele>1136</ele>
        <time>2019-04-20T09:22:00.000Z</time>
      </trkpt>
      <trkpt lat="43.97396" lon="7.34335">
        <ele>1137.1999511719</ele>
        <time>2019-04-20T09:22:07.000Z</time>
      </trkpt>
      <trkpt lat="43.97395" lon="7.34336">
        <ele>1137.4000244141</ele>
        <time>2019-04-20T09:22:08.000Z</time>
      </trkpt>
      <trkpt lat="43.97391" lon="7.34338">
        <ele>1137.8000488281</ele>
        <time>2019-04-20T09:22:11.000Z</time>
      </trkpt>
      <trkpt lat="43.97388" lon="7.34338">
        <ele>1138.1999511719</ele>
        <time>2019-04-20T09:22:13.000Z</time>
      </trkpt>
      <trkpt lat="43.97387" lon="7.34338">
        <ele>1138.4000244141</ele>
        <time>2019-04-20T09:22:14.000Z</time>
      </trkpt>
      <trkpt lat="43.97378" lon="7.34338">
        <ele>1139.1999511719</ele>
        <time>2019-04-20T09:22:21.000Z</time>
      </trkpt>
      <trkpt lat="43.97376" lon="7.34338">
        <ele>1139.4000244141</ele>
        <time>2019-04-20T09:22:22.000Z</time>
      </trkpt>
      <trkpt lat="43.9737" lon="7.34339">
        <ele>1140.5999755859</ele>
        <time>2019-04-20T09:22:27.000Z</time>
      </trkpt>
      <trkpt lat="43.97368" lon="7.34339">
        <ele>1140.8000488281</ele>
        <time>2019-04-20T09:22:29.000Z</time>
      </trkpt>
      <trkpt lat="43.97362" lon="7.34342">
        <ele>1141.5999755859</ele>
        <time>2019-04-20T09:22:34.000Z</time>
      </trkpt>
      <trkpt lat="43.97359" lon="7.34343">
        <ele>1141.8000488281</ele>
        <time>2019-04-20T09:22:36.000Z</time>
      </trkpt>
      <trkpt lat="43.97354" lon="7.34349">
        <ele>1142.5999755859</ele>
        <time>2019-04-20T09:22:41.000Z</time>
      </trkpt>
      <trkpt lat="43.97351" lon="7.34356">
        <ele>1143</ele>
        <time>2019-04-20T09:22:45.000Z</time>
      </trkpt>
      <trkpt lat="43.97349" lon="7.34366">
        <ele>1143.5999755859</ele>
        <time>2019-04-20T09:22:50.000Z</time>
      </trkpt>
      <trkpt lat="43.97348" lon="7.3437">
        <ele>1143.8000488281</ele>
        <time>2019-04-20T09:22:52.000Z</time>
      </trkpt>
      <trkpt lat="43.97346" lon="7.3438">
        <ele>1144.8000488281</ele>
        <time>2019-04-20T09:22:57.000Z</time>
      </trkpt>
      <trkpt lat="43.97344" lon="7.34386">
        <ele>1145.1999511719</ele>
        <time>2019-04-20T09:23:00.000Z</time>
      </trkpt>
      <trkpt lat="43.97339" lon="7.344">
        <ele>1145.8000488281</ele>
        <time>2019-04-20T09:23:06.000Z</time>
      </trkpt>
      <trkpt lat="43.97338" lon="7.34402">
        <ele>1145.8000488281</ele>
        <time>2019-04-20T09:23:07.000Z</time>
      </trkpt>
      <trkpt lat="43.9733" lon="7.34409">
        <ele>1146.4000244141</ele>
        <time>2019-04-20T09:23:12.000Z</time>
      </trkpt>
      <trkpt lat="43.97324" lon="7.34413">
        <ele>1146.8000488281</ele>
        <time>2019-04-20T09:23:16.000Z</time>
      </trkpt>
      <trkpt lat="43.97316" lon="7.3442">
        <ele>1147.5999755859</ele>
        <time>2019-04-20T09:23:21.000Z</time>
      </trkpt>
      <trkpt lat="43.97312" lon="7.34425">
        <ele>1148</ele>
        <time>2019-04-20T09:23:24.000Z</time>
      </trkpt>
      <trkpt lat="43.97306" lon="7.34437">
        <ele>1148.4000244141</ele>
        <time>2019-04-20T09:23:29.000Z</time>
      </trkpt>
      <trkpt lat="43.97302" lon="7.34443">
        <ele>1149</ele>
        <time>2019-04-20T09:23:32.000Z</time>
      </trkpt>
      <trkpt lat="43.97293" lon="7.34451">
        <ele>1149.4000244141</ele>
        <time>2019-04-20T09:23:37.000Z</time>
      </trkpt>
      <trkpt lat="43.97289" lon="7.34454">
        <ele>1150</ele>
        <time>2019-04-20T09:23:40.000Z</time>
      </trkpt>
      <trkpt lat="43.97281" lon="7.34461">
        <ele>1151.1999511719</ele>
        <time>2019-04-20T09:23:45.000Z</time>
      </trkpt>
      <trkpt lat="43.9728" lon="7.34462">
        <ele>1151.4000244141</ele>
        <time>2019-04-20T09:23:46.000Z</time>
      </trkpt>
      <trkpt lat="43.97275" lon="7.34475">
        <ele>1152</ele>
        <time>2019-04-20T09:23:51.000Z</time>
      </trkpt>
      <trkpt lat="43.97273" lon="7.34478">
        <ele>1152.1999511719</ele>
        <time>2019-04-20T09:23:53.000Z</time>
      </trkpt>
      <trkpt lat="43.97268" lon="7.34487">
        <ele>1153</ele>
        <time>2019-04-20T09:23:57.000Z</time>
      </trkpt>
      <trkpt lat="43.97268" lon="7.34488">
        <ele>1153.1999511719</ele>
        <time>2019-04-20T09:23:58.000Z</time>
      </trkpt>
      <trkpt lat="43.97267" lon="7.3449">
        <ele>1153.5999755859</ele>
        <time>2019-04-20T09:24:01.000Z</time>
      </trkpt>
      <trkpt lat="43.97267" lon="7.34493">
        <ele>1154</ele>
        <time>2019-04-20T09:24:11.000Z</time>
      </trkpt>
      <trkpt lat="43.97264" lon="7.34504">
        <ele>1154</ele>
        <time>2019-04-20T09:24:16.000Z</time>
      </trkpt>
      <trkpt lat="43.97262" lon="7.34511">
        <ele>1154.1999511719</ele>
        <time>2019-04-20T09:24:19.000Z</time>
      </trkpt>
      <trkpt lat="43.97261" lon="7.34513">
        <ele>1154.4000244141</ele>
        <time>2019-04-20T09:24:20.000Z</time>
      </trkpt>
      <trkpt lat="43.97259" lon="7.34519">
        <ele>1154.8000488281</ele>
        <time>2019-04-20T09:24:22.000Z</time>
      </trkpt>
      <trkpt lat="43.97256" lon="7.34526">
        <ele>1155.1999511719</ele>
        <time>2019-04-20T09:24:25.000Z</time>
      </trkpt>
      <trkpt lat="43.97253" lon="7.34531">
        <ele>1155.4000244141</ele>
        <time>2019-04-20T09:24:27.000Z</time>
      </trkpt>
      <trkpt lat="43.97249" lon="7.34534">
        <ele>1155.4000244141</ele>
        <time>2019-04-20T09:24:29.000Z</time>
      </trkpt>
      <trkpt lat="43.97244" lon="7.3454">
        <ele>1155.5999755859</ele>
        <time>2019-04-20T09:24:33.000Z</time>
      </trkpt>
      <trkpt lat="43.97244" lon="7.34539">
        <ele>1155.8000488281</ele>
        <time>2019-04-20T09:24:34.000Z</time>
      </trkpt>
      <trkpt lat="43.97246" lon="7.34539">
        <ele>1156</ele>
        <time>2019-04-20T09:24:37.000Z</time>
      </trkpt>
      <trkpt lat="43.97248" lon="7.34539">
        <ele>1156.1999511719</ele>
        <time>2019-04-20T09:24:38.000Z</time>
      </trkpt>
      <trkpt lat="43.97252" lon="7.34539">
        <ele>1156.5999755859</ele>
        <time>2019-04-20T09:24:40.000Z</time>
      </trkpt>
      <trkpt lat="43.9726" lon="7.3454">
        <ele>1157.8000488281</ele>
        <time>2019-04-20T09:24:44.000Z</time>
      </trkpt>
      <trkpt lat="43.97265" lon="7.34541">
        <ele>1158.1999511719</ele>
        <time>2019-04-20T09:24:46.000Z</time>
      </trkpt>
      <trkpt lat="43.9727" lon="7.34546">
        <ele>1158.8000488281</ele>
        <time>2019-04-20T09:24:49.000Z</time>
      </trkpt>
      <trkpt lat="43.97272" lon="7.34551">
        <ele>1159</ele>
        <time>2019-04-20T09:24:51.000Z</time>
      </trkpt>
      <trkpt lat="43.97276" lon="7.34555">
        <ele>1159.4000244141</ele>
        <time>2019-04-20T09:24:53.000Z</time>
      </trkpt>
      <trkpt lat="43.97281" lon="7.34557">
        <ele>1159.8000488281</ele>
        <time>2019-04-20T09:24:55.000Z</time>
      </trkpt>
      <trkpt lat="43.97287" lon="7.34559">
        <ele>1160</ele>
        <time>2019-04-20T09:24:58.000Z</time>
      </trkpt>
      <trkpt lat="43.97294" lon="7.34562">
        <ele>1161</ele>
        <time>2019-04-20T09:25:02.000Z</time>
      </trkpt>
      <trkpt lat="43.97295" lon="7.34563">
        <ele>1161.1999511719</ele>
        <time>2019-04-20T09:25:03.000Z</time>
      </trkpt>
      <trkpt lat="43.97298" lon="7.34567">
        <ele>1162.1999511719</ele>
        <time>2019-04-20T09:25:06.000Z</time>
      </trkpt>
      <trkpt lat="43.973" lon="7.34573">
        <ele>1162.1999511719</ele>
        <time>2019-04-20T09:25:08.000Z</time>
      </trkpt>
      <trkpt lat="43.97302" lon="7.34579">
        <ele>1162.5999755859</ele>
        <time>2019-04-20T09:25:10.000Z</time>
      </trkpt>
      <trkpt lat="43.97305" lon="7.34594">
        <ele>1163.4000244141</ele>
        <time>2019-04-20T09:25:14.000Z</time>
      </trkpt>
      <trkpt lat="43.97308" lon="7.34601">
        <ele>1163.5999755859</ele>
        <time>2019-04-20T09:25:16.000Z</time>
      </trkpt>
      <trkpt lat="43.97313" lon="7.34603">
        <ele>1164.1999511719</ele>
        <time>2019-04-20T09:25:18.000Z</time>
      </trkpt>
      <trkpt lat="43.97317" lon="7.34604">
        <ele>1164.5999755859</ele>
        <time>2019-04-20T09:25:20.000Z</time>
      </trkpt>
      <trkpt lat="43.97326" lon="7.34602">
        <ele>1165.5999755859</ele>
        <time>2019-04-20T09:25:24.000Z</time>
      </trkpt>
      <trkpt lat="43.97328" lon="7.34601">
        <ele>1165.8000488281</ele>
        <time>2019-04-20T09:25:25.000Z</time>
      </trkpt>
      <trkpt lat="43.97339" lon="7.346">
        <ele>1166.8000488281</ele>
        <time>2019-04-20T09:25:30.000Z</time>
      </trkpt>
      <trkpt lat="43.97341" lon="7.346">
        <ele>1167</ele>
        <time>2019-04-20T09:25:31.000Z</time>
      </trkpt>
      <trkpt lat="43.97349" lon="7.34601">
        <ele>1167.8000488281</ele>
        <time>2019-04-20T09:25:35.000Z</time>
      </trkpt>
      <trkpt lat="43.97351" lon="7.34602">
        <ele>1168</ele>
        <time>2019-04-20T09:25:36.000Z</time>
      </trkpt>
      <trkpt lat="43.97363" lon="7.3461">
        <ele>1169</ele>
        <time>2019-04-20T09:25:42.000Z</time>
      </trkpt>
      <trkpt lat="43.97375" lon="7.34622">
        <ele>1169.5999755859</ele>
        <time>2019-04-20T09:25:48.000Z</time>
      </trkpt>
      <trkpt lat="43.97375" lon="7.34625">
        <ele>1169.8000488281</ele>
        <time>2019-04-20T09:25:49.000Z</time>
      </trkpt>
      <trkpt lat="43.97376" lon="7.34628">
        <ele>1170</ele>
        <time>2019-04-20T09:25:50.000Z</time>
      </trkpt>
      <trkpt lat="43.97377" lon="7.34631">
        <ele>1170.1999511719</ele>
        <time>2019-04-20T09:25:51.000Z</time>
      </trkpt>
      <trkpt lat="43.97379" lon="7.3464">
        <ele>1170.8000488281</ele>
        <time>2019-04-20T09:25:53.000Z</time>
      </trkpt>
      <trkpt lat="43.97379" lon="7.34645">
        <ele>1171</ele>
        <time>2019-04-20T09:25:54.000Z</time>
      </trkpt>
      <trkpt lat="43.97412" lon="7.34677">
        <ele>1174.5999755859</ele>
        <time>2019-04-20T09:26:11.000Z</time>
      </trkpt>
      <trkpt lat="43.97418" lon="7.34684">
        <ele>1175.4000244141</ele>
        <time>2019-04-20T09:26:15.000Z</time>
      </trkpt>
      <trkpt lat="43.9742" lon="7.34685">
        <ele>1175.5999755859</ele>
        <time>2019-04-20T09:26:16.000Z</time>
      </trkpt>
      <trkpt lat="43.97426" lon="7.34689">
        <ele>1176.4000244141</ele>
        <time>2019-04-20T09:26:19.000Z</time>
      </trkpt>
      <trkpt lat="43.97432" lon="7.34693">
        <ele>1177</ele>
        <time>2019-04-20T09:26:23.000Z</time>
      </trkpt>
      <trkpt lat="43.97437" lon="7.34699">
        <ele>1177.5999755859</ele>
        <time>2019-04-20T09:26:26.000Z</time>
      </trkpt>
      <trkpt lat="43.9744" lon="7.34704">
        <ele>1177.5999755859</ele>
        <time>2019-04-20T09:26:28.000Z</time>
      </trkpt>
      <trkpt lat="43.97447" lon="7.34719">
        <ele>1178.4000244141</ele>
        <time>2019-04-20T09:26:33.000Z</time>
      </trkpt>
      <trkpt lat="43.97448" lon="7.34721">
        <ele>1178.5999755859</ele>
        <time>2019-04-20T09:26:34.000Z</time>
      </trkpt>
      <trkpt lat="43.97449" lon="7.34723">
        <ele>1178.8000488281</ele>
        <time>2019-04-20T09:26:35.000Z</time>
      </trkpt>
      <trkpt lat="43.97453" lon="7.34724">
        <ele>1179</ele>
        <time>2019-04-20T09:26:37.000Z</time>
      </trkpt>
      <trkpt lat="43.97459" lon="7.34725">
        <ele>1179.5999755859</ele>
        <time>2019-04-20T09:26:40.000Z</time>
      </trkpt>
      <trkpt lat="43.97467" lon="7.34725">
        <ele>1180.4000244141</ele>
        <time>2019-04-20T09:26:44.000Z</time>
      </trkpt>
      <trkpt lat="43.9747" lon="7.34725">
        <ele>1180.8000488281</ele>
        <time>2019-04-20T09:26:46.000Z</time>
      </trkpt>
      <trkpt lat="43.97482" lon="7.34724">
        <ele>1181.8000488281</ele>
        <time>2019-04-20T09:26:52.000Z</time>
      </trkpt>
      <trkpt lat="43.97483" lon="7.34725">
        <ele>1182</ele>
        <time>2019-04-20T09:26:53.000Z</time>
      </trkpt>
      <trkpt lat="43.97491" lon="7.34729">
        <ele>1182.4000244141</ele>
        <time>2019-04-20T09:26:58.000Z</time>
      </trkpt>
      <trkpt lat="43.97496" lon="7.34737">
        <ele>1183</ele>
        <time>2019-04-20T09:27:02.000Z</time>
      </trkpt>
      <trkpt lat="43.975" lon="7.34743">
        <ele>1183.4000244141</ele>
        <time>2019-04-20T09:27:05.000Z</time>
      </trkpt>
      <trkpt lat="43.97503" lon="7.34746">
        <ele>1183.8000488281</ele>
        <time>2019-04-20T09:27:07.000Z</time>
      </trkpt>
      <trkpt lat="43.97508" lon="7.34749">
        <ele>1184.1999511719</ele>
        <time>2019-04-20T09:27:10.000Z</time>
      </trkpt>
      <trkpt lat="43.97512" lon="7.3475">
        <ele>1184.5999755859</ele>
        <time>2019-04-20T09:27:12.000Z</time>
      </trkpt>
      <trkpt lat="43.97514" lon="7.34751">
        <ele>1184.5999755859</ele>
        <time>2019-04-20T09:27:13.000Z</time>
      </trkpt>
      <trkpt lat="43.97519" lon="7.34753">
        <ele>1185.1999511719</ele>
        <time>2019-04-20T09:27:16.000Z</time>
      </trkpt>
      <trkpt lat="43.97527" lon="7.34754">
        <ele>1186</ele>
        <time>2019-04-20T09:27:20.000Z</time>
      </trkpt>
      <trkpt lat="43.9753" lon="7.34756">
        <ele>1186.4000244141</ele>
        <time>2019-04-20T09:27:22.000Z</time>
      </trkpt>
      <trkpt lat="43.97538" lon="7.34763">
        <ele>1187</ele>
        <time>2019-04-20T09:27:26.000Z</time>
      </trkpt>
      <trkpt lat="43.97539" lon="7.34768">
        <ele>1187.4000244141</ele>
        <time>2019-04-20T09:27:28.000Z</time>
      </trkpt>
      <trkpt lat="43.97538" lon="7.34773">
        <ele>1187.8000488281</ele>
        <time>2019-04-20T09:27:30.000Z</time>
      </trkpt>
      <trkpt lat="43.97529" lon="7.3478">
        <ele>1188.5999755859</ele>
        <time>2019-04-20T09:27:35.000Z</time>
      </trkpt>
      <trkpt lat="43.97514" lon="7.34782">
        <ele>1189</ele>
        <time>2019-04-20T09:27:42.000Z</time>
      </trkpt>
      <trkpt lat="43.975" lon="7.34788">
        <ele>1189.4000244141</ele>
        <time>2019-04-20T09:27:48.000Z</time>
      </trkpt>
      <trkpt lat="43.97498" lon="7.34789">
        <ele>1189.5999755859</ele>
        <time>2019-04-20T09:27:49.000Z</time>
      </trkpt>
      <trkpt lat="43.97483" lon="7.34802">
        <ele>1190.1999511719</ele>
        <time>2019-04-20T09:27:55.000Z</time>
      </trkpt>
      <trkpt lat="43.97469" lon="7.3482">
        <ele>1190.4000244141</ele>
        <time>2019-04-20T09:28:01.000Z</time>
      </trkpt>
      <trkpt lat="43.9746" lon="7.34835">
        <ele>1190.4000244141</ele>
        <time>2019-04-20T09:28:05.000Z</time>
      </trkpt>
      <trkpt lat="43.97455" lon="7.34842">
        <ele>1190.4000244141</ele>
        <time>2019-04-20T09:28:07.000Z</time>
      </trkpt>
      <trkpt lat="43.97449" lon="7.34855">
        <ele>1190.4000244141</ele>
        <time>2019-04-20T09:28:10.000Z</time>
      </trkpt>
      <trkpt lat="43.97444" lon="7.34863">
        <ele>1190.5999755859</ele>
        <time>2019-04-20T09:28:12.000Z</time>
      </trkpt>
      <trkpt lat="43.9744" lon="7.34877">
        <ele>1190.8000488281</ele>
        <time>2019-04-20T09:28:15.000Z</time>
      </trkpt>
      <trkpt lat="43.97435" lon="7.34905">
        <ele>1191.1999511719</ele>
        <time>2019-04-20T09:28:21.000Z</time>
      </trkpt>
      <trkpt lat="43.97431" lon="7.34922">
        <ele>1191.5999755859</ele>
        <time>2019-04-20T09:28:25.000Z</time>
      </trkpt>
      <trkpt lat="43.97427" lon="7.34944">
        <ele>1192.1999511719</ele>
        <time>2019-04-20T09:28:30.000Z</time>
      </trkpt>
      <trkpt lat="43.97421" lon="7.34961">
        <ele>1193</ele>
        <time>2019-04-20T09:28:35.000Z</time>
      </trkpt>
      <trkpt lat="43.97416" lon="7.34979">
        <ele>1193.8000488281</ele>
        <time>2019-04-20T09:28:40.000Z</time>
      </trkpt>
      <trkpt lat="43.97415" lon="7.34982">
        <ele>1194</ele>
        <time>2019-04-20T09:28:41.000Z</time>
      </trkpt>
      <trkpt lat="43.9741" lon="7.35005">
        <ele>1194.8000488281</ele>
        <time>2019-04-20T09:28:47.000Z</time>
      </trkpt>
      <trkpt lat="43.97409" lon="7.35009">
        <ele>1195</ele>
        <time>2019-04-20T09:28:48.000Z</time>
      </trkpt>
      <trkpt lat="43.97402" lon="7.3503">
        <ele>1195.1999511719</ele>
        <time>2019-04-20T09:28:53.000Z</time>
      </trkpt>
      <trkpt lat="43.97392" lon="7.35054">
        <ele>1195.1999511719</ele>
        <time>2019-04-20T09:28:59.000Z</time>
      </trkpt>
      <trkpt lat="43.97377" lon="7.35081">
        <ele>1195.4000244141</ele>
        <time>2019-04-20T09:29:06.000Z</time>
      </trkpt>
      <trkpt lat="43.97367" lon="7.35091">
        <ele>1195.8000488281</ele>
        <time>2019-04-20T09:29:11.000Z</time>
      </trkpt>
      <trkpt lat="43.97365" lon="7.35093">
        <ele>1196.1999511719</ele>
        <time>2019-04-20T09:29:12.000Z</time>
      </trkpt>
      <trkpt lat="43.97357" lon="7.35101">
        <ele>1197.1999511719</ele>
        <time>2019-04-20T09:29:17.000Z</time>
      </trkpt>
      <trkpt lat="43.97355" lon="7.35102">
        <ele>1197.4000244141</ele>
        <time>2019-04-20T09:29:18.000Z</time>
      </trkpt>
      <trkpt lat="43.97342" lon="7.35105">
        <ele>1198.1999511719</ele>
        <time>2019-04-20T09:29:23.000Z</time>
      </trkpt>
      <trkpt lat="43.97326" lon="7.35113">
        <ele>1198</ele>
        <time>2019-04-20T09:29:29.000Z</time>
      </trkpt>
      <trkpt lat="43.97323" lon="7.35122">
        <ele>1198.4000244141</ele>
        <time>2019-04-20T09:29:33.000Z</time>
      </trkpt>
      <trkpt lat="43.97322" lon="7.35125">
        <ele>1198.8000488281</ele>
        <time>2019-04-20T09:29:34.000Z</time>
      </trkpt>
      <trkpt lat="43.9732" lon="7.35133">
        <ele>1199.5999755859</ele>
        <time>2019-04-20T09:29:37.000Z</time>
      </trkpt>
      <trkpt lat="43.97319" lon="7.35135">
        <ele>1199.8000488281</ele>
        <time>2019-04-20T09:29:38.000Z</time>
      </trkpt>
      <trkpt lat="43.97317" lon="7.35139">
        <ele>1200.1999511719</ele>
        <time>2019-04-20T09:29:40.000Z</time>
      </trkpt>
      <trkpt lat="43.97314" lon="7.35143">
        <ele>1200.5999755859</ele>
        <time>2019-04-20T09:29:42.000Z</time>
      </trkpt>
      <trkpt lat="43.97313" lon="7.35145">
        <ele>1200.8000488281</ele>
        <time>2019-04-20T09:29:43.000Z</time>
      </trkpt>
      <trkpt lat="43.97307" lon="7.3515">
        <ele>1201.4000244141</ele>
        <time>2019-04-20T09:29:46.000Z</time>
      </trkpt>
      <trkpt lat="43.97304" lon="7.3515">
        <ele>1201.5999755859</ele>
        <time>2019-04-20T09:29:48.000Z</time>
      </trkpt>
      <trkpt lat="43.97297" lon="7.35154">
        <ele>1202</ele>
        <time>2019-04-20T09:29:51.000Z</time>
      </trkpt>
      <trkpt lat="43.97288" lon="7.35161">
        <ele>1203.1999511719</ele>
        <time>2019-04-20T09:29:57.000Z</time>
      </trkpt>
      <trkpt lat="43.97284" lon="7.35164">
        <ele>1203.5999755859</ele>
        <time>2019-04-20T09:29:59.000Z</time>
      </trkpt>
      <trkpt lat="43.97274" lon="7.35174">
        <ele>1204.4000244141</ele>
        <time>2019-04-20T09:30:05.000Z</time>
      </trkpt>
      <trkpt lat="43.97267" lon="7.3518">
        <ele>1204.8000488281</ele>
        <time>2019-04-20T09:30:10.000Z</time>
      </trkpt>
      <trkpt lat="43.97262" lon="7.35183">
        <ele>1205.5999755859</ele>
        <time>2019-04-20T09:30:13.000Z</time>
      </trkpt>
      <trkpt lat="43.97256" lon="7.35191">
        <ele>1206.4000244141</ele>
        <time>2019-04-20T09:30:18.000Z</time>
      </trkpt>
      <trkpt lat="43.97253" lon="7.35195">
        <ele>1206.8000488281</ele>
        <time>2019-04-20T09:30:20.000Z</time>
      </trkpt>
      <trkpt lat="43.97248" lon="7.35204">
        <ele>1207</ele>
        <time>2019-04-20T09:30:24.000Z</time>
      </trkpt>
      <trkpt lat="43.97249" lon="7.35218">
        <ele>1207</ele>
        <time>2019-04-20T09:30:28.000Z</time>
      </trkpt>
      <trkpt lat="43.9725" lon="7.3522">
        <ele>1207.1999511719</ele>
        <time>2019-04-20T09:30:29.000Z</time>
      </trkpt>
      <trkpt lat="43.97256" lon="7.35229">
        <ele>1208</ele>
        <time>2019-04-20T09:30:33.000Z</time>
      </trkpt>
      <trkpt lat="43.97257" lon="7.35229">
        <ele>1208</ele>
        <time>2019-04-20T09:30:34.000Z</time>
      </trkpt>
      <trkpt lat="43.97257" lon="7.3523">
        <ele>1208</ele>
        <time>2019-04-20T09:30:35.000Z</time>
      </trkpt>
      <trkpt lat="43.97262" lon="7.35236">
        <ele>1208</ele>
        <time>2019-04-20T09:30:38.000Z</time>
      </trkpt>
      <trkpt lat="43.97268" lon="7.35244">
        <ele>1208.1999511719</ele>
        <time>2019-04-20T09:30:41.000Z</time>
      </trkpt>
      <trkpt lat="43.97271" lon="7.35248">
        <ele>1208.4000244141</ele>
        <time>2019-04-20T09:30:43.000Z</time>
      </trkpt>
      <trkpt lat="43.97277" lon="7.35248">
        <ele>1208.8000488281</ele>
        <time>2019-04-20T09:30:46.000Z</time>
      </trkpt>
      <trkpt lat="43.97279" lon="7.35248">
        <ele>1209</ele>
        <time>2019-04-20T09:30:47.000Z</time>
      </trkpt>
      <trkpt lat="43.97289" lon="7.35252">
        <ele>1209.8000488281</ele>
        <time>2019-04-20T09:30:53.000Z</time>
      </trkpt>
      <trkpt lat="43.97292" lon="7.35254">
        <ele>1210.1999511719</ele>
        <time>2019-04-20T09:30:55.000Z</time>
      </trkpt>
      <trkpt lat="43.97303" lon="7.35263">
        <ele>1211.4000244141</ele>
        <time>2019-04-20T09:31:02.000Z</time>
      </trkpt>
      <trkpt lat="43.97311" lon="7.3527">
        <ele>1212.1999511719</ele>
        <time>2019-04-20T09:31:07.000Z</time>
      </trkpt>
      <trkpt lat="43.97313" lon="7.35272">
        <ele>1212.4000244141</ele>
        <time>2019-04-20T09:31:09.000Z</time>
      </trkpt>
      <trkpt lat="43.97317" lon="7.35277">
        <ele>1212.8000488281</ele>
        <time>2019-04-20T09:31:12.000Z</time>
      </trkpt>
      <trkpt lat="43.97319" lon="7.35287">
        <ele>1213.4000244141</ele>
        <time>2019-04-20T09:31:15.000Z</time>
      </trkpt>
      <trkpt lat="43.97321" lon="7.35295">
        <ele>1213.8000488281</ele>
        <time>2019-04-20T09:31:17.000Z</time>
      </trkpt>
      <trkpt lat="43.97325" lon="7.35306">
        <ele>1214.5999755859</ele>
        <time>2019-04-20T09:31:21.000Z</time>
      </trkpt>
      <trkpt lat="43.97339" lon="7.35315">
        <ele>1215.5999755859</ele>
        <time>2019-04-20T09:31:29.000Z</time>
      </trkpt>
      <trkpt lat="43.97342" lon="7.35317">
        <ele>1216</ele>
        <time>2019-04-20T09:31:31.000Z</time>
      </trkpt>
      <trkpt lat="43.97345" lon="7.35325">
        <ele>1216.5999755859</ele>
        <time>2019-04-20T09:31:33.000Z</time>
      </trkpt>
      <trkpt lat="43.97346" lon="7.35327">
        <ele>1216.5999755859</ele>
        <time>2019-04-20T09:31:34.000Z</time>
      </trkpt>
      <trkpt lat="43.97349" lon="7.3533">
        <ele>1217</ele>
        <time>2019-04-20T09:31:37.000Z</time>
      </trkpt>
      <trkpt lat="43.9735" lon="7.35332">
        <ele>1217.1999511719</ele>
        <time>2019-04-20T09:31:38.000Z</time>
      </trkpt>
      <trkpt lat="43.97353" lon="7.35341">
        <ele>1217.4000244141</ele>
        <time>2019-04-20T09:31:43.000Z</time>
      </trkpt>
      <trkpt lat="43.97354" lon="7.35346">
        <ele>1217.8000488281</ele>
        <time>2019-04-20T09:31:45.000Z</time>
      </trkpt>
      <trkpt lat="43.97355" lon="7.35348">
        <ele>1217.8000488281</ele>
        <time>2019-04-20T09:31:46.000Z</time>
      </trkpt>
      <trkpt lat="43.97359" lon="7.35353">
        <ele>1218.1999511719</ele>
        <time>2019-04-20T09:31:49.000Z</time>
      </trkpt>
      <trkpt lat="43.97361" lon="7.35355">
        <ele>1218.1999511719</ele>
        <time>2019-04-20T09:31:50.000Z</time>
      </trkpt>
      <trkpt lat="43.9737" lon="7.35365">
        <ele>1218.8000488281</ele>
        <time>2019-04-20T09:31:56.000Z</time>
      </trkpt>
      <trkpt lat="43.97372" lon="7.35366">
        <ele>1218.8000488281</ele>
        <time>2019-04-20T09:31:57.000Z</time>
      </trkpt>
      <trkpt lat="43.97373" lon="7.35368">
        <ele>1219</ele>
        <time>2019-04-20T09:31:58.000Z</time>
      </trkpt>
      <trkpt lat="43.97375" lon="7.3537">
        <ele>1219.4000244141</ele>
        <time>2019-04-20T09:32:00.000Z</time>
      </trkpt>
      <trkpt lat="43.97379" lon="7.35372">
        <ele>1220</ele>
        <time>2019-04-20T09:32:03.000Z</time>
      </trkpt>
      <trkpt lat="43.97382" lon="7.35374">
        <ele>1220.1999511719</ele>
        <time>2019-04-20T09:32:05.000Z</time>
      </trkpt>
      <trkpt lat="43.9739" lon="7.35378">
        <ele>1221.1999511719</ele>
        <time>2019-04-20T09:32:10.000Z</time>
      </trkpt>
      <trkpt lat="43.97392" lon="7.35379">
        <ele>1221.1999511719</ele>
        <time>2019-04-20T09:32:11.000Z</time>
      </trkpt>
      <trkpt lat="43.974" lon="7.35383">
        <ele>1222.1999511719</ele>
        <time>2019-04-20T09:32:16.000Z</time>
      </trkpt>
      <trkpt lat="43.97405" lon="7.35387">
        <ele>1222.5999755859</ele>
        <time>2019-04-20T09:32:19.000Z</time>
      </trkpt>
      <trkpt lat="43.97415" lon="7.35401">
        <ele>1222.5999755859</ele>
        <time>2019-04-20T09:32:25.000Z</time>
      </trkpt>
      <trkpt lat="43.97417" lon="7.35407">
        <ele>1223</ele>
        <time>2019-04-20T09:32:28.000Z</time>
      </trkpt>
      <trkpt lat="43.97418" lon="7.35409">
        <ele>1223.1999511719</ele>
        <time>2019-04-20T09:32:29.000Z</time>
      </trkpt>
      <trkpt lat="43.97417" lon="7.35414">
        <ele>1223.8000488281</ele>
        <time>2019-04-20T09:32:31.000Z</time>
      </trkpt>
      <trkpt lat="43.97416" lon="7.35418">
        <ele>1224.4000244141</ele>
        <time>2019-04-20T09:32:33.000Z</time>
      </trkpt>
      <trkpt lat="43.97411" lon="7.35426">
        <ele>1225</ele>
        <time>2019-04-20T09:32:37.000Z</time>
      </trkpt>
      <trkpt lat="43.97405" lon="7.3543">
        <ele>1225.4000244141</ele>
        <time>2019-04-20T09:32:40.000Z</time>
      </trkpt>
      <trkpt lat="43.97398" lon="7.35436">
        <ele>1225.1999511719</ele>
        <time>2019-04-20T09:32:43.000Z</time>
      </trkpt>
      <trkpt lat="43.97389" lon="7.35451">
        <ele>1225.4000244141</ele>
        <time>2019-04-20T09:32:49.000Z</time>
      </trkpt>
      <trkpt lat="43.97384" lon="7.35471">
        <ele>1225.8000488281</ele>
        <time>2019-04-20T09:32:55.000Z</time>
      </trkpt>
      <trkpt lat="43.97379" lon="7.3549">
        <ele>1226.1999511719</ele>
        <time>2019-04-20T09:33:01.000Z</time>
      </trkpt>
      <trkpt lat="43.97378" lon="7.35496">
        <ele>1226.8000488281</ele>
        <time>2019-04-20T09:33:03.000Z</time>
      </trkpt>
      <trkpt lat="43.97374" lon="7.35508">
        <ele>1227.1999511719</ele>
        <time>2019-04-20T09:33:07.000Z</time>
      </trkpt>
      <trkpt lat="43.97368" lon="7.35529">
        <ele>1227.5999755859</ele>
        <time>2019-04-20T09:33:13.000Z</time>
      </trkpt>
      <trkpt lat="43.97364" lon="7.35554">
        <ele>1227.5999755859</ele>
        <time>2019-04-20T09:33:19.000Z</time>
      </trkpt>
      <trkpt lat="43.97364" lon="7.35558">
        <ele>1227.8000488281</ele>
        <time>2019-04-20T09:33:20.000Z</time>
      </trkpt>
      <trkpt lat="43.97361" lon="7.35579">
        <ele>1228</ele>
        <time>2019-04-20T09:33:25.000Z</time>
      </trkpt>
      <trkpt lat="43.97357" lon="7.35602">
        <ele>1228.5999755859</ele>
        <time>2019-04-20T09:33:31.000Z</time>
      </trkpt>
      <trkpt lat="43.9735" lon="7.35619">
        <ele>1228.5999755859</ele>
        <time>2019-04-20T09:33:36.000Z</time>
      </trkpt>
      <trkpt lat="43.97344" lon="7.35629">
        <ele>1228.8000488281</ele>
        <time>2019-04-20T09:33:39.000Z</time>
      </trkpt>
      <trkpt lat="43.97338" lon="7.35639">
        <ele>1228.8000488281</ele>
        <time>2019-04-20T09:33:42.000Z</time>
      </trkpt>
      <trkpt lat="43.97332" lon="7.35654">
        <ele>1229</ele>
        <time>2019-04-20T09:33:47.000Z</time>
      </trkpt>
      <trkpt lat="43.9732" lon="7.35677">
        <ele>1229.1999511719</ele>
        <time>2019-04-20T09:33:54.000Z</time>
      </trkpt>
      <trkpt lat="43.97318" lon="7.35687">
        <ele>1228.5999755859</ele>
        <time>2019-04-20T09:33:58.000Z</time>
      </trkpt>
      <trkpt lat="43.97319" lon="7.35689">
        <ele>1228.5999755859</ele>
        <time>2019-04-20T09:33:59.000Z</time>
      </trkpt>
      <trkpt lat="43.97336" lon="7.35713">
        <ele>1230.4000244141</ele>
        <time>2019-04-20T09:34:09.000Z</time>
      </trkpt>
      <trkpt lat="43.97358" lon="7.35724">
        <ele>1230.8000488281</ele>
        <time>2019-04-20T09:34:17.000Z</time>
      </trkpt>
      <trkpt lat="43.97362" lon="7.35728">
        <ele>1231</ele>
        <time>2019-04-20T09:34:19.000Z</time>
      </trkpt>
      <trkpt lat="43.97366" lon="7.35733">
        <ele>1231.1999511719</ele>
        <time>2019-04-20T09:34:21.000Z</time>
      </trkpt>
      <trkpt lat="43.97367" lon="7.35736">
        <ele>1231.4000244141</ele>
        <time>2019-04-20T09:34:22.000Z</time>
      </trkpt>
      <trkpt lat="43.97373" lon="7.35746">
        <ele>1231.5999755859</ele>
        <time>2019-04-20T09:34:26.000Z</time>
      </trkpt>
      <trkpt lat="43.97377" lon="7.35758">
        <ele>1232.1999511719</ele>
        <time>2019-04-20T09:34:30.000Z</time>
      </trkpt>
      <trkpt lat="43.97378" lon="7.35761">
        <ele>1232.4000244141</ele>
        <time>2019-04-20T09:34:31.000Z</time>
      </trkpt>
      <trkpt lat="43.97381" lon="7.35773">
        <ele>1233</ele>
        <time>2019-04-20T09:34:35.000Z</time>
      </trkpt>
      <trkpt lat="43.97382" lon="7.35776">
        <ele>1233.1999511719</ele>
        <time>2019-04-20T09:34:36.000Z</time>
      </trkpt>
      <trkpt lat="43.97393" lon="7.35784">
        <ele>1235</ele>
        <time>2019-04-20T09:34:42.000Z</time>
      </trkpt>
      <trkpt lat="43.97394" lon="7.35784">
        <ele>1235.1999511719</ele>
        <time>2019-04-20T09:34:43.000Z</time>
      </trkpt>
      <trkpt lat="43.97396" lon="7.35786">
        <ele>1235.4000244141</ele>
        <time>2019-04-20T09:34:44.000Z</time>
      </trkpt>
      <trkpt lat="43.97401" lon="7.35788">
        <ele>1236.4000244141</ele>
        <time>2019-04-20T09:34:48.000Z</time>
      </trkpt>
      <trkpt lat="43.97403" lon="7.35789">
        <ele>1236.5999755859</ele>
        <time>2019-04-20T09:34:49.000Z</time>
      </trkpt>
      <trkpt lat="43.97404" lon="7.35789">
        <ele>1236.8000488281</ele>
        <time>2019-04-20T09:34:50.000Z</time>
      </trkpt>
      <trkpt lat="43.97409" lon="7.35793">
        <ele>1237.1999511719</ele>
        <time>2019-04-20T09:34:54.000Z</time>
      </trkpt>
      <trkpt lat="43.97411" lon="7.35795">
        <ele>1237.1999511719</ele>
        <time>2019-04-20T09:34:55.000Z</time>
      </trkpt>
      <trkpt lat="43.97418" lon="7.35801">
        <ele>1237.5999755859</ele>
        <time>2019-04-20T09:35:00.000Z</time>
      </trkpt>
      <trkpt lat="43.9742" lon="7.35802">
        <ele>1237.5999755859</ele>
        <time>2019-04-20T09:35:01.000Z</time>
      </trkpt>
      <trkpt lat="43.97421" lon="7.35802">
        <ele>1237.8000488281</ele>
        <time>2019-04-20T09:35:02.000Z</time>
      </trkpt>
      <trkpt lat="43.97423" lon="7.35801">
        <ele>1238</ele>
        <time>2019-04-20T09:35:04.000Z</time>
      </trkpt>
      <trkpt lat="43.9743" lon="7.35801">
        <ele>1239</ele>
        <time>2019-04-20T09:35:08.000Z</time>
      </trkpt>
      <trkpt lat="43.97431" lon="7.35802">
        <ele>1239.1999511719</ele>
        <time>2019-04-20T09:35:09.000Z</time>
      </trkpt>
      <trkpt lat="43.97434" lon="7.35805">
        <ele>1240</ele>
        <time>2019-04-20T09:35:12.000Z</time>
      </trkpt>
      <trkpt lat="43.97435" lon="7.35806">
        <ele>1240</ele>
        <time>2019-04-20T09:35:13.000Z</time>
      </trkpt>
      <trkpt lat="43.97436" lon="7.35808">
        <ele>1240.1999511719</ele>
        <time>2019-04-20T09:35:14.000Z</time>
      </trkpt>
      <trkpt lat="43.9744" lon="7.35819">
        <ele>1241</ele>
        <time>2019-04-20T09:35:20.000Z</time>
      </trkpt>
      <trkpt lat="43.9744" lon="7.35822">
        <ele>1241.1999511719</ele>
        <time>2019-04-20T09:35:21.000Z</time>
      </trkpt>
      <trkpt lat="43.9744" lon="7.35827">
        <ele>1241.4000244141</ele>
        <time>2019-04-20T09:35:24.000Z</time>
      </trkpt>
      <trkpt lat="43.97438" lon="7.35831">
        <ele>1241.8000488281</ele>
        <time>2019-04-20T09:35:26.000Z</time>
      </trkpt>
      <trkpt lat="43.97437" lon="7.35837">
        <ele>1242</ele>
        <time>2019-04-20T09:35:29.000Z</time>
      </trkpt>
      <trkpt lat="43.97437" lon="7.35839">
        <ele>1242.1999511719</ele>
        <time>2019-04-20T09:35:30.000Z</time>
      </trkpt>
      <trkpt lat="43.97438" lon="7.35842">
        <ele>1242.1999511719</ele>
        <time>2019-04-20T09:35:31.000Z</time>
      </trkpt>
      <trkpt lat="43.9744" lon="7.35847">
        <ele>1242.4000244141</ele>
        <time>2019-04-20T09:35:33.000Z</time>
      </trkpt>
      <trkpt lat="43.97444" lon="7.35858">
        <ele>1243.1999511719</ele>
        <time>2019-04-20T09:35:38.000Z</time>
      </trkpt>
      <trkpt lat="43.97447" lon="7.35871">
        <ele>1244</ele>
        <time>2019-04-20T09:35:43.000Z</time>
      </trkpt>
      <trkpt lat="43.97447" lon="7.35874">
        <ele>1244.1999511719</ele>
        <time>2019-04-20T09:35:44.000Z</time>
      </trkpt>
      <trkpt lat="43.97447" lon="7.35876">
        <ele>1244.1999511719</ele>
        <time>2019-04-20T09:35:45.000Z</time>
      </trkpt>
      <trkpt lat="43.97447" lon="7.35888">
        <ele>1244.5999755859</ele>
        <time>2019-04-20T09:35:49.000Z</time>
      </trkpt>
      <trkpt lat="43.97448" lon="7.35895">
        <ele>1244.5999755859</ele>
        <time>2019-04-20T09:35:51.000Z</time>
      </trkpt>
      <trkpt lat="43.97449" lon="7.35907">
        <ele>1244.5999755859</ele>
        <time>2019-04-20T09:35:55.000Z</time>
      </trkpt>
      <trkpt lat="43.97449" lon="7.35915">
        <ele>1245.4000244141</ele>
        <time>2019-04-20T09:35:58.000Z</time>
      </trkpt>
      <trkpt lat="43.97448" lon="7.3592">
        <ele>1245.8000488281</ele>
        <time>2019-04-20T09:36:00.000Z</time>
      </trkpt>
      <trkpt lat="43.97449" lon="7.35922">
        <ele>1246</ele>
        <time>2019-04-20T09:36:01.000Z</time>
      </trkpt>
      <trkpt lat="43.97453" lon="7.35929">
        <ele>1246.4000244141</ele>
        <time>2019-04-20T09:36:04.000Z</time>
      </trkpt>
      <trkpt lat="43.97456" lon="7.35931">
        <ele>1246.5999755859</ele>
        <time>2019-04-20T09:36:05.000Z</time>
      </trkpt>
      <trkpt lat="43.9747" lon="7.35932">
        <ele>1247.4000244141</ele>
        <time>2019-04-20T09:36:11.000Z</time>
      </trkpt>
      <trkpt lat="43.97483" lon="7.35928">
        <ele>1248.4000244141</ele>
        <time>2019-04-20T09:36:17.000Z</time>
      </trkpt>
      <trkpt lat="43.97485" lon="7.35927">
        <ele>1248.5999755859</ele>
        <time>2019-04-20T09:36:18.000Z</time>
      </trkpt>
      <trkpt lat="43.9749" lon="7.35929">
        <ele>1249.1999511719</ele>
        <time>2019-04-20T09:36:21.000Z</time>
      </trkpt>
      <trkpt lat="43.97494" lon="7.35929">
        <ele>1249.5999755859</ele>
        <time>2019-04-20T09:36:23.000Z</time>
      </trkpt>
      <trkpt lat="43.97514" lon="7.3592">
        <ele>1251</ele>
        <time>2019-04-20T09:36:33.000Z</time>
      </trkpt>
      <trkpt lat="43.97521" lon="7.35916">
        <ele>1251.8000488281</ele>
        <time>2019-04-20T09:36:37.000Z</time>
      </trkpt>
      <trkpt lat="43.97528" lon="7.35913">
        <ele>1253</ele>
        <time>2019-04-20T09:36:42.000Z</time>
      </trkpt>
      <trkpt lat="43.97531" lon="7.3591">
        <ele>1253.1999511719</ele>
        <time>2019-04-20T09:36:44.000Z</time>
      </trkpt>
      <trkpt lat="43.97548" lon="7.35897">
        <ele>1255.1999511719</ele>
        <time>2019-04-20T09:36:54.000Z</time>
      </trkpt>
      <trkpt lat="43.97553" lon="7.35894">
        <ele>1255.8000488281</ele>
        <time>2019-04-20T09:36:57.000Z</time>
      </trkpt>
      <trkpt lat="43.97556" lon="7.3589">
        <ele>1256.1999511719</ele>
        <time>2019-04-20T09:36:59.000Z</time>
      </trkpt>
      <trkpt lat="43.97565" lon="7.35884">
        <ele>1257</ele>
        <time>2019-04-20T09:37:04.000Z</time>
      </trkpt>
      <trkpt lat="43.97569" lon="7.35882">
        <ele>1257.1999511719</ele>
        <time>2019-04-20T09:37:06.000Z</time>
      </trkpt>
      <trkpt lat="43.97575" lon="7.35878">
        <ele>1257.8000488281</ele>
        <time>2019-04-20T09:37:10.000Z</time>
      </trkpt>
      <trkpt lat="43.97579" lon="7.35875">
        <ele>1258.4000244141</ele>
        <time>2019-04-20T09:37:12.000Z</time>
      </trkpt>
      <trkpt lat="43.97587" lon="7.3587">
        <ele>1259.1999511719</ele>
        <time>2019-04-20T09:37:17.000Z</time>
      </trkpt>
      <trkpt lat="43.9759" lon="7.35869">
        <ele>1259.5999755859</ele>
        <time>2019-04-20T09:37:19.000Z</time>
      </trkpt>
      <trkpt lat="43.97597" lon="7.35863">
        <ele>1260</ele>
        <time>2019-04-20T09:37:24.000Z</time>
      </trkpt>
      <trkpt lat="43.97601" lon="7.35854">
        <ele>1260.5999755859</ele>
        <time>2019-04-20T09:37:28.000Z</time>
      </trkpt>
      <trkpt lat="43.97604" lon="7.35849">
        <ele>1261</ele>
        <time>2019-04-20T09:37:30.000Z</time>
      </trkpt>
      <trkpt lat="43.97609" lon="7.35838">
        <ele>1261.4000244141</ele>
        <time>2019-04-20T09:37:35.000Z</time>
      </trkpt>
      <trkpt lat="43.9761" lon="7.35835">
        <ele>1261.4000244141</ele>
        <time>2019-04-20T09:37:36.000Z</time>
      </trkpt>
      <trkpt lat="43.97613" lon="7.35832">
        <ele>1261.8000488281</ele>
        <time>2019-04-20T09:37:38.000Z</time>
      </trkpt>
      <trkpt lat="43.97616" lon="7.3583">
        <ele>1262.4000244141</ele>
        <time>2019-04-20T09:37:40.000Z</time>
      </trkpt>
      <trkpt lat="43.9762" lon="7.35829">
        <ele>1262.8000488281</ele>
        <time>2019-04-20T09:37:42.000Z</time>
      </trkpt>
      <trkpt lat="43.97622" lon="7.3583">
        <ele>1263</ele>
        <time>2019-04-20T09:37:43.000Z</time>
      </trkpt>
      <trkpt lat="43.9763" lon="7.3583">
        <ele>1263.5999755859</ele>
        <time>2019-04-20T09:37:47.000Z</time>
      </trkpt>
      <trkpt lat="43.97637" lon="7.3583">
        <ele>1264</ele>
        <time>2019-04-20T09:37:51.000Z</time>
      </trkpt>
      <trkpt lat="43.97641" lon="7.3583">
        <ele>1264.4000244141</ele>
        <time>2019-04-20T09:37:53.000Z</time>
      </trkpt>
      <trkpt lat="43.9765" lon="7.35827">
        <ele>1265.1999511719</ele>
        <time>2019-04-20T09:37:59.000Z</time>
      </trkpt>
      <trkpt lat="43.97653" lon="7.35824">
        <ele>1265.5999755859</ele>
        <time>2019-04-20T09:38:01.000Z</time>
      </trkpt>
      <trkpt lat="43.97656" lon="7.35823">
        <ele>1266</ele>
        <time>2019-04-20T09:38:03.000Z</time>
      </trkpt>
      <trkpt lat="43.9766" lon="7.35822">
        <ele>1266.1999511719</ele>
        <time>2019-04-20T09:38:05.000Z</time>
      </trkpt>
      <trkpt lat="43.97672" lon="7.35821">
        <ele>1267</ele>
        <time>2019-04-20T09:38:11.000Z</time>
      </trkpt>
      <trkpt lat="43.97676" lon="7.35819">
        <ele>1267.4000244141</ele>
        <time>2019-04-20T09:38:13.000Z</time>
      </trkpt>
      <trkpt lat="43.97684" lon="7.35816">
        <ele>1268.1999511719</ele>
        <time>2019-04-20T09:38:18.000Z</time>
      </trkpt>
      <trkpt lat="43.97686" lon="7.35816">
        <ele>1268.4000244141</ele>
        <time>2019-04-20T09:38:19.000Z</time>
      </trkpt>
      <trkpt lat="43.97698" lon="7.35809">
        <ele>1269.1999511719</ele>
        <time>2019-04-20T09:38:26.000Z</time>
      </trkpt>
      <trkpt lat="43.97703" lon="7.35806">
        <ele>1269.5999755859</ele>
        <time>2019-04-20T09:38:29.000Z</time>
      </trkpt>
      <trkpt lat="43.97708" lon="7.35798">
        <ele>1270.1999511719</ele>
        <time>2019-04-20T09:38:33.000Z</time>
      </trkpt>
      <trkpt lat="43.97711" lon="7.35795">
        <ele>1270.5999755859</ele>
        <time>2019-04-20T09:38:35.000Z</time>
      </trkpt>
      <trkpt lat="43.97719" lon="7.35789">
        <ele>1271.4000244141</ele>
        <time>2019-04-20T09:38:40.000Z</time>
      </trkpt>
      <trkpt lat="43.97721" lon="7.35787">
        <ele>1271.5999755859</ele>
        <time>2019-04-20T09:38:41.000Z</time>
      </trkpt>
      <trkpt lat="43.97725" lon="7.35779">
        <ele>1272.8000488281</ele>
        <time>2019-04-20T09:38:45.000Z</time>
      </trkpt>
      <trkpt lat="43.97729" lon="7.35773">
        <ele>1273.4000244141</ele>
        <time>2019-04-20T09:38:48.000Z</time>
      </trkpt>
      <trkpt lat="43.97731" lon="7.35766">
        <ele>1273.8000488281</ele>
        <time>2019-04-20T09:38:51.000Z</time>
      </trkpt>
      <trkpt lat="43.97735" lon="7.35756">
        <ele>1274.4000244141</ele>
        <time>2019-04-20T09:38:55.000Z</time>
      </trkpt>
      <trkpt lat="43.97737" lon="7.35745">
        <ele>1274.8000488281</ele>
        <time>2019-04-20T09:38:59.000Z</time>
      </trkpt>
      <trkpt lat="43.97738" lon="7.35743">
        <ele>1275</ele>
        <time>2019-04-20T09:39:00.000Z</time>
      </trkpt>
      <trkpt lat="43.97743" lon="7.35737">
        <ele>1276</ele>
        <time>2019-04-20T09:39:04.000Z</time>
      </trkpt>
      <trkpt lat="43.97745" lon="7.35735">
        <ele>1276.4000244141</ele>
        <time>2019-04-20T09:39:06.000Z</time>
      </trkpt>
      <trkpt lat="43.97751" lon="7.35728">
        <ele>1277.1999511719</ele>
        <time>2019-04-20T09:39:11.000Z</time>
      </trkpt>
      <trkpt lat="43.97756" lon="7.35726">
        <ele>1277.5999755859</ele>
        <time>2019-04-20T09:39:14.000Z</time>
      </trkpt>
      <trkpt lat="43.97765" lon="7.35726">
        <ele>1278.1999511719</ele>
        <time>2019-04-20T09:39:19.000Z</time>
      </trkpt>
      <trkpt lat="43.97769" lon="7.35726">
        <ele>1278.4000244141</ele>
        <time>2019-04-20T09:39:21.000Z</time>
      </trkpt>
      <trkpt lat="43.97785" lon="7.35725">
        <ele>1279.1999511719</ele>
        <time>2019-04-20T09:39:29.000Z</time>
      </trkpt>
      <trkpt lat="43.97795" lon="7.35723">
        <ele>1279.8000488281</ele>
        <time>2019-04-20T09:39:34.000Z</time>
      </trkpt>
      <trkpt lat="43.97797" lon="7.35725">
        <ele>1279.8000488281</ele>
        <time>2019-04-20T09:39:35.000Z</time>
      </trkpt>
      <trkpt lat="43.97796" lon="7.35733">
        <ele>1280.4000244141</ele>
        <time>2019-04-20T09:39:38.000Z</time>
      </trkpt>
      <trkpt lat="43.97787" lon="7.35737">
        <ele>1281.1999511719</ele>
        <time>2019-04-20T09:39:43.000Z</time>
      </trkpt>
      <trkpt lat="43.97784" lon="7.35736">
        <ele>1281.4000244141</ele>
        <time>2019-04-20T09:39:45.000Z</time>
      </trkpt>
      <trkpt lat="43.97776" lon="7.35736">
        <ele>1282.1999511719</ele>
        <time>2019-04-20T09:39:50.000Z</time>
      </trkpt>
      <trkpt lat="43.97773" lon="7.35736">
        <ele>1282.4000244141</ele>
        <time>2019-04-20T09:39:52.000Z</time>
      </trkpt>
      <trkpt lat="43.97763" lon="7.35736">
        <ele>1283.1999511719</ele>
        <time>2019-04-20T09:39:57.000Z</time>
      </trkpt>
      <trkpt lat="43.97758" lon="7.35737">
        <ele>1283.5999755859</ele>
        <time>2019-04-20T09:40:00.000Z</time>
      </trkpt>
      <trkpt lat="43.97754" lon="7.3574">
        <ele>1284</ele>
        <time>2019-04-20T09:40:03.000Z</time>
      </trkpt>
      <trkpt lat="43.97748" lon="7.35752">
        <ele>1284.5999755859</ele>
        <time>2019-04-20T09:40:09.000Z</time>
      </trkpt>
      <trkpt lat="43.97746" lon="7.35757">
        <ele>1284.5999755859</ele>
        <time>2019-04-20T09:40:11.000Z</time>
      </trkpt>
      <trkpt lat="43.97743" lon="7.3577">
        <ele>1285.1999511719</ele>
        <time>2019-04-20T09:40:16.000Z</time>
      </trkpt>
      <trkpt lat="43.97741" lon="7.35778">
        <ele>1285.8000488281</ele>
        <time>2019-04-20T09:40:19.000Z</time>
      </trkpt>
      <trkpt lat="43.97735" lon="7.35794">
        <ele>1286.5999755859</ele>
        <time>2019-04-20T09:40:25.000Z</time>
      </trkpt>
      <trkpt lat="43.97732" lon="7.35803">
        <ele>1287</ele>
        <time>2019-04-20T09:40:28.000Z</time>
      </trkpt>
      <trkpt lat="43.97729" lon="7.35812">
        <ele>1287.5999755859</ele>
        <time>2019-04-20T09:40:32.000Z</time>
      </trkpt>
      <trkpt lat="43.97727" lon="7.35816">
        <ele>1288</ele>
        <time>2019-04-20T09:40:34.000Z</time>
      </trkpt>
      <trkpt lat="43.97721" lon="7.35828">
        <ele>1288.8000488281</ele>
        <time>2019-04-20T09:40:40.000Z</time>
      </trkpt>
      <trkpt lat="43.9772" lon="7.35829">
        <ele>1289</ele>
        <time>2019-04-20T09:40:41.000Z</time>
      </trkpt>
      <trkpt lat="43.97714" lon="7.35838">
        <ele>1290</ele>
        <time>2019-04-20T09:40:47.000Z</time>
      </trkpt>
      <trkpt lat="43.97703" lon="7.35849">
        <ele>1291.1999511719</ele>
        <time>2019-04-20T09:40:55.000Z</time>
      </trkpt>
      <trkpt lat="43.97695" lon="7.35852">
        <ele>1291.8000488281</ele>
        <time>2019-04-20T09:41:00.000Z</time>
      </trkpt>
      <trkpt lat="43.97693" lon="7.35853">
        <ele>1292.4000244141</ele>
        <time>2019-04-20T09:41:02.000Z</time>
      </trkpt>
      <trkpt lat="43.97685" lon="7.35857">
        <ele>1292.8000488281</ele>
        <time>2019-04-20T09:41:07.000Z</time>
      </trkpt>
      <trkpt lat="43.97681" lon="7.35859">
        <ele>1293.4000244141</ele>
        <time>2019-04-20T09:41:10.000Z</time>
      </trkpt>
      <trkpt lat="43.97674" lon="7.35863">
        <ele>1294.4000244141</ele>
        <time>2019-04-20T09:41:15.000Z</time>
      </trkpt>
      <trkpt lat="43.97665" lon="7.35868">
        <ele>1295.1999511719</ele>
        <time>2019-04-20T09:41:21.000Z</time>
      </trkpt>
      <trkpt lat="43.97663" lon="7.35869">
        <ele>1295.4000244141</ele>
        <time>2019-04-20T09:41:23.000Z</time>
      </trkpt>
      <trkpt lat="43.97657" lon="7.35874">
        <ele>1296.1999511719</ele>
        <time>2019-04-20T09:41:28.000Z</time>
      </trkpt>
      <trkpt lat="43.97654" lon="7.35878">
        <ele>1296.5999755859</ele>
        <time>2019-04-20T09:41:31.000Z</time>
      </trkpt>
      <trkpt lat="43.97647" lon="7.35886">
        <ele>1297.4000244141</ele>
        <time>2019-04-20T09:41:37.000Z</time>
      </trkpt>
      <trkpt lat="43.97645" lon="7.35888">
        <ele>1297.5999755859</ele>
        <time>2019-04-20T09:41:39.000Z</time>
      </trkpt>
      <trkpt lat="43.97641" lon="7.35897">
        <ele>1298.1999511719</ele>
        <time>2019-04-20T09:41:44.000Z</time>
      </trkpt>
      <trkpt lat="43.97639" lon="7.35902">
        <ele>1298.8000488281</ele>
        <time>2019-04-20T09:41:47.000Z</time>
      </trkpt>
      <trkpt lat="43.97636" lon="7.35909">
        <ele>1299.5999755859</ele>
        <time>2019-04-20T09:41:52.000Z</time>
      </trkpt>
      <trkpt lat="43.97635" lon="7.35912">
        <ele>1300</ele>
        <time>2019-04-20T09:41:54.000Z</time>
      </trkpt>
      <trkpt lat="43.9763" lon="7.35919">
        <ele>1300.5999755859</ele>
        <time>2019-04-20T09:41:59.000Z</time>
      </trkpt>
      <trkpt lat="43.97627" lon="7.35922">
        <ele>1301</ele>
        <time>2019-04-20T09:42:02.000Z</time>
      </trkpt>
      <trkpt lat="43.97622" lon="7.35927">
        <ele>1301.5999755859</ele>
        <time>2019-04-20T09:42:06.000Z</time>
      </trkpt>
      <trkpt lat="43.97616" lon="7.35932">
        <ele>1302.1999511719</ele>
        <time>2019-04-20T09:42:10.000Z</time>
      </trkpt>
      <trkpt lat="43.97613" lon="7.35933">
        <ele>1302.1999511719</ele>
        <time>2019-04-20T09:42:11.000Z</time>
      </trkpt>
      <trkpt lat="43.97599" lon="7.35941">
        <ele>1303.4000244141</ele>
        <time>2019-04-20T09:42:18.000Z</time>
      </trkpt>
      <trkpt lat="43.97587" lon="7.35952">
        <ele>1304.4000244141</ele>
        <time>2019-04-20T09:42:25.000Z</time>
      </trkpt>
      <trkpt lat="43.97576" lon="7.35961">
        <ele>1305.5999755859</ele>
        <time>2019-04-20T09:42:31.000Z</time>
      </trkpt>
      <trkpt lat="43.97574" lon="7.35963">
        <ele>1305.8000488281</ele>
        <time>2019-04-20T09:42:32.000Z</time>
      </trkpt>
      <trkpt lat="43.9757" lon="7.35967">
        <ele>1306.5999755859</ele>
        <time>2019-04-20T09:42:35.000Z</time>
      </trkpt>
      <trkpt lat="43.97568" lon="7.35971">
        <ele>1307</ele>
        <time>2019-04-20T09:42:37.000Z</time>
      </trkpt>
      <trkpt lat="43.97562" lon="7.35978">
        <ele>1307.8000488281</ele>
        <time>2019-04-20T09:42:41.000Z</time>
      </trkpt>
      <trkpt lat="43.9756" lon="7.35983">
        <ele>1308</ele>
        <time>2019-04-20T09:42:43.000Z</time>
      </trkpt>
      <trkpt lat="43.97558" lon="7.35986">
        <ele>1308.1999511719</ele>
        <time>2019-04-20T09:42:45.000Z</time>
      </trkpt>
      <trkpt lat="43.97555" lon="7.35989">
        <ele>1308.4000244141</ele>
        <time>2019-04-20T09:42:47.000Z</time>
      </trkpt>
      <trkpt lat="43.97553" lon="7.35992">
        <ele>1308.8000488281</ele>
        <time>2019-04-20T09:42:49.000Z</time>
      </trkpt>
      <trkpt lat="43.97544" lon="7.36002">
        <ele>1309.8000488281</ele>
        <time>2019-04-20T09:42:55.000Z</time>
      </trkpt>
      <trkpt lat="43.97543" lon="7.36003">
        <ele>1309.8000488281</ele>
        <time>2019-04-20T09:42:56.000Z</time>
      </trkpt>
      <trkpt lat="43.97535" lon="7.36008">
        <ele>1310.8000488281</ele>
        <time>2019-04-20T09:43:01.000Z</time>
      </trkpt>
      <trkpt lat="43.97534" lon="7.36009">
        <ele>1311</ele>
        <time>2019-04-20T09:43:02.000Z</time>
      </trkpt>
      <trkpt lat="43.97524" lon="7.36014">
        <ele>1311.8000488281</ele>
        <time>2019-04-20T09:43:09.000Z</time>
      </trkpt>
      <trkpt lat="43.97522" lon="7.36014">
        <ele>1312</ele>
        <time>2019-04-20T09:43:10.000Z</time>
      </trkpt>
      <trkpt lat="43.97515" lon="7.36017">
        <ele>1312.8000488281</ele>
        <time>2019-04-20T09:43:15.000Z</time>
      </trkpt>
      <trkpt lat="43.97514" lon="7.36017">
        <ele>1313.1999511719</ele>
        <time>2019-04-20T09:43:16.000Z</time>
      </trkpt>
      <trkpt lat="43.97506" lon="7.36023">
        <ele>1314.1999511719</ele>
        <time>2019-04-20T09:43:22.000Z</time>
      </trkpt>
      <trkpt lat="43.97505" lon="7.36024">
        <ele>1314.4000244141</ele>
        <time>2019-04-20T09:43:23.000Z</time>
      </trkpt>
      <trkpt lat="43.975" lon="7.36033">
        <ele>1314.8000488281</ele>
        <time>2019-04-20T09:43:28.000Z</time>
      </trkpt>
      <trkpt lat="43.97495" lon="7.36039">
        <ele>1315.4000244141</ele>
        <time>2019-04-20T09:43:32.000Z</time>
      </trkpt>
      <trkpt lat="43.97494" lon="7.36042">
        <ele>1315.8000488281</ele>
        <time>2019-04-20T09:43:34.000Z</time>
      </trkpt>
      <trkpt lat="43.9749" lon="7.36051">
        <ele>1316.5999755859</ele>
        <time>2019-04-20T09:43:39.000Z</time>
      </trkpt>
      <trkpt lat="43.97488" lon="7.36054">
        <ele>1317</ele>
        <time>2019-04-20T09:43:41.000Z</time>
      </trkpt>
      <trkpt lat="43.97483" lon="7.36061">
        <ele>1317.4000244141</ele>
        <time>2019-04-20T09:43:46.000Z</time>
      </trkpt>
      <trkpt lat="43.97482" lon="7.36062">
        <ele>1317.5999755859</ele>
        <time>2019-04-20T09:43:47.000Z</time>
      </trkpt>
      <trkpt lat="43.97481" lon="7.36064">
        <ele>1317.8000488281</ele>
        <time>2019-04-20T09:43:48.000Z</time>
      </trkpt>
      <trkpt lat="43.97476" lon="7.36068">
        <ele>1318.4000244141</ele>
        <time>2019-04-20T09:43:51.000Z</time>
      </trkpt>
      <trkpt lat="43.97471" lon="7.36071">
        <ele>1318.5999755859</ele>
        <time>2019-04-20T09:43:54.000Z</time>
      </trkpt>
      <trkpt lat="43.97467" lon="7.36074">
        <ele>1319.1999511719</ele>
        <time>2019-04-20T09:43:57.000Z</time>
      </trkpt>
      <trkpt lat="43.97461" lon="7.36077">
        <ele>1319.8000488281</ele>
        <time>2019-04-20T09:44:01.000Z</time>
      </trkpt>
      <trkpt lat="43.97458" lon="7.36078">
        <ele>1320</ele>
        <time>2019-04-20T09:44:03.000Z</time>
      </trkpt>
      <trkpt lat="43.97448" lon="7.36083">
        <ele>1320.8000488281</ele>
        <time>2019-04-20T09:44:09.000Z</time>
      </trkpt>
      <trkpt lat="43.97446" lon="7.36085">
        <ele>1320.8000488281</ele>
        <time>2019-04-20T09:44:10.000Z</time>
      </trkpt>
      <trkpt lat="43.97435" lon="7.36085">
        <ele>1321.1999511719</ele>
        <time>2019-04-20T09:44:15.000Z</time>
      </trkpt>
      <trkpt lat="43.97428" lon="7.3608">
        <ele>1321.8000488281</ele>
        <time>2019-04-20T09:44:19.000Z</time>
      </trkpt>
      <trkpt lat="43.97425" lon="7.36076">
        <ele>1322.1999511719</ele>
        <time>2019-04-20T09:44:21.000Z</time>
      </trkpt>
      <trkpt lat="43.97421" lon="7.3607">
        <ele>1323</ele>
        <time>2019-04-20T09:44:25.000Z</time>
      </trkpt>
      <trkpt lat="43.9742" lon="7.36068">
        <ele>1323.1999511719</ele>
        <time>2019-04-20T09:44:26.000Z</time>
      </trkpt>
      <trkpt lat="43.97412" lon="7.36063">
        <ele>1324</ele>
        <time>2019-04-20T09:44:31.000Z</time>
      </trkpt>
      <trkpt lat="43.97409" lon="7.36062">
        <ele>1324.1999511719</ele>
        <time>2019-04-20T09:44:33.000Z</time>
      </trkpt>
      <trkpt lat="43.97401" lon="7.36061">
        <ele>1325</ele>
        <time>2019-04-20T09:44:38.000Z</time>
      </trkpt>
      <trkpt lat="43.97399" lon="7.36061">
        <ele>1325</ele>
        <time>2019-04-20T09:44:39.000Z</time>
      </trkpt>
      <trkpt lat="43.97391" lon="7.3606">
        <ele>1326</ele>
        <time>2019-04-20T09:44:44.000Z</time>
      </trkpt>
      <trkpt lat="43.97389" lon="7.36059">
        <ele>1326.1999511719</ele>
        <time>2019-04-20T09:44:45.000Z</time>
      </trkpt>
      <trkpt lat="43.9738" lon="7.36056">
        <ele>1327</ele>
        <time>2019-04-20T09:44:50.000Z</time>
      </trkpt>
      <trkpt lat="43.97379" lon="7.36055">
        <ele>1327.1999511719</ele>
        <time>2019-04-20T09:44:51.000Z</time>
      </trkpt>
      <trkpt lat="43.97372" lon="7.36054">
        <ele>1328.4000244141</ele>
        <time>2019-04-20T09:44:55.000Z</time>
      </trkpt>
      <trkpt lat="43.97369" lon="7.36053">
        <ele>1328.8000488281</ele>
        <time>2019-04-20T09:44:57.000Z</time>
      </trkpt>
      <trkpt lat="43.97366" lon="7.36052">
        <ele>1329.1999511719</ele>
        <time>2019-04-20T09:44:59.000Z</time>
      </trkpt>
      <trkpt lat="43.97364" lon="7.36051">
        <ele>1329.4000244141</ele>
        <time>2019-04-20T09:45:00.000Z</time>
      </trkpt>
      <trkpt lat="43.97361" lon="7.36048">
        <ele>1329.8000488281</ele>
        <time>2019-04-20T09:45:02.000Z</time>
      </trkpt>
      <trkpt lat="43.97357" lon="7.36041">
        <ele>1330.4000244141</ele>
        <time>2019-04-20T09:45:05.000Z</time>
      </trkpt>
      <trkpt lat="43.97355" lon="7.36037">
        <ele>1330.5999755859</ele>
        <time>2019-04-20T09:45:07.000Z</time>
      </trkpt>
      <trkpt lat="43.97352" lon="7.36018">
        <ele>1331.4000244141</ele>
        <time>2019-04-20T09:45:13.000Z</time>
      </trkpt>
      <trkpt lat="43.9735" lon="7.35997">
        <ele>1332.1999511719</ele>
        <time>2019-04-20T09:45:20.000Z</time>
      </trkpt>
      <trkpt lat="43.97348" lon="7.3599">
        <ele>1332.5999755859</ele>
        <time>2019-04-20T09:45:23.000Z</time>
      </trkpt>
      <trkpt lat="43.97346" lon="7.35984">
        <ele>1332.8000488281</ele>
        <time>2019-04-20T09:45:25.000Z</time>
      </trkpt>
      <trkpt lat="43.97337" lon="7.35965">
        <ele>1333.5999755859</ele>
        <time>2019-04-20T09:45:32.000Z</time>
      </trkpt>
      <trkpt lat="43.97336" lon="7.35963">
        <ele>1333.8000488281</ele>
        <time>2019-04-20T09:45:33.000Z</time>
      </trkpt>
      <trkpt lat="43.97332" lon="7.35953">
        <ele>1334.1999511719</ele>
        <time>2019-04-20T09:45:37.000Z</time>
      </trkpt>
      <trkpt lat="43.9733" lon="7.35946">
        <ele>1334.4000244141</ele>
        <time>2019-04-20T09:45:40.000Z</time>
      </trkpt>
      <trkpt lat="43.97329" lon="7.35936">
        <ele>1334.8000488281</ele>
        <time>2019-04-20T09:45:44.000Z</time>
      </trkpt>
      <trkpt lat="43.97328" lon="7.35933">
        <ele>1335</ele>
        <time>2019-04-20T09:45:45.000Z</time>
      </trkpt>
      <trkpt lat="43.97326" lon="7.35927">
        <ele>1335.8000488281</ele>
        <time>2019-04-20T09:45:50.000Z</time>
      </trkpt>
      <trkpt lat="43.97326" lon="7.35927">
        <ele>1336</ele>
        <time>2019-04-20T09:45:56.000Z</time>
      </trkpt>
      <trkpt lat="43.97326" lon="7.35926">
        <ele>1336.4000244141</ele>
        <time>2019-04-20T09:46:13.000Z</time>
      </trkpt>
      <trkpt lat="43.97326" lon="7.35926">
        <ele>1336.4000244141</ele>
        <time>2019-04-20T09:46:23.000Z</time>
      </trkpt>
      <trkpt lat="43.97325" lon="7.35926">
        <ele>1336.8000488281</ele>
        <time>2019-04-20T09:46:34.000Z</time>
      </trkpt>
      <trkpt lat="43.97324" lon="7.35926">
        <ele>1336.8000488281</ele>
        <time>2019-04-20T09:46:38.000Z</time>
      </trkpt>
      <trkpt lat="43.97324" lon="7.35927">
        <ele>1336.5999755859</ele>
        <time>2019-04-20T09:46:42.000Z</time>
      </trkpt>
      <trkpt lat="43.97323" lon="7.35927">
        <ele>1336.8000488281</ele>
        <time>2019-04-20T09:46:52.000Z</time>
      </trkpt>
      <trkpt lat="43.97324" lon="7.35927">
        <ele>1336.8000488281</ele>
        <time>2019-04-20T09:46:58.000Z</time>
      </trkpt>
      <trkpt lat="43.97324" lon="7.35927">
        <ele>1336.5999755859</ele>
        <time>2019-04-20T09:47:15.000Z</time>
      </trkpt>
      <trkpt lat="43.97324" lon="7.35927">
        <ele>1336.8000488281</ele>
        <time>2019-04-20T09:47:34.000Z</time>
      </trkpt>
      <trkpt lat="43.97325" lon="7.35927">
        <ele>1336.8000488281</ele>
        <time>2019-04-20T09:47:51.000Z</time>
      </trkpt>
      <trkpt lat="43.97325" lon="7.35927">
        <ele>1336.8000488281</ele>
        <time>2019-04-20T09:48:03.000Z</time>
      </trkpt>
      <trkpt lat="43.97322" lon="7.35926">
        <ele>1336.5999755859</ele>
        <time>2019-04-20T09:48:20.000Z</time>
      </trkpt>
      <trkpt lat="43.97319" lon="7.35923">
        <ele>1336.8000488281</ele>
        <time>2019-04-20T09:48:27.000Z</time>
      </trkpt>
      <trkpt lat="43.97317" lon="7.35922">
        <ele>1336.8000488281</ele>
        <time>2019-04-20T09:48:29.000Z</time>
      </trkpt>
      <trkpt lat="43.97314" lon="7.35924">
        <ele>1337.1999511719</ele>
        <time>2019-04-20T09:48:32.000Z</time>
      </trkpt>
      <trkpt lat="43.97313" lon="7.35925">
        <ele>1337.4000244141</ele>
        <time>2019-04-20T09:48:34.000Z</time>
      </trkpt>
      <trkpt lat="43.97313" lon="7.3593">
        <ele>1337.5999755859</ele>
        <time>2019-04-20T09:48:37.000Z</time>
      </trkpt>
      <trkpt lat="43.97314" lon="7.35932">
        <ele>1337.5999755859</ele>
        <time>2019-04-20T09:48:38.000Z</time>
      </trkpt>
      <trkpt lat="43.97317" lon="7.35936">
        <ele>1337.8000488281</ele>
        <time>2019-04-20T09:48:41.000Z</time>
      </trkpt>
      <trkpt lat="43.97319" lon="7.35939">
        <ele>1338</ele>
        <time>2019-04-20T09:48:43.000Z</time>
      </trkpt>
      <trkpt lat="43.97324" lon="7.35948">
        <ele>1338.8000488281</ele>
        <time>2019-04-20T09:48:48.000Z</time>
      </trkpt>
      <trkpt lat="43.97325" lon="7.3595">
        <ele>1339</ele>
        <time>2019-04-20T09:48:49.000Z</time>
      </trkpt>
      <trkpt lat="43.97333" lon="7.35966">
        <ele>1340</ele>
        <time>2019-04-20T09:48:57.000Z</time>
      </trkpt>
      <trkpt lat="43.97338" lon="7.35982">
        <ele>1341</ele>
        <time>2019-04-20T09:49:04.000Z</time>
      </trkpt>
      <trkpt lat="43.97338" lon="7.35985">
        <ele>1341</ele>
        <time>2019-04-20T09:49:05.000Z</time>
      </trkpt>
      <trkpt lat="43.97344" lon="7.36003">
        <ele>1341.8000488281</ele>
        <time>2019-04-20T09:49:12.000Z</time>
      </trkpt>
      <trkpt lat="43.97345" lon="7.36011">
        <ele>1342</ele>
        <time>2019-04-20T09:49:15.000Z</time>
      </trkpt>
      <trkpt lat="43.97345" lon="7.36017">
        <ele>1342</ele>
        <time>2019-04-20T09:49:17.000Z</time>
      </trkpt>
      <trkpt lat="43.97345" lon="7.36022">
        <ele>1342</ele>
        <time>2019-04-20T09:49:19.000Z</time>
      </trkpt>
      <trkpt lat="43.97345" lon="7.36025">
        <ele>1342</ele>
        <time>2019-04-20T09:49:20.000Z</time>
      </trkpt>
      <trkpt lat="43.97345" lon="7.3603">
        <ele>1342.1999511719</ele>
        <time>2019-04-20T09:49:22.000Z</time>
      </trkpt>
      <trkpt lat="43.9735" lon="7.36049">
        <ele>1343</ele>
        <time>2019-04-20T09:49:29.000Z</time>
      </trkpt>
      <trkpt lat="43.97351" lon="7.36052">
        <ele>1343.1999511719</ele>
        <time>2019-04-20T09:49:30.000Z</time>
      </trkpt>
      <trkpt lat="43.97358" lon="7.36066">
        <ele>1343.5999755859</ele>
        <time>2019-04-20T09:49:35.000Z</time>
      </trkpt>
      <trkpt lat="43.97365" lon="7.36074">
        <ele>1344</ele>
        <time>2019-04-20T09:49:39.000Z</time>
      </trkpt>
      <trkpt lat="43.97367" lon="7.36074">
        <ele>1344.1999511719</ele>
        <time>2019-04-20T09:49:40.000Z</time>
      </trkpt>
      <trkpt lat="43.97377" lon="7.36079">
        <ele>1345.4000244141</ele>
        <time>2019-04-20T09:49:45.000Z</time>
      </trkpt>
      <trkpt lat="43.97381" lon="7.36081">
        <ele>1345.8000488281</ele>
        <time>2019-04-20T09:49:47.000Z</time>
      </trkpt>
      <trkpt lat="43.97388" lon="7.36086">
        <ele>1346.4000244141</ele>
        <time>2019-04-20T09:49:51.000Z</time>
      </trkpt>
      <trkpt lat="43.97391" lon="7.36088">
        <ele>1346.8000488281</ele>
        <time>2019-04-20T09:49:53.000Z</time>
      </trkpt>
      <trkpt lat="43.97395" lon="7.36091">
        <ele>1347.4000244141</ele>
        <time>2019-04-20T09:49:55.000Z</time>
      </trkpt>
      <trkpt lat="43.97402" lon="7.36103">
        <ele>1348.1999511719</ele>
        <time>2019-04-20T09:50:00.000Z</time>
      </trkpt>
      <trkpt lat="43.97405" lon="7.3611">
        <ele>1348.5999755859</ele>
        <time>2019-04-20T09:50:03.000Z</time>
      </trkpt>
      <trkpt lat="43.9741" lon="7.36121">
        <ele>1349.1999511719</ele>
        <time>2019-04-20T09:50:07.000Z</time>
      </trkpt>
      <trkpt lat="43.97411" lon="7.36123">
        <ele>1349</ele>
        <time>2019-04-20T09:50:08.000Z</time>
      </trkpt>
      <trkpt lat="43.97412" lon="7.3613">
        <ele>1349.4000244141</ele>
        <time>2019-04-20T09:50:11.000Z</time>
      </trkpt>
      <trkpt lat="43.97413" lon="7.36132">
        <ele>1349.5999755859</ele>
        <time>2019-04-20T09:50:12.000Z</time>
      </trkpt>
      <trkpt lat="43.97414" lon="7.36135">
        <ele>1350.4000244141</ele>
        <time>2019-04-20T09:50:14.000Z</time>
      </trkpt>
      <trkpt lat="43.97415" lon="7.36136">
        <ele>1350.5999755859</ele>
        <time>2019-04-20T09:50:15.000Z</time>
      </trkpt>
      <trkpt lat="43.97416" lon="7.36139">
        <ele>1350.8000488281</ele>
        <time>2019-04-20T09:50:17.000Z</time>
      </trkpt>
      <trkpt lat="43.97424" lon="7.36145">
        <ele>1352</ele>
        <time>2019-04-20T09:50:24.000Z</time>
      </trkpt>
      <trkpt lat="43.97426" lon="7.36146">
        <ele>1352.1999511719</ele>
        <time>2019-04-20T09:50:26.000Z</time>
      </trkpt>
      <trkpt lat="43.97432" lon="7.36147">
        <ele>1353</ele>
        <time>2019-04-20T09:50:30.000Z</time>
      </trkpt>
      <trkpt lat="43.97436" lon="7.36148">
        <ele>1353.8000488281</ele>
        <time>2019-04-20T09:50:33.000Z</time>
      </trkpt>
      <trkpt lat="43.97441" lon="7.36149">
        <ele>1354.1999511719</ele>
        <time>2019-04-20T09:50:36.000Z</time>
      </trkpt>
      <trkpt lat="43.97447" lon="7.36151">
        <ele>1354.8000488281</ele>
        <time>2019-04-20T09:50:40.000Z</time>
      </trkpt>
      <trkpt lat="43.9745" lon="7.36151">
        <ele>1355.1999511719</ele>
        <time>2019-04-20T09:50:42.000Z</time>
      </trkpt>
      <trkpt lat="43.97453" lon="7.36152">
        <ele>1355.4000244141</ele>
        <time>2019-04-20T09:50:44.000Z</time>
      </trkpt>
      <trkpt lat="43.9746" lon="7.36152">
        <ele>1356</ele>
        <time>2019-04-20T09:50:49.000Z</time>
      </trkpt>
      <trkpt lat="43.97461" lon="7.36152">
        <ele>1356.1999511719</ele>
        <time>2019-04-20T09:50:50.000Z</time>
      </trkpt>
      <trkpt lat="43.97464" lon="7.36153">
        <ele>1357</ele>
        <time>2019-04-20T09:50:55.000Z</time>
      </trkpt>
      <trkpt lat="43.97464" lon="7.36152">
        <ele>1357.1999511719</ele>
        <time>2019-04-20T09:51:04.000Z</time>
      </trkpt>
      <trkpt lat="43.97464" lon="7.36152">
        <ele>1357.4000244141</ele>
        <time>2019-04-20T09:51:05.000Z</time>
      </trkpt>
      <trkpt lat="43.97465" lon="7.36152">
        <ele>1357.4000244141</ele>
        <time>2019-04-20T09:51:27.000Z</time>
      </trkpt>
      <trkpt lat="43.97465" lon="7.36153">
        <ele>1357.4000244141</ele>
        <time>2019-04-20T09:51:38.000Z</time>
      </trkpt>
      <trkpt lat="43.97469" lon="7.36154">
        <ele>1358</ele>
        <time>2019-04-20T09:51:45.000Z</time>
      </trkpt>
      <trkpt lat="43.97469" lon="7.36152">
        <ele>1358.4000244141</ele>
        <time>2019-04-20T09:51:50.000Z</time>
      </trkpt>
      <trkpt lat="43.97469" lon="7.36152">
        <ele>1358.4000244141</ele>
        <time>2019-04-20T09:51:51.000Z</time>
      </trkpt>
      <trkpt lat="43.97469" lon="7.36153">
        <ele>1358.1999511719</ele>
        <time>2019-04-20T09:51:59.000Z</time>
      </trkpt>
      <trkpt lat="43.97469" lon="7.36152">
        <ele>1358.4000244141</ele>
        <time>2019-04-20T09:52:04.000Z</time>
      </trkpt>
      <trkpt lat="43.97468" lon="7.36152">
        <ele>1358.5999755859</ele>
        <time>2019-04-20T09:52:09.000Z</time>
      </trkpt>
      <trkpt lat="43.97468" lon="7.3615">
        <ele>1358.5999755859</ele>
        <time>2019-04-20T09:52:11.000Z</time>
      </trkpt>
      <trkpt lat="43.97469" lon="7.36151">
        <ele>1358.4000244141</ele>
        <time>2019-04-20T09:52:13.000Z</time>
      </trkpt>
      <trkpt lat="43.9747" lon="7.3615">
        <ele>1358.1999511719</ele>
        <time>2019-04-20T09:52:14.000Z</time>
      </trkpt>
      <trkpt lat="43.97473" lon="7.36148">
        <ele>1358</ele>
        <time>2019-04-20T09:52:18.000Z</time>
      </trkpt>
      <trkpt lat="43.97476" lon="7.36147">
        <ele>1359.1999511719</ele>
        <time>2019-04-20T09:52:25.000Z</time>
      </trkpt>
      <trkpt lat="43.97478" lon="7.36147">
        <ele>1359.5999755859</ele>
        <time>2019-04-20T09:52:26.000Z</time>
      </trkpt>
      <trkpt lat="43.9748" lon="7.36146">
        <ele>1360.5999755859</ele>
        <time>2019-04-20T09:52:30.000Z</time>
      </trkpt>
      <trkpt lat="43.97481" lon="7.36145">
        <ele>1361.4000244141</ele>
        <time>2019-04-20T09:52:36.000Z</time>
      </trkpt>
      <trkpt lat="43.97481" lon="7.36145">
        <ele>1361.5999755859</ele>
        <time>2019-04-20T09:52:37.000Z</time>
      </trkpt>
      <trkpt lat="43.97483" lon="7.36146">
        <ele>1362.1999511719</ele>
        <time>2019-04-20T09:52:42.000Z</time>
      </trkpt>
      <trkpt lat="43.97483" lon="7.36145">
        <ele>1362.4000244141</ele>
        <time>2019-04-20T09:52:53.000Z</time>
      </trkpt>
      <trkpt lat="43.97483" lon="7.36143">
        <ele>1362.1999511719</ele>
        <time>2019-04-20T09:52:59.000Z</time>
      </trkpt>
      <trkpt lat="43.97485" lon="7.36142">
        <ele>1361.8000488281</ele>
        <time>2019-04-20T09:53:08.000Z</time>
      </trkpt>
      <trkpt lat="43.97488" lon="7.36143">
        <ele>1362.5999755859</ele>
        <time>2019-04-20T09:53:14.000Z</time>
      </trkpt>
      <trkpt lat="43.97489" lon="7.36143">
        <ele>1362.5999755859</ele>
        <time>2019-04-20T09:53:15.000Z</time>
      </trkpt>
      <trkpt lat="43.9749" lon="7.36145">
        <ele>1363.8000488281</ele>
        <time>2019-04-20T09:53:19.000Z</time>
      </trkpt>
      <trkpt lat="43.9749" lon="7.36147">
        <ele>1364.1999511719</ele>
        <time>2019-04-20T09:53:21.000Z</time>
      </trkpt>
      <trkpt lat="43.97491" lon="7.36151">
        <ele>1364.1999511719</ele>
        <time>2019-04-20T09:53:29.000Z</time>
      </trkpt>
      <trkpt lat="43.97493" lon="7.3615">
        <ele>1364</ele>
        <time>2019-04-20T09:53:31.000Z</time>
      </trkpt>
      <trkpt lat="43.97493" lon="7.36152">
        <ele>1364</ele>
        <time>2019-04-20T09:53:32.000Z</time>
      </trkpt>
      <trkpt lat="43.97493" lon="7.36154">
        <ele>1364.4000244141</ele>
        <time>2019-04-20T09:53:36.000Z</time>
      </trkpt>
      <trkpt lat="43.97494" lon="7.36154">
        <ele>1365</ele>
        <time>2019-04-20T09:53:39.000Z</time>
      </trkpt>
      <trkpt lat="43.97494" lon="7.36156">
        <ele>1365</ele>
        <time>2019-04-20T09:53:44.000Z</time>
      </trkpt>
      <trkpt lat="43.97494" lon="7.36156">
        <ele>1365</ele>
        <time>2019-04-20T09:53:50.000Z</time>
      </trkpt>
      <trkpt lat="43.97496" lon="7.36157">
        <ele>1365</ele>
        <time>2019-04-20T09:53:55.000Z</time>
      </trkpt>
      <trkpt lat="43.97496" lon="7.36157">
        <ele>1365</ele>
        <time>2019-04-20T09:53:56.000Z</time>
      </trkpt>
      <trkpt lat="43.97499" lon="7.36159">
        <ele>1366</ele>
        <time>2019-04-20T09:54:01.000Z</time>
      </trkpt>
      <trkpt lat="43.975" lon="7.36161">
        <ele>1366.8000488281</ele>
        <time>2019-04-20T09:54:04.000Z</time>
      </trkpt>
      <trkpt lat="43.975" lon="7.3616">
        <ele>1367.1999511719</ele>
        <time>2019-04-20T09:54:05.000Z</time>
      </trkpt>
      <trkpt lat="43.975" lon="7.36161">
        <ele>1367.4000244141</ele>
        <time>2019-04-20T09:54:06.000Z</time>
      </trkpt>
      <trkpt lat="43.97502" lon="7.36162">
        <ele>1368.4000244141</ele>
        <time>2019-04-20T09:54:10.000Z</time>
      </trkpt>
      <trkpt lat="43.97503" lon="7.36164">
        <ele>1368.8000488281</ele>
        <time>2019-04-20T09:54:13.000Z</time>
      </trkpt>
      <trkpt lat="43.97504" lon="7.36165">
        <ele>1369.4000244141</ele>
        <time>2019-04-20T09:54:16.000Z</time>
      </trkpt>
      <trkpt lat="43.97504" lon="7.36167">
        <ele>1370</ele>
        <time>2019-04-20T09:54:19.000Z</time>
      </trkpt>
      <trkpt lat="43.97505" lon="7.36168">
        <ele>1370.4000244141</ele>
        <time>2019-04-20T09:54:21.000Z</time>
      </trkpt>
      <trkpt lat="43.97505" lon="7.36171">
        <ele>1371</ele>
        <time>2019-04-20T09:54:25.000Z</time>
      </trkpt>
      <trkpt lat="43.97506" lon="7.36173">
        <ele>1371.5999755859</ele>
        <time>2019-04-20T09:54:28.000Z</time>
      </trkpt>
      <trkpt lat="43.97506" lon="7.36176">
        <ele>1372</ele>
        <time>2019-04-20T09:54:31.000Z</time>
      </trkpt>
      <trkpt lat="43.97506" lon="7.36176">
        <ele>1372.5999755859</ele>
        <time>2019-04-20T09:54:33.000Z</time>
      </trkpt>
      <trkpt lat="43.97507" lon="7.36179">
        <ele>1373</ele>
        <time>2019-04-20T09:54:36.000Z</time>
      </trkpt>
      <trkpt lat="43.97506" lon="7.3618">
        <ele>1373</ele>
        <time>2019-04-20T09:54:37.000Z</time>
      </trkpt>
      <trkpt lat="43.97506" lon="7.36181">
        <ele>1373.8000488281</ele>
        <time>2019-04-20T09:54:39.000Z</time>
      </trkpt>
      <trkpt lat="43.97505" lon="7.36183">
        <ele>1374.4000244141</ele>
        <time>2019-04-20T09:54:42.000Z</time>
      </trkpt>
      <trkpt lat="43.97503" lon="7.36184">
        <ele>1374.8000488281</ele>
        <time>2019-04-20T09:54:46.000Z</time>
      </trkpt>
      <trkpt lat="43.97502" lon="7.36185">
        <ele>1375.5999755859</ele>
        <time>2019-04-20T09:54:49.000Z</time>
      </trkpt>
      <trkpt lat="43.97501" lon="7.36186">
        <ele>1376</ele>
        <time>2019-04-20T09:54:51.000Z</time>
      </trkpt>
      <trkpt lat="43.97499" lon="7.36187">
        <ele>1377</ele>
        <time>2019-04-20T09:54:56.000Z</time>
      </trkpt>
      <trkpt lat="43.97498" lon="7.36187">
        <ele>1377.1999511719</ele>
        <time>2019-04-20T09:54:57.000Z</time>
      </trkpt>
      <trkpt lat="43.97496" lon="7.36188">
        <ele>1377.8000488281</ele>
        <time>2019-04-20T09:55:04.000Z</time>
      </trkpt>
      <trkpt lat="43.97496" lon="7.36189">
        <ele>1377.8000488281</ele>
        <time>2019-04-20T09:55:19.000Z</time>
      </trkpt>
      <trkpt lat="43.97496" lon="7.3619">
        <ele>1377.5999755859</ele>
        <time>2019-04-20T09:55:26.000Z</time>
      </trkpt>
      <trkpt lat="43.97492" lon="7.36191">
        <ele>1377.5999755859</ele>
        <time>2019-04-20T09:55:31.000Z</time>
      </trkpt>
      <trkpt lat="43.97485" lon="7.36193">
        <ele>1376.5999755859</ele>
        <time>2019-04-20T09:55:38.000Z</time>
      </trkpt>
      <trkpt lat="43.97481" lon="7.36194">
        <ele>1376.4000244141</ele>
        <time>2019-04-20T09:55:44.000Z</time>
      </trkpt>
      <trkpt lat="43.97477" lon="7.36197">
        <ele>1377.1999511719</ele>
        <time>2019-04-20T09:55:52.000Z</time>
      </trkpt>
      <trkpt lat="43.97474" lon="7.362">
        <ele>1378.1999511719</ele>
        <time>2019-04-20T09:55:59.000Z</time>
      </trkpt>
      <trkpt lat="43.97474" lon="7.362">
        <ele>1378.4000244141</ele>
        <time>2019-04-20T09:56:00.000Z</time>
      </trkpt>
      <trkpt lat="43.97471" lon="7.36202">
        <ele>1379.1999511719</ele>
        <time>2019-04-20T09:56:05.000Z</time>
      </trkpt>
      <trkpt lat="43.97471" lon="7.36202">
        <ele>1379.4000244141</ele>
        <time>2019-04-20T09:56:06.000Z</time>
      </trkpt>
      <trkpt lat="43.97469" lon="7.36206">
        <ele>1380.1999511719</ele>
        <time>2019-04-20T09:56:12.000Z</time>
      </trkpt>
      <trkpt lat="43.97468" lon="7.36208">
        <ele>1380.4000244141</ele>
        <time>2019-04-20T09:56:13.000Z</time>
      </trkpt>
      <trkpt lat="43.97468" lon="7.3621">
        <ele>1381.4000244141</ele>
        <time>2019-04-20T09:56:18.000Z</time>
      </trkpt>
      <trkpt lat="43.97468" lon="7.36211">
        <ele>1381.5999755859</ele>
        <time>2019-04-20T09:56:19.000Z</time>
      </trkpt>
      <trkpt lat="43.97467" lon="7.36212">
        <ele>1382.4000244141</ele>
        <time>2019-04-20T09:56:22.000Z</time>
      </trkpt>
      <trkpt lat="43.97467" lon="7.36213">
        <ele>1382.5999755859</ele>
        <time>2019-04-20T09:56:24.000Z</time>
      </trkpt>
      <trkpt lat="43.97467" lon="7.36215">
        <ele>1383.4000244141</ele>
        <time>2019-04-20T09:56:30.000Z</time>
      </trkpt>
      <trkpt lat="43.97466" lon="7.36216">
        <ele>1383.8000488281</ele>
        <time>2019-04-20T09:56:31.000Z</time>
      </trkpt>
      <trkpt lat="43.97465" lon="7.36218">
        <ele>1384.8000488281</ele>
        <time>2019-04-20T09:56:37.000Z</time>
      </trkpt>
      <trkpt lat="43.97466" lon="7.36221">
        <ele>1386</ele>
        <time>2019-04-20T09:56:47.000Z</time>
      </trkpt>
      <trkpt lat="43.97463" lon="7.36221">
        <ele>1386.4000244141</ele>
        <time>2019-04-20T09:56:52.000Z</time>
      </trkpt>
      <trkpt lat="43.97462" lon="7.36221">
        <ele>1386.8000488281</ele>
        <time>2019-04-20T09:56:56.000Z</time>
      </trkpt>
      <trkpt lat="43.97461" lon="7.36221">
        <ele>1386.8000488281</ele>
        <time>2019-04-20T09:56:57.000Z</time>
      </trkpt>
      <trkpt lat="43.97456" lon="7.36217">
        <ele>1386.4000244141</ele>
        <time>2019-04-20T09:57:05.000Z</time>
      </trkpt>
      <trkpt lat="43.97454" lon="7.36216">
        <ele>1386.1999511719</ele>
        <time>2019-04-20T09:57:07.000Z</time>
      </trkpt>
      <trkpt lat="43.97452" lon="7.36217">
        <ele>1385.8000488281</ele>
        <time>2019-04-20T09:57:10.000Z</time>
      </trkpt>
      <trkpt lat="43.97448" lon="7.36214">
        <ele>1387</ele>
        <time>2019-04-20T09:57:16.000Z</time>
      </trkpt>
      <trkpt lat="43.97448" lon="7.36214">
        <ele>1387.4000244141</ele>
        <time>2019-04-20T09:57:17.000Z</time>
      </trkpt>
      <trkpt lat="43.97443" lon="7.36211">
        <ele>1386.8000488281</ele>
        <time>2019-04-20T09:57:29.000Z</time>
      </trkpt>
      <trkpt lat="43.97434" lon="7.3621">
        <ele>1387.5999755859</ele>
        <time>2019-04-20T09:57:37.000Z</time>
      </trkpt>
      <trkpt lat="43.97433" lon="7.36209">
        <ele>1387.5999755859</ele>
        <time>2019-04-20T09:57:38.000Z</time>
      </trkpt>
      <trkpt lat="43.97426" lon="7.36207">
        <ele>1388</ele>
        <time>2019-04-20T09:57:44.000Z</time>
      </trkpt>
      <trkpt lat="43.97424" lon="7.36207">
        <ele>1388.1999511719</ele>
        <time>2019-04-20T09:57:47.000Z</time>
      </trkpt>
      <trkpt lat="43.97419" lon="7.36208">
        <ele>1388.1999511719</ele>
        <time>2019-04-20T09:57:51.000Z</time>
      </trkpt>
      <trkpt lat="43.97415" lon="7.36208">
        <ele>1388.1999511719</ele>
        <time>2019-04-20T09:57:56.000Z</time>
      </trkpt>
      <trkpt lat="43.97413" lon="7.36207">
        <ele>1388.4000244141</ele>
        <time>2019-04-20T09:57:58.000Z</time>
      </trkpt>
      <trkpt lat="43.97409" lon="7.36206">
        <ele>1388.8000488281</ele>
        <time>2019-04-20T09:58:04.000Z</time>
      </trkpt>
      <trkpt lat="43.97406" lon="7.36205">
        <ele>1388.8000488281</ele>
        <time>2019-04-20T09:58:10.000Z</time>
      </trkpt>
      <trkpt lat="43.97398" lon="7.36202">
        <ele>1388.1999511719</ele>
        <time>2019-04-20T09:58:15.000Z</time>
      </trkpt>
      <trkpt lat="43.97393" lon="7.36196">
        <ele>1388.1999511719</ele>
        <time>2019-04-20T09:58:20.000Z</time>
      </trkpt>
      <trkpt lat="43.97387" lon="7.36189">
        <ele>1388.8000488281</ele>
        <time>2019-04-20T09:58:26.000Z</time>
      </trkpt>
      <trkpt lat="43.97385" lon="7.36186">
        <ele>1389.1999511719</ele>
        <time>2019-04-20T09:58:28.000Z</time>
      </trkpt>
      <trkpt lat="43.97381" lon="7.36179">
        <ele>1389.5999755859</ele>
        <time>2019-04-20T09:58:33.000Z</time>
      </trkpt>
      <trkpt lat="43.97376" lon="7.36173">
        <ele>1390.1999511719</ele>
        <time>2019-04-20T09:58:37.000Z</time>
      </trkpt>
      <trkpt lat="43.97374" lon="7.36169">
        <ele>1390.8000488281</ele>
        <time>2019-04-20T09:58:40.000Z</time>
      </trkpt>
      <trkpt lat="43.9737" lon="7.36165">
        <ele>1391.4000244141</ele>
        <time>2019-04-20T09:58:43.000Z</time>
      </trkpt>
      <trkpt lat="43.97369" lon="7.36164">
        <ele>1391.5999755859</ele>
        <time>2019-04-20T09:58:44.000Z</time>
      </trkpt>
      <trkpt lat="43.97367" lon="7.36164">
        <ele>1391.8000488281</ele>
        <time>2019-04-20T09:58:45.000Z</time>
      </trkpt>
      <trkpt lat="43.97364" lon="7.36162">
        <ele>1392.4000244141</ele>
        <time>2019-04-20T09:58:47.000Z</time>
      </trkpt>
      <trkpt lat="43.9736" lon="7.36161">
        <ele>1392.8000488281</ele>
        <time>2019-04-20T09:58:50.000Z</time>
      </trkpt>
      <trkpt lat="43.97359" lon="7.3616">
        <ele>1392.8000488281</ele>
        <time>2019-04-20T09:58:51.000Z</time>
      </trkpt>
      <trkpt lat="43.97357" lon="7.36158">
        <ele>1393</ele>
        <time>2019-04-20T09:58:55.000Z</time>
      </trkpt>
      <trkpt lat="43.97352" lon="7.36154">
        <ele>1392.8000488281</ele>
        <time>2019-04-20T09:59:01.000Z</time>
      </trkpt>
      <trkpt lat="43.97345" lon="7.36153">
        <ele>1393.4000244141</ele>
        <time>2019-04-20T09:59:07.000Z</time>
      </trkpt>
      <trkpt lat="43.97343" lon="7.36153">
        <ele>1393.8000488281</ele>
        <time>2019-04-20T09:59:09.000Z</time>
      </trkpt>
      <trkpt lat="43.97338" lon="7.36154">
        <ele>1393.8000488281</ele>
        <time>2019-04-20T09:59:13.000Z</time>
      </trkpt>
      <trkpt lat="43.9733" lon="7.36153">
        <ele>1394.8000488281</ele>
        <time>2019-04-20T09:59:18.000Z</time>
      </trkpt>
      <trkpt lat="43.9733" lon="7.36153">
        <ele>1395.1999511719</ele>
        <time>2019-04-20T09:59:19.000Z</time>
      </trkpt>
      <trkpt lat="43.97328" lon="7.3615">
        <ele>1396</ele>
        <time>2019-04-20T09:59:23.000Z</time>
      </trkpt>
      <trkpt lat="43.97327" lon="7.3615">
        <ele>1396.1999511719</ele>
        <time>2019-04-20T09:59:25.000Z</time>
      </trkpt>
      <trkpt lat="43.97324" lon="7.36148">
        <ele>1397.1999511719</ele>
        <time>2019-04-20T09:59:29.000Z</time>
      </trkpt>
      <trkpt lat="43.97323" lon="7.36147">
        <ele>1397.5999755859</ele>
        <time>2019-04-20T09:59:31.000Z</time>
      </trkpt>
      <trkpt lat="43.9732" lon="7.36143">
        <ele>1397.8000488281</ele>
        <time>2019-04-20T09:59:36.000Z</time>
      </trkpt>
      <trkpt lat="43.97311" lon="7.36135">
        <ele>1398.1999511719</ele>
        <time>2019-04-20T09:59:42.000Z</time>
      </trkpt>
      <trkpt lat="43.97309" lon="7.36133">
        <ele>1398.1999511719</ele>
        <time>2019-04-20T09:59:43.000Z</time>
      </trkpt>
      <trkpt lat="43.973" lon="7.36122">
        <ele>1398.5999755859</ele>
        <time>2019-04-20T09:59:50.000Z</time>
      </trkpt>
      <trkpt lat="43.97298" lon="7.36115">
        <ele>1398.5999755859</ele>
        <time>2019-04-20T09:59:53.000Z</time>
      </trkpt>
      <trkpt lat="43.97299" lon="7.36113">
        <ele>1398.5999755859</ele>
        <time>2019-04-20T09:59:55.000Z</time>
      </trkpt>
      <trkpt lat="43.973" lon="7.3611">
        <ele>1398.5999755859</ele>
        <time>2019-04-20T09:59:57.000Z</time>
      </trkpt>
      <trkpt lat="43.97298" lon="7.36106">
        <ele>1399</ele>
        <time>2019-04-20T10:00:00.000Z</time>
      </trkpt>
      <trkpt lat="43.97297" lon="7.36103">
        <ele>1399.1999511719</ele>
        <time>2019-04-20T10:00:01.000Z</time>
      </trkpt>
      <trkpt lat="43.97295" lon="7.36098">
        <ele>1399.1999511719</ele>
        <time>2019-04-20T10:00:03.000Z</time>
      </trkpt>
      <trkpt lat="43.97292" lon="7.36091">
        <ele>1400.1999511719</ele>
        <time>2019-04-20T10:00:07.000Z</time>
      </trkpt>
      <trkpt lat="43.97291" lon="7.36089">
        <ele>1400.4000244141</ele>
        <time>2019-04-20T10:00:08.000Z</time>
      </trkpt>
      <trkpt lat="43.97288" lon="7.36079">
        <ele>1400.8000488281</ele>
        <time>2019-04-20T10:00:12.000Z</time>
      </trkpt>
      <trkpt lat="43.97283" lon="7.36069">
        <ele>1400.8000488281</ele>
        <time>2019-04-20T10:00:18.000Z</time>
      </trkpt>
      <trkpt lat="43.97282" lon="7.36063">
        <ele>1401.5999755859</ele>
        <time>2019-04-20T10:00:22.000Z</time>
      </trkpt>
      <trkpt lat="43.97282" lon="7.36063">
        <ele>1401.8000488281</ele>
        <time>2019-04-20T10:00:24.000Z</time>
      </trkpt>
      <trkpt lat="43.9728" lon="7.36056">
        <ele>1402.8000488281</ele>
        <time>2019-04-20T10:00:30.000Z</time>
      </trkpt>
      <trkpt lat="43.9728" lon="7.36055">
        <ele>1403</ele>
        <time>2019-04-20T10:00:31.000Z</time>
      </trkpt>
      <trkpt lat="43.97279" lon="7.36052">
        <ele>1404</ele>
        <time>2019-04-20T10:00:35.000Z</time>
      </trkpt>
      <trkpt lat="43.97278" lon="7.36048">
        <ele>1404.8000488281</ele>
        <time>2019-04-20T10:00:39.000Z</time>
      </trkpt>
      <trkpt lat="43.97278" lon="7.36047">
        <ele>1405</ele>
        <time>2019-04-20T10:00:41.000Z</time>
      </trkpt>
      <trkpt lat="43.97276" lon="7.36043">
        <ele>1406.1999511719</ele>
        <time>2019-04-20T10:00:46.000Z</time>
      </trkpt>
      <trkpt lat="43.97274" lon="7.36039">
        <ele>1407.1999511719</ele>
        <time>2019-04-20T10:00:53.000Z</time>
      </trkpt>
      <trkpt lat="43.97274" lon="7.36039">
        <ele>1407.4000244141</ele>
        <time>2019-04-20T10:00:54.000Z</time>
      </trkpt>
      <trkpt lat="43.97271" lon="7.36035">
        <ele>1408.4000244141</ele>
        <time>2019-04-20T10:00:59.000Z</time>
      </trkpt>
      <trkpt lat="43.97271" lon="7.36035">
        <ele>1408.4000244141</ele>
        <time>2019-04-20T10:01:00.000Z</time>
      </trkpt>
      <trkpt lat="43.97268" lon="7.36031">
        <ele>1409.1999511719</ele>
        <time>2019-04-20T10:01:06.000Z</time>
      </trkpt>
      <trkpt lat="43.97267" lon="7.3603">
        <ele>1409.4000244141</ele>
        <time>2019-04-20T10:01:07.000Z</time>
      </trkpt>
      <trkpt lat="43.97265" lon="7.3603">
        <ele>1409.5999755859</ele>
        <time>2019-04-20T10:01:09.000Z</time>
      </trkpt>
      <trkpt lat="43.97263" lon="7.36028">
        <ele>1410.1999511719</ele>
        <time>2019-04-20T10:01:12.000Z</time>
      </trkpt>
      <trkpt lat="43.97261" lon="7.36028">
        <ele>1410.5999755859</ele>
        <time>2019-04-20T10:01:14.000Z</time>
      </trkpt>
      <trkpt lat="43.97257" lon="7.36027">
        <ele>1411.1999511719</ele>
        <time>2019-04-20T10:01:18.000Z</time>
      </trkpt>
      <trkpt lat="43.97255" lon="7.36027">
        <ele>1411.5999755859</ele>
        <time>2019-04-20T10:01:20.000Z</time>
      </trkpt>
      <trkpt lat="43.97253" lon="7.36026">
        <ele>1412.1999511719</ele>
        <time>2019-04-20T10:01:24.000Z</time>
      </trkpt>
      <trkpt lat="43.97251" lon="7.36025">
        <ele>1412.1999511719</ele>
        <time>2019-04-20T10:01:34.000Z</time>
      </trkpt>
      <trkpt lat="43.97248" lon="7.36023">
        <ele>1412.4000244141</ele>
        <time>2019-04-20T10:01:41.000Z</time>
      </trkpt>
      <trkpt lat="43.97245" lon="7.36021">
        <ele>1412.4000244141</ele>
        <time>2019-04-20T10:01:47.000Z</time>
      </trkpt>
      <trkpt lat="43.9724" lon="7.36018">
        <ele>1412.5999755859</ele>
        <time>2019-04-20T10:01:54.000Z</time>
      </trkpt>
      <trkpt lat="43.97236" lon="7.36014">
        <ele>1412.8000488281</ele>
        <time>2019-04-20T10:01:58.000Z</time>
      </trkpt>
      <trkpt lat="43.97234" lon="7.36013">
        <ele>1413</ele>
        <time>2019-04-20T10:02:00.000Z</time>
      </trkpt>
      <trkpt lat="43.97228" lon="7.36011">
        <ele>1413.8000488281</ele>
        <time>2019-04-20T10:02:06.000Z</time>
      </trkpt>
      <trkpt lat="43.97227" lon="7.36011">
        <ele>1414</ele>
        <time>2019-04-20T10:02:08.000Z</time>
      </trkpt>
      <trkpt lat="43.97224" lon="7.3601">
        <ele>1413.8000488281</ele>
        <time>2019-04-20T10:02:12.000Z</time>
      </trkpt>
      <trkpt lat="43.97223" lon="7.36009">
        <ele>1413.8000488281</ele>
        <time>2019-04-20T10:02:13.000Z</time>
      </trkpt>
      <trkpt lat="43.97217" lon="7.36005">
        <ele>1414.4000244141</ele>
        <time>2019-04-20T10:02:18.000Z</time>
      </trkpt>
      <trkpt lat="43.97215" lon="7.36002">
        <ele>1414.5999755859</ele>
        <time>2019-04-20T10:02:20.000Z</time>
      </trkpt>
      <trkpt lat="43.97212" lon="7.35994">
        <ele>1414.8000488281</ele>
        <time>2019-04-20T10:02:24.000Z</time>
      </trkpt>
      <trkpt lat="43.97212" lon="7.35993">
        <ele>1415.1999511719</ele>
        <time>2019-04-20T10:02:28.000Z</time>
      </trkpt>
      <trkpt lat="43.97211" lon="7.35989">
        <ele>1415.8000488281</ele>
        <time>2019-04-20T10:02:32.000Z</time>
      </trkpt>
      <trkpt lat="43.9721" lon="7.35989">
        <ele>1416.4000244141</ele>
        <time>2019-04-20T10:02:34.000Z</time>
      </trkpt>
      <trkpt lat="43.9721" lon="7.35984">
        <ele>1416.8000488281</ele>
        <time>2019-04-20T10:02:37.000Z</time>
      </trkpt>
      <trkpt lat="43.9721" lon="7.35982">
        <ele>1417.4000244141</ele>
        <time>2019-04-20T10:02:41.000Z</time>
      </trkpt>
      <trkpt lat="43.97209" lon="7.35978">
        <ele>1417.8000488281</ele>
        <time>2019-04-20T10:02:44.000Z</time>
      </trkpt>
      <trkpt lat="43.97209" lon="7.35974">
        <ele>1418.5999755859</ele>
        <time>2019-04-20T10:02:48.000Z</time>
      </trkpt>
      <trkpt lat="43.97208" lon="7.35973">
        <ele>1418.8000488281</ele>
        <time>2019-04-20T10:02:49.000Z</time>
      </trkpt>
      <trkpt lat="43.97208" lon="7.35972">
        <ele>1419</ele>
        <time>2019-04-20T10:02:50.000Z</time>
      </trkpt>
      <trkpt lat="43.97208" lon="7.3597">
        <ele>1419.4000244141</ele>
        <time>2019-04-20T10:02:52.000Z</time>
      </trkpt>
      <trkpt lat="43.97207" lon="7.35967">
        <ele>1420</ele>
        <time>2019-04-20T10:02:56.000Z</time>
      </trkpt>
      <trkpt lat="43.97206" lon="7.35963">
        <ele>1420.5999755859</ele>
        <time>2019-04-20T10:02:59.000Z</time>
      </trkpt>
      <trkpt lat="43.97206" lon="7.35961">
        <ele>1421</ele>
        <time>2019-04-20T10:03:01.000Z</time>
      </trkpt>
      <trkpt lat="43.97206" lon="7.35958">
        <ele>1421.1999511719</ele>
        <time>2019-04-20T10:03:04.000Z</time>
      </trkpt>
      <trkpt lat="43.97206" lon="7.35956">
        <ele>1421.1999511719</ele>
        <time>2019-04-20T10:03:05.000Z</time>
      </trkpt>
      <trkpt lat="43.97204" lon="7.3595">
        <ele>1422</ele>
        <time>2019-04-20T10:03:12.000Z</time>
      </trkpt>
      <trkpt lat="43.97204" lon="7.3595">
        <ele>1422.1999511719</ele>
        <time>2019-04-20T10:03:13.000Z</time>
      </trkpt>
      <trkpt lat="43.97202" lon="7.35947">
        <ele>1423</ele>
        <time>2019-04-20T10:03:18.000Z</time>
      </trkpt>
      <trkpt lat="43.97202" lon="7.35946">
        <ele>1423.1999511719</ele>
        <time>2019-04-20T10:03:20.000Z</time>
      </trkpt>
      <trkpt lat="43.97201" lon="7.35944">
        <ele>1423.4000244141</ele>
        <time>2019-04-20T10:03:25.000Z</time>
      </trkpt>
      <trkpt lat="43.97199" lon="7.3594">
        <ele>1423.4000244141</ele>
        <time>2019-04-20T10:03:28.000Z</time>
      </trkpt>
      <trkpt lat="43.97195" lon="7.35938">
        <ele>1423.8000488281</ele>
        <time>2019-04-20T10:03:32.000Z</time>
      </trkpt>
      <trkpt lat="43.97193" lon="7.35936">
        <ele>1424.1999511719</ele>
        <time>2019-04-20T10:03:35.000Z</time>
      </trkpt>
      <trkpt lat="43.9719" lon="7.35935">
        <ele>1425</ele>
        <time>2019-04-20T10:03:40.000Z</time>
      </trkpt>
      <trkpt lat="43.97187" lon="7.35933">
        <ele>1425.4000244141</ele>
        <time>2019-04-20T10:03:44.000Z</time>
      </trkpt>
      <trkpt lat="43.97186" lon="7.35933">
        <ele>1425.5999755859</ele>
        <time>2019-04-20T10:03:46.000Z</time>
      </trkpt>
      <trkpt lat="43.9718" lon="7.35932">
        <ele>1426.1999511719</ele>
        <time>2019-04-20T10:03:52.000Z</time>
      </trkpt>
      <trkpt lat="43.97178" lon="7.35933">
        <ele>1426.4000244141</ele>
        <time>2019-04-20T10:03:54.000Z</time>
      </trkpt>
      <trkpt lat="43.97176" lon="7.35932">
        <ele>1426.8000488281</ele>
        <time>2019-04-20T10:03:58.000Z</time>
      </trkpt>
      <trkpt lat="43.9717" lon="7.35932">
        <ele>1426.5999755859</ele>
        <time>2019-04-20T10:04:02.000Z</time>
      </trkpt>
      <trkpt lat="43.97157" lon="7.35927">
        <ele>1426.8000488281</ele>
        <time>2019-04-20T10:04:10.000Z</time>
      </trkpt>
      <trkpt lat="43.97148" lon="7.35924">
        <ele>1427.5999755859</ele>
        <time>2019-04-20T10:04:15.000Z</time>
      </trkpt>
      <trkpt lat="43.97146" lon="7.35923">
        <ele>1427.8000488281</ele>
        <time>2019-04-20T10:04:16.000Z</time>
      </trkpt>
      <trkpt lat="43.97138" lon="7.35919">
        <ele>1428.4000244141</ele>
        <time>2019-04-20T10:04:21.000Z</time>
      </trkpt>
      <trkpt lat="43.97136" lon="7.35917">
        <ele>1428.5999755859</ele>
        <time>2019-04-20T10:04:22.000Z</time>
      </trkpt>
      <trkpt lat="43.97127" lon="7.35913">
        <ele>1429.5999755859</ele>
        <time>2019-04-20T10:04:27.000Z</time>
      </trkpt>
      <trkpt lat="43.97125" lon="7.35912">
        <ele>1430</ele>
        <time>2019-04-20T10:04:28.000Z</time>
      </trkpt>
      <trkpt lat="43.97118" lon="7.3591">
        <ele>1431.4000244141</ele>
        <time>2019-04-20T10:04:32.000Z</time>
      </trkpt>
      <trkpt lat="43.97116" lon="7.35909">
        <ele>1431.5999755859</ele>
        <time>2019-04-20T10:04:33.000Z</time>
      </trkpt>
      <trkpt lat="43.97114" lon="7.35908">
        <ele>1432.4000244141</ele>
        <time>2019-04-20T10:04:35.000Z</time>
      </trkpt>
      <trkpt lat="43.97111" lon="7.35907">
        <ele>1433</ele>
        <time>2019-04-20T10:04:37.000Z</time>
      </trkpt>
      <trkpt lat="43.97108" lon="7.35905">
        <ele>1433.5999755859</ele>
        <time>2019-04-20T10:04:39.000Z</time>
      </trkpt>
      <trkpt lat="43.97106" lon="7.35905">
        <ele>1433.5999755859</ele>
        <time>2019-04-20T10:04:40.000Z</time>
      </trkpt>
      <trkpt lat="43.97093" lon="7.359">
        <ele>1433.5999755859</ele>
        <time>2019-04-20T10:04:45.000Z</time>
      </trkpt>
      <trkpt lat="43.97089" lon="7.35901">
        <ele>1432.4000244141</ele>
        <time>2019-04-20T10:04:49.000Z</time>
      </trkpt>
      <trkpt lat="43.97085" lon="7.359">
        <ele>1431.8000488281</ele>
        <time>2019-04-20T10:04:53.000Z</time>
      </trkpt>
      <trkpt lat="43.97083" lon="7.35901">
        <ele>1431.8000488281</ele>
        <time>2019-04-20T10:04:55.000Z</time>
      </trkpt>
      <trkpt lat="43.97078" lon="7.35899">
        <ele>1432</ele>
        <time>2019-04-20T10:05:00.000Z</time>
      </trkpt>
      <trkpt lat="43.97077" lon="7.35898">
        <ele>1432</ele>
        <time>2019-04-20T10:05:01.000Z</time>
      </trkpt>
      <trkpt lat="43.97075" lon="7.35896">
        <ele>1431.8000488281</ele>
        <time>2019-04-20T10:05:07.000Z</time>
      </trkpt>
      <trkpt lat="43.97071" lon="7.35895">
        <ele>1431.5999755859</ele>
        <time>2019-04-20T10:05:13.000Z</time>
      </trkpt>
      <trkpt lat="43.9707" lon="7.35895">
        <ele>1431.8000488281</ele>
        <time>2019-04-20T10:05:14.000Z</time>
      </trkpt>
      <trkpt lat="43.97062" lon="7.35893">
        <ele>1432</ele>
        <time>2019-04-20T10:05:21.000Z</time>
      </trkpt>
      <trkpt lat="43.97059" lon="7.35888">
        <ele>1432.8000488281</ele>
        <time>2019-04-20T10:05:26.000Z</time>
      </trkpt>
      <trkpt lat="43.97058" lon="7.35887">
        <ele>1433</ele>
        <time>2019-04-20T10:05:28.000Z</time>
      </trkpt>
      <trkpt lat="43.97057" lon="7.35887">
        <ele>1433.4000244141</ele>
        <time>2019-04-20T10:05:30.000Z</time>
      </trkpt>
      <trkpt lat="43.97055" lon="7.35885">
        <ele>1434</ele>
        <time>2019-04-20T10:05:34.000Z</time>
      </trkpt>
      <trkpt lat="43.97053" lon="7.35884">
        <ele>1434.4000244141</ele>
        <time>2019-04-20T10:05:37.000Z</time>
      </trkpt>
      <trkpt lat="43.97051" lon="7.35882">
        <ele>1435</ele>
        <time>2019-04-20T10:05:40.000Z</time>
      </trkpt>
      <trkpt lat="43.97046" lon="7.35877">
        <ele>1435.1999511719</ele>
        <time>2019-04-20T10:05:47.000Z</time>
      </trkpt>
      <trkpt lat="43.97043" lon="7.35873">
        <ele>1435.1999511719</ele>
        <time>2019-04-20T10:05:53.000Z</time>
      </trkpt>
      <trkpt lat="43.97042" lon="7.35871">
        <ele>1435.5999755859</ele>
        <time>2019-04-20T10:05:57.000Z</time>
      </trkpt>
      <trkpt lat="43.97039" lon="7.35868">
        <ele>1436.5999755859</ele>
        <time>2019-04-20T10:06:03.000Z</time>
      </trkpt>
      <trkpt lat="43.97034" lon="7.35865">
        <ele>1437.5999755859</ele>
        <time>2019-04-20T10:06:08.000Z</time>
      </trkpt>
      <trkpt lat="43.97034" lon="7.35865">
        <ele>1437.8000488281</ele>
        <time>2019-04-20T10:06:09.000Z</time>
      </trkpt>
      <trkpt lat="43.97032" lon="7.35863">
        <ele>1438.5999755859</ele>
        <time>2019-04-20T10:06:15.000Z</time>
      </trkpt>
      <trkpt lat="43.97031" lon="7.35862">
        <ele>1438.8000488281</ele>
        <time>2019-04-20T10:06:16.000Z</time>
      </trkpt>
      <trkpt lat="43.97029" lon="7.35861">
        <ele>1439.8000488281</ele>
        <time>2019-04-20T10:06:22.000Z</time>
      </trkpt>
      <trkpt lat="43.97027" lon="7.3586">
        <ele>1441</ele>
        <time>2019-04-20T10:06:28.000Z</time>
      </trkpt>
      <trkpt lat="43.97025" lon="7.35857">
        <ele>1442</ele>
        <time>2019-04-20T10:06:33.000Z</time>
      </trkpt>
      <trkpt lat="43.97024" lon="7.35856">
        <ele>1442.1999511719</ele>
        <time>2019-04-20T10:06:35.000Z</time>
      </trkpt>
      <trkpt lat="43.97024" lon="7.35855">
        <ele>1442.4000244141</ele>
        <time>2019-04-20T10:06:40.000Z</time>
      </trkpt>
      <trkpt lat="43.97022" lon="7.35852">
        <ele>1442.5999755859</ele>
        <time>2019-04-20T10:06:47.000Z</time>
      </trkpt>
      <trkpt lat="43.9702" lon="7.3585">
        <ele>1443</ele>
        <time>2019-04-20T10:06:52.000Z</time>
      </trkpt>
      <trkpt lat="43.97019" lon="7.3585">
        <ele>1443.1999511719</ele>
        <time>2019-04-20T10:06:53.000Z</time>
      </trkpt>
      <trkpt lat="43.97017" lon="7.35848">
        <ele>1444</ele>
        <time>2019-04-20T10:06:59.000Z</time>
      </trkpt>
      <trkpt lat="43.97014" lon="7.35847">
        <ele>1445</ele>
        <time>2019-04-20T10:07:05.000Z</time>
      </trkpt>
      <trkpt lat="43.97013" lon="7.35847">
        <ele>1445.1999511719</ele>
        <time>2019-04-20T10:07:06.000Z</time>
      </trkpt>
      <trkpt lat="43.97011" lon="7.35847">
        <ele>1446.4000244141</ele>
        <time>2019-04-20T10:07:12.000Z</time>
      </trkpt>
      <trkpt lat="43.97008" lon="7.35845">
        <ele>1447.4000244141</ele>
        <time>2019-04-20T10:07:17.000Z</time>
      </trkpt>
      <trkpt lat="43.97007" lon="7.35844">
        <ele>1447.5999755859</ele>
        <time>2019-04-20T10:07:19.000Z</time>
      </trkpt>
      <trkpt lat="43.97003" lon="7.35841">
        <ele>1447.8000488281</ele>
        <time>2019-04-20T10:07:26.000Z</time>
      </trkpt>
      <trkpt lat="43.97" lon="7.3584">
        <ele>1447.5999755859</ele>
        <time>2019-04-20T10:07:32.000Z</time>
      </trkpt>
      <trkpt lat="43.96995" lon="7.3584">
        <ele>1448.4000244141</ele>
        <time>2019-04-20T10:07:38.000Z</time>
      </trkpt>
      <trkpt lat="43.96994" lon="7.3584">
        <ele>1448.5999755859</ele>
        <time>2019-04-20T10:07:39.000Z</time>
      </trkpt>
      <trkpt lat="43.96992" lon="7.35836">
        <ele>1449.8000488281</ele>
        <time>2019-04-20T10:07:44.000Z</time>
      </trkpt>
      <trkpt lat="43.96991" lon="7.35835">
        <ele>1450</ele>
        <time>2019-04-20T10:07:46.000Z</time>
      </trkpt>
      <trkpt lat="43.96991" lon="7.35832">
        <ele>1450.5999755859</ele>
        <time>2019-04-20T10:07:51.000Z</time>
      </trkpt>
      <trkpt lat="43.96988" lon="7.3583">
        <ele>1450.4000244141</ele>
        <time>2019-04-20T10:07:58.000Z</time>
      </trkpt>
      <trkpt lat="43.96982" lon="7.35828">
        <ele>1450.8000488281</ele>
        <time>2019-04-20T10:08:04.000Z</time>
      </trkpt>
      <trkpt lat="43.96979" lon="7.35825">
        <ele>1451</ele>
        <time>2019-04-20T10:08:08.000Z</time>
      </trkpt>
      <trkpt lat="43.96981" lon="7.35819">
        <ele>1450.8000488281</ele>
        <time>2019-04-20T10:08:13.000Z</time>
      </trkpt>
      <trkpt lat="43.9698" lon="7.35815">
        <ele>1450.4000244141</ele>
        <time>2019-04-20T10:08:18.000Z</time>
      </trkpt>
      <trkpt lat="43.96978" lon="7.35814">
        <ele>1450.4000244141</ele>
        <time>2019-04-20T10:08:20.000Z</time>
      </trkpt>
      <trkpt lat="43.96978" lon="7.35813">
        <ele>1450.1999511719</ele>
        <time>2019-04-20T10:08:22.000Z</time>
      </trkpt>
      <trkpt lat="43.96977" lon="7.35809">
        <ele>1449.5999755859</ele>
        <time>2019-04-20T10:08:27.000Z</time>
      </trkpt>
      <trkpt lat="43.96978" lon="7.35807">
        <ele>1449.5999755859</ele>
        <time>2019-04-20T10:08:28.000Z</time>
      </trkpt>
      <trkpt lat="43.9698" lon="7.35795">
        <ele>1448.1999511719</ele>
        <time>2019-04-20T10:08:33.000Z</time>
      </trkpt>
      <trkpt lat="43.96979" lon="7.35795">
        <ele>1446.8000488281</ele>
        <time>2019-04-20T10:08:37.000Z</time>
      </trkpt>
      <trkpt lat="43.96981" lon="7.35792">
        <ele>1446.4000244141</ele>
        <time>2019-04-20T10:08:38.000Z</time>
      </trkpt>
      <trkpt lat="43.96982" lon="7.35789">
        <ele>1445.5999755859</ele>
        <time>2019-04-20T10:08:39.000Z</time>
      </trkpt>
      <trkpt lat="43.96985" lon="7.35783">
        <ele>1444</ele>
        <time>2019-04-20T10:08:41.000Z</time>
      </trkpt>
      <trkpt lat="43.96984" lon="7.35774">
        <ele>1442.4000244141</ele>
        <time>2019-04-20T10:08:43.000Z</time>
      </trkpt>
      <trkpt lat="43.96982" lon="7.35768">
        <ele>1441.8000488281</ele>
        <time>2019-04-20T10:08:44.000Z</time>
      </trkpt>
      <trkpt lat="43.96985" lon="7.35762">
        <ele>1440.8000488281</ele>
        <time>2019-04-20T10:08:46.000Z</time>
      </trkpt>
      <trkpt lat="43.96984" lon="7.35761">
        <ele>1440.5999755859</ele>
        <time>2019-04-20T10:08:47.000Z</time>
      </trkpt>
      <trkpt lat="43.96987" lon="7.35751">
        <ele>1441</ele>
        <time>2019-04-20T10:08:51.000Z</time>
      </trkpt>
      <trkpt lat="43.96989" lon="7.35745">
        <ele>1441.1999511719</ele>
        <time>2019-04-20T10:08:57.000Z</time>
      </trkpt>
      <trkpt lat="43.96989" lon="7.35744">
        <ele>1441.4000244141</ele>
        <time>2019-04-20T10:08:59.000Z</time>
      </trkpt>
      <trkpt lat="43.96989" lon="7.35744">
        <ele>1441.4000244141</ele>
        <time>2019-04-20T10:09:00.000Z</time>
      </trkpt>
      <trkpt lat="43.96992" lon="7.3574">
        <ele>1441.5999755859</ele>
        <time>2019-04-20T10:09:04.000Z</time>
      </trkpt>
      <trkpt lat="43.96997" lon="7.3573">
        <ele>1441.5999755859</ele>
        <time>2019-04-20T10:09:09.000Z</time>
      </trkpt>
      <trkpt lat="43.96998" lon="7.35727">
        <ele>1441.4000244141</ele>
        <time>2019-04-20T10:09:11.000Z</time>
      </trkpt>
      <trkpt lat="43.96999" lon="7.35725">
        <ele>1441.1999511719</ele>
        <time>2019-04-20T10:09:13.000Z</time>
      </trkpt>
      <trkpt lat="43.96999" lon="7.35719">
        <ele>1440.8000488281</ele>
        <time>2019-04-20T10:09:17.000Z</time>
      </trkpt>
      <trkpt lat="43.97003" lon="7.35711">
        <ele>1440</ele>
        <time>2019-04-20T10:09:21.000Z</time>
      </trkpt>
      <trkpt lat="43.97006" lon="7.35704">
        <ele>1440.1999511719</ele>
        <time>2019-04-20T10:09:25.000Z</time>
      </trkpt>
      <trkpt lat="43.97008" lon="7.357">
        <ele>1440.4000244141</ele>
        <time>2019-04-20T10:09:28.000Z</time>
      </trkpt>
      <trkpt lat="43.97008" lon="7.35698">
        <ele>1440.5999755859</ele>
        <time>2019-04-20T10:09:29.000Z</time>
      </trkpt>
      <trkpt lat="43.97009" lon="7.35697">
        <ele>1440.4000244141</ele>
        <time>2019-04-20T10:09:30.000Z</time>
      </trkpt>
      <trkpt lat="43.97011" lon="7.35693">
        <ele>1440.8000488281</ele>
        <time>2019-04-20T10:09:33.000Z</time>
      </trkpt>
      <trkpt lat="43.9701" lon="7.35692">
        <ele>1441.1999511719</ele>
        <time>2019-04-20T10:09:35.000Z</time>
      </trkpt>
      <trkpt lat="43.97011" lon="7.35689">
        <ele>1441.4000244141</ele>
        <time>2019-04-20T10:09:37.000Z</time>
      </trkpt>
      <trkpt lat="43.97012" lon="7.35684">
        <ele>1441.8000488281</ele>
        <time>2019-04-20T10:09:41.000Z</time>
      </trkpt>
      <trkpt lat="43.97012" lon="7.35682">
        <ele>1441.8000488281</ele>
        <time>2019-04-20T10:09:42.000Z</time>
      </trkpt>
      <trkpt lat="43.97008" lon="7.3568">
        <ele>1441.8000488281</ele>
        <time>2019-04-20T10:09:46.000Z</time>
      </trkpt>
      <trkpt lat="43.97008" lon="7.35673">
        <ele>1442.1999511719</ele>
        <time>2019-04-20T10:09:52.000Z</time>
      </trkpt>
      <trkpt lat="43.97009" lon="7.35671">
        <ele>1443</ele>
        <time>2019-04-20T10:09:55.000Z</time>
      </trkpt>
      <trkpt lat="43.97009" lon="7.35666">
        <ele>1443.4000244141</ele>
        <time>2019-04-20T10:09:58.000Z</time>
      </trkpt>
      <trkpt lat="43.9701" lon="7.35664">
        <ele>1443.4000244141</ele>
        <time>2019-04-20T10:09:59.000Z</time>
      </trkpt>
      <trkpt lat="43.97012" lon="7.35659">
        <ele>1443</ele>
        <time>2019-04-20T10:10:02.000Z</time>
      </trkpt>
      <trkpt lat="43.97014" lon="7.35652">
        <ele>1443</ele>
        <time>2019-04-20T10:10:07.000Z</time>
      </trkpt>
      <trkpt lat="43.97012" lon="7.3565">
        <ele>1443.1999511719</ele>
        <time>2019-04-20T10:10:09.000Z</time>
      </trkpt>
      <trkpt lat="43.9701" lon="7.35649">
        <ele>1443.4000244141</ele>
        <time>2019-04-20T10:10:10.000Z</time>
      </trkpt>
      <trkpt lat="43.97006" lon="7.35649">
        <ele>1443.8000488281</ele>
        <time>2019-04-20T10:10:12.000Z</time>
      </trkpt>
      <trkpt lat="43.97005" lon="7.35647">
        <ele>1444</ele>
        <time>2019-04-20T10:10:14.000Z</time>
      </trkpt>
      <trkpt lat="43.97004" lon="7.35645">
        <ele>1444</ele>
        <time>2019-04-20T10:10:16.000Z</time>
      </trkpt>
      <trkpt lat="43.97003" lon="7.35645">
        <ele>1444.1999511719</ele>
        <time>2019-04-20T10:10:18.000Z</time>
      </trkpt>
      <trkpt lat="43.97007" lon="7.35638">
        <ele>1444</ele>
        <time>2019-04-20T10:10:23.000Z</time>
      </trkpt>
      <trkpt lat="43.97006" lon="7.35637">
        <ele>1444</ele>
        <time>2019-04-20T10:10:24.000Z</time>
      </trkpt>
      <trkpt lat="43.97004" lon="7.35636">
        <ele>1444.1999511719</ele>
        <time>2019-04-20T10:10:26.000Z</time>
      </trkpt>
      <trkpt lat="43.97006" lon="7.3563">
        <ele>1445</ele>
        <time>2019-04-20T10:10:31.000Z</time>
      </trkpt>
      <trkpt lat="43.97007" lon="7.35627">
        <ele>1445.1999511719</ele>
        <time>2019-04-20T10:10:32.000Z</time>
      </trkpt>
      <trkpt lat="43.97007" lon="7.35624">
        <ele>1445.5999755859</ele>
        <time>2019-04-20T10:10:35.000Z</time>
      </trkpt>
      <trkpt lat="43.97007" lon="7.35621">
        <ele>1446.1999511719</ele>
        <time>2019-04-20T10:10:38.000Z</time>
      </trkpt>
      <trkpt lat="43.97006" lon="7.3562">
        <ele>1446.1999511719</ele>
        <time>2019-04-20T10:10:39.000Z</time>
      </trkpt>
      <trkpt lat="43.97007" lon="7.3562">
        <ele>1446.4000244141</ele>
        <time>2019-04-20T10:10:40.000Z</time>
      </trkpt>
      <trkpt lat="43.97008" lon="7.35612">
        <ele>1447</ele>
        <time>2019-04-20T10:10:44.000Z</time>
      </trkpt>
      <trkpt lat="43.97009" lon="7.35608">
        <ele>1447.1999511719</ele>
        <time>2019-04-20T10:10:46.000Z</time>
      </trkpt>
      <trkpt lat="43.97011" lon="7.35605">
        <ele>1447.4000244141</ele>
        <time>2019-04-20T10:10:47.000Z</time>
      </trkpt>
      <trkpt lat="43.9701" lon="7.35605">
        <ele>1447.5999755859</ele>
        <time>2019-04-20T10:10:49.000Z</time>
      </trkpt>
      <trkpt lat="43.97014" lon="7.35598">
        <ele>1448.1999511719</ele>
        <time>2019-04-20T10:10:55.000Z</time>
      </trkpt>
      <trkpt lat="43.97017" lon="7.35591">
        <ele>1448.4000244141</ele>
        <time>2019-04-20T10:11:01.000Z</time>
      </trkpt>
      <trkpt lat="43.97018" lon="7.3559">
        <ele>1448.8000488281</ele>
        <time>2019-04-20T10:11:03.000Z</time>
      </trkpt>
      <trkpt lat="43.97021" lon="7.35585">
        <ele>1449.4000244141</ele>
        <time>2019-04-20T10:11:08.000Z</time>
      </trkpt>
      <trkpt lat="43.97023" lon="7.35582">
        <ele>1449.4000244141</ele>
        <time>2019-04-20T10:11:09.000Z</time>
      </trkpt>
      <trkpt lat="43.97025" lon="7.35578">
        <ele>1450</ele>
        <time>2019-04-20T10:11:14.000Z</time>
      </trkpt>
      <trkpt lat="43.97028" lon="7.35571">
        <ele>1450.1999511719</ele>
        <time>2019-04-20T10:11:20.000Z</time>
      </trkpt>
      <trkpt lat="43.97029" lon="7.35568">
        <ele>1450.4000244141</ele>
        <time>2019-04-20T10:11:22.000Z</time>
      </trkpt>
      <trkpt lat="43.97032" lon="7.35564">
        <ele>1451</ele>
        <time>2019-04-20T10:11:26.000Z</time>
      </trkpt>
      <trkpt lat="43.97034" lon="7.35563">
        <ele>1451</ele>
        <time>2019-04-20T10:11:28.000Z</time>
      </trkpt>
      <trkpt lat="43.97037" lon="7.3556">
        <ele>1450.8000488281</ele>
        <time>2019-04-20T10:11:31.000Z</time>
      </trkpt>
      <trkpt lat="43.97039" lon="7.35558">
        <ele>1450.8000488281</ele>
        <time>2019-04-20T10:11:32.000Z</time>
      </trkpt>
      <trkpt lat="43.97042" lon="7.35555">
        <ele>1450.5999755859</ele>
        <time>2019-04-20T10:11:37.000Z</time>
      </trkpt>
      <trkpt lat="43.97042" lon="7.35552">
        <ele>1450.1999511719</ele>
        <time>2019-04-20T10:11:42.000Z</time>
      </trkpt>
      <trkpt lat="43.97044" lon="7.35551">
        <ele>1451.1999511719</ele>
        <time>2019-04-20T10:11:46.000Z</time>
      </trkpt>
      <trkpt lat="43.97045" lon="7.35551">
        <ele>1451.4000244141</ele>
        <time>2019-04-20T10:11:47.000Z</time>
      </trkpt>
      <trkpt lat="43.97046" lon="7.3555">
        <ele>1451.1999511719</ele>
        <time>2019-04-20T10:11:48.000Z</time>
      </trkpt>
      <trkpt lat="43.97046" lon="7.35549">
        <ele>1450.5999755859</ele>
        <time>2019-04-20T10:11:52.000Z</time>
      </trkpt>
      <trkpt lat="43.9705" lon="7.35546">
        <ele>1450</ele>
        <time>2019-04-20T10:11:56.000Z</time>
      </trkpt>
      <trkpt lat="43.97053" lon="7.35544">
        <ele>1449.4000244141</ele>
        <time>2019-04-20T10:11:59.000Z</time>
      </trkpt>
      <trkpt lat="43.97055" lon="7.35542">
        <ele>1448.8000488281</ele>
        <time>2019-04-20T10:12:02.000Z</time>
      </trkpt>
      <trkpt lat="43.97056" lon="7.35542">
        <ele>1448.5999755859</ele>
        <time>2019-04-20T10:12:03.000Z</time>
      </trkpt>
      <trkpt lat="43.97057" lon="7.35541">
        <ele>1448.1999511719</ele>
        <time>2019-04-20T10:12:05.000Z</time>
      </trkpt>
      <trkpt lat="43.97058" lon="7.3554">
        <ele>1448</ele>
        <time>2019-04-20T10:12:09.000Z</time>
      </trkpt>
      <trkpt lat="43.9706" lon="7.35539">
        <ele>1447.8000488281</ele>
        <time>2019-04-20T10:12:11.000Z</time>
      </trkpt>
      <trkpt lat="43.97062" lon="7.35537">
        <ele>1447.1999511719</ele>
        <time>2019-04-20T10:12:14.000Z</time>
      </trkpt>
      <trkpt lat="43.97069" lon="7.35532">
        <ele>1446.4000244141</ele>
        <time>2019-04-20T10:12:19.000Z</time>
      </trkpt>
      <trkpt lat="43.97069" lon="7.35531">
        <ele>1446.4000244141</ele>
        <time>2019-04-20T10:12:20.000Z</time>
      </trkpt>
      <trkpt lat="43.9707" lon="7.3553">
        <ele>1446.1999511719</ele>
        <time>2019-04-20T10:12:21.000Z</time>
      </trkpt>
      <trkpt lat="43.97073" lon="7.35525">
        <ele>1446</ele>
        <time>2019-04-20T10:12:23.000Z</time>
      </trkpt>
      <trkpt lat="43.97075" lon="7.35521">
        <ele>1446</ele>
        <time>2019-04-20T10:12:25.000Z</time>
      </trkpt>
      <trkpt lat="43.97075" lon="7.35519">
        <ele>1446.5999755859</ele>
        <time>2019-04-20T10:12:27.000Z</time>
      </trkpt>
      <trkpt lat="43.97075" lon="7.35517">
        <ele>1447</ele>
        <time>2019-04-20T10:12:29.000Z</time>
      </trkpt>
      <trkpt lat="43.97074" lon="7.35514">
        <ele>1447.1999511719</ele>
        <time>2019-04-20T10:12:30.000Z</time>
      </trkpt>
      <trkpt lat="43.97074" lon="7.3551">
        <ele>1447.4000244141</ele>
        <time>2019-04-20T10:12:32.000Z</time>
      </trkpt>
      <trkpt lat="43.97065" lon="7.35502">
        <ele>1446.8000488281</ele>
        <time>2019-04-20T10:12:37.000Z</time>
      </trkpt>
      <trkpt lat="43.97063" lon="7.35502">
        <ele>1446.8000488281</ele>
        <time>2019-04-20T10:12:38.000Z</time>
      </trkpt>
      <trkpt lat="43.97062" lon="7.35501">
        <ele>1446.8000488281</ele>
        <time>2019-04-20T10:12:41.000Z</time>
      </trkpt>
      <trkpt lat="43.97058" lon="7.35501">
        <ele>1447.4000244141</ele>
        <time>2019-04-20T10:12:48.000Z</time>
      </trkpt>
      <trkpt lat="43.97056" lon="7.355">
        <ele>1447.4000244141</ele>
        <time>2019-04-20T10:12:51.000Z</time>
      </trkpt>
      <trkpt lat="43.9705" lon="7.35498">
        <ele>1447.5999755859</ele>
        <time>2019-04-20T10:12:57.000Z</time>
      </trkpt>
      <trkpt lat="43.97047" lon="7.35495">
        <ele>1448.4000244141</ele>
        <time>2019-04-20T10:13:01.000Z</time>
      </trkpt>
      <trkpt lat="43.97046" lon="7.35494">
        <ele>1448.4000244141</ele>
        <time>2019-04-20T10:13:02.000Z</time>
      </trkpt>
      <trkpt lat="43.97041" lon="7.3549">
        <ele>1448.5999755859</ele>
        <time>2019-04-20T10:13:07.000Z</time>
      </trkpt>
      <trkpt lat="43.97043" lon="7.35491">
        <ele>1448.5999755859</ele>
        <time>2019-04-20T10:13:08.000Z</time>
      </trkpt>
      <trkpt lat="43.97039" lon="7.35487">
        <ele>1449.1999511719</ele>
        <time>2019-04-20T10:13:14.000Z</time>
      </trkpt>
      <trkpt lat="43.97039" lon="7.35487">
        <ele>1449.4000244141</ele>
        <time>2019-04-20T10:13:16.000Z</time>
      </trkpt>
      <trkpt lat="43.97036" lon="7.35485">
        <ele>1450</ele>
        <time>2019-04-20T10:13:19.000Z</time>
      </trkpt>
      <trkpt lat="43.97036" lon="7.35484">
        <ele>1450.5999755859</ele>
        <time>2019-04-20T10:13:21.000Z</time>
      </trkpt>
      <trkpt lat="43.97035" lon="7.35481">
        <ele>1451.1999511719</ele>
        <time>2019-04-20T10:13:24.000Z</time>
      </trkpt>
      <trkpt lat="43.97034" lon="7.3548">
        <ele>1451.1999511719</ele>
        <time>2019-04-20T10:13:25.000Z</time>
      </trkpt>
      <trkpt lat="43.97034" lon="7.3548">
        <ele>1451.5999755859</ele>
        <time>2019-04-20T10:13:27.000Z</time>
      </trkpt>
      <trkpt lat="43.97033" lon="7.35479">
        <ele>1451.8000488281</ele>
        <time>2019-04-20T10:13:28.000Z</time>
      </trkpt>
      <trkpt lat="43.97031" lon="7.35478">
        <ele>1452.4000244141</ele>
        <time>2019-04-20T10:13:33.000Z</time>
      </trkpt>
      <trkpt lat="43.9703" lon="7.35478">
        <ele>1452.8000488281</ele>
        <time>2019-04-20T10:13:35.000Z</time>
      </trkpt>
      <trkpt lat="43.97028" lon="7.35474">
        <ele>1453.8000488281</ele>
        <time>2019-04-20T10:13:40.000Z</time>
      </trkpt>
      <trkpt lat="43.97025" lon="7.3547">
        <ele>1454.8000488281</ele>
        <time>2019-04-20T10:13:46.000Z</time>
      </trkpt>
      <trkpt lat="43.97022" lon="7.35465">
        <ele>1454.5999755859</ele>
        <time>2019-04-20T10:13:51.000Z</time>
      </trkpt>
      <trkpt lat="43.97021" lon="7.35465">
        <ele>1454.5999755859</ele>
        <time>2019-04-20T10:13:52.000Z</time>
      </trkpt>
      <trkpt lat="43.97021" lon="7.35464">
        <ele>1454.8000488281</ele>
        <time>2019-04-20T10:13:53.000Z</time>
      </trkpt>
      <trkpt lat="43.9702" lon="7.35462">
        <ele>1455</ele>
        <time>2019-04-20T10:13:54.000Z</time>
      </trkpt>
      <trkpt lat="43.97017" lon="7.3546">
        <ele>1455.1999511719</ele>
        <time>2019-04-20T10:13:58.000Z</time>
      </trkpt>
      <trkpt lat="43.97013" lon="7.3546">
        <ele>1456</ele>
        <time>2019-04-20T10:14:03.000Z</time>
      </trkpt>
      <trkpt lat="43.97013" lon="7.35459">
        <ele>1456.1999511719</ele>
        <time>2019-04-20T10:14:04.000Z</time>
      </trkpt>
      <trkpt lat="43.97009" lon="7.35456">
        <ele>1457</ele>
        <time>2019-04-20T10:14:09.000Z</time>
      </trkpt>
      <trkpt lat="43.97008" lon="7.35455">
        <ele>1457.4000244141</ele>
        <time>2019-04-20T10:14:11.000Z</time>
      </trkpt>
      <trkpt lat="43.97001" lon="7.35449">
        <ele>1457.5999755859</ele>
        <time>2019-04-20T10:14:18.000Z</time>
      </trkpt>
      <trkpt lat="43.97" lon="7.35447">
        <ele>1457.4000244141</ele>
        <time>2019-04-20T10:14:19.000Z</time>
      </trkpt>
      <trkpt lat="43.96998" lon="7.35446">
        <ele>1457.4000244141</ele>
        <time>2019-04-20T10:14:21.000Z</time>
      </trkpt>
      <trkpt lat="43.96994" lon="7.35445">
        <ele>1457.1999511719</ele>
        <time>2019-04-20T10:14:27.000Z</time>
      </trkpt>
      <trkpt lat="43.96991" lon="7.35443">
        <ele>1457</ele>
        <time>2019-04-20T10:14:33.000Z</time>
      </trkpt>
      <trkpt lat="43.96989" lon="7.35444">
        <ele>1457.5999755859</ele>
        <time>2019-04-20T10:14:38.000Z</time>
      </trkpt>
      <trkpt lat="43.96985" lon="7.3544">
        <ele>1457.5999755859</ele>
        <time>2019-04-20T10:14:56.000Z</time>
      </trkpt>
      <trkpt lat="43.96983" lon="7.35438">
        <ele>1457.4000244141</ele>
        <time>2019-04-20T10:15:03.000Z</time>
      </trkpt>
      <trkpt lat="43.96983" lon="7.35438">
        <ele>1457.5999755859</ele>
        <time>2019-04-20T10:15:10.000Z</time>
      </trkpt>
      <trkpt lat="43.96982" lon="7.35437">
        <ele>1457.4000244141</ele>
        <time>2019-04-20T10:15:12.000Z</time>
      </trkpt>
      <trkpt lat="43.96981" lon="7.35437">
        <ele>1457.1999511719</ele>
        <time>2019-04-20T10:15:15.000Z</time>
      </trkpt>
      <trkpt lat="43.9698" lon="7.35437">
        <ele>1456.4000244141</ele>
        <time>2019-04-20T10:15:20.000Z</time>
      </trkpt>
      <trkpt lat="43.96979" lon="7.35436">
        <ele>1456.5999755859</ele>
        <time>2019-04-20T10:15:29.000Z</time>
      </trkpt>
      <trkpt lat="43.96979" lon="7.35436">
        <ele>1456.8000488281</ele>
        <time>2019-04-20T10:15:36.000Z</time>
      </trkpt>
      <trkpt lat="43.96979" lon="7.35437">
        <ele>1456.5999755859</ele>
        <time>2019-04-20T10:15:43.000Z</time>
      </trkpt>
      <trkpt lat="43.96979" lon="7.35439">
        <ele>1456.5999755859</ele>
        <time>2019-04-20T10:15:53.000Z</time>
      </trkpt>
      <trkpt lat="43.96973" lon="7.35438">
        <ele>1456.8000488281</ele>
        <time>2019-04-20T10:16:00.000Z</time>
      </trkpt>
      <trkpt lat="43.9697" lon="7.35437">
        <ele>1457</ele>
        <time>2019-04-20T10:16:03.000Z</time>
      </trkpt>
      <trkpt lat="43.96968" lon="7.35436">
        <ele>1457</ele>
        <time>2019-04-20T10:16:06.000Z</time>
      </trkpt>
      <trkpt lat="43.96963" lon="7.35433">
        <ele>1456.5999755859</ele>
        <time>2019-04-20T10:16:12.000Z</time>
      </trkpt>
      <trkpt lat="43.96961" lon="7.35432">
        <ele>1456</ele>
        <time>2019-04-20T10:16:17.000Z</time>
      </trkpt>
      <trkpt lat="43.9696" lon="7.35432">
        <ele>1455.8000488281</ele>
        <time>2019-04-20T10:16:19.000Z</time>
      </trkpt>
      <trkpt lat="43.96956" lon="7.35428">
        <ele>1455.5999755859</ele>
        <time>2019-04-20T10:16:27.000Z</time>
      </trkpt>
      <trkpt lat="43.96952" lon="7.35424">
        <ele>1455.8000488281</ele>
        <time>2019-04-20T10:16:34.000Z</time>
      </trkpt>
      <trkpt lat="43.96952" lon="7.35423">
        <ele>1455</ele>
        <time>2019-04-20T10:16:39.000Z</time>
      </trkpt>
      <trkpt lat="43.96947" lon="7.35418">
        <ele>1454.5999755859</ele>
        <time>2019-04-20T10:16:44.000Z</time>
      </trkpt>
      <trkpt lat="43.96939" lon="7.35413">
        <ele>1454.1999511719</ele>
        <time>2019-04-20T10:16:49.000Z</time>
      </trkpt>
      <trkpt lat="43.96934" lon="7.35405">
        <ele>1454.1999511719</ele>
        <time>2019-04-20T10:16:52.000Z</time>
      </trkpt>
      <trkpt lat="43.96933" lon="7.35404">
        <ele>1454.1999511719</ele>
        <time>2019-04-20T10:16:56.000Z</time>
      </trkpt>
      <trkpt lat="43.96928" lon="7.35401">
        <ele>1454.8000488281</ele>
        <time>2019-04-20T10:17:02.000Z</time>
      </trkpt>
      <trkpt lat="43.96928" lon="7.354">
        <ele>1455</ele>
        <time>2019-04-20T10:17:03.000Z</time>
      </trkpt>
      <trkpt lat="43.96926" lon="7.35398">
        <ele>1455.8000488281</ele>
        <time>2019-04-20T10:17:08.000Z</time>
      </trkpt>
      <trkpt lat="43.96921" lon="7.35393">
        <ele>1455.8000488281</ele>
        <time>2019-04-20T10:17:13.000Z</time>
      </trkpt>
      <trkpt lat="43.96913" lon="7.35387">
        <ele>1455.4000244141</ele>
        <time>2019-04-20T10:17:17.000Z</time>
      </trkpt>
      <trkpt lat="43.96903" lon="7.35371">
        <ele>1455.4000244141</ele>
        <time>2019-04-20T10:17:23.000Z</time>
      </trkpt>
      <trkpt lat="43.96899" lon="7.35368">
        <ele>1455.1999511719</ele>
        <time>2019-04-20T10:17:26.000Z</time>
      </trkpt>
      <trkpt lat="43.96898" lon="7.35367">
        <ele>1455</ele>
        <time>2019-04-20T10:17:27.000Z</time>
      </trkpt>
      <trkpt lat="43.96891" lon="7.35357">
        <ele>1455.1999511719</ele>
        <time>2019-04-20T10:17:32.000Z</time>
      </trkpt>
      <trkpt lat="43.96882" lon="7.35343">
        <ele>1455.1999511719</ele>
        <time>2019-04-20T10:17:38.000Z</time>
      </trkpt>
      <trkpt lat="43.96878" lon="7.35335">
        <ele>1456</ele>
        <time>2019-04-20T10:17:42.000Z</time>
      </trkpt>
      <trkpt lat="43.96878" lon="7.35333">
        <ele>1456.4000244141</ele>
        <time>2019-04-20T10:17:43.000Z</time>
      </trkpt>
      <trkpt lat="43.96874" lon="7.35326">
        <ele>1457</ele>
        <time>2019-04-20T10:17:49.000Z</time>
      </trkpt>
      <trkpt lat="43.96873" lon="7.35324">
        <ele>1456.8000488281</ele>
        <time>2019-04-20T10:17:55.000Z</time>
      </trkpt>
      <trkpt lat="43.96871" lon="7.35325">
        <ele>1456.8000488281</ele>
        <time>2019-04-20T10:18:07.000Z</time>
      </trkpt>
      <trkpt lat="43.96871" lon="7.35326">
        <ele>1457</ele>
        <time>2019-04-20T10:18:14.000Z</time>
      </trkpt>
      <trkpt lat="43.96871" lon="7.35326">
        <ele>1457.1999511719</ele>
        <time>2019-04-20T10:18:16.000Z</time>
      </trkpt>
      <trkpt lat="43.96871" lon="7.35327">
        <ele>1457.1999511719</ele>
        <time>2019-04-20T10:18:22.000Z</time>
      </trkpt>
      <trkpt lat="43.96872" lon="7.35327">
        <ele>1456.8000488281</ele>
        <time>2019-04-20T10:18:29.000Z</time>
      </trkpt>
      <trkpt lat="43.96871" lon="7.3533">
        <ele>1457</ele>
        <time>2019-04-20T10:18:34.000Z</time>
      </trkpt>
      <trkpt lat="43.96871" lon="7.3533">
        <ele>1457</ele>
        <time>2019-04-20T10:18:36.000Z</time>
      </trkpt>
      <trkpt lat="43.96871" lon="7.3533">
        <ele>1456.4000244141</ele>
        <time>2019-04-20T10:18:40.000Z</time>
      </trkpt>
      <trkpt lat="43.96872" lon="7.3533">
        <ele>1456</ele>
        <time>2019-04-20T10:18:48.000Z</time>
      </trkpt>
      <trkpt lat="43.96872" lon="7.3533">
        <ele>1455.8000488281</ele>
        <time>2019-04-20T10:18:51.000Z</time>
      </trkpt>
      <trkpt lat="43.96874" lon="7.3533">
        <ele>1456</ele>
        <time>2019-04-20T10:19:04.000Z</time>
      </trkpt>
      <trkpt lat="43.96873" lon="7.35332">
        <ele>1456.1999511719</ele>
        <time>2019-04-20T10:19:07.000Z</time>
      </trkpt>
      <trkpt lat="43.96872" lon="7.35332">
        <ele>1456.1999511719</ele>
        <time>2019-04-20T10:19:09.000Z</time>
      </trkpt>
      <trkpt lat="43.9687" lon="7.35332">
        <ele>1456.4000244141</ele>
        <time>2019-04-20T10:19:15.000Z</time>
      </trkpt>
      <trkpt lat="43.96869" lon="7.35331">
        <ele>1456.4000244141</ele>
        <time>2019-04-20T10:19:19.000Z</time>
      </trkpt>
      <trkpt lat="43.96869" lon="7.35331">
        <ele>1456.4000244141</ele>
        <time>2019-04-20T10:19:24.000Z</time>
      </trkpt>
      <trkpt lat="43.96869" lon="7.35331">
        <ele>1456</ele>
        <time>2019-04-20T10:19:31.000Z</time>
      </trkpt>
      <trkpt lat="43.96869" lon="7.3533">
        <ele>1456.4000244141</ele>
        <time>2019-04-20T10:19:43.000Z</time>
      </trkpt>
      <trkpt lat="43.96868" lon="7.3533">
        <ele>1456.4000244141</ele>
        <time>2019-04-20T10:19:49.000Z</time>
      </trkpt>
      <trkpt lat="43.96868" lon="7.35329">
        <ele>1456.4000244141</ele>
        <time>2019-04-20T10:19:56.000Z</time>
      </trkpt>
      <trkpt lat="43.96868" lon="7.35329">
        <ele>1456.8000488281</ele>
        <time>2019-04-20T10:20:01.000Z</time>
      </trkpt>
      <trkpt lat="43.96868" lon="7.3533">
        <ele>1456.1999511719</ele>
        <time>2019-04-20T10:20:06.000Z</time>
      </trkpt>
      <trkpt lat="43.96868" lon="7.35331">
        <ele>1456.1999511719</ele>
        <time>2019-04-20T10:20:14.000Z</time>
      </trkpt>
      <trkpt lat="43.96867" lon="7.35331">
        <ele>1455.5999755859</ele>
        <time>2019-04-20T10:20:20.000Z</time>
      </trkpt>
      <trkpt lat="43.96867" lon="7.35331">
        <ele>1456</ele>
        <time>2019-04-20T10:20:27.000Z</time>
      </trkpt>
      <trkpt lat="43.96866" lon="7.3533">
        <ele>1456</ele>
        <time>2019-04-20T10:20:34.000Z</time>
      </trkpt>
      <trkpt lat="43.96868" lon="7.35327">
        <ele>1456.4000244141</ele>
        <time>2019-04-20T10:20:53.000Z</time>
      </trkpt>
      <trkpt lat="43.96868" lon="7.35327">
        <ele>1455.8000488281</ele>
        <time>2019-04-20T10:21:11.000Z</time>
      </trkpt>
      <trkpt lat="43.96865" lon="7.3533">
        <ele>1455.5999755859</ele>
        <time>2019-04-20T10:21:19.000Z</time>
      </trkpt>
      <trkpt lat="43.96862" lon="7.35337">
        <ele>1454.8000488281</ele>
        <time>2019-04-20T10:21:23.000Z</time>
      </trkpt>
      <trkpt lat="43.96864" lon="7.35354">
        <ele>1453.4000244141</ele>
        <time>2019-04-20T10:21:27.000Z</time>
      </trkpt>
      <trkpt lat="43.96866" lon="7.35369">
        <ele>1452.1999511719</ele>
        <time>2019-04-20T10:21:30.000Z</time>
      </trkpt>
      <trkpt lat="43.96869" lon="7.3538">
        <ele>1451.4000244141</ele>
        <time>2019-04-20T10:21:32.000Z</time>
      </trkpt>
      <trkpt lat="43.96869" lon="7.35385">
        <ele>1451</ele>
        <time>2019-04-20T10:21:33.000Z</time>
      </trkpt>
      <trkpt lat="43.96869" lon="7.35396">
        <ele>1450</ele>
        <time>2019-04-20T10:21:36.000Z</time>
      </trkpt>
      <trkpt lat="43.96868" lon="7.354">
        <ele>1449.4000244141</ele>
        <time>2019-04-20T10:21:37.000Z</time>
      </trkpt>
      <trkpt lat="43.96866" lon="7.3541">
        <ele>1448.4000244141</ele>
        <time>2019-04-20T10:21:39.000Z</time>
      </trkpt>
      <trkpt lat="43.96865" lon="7.35415">
        <ele>1448.1999511719</ele>
        <time>2019-04-20T10:21:40.000Z</time>
      </trkpt>
      <trkpt lat="43.96859" lon="7.35428">
        <ele>1447</ele>
        <time>2019-04-20T10:21:43.000Z</time>
      </trkpt>
      <trkpt lat="43.96857" lon="7.35431">
        <ele>1446.8000488281</ele>
        <time>2019-04-20T10:21:44.000Z</time>
      </trkpt>
      <trkpt lat="43.96851" lon="7.35441">
        <ele>1446</ele>
        <time>2019-04-20T10:21:47.000Z</time>
      </trkpt>
      <trkpt lat="43.96847" lon="7.3545">
        <ele>1445</ele>
        <time>2019-04-20T10:21:49.000Z</time>
      </trkpt>
      <trkpt lat="43.96846" lon="7.35454">
        <ele>1444.4000244141</ele>
        <time>2019-04-20T10:21:50.000Z</time>
      </trkpt>
      <trkpt lat="43.96846" lon="7.35458">
        <ele>1443.4000244141</ele>
        <time>2019-04-20T10:21:51.000Z</time>
      </trkpt>
      <trkpt lat="43.96844" lon="7.35466">
        <ele>1442</ele>
        <time>2019-04-20T10:21:53.000Z</time>
      </trkpt>
      <trkpt lat="43.96834" lon="7.35482">
        <ele>1441.5999755859</ele>
        <time>2019-04-20T10:21:57.000Z</time>
      </trkpt>
      <trkpt lat="43.9683" lon="7.35485">
        <ele>1440.8000488281</ele>
        <time>2019-04-20T10:21:59.000Z</time>
      </trkpt>
      <trkpt lat="43.96825" lon="7.35489">
        <ele>1440.1999511719</ele>
        <time>2019-04-20T10:22:01.000Z</time>
      </trkpt>
      <trkpt lat="43.96814" lon="7.35494">
        <ele>1440.4000244141</ele>
        <time>2019-04-20T10:22:06.000Z</time>
      </trkpt>
      <trkpt lat="43.96807" lon="7.35511">
        <ele>1441.4000244141</ele>
        <time>2019-04-20T10:22:11.000Z</time>
      </trkpt>
      <trkpt lat="43.96801" lon="7.35529">
        <ele>1440.8000488281</ele>
        <time>2019-04-20T10:22:16.000Z</time>
      </trkpt>
      <trkpt lat="43.96799" lon="7.35535">
        <ele>1440.4000244141</ele>
        <time>2019-04-20T10:22:20.000Z</time>
      </trkpt>
      <trkpt lat="43.96799" lon="7.35539">
        <ele>1440.5999755859</ele>
        <time>2019-04-20T10:22:27.000Z</time>
      </trkpt>
      <trkpt lat="43.96798" lon="7.35544">
        <ele>1440.4000244141</ele>
        <time>2019-04-20T10:22:32.000Z</time>
      </trkpt>
      <trkpt lat="43.96799" lon="7.35555">
        <ele>1439.5999755859</ele>
        <time>2019-04-20T10:22:35.000Z</time>
      </trkpt>
      <trkpt lat="43.96799" lon="7.3556">
        <ele>1439.4000244141</ele>
        <time>2019-04-20T10:22:36.000Z</time>
      </trkpt>
      <trkpt lat="43.96803" lon="7.35573">
        <ele>1438.4000244141</ele>
        <time>2019-04-20T10:22:39.000Z</time>
      </trkpt>
      <trkpt lat="43.96804" lon="7.35578">
        <ele>1438.1999511719</ele>
        <time>2019-04-20T10:22:40.000Z</time>
      </trkpt>
      <trkpt lat="43.96807" lon="7.35596">
        <ele>1437.1999511719</ele>
        <time>2019-04-20T10:22:43.000Z</time>
      </trkpt>
      <trkpt lat="43.96807" lon="7.35608">
        <ele>1436</ele>
        <time>2019-04-20T10:22:45.000Z</time>
      </trkpt>
      <trkpt lat="43.96806" lon="7.35614">
        <ele>1435.4000244141</ele>
        <time>2019-04-20T10:22:46.000Z</time>
      </trkpt>
      <trkpt lat="43.96806" lon="7.35618">
        <ele>1434.8000488281</ele>
        <time>2019-04-20T10:22:47.000Z</time>
      </trkpt>
      <trkpt lat="43.96804" lon="7.35634">
        <ele>1433.1999511719</ele>
        <time>2019-04-20T10:22:51.000Z</time>
      </trkpt>
      <trkpt lat="43.96799" lon="7.35649">
        <ele>1432.1999511719</ele>
        <time>2019-04-20T10:22:54.000Z</time>
      </trkpt>
      <trkpt lat="43.96797" lon="7.35657">
        <ele>1432.5999755859</ele>
        <time>2019-04-20T10:22:56.000Z</time>
      </trkpt>
      <trkpt lat="43.96792" lon="7.35675">
        <ele>1432</ele>
        <time>2019-04-20T10:23:01.000Z</time>
      </trkpt>
      <trkpt lat="43.96783" lon="7.35688">
        <ele>1431.5999755859</ele>
        <time>2019-04-20T10:23:06.000Z</time>
      </trkpt>
      <trkpt lat="43.96775" lon="7.35697">
        <ele>1431</ele>
        <time>2019-04-20T10:23:10.000Z</time>
      </trkpt>
      <trkpt lat="43.96771" lon="7.35701">
        <ele>1431.1999511719</ele>
        <time>2019-04-20T10:23:12.000Z</time>
      </trkpt>
      <trkpt lat="43.96763" lon="7.35712">
        <ele>1431.1999511719</ele>
        <time>2019-04-20T10:23:17.000Z</time>
      </trkpt>
      <trkpt lat="43.96752" lon="7.35722">
        <ele>1431.4000244141</ele>
        <time>2019-04-20T10:23:23.000Z</time>
      </trkpt>
      <trkpt lat="43.96747" lon="7.35725">
        <ele>1432</ele>
        <time>2019-04-20T10:23:28.000Z</time>
      </trkpt>
      <trkpt lat="43.96746" lon="7.35724">
        <ele>1432</ele>
        <time>2019-04-20T10:23:30.000Z</time>
      </trkpt>
      <trkpt lat="43.96745" lon="7.35724">
        <ele>1432.4000244141</ele>
        <time>2019-04-20T10:23:34.000Z</time>
      </trkpt>
      <trkpt lat="43.96744" lon="7.35725">
        <ele>1432.5999755859</ele>
        <time>2019-04-20T10:23:46.000Z</time>
      </trkpt>
      <trkpt lat="43.96743" lon="7.35726">
        <ele>1433.1999511719</ele>
        <time>2019-04-20T10:23:50.000Z</time>
      </trkpt>
      <trkpt lat="43.96742" lon="7.35726">
        <ele>1433.5999755859</ele>
        <time>2019-04-20T10:23:53.000Z</time>
      </trkpt>
      <trkpt lat="43.96741" lon="7.35727">
        <ele>1433.1999511719</ele>
        <time>2019-04-20T10:24:03.000Z</time>
      </trkpt>
      <trkpt lat="43.96739" lon="7.35729">
        <ele>1432.8000488281</ele>
        <time>2019-04-20T10:24:09.000Z</time>
      </trkpt>
      <trkpt lat="43.96739" lon="7.35729">
        <ele>1432.1999511719</ele>
        <time>2019-04-20T10:24:13.000Z</time>
      </trkpt>
      <trkpt lat="43.96738" lon="7.35731">
        <ele>1432.4000244141</ele>
        <time>2019-04-20T10:24:22.000Z</time>
      </trkpt>
      <trkpt lat="43.96736" lon="7.35732">
        <ele>1432.1999511719</ele>
        <time>2019-04-20T10:24:30.000Z</time>
      </trkpt>
      <trkpt lat="43.96735" lon="7.35734">
        <ele>1431.1999511719</ele>
        <time>2019-04-20T10:24:38.000Z</time>
      </trkpt>
      <trkpt lat="43.96735" lon="7.35734">
        <ele>1431.4000244141</ele>
        <time>2019-04-20T10:24:44.000Z</time>
      </trkpt>
      <trkpt lat="43.96735" lon="7.35734">
        <ele>1431.8000488281</ele>
        <time>2019-04-20T10:24:50.000Z</time>
      </trkpt>
      <trkpt lat="43.96735" lon="7.35736">
        <ele>1431.5999755859</ele>
        <time>2019-04-20T10:24:51.000Z</time>
      </trkpt>
      <trkpt lat="43.96734" lon="7.35738">
        <ele>1431.4000244141</ele>
        <time>2019-04-20T10:24:55.000Z</time>
      </trkpt>
      <trkpt lat="43.96735" lon="7.35737">
        <ele>1430.4000244141</ele>
        <time>2019-04-20T10:24:59.000Z</time>
      </trkpt>
      <trkpt lat="43.96735" lon="7.35734">
        <ele>1430.8000488281</ele>
        <time>2019-04-20T10:25:03.000Z</time>
      </trkpt>
      <trkpt lat="43.96736" lon="7.35732">
        <ele>1431.4000244141</ele>
        <time>2019-04-20T10:25:10.000Z</time>
      </trkpt>
      <trkpt lat="43.96735" lon="7.3573">
        <ele>1432</ele>
        <time>2019-04-20T10:25:20.000Z</time>
      </trkpt>
      <trkpt lat="43.96735" lon="7.3573">
        <ele>1431.5999755859</ele>
        <time>2019-04-20T10:25:27.000Z</time>
      </trkpt>
      <trkpt lat="43.96735" lon="7.3573">
        <ele>1432.1999511719</ele>
        <time>2019-04-20T10:25:36.000Z</time>
      </trkpt>
      <trkpt lat="43.96735" lon="7.3573">
        <ele>1431.8000488281</ele>
        <time>2019-04-20T10:25:47.000Z</time>
      </trkpt>
      <trkpt lat="43.96736" lon="7.3573">
        <ele>1431.8000488281</ele>
        <time>2019-04-20T10:25:53.000Z</time>
      </trkpt>
      <trkpt lat="43.96738" lon="7.35728">
        <ele>1432.4000244141</ele>
        <time>2019-04-20T10:25:56.000Z</time>
      </trkpt>
      <trkpt lat="43.96738" lon="7.35728">
        <ele>1432.5999755859</ele>
        <time>2019-04-20T10:25:58.000Z</time>
      </trkpt>
      <trkpt lat="43.96738" lon="7.35728">
        <ele>1433.4000244141</ele>
        <time>2019-04-20T10:26:01.000Z</time>
      </trkpt>
      <trkpt lat="43.96738" lon="7.35729">
        <ele>1433.5999755859</ele>
        <time>2019-04-20T10:26:07.000Z</time>
      </trkpt>
      <trkpt lat="43.9674" lon="7.35726">
        <ele>1433.4000244141</ele>
        <time>2019-04-20T10:26:14.000Z</time>
      </trkpt>
      <trkpt lat="43.96742" lon="7.35725">
        <ele>1434</ele>
        <time>2019-04-20T10:26:22.000Z</time>
      </trkpt>
      <trkpt lat="43.96742" lon="7.35726">
        <ele>1434.4000244141</ele>
        <time>2019-04-20T10:26:29.000Z</time>
      </trkpt>
      <trkpt lat="43.96742" lon="7.35727">
        <ele>1435</ele>
        <time>2019-04-20T10:26:33.000Z</time>
      </trkpt>
      <trkpt lat="43.96743" lon="7.35728">
        <ele>1435.4000244141</ele>
        <time>2019-04-20T10:26:36.000Z</time>
      </trkpt>
      <trkpt lat="43.96743" lon="7.35729">
        <ele>1436</ele>
        <time>2019-04-20T10:26:39.000Z</time>
      </trkpt>
      <trkpt lat="43.96743" lon="7.3573">
        <ele>1436</ele>
        <time>2019-04-20T10:26:44.000Z</time>
      </trkpt>
      <trkpt lat="43.96743" lon="7.35729">
        <ele>1435.8000488281</ele>
        <time>2019-04-20T10:26:51.000Z</time>
      </trkpt>
      <trkpt lat="43.96742" lon="7.3573">
        <ele>1436.4000244141</ele>
        <time>2019-04-20T10:27:00.000Z</time>
      </trkpt>
      <trkpt lat="43.96742" lon="7.3573">
        <ele>1436.5999755859</ele>
        <time>2019-04-20T10:27:01.000Z</time>
      </trkpt>
      <trkpt lat="43.96742" lon="7.35729">
        <ele>1437</ele>
        <time>2019-04-20T10:27:10.000Z</time>
      </trkpt>
      <trkpt lat="43.96741" lon="7.35727">
        <ele>1436.1999511719</ele>
        <time>2019-04-20T10:27:16.000Z</time>
      </trkpt>
      <trkpt lat="43.96741" lon="7.35727">
        <ele>1435.5999755859</ele>
        <time>2019-04-20T10:27:22.000Z</time>
      </trkpt>
      <trkpt lat="43.96741" lon="7.35727">
        <ele>1435.1999511719</ele>
        <time>2019-04-20T10:27:25.000Z</time>
      </trkpt>
      <trkpt lat="43.96739" lon="7.35727">
        <ele>1434.4000244141</ele>
        <time>2019-04-20T10:27:29.000Z</time>
      </trkpt>
      <trkpt lat="43.96739" lon="7.35727">
        <ele>1434.4000244141</ele>
        <time>2019-04-20T10:27:30.000Z</time>
      </trkpt>
      <trkpt lat="43.96738" lon="7.35729">
        <ele>1433.8000488281</ele>
        <time>2019-04-20T10:27:35.000Z</time>
      </trkpt>
      <trkpt lat="43.96737" lon="7.35731">
        <ele>1433.8000488281</ele>
        <time>2019-04-20T10:27:37.000Z</time>
      </trkpt>
      <trkpt lat="43.96734" lon="7.35731">
        <ele>1433.4000244141</ele>
        <time>2019-04-20T10:27:41.000Z</time>
      </trkpt>
      <trkpt lat="43.96733" lon="7.3573">
        <ele>1433</ele>
        <time>2019-04-20T10:27:42.000Z</time>
      </trkpt>
      <trkpt lat="43.96732" lon="7.35729">
        <ele>1432.5999755859</ele>
        <time>2019-04-20T10:27:43.000Z</time>
      </trkpt>
      <trkpt lat="43.96732" lon="7.35729">
        <ele>1432.1999511719</ele>
        <time>2019-04-20T10:27:45.000Z</time>
      </trkpt>
      <trkpt lat="43.96732" lon="7.35728">
        <ele>1431.8000488281</ele>
        <time>2019-04-20T10:27:47.000Z</time>
      </trkpt>
      <trkpt lat="43.96733" lon="7.35728">
        <ele>1432</ele>
        <time>2019-04-20T10:27:50.000Z</time>
      </trkpt>
      <trkpt lat="43.96735" lon="7.35731">
        <ele>1432.1999511719</ele>
        <time>2019-04-20T10:27:53.000Z</time>
      </trkpt>
      <trkpt lat="43.96739" lon="7.35732">
        <ele>1432.8000488281</ele>
        <time>2019-04-20T10:27:58.000Z</time>
      </trkpt>
      <trkpt lat="43.96739" lon="7.35731">
        <ele>1433.1999511719</ele>
        <time>2019-04-20T10:27:59.000Z</time>
      </trkpt>
      <trkpt lat="43.9674" lon="7.3573">
        <ele>1434.4000244141</ele>
        <time>2019-04-20T10:28:02.000Z</time>
      </trkpt>
      <trkpt lat="43.9674" lon="7.35731">
        <ele>1434.5999755859</ele>
        <time>2019-04-20T10:28:03.000Z</time>
      </trkpt>
      <trkpt lat="43.9674" lon="7.35729">
        <ele>1435.1999511719</ele>
        <time>2019-04-20T10:28:12.000Z</time>
      </trkpt>
      <trkpt lat="43.9674" lon="7.35729">
        <ele>1434.5999755859</ele>
        <time>2019-04-20T10:28:20.000Z</time>
      </trkpt>
      <trkpt lat="43.9674" lon="7.35727">
        <ele>1435</ele>
        <time>2019-04-20T10:28:30.000Z</time>
      </trkpt>
      <trkpt lat="43.96739" lon="7.35727">
        <ele>1435.4000244141</ele>
        <time>2019-04-20T10:28:37.000Z</time>
      </trkpt>
      <trkpt lat="43.96738" lon="7.35729">
        <ele>1435</ele>
        <time>2019-04-20T10:28:42.000Z</time>
      </trkpt>
      <trkpt lat="43.96735" lon="7.35731">
        <ele>1434.4000244141</ele>
        <time>2019-04-20T10:28:47.000Z</time>
      </trkpt>
      <trkpt lat="43.96734" lon="7.3573">
        <ele>1433.5999755859</ele>
        <time>2019-04-20T10:28:52.000Z</time>
      </trkpt>
      <trkpt lat="43.96733" lon="7.35729">
        <ele>1433.4000244141</ele>
        <time>2019-04-20T10:28:54.000Z</time>
      </trkpt>
      <trkpt lat="43.96732" lon="7.35728">
        <ele>1433.4000244141</ele>
        <time>2019-04-20T10:28:55.000Z</time>
      </trkpt>
      <trkpt lat="43.96732" lon="7.35728">
        <ele>1433</ele>
        <time>2019-04-20T10:28:57.000Z</time>
      </trkpt>
      <trkpt lat="43.96733" lon="7.35729">
        <ele>1432.4000244141</ele>
        <time>2019-04-20T10:29:01.000Z</time>
      </trkpt>
      <trkpt lat="43.96735" lon="7.3573">
        <ele>1432.4000244141</ele>
        <time>2019-04-20T10:29:05.000Z</time>
      </trkpt>
      <trkpt lat="43.96737" lon="7.35729">
        <ele>1433</ele>
        <time>2019-04-20T10:29:11.000Z</time>
      </trkpt>
      <trkpt lat="43.96739" lon="7.35728">
        <ele>1433.5999755859</ele>
        <time>2019-04-20T10:29:14.000Z</time>
      </trkpt>
      <trkpt lat="43.9674" lon="7.35726">
        <ele>1434</ele>
        <time>2019-04-20T10:29:16.000Z</time>
      </trkpt>
      <trkpt lat="43.96741" lon="7.35725">
        <ele>1434.1999511719</ele>
        <time>2019-04-20T10:29:20.000Z</time>
      </trkpt>
      <trkpt lat="43.96742" lon="7.35725">
        <ele>1434.4000244141</ele>
        <time>2019-04-20T10:29:24.000Z</time>
      </trkpt>
      <trkpt lat="43.96743" lon="7.35727">
        <ele>1434.5999755859</ele>
        <time>2019-04-20T10:29:25.000Z</time>
      </trkpt>
      <trkpt lat="43.96744" lon="7.35728">
        <ele>1435.4000244141</ele>
        <time>2019-04-20T10:29:29.000Z</time>
      </trkpt>
      <trkpt lat="43.96743" lon="7.35728">
        <ele>1435.5999755859</ele>
        <time>2019-04-20T10:29:30.000Z</time>
      </trkpt>
      <trkpt lat="43.96744" lon="7.35728">
        <ele>1436.1999511719</ele>
        <time>2019-04-20T10:29:34.000Z</time>
      </trkpt>
      <trkpt lat="43.96744" lon="7.35729">
        <ele>1436.1999511719</ele>
        <time>2019-04-20T10:29:44.000Z</time>
      </trkpt>
      <trkpt lat="43.96744" lon="7.35729">
        <ele>1436.1999511719</ele>
        <time>2019-04-20T10:29:51.000Z</time>
      </trkpt>
      <trkpt lat="43.96744" lon="7.35729">
        <ele>1436</ele>
        <time>2019-04-20T10:29:58.000Z</time>
      </trkpt>
      <trkpt lat="43.96744" lon="7.35729">
        <ele>1435.1999511719</ele>
        <time>2019-04-20T10:30:10.000Z</time>
      </trkpt>
      <trkpt lat="43.96743" lon="7.35728">
        <ele>1435.5999755859</ele>
        <time>2019-04-20T10:30:22.000Z</time>
      </trkpt>
      <trkpt lat="43.96743" lon="7.35728">
        <ele>1435.5999755859</ele>
        <time>2019-04-20T10:30:31.000Z</time>
      </trkpt>
      <trkpt lat="43.96743" lon="7.35728">
        <ele>1435.8000488281</ele>
        <time>2019-04-20T10:30:42.000Z</time>
      </trkpt>
      <trkpt lat="43.96743" lon="7.35728">
        <ele>1436.4000244141</ele>
        <time>2019-04-20T10:30:58.000Z</time>
      </trkpt>
      <trkpt lat="43.96743" lon="7.35728">
        <ele>1436</ele>
        <time>2019-04-20T10:31:09.000Z</time>
      </trkpt>
      <trkpt lat="43.96744" lon="7.3573">
        <ele>1436.4000244141</ele>
        <time>2019-04-20T10:31:25.000Z</time>
      </trkpt>
      <trkpt lat="43.96744" lon="7.35729">
        <ele>1436.8000488281</ele>
        <time>2019-04-20T10:31:32.000Z</time>
      </trkpt>
      <trkpt lat="43.96744" lon="7.35729">
        <ele>1437.1999511719</ele>
        <time>2019-04-20T10:31:34.000Z</time>
      </trkpt>
      <trkpt lat="43.96744" lon="7.3573">
        <ele>1437</ele>
        <time>2019-04-20T10:31:40.000Z</time>
      </trkpt>
      <trkpt lat="43.96744" lon="7.3573">
        <ele>1436.8000488281</ele>
        <time>2019-04-20T10:31:48.000Z</time>
      </trkpt>
      <trkpt lat="43.96744" lon="7.3573">
        <ele>1437.1999511719</ele>
        <time>2019-04-20T10:31:54.000Z</time>
      </trkpt>
      <trkpt lat="43.96744" lon="7.3573">
        <ele>1437</ele>
        <time>2019-04-20T10:32:05.000Z</time>
      </trkpt>
      <trkpt lat="43.96745" lon="7.35731">
        <ele>1437</ele>
        <time>2019-04-20T10:32:15.000Z</time>
      </trkpt>
      <trkpt lat="43.96744" lon="7.35729">
        <ele>1437</ele>
        <time>2019-04-20T10:32:22.000Z</time>
      </trkpt>
      <trkpt lat="43.96744" lon="7.3573">
        <ele>1437.4000244141</ele>
        <time>2019-04-20T10:32:29.000Z</time>
      </trkpt>
      <trkpt lat="43.96744" lon="7.3573">
        <ele>1437.1999511719</ele>
        <time>2019-04-20T10:32:36.000Z</time>
      </trkpt>
      <trkpt lat="43.96744" lon="7.3573">
        <ele>1437.5999755859</ele>
        <time>2019-04-20T10:32:47.000Z</time>
      </trkpt>
      <trkpt lat="43.96744" lon="7.3573">
        <ele>1437</ele>
        <time>2019-04-20T10:33:03.000Z</time>
      </trkpt>
      <trkpt lat="43.96745" lon="7.35731">
        <ele>1436.4000244141</ele>
        <time>2019-04-20T10:33:22.000Z</time>
      </trkpt>
      <trkpt lat="43.96745" lon="7.35731">
        <ele>1436</ele>
        <time>2019-04-20T10:33:44.000Z</time>
      </trkpt>
      <trkpt lat="43.96745" lon="7.35731">
        <ele>1435.8000488281</ele>
        <time>2019-04-20T10:33:54.000Z</time>
      </trkpt>
      <trkpt lat="43.96745" lon="7.35731">
        <ele>1435.8000488281</ele>
        <time>2019-04-20T10:34:03.000Z</time>
      </trkpt>
      <trkpt lat="43.96745" lon="7.35731">
        <ele>1435.5999755859</ele>
        <time>2019-04-20T10:34:24.000Z</time>
      </trkpt>
      <trkpt lat="43.96745" lon="7.35731">
        <ele>1435.8000488281</ele>
        <time>2019-04-20T10:34:56.000Z</time>
      </trkpt>
      <trkpt lat="43.96745" lon="7.35731">
        <ele>1435.5999755859</ele>
        <time>2019-04-20T10:35:25.000Z</time>
      </trkpt>
      <trkpt lat="43.96745" lon="7.35731">
        <ele>1435.4000244141</ele>
        <time>2019-04-20T10:35:39.000Z</time>
      </trkpt>
      <trkpt lat="43.96745" lon="7.35731">
        <ele>1435.1999511719</ele>
        <time>2019-04-20T10:35:52.000Z</time>
      </trkpt>
      <trkpt lat="43.96745" lon="7.35731">
        <ele>1435</ele>
        <time>2019-04-20T10:36:04.000Z</time>
      </trkpt>
      <trkpt lat="43.96745" lon="7.35731">
        <ele>1435.1999511719</ele>
        <time>2019-04-20T10:36:17.000Z</time>
      </trkpt>
      <trkpt lat="43.96745" lon="7.35732">
        <ele>1435.1999511719</ele>
        <time>2019-04-20T10:36:31.000Z</time>
      </trkpt>
      <trkpt lat="43.96745" lon="7.35731">
        <ele>1435.5999755859</ele>
        <time>2019-04-20T10:36:45.000Z</time>
      </trkpt>
      <trkpt lat="43.96745" lon="7.35731">
        <ele>1435.4000244141</ele>
        <time>2019-04-20T10:36:59.000Z</time>
      </trkpt>
      <trkpt lat="43.96745" lon="7.35732">
        <ele>1435.4000244141</ele>
        <time>2019-04-20T10:37:10.000Z</time>
      </trkpt>
      <trkpt lat="43.96746" lon="7.35732">
        <ele>1435.8000488281</ele>
        <time>2019-04-20T10:37:26.000Z</time>
      </trkpt>
      <trkpt lat="43.96746" lon="7.35733">
        <ele>1435.5999755859</ele>
        <time>2019-04-20T10:37:42.000Z</time>
      </trkpt>
      <trkpt lat="43.96746" lon="7.35733">
        <ele>1435.5999755859</ele>
        <time>2019-04-20T10:37:56.000Z</time>
      </trkpt>
      <trkpt lat="43.96746" lon="7.35733">
        <ele>1435.8000488281</ele>
        <time>2019-04-20T10:38:08.000Z</time>
      </trkpt>
      <trkpt lat="43.96746" lon="7.35732">
        <ele>1436.1999511719</ele>
        <time>2019-04-20T10:38:25.000Z</time>
      </trkpt>
      <trkpt lat="43.96746" lon="7.35733">
        <ele>1436.1999511719</ele>
        <time>2019-04-20T10:38:39.000Z</time>
      </trkpt>
      <trkpt lat="43.96746" lon="7.35733">
        <ele>1436.4000244141</ele>
        <time>2019-04-20T10:38:55.000Z</time>
      </trkpt>
      <trkpt lat="43.96745" lon="7.35732">
        <ele>1436.1999511719</ele>
        <time>2019-04-20T10:39:12.000Z</time>
      </trkpt>
      <trkpt lat="43.96745" lon="7.35732">
        <ele>1436.1999511719</ele>
        <time>2019-04-20T10:39:24.000Z</time>
      </trkpt>
      <trkpt lat="43.96745" lon="7.35732">
        <ele>1436.1999511719</ele>
        <time>2019-04-20T10:39:34.000Z</time>
      </trkpt>
      <trkpt lat="43.96745" lon="7.35732">
        <ele>1436.5999755859</ele>
        <time>2019-04-20T10:39:51.000Z</time>
      </trkpt>
      <trkpt lat="43.96745" lon="7.35732">
        <ele>1437</ele>
        <time>2019-04-20T10:39:53.000Z</time>
      </trkpt>
      <trkpt lat="43.96745" lon="7.35732">
        <ele>1436.5999755859</ele>
        <time>2019-04-20T10:40:04.000Z</time>
      </trkpt>
      <trkpt lat="43.96745" lon="7.35733">
        <ele>1436.4000244141</ele>
        <time>2019-04-20T10:40:20.000Z</time>
      </trkpt>
      <trkpt lat="43.96745" lon="7.35733">
        <ele>1436</ele>
        <time>2019-04-20T10:40:37.000Z</time>
      </trkpt>
      <trkpt lat="43.96745" lon="7.35733">
        <ele>1436.4000244141</ele>
        <time>2019-04-20T10:40:44.000Z</time>
      </trkpt>
      <trkpt lat="43.96745" lon="7.35733">
        <ele>1436.4000244141</ele>
        <time>2019-04-20T10:40:55.000Z</time>
      </trkpt>
      <trkpt lat="43.96745" lon="7.35733">
        <ele>1436.1999511719</ele>
        <time>2019-04-20T10:41:10.000Z</time>
      </trkpt>
      <trkpt lat="43.96745" lon="7.35733">
        <ele>1436.1999511719</ele>
        <time>2019-04-20T10:41:27.000Z</time>
      </trkpt>
      <trkpt lat="43.96745" lon="7.35734">
        <ele>1435.8000488281</ele>
        <time>2019-04-20T10:41:37.000Z</time>
      </trkpt>
      <trkpt lat="43.96745" lon="7.35733">
        <ele>1435.8000488281</ele>
        <time>2019-04-20T10:42:00.000Z</time>
      </trkpt>
      <trkpt lat="43.96745" lon="7.35733">
        <ele>1435.5999755859</ele>
        <time>2019-04-20T10:42:26.000Z</time>
      </trkpt>
      <trkpt lat="43.96745" lon="7.35733">
        <ele>1435.5999755859</ele>
        <time>2019-04-20T10:42:47.000Z</time>
      </trkpt>
      <trkpt lat="43.96745" lon="7.35733">
        <ele>1436.4000244141</ele>
        <time>2019-04-20T10:43:10.000Z</time>
      </trkpt>
      <trkpt lat="43.96745" lon="7.35733">
        <ele>1436.4000244141</ele>
        <time>2019-04-20T10:43:38.000Z</time>
      </trkpt>
      <trkpt lat="43.96745" lon="7.35733">
        <ele>1435.8000488281</ele>
        <time>2019-04-20T10:44:02.000Z</time>
      </trkpt>
      <trkpt lat="43.96745" lon="7.35734">
        <ele>1435.1999511719</ele>
        <time>2019-04-20T10:44:16.000Z</time>
      </trkpt>
      <trkpt lat="43.96745" lon="7.35733">
        <ele>1435</ele>
        <time>2019-04-20T10:44:26.000Z</time>
      </trkpt>
      <trkpt lat="43.96744" lon="7.35733">
        <ele>1435.4000244141</ele>
        <time>2019-04-20T10:44:34.000Z</time>
      </trkpt>
      <trkpt lat="43.96744" lon="7.35733">
        <ele>1435.5999755859</ele>
        <time>2019-04-20T10:44:47.000Z</time>
      </trkpt>
      <trkpt lat="43.96744" lon="7.35733">
        <ele>1435.1999511719</ele>
        <time>2019-04-20T10:45:05.000Z</time>
      </trkpt>
      <trkpt lat="43.96744" lon="7.35733">
        <ele>1435.4000244141</ele>
        <time>2019-04-20T10:45:15.000Z</time>
      </trkpt>
      <trkpt lat="43.96743" lon="7.35733">
        <ele>1435.5999755859</ele>
        <time>2019-04-20T10:45:27.000Z</time>
      </trkpt>
      <trkpt lat="43.96743" lon="7.35732">
        <ele>1436</ele>
        <time>2019-04-20T10:45:35.000Z</time>
      </trkpt>
      <trkpt lat="43.96743" lon="7.35732">
        <ele>1435.8000488281</ele>
        <time>2019-04-20T10:45:43.000Z</time>
      </trkpt>
      <trkpt lat="43.96743" lon="7.35732">
        <ele>1435.5999755859</ele>
        <time>2019-04-20T10:45:55.000Z</time>
      </trkpt>
      <trkpt lat="43.96742" lon="7.35731">
        <ele>1435.5999755859</ele>
        <time>2019-04-20T10:46:10.000Z</time>
      </trkpt>
      <trkpt lat="43.96742" lon="7.35731">
        <ele>1436</ele>
        <time>2019-04-20T10:46:31.000Z</time>
      </trkpt>
      <trkpt lat="43.96743" lon="7.35731">
        <ele>1435.5999755859</ele>
        <time>2019-04-20T10:46:48.000Z</time>
      </trkpt>
      <trkpt lat="43.96743" lon="7.35731">
        <ele>1436</ele>
        <time>2019-04-20T10:47:03.000Z</time>
      </trkpt>
      <trkpt lat="43.96742" lon="7.35731">
        <ele>1435.5999755859</ele>
        <time>2019-04-20T10:47:14.000Z</time>
      </trkpt>
      <trkpt lat="43.96742" lon="7.35731">
        <ele>1435.4000244141</ele>
        <time>2019-04-20T10:47:31.000Z</time>
      </trkpt>
      <trkpt lat="43.96742" lon="7.35731">
        <ele>1435.4000244141</ele>
        <time>2019-04-20T10:47:42.000Z</time>
      </trkpt>
      <trkpt lat="43.96742" lon="7.35729">
        <ele>1435.8000488281</ele>
        <time>2019-04-20T10:47:56.000Z</time>
      </trkpt>
      <trkpt lat="43.96743" lon="7.3573">
        <ele>1435.8000488281</ele>
        <time>2019-04-20T10:48:17.000Z</time>
      </trkpt>
      <trkpt lat="43.96744" lon="7.3573">
        <ele>1436</ele>
        <time>2019-04-20T10:48:41.000Z</time>
      </trkpt>
      <trkpt lat="43.96745" lon="7.35731">
        <ele>1436.1999511719</ele>
        <time>2019-04-20T10:48:59.000Z</time>
      </trkpt>
      <trkpt lat="43.96746" lon="7.35732">
        <ele>1436.1999511719</ele>
        <time>2019-04-20T10:49:08.000Z</time>
      </trkpt>
      <trkpt lat="43.96745" lon="7.35731">
        <ele>1435.8000488281</ele>
        <time>2019-04-20T10:49:24.000Z</time>
      </trkpt>
      <trkpt lat="43.96744" lon="7.3573">
        <ele>1435.4000244141</ele>
        <time>2019-04-20T10:49:40.000Z</time>
      </trkpt>
      <trkpt lat="43.96743" lon="7.35729">
        <ele>1435.4000244141</ele>
        <time>2019-04-20T10:49:59.000Z</time>
      </trkpt>
      <trkpt lat="43.96742" lon="7.35729">
        <ele>1435.4000244141</ele>
        <time>2019-04-20T10:50:18.000Z</time>
      </trkpt>
      <trkpt lat="43.96743" lon="7.35729">
        <ele>1435.5999755859</ele>
        <time>2019-04-20T10:50:32.000Z</time>
      </trkpt>
      <trkpt lat="43.96743" lon="7.35729">
        <ele>1435.8000488281</ele>
        <time>2019-04-20T10:50:51.000Z</time>
      </trkpt>
      <trkpt lat="43.96743" lon="7.35729">
        <ele>1435.8000488281</ele>
        <time>2019-04-20T10:51:09.000Z</time>
      </trkpt>
      <trkpt lat="43.96744" lon="7.35729">
        <ele>1435.8000488281</ele>
        <time>2019-04-20T10:51:25.000Z</time>
      </trkpt>
      <trkpt lat="43.96745" lon="7.3573">
        <ele>1435.4000244141</ele>
        <time>2019-04-20T10:51:37.000Z</time>
      </trkpt>
      <trkpt lat="43.96745" lon="7.3573">
        <ele>1435.1999511719</ele>
        <time>2019-04-20T10:51:59.000Z</time>
      </trkpt>
      <trkpt lat="43.96744" lon="7.3573">
        <ele>1435</ele>
        <time>2019-04-20T10:52:20.000Z</time>
      </trkpt>
      <trkpt lat="43.96744" lon="7.3573">
        <ele>1435</ele>
        <time>2019-04-20T10:52:29.000Z</time>
      </trkpt>
      <trkpt lat="43.96745" lon="7.3573">
        <ele>1434.8000488281</ele>
        <time>2019-04-20T10:52:43.000Z</time>
      </trkpt>
      <trkpt lat="43.96744" lon="7.3573">
        <ele>1434.8000488281</ele>
        <time>2019-04-20T10:52:55.000Z</time>
      </trkpt>
      <trkpt lat="43.96745" lon="7.35731">
        <ele>1435.5999755859</ele>
        <time>2019-04-20T10:53:17.000Z</time>
      </trkpt>
      <trkpt lat="43.96744" lon="7.35731">
        <ele>1435.4000244141</ele>
        <time>2019-04-20T10:53:28.000Z</time>
      </trkpt>
      <trkpt lat="43.96743" lon="7.3573">
        <ele>1435.5999755859</ele>
        <time>2019-04-20T10:53:45.000Z</time>
      </trkpt>
      <trkpt lat="43.96743" lon="7.3573">
        <ele>1435.5999755859</ele>
        <time>2019-04-20T10:53:57.000Z</time>
      </trkpt>
      <trkpt lat="43.96743" lon="7.3573">
        <ele>1435.5999755859</ele>
        <time>2019-04-20T10:54:13.000Z</time>
      </trkpt>
      <trkpt lat="43.96743" lon="7.3573">
        <ele>1435.5999755859</ele>
        <time>2019-04-20T10:54:23.000Z</time>
      </trkpt>
      <trkpt lat="43.96744" lon="7.35731">
        <ele>1435.5999755859</ele>
        <time>2019-04-20T10:54:41.000Z</time>
      </trkpt>
      <trkpt lat="43.96744" lon="7.35731">
        <ele>1435.4000244141</ele>
        <time>2019-04-20T10:54:59.000Z</time>
      </trkpt>
      <trkpt lat="43.96744" lon="7.35731">
        <ele>1435.5999755859</ele>
        <time>2019-04-20T10:55:19.000Z</time>
      </trkpt>
      <trkpt lat="43.96744" lon="7.35731">
        <ele>1435.5999755859</ele>
        <time>2019-04-20T10:55:34.000Z</time>
      </trkpt>
      <trkpt lat="43.96745" lon="7.35732">
        <ele>1435.5999755859</ele>
        <time>2019-04-20T10:55:53.000Z</time>
      </trkpt>
      <trkpt lat="43.96743" lon="7.35731">
        <ele>1435.1999511719</ele>
        <time>2019-04-20T10:56:14.000Z</time>
      </trkpt>
      <trkpt lat="43.96743" lon="7.35729">
        <ele>1435.4000244141</ele>
        <time>2019-04-20T10:56:32.000Z</time>
      </trkpt>
      <trkpt lat="43.96743" lon="7.3573">
        <ele>1435.5999755859</ele>
        <time>2019-04-20T10:56:48.000Z</time>
      </trkpt>
      <trkpt lat="43.96743" lon="7.3573">
        <ele>1436</ele>
        <time>2019-04-20T10:56:54.000Z</time>
      </trkpt>
      <trkpt lat="43.96743" lon="7.3573">
        <ele>1435.8000488281</ele>
        <time>2019-04-20T10:56:55.000Z</time>
      </trkpt>
      <trkpt lat="43.96743" lon="7.35731">
        <ele>1436</ele>
        <time>2019-04-20T10:57:03.000Z</time>
      </trkpt>
      <trkpt lat="43.96743" lon="7.35731">
        <ele>1436.1999511719</ele>
        <time>2019-04-20T10:57:09.000Z</time>
      </trkpt>
      <trkpt lat="43.96743" lon="7.3573">
        <ele>1435.4000244141</ele>
        <time>2019-04-20T10:57:21.000Z</time>
      </trkpt>
      <trkpt lat="43.96743" lon="7.3573">
        <ele>1436.1999511719</ele>
        <time>2019-04-20T10:57:31.000Z</time>
      </trkpt>
      <trkpt lat="43.96742" lon="7.3573">
        <ele>1436.1999511719</ele>
        <time>2019-04-20T10:57:39.000Z</time>
      </trkpt>
      <trkpt lat="43.96742" lon="7.3573">
        <ele>1436.4000244141</ele>
        <time>2019-04-20T10:57:45.000Z</time>
      </trkpt>
      <trkpt lat="43.96742" lon="7.3573">
        <ele>1436.5999755859</ele>
        <time>2019-04-20T10:57:56.000Z</time>
      </trkpt>
      <trkpt lat="43.96741" lon="7.35729">
        <ele>1436.8000488281</ele>
        <time>2019-04-20T10:58:13.000Z</time>
      </trkpt>
      <trkpt lat="43.96741" lon="7.3573">
        <ele>1436.1999511719</ele>
        <time>2019-04-20T10:58:22.000Z</time>
      </trkpt>
      <trkpt lat="43.96741" lon="7.3573">
        <ele>1436.4000244141</ele>
        <time>2019-04-20T10:58:30.000Z</time>
      </trkpt>
      <trkpt lat="43.96741" lon="7.3573">
        <ele>1436.1999511719</ele>
        <time>2019-04-20T10:58:36.000Z</time>
      </trkpt>
      <trkpt lat="43.9674" lon="7.35731">
        <ele>1436.4000244141</ele>
        <time>2019-04-20T10:58:39.000Z</time>
      </trkpt>
      <trkpt lat="43.9674" lon="7.35731">
        <ele>1436.4000244141</ele>
        <time>2019-04-20T10:58:40.000Z</time>
      </trkpt>
      <trkpt lat="43.9674" lon="7.3573">
        <ele>1436.5999755859</ele>
        <time>2019-04-20T10:58:50.000Z</time>
      </trkpt>
      <trkpt lat="43.96741" lon="7.3573">
        <ele>1436</ele>
        <time>2019-04-20T10:58:55.000Z</time>
      </trkpt>
      <trkpt lat="43.9674" lon="7.3573">
        <ele>1436.5999755859</ele>
        <time>2019-04-20T10:59:03.000Z</time>
      </trkpt>
      <trkpt lat="43.96741" lon="7.3573">
        <ele>1436.8000488281</ele>
        <time>2019-04-20T10:59:13.000Z</time>
      </trkpt>
      <trkpt lat="43.9674" lon="7.3573">
        <ele>1436</ele>
        <time>2019-04-20T10:59:22.000Z</time>
      </trkpt>
      <trkpt lat="43.9674" lon="7.3573">
        <ele>1436.8000488281</ele>
        <time>2019-04-20T10:59:30.000Z</time>
      </trkpt>
      <trkpt lat="43.96741" lon="7.35729">
        <ele>1436.8000488281</ele>
        <time>2019-04-20T10:59:37.000Z</time>
      </trkpt>
      <trkpt lat="43.96741" lon="7.35729">
        <ele>1436.5999755859</ele>
        <time>2019-04-20T10:59:44.000Z</time>
      </trkpt>
      <trkpt lat="43.96741" lon="7.3573">
        <ele>1436.4000244141</ele>
        <time>2019-04-20T10:59:55.000Z</time>
      </trkpt>
      <trkpt lat="43.96741" lon="7.3573">
        <ele>1437</ele>
        <time>2019-04-20T10:59:58.000Z</time>
      </trkpt>
      <trkpt lat="43.96741" lon="7.3573">
        <ele>1437.4000244141</ele>
        <time>2019-04-20T11:00:03.000Z</time>
      </trkpt>
      <trkpt lat="43.96741" lon="7.35731">
        <ele>1436.5999755859</ele>
        <time>2019-04-20T11:00:12.000Z</time>
      </trkpt>
      <trkpt lat="43.96742" lon="7.35731">
        <ele>1438.1999511719</ele>
        <time>2019-04-20T11:00:20.000Z</time>
      </trkpt>
      <trkpt lat="43.96742" lon="7.35731">
        <ele>1438.1999511719</ele>
        <time>2019-04-20T11:00:21.000Z</time>
      </trkpt>
      <trkpt lat="43.96743" lon="7.35731">
        <ele>1438.1999511719</ele>
        <time>2019-04-20T11:00:28.000Z</time>
      </trkpt>
      <trkpt lat="43.96743" lon="7.35732">
        <ele>1437.5999755859</ele>
        <time>2019-04-20T11:00:34.000Z</time>
      </trkpt>
      <trkpt lat="43.96743" lon="7.35732">
        <ele>1437.5999755859</ele>
        <time>2019-04-20T11:00:43.000Z</time>
      </trkpt>
      <trkpt lat="43.96742" lon="7.35732">
        <ele>1438</ele>
        <time>2019-04-20T11:00:49.000Z</time>
      </trkpt>
      <trkpt lat="43.96743" lon="7.35732">
        <ele>1438.4000244141</ele>
        <time>2019-04-20T11:00:59.000Z</time>
      </trkpt>
      <trkpt lat="43.96743" lon="7.35732">
        <ele>1438.1999511719</ele>
        <time>2019-04-20T11:01:08.000Z</time>
      </trkpt>
      <trkpt lat="43.96742" lon="7.35732">
        <ele>1438</ele>
        <time>2019-04-20T11:01:13.000Z</time>
      </trkpt>
      <trkpt lat="43.96742" lon="7.35732">
        <ele>1438.1999511719</ele>
        <time>2019-04-20T11:01:21.000Z</time>
      </trkpt>
      <trkpt lat="43.96743" lon="7.35731">
        <ele>1438</ele>
        <time>2019-04-20T11:01:39.000Z</time>
      </trkpt>
      <trkpt lat="43.96742" lon="7.35731">
        <ele>1438.1999511719</ele>
        <time>2019-04-20T11:01:48.000Z</time>
      </trkpt>
      <trkpt lat="43.96743" lon="7.35731">
        <ele>1437.8000488281</ele>
        <time>2019-04-20T11:02:01.000Z</time>
      </trkpt>
      <trkpt lat="43.96743" lon="7.3573">
        <ele>1437.5999755859</ele>
        <time>2019-04-20T11:02:08.000Z</time>
      </trkpt>
      <trkpt lat="43.96742" lon="7.3573">
        <ele>1437</ele>
        <time>2019-04-20T11:02:11.000Z</time>
      </trkpt>
      <trkpt lat="43.96741" lon="7.3573">
        <ele>1436.5999755859</ele>
        <time>2019-04-20T11:02:15.000Z</time>
      </trkpt>
      <trkpt lat="43.9674" lon="7.3573">
        <ele>1436</ele>
        <time>2019-04-20T11:02:20.000Z</time>
      </trkpt>
      <trkpt lat="43.96738" lon="7.35731">
        <ele>1436</ele>
        <time>2019-04-20T11:02:23.000Z</time>
      </trkpt>
      <trkpt lat="43.96736" lon="7.35731">
        <ele>1435.4000244141</ele>
        <time>2019-04-20T11:02:28.000Z</time>
      </trkpt>
      <trkpt lat="43.96735" lon="7.35731">
        <ele>1435.4000244141</ele>
        <time>2019-04-20T11:02:29.000Z</time>
      </trkpt>
      <trkpt lat="43.96735" lon="7.35732">
        <ele>1435</ele>
        <time>2019-04-20T11:02:32.000Z</time>
      </trkpt>
      <trkpt lat="43.96736" lon="7.35732">
        <ele>1434.5999755859</ele>
        <time>2019-04-20T11:02:39.000Z</time>
      </trkpt>
      <trkpt lat="43.96735" lon="7.35732">
        <ele>1434</ele>
        <time>2019-04-20T11:02:49.000Z</time>
      </trkpt>
      <trkpt lat="43.96735" lon="7.35734">
        <ele>1434.1999511719</ele>
        <time>2019-04-20T11:02:51.000Z</time>
      </trkpt>
      <trkpt lat="43.96734" lon="7.35737">
        <ele>1434.1999511719</ele>
        <time>2019-04-20T11:02:55.000Z</time>
      </trkpt>
      <trkpt lat="43.96733" lon="7.35739">
        <ele>1433.8000488281</ele>
        <time>2019-04-20T11:02:59.000Z</time>
      </trkpt>
      <trkpt lat="43.96733" lon="7.35739">
        <ele>1433.5999755859</ele>
        <time>2019-04-20T11:03:01.000Z</time>
      </trkpt>
      <trkpt lat="43.96733" lon="7.35741">
        <ele>1432.8000488281</ele>
        <time>2019-04-20T11:03:05.000Z</time>
      </trkpt>
      <trkpt lat="43.96733" lon="7.35741">
        <ele>1432.5999755859</ele>
        <time>2019-04-20T11:03:07.000Z</time>
      </trkpt>
      <trkpt lat="43.96733" lon="7.35741">
        <ele>1433</ele>
        <time>2019-04-20T11:03:14.000Z</time>
      </trkpt>
      <trkpt lat="43.96733" lon="7.35742">
        <ele>1432.5999755859</ele>
        <time>2019-04-20T11:03:21.000Z</time>
      </trkpt>
      <trkpt lat="43.96733" lon="7.35742">
        <ele>1432.5999755859</ele>
        <time>2019-04-20T11:03:28.000Z</time>
      </trkpt>
      <trkpt lat="43.96734" lon="7.35742">
        <ele>1432.8000488281</ele>
        <time>2019-04-20T11:03:39.000Z</time>
      </trkpt>
      <trkpt lat="43.96734" lon="7.35743">
        <ele>1432.8000488281</ele>
        <time>2019-04-20T11:03:48.000Z</time>
      </trkpt>
      <trkpt lat="43.96734" lon="7.35743">
        <ele>1432.5999755859</ele>
        <time>2019-04-20T11:04:02.000Z</time>
      </trkpt>
      <trkpt lat="43.96734" lon="7.35743">
        <ele>1432.8000488281</ele>
        <time>2019-04-20T11:04:15.000Z</time>
      </trkpt>
      <trkpt lat="43.96734" lon="7.35742">
        <ele>1432.8000488281</ele>
        <time>2019-04-20T11:04:33.000Z</time>
      </trkpt>
      <trkpt lat="43.96734" lon="7.35743">
        <ele>1433</ele>
        <time>2019-04-20T11:04:43.000Z</time>
      </trkpt>
      <trkpt lat="43.96736" lon="7.35741">
        <ele>1433.4000244141</ele>
        <time>2019-04-20T11:04:55.000Z</time>
      </trkpt>
      <trkpt lat="43.96736" lon="7.35741">
        <ele>1433.4000244141</ele>
        <time>2019-04-20T11:04:59.000Z</time>
      </trkpt>
      <trkpt lat="43.96737" lon="7.35741">
        <ele>1432.5999755859</ele>
        <time>2019-04-20T11:05:06.000Z</time>
      </trkpt>
      <trkpt lat="43.96736" lon="7.3574">
        <ele>1432.5999755859</ele>
        <time>2019-04-20T11:05:16.000Z</time>
      </trkpt>
      <trkpt lat="43.96735" lon="7.3574">
        <ele>1432.8000488281</ele>
        <time>2019-04-20T11:05:29.000Z</time>
      </trkpt>
      <trkpt lat="43.96735" lon="7.35741">
        <ele>1433</ele>
        <time>2019-04-20T11:05:41.000Z</time>
      </trkpt>
      <trkpt lat="43.96735" lon="7.35741">
        <ele>1432.5999755859</ele>
        <time>2019-04-20T11:05:53.000Z</time>
      </trkpt>
      <trkpt lat="43.96735" lon="7.35742">
        <ele>1432.4000244141</ele>
        <time>2019-04-20T11:06:02.000Z</time>
      </trkpt>
      <trkpt lat="43.96735" lon="7.35741">
        <ele>1432.5999755859</ele>
        <time>2019-04-20T11:06:11.000Z</time>
      </trkpt>
      <trkpt lat="43.96735" lon="7.35741">
        <ele>1432.5999755859</ele>
        <time>2019-04-20T11:06:28.000Z</time>
      </trkpt>
      <trkpt lat="43.96735" lon="7.35741">
        <ele>1432.4000244141</ele>
        <time>2019-04-20T11:06:37.000Z</time>
      </trkpt>
      <trkpt lat="43.96735" lon="7.35741">
        <ele>1432.8000488281</ele>
        <time>2019-04-20T11:06:49.000Z</time>
      </trkpt>
      <trkpt lat="43.96736" lon="7.3574">
        <ele>1432.4000244141</ele>
        <time>2019-04-20T11:07:01.000Z</time>
      </trkpt>
      <trkpt lat="43.96736" lon="7.35741">
        <ele>1433</ele>
        <time>2019-04-20T11:07:08.000Z</time>
      </trkpt>
      <trkpt lat="43.96736" lon="7.35741">
        <ele>1433.1999511719</ele>
        <time>2019-04-20T11:07:15.000Z</time>
      </trkpt>
      <trkpt lat="43.96736" lon="7.35742">
        <ele>1433.5999755859</ele>
        <time>2019-04-20T11:07:18.000Z</time>
      </trkpt>
      <trkpt lat="43.96736" lon="7.35742">
        <ele>1433.5999755859</ele>
        <time>2019-04-20T11:07:21.000Z</time>
      </trkpt>
      <trkpt lat="43.96735" lon="7.35743">
        <ele>1433</ele>
        <time>2019-04-20T11:07:29.000Z</time>
      </trkpt>
      <trkpt lat="43.96734" lon="7.35743">
        <ele>1433</ele>
        <time>2019-04-20T11:07:30.000Z</time>
      </trkpt>
      <trkpt lat="43.96734" lon="7.35752">
        <ele>1432.8000488281</ele>
        <time>2019-04-20T11:07:34.000Z</time>
      </trkpt>
      <trkpt lat="43.96732" lon="7.35767">
        <ele>1432</ele>
        <time>2019-04-20T11:07:38.000Z</time>
      </trkpt>
      <trkpt lat="43.96732" lon="7.35772">
        <ele>1431.5999755859</ele>
        <time>2019-04-20T11:07:39.000Z</time>
      </trkpt>
      <trkpt lat="43.96731" lon="7.35781">
        <ele>1430.5999755859</ele>
        <time>2019-04-20T11:07:41.000Z</time>
      </trkpt>
      <trkpt lat="43.96733" lon="7.35787">
        <ele>1430</ele>
        <time>2019-04-20T11:07:43.000Z</time>
      </trkpt>
      <trkpt lat="43.96734" lon="7.3579">
        <ele>1429.5999755859</ele>
        <time>2019-04-20T11:07:44.000Z</time>
      </trkpt>
      <trkpt lat="43.96738" lon="7.35795">
        <ele>1427.5999755859</ele>
        <time>2019-04-20T11:07:47.000Z</time>
      </trkpt>
      <trkpt lat="43.96738" lon="7.35796">
        <ele>1427.1999511719</ele>
        <time>2019-04-20T11:07:48.000Z</time>
      </trkpt>
      <trkpt lat="43.96739" lon="7.35797">
        <ele>1426.4000244141</ele>
        <time>2019-04-20T11:07:50.000Z</time>
      </trkpt>
      <trkpt lat="43.96741" lon="7.35801">
        <ele>1425.5999755859</ele>
        <time>2019-04-20T11:07:55.000Z</time>
      </trkpt>
      <trkpt lat="43.96745" lon="7.35804">
        <ele>1425.1999511719</ele>
        <time>2019-04-20T11:07:57.000Z</time>
      </trkpt>
      <trkpt lat="43.96748" lon="7.35808">
        <ele>1424.4000244141</ele>
        <time>2019-04-20T11:07:59.000Z</time>
      </trkpt>
      <trkpt lat="43.96751" lon="7.35811">
        <ele>1423.5999755859</ele>
        <time>2019-04-20T11:08:01.000Z</time>
      </trkpt>
      <trkpt lat="43.96753" lon="7.35815">
        <ele>1423</ele>
        <time>2019-04-20T11:08:03.000Z</time>
      </trkpt>
      <trkpt lat="43.96753" lon="7.35816">
        <ele>1422.4000244141</ele>
        <time>2019-04-20T11:08:04.000Z</time>
      </trkpt>
      <trkpt lat="43.96754" lon="7.35819">
        <ele>1421</ele>
        <time>2019-04-20T11:08:07.000Z</time>
      </trkpt>
      <trkpt lat="43.96754" lon="7.3582">
        <ele>1420.5999755859</ele>
        <time>2019-04-20T11:08:08.000Z</time>
      </trkpt>
      <trkpt lat="43.96753" lon="7.35822">
        <ele>1419.8000488281</ele>
        <time>2019-04-20T11:08:12.000Z</time>
      </trkpt>
      <trkpt lat="43.96753" lon="7.35822">
        <ele>1419.4000244141</ele>
        <time>2019-04-20T11:08:15.000Z</time>
      </trkpt>
      <trkpt lat="43.96753" lon="7.35823">
        <ele>1419.1999511719</ele>
        <time>2019-04-20T11:08:20.000Z</time>
      </trkpt>
      <trkpt lat="43.96753" lon="7.35823">
        <ele>1419.4000244141</ele>
        <time>2019-04-20T11:08:33.000Z</time>
      </trkpt>
      <trkpt lat="43.96754" lon="7.35823">
        <ele>1419.4000244141</ele>
        <time>2019-04-20T11:08:53.000Z</time>
      </trkpt>
      <trkpt lat="43.96754" lon="7.35822">
        <ele>1419</ele>
        <time>2019-04-20T11:09:08.000Z</time>
      </trkpt>
      <trkpt lat="43.96754" lon="7.35822">
        <ele>1418.8000488281</ele>
        <time>2019-04-20T11:09:15.000Z</time>
      </trkpt>
      <trkpt lat="43.96755" lon="7.35821">
        <ele>1418.8000488281</ele>
        <time>2019-04-20T11:09:17.000Z</time>
      </trkpt>
      <trkpt lat="43.96755" lon="7.35822">
        <ele>1419</ele>
        <time>2019-04-20T11:09:18.000Z</time>
      </trkpt>
      <trkpt lat="43.96755" lon="7.35822">
        <ele>1419.1999511719</ele>
        <time>2019-04-20T11:09:25.000Z</time>
      </trkpt>
      <trkpt lat="43.96755" lon="7.35823">
        <ele>1419</ele>
        <time>2019-04-20T11:09:29.000Z</time>
      </trkpt>
      <trkpt lat="43.96753" lon="7.35823">
        <ele>1418.8000488281</ele>
        <time>2019-04-20T11:09:31.000Z</time>
      </trkpt>
      <trkpt lat="43.96751" lon="7.35824">
        <ele>1418.4000244141</ele>
        <time>2019-04-20T11:09:34.000Z</time>
      </trkpt>
      <trkpt lat="43.96752" lon="7.35826">
        <ele>1417.8000488281</ele>
        <time>2019-04-20T11:09:36.000Z</time>
      </trkpt>
      <trkpt lat="43.96753" lon="7.35827">
        <ele>1417</ele>
        <time>2019-04-20T11:09:39.000Z</time>
      </trkpt>
      <trkpt lat="43.96754" lon="7.35829">
        <ele>1416.5999755859</ele>
        <time>2019-04-20T11:09:40.000Z</time>
      </trkpt>
      <trkpt lat="43.96755" lon="7.3583">
        <ele>1416.4000244141</ele>
        <time>2019-04-20T11:09:41.000Z</time>
      </trkpt>
      <trkpt lat="43.96757" lon="7.35834">
        <ele>1415.8000488281</ele>
        <time>2019-04-20T11:09:43.000Z</time>
      </trkpt>
      <trkpt lat="43.96758" lon="7.35837">
        <ele>1415.5999755859</ele>
        <time>2019-04-20T11:09:44.000Z</time>
      </trkpt>
      <trkpt lat="43.96764" lon="7.35845">
        <ele>1414.5999755859</ele>
        <time>2019-04-20T11:09:47.000Z</time>
      </trkpt>
      <trkpt lat="43.96766" lon="7.35848">
        <ele>1414.1999511719</ele>
        <time>2019-04-20T11:09:48.000Z</time>
      </trkpt>
      <trkpt lat="43.96772" lon="7.35865">
        <ele>1413.1999511719</ele>
        <time>2019-04-20T11:09:52.000Z</time>
      </trkpt>
      <trkpt lat="43.96771" lon="7.35869">
        <ele>1412.5999755859</ele>
        <time>2019-04-20T11:09:53.000Z</time>
      </trkpt>
      <trkpt lat="43.96771" lon="7.35875">
        <ele>1412</ele>
        <time>2019-04-20T11:09:55.000Z</time>
      </trkpt>
      <trkpt lat="43.96773" lon="7.35889">
        <ele>1411.1999511719</ele>
        <time>2019-04-20T11:10:00.000Z</time>
      </trkpt>
      <trkpt lat="43.96768" lon="7.35903">
        <ele>1411.5999755859</ele>
        <time>2019-04-20T11:10:04.000Z</time>
      </trkpt>
      <trkpt lat="43.96767" lon="7.35918">
        <ele>1411.5999755859</ele>
        <time>2019-04-20T11:10:08.000Z</time>
      </trkpt>
      <trkpt lat="43.96769" lon="7.35924">
        <ele>1411.5999755859</ele>
        <time>2019-04-20T11:10:10.000Z</time>
      </trkpt>
      <trkpt lat="43.96773" lon="7.35929">
        <ele>1411.5999755859</ele>
        <time>2019-04-20T11:10:12.000Z</time>
      </trkpt>
      <trkpt lat="43.96775" lon="7.3593">
        <ele>1411.4000244141</ele>
        <time>2019-04-20T11:10:13.000Z</time>
      </trkpt>
      <trkpt lat="43.96778" lon="7.35934">
        <ele>1411</ele>
        <time>2019-04-20T11:10:15.000Z</time>
      </trkpt>
      <trkpt lat="43.96781" lon="7.35937">
        <ele>1410.8000488281</ele>
        <time>2019-04-20T11:10:17.000Z</time>
      </trkpt>
      <trkpt lat="43.96786" lon="7.35941">
        <ele>1411.1999511719</ele>
        <time>2019-04-20T11:10:19.000Z</time>
      </trkpt>
      <trkpt lat="43.96792" lon="7.35948">
        <ele>1412</ele>
        <time>2019-04-20T11:10:24.000Z</time>
      </trkpt>
      <trkpt lat="43.96801" lon="7.35958">
        <ele>1412</ele>
        <time>2019-04-20T11:10:29.000Z</time>
      </trkpt>
      <trkpt lat="43.96807" lon="7.35971">
        <ele>1411.5999755859</ele>
        <time>2019-04-20T11:10:34.000Z</time>
      </trkpt>
      <trkpt lat="43.96808" lon="7.35975">
        <ele>1411</ele>
        <time>2019-04-20T11:10:36.000Z</time>
      </trkpt>
      <trkpt lat="43.9681" lon="7.35985">
        <ele>1409.8000488281</ele>
        <time>2019-04-20T11:10:40.000Z</time>
      </trkpt>
      <trkpt lat="43.9681" lon="7.35988">
        <ele>1408.8000488281</ele>
        <time>2019-04-20T11:10:43.000Z</time>
      </trkpt>
      <trkpt lat="43.9681" lon="7.3599">
        <ele>1408.1999511719</ele>
        <time>2019-04-20T11:10:45.000Z</time>
      </trkpt>
      <trkpt lat="43.96811" lon="7.35994">
        <ele>1407.5999755859</ele>
        <time>2019-04-20T11:10:49.000Z</time>
      </trkpt>
      <trkpt lat="43.96812" lon="7.36">
        <ele>1407.1999511719</ele>
        <time>2019-04-20T11:10:56.000Z</time>
      </trkpt>
      <trkpt lat="43.96815" lon="7.36012">
        <ele>1407</ele>
        <time>2019-04-20T11:11:05.000Z</time>
      </trkpt>
      <trkpt lat="43.96816" lon="7.36015">
        <ele>1406.5999755859</ele>
        <time>2019-04-20T11:11:07.000Z</time>
      </trkpt>
      <trkpt lat="43.96816" lon="7.36017">
        <ele>1406</ele>
        <time>2019-04-20T11:11:11.000Z</time>
      </trkpt>
      <trkpt lat="43.96816" lon="7.36019">
        <ele>1406</ele>
        <time>2019-04-20T11:11:12.000Z</time>
      </trkpt>
      <trkpt lat="43.96817" lon="7.36025">
        <ele>1405.5999755859</ele>
        <time>2019-04-20T11:11:16.000Z</time>
      </trkpt>
      <trkpt lat="43.96817" lon="7.36027">
        <ele>1405.1999511719</ele>
        <time>2019-04-20T11:11:17.000Z</time>
      </trkpt>
      <trkpt lat="43.96819" lon="7.36036">
        <ele>1404.4000244141</ele>
        <time>2019-04-20T11:11:23.000Z</time>
      </trkpt>
      <trkpt lat="43.96819" lon="7.36038">
        <ele>1404.5999755859</ele>
        <time>2019-04-20T11:11:24.000Z</time>
      </trkpt>
      <trkpt lat="43.9682" lon="7.36044">
        <ele>1404.4000244141</ele>
        <time>2019-04-20T11:11:30.000Z</time>
      </trkpt>
      <trkpt lat="43.9682" lon="7.36051">
        <ele>1403.8000488281</ele>
        <time>2019-04-20T11:11:36.000Z</time>
      </trkpt>
      <trkpt lat="43.9682" lon="7.36053">
        <ele>1403.8000488281</ele>
        <time>2019-04-20T11:11:37.000Z</time>
      </trkpt>
      <trkpt lat="43.96819" lon="7.36056">
        <ele>1403.4000244141</ele>
        <time>2019-04-20T11:11:39.000Z</time>
      </trkpt>
      <trkpt lat="43.96819" lon="7.3606">
        <ele>1403.1999511719</ele>
        <time>2019-04-20T11:11:41.000Z</time>
      </trkpt>
      <trkpt lat="43.96816" lon="7.3607">
        <ele>1402.8000488281</ele>
        <time>2019-04-20T11:11:48.000Z</time>
      </trkpt>
      <trkpt lat="43.96815" lon="7.36082">
        <ele>1402.4000244141</ele>
        <time>2019-04-20T11:11:56.000Z</time>
      </trkpt>
      <trkpt lat="43.96812" lon="7.3609">
        <ele>1402.5999755859</ele>
        <time>2019-04-20T11:12:03.000Z</time>
      </trkpt>
      <trkpt lat="43.96813" lon="7.36097">
        <ele>1402</ele>
        <time>2019-04-20T11:12:09.000Z</time>
      </trkpt>
      <trkpt lat="43.96813" lon="7.36101">
        <ele>1402</ele>
        <time>2019-04-20T11:12:13.000Z</time>
      </trkpt>
      <trkpt lat="43.96812" lon="7.36108">
        <ele>1402.1999511719</ele>
        <time>2019-04-20T11:12:15.000Z</time>
      </trkpt>
      <trkpt lat="43.96813" lon="7.36127">
        <ele>1401.1999511719</ele>
        <time>2019-04-20T11:12:19.000Z</time>
      </trkpt>
      <trkpt lat="43.96814" lon="7.36132">
        <ele>1401</ele>
        <time>2019-04-20T11:12:20.000Z</time>
      </trkpt>
      <trkpt lat="43.96814" lon="7.36141">
        <ele>1400</ele>
        <time>2019-04-20T11:12:22.000Z</time>
      </trkpt>
      <trkpt lat="43.96815" lon="7.36146">
        <ele>1399.1999511719</ele>
        <time>2019-04-20T11:12:24.000Z</time>
      </trkpt>
      <trkpt lat="43.96815" lon="7.36148">
        <ele>1398.8000488281</ele>
        <time>2019-04-20T11:12:25.000Z</time>
      </trkpt>
      <trkpt lat="43.96815" lon="7.36161">
        <ele>1398.5999755859</ele>
        <time>2019-04-20T11:12:29.000Z</time>
      </trkpt>
      <trkpt lat="43.96815" lon="7.36177">
        <ele>1398</ele>
        <time>2019-04-20T11:12:34.000Z</time>
      </trkpt>
      <trkpt lat="43.96815" lon="7.36184">
        <ele>1397.8000488281</ele>
        <time>2019-04-20T11:12:36.000Z</time>
      </trkpt>
      <trkpt lat="43.96815" lon="7.36186">
        <ele>1397.5999755859</ele>
        <time>2019-04-20T11:12:37.000Z</time>
      </trkpt>
      <trkpt lat="43.96816" lon="7.36187">
        <ele>1397</ele>
        <time>2019-04-20T11:12:39.000Z</time>
      </trkpt>
      <trkpt lat="43.96816" lon="7.36189">
        <ele>1396.8000488281</ele>
        <time>2019-04-20T11:12:41.000Z</time>
      </trkpt>
      <trkpt lat="43.96816" lon="7.36191">
        <ele>1396.8000488281</ele>
        <time>2019-04-20T11:12:42.000Z</time>
      </trkpt>
      <trkpt lat="43.96816" lon="7.36193">
        <ele>1396.5999755859</ele>
        <time>2019-04-20T11:12:45.000Z</time>
      </trkpt>
      <trkpt lat="43.96816" lon="7.36195">
        <ele>1396.5999755859</ele>
        <time>2019-04-20T11:12:46.000Z</time>
      </trkpt>
      <trkpt lat="43.96816" lon="7.36204">
        <ele>1396</ele>
        <time>2019-04-20T11:12:50.000Z</time>
      </trkpt>
      <trkpt lat="43.96816" lon="7.36207">
        <ele>1395.8000488281</ele>
        <time>2019-04-20T11:12:51.000Z</time>
      </trkpt>
      <trkpt lat="43.96817" lon="7.36218">
        <ele>1395.5999755859</ele>
        <time>2019-04-20T11:12:54.000Z</time>
      </trkpt>
      <trkpt lat="43.96817" lon="7.36221">
        <ele>1395.4000244141</ele>
        <time>2019-04-20T11:12:55.000Z</time>
      </trkpt>
      <trkpt lat="43.96817" lon="7.36224">
        <ele>1394.5999755859</ele>
        <time>2019-04-20T11:12:58.000Z</time>
      </trkpt>
      <trkpt lat="43.96817" lon="7.36225">
        <ele>1394.1999511719</ele>
        <time>2019-04-20T11:12:59.000Z</time>
      </trkpt>
      <trkpt lat="43.96817" lon="7.36226">
        <ele>1393.5999755859</ele>
        <time>2019-04-20T11:13:01.000Z</time>
      </trkpt>
      <trkpt lat="43.96818" lon="7.36232">
        <ele>1393.1999511719</ele>
        <time>2019-04-20T11:13:04.000Z</time>
      </trkpt>
      <trkpt lat="43.96817" lon="7.36237">
        <ele>1393</ele>
        <time>2019-04-20T11:13:06.000Z</time>
      </trkpt>
      <trkpt lat="43.96816" lon="7.36238">
        <ele>1393</ele>
        <time>2019-04-20T11:13:07.000Z</time>
      </trkpt>
      <trkpt lat="43.96812" lon="7.3624">
        <ele>1392.5999755859</ele>
        <time>2019-04-20T11:13:10.000Z</time>
      </trkpt>
      <trkpt lat="43.96809" lon="7.36243">
        <ele>1392.4000244141</ele>
        <time>2019-04-20T11:13:13.000Z</time>
      </trkpt>
      <trkpt lat="43.96808" lon="7.36245">
        <ele>1392.4000244141</ele>
        <time>2019-04-20T11:13:14.000Z</time>
      </trkpt>
      <trkpt lat="43.96804" lon="7.36247">
        <ele>1393.1999511719</ele>
        <time>2019-04-20T11:13:18.000Z</time>
      </trkpt>
      <trkpt lat="43.96802" lon="7.36248">
        <ele>1393.8000488281</ele>
        <time>2019-04-20T11:13:20.000Z</time>
      </trkpt>
      <trkpt lat="43.96799" lon="7.36249">
        <ele>1394.4000244141</ele>
        <time>2019-04-20T11:13:24.000Z</time>
      </trkpt>
      <trkpt lat="43.96798" lon="7.3625">
        <ele>1394.5999755859</ele>
        <time>2019-04-20T11:13:25.000Z</time>
      </trkpt>
      <trkpt lat="43.96797" lon="7.36252">
        <ele>1394.8000488281</ele>
        <time>2019-04-20T11:13:27.000Z</time>
      </trkpt>
      <trkpt lat="43.96797" lon="7.36255">
        <ele>1395</ele>
        <time>2019-04-20T11:13:29.000Z</time>
      </trkpt>
      <trkpt lat="43.96797" lon="7.36265">
        <ele>1395.5999755859</ele>
        <time>2019-04-20T11:13:36.000Z</time>
      </trkpt>
      <trkpt lat="43.96798" lon="7.36268">
        <ele>1395.8000488281</ele>
        <time>2019-04-20T11:13:38.000Z</time>
      </trkpt>
      <trkpt lat="43.96799" lon="7.36275">
        <ele>1396.1999511719</ele>
        <time>2019-04-20T11:13:43.000Z</time>
      </trkpt>
      <trkpt lat="43.96799" lon="7.36277">
        <ele>1396.8000488281</ele>
        <time>2019-04-20T11:13:46.000Z</time>
      </trkpt>
      <trkpt lat="43.96799" lon="7.3628">
        <ele>1397.4000244141</ele>
        <time>2019-04-20T11:13:49.000Z</time>
      </trkpt>
      <trkpt lat="43.96798" lon="7.36283">
        <ele>1397.5999755859</ele>
        <time>2019-04-20T11:13:52.000Z</time>
      </trkpt>
      <trkpt lat="43.96797" lon="7.36285">
        <ele>1398</ele>
        <time>2019-04-20T11:13:54.000Z</time>
      </trkpt>
      <trkpt lat="43.96796" lon="7.36286">
        <ele>1398.4000244141</ele>
        <time>2019-04-20T11:13:56.000Z</time>
      </trkpt>
      <trkpt lat="43.96793" lon="7.36291">
        <ele>1398.4000244141</ele>
        <time>2019-04-20T11:14:01.000Z</time>
      </trkpt>
      <trkpt lat="43.96793" lon="7.36297">
        <ele>1397.4000244141</ele>
        <time>2019-04-20T11:14:06.000Z</time>
      </trkpt>
      <trkpt lat="43.96791" lon="7.36299">
        <ele>1397.5999755859</ele>
        <time>2019-04-20T11:14:07.000Z</time>
      </trkpt>
      <trkpt lat="43.96787" lon="7.36299">
        <ele>1397.5999755859</ele>
        <time>2019-04-20T11:14:11.000Z</time>
      </trkpt>
      <trkpt lat="43.96785" lon="7.36299">
        <ele>1397.5999755859</ele>
        <time>2019-04-20T11:14:12.000Z</time>
      </trkpt>
      <trkpt lat="43.96779" lon="7.36299">
        <ele>1397</ele>
        <time>2019-04-20T11:14:17.000Z</time>
      </trkpt>
      <trkpt lat="43.96778" lon="7.363">
        <ele>1397</ele>
        <time>2019-04-20T11:14:18.000Z</time>
      </trkpt>
      <trkpt lat="43.96774" lon="7.363">
        <ele>1397</ele>
        <time>2019-04-20T11:14:22.000Z</time>
      </trkpt>
      <trkpt lat="43.96769" lon="7.36302">
        <ele>1396.8000488281</ele>
        <time>2019-04-20T11:14:27.000Z</time>
      </trkpt>
      <trkpt lat="43.9676" lon="7.36306">
        <ele>1397</ele>
        <time>2019-04-20T11:14:35.000Z</time>
      </trkpt>
      <trkpt lat="43.96759" lon="7.36307">
        <ele>1397.1999511719</ele>
        <time>2019-04-20T11:14:40.000Z</time>
      </trkpt>
      <trkpt lat="43.96758" lon="7.36306">
        <ele>1396.8000488281</ele>
        <time>2019-04-20T11:14:46.000Z</time>
      </trkpt>
      <trkpt lat="43.96752" lon="7.36308">
        <ele>1397.1999511719</ele>
        <time>2019-04-20T11:14:51.000Z</time>
      </trkpt>
      <trkpt lat="43.9674" lon="7.36315">
        <ele>1397.5999755859</ele>
        <time>2019-04-20T11:14:57.000Z</time>
      </trkpt>
      <trkpt lat="43.96734" lon="7.36322">
        <ele>1397.8000488281</ele>
        <time>2019-04-20T11:15:01.000Z</time>
      </trkpt>
      <trkpt lat="43.96734" lon="7.36325">
        <ele>1397.8000488281</ele>
        <time>2019-04-20T11:15:02.000Z</time>
      </trkpt>
      <trkpt lat="43.96732" lon="7.36329">
        <ele>1398</ele>
        <time>2019-04-20T11:15:04.000Z</time>
      </trkpt>
      <trkpt lat="43.96731" lon="7.3633">
        <ele>1398.1999511719</ele>
        <time>2019-04-20T11:15:07.000Z</time>
      </trkpt>
      <trkpt lat="43.96729" lon="7.36333">
        <ele>1398.1999511719</ele>
        <time>2019-04-20T11:15:12.000Z</time>
      </trkpt>
      <trkpt lat="43.96728" lon="7.36332">
        <ele>1398.1999511719</ele>
        <time>2019-04-20T11:15:13.000Z</time>
      </trkpt>
      <trkpt lat="43.96726" lon="7.36331">
        <ele>1398.4000244141</ele>
        <time>2019-04-20T11:15:16.000Z</time>
      </trkpt>
      <trkpt lat="43.96725" lon="7.36331">
        <ele>1397.8000488281</ele>
        <time>2019-04-20T11:15:24.000Z</time>
      </trkpt>
      <trkpt lat="43.96725" lon="7.36334">
        <ele>1397.5999755859</ele>
        <time>2019-04-20T11:15:32.000Z</time>
      </trkpt>
      <trkpt lat="43.96726" lon="7.36335">
        <ele>1397.8000488281</ele>
        <time>2019-04-20T11:15:39.000Z</time>
      </trkpt>
      <trkpt lat="43.96725" lon="7.36335">
        <ele>1397.5999755859</ele>
        <time>2019-04-20T11:15:45.000Z</time>
      </trkpt>
      <trkpt lat="43.96725" lon="7.36335">
        <ele>1397.4000244141</ele>
        <time>2019-04-20T11:15:53.000Z</time>
      </trkpt>
      <trkpt lat="43.96722" lon="7.36334">
        <ele>1397.1999511719</ele>
        <time>2019-04-20T11:15:57.000Z</time>
      </trkpt>
      <trkpt lat="43.96716" lon="7.36331">
        <ele>1397</ele>
        <time>2019-04-20T11:16:00.000Z</time>
      </trkpt>
      <trkpt lat="43.96712" lon="7.3633">
        <ele>1396.5999755859</ele>
        <time>2019-04-20T11:16:02.000Z</time>
      </trkpt>
      <trkpt lat="43.96698" lon="7.36323">
        <ele>1396.4000244141</ele>
        <time>2019-04-20T11:16:09.000Z</time>
      </trkpt>
      <trkpt lat="43.96688" lon="7.36323">
        <ele>1396.1999511719</ele>
        <time>2019-04-20T11:16:14.000Z</time>
      </trkpt>
      <trkpt lat="43.96678" lon="7.36326">
        <ele>1397.1999511719</ele>
        <time>2019-04-20T11:16:20.000Z</time>
      </trkpt>
      <trkpt lat="43.9667" lon="7.36328">
        <ele>1397.4000244141</ele>
        <time>2019-04-20T11:16:23.000Z</time>
      </trkpt>
      <trkpt lat="43.96668" lon="7.3633">
        <ele>1397</ele>
        <time>2019-04-20T11:16:24.000Z</time>
      </trkpt>
      <trkpt lat="43.96658" lon="7.36333">
        <ele>1395.5999755859</ele>
        <time>2019-04-20T11:16:28.000Z</time>
      </trkpt>
      <trkpt lat="43.96649" lon="7.36333">
        <ele>1395</ele>
        <time>2019-04-20T11:16:32.000Z</time>
      </trkpt>
      <trkpt lat="43.96643" lon="7.36333">
        <ele>1394.5999755859</ele>
        <time>2019-04-20T11:16:34.000Z</time>
      </trkpt>
      <trkpt lat="43.9664" lon="7.36334">
        <ele>1394.5999755859</ele>
        <time>2019-04-20T11:16:36.000Z</time>
      </trkpt>
      <trkpt lat="43.96639" lon="7.36334">
        <ele>1393.8000488281</ele>
        <time>2019-04-20T11:16:38.000Z</time>
      </trkpt>
      <trkpt lat="43.96636" lon="7.36334">
        <ele>1393.5999755859</ele>
        <time>2019-04-20T11:16:39.000Z</time>
      </trkpt>
      <trkpt lat="43.96623" lon="7.36332">
        <ele>1393.1999511719</ele>
        <time>2019-04-20T11:16:43.000Z</time>
      </trkpt>
      <trkpt lat="43.96613" lon="7.36332">
        <ele>1393.4000244141</ele>
        <time>2019-04-20T11:16:47.000Z</time>
      </trkpt>
      <trkpt lat="43.96605" lon="7.36329">
        <ele>1394</ele>
        <time>2019-04-20T11:16:50.000Z</time>
      </trkpt>
      <trkpt lat="43.96602" lon="7.36327">
        <ele>1394</ele>
        <time>2019-04-20T11:16:51.000Z</time>
      </trkpt>
      <trkpt lat="43.96596" lon="7.36325">
        <ele>1394</ele>
        <time>2019-04-20T11:16:54.000Z</time>
      </trkpt>
      <trkpt lat="43.96593" lon="7.36323">
        <ele>1394.1999511719</ele>
        <time>2019-04-20T11:16:55.000Z</time>
      </trkpt>
      <trkpt lat="43.96585" lon="7.36319">
        <ele>1394.5999755859</ele>
        <time>2019-04-20T11:16:58.000Z</time>
      </trkpt>
      <trkpt lat="43.96581" lon="7.36319">
        <ele>1394.8000488281</ele>
        <time>2019-04-20T11:17:00.000Z</time>
      </trkpt>
      <trkpt lat="43.96576" lon="7.36318">
        <ele>1395.8000488281</ele>
        <time>2019-04-20T11:17:03.000Z</time>
      </trkpt>
      <trkpt lat="43.96573" lon="7.36317">
        <ele>1397.1999511719</ele>
        <time>2019-04-20T11:17:05.000Z</time>
      </trkpt>
      <trkpt lat="43.96571" lon="7.36317">
        <ele>1397.5999755859</ele>
        <time>2019-04-20T11:17:06.000Z</time>
      </trkpt>
      <trkpt lat="43.96568" lon="7.36317">
        <ele>1398.1999511719</ele>
        <time>2019-04-20T11:17:08.000Z</time>
      </trkpt>
      <trkpt lat="43.9656" lon="7.36318">
        <ele>1398.4000244141</ele>
        <time>2019-04-20T11:17:12.000Z</time>
      </trkpt>
      <trkpt lat="43.96557" lon="7.3632">
        <ele>1398.5999755859</ele>
        <time>2019-04-20T11:17:14.000Z</time>
      </trkpt>
      <trkpt lat="43.96552" lon="7.36323">
        <ele>1398.8000488281</ele>
        <time>2019-04-20T11:17:17.000Z</time>
      </trkpt>
      <trkpt lat="43.96551" lon="7.36324">
        <ele>1398.8000488281</ele>
        <time>2019-04-20T11:17:18.000Z</time>
      </trkpt>
      <trkpt lat="43.96549" lon="7.36326">
        <ele>1399.1999511719</ele>
        <time>2019-04-20T11:17:20.000Z</time>
      </trkpt>
      <trkpt lat="43.96546" lon="7.36328">
        <ele>1399.4000244141</ele>
        <time>2019-04-20T11:17:22.000Z</time>
      </trkpt>
      <trkpt lat="43.96545" lon="7.3633">
        <ele>1399.4000244141</ele>
        <time>2019-04-20T11:17:23.000Z</time>
      </trkpt>
      <trkpt lat="43.96541" lon="7.36334">
        <ele>1399.5999755859</ele>
        <time>2019-04-20T11:17:26.000Z</time>
      </trkpt>
      <trkpt lat="43.96541" lon="7.36336">
        <ele>1399.5999755859</ele>
        <time>2019-04-20T11:17:27.000Z</time>
      </trkpt>
      <trkpt lat="43.96539" lon="7.36342">
        <ele>1399.5999755859</ele>
        <time>2019-04-20T11:17:30.000Z</time>
      </trkpt>
      <trkpt lat="43.96537" lon="7.36347">
        <ele>1399.8000488281</ele>
        <time>2019-04-20T11:17:32.000Z</time>
      </trkpt>
      <trkpt lat="43.96535" lon="7.36359">
        <ele>1400.4000244141</ele>
        <time>2019-04-20T11:17:36.000Z</time>
      </trkpt>
      <trkpt lat="43.96534" lon="7.36361">
        <ele>1400.5999755859</ele>
        <time>2019-04-20T11:17:37.000Z</time>
      </trkpt>
      <trkpt lat="43.96529" lon="7.36369">
        <ele>1401.1999511719</ele>
        <time>2019-04-20T11:17:41.000Z</time>
      </trkpt>
      <trkpt lat="43.96521" lon="7.36373">
        <ele>1401.4000244141</ele>
        <time>2019-04-20T11:17:45.000Z</time>
      </trkpt>
      <trkpt lat="43.96519" lon="7.36374">
        <ele>1401.5999755859</ele>
        <time>2019-04-20T11:17:46.000Z</time>
      </trkpt>
      <trkpt lat="43.96509" lon="7.36379">
        <ele>1402</ele>
        <time>2019-04-20T11:17:51.000Z</time>
      </trkpt>
      <trkpt lat="43.96504" lon="7.3638">
        <ele>1402.4000244141</ele>
        <time>2019-04-20T11:17:54.000Z</time>
      </trkpt>
      <trkpt lat="43.96502" lon="7.3638">
        <ele>1402.5999755859</ele>
        <time>2019-04-20T11:17:55.000Z</time>
      </trkpt>
      <trkpt lat="43.96492" lon="7.36383">
        <ele>1403.4000244141</ele>
        <time>2019-04-20T11:18:01.000Z</time>
      </trkpt>
      <trkpt lat="43.9649" lon="7.36385">
        <ele>1403.4000244141</ele>
        <time>2019-04-20T11:18:02.000Z</time>
      </trkpt>
      <trkpt lat="43.96481" lon="7.36386">
        <ele>1404.4000244141</ele>
        <time>2019-04-20T11:18:07.000Z</time>
      </trkpt>
      <trkpt lat="43.9648" lon="7.36386">
        <ele>1404.8000488281</ele>
        <time>2019-04-20T11:18:08.000Z</time>
      </trkpt>
      <trkpt lat="43.96478" lon="7.36386">
        <ele>1405.1999511719</ele>
        <time>2019-04-20T11:18:09.000Z</time>
      </trkpt>
      <trkpt lat="43.96475" lon="7.36388">
        <ele>1405.4000244141</ele>
        <time>2019-04-20T11:18:12.000Z</time>
      </trkpt>
      <trkpt lat="43.96471" lon="7.3639">
        <ele>1405.8000488281</ele>
        <time>2019-04-20T11:18:15.000Z</time>
      </trkpt>
      <trkpt lat="43.9647" lon="7.36391">
        <ele>1406</ele>
        <time>2019-04-20T11:18:18.000Z</time>
      </trkpt>
      <trkpt lat="43.96467" lon="7.36392">
        <ele>1405.8000488281</ele>
        <time>2019-04-20T11:18:22.000Z</time>
      </trkpt>
      <trkpt lat="43.96466" lon="7.36395">
        <ele>1407</ele>
        <time>2019-04-20T11:18:27.000Z</time>
      </trkpt>
      <trkpt lat="43.96465" lon="7.364">
        <ele>1408</ele>
        <time>2019-04-20T11:18:34.000Z</time>
      </trkpt>
      <trkpt lat="43.96464" lon="7.36401">
        <ele>1408</ele>
        <time>2019-04-20T11:18:35.000Z</time>
      </trkpt>
      <trkpt lat="43.96459" lon="7.36401">
        <ele>1407.5999755859</ele>
        <time>2019-04-20T11:18:40.000Z</time>
      </trkpt>
      <trkpt lat="43.96455" lon="7.36407">
        <ele>1408</ele>
        <time>2019-04-20T11:18:47.000Z</time>
      </trkpt>
      <trkpt lat="43.96454" lon="7.3641">
        <ele>1408.1999511719</ele>
        <time>2019-04-20T11:18:54.000Z</time>
      </trkpt>
      <trkpt lat="43.96455" lon="7.36419">
        <ele>1408.4000244141</ele>
        <time>2019-04-20T11:19:01.000Z</time>
      </trkpt>
      <trkpt lat="43.96462" lon="7.36442">
        <ele>1407.4000244141</ele>
        <time>2019-04-20T11:19:06.000Z</time>
      </trkpt>
      <trkpt lat="43.96464" lon="7.36448">
        <ele>1406.8000488281</ele>
        <time>2019-04-20T11:19:07.000Z</time>
      </trkpt>
      <trkpt lat="43.9647" lon="7.36471">
        <ele>1405.5999755859</ele>
        <time>2019-04-20T11:19:11.000Z</time>
      </trkpt>
      <trkpt lat="43.96473" lon="7.36482">
        <ele>1404.4000244141</ele>
        <time>2019-04-20T11:19:13.000Z</time>
      </trkpt>
      <trkpt lat="43.96476" lon="7.36492">
        <ele>1402.8000488281</ele>
        <time>2019-04-20T11:19:15.000Z</time>
      </trkpt>
      <trkpt lat="43.96477" lon="7.36497">
        <ele>1402.5999755859</ele>
        <time>2019-04-20T11:19:16.000Z</time>
      </trkpt>
      <trkpt lat="43.96482" lon="7.36517">
        <ele>1402</ele>
        <time>2019-04-20T11:19:20.000Z</time>
      </trkpt>
      <trkpt lat="43.96483" lon="7.36522">
        <ele>1401.8000488281</ele>
        <time>2019-04-20T11:19:21.000Z</time>
      </trkpt>
      <trkpt lat="43.96491" lon="7.36533">
        <ele>1400.5999755859</ele>
        <time>2019-04-20T11:19:24.000Z</time>
      </trkpt>
      <trkpt lat="43.96495" lon="7.36536">
        <ele>1400.1999511719</ele>
        <time>2019-04-20T11:19:25.000Z</time>
      </trkpt>
      <trkpt lat="43.96498" lon="7.36538">
        <ele>1399.8000488281</ele>
        <time>2019-04-20T11:19:26.000Z</time>
      </trkpt>
      <trkpt lat="43.96503" lon="7.36546">
        <ele>1399.5999755859</ele>
        <time>2019-04-20T11:19:28.000Z</time>
      </trkpt>
      <trkpt lat="43.96504" lon="7.3655">
        <ele>1399.8000488281</ele>
        <time>2019-04-20T11:19:29.000Z</time>
      </trkpt>
      <trkpt lat="43.96513" lon="7.36566">
        <ele>1400</ele>
        <time>2019-04-20T11:19:33.000Z</time>
      </trkpt>
      <trkpt lat="43.96515" lon="7.36568">
        <ele>1399.4000244141</ele>
        <time>2019-04-20T11:19:34.000Z</time>
      </trkpt>
      <trkpt lat="43.96519" lon="7.36574">
        <ele>1398.8000488281</ele>
        <time>2019-04-20T11:19:36.000Z</time>
      </trkpt>
      <trkpt lat="43.9652" lon="7.36582">
        <ele>1398.8000488281</ele>
        <time>2019-04-20T11:19:38.000Z</time>
      </trkpt>
      <trkpt lat="43.9652" lon="7.36586">
        <ele>1398.8000488281</ele>
        <time>2019-04-20T11:19:39.000Z</time>
      </trkpt>
      <trkpt lat="43.96522" lon="7.36598">
        <ele>1398.4000244141</ele>
        <time>2019-04-20T11:19:42.000Z</time>
      </trkpt>
      <trkpt lat="43.96523" lon="7.36603">
        <ele>1398.1999511719</ele>
        <time>2019-04-20T11:19:43.000Z</time>
      </trkpt>
      <trkpt lat="43.96518" lon="7.36616">
        <ele>1397.8000488281</ele>
        <time>2019-04-20T11:19:46.000Z</time>
      </trkpt>
      <trkpt lat="43.96515" lon="7.36637">
        <ele>1398.1999511719</ele>
        <time>2019-04-20T11:19:51.000Z</time>
      </trkpt>
      <trkpt lat="43.96507" lon="7.36658">
        <ele>1399</ele>
        <time>2019-04-20T11:19:56.000Z</time>
      </trkpt>
      <trkpt lat="43.96499" lon="7.3668">
        <ele>1399.1999511719</ele>
        <time>2019-04-20T11:20:02.000Z</time>
      </trkpt>
      <trkpt lat="43.96496" lon="7.36689">
        <ele>1399.5999755859</ele>
        <time>2019-04-20T11:20:05.000Z</time>
      </trkpt>
      <trkpt lat="43.96496" lon="7.36691">
        <ele>1399.8000488281</ele>
        <time>2019-04-20T11:20:06.000Z</time>
      </trkpt>
      <trkpt lat="43.96501" lon="7.36701">
        <ele>1400.5999755859</ele>
        <time>2019-04-20T11:20:10.000Z</time>
      </trkpt>
      <trkpt lat="43.96503" lon="7.36704">
        <ele>1400.5999755859</ele>
        <time>2019-04-20T11:20:11.000Z</time>
      </trkpt>
      <trkpt lat="43.96505" lon="7.36706">
        <ele>1400.8000488281</ele>
        <time>2019-04-20T11:20:12.000Z</time>
      </trkpt>
      <trkpt lat="43.96515" lon="7.36718">
        <ele>1400.8000488281</ele>
        <time>2019-04-20T11:20:16.000Z</time>
      </trkpt>
      <trkpt lat="43.96518" lon="7.36722">
        <ele>1400.5999755859</ele>
        <time>2019-04-20T11:20:17.000Z</time>
      </trkpt>
      <trkpt lat="43.96524" lon="7.36731">
        <ele>1399.4000244141</ele>
        <time>2019-04-20T11:20:19.000Z</time>
      </trkpt>
      <trkpt lat="43.96528" lon="7.36736">
        <ele>1398.5999755859</ele>
        <time>2019-04-20T11:20:20.000Z</time>
      </trkpt>
      <trkpt lat="43.96532" lon="7.3674">
        <ele>1397.8000488281</ele>
        <time>2019-04-20T11:20:21.000Z</time>
      </trkpt>
      <trkpt lat="43.9654" lon="7.36747">
        <ele>1396.8000488281</ele>
        <time>2019-04-20T11:20:23.000Z</time>
      </trkpt>
      <trkpt lat="43.96545" lon="7.36749">
        <ele>1396.1999511719</ele>
        <time>2019-04-20T11:20:24.000Z</time>
      </trkpt>
      <trkpt lat="43.96549" lon="7.36752">
        <ele>1395.8000488281</ele>
        <time>2019-04-20T11:20:25.000Z</time>
      </trkpt>
      <trkpt lat="43.96553" lon="7.36757">
        <ele>1395</ele>
        <time>2019-04-20T11:20:26.000Z</time>
      </trkpt>
      <trkpt lat="43.96557" lon="7.36766">
        <ele>1394.1999511719</ele>
        <time>2019-04-20T11:20:28.000Z</time>
      </trkpt>
      <trkpt lat="43.96559" lon="7.3677">
        <ele>1393.8000488281</ele>
        <time>2019-04-20T11:20:29.000Z</time>
      </trkpt>
      <trkpt lat="43.96567" lon="7.36781">
        <ele>1393.1999511719</ele>
        <time>2019-04-20T11:20:31.000Z</time>
      </trkpt>
      <trkpt lat="43.96578" lon="7.36795">
        <ele>1391.8000488281</ele>
        <time>2019-04-20T11:20:35.000Z</time>
      </trkpt>
      <trkpt lat="43.96579" lon="7.368">
        <ele>1391.1999511719</ele>
        <time>2019-04-20T11:20:36.000Z</time>
      </trkpt>
      <trkpt lat="43.96581" lon="7.36803">
        <ele>1391</ele>
        <time>2019-04-20T11:20:37.000Z</time>
      </trkpt>
      <trkpt lat="43.96583" lon="7.3681">
        <ele>1390</ele>
        <time>2019-04-20T11:20:40.000Z</time>
      </trkpt>
      <trkpt lat="43.96583" lon="7.36813">
        <ele>1389.4000244141</ele>
        <time>2019-04-20T11:20:45.000Z</time>
      </trkpt>
      <trkpt lat="43.96582" lon="7.36817">
        <ele>1389.4000244141</ele>
        <time>2019-04-20T11:20:51.000Z</time>
      </trkpt>
      <trkpt lat="43.96571" lon="7.36829">
        <ele>1390.5999755859</ele>
        <time>2019-04-20T11:21:07.000Z</time>
      </trkpt>
      <trkpt lat="43.96569" lon="7.3683">
        <ele>1391</ele>
        <time>2019-04-20T11:21:09.000Z</time>
      </trkpt>
      <trkpt lat="43.9657" lon="7.36831">
        <ele>1391.5999755859</ele>
        <time>2019-04-20T11:21:11.000Z</time>
      </trkpt>
      <trkpt lat="43.96567" lon="7.36835">
        <ele>1392.1999511719</ele>
        <time>2019-04-20T11:21:15.000Z</time>
      </trkpt>
      <trkpt lat="43.96566" lon="7.36835">
        <ele>1392.1999511719</ele>
        <time>2019-04-20T11:21:16.000Z</time>
      </trkpt>
      <trkpt lat="43.96564" lon="7.36838">
        <ele>1392.4000244141</ele>
        <time>2019-04-20T11:21:19.000Z</time>
      </trkpt>
      <trkpt lat="43.96562" lon="7.36838">
        <ele>1392.4000244141</ele>
        <time>2019-04-20T11:21:20.000Z</time>
      </trkpt>
      <trkpt lat="43.96559" lon="7.36841">
        <ele>1392.5999755859</ele>
        <time>2019-04-20T11:21:23.000Z</time>
      </trkpt>
      <trkpt lat="43.96558" lon="7.36845">
        <ele>1393.1999511719</ele>
        <time>2019-04-20T11:21:28.000Z</time>
      </trkpt>
      <trkpt lat="43.96555" lon="7.36853">
        <ele>1394.1999511719</ele>
        <time>2019-04-20T11:21:34.000Z</time>
      </trkpt>
      <trkpt lat="43.96555" lon="7.36854">
        <ele>1394.5999755859</ele>
        <time>2019-04-20T11:21:36.000Z</time>
      </trkpt>
      <trkpt lat="43.96554" lon="7.36857">
        <ele>1395.1999511719</ele>
        <time>2019-04-20T11:21:39.000Z</time>
      </trkpt>
      <trkpt lat="43.96553" lon="7.36862">
        <ele>1395.8000488281</ele>
        <time>2019-04-20T11:21:42.000Z</time>
      </trkpt>
      <trkpt lat="43.96552" lon="7.36866">
        <ele>1396.4000244141</ele>
        <time>2019-04-20T11:21:45.000Z</time>
      </trkpt>
      <trkpt lat="43.96551" lon="7.36869">
        <ele>1397.4000244141</ele>
        <time>2019-04-20T11:21:50.000Z</time>
      </trkpt>
      <trkpt lat="43.9655" lon="7.36871">
        <ele>1397.5999755859</ele>
        <time>2019-04-20T11:21:51.000Z</time>
      </trkpt>
      <trkpt lat="43.96549" lon="7.36876">
        <ele>1398.5999755859</ele>
        <time>2019-04-20T11:21:56.000Z</time>
      </trkpt>
      <trkpt lat="43.96548" lon="7.36877">
        <ele>1399</ele>
        <time>2019-04-20T11:21:58.000Z</time>
      </trkpt>
      <trkpt lat="43.96547" lon="7.3688">
        <ele>1399.8000488281</ele>
        <time>2019-04-20T11:22:02.000Z</time>
      </trkpt>
      <trkpt lat="43.96546" lon="7.36882">
        <ele>1400.5999755859</ele>
        <time>2019-04-20T11:22:06.000Z</time>
      </trkpt>
      <trkpt lat="43.96545" lon="7.36884">
        <ele>1400.8000488281</ele>
        <time>2019-04-20T11:22:08.000Z</time>
      </trkpt>
      <trkpt lat="43.96544" lon="7.36888">
        <ele>1401.4000244141</ele>
        <time>2019-04-20T11:22:11.000Z</time>
      </trkpt>
      <trkpt lat="43.96543" lon="7.3689">
        <ele>1401.8000488281</ele>
        <time>2019-04-20T11:22:13.000Z</time>
      </trkpt>
      <trkpt lat="43.96542" lon="7.36897">
        <ele>1403</ele>
        <time>2019-04-20T11:22:18.000Z</time>
      </trkpt>
      <trkpt lat="43.96541" lon="7.36901">
        <ele>1403.5999755859</ele>
        <time>2019-04-20T11:22:22.000Z</time>
      </trkpt>
      <trkpt lat="43.9654" lon="7.36904">
        <ele>1404.1999511719</ele>
        <time>2019-04-20T11:22:25.000Z</time>
      </trkpt>
      <trkpt lat="43.9654" lon="7.36904">
        <ele>1404.1999511719</ele>
        <time>2019-04-20T11:22:29.000Z</time>
      </trkpt>
      <trkpt lat="43.96539" lon="7.36906">
        <ele>1404.1999511719</ele>
        <time>2019-04-20T11:22:41.000Z</time>
      </trkpt>
      <trkpt lat="43.96535" lon="7.36915">
        <ele>1404.4000244141</ele>
        <time>2019-04-20T11:22:45.000Z</time>
      </trkpt>
      <trkpt lat="43.96534" lon="7.36917">
        <ele>1404.4000244141</ele>
        <time>2019-04-20T11:22:46.000Z</time>
      </trkpt>
      <trkpt lat="43.96526" lon="7.36926">
        <ele>1404</ele>
        <time>2019-04-20T11:22:51.000Z</time>
      </trkpt>
      <trkpt lat="43.96524" lon="7.36945">
        <ele>1404.5999755859</ele>
        <time>2019-04-20T11:22:58.000Z</time>
      </trkpt>
      <trkpt lat="43.96525" lon="7.36964">
        <ele>1403.5999755859</ele>
        <time>2019-04-20T11:23:03.000Z</time>
      </trkpt>
      <trkpt lat="43.96526" lon="7.36972">
        <ele>1402.5999755859</ele>
        <time>2019-04-20T11:23:05.000Z</time>
      </trkpt>
      <trkpt lat="43.96525" lon="7.3698">
        <ele>1402.4000244141</ele>
        <time>2019-04-20T11:23:07.000Z</time>
      </trkpt>
      <trkpt lat="43.96526" lon="7.36995">
        <ele>1401.5999755859</ele>
        <time>2019-04-20T11:23:10.000Z</time>
      </trkpt>
      <trkpt lat="43.96526" lon="7.37002">
        <ele>1401.1999511719</ele>
        <time>2019-04-20T11:23:11.000Z</time>
      </trkpt>
      <trkpt lat="43.96526" lon="7.37014">
        <ele>1400</ele>
        <time>2019-04-20T11:23:13.000Z</time>
      </trkpt>
      <trkpt lat="43.96527" lon="7.37019">
        <ele>1399.4000244141</ele>
        <time>2019-04-20T11:23:14.000Z</time>
      </trkpt>
      <trkpt lat="43.96529" lon="7.3703">
        <ele>1398.5999755859</ele>
        <time>2019-04-20T11:23:16.000Z</time>
      </trkpt>
      <trkpt lat="43.96533" lon="7.37041">
        <ele>1397.8000488281</ele>
        <time>2019-04-20T11:23:18.000Z</time>
      </trkpt>
      <trkpt lat="43.96534" lon="7.37047">
        <ele>1397.4000244141</ele>
        <time>2019-04-20T11:23:20.000Z</time>
      </trkpt>
      <trkpt lat="43.96535" lon="7.37049">
        <ele>1396.8000488281</ele>
        <time>2019-04-20T11:23:21.000Z</time>
      </trkpt>
      <trkpt lat="43.96535" lon="7.3705">
        <ele>1396.4000244141</ele>
        <time>2019-04-20T11:23:24.000Z</time>
      </trkpt>
      <trkpt lat="43.96536" lon="7.37051">
        <ele>1396.4000244141</ele>
        <time>2019-04-20T11:23:25.000Z</time>
      </trkpt>
      <trkpt lat="43.96536" lon="7.37054">
        <ele>1397.5999755859</ele>
        <time>2019-04-20T11:23:29.000Z</time>
      </trkpt>
      <trkpt lat="43.96537" lon="7.37055">
        <ele>1397.8000488281</ele>
        <time>2019-04-20T11:23:30.000Z</time>
      </trkpt>
      <trkpt lat="43.96535" lon="7.37059">
        <ele>1398</ele>
        <time>2019-04-20T11:23:36.000Z</time>
      </trkpt>
      <trkpt lat="43.96533" lon="7.37059">
        <ele>1397.8000488281</ele>
        <time>2019-04-20T11:23:37.000Z</time>
      </trkpt>
      <trkpt lat="43.9653" lon="7.37062">
        <ele>1397</ele>
        <time>2019-04-20T11:23:40.000Z</time>
      </trkpt>
      <trkpt lat="43.96529" lon="7.37063">
        <ele>1397</ele>
        <time>2019-04-20T11:23:42.000Z</time>
      </trkpt>
      <trkpt lat="43.96528" lon="7.37065">
        <ele>1397</ele>
        <time>2019-04-20T11:23:44.000Z</time>
      </trkpt>
      <trkpt lat="43.96526" lon="7.37065">
        <ele>1397</ele>
        <time>2019-04-20T11:23:46.000Z</time>
      </trkpt>
      <trkpt lat="43.96522" lon="7.37064">
        <ele>1397.1999511719</ele>
        <time>2019-04-20T11:23:48.000Z</time>
      </trkpt>
      <trkpt lat="43.96519" lon="7.37065">
        <ele>1397.4000244141</ele>
        <time>2019-04-20T11:23:53.000Z</time>
      </trkpt>
      <trkpt lat="43.96516" lon="7.37068">
        <ele>1397.5999755859</ele>
        <time>2019-04-20T11:23:58.000Z</time>
      </trkpt>
      <trkpt lat="43.96513" lon="7.37068">
        <ele>1397.8000488281</ele>
        <time>2019-04-20T11:24:03.000Z</time>
      </trkpt>
      <trkpt lat="43.96511" lon="7.37067">
        <ele>1397.5999755859</ele>
        <time>2019-04-20T11:24:04.000Z</time>
      </trkpt>
      <trkpt lat="43.96501" lon="7.37071">
        <ele>1397.8000488281</ele>
        <time>2019-04-20T11:24:09.000Z</time>
      </trkpt>
      <trkpt lat="43.96494" lon="7.37073">
        <ele>1398.1999511719</ele>
        <time>2019-04-20T11:24:13.000Z</time>
      </trkpt>
      <trkpt lat="43.96491" lon="7.37073">
        <ele>1398.5999755859</ele>
        <time>2019-04-20T11:24:18.000Z</time>
      </trkpt>
      <trkpt lat="43.96491" lon="7.37073">
        <ele>1398.5999755859</ele>
        <time>2019-04-20T11:24:19.000Z</time>
      </trkpt>
      <trkpt lat="43.96488" lon="7.37075">
        <ele>1398.4000244141</ele>
        <time>2019-04-20T11:24:24.000Z</time>
      </trkpt>
      <trkpt lat="43.96485" lon="7.37077">
        <ele>1398.4000244141</ele>
        <time>2019-04-20T11:24:27.000Z</time>
      </trkpt>
      <trkpt lat="43.96482" lon="7.37077">
        <ele>1398.4000244141</ele>
        <time>2019-04-20T11:24:31.000Z</time>
      </trkpt>
      <trkpt lat="43.96479" lon="7.37079">
        <ele>1398.5999755859</ele>
        <time>2019-04-20T11:24:37.000Z</time>
      </trkpt>
      <trkpt lat="43.96476" lon="7.37081">
        <ele>1398.4000244141</ele>
        <time>2019-04-20T11:24:41.000Z</time>
      </trkpt>
      <trkpt lat="43.96475" lon="7.37081">
        <ele>1398.4000244141</ele>
        <time>2019-04-20T11:24:42.000Z</time>
      </trkpt>
      <trkpt lat="43.96465" lon="7.37085">
        <ele>1398.1999511719</ele>
        <time>2019-04-20T11:24:46.000Z</time>
      </trkpt>
      <trkpt lat="43.96458" lon="7.37097">
        <ele>1397.8000488281</ele>
        <time>2019-04-20T11:24:50.000Z</time>
      </trkpt>
      <trkpt lat="43.96453" lon="7.37108">
        <ele>1397.4000244141</ele>
        <time>2019-04-20T11:24:53.000Z</time>
      </trkpt>
      <trkpt lat="43.96449" lon="7.37111">
        <ele>1397.1999511719</ele>
        <time>2019-04-20T11:24:54.000Z</time>
      </trkpt>
      <trkpt lat="43.96434" lon="7.37111">
        <ele>1395.8000488281</ele>
        <time>2019-04-20T11:24:57.000Z</time>
      </trkpt>
      <trkpt lat="43.96423" lon="7.37121">
        <ele>1394.5999755859</ele>
        <time>2019-04-20T11:25:00.000Z</time>
      </trkpt>
      <trkpt lat="43.9641" lon="7.37137">
        <ele>1393.8000488281</ele>
        <time>2019-04-20T11:25:04.000Z</time>
      </trkpt>
      <trkpt lat="43.96407" lon="7.3714">
        <ele>1393.8000488281</ele>
        <time>2019-04-20T11:25:05.000Z</time>
      </trkpt>
      <trkpt lat="43.96408" lon="7.37147">
        <ele>1393.4000244141</ele>
        <time>2019-04-20T11:25:06.000Z</time>
      </trkpt>
      <trkpt lat="43.96405" lon="7.37151">
        <ele>1392.8000488281</ele>
        <time>2019-04-20T11:25:07.000Z</time>
      </trkpt>
      <trkpt lat="43.96402" lon="7.37155">
        <ele>1392.4000244141</ele>
        <time>2019-04-20T11:25:08.000Z</time>
      </trkpt>
      <trkpt lat="43.96398" lon="7.37161">
        <ele>1391.1999511719</ele>
        <time>2019-04-20T11:25:10.000Z</time>
      </trkpt>
      <trkpt lat="43.96391" lon="7.3717">
        <ele>1390.1999511719</ele>
        <time>2019-04-20T11:25:13.000Z</time>
      </trkpt>
      <trkpt lat="43.96388" lon="7.37172">
        <ele>1390.1999511719</ele>
        <time>2019-04-20T11:25:14.000Z</time>
      </trkpt>
      <trkpt lat="43.96384" lon="7.37178">
        <ele>1390.1999511719</ele>
        <time>2019-04-20T11:25:16.000Z</time>
      </trkpt>
      <trkpt lat="43.96381" lon="7.37182">
        <ele>1389.8000488281</ele>
        <time>2019-04-20T11:25:20.000Z</time>
      </trkpt>
      <trkpt lat="43.96382" lon="7.37185">
        <ele>1390.5999755859</ele>
        <time>2019-04-20T11:25:25.000Z</time>
      </trkpt>
      <trkpt lat="43.96384" lon="7.37187">
        <ele>1391.1999511719</ele>
        <time>2019-04-20T11:25:28.000Z</time>
      </trkpt>
      <trkpt lat="43.96386" lon="7.3719">
        <ele>1391.4000244141</ele>
        <time>2019-04-20T11:25:32.000Z</time>
      </trkpt>
      <trkpt lat="43.96385" lon="7.37189">
        <ele>1391.4000244141</ele>
        <time>2019-04-20T11:25:34.000Z</time>
      </trkpt>
      <trkpt lat="43.96386" lon="7.37189">
        <ele>1391.8000488281</ele>
        <time>2019-04-20T11:25:37.000Z</time>
      </trkpt>
      <trkpt lat="43.96387" lon="7.37186">
        <ele>1392.4000244141</ele>
        <time>2019-04-20T11:25:40.000Z</time>
      </trkpt>
      <trkpt lat="43.96386" lon="7.37185">
        <ele>1392.4000244141</ele>
        <time>2019-04-20T11:25:41.000Z</time>
      </trkpt>
      <trkpt lat="43.96385" lon="7.37184">
        <ele>1392.8000488281</ele>
        <time>2019-04-20T11:25:43.000Z</time>
      </trkpt>
      <trkpt lat="43.96385" lon="7.37182">
        <ele>1393.1999511719</ele>
        <time>2019-04-20T11:25:45.000Z</time>
      </trkpt>
      <trkpt lat="43.96385" lon="7.37183">
        <ele>1393.4000244141</ele>
        <time>2019-04-20T11:25:46.000Z</time>
      </trkpt>
      <trkpt lat="43.96386" lon="7.37181">
        <ele>1393.8000488281</ele>
        <time>2019-04-20T11:25:48.000Z</time>
      </trkpt>
      <trkpt lat="43.96387" lon="7.3718">
        <ele>1394.5999755859</ele>
        <time>2019-04-20T11:25:52.000Z</time>
      </trkpt>
      <trkpt lat="43.96386" lon="7.37179">
        <ele>1394.8000488281</ele>
        <time>2019-04-20T11:25:53.000Z</time>
      </trkpt>
      <trkpt lat="43.96386" lon="7.37177">
        <ele>1395.1999511719</ele>
        <time>2019-04-20T11:25:55.000Z</time>
      </trkpt>
      <trkpt lat="43.96387" lon="7.37176">
        <ele>1395.8000488281</ele>
        <time>2019-04-20T11:25:57.000Z</time>
      </trkpt>
      <trkpt lat="43.96387" lon="7.37175">
        <ele>1396</ele>
        <time>2019-04-20T11:25:58.000Z</time>
      </trkpt>
      <trkpt lat="43.96386" lon="7.37174">
        <ele>1396.1999511719</ele>
        <time>2019-04-20T11:25:59.000Z</time>
      </trkpt>
      <trkpt lat="43.96386" lon="7.37173">
        <ele>1396.8000488281</ele>
        <time>2019-04-20T11:26:01.000Z</time>
      </trkpt>
      <trkpt lat="43.96385" lon="7.37171">
        <ele>1397.8000488281</ele>
        <time>2019-04-20T11:26:05.000Z</time>
      </trkpt>
      <trkpt lat="43.96385" lon="7.3717">
        <ele>1398</ele>
        <time>2019-04-20T11:26:06.000Z</time>
      </trkpt>
      <trkpt lat="43.96385" lon="7.37171">
        <ele>1398.8000488281</ele>
        <time>2019-04-20T11:26:14.000Z</time>
      </trkpt>
      <trkpt lat="43.96385" lon="7.3717">
        <ele>1399</ele>
        <time>2019-04-20T11:26:15.000Z</time>
      </trkpt>
      <trkpt lat="43.96384" lon="7.37168">
        <ele>1399.8000488281</ele>
        <time>2019-04-20T11:26:20.000Z</time>
      </trkpt>
      <trkpt lat="43.96381" lon="7.37159">
        <ele>1401</ele>
        <time>2019-04-20T11:26:29.000Z</time>
      </trkpt>
      <trkpt lat="43.96379" lon="7.37152">
        <ele>1401.1999511719</ele>
        <time>2019-04-20T11:26:37.000Z</time>
      </trkpt>
      <trkpt lat="43.9638" lon="7.37153">
        <ele>1401.4000244141</ele>
        <time>2019-04-20T11:26:38.000Z</time>
      </trkpt>
      <trkpt lat="43.96377" lon="7.37147">
        <ele>1402</ele>
        <time>2019-04-20T11:26:41.000Z</time>
      </trkpt>
      <trkpt lat="43.96377" lon="7.37145">
        <ele>1402</ele>
        <time>2019-04-20T11:26:43.000Z</time>
      </trkpt>
      <trkpt lat="43.96376" lon="7.37139">
        <ele>1402.1999511719</ele>
        <time>2019-04-20T11:26:49.000Z</time>
      </trkpt>
      <trkpt lat="43.9638" lon="7.37135">
        <ele>1402</ele>
        <time>2019-04-20T11:26:53.000Z</time>
      </trkpt>
      <trkpt lat="43.96376" lon="7.37131">
        <ele>1402</ele>
        <time>2019-04-20T11:26:56.000Z</time>
      </trkpt>
      <trkpt lat="43.96367" lon="7.37121">
        <ele>1403</ele>
        <time>2019-04-20T11:27:02.000Z</time>
      </trkpt>
      <trkpt lat="43.9636" lon="7.37115">
        <ele>1404.1999511719</ele>
        <time>2019-04-20T11:27:06.000Z</time>
      </trkpt>
      <trkpt lat="43.96355" lon="7.3711">
        <ele>1405</ele>
        <time>2019-04-20T11:27:09.000Z</time>
      </trkpt>
      <trkpt lat="43.96353" lon="7.37108">
        <ele>1405.4000244141</ele>
        <time>2019-04-20T11:27:10.000Z</time>
      </trkpt>
      <trkpt lat="43.96349" lon="7.37104">
        <ele>1406.5999755859</ele>
        <time>2019-04-20T11:27:13.000Z</time>
      </trkpt>
      <trkpt lat="43.96347" lon="7.37103">
        <ele>1406.8000488281</ele>
        <time>2019-04-20T11:27:14.000Z</time>
      </trkpt>
      <trkpt lat="43.96341" lon="7.37097">
        <ele>1407.8000488281</ele>
        <time>2019-04-20T11:27:19.000Z</time>
      </trkpt>
      <trkpt lat="43.96337" lon="7.37094">
        <ele>1408.4000244141</ele>
        <time>2019-04-20T11:27:22.000Z</time>
      </trkpt>
      <trkpt lat="43.96336" lon="7.37092">
        <ele>1408.8000488281</ele>
        <time>2019-04-20T11:27:24.000Z</time>
      </trkpt>
      <trkpt lat="43.96331" lon="7.37086">
        <ele>1409.8000488281</ele>
        <time>2019-04-20T11:27:29.000Z</time>
      </trkpt>
      <trkpt lat="43.96329" lon="7.37085">
        <ele>1410</ele>
        <time>2019-04-20T11:27:30.000Z</time>
      </trkpt>
      <trkpt lat="43.96325" lon="7.3708">
        <ele>1411</ele>
        <time>2019-04-20T11:27:34.000Z</time>
      </trkpt>
      <trkpt lat="43.96323" lon="7.37079">
        <ele>1411.1999511719</ele>
        <time>2019-04-20T11:27:35.000Z</time>
      </trkpt>
      <trkpt lat="43.96321" lon="7.37075">
        <ele>1412</ele>
        <time>2019-04-20T11:27:37.000Z</time>
      </trkpt>
      <trkpt lat="43.9632" lon="7.37073">
        <ele>1412.1999511719</ele>
        <time>2019-04-20T11:27:39.000Z</time>
      </trkpt>
      <trkpt lat="43.96318" lon="7.37072">
        <ele>1412.8000488281</ele>
        <time>2019-04-20T11:27:42.000Z</time>
      </trkpt>
      <trkpt lat="43.96318" lon="7.37071">
        <ele>1413.1999511719</ele>
        <time>2019-04-20T11:27:43.000Z</time>
      </trkpt>
      <trkpt lat="43.96317" lon="7.37072">
        <ele>1413.4000244141</ele>
        <time>2019-04-20T11:27:44.000Z</time>
      </trkpt>
      <trkpt lat="43.96316" lon="7.37072">
        <ele>1413.5999755859</ele>
        <time>2019-04-20T11:27:45.000Z</time>
      </trkpt>
      <trkpt lat="43.96313" lon="7.3707">
        <ele>1414</ele>
        <time>2019-04-20T11:27:50.000Z</time>
      </trkpt>
      <trkpt lat="43.96304" lon="7.37065">
        <ele>1414</ele>
        <time>2019-04-20T11:27:56.000Z</time>
      </trkpt>
      <trkpt lat="43.96294" lon="7.37064">
        <ele>1414.1999511719</ele>
        <time>2019-04-20T11:28:05.000Z</time>
      </trkpt>
      <trkpt lat="43.96292" lon="7.37063">
        <ele>1414.1999511719</ele>
        <time>2019-04-20T11:28:06.000Z</time>
      </trkpt>
      <trkpt lat="43.96284" lon="7.37059">
        <ele>1414.8000488281</ele>
        <time>2019-04-20T11:28:12.000Z</time>
      </trkpt>
      <trkpt lat="43.96272" lon="7.37057">
        <ele>1415</ele>
        <time>2019-04-20T11:28:18.000Z</time>
      </trkpt>
      <trkpt lat="43.96262" lon="7.37054">
        <ele>1415.1999511719</ele>
        <time>2019-04-20T11:28:23.000Z</time>
      </trkpt>
      <trkpt lat="43.96252" lon="7.37052">
        <ele>1415.1999511719</ele>
        <time>2019-04-20T11:28:28.000Z</time>
      </trkpt>
      <trkpt lat="43.96248" lon="7.37051">
        <ele>1415.4000244141</ele>
        <time>2019-04-20T11:28:30.000Z</time>
      </trkpt>
      <trkpt lat="43.96237" lon="7.3705">
        <ele>1416.4000244141</ele>
        <time>2019-04-20T11:28:36.000Z</time>
      </trkpt>
      <trkpt lat="43.96235" lon="7.3705">
        <ele>1416.4000244141</ele>
        <time>2019-04-20T11:28:37.000Z</time>
      </trkpt>
      <trkpt lat="43.96226" lon="7.37049">
        <ele>1417.1999511719</ele>
        <time>2019-04-20T11:28:42.000Z</time>
      </trkpt>
      <trkpt lat="43.96223" lon="7.37049">
        <ele>1417.4000244141</ele>
        <time>2019-04-20T11:28:44.000Z</time>
      </trkpt>
      <trkpt lat="43.96214" lon="7.37049">
        <ele>1418</ele>
        <time>2019-04-20T11:28:48.000Z</time>
      </trkpt>
      <trkpt lat="43.96207" lon="7.37049">
        <ele>1418.5999755859</ele>
        <time>2019-04-20T11:28:51.000Z</time>
      </trkpt>
      <trkpt lat="43.96203" lon="7.37049">
        <ele>1418.8000488281</ele>
        <time>2019-04-20T11:28:53.000Z</time>
      </trkpt>
      <trkpt lat="43.96193" lon="7.37046">
        <ele>1419.5999755859</ele>
        <time>2019-04-20T11:28:58.000Z</time>
      </trkpt>
      <trkpt lat="43.96191" lon="7.37047">
        <ele>1419.8000488281</ele>
        <time>2019-04-20T11:28:59.000Z</time>
      </trkpt>
      <trkpt lat="43.96183" lon="7.37045">
        <ele>1420.1999511719</ele>
        <time>2019-04-20T11:29:03.000Z</time>
      </trkpt>
      <trkpt lat="43.9618" lon="7.37045">
        <ele>1420.5999755859</ele>
        <time>2019-04-20T11:29:05.000Z</time>
      </trkpt>
      <trkpt lat="43.96179" lon="7.37044">
        <ele>1420.8000488281</ele>
        <time>2019-04-20T11:29:06.000Z</time>
      </trkpt>
      <trkpt lat="43.96177" lon="7.37043">
        <ele>1421</ele>
        <time>2019-04-20T11:29:07.000Z</time>
      </trkpt>
      <trkpt lat="43.96167" lon="7.37042">
        <ele>1421.5999755859</ele>
        <time>2019-04-20T11:29:12.000Z</time>
      </trkpt>
      <trkpt lat="43.96165" lon="7.37042">
        <ele>1421.8000488281</ele>
        <time>2019-04-20T11:29:13.000Z</time>
      </trkpt>
      <trkpt lat="43.96158" lon="7.37043">
        <ele>1422.4000244141</ele>
        <time>2019-04-20T11:29:17.000Z</time>
      </trkpt>
      <trkpt lat="43.96156" lon="7.37043">
        <ele>1422.8000488281</ele>
        <time>2019-04-20T11:29:19.000Z</time>
      </trkpt>
      <trkpt lat="43.96149" lon="7.37046">
        <ele>1423.1999511719</ele>
        <time>2019-04-20T11:29:24.000Z</time>
      </trkpt>
      <trkpt lat="43.96142" lon="7.37048">
        <ele>1423.5999755859</ele>
        <time>2019-04-20T11:29:29.000Z</time>
      </trkpt>
      <trkpt lat="43.96137" lon="7.3705">
        <ele>1423.8000488281</ele>
        <time>2019-04-20T11:29:32.000Z</time>
      </trkpt>
      <trkpt lat="43.96128" lon="7.37052">
        <ele>1424.4000244141</ele>
        <time>2019-04-20T11:29:37.000Z</time>
      </trkpt>
      <trkpt lat="43.96119" lon="7.37055">
        <ele>1425</ele>
        <time>2019-04-20T11:29:42.000Z</time>
      </trkpt>
      <trkpt lat="43.96106" lon="7.3706">
        <ele>1426</ele>
        <time>2019-04-20T11:29:51.000Z</time>
      </trkpt>
      <trkpt lat="43.96104" lon="7.3706">
        <ele>1426</ele>
        <time>2019-04-20T11:29:52.000Z</time>
      </trkpt>
      <trkpt lat="43.96095" lon="7.37061">
        <ele>1426.4000244141</ele>
        <time>2019-04-20T11:29:56.000Z</time>
      </trkpt>
      <trkpt lat="43.96085" lon="7.37064">
        <ele>1427.1999511719</ele>
        <time>2019-04-20T11:30:02.000Z</time>
      </trkpt>
      <trkpt lat="43.96083" lon="7.37065">
        <ele>1427.4000244141</ele>
        <time>2019-04-20T11:30:03.000Z</time>
      </trkpt>
      <trkpt lat="43.96073" lon="7.37071">
        <ele>1428.1999511719</ele>
        <time>2019-04-20T11:30:09.000Z</time>
      </trkpt>
      <trkpt lat="43.96072" lon="7.37072">
        <ele>1428.4000244141</ele>
        <time>2019-04-20T11:30:10.000Z</time>
      </trkpt>
      <trkpt lat="43.96071" lon="7.37073">
        <ele>1428.8000488281</ele>
        <time>2019-04-20T11:30:11.000Z</time>
      </trkpt>
      <trkpt lat="43.96066" lon="7.37074">
        <ele>1429.4000244141</ele>
        <time>2019-04-20T11:30:14.000Z</time>
      </trkpt>
      <trkpt lat="43.96062" lon="7.37075">
        <ele>1429.5999755859</ele>
        <time>2019-04-20T11:30:16.000Z</time>
      </trkpt>
      <trkpt lat="43.96059" lon="7.37078">
        <ele>1430.1999511719</ele>
        <time>2019-04-20T11:30:19.000Z</time>
      </trkpt>
      <trkpt lat="43.96058" lon="7.37079">
        <ele>1430.4000244141</ele>
        <time>2019-04-20T11:30:21.000Z</time>
      </trkpt>
      <trkpt lat="43.96055" lon="7.37079">
        <ele>1430.5999755859</ele>
        <time>2019-04-20T11:30:22.000Z</time>
      </trkpt>
      <trkpt lat="43.9605" lon="7.37081">
        <ele>1431.1999511719</ele>
        <time>2019-04-20T11:30:25.000Z</time>
      </trkpt>
      <trkpt lat="43.96049" lon="7.37081">
        <ele>1431.5999755859</ele>
        <time>2019-04-20T11:30:26.000Z</time>
      </trkpt>
      <trkpt lat="43.9605" lon="7.37081">
        <ele>1431.5999755859</ele>
        <time>2019-04-20T11:30:27.000Z</time>
      </trkpt>
      <trkpt lat="43.96045" lon="7.37083">
        <ele>1432.1999511719</ele>
        <time>2019-04-20T11:30:30.000Z</time>
      </trkpt>
      <trkpt lat="43.96041" lon="7.37085">
        <ele>1432.5999755859</ele>
        <time>2019-04-20T11:30:32.000Z</time>
      </trkpt>
      <trkpt lat="43.96033" lon="7.37087">
        <ele>1433.5999755859</ele>
        <time>2019-04-20T11:30:37.000Z</time>
      </trkpt>
      <trkpt lat="43.96032" lon="7.37088">
        <ele>1433.8000488281</ele>
        <time>2019-04-20T11:30:38.000Z</time>
      </trkpt>
      <trkpt lat="43.9603" lon="7.37089">
        <ele>1434</ele>
        <time>2019-04-20T11:30:39.000Z</time>
      </trkpt>
      <trkpt lat="43.96025" lon="7.37089">
        <ele>1434.5999755859</ele>
        <time>2019-04-20T11:30:42.000Z</time>
      </trkpt>
      <trkpt lat="43.96023" lon="7.37089">
        <ele>1434.5999755859</ele>
        <time>2019-04-20T11:30:43.000Z</time>
      </trkpt>
      <trkpt lat="43.9602" lon="7.3709">
        <ele>1435</ele>
        <time>2019-04-20T11:30:45.000Z</time>
      </trkpt>
      <trkpt lat="43.96015" lon="7.37091">
        <ele>1435.4000244141</ele>
        <time>2019-04-20T11:30:48.000Z</time>
      </trkpt>
      <trkpt lat="43.96013" lon="7.3709">
        <ele>1435.8000488281</ele>
        <time>2019-04-20T11:30:49.000Z</time>
      </trkpt>
      <trkpt lat="43.96009" lon="7.3709">
        <ele>1436.4000244141</ele>
        <time>2019-04-20T11:30:52.000Z</time>
      </trkpt>
      <trkpt lat="43.96005" lon="7.37092">
        <ele>1437</ele>
        <time>2019-04-20T11:30:55.000Z</time>
      </trkpt>
      <trkpt lat="43.96001" lon="7.37094">
        <ele>1437.5999755859</ele>
        <time>2019-04-20T11:30:59.000Z</time>
      </trkpt>
      <trkpt lat="43.95998" lon="7.37094">
        <ele>1438</ele>
        <time>2019-04-20T11:31:01.000Z</time>
      </trkpt>
      <trkpt lat="43.95994" lon="7.37096">
        <ele>1438.5999755859</ele>
        <time>2019-04-20T11:31:05.000Z</time>
      </trkpt>
      <trkpt lat="43.95991" lon="7.37095">
        <ele>1439</ele>
        <time>2019-04-20T11:31:07.000Z</time>
      </trkpt>
      <trkpt lat="43.95984" lon="7.37096">
        <ele>1439.8000488281</ele>
        <time>2019-04-20T11:31:11.000Z</time>
      </trkpt>
      <trkpt lat="43.9598" lon="7.37097">
        <ele>1440.1999511719</ele>
        <time>2019-04-20T11:31:14.000Z</time>
      </trkpt>
      <trkpt lat="43.95978" lon="7.37097">
        <ele>1440.5999755859</ele>
        <time>2019-04-20T11:31:16.000Z</time>
      </trkpt>
      <trkpt lat="43.95973" lon="7.37098">
        <ele>1441.4000244141</ele>
        <time>2019-04-20T11:31:19.000Z</time>
      </trkpt>
      <trkpt lat="43.95971" lon="7.37098">
        <ele>1441.5999755859</ele>
        <time>2019-04-20T11:31:20.000Z</time>
      </trkpt>
      <trkpt lat="43.95964" lon="7.37098">
        <ele>1442.1999511719</ele>
        <time>2019-04-20T11:31:24.000Z</time>
      </trkpt>
      <trkpt lat="43.95965" lon="7.37098">
        <ele>1442.4000244141</ele>
        <time>2019-04-20T11:31:25.000Z</time>
      </trkpt>
      <trkpt lat="43.95959" lon="7.37098">
        <ele>1442.8000488281</ele>
        <time>2019-04-20T11:31:28.000Z</time>
      </trkpt>
      <trkpt lat="43.95958" lon="7.37097">
        <ele>1443.5999755859</ele>
        <time>2019-04-20T11:31:31.000Z</time>
      </trkpt>
      <trkpt lat="43.95952" lon="7.37097">
        <ele>1444.1999511719</ele>
        <time>2019-04-20T11:31:34.000Z</time>
      </trkpt>
      <trkpt lat="43.95948" lon="7.37096">
        <ele>1444.8000488281</ele>
        <time>2019-04-20T11:31:36.000Z</time>
      </trkpt>
      <trkpt lat="43.95944" lon="7.37097">
        <ele>1445.4000244141</ele>
        <time>2019-04-20T11:31:39.000Z</time>
      </trkpt>
      <trkpt lat="43.95938" lon="7.37098">
        <ele>1446</ele>
        <time>2019-04-20T11:31:43.000Z</time>
      </trkpt>
      <trkpt lat="43.95935" lon="7.37098">
        <ele>1446.1999511719</ele>
        <time>2019-04-20T11:31:45.000Z</time>
      </trkpt>
      <trkpt lat="43.95934" lon="7.37097">
        <ele>1446.4000244141</ele>
        <time>2019-04-20T11:31:47.000Z</time>
      </trkpt>
      <trkpt lat="43.95932" lon="7.37096">
        <ele>1446.8000488281</ele>
        <time>2019-04-20T11:31:49.000Z</time>
      </trkpt>
      <trkpt lat="43.9593" lon="7.37096">
        <ele>1447</ele>
        <time>2019-04-20T11:31:51.000Z</time>
      </trkpt>
      <trkpt lat="43.95924" lon="7.37096">
        <ele>1447.5999755859</ele>
        <time>2019-04-20T11:31:55.000Z</time>
      </trkpt>
      <trkpt lat="43.95916" lon="7.37096">
        <ele>1448</ele>
        <time>2019-04-20T11:32:00.000Z</time>
      </trkpt>
      <trkpt lat="43.95915" lon="7.37097">
        <ele>1448.1999511719</ele>
        <time>2019-04-20T11:32:01.000Z</time>
      </trkpt>
      <trkpt lat="43.95912" lon="7.37097">
        <ele>1448.4000244141</ele>
        <time>2019-04-20T11:32:04.000Z</time>
      </trkpt>
      <trkpt lat="43.95908" lon="7.37096">
        <ele>1448.8000488281</ele>
        <time>2019-04-20T11:32:07.000Z</time>
      </trkpt>
      <trkpt lat="43.95907" lon="7.37096">
        <ele>1449.1999511719</ele>
        <time>2019-04-20T11:32:09.000Z</time>
      </trkpt>
      <trkpt lat="43.95902" lon="7.37097">
        <ele>1449.4000244141</ele>
        <time>2019-04-20T11:32:13.000Z</time>
      </trkpt>
      <trkpt lat="43.95891" lon="7.37098">
        <ele>1450.1999511719</ele>
        <time>2019-04-20T11:32:19.000Z</time>
      </trkpt>
      <trkpt lat="43.95886" lon="7.37098">
        <ele>1450.5999755859</ele>
        <time>2019-04-20T11:32:22.000Z</time>
      </trkpt>
      <trkpt lat="43.95884" lon="7.37097">
        <ele>1450.8000488281</ele>
        <time>2019-04-20T11:32:23.000Z</time>
      </trkpt>
      <trkpt lat="43.95878" lon="7.37097">
        <ele>1451.4000244141</ele>
        <time>2019-04-20T11:32:28.000Z</time>
      </trkpt>
      <trkpt lat="43.95877" lon="7.37096">
        <ele>1451.4000244141</ele>
        <time>2019-04-20T11:32:29.000Z</time>
      </trkpt>
      <trkpt lat="43.95871" lon="7.37096">
        <ele>1451.8000488281</ele>
        <time>2019-04-20T11:32:32.000Z</time>
      </trkpt>
      <trkpt lat="43.95862" lon="7.37095">
        <ele>1452.4000244141</ele>
        <time>2019-04-20T11:32:38.000Z</time>
      </trkpt>
      <trkpt lat="43.95856" lon="7.37095">
        <ele>1453</ele>
        <time>2019-04-20T11:32:43.000Z</time>
      </trkpt>
      <trkpt lat="43.95849" lon="7.37094">
        <ele>1453.4000244141</ele>
        <time>2019-04-20T11:32:47.000Z</time>
      </trkpt>
      <trkpt lat="43.95846" lon="7.37094">
        <ele>1453.5999755859</ele>
        <time>2019-04-20T11:32:49.000Z</time>
      </trkpt>
      <trkpt lat="43.9584" lon="7.37094">
        <ele>1454.4000244141</ele>
        <time>2019-04-20T11:32:54.000Z</time>
      </trkpt>
      <trkpt lat="43.95837" lon="7.37093">
        <ele>1454.5999755859</ele>
        <time>2019-04-20T11:32:55.000Z</time>
      </trkpt>
      <trkpt lat="43.95826" lon="7.3709">
        <ele>1455.1999511719</ele>
        <time>2019-04-20T11:33:00.000Z</time>
      </trkpt>
      <trkpt lat="43.95822" lon="7.37089">
        <ele>1455.5999755859</ele>
        <time>2019-04-20T11:33:02.000Z</time>
      </trkpt>
      <trkpt lat="43.95814" lon="7.37086">
        <ele>1456.5999755859</ele>
        <time>2019-04-20T11:33:07.000Z</time>
      </trkpt>
      <trkpt lat="43.95803" lon="7.37084">
        <ele>1457.4000244141</ele>
        <time>2019-04-20T11:33:13.000Z</time>
      </trkpt>
      <trkpt lat="43.95798" lon="7.37082">
        <ele>1457.8000488281</ele>
        <time>2019-04-20T11:33:16.000Z</time>
      </trkpt>
      <trkpt lat="43.95794" lon="7.37081">
        <ele>1458.4000244141</ele>
        <time>2019-04-20T11:33:18.000Z</time>
      </trkpt>
      <trkpt lat="43.95792" lon="7.37079">
        <ele>1458.8000488281</ele>
        <time>2019-04-20T11:33:21.000Z</time>
      </trkpt>
      <trkpt lat="43.9579" lon="7.37079">
        <ele>1459</ele>
        <time>2019-04-20T11:33:22.000Z</time>
      </trkpt>
      <trkpt lat="43.95782" lon="7.37077">
        <ele>1460</ele>
        <time>2019-04-20T11:33:27.000Z</time>
      </trkpt>
      <trkpt lat="43.95778" lon="7.37075">
        <ele>1460.4000244141</ele>
        <time>2019-04-20T11:33:30.000Z</time>
      </trkpt>
      <trkpt lat="43.95772" lon="7.37073">
        <ele>1461.1999511719</ele>
        <time>2019-04-20T11:33:33.000Z</time>
      </trkpt>
      <trkpt lat="43.95769" lon="7.37072">
        <ele>1461.5999755859</ele>
        <time>2019-04-20T11:33:35.000Z</time>
      </trkpt>
      <trkpt lat="43.95763" lon="7.37071">
        <ele>1462.4000244141</ele>
        <time>2019-04-20T11:33:39.000Z</time>
      </trkpt>
      <trkpt lat="43.95759" lon="7.3707">
        <ele>1462.8000488281</ele>
        <time>2019-04-20T11:33:42.000Z</time>
      </trkpt>
      <trkpt lat="43.95753" lon="7.37066">
        <ele>1463.4000244141</ele>
        <time>2019-04-20T11:33:47.000Z</time>
      </trkpt>
      <trkpt lat="43.95751" lon="7.37065">
        <ele>1463.4000244141</ele>
        <time>2019-04-20T11:33:48.000Z</time>
      </trkpt>
      <trkpt lat="43.95743" lon="7.37059">
        <ele>1464.1999511719</ele>
        <time>2019-04-20T11:33:54.000Z</time>
      </trkpt>
      <trkpt lat="43.95742" lon="7.37058">
        <ele>1464.4000244141</ele>
        <time>2019-04-20T11:33:55.000Z</time>
      </trkpt>
      <trkpt lat="43.95739" lon="7.37053">
        <ele>1465</ele>
        <time>2019-04-20T11:33:59.000Z</time>
      </trkpt>
      <trkpt lat="43.95738" lon="7.37052">
        <ele>1465.1999511719</ele>
        <time>2019-04-20T11:34:00.000Z</time>
      </trkpt>
      <trkpt lat="43.95733" lon="7.37048">
        <ele>1465.4000244141</ele>
        <time>2019-04-20T11:34:05.000Z</time>
      </trkpt>
      <trkpt lat="43.95729" lon="7.37046">
        <ele>1466</ele>
        <time>2019-04-20T11:34:08.000Z</time>
      </trkpt>
      <trkpt lat="43.95722" lon="7.37042">
        <ele>1466.5999755859</ele>
        <time>2019-04-20T11:34:14.000Z</time>
      </trkpt>
      <trkpt lat="43.95715" lon="7.37038">
        <ele>1467.1999511719</ele>
        <time>2019-04-20T11:34:20.000Z</time>
      </trkpt>
      <trkpt lat="43.95709" lon="7.37035">
        <ele>1467.5999755859</ele>
        <time>2019-04-20T11:34:25.000Z</time>
      </trkpt>
      <trkpt lat="43.95707" lon="7.37034">
        <ele>1468</ele>
        <time>2019-04-20T11:34:27.000Z</time>
      </trkpt>
      <trkpt lat="43.95703" lon="7.37031">
        <ele>1468.5999755859</ele>
        <time>2019-04-20T11:34:31.000Z</time>
      </trkpt>
      <trkpt lat="43.95702" lon="7.37031">
        <ele>1468.8000488281</ele>
        <time>2019-04-20T11:34:32.000Z</time>
      </trkpt>
      <trkpt lat="43.95696" lon="7.37029">
        <ele>1469.1999511719</ele>
        <time>2019-04-20T11:34:37.000Z</time>
      </trkpt>
      <trkpt lat="43.9569" lon="7.37026">
        <ele>1470</ele>
        <time>2019-04-20T11:34:42.000Z</time>
      </trkpt>
      <trkpt lat="43.95689" lon="7.37025">
        <ele>1470.1999511719</ele>
        <time>2019-04-20T11:34:43.000Z</time>
      </trkpt>
      <trkpt lat="43.95687" lon="7.37025">
        <ele>1470.5999755859</ele>
        <time>2019-04-20T11:34:45.000Z</time>
      </trkpt>
      <trkpt lat="43.95683" lon="7.37024">
        <ele>1470.8000488281</ele>
        <time>2019-04-20T11:34:48.000Z</time>
      </trkpt>
      <trkpt lat="43.9568" lon="7.37023">
        <ele>1471</ele>
        <time>2019-04-20T11:34:50.000Z</time>
      </trkpt>
      <trkpt lat="43.95676" lon="7.37023">
        <ele>1471.5999755859</ele>
        <time>2019-04-20T11:34:53.000Z</time>
      </trkpt>
      <trkpt lat="43.95672" lon="7.37022">
        <ele>1472.1999511719</ele>
        <time>2019-04-20T11:34:56.000Z</time>
      </trkpt>
      <trkpt lat="43.95666" lon="7.37021">
        <ele>1472.8000488281</ele>
        <time>2019-04-20T11:35:01.000Z</time>
      </trkpt>
      <trkpt lat="43.95663" lon="7.3702">
        <ele>1473.1999511719</ele>
        <time>2019-04-20T11:35:03.000Z</time>
      </trkpt>
      <trkpt lat="43.95658" lon="7.3702">
        <ele>1473.5999755859</ele>
        <time>2019-04-20T11:35:06.000Z</time>
      </trkpt>
      <trkpt lat="43.95657" lon="7.37021">
        <ele>1473.8000488281</ele>
        <time>2019-04-20T11:35:07.000Z</time>
      </trkpt>
      <trkpt lat="43.95651" lon="7.37022">
        <ele>1474.1999511719</ele>
        <time>2019-04-20T11:35:10.000Z</time>
      </trkpt>
      <trkpt lat="43.95648" lon="7.37023">
        <ele>1474.4000244141</ele>
        <time>2019-04-20T11:35:12.000Z</time>
      </trkpt>
      <trkpt lat="43.9564" lon="7.37026">
        <ele>1475</ele>
        <time>2019-04-20T11:35:18.000Z</time>
      </trkpt>
      <trkpt lat="43.95637" lon="7.37027">
        <ele>1475.4000244141</ele>
        <time>2019-04-20T11:35:21.000Z</time>
      </trkpt>
      <trkpt lat="43.95634" lon="7.37028">
        <ele>1475.8000488281</ele>
        <time>2019-04-20T11:35:24.000Z</time>
      </trkpt>
      <trkpt lat="43.95629" lon="7.37027">
        <ele>1476.4000244141</ele>
        <time>2019-04-20T11:35:28.000Z</time>
      </trkpt>
      <trkpt lat="43.95627" lon="7.37027">
        <ele>1476.8000488281</ele>
        <time>2019-04-20T11:35:30.000Z</time>
      </trkpt>
      <trkpt lat="43.95622" lon="7.37026">
        <ele>1477.5999755859</ele>
        <time>2019-04-20T11:35:35.000Z</time>
      </trkpt>
      <trkpt lat="43.95621" lon="7.37026">
        <ele>1477.5999755859</ele>
        <time>2019-04-20T11:35:36.000Z</time>
      </trkpt>
      <trkpt lat="43.95614" lon="7.37024">
        <ele>1478.5999755859</ele>
        <time>2019-04-20T11:35:42.000Z</time>
      </trkpt>
      <trkpt lat="43.95613" lon="7.37023">
        <ele>1478.8000488281</ele>
        <time>2019-04-20T11:35:43.000Z</time>
      </trkpt>
      <trkpt lat="43.95609" lon="7.37022">
        <ele>1479.1999511719</ele>
        <time>2019-04-20T11:35:46.000Z</time>
      </trkpt>
      <trkpt lat="43.95607" lon="7.37022">
        <ele>1479.4000244141</ele>
        <time>2019-04-20T11:35:49.000Z</time>
      </trkpt>
      <trkpt lat="43.95605" lon="7.37021">
        <ele>1479.5999755859</ele>
        <time>2019-04-20T11:35:50.000Z</time>
      </trkpt>
      <trkpt lat="43.956" lon="7.37021">
        <ele>1480</ele>
        <time>2019-04-20T11:35:54.000Z</time>
      </trkpt>
      <trkpt lat="43.95592" lon="7.37021">
        <ele>1480.5999755859</ele>
        <time>2019-04-20T11:36:00.000Z</time>
      </trkpt>
      <trkpt lat="43.9559" lon="7.37021">
        <ele>1480.8000488281</ele>
        <time>2019-04-20T11:36:02.000Z</time>
      </trkpt>
      <trkpt lat="43.95577" lon="7.37022">
        <ele>1481.5999755859</ele>
        <time>2019-04-20T11:36:10.000Z</time>
      </trkpt>
      <trkpt lat="43.95575" lon="7.37022">
        <ele>1481.8000488281</ele>
        <time>2019-04-20T11:36:11.000Z</time>
      </trkpt>
      <trkpt lat="43.9557" lon="7.3702">
        <ele>1482</ele>
        <time>2019-04-20T11:36:14.000Z</time>
      </trkpt>
      <trkpt lat="43.95565" lon="7.37021">
        <ele>1482.1999511719</ele>
        <time>2019-04-20T11:36:16.000Z</time>
      </trkpt>
      <trkpt lat="43.95561" lon="7.37021">
        <ele>1482.1999511719</ele>
        <time>2019-04-20T11:36:18.000Z</time>
      </trkpt>
      <trkpt lat="43.95551" lon="7.37019">
        <ele>1482.5999755859</ele>
        <time>2019-04-20T11:36:23.000Z</time>
      </trkpt>
      <trkpt lat="43.95549" lon="7.37019">
        <ele>1482.8000488281</ele>
        <time>2019-04-20T11:36:24.000Z</time>
      </trkpt>
      <trkpt lat="43.95538" lon="7.37021">
        <ele>1483.8000488281</ele>
        <time>2019-04-20T11:36:30.000Z</time>
      </trkpt>
      <trkpt lat="43.95536" lon="7.37021">
        <ele>1484</ele>
        <time>2019-04-20T11:36:31.000Z</time>
      </trkpt>
      <trkpt lat="43.95523" lon="7.37023">
        <ele>1484.4000244141</ele>
        <time>2019-04-20T11:36:37.000Z</time>
      </trkpt>
      <trkpt lat="43.9551" lon="7.37021">
        <ele>1484.8000488281</ele>
        <time>2019-04-20T11:36:43.000Z</time>
      </trkpt>
      <trkpt lat="43.95505" lon="7.3702">
        <ele>1485.1999511719</ele>
        <time>2019-04-20T11:36:45.000Z</time>
      </trkpt>
      <trkpt lat="43.95498" lon="7.37017">
        <ele>1485.5999755859</ele>
        <time>2019-04-20T11:36:49.000Z</time>
      </trkpt>
      <trkpt lat="43.95491" lon="7.37012">
        <ele>1486.1999511719</ele>
        <time>2019-04-20T11:36:53.000Z</time>
      </trkpt>
      <trkpt lat="43.95488" lon="7.37009">
        <ele>1486.4000244141</ele>
        <time>2019-04-20T11:36:55.000Z</time>
      </trkpt>
      <trkpt lat="43.95478" lon="7.37">
        <ele>1486.8000488281</ele>
        <time>2019-04-20T11:37:01.000Z</time>
      </trkpt>
      <trkpt lat="43.95474" lon="7.36996">
        <ele>1487.1999511719</ele>
        <time>2019-04-20T11:37:04.000Z</time>
      </trkpt>
      <trkpt lat="43.95469" lon="7.36993">
        <ele>1487.5999755859</ele>
        <time>2019-04-20T11:37:06.000Z</time>
      </trkpt>
      <trkpt lat="43.95468" lon="7.36992">
        <ele>1487.8000488281</ele>
        <time>2019-04-20T11:37:07.000Z</time>
      </trkpt>
      <trkpt lat="43.95463" lon="7.36986">
        <ele>1487.8000488281</ele>
        <time>2019-04-20T11:37:13.000Z</time>
      </trkpt>
      <trkpt lat="43.9546" lon="7.36981">
        <ele>1488.4000244141</ele>
        <time>2019-04-20T11:37:18.000Z</time>
      </trkpt>
      <trkpt lat="43.95452" lon="7.36971">
        <ele>1488.1999511719</ele>
        <time>2019-04-20T11:37:24.000Z</time>
      </trkpt>
      <trkpt lat="43.95443" lon="7.36964">
        <ele>1488.8000488281</ele>
        <time>2019-04-20T11:37:30.000Z</time>
      </trkpt>
      <trkpt lat="43.95433" lon="7.36954">
        <ele>1488.8000488281</ele>
        <time>2019-04-20T11:37:37.000Z</time>
      </trkpt>
      <trkpt lat="43.95424" lon="7.36946">
        <ele>1489.4000244141</ele>
        <time>2019-04-20T11:37:44.000Z</time>
      </trkpt>
      <trkpt lat="43.95423" lon="7.36945">
        <ele>1489.4000244141</ele>
        <time>2019-04-20T11:37:45.000Z</time>
      </trkpt>
      <trkpt lat="43.95415" lon="7.36942">
        <ele>1490.1999511719</ele>
        <time>2019-04-20T11:37:51.000Z</time>
      </trkpt>
      <trkpt lat="43.95412" lon="7.36941">
        <ele>1490.5999755859</ele>
        <time>2019-04-20T11:37:53.000Z</time>
      </trkpt>
      <trkpt lat="43.95407" lon="7.36939">
        <ele>1491.5999755859</ele>
        <time>2019-04-20T11:37:57.000Z</time>
      </trkpt>
      <trkpt lat="43.95406" lon="7.36938">
        <ele>1492</ele>
        <time>2019-04-20T11:37:58.000Z</time>
      </trkpt>
      <trkpt lat="43.95405" lon="7.36937">
        <ele>1492.1999511719</ele>
        <time>2019-04-20T11:38:00.000Z</time>
      </trkpt>
      <trkpt lat="43.95405" lon="7.36937">
        <ele>1492.4000244141</ele>
        <time>2019-04-20T11:38:01.000Z</time>
      </trkpt>
      <trkpt lat="43.95403" lon="7.36937">
        <ele>1492.8000488281</ele>
        <time>2019-04-20T11:38:03.000Z</time>
      </trkpt>
      <trkpt lat="43.95395" lon="7.36935">
        <ele>1493.1999511719</ele>
        <time>2019-04-20T11:38:08.000Z</time>
      </trkpt>
      <trkpt lat="43.9539" lon="7.36933">
        <ele>1493.8000488281</ele>
        <time>2019-04-20T11:38:12.000Z</time>
      </trkpt>
      <trkpt lat="43.95389" lon="7.36933">
        <ele>1494</ele>
        <time>2019-04-20T11:38:13.000Z</time>
      </trkpt>
      <trkpt lat="43.95388" lon="7.36933">
        <ele>1494</ele>
        <time>2019-04-20T11:38:14.000Z</time>
      </trkpt>
      <trkpt lat="43.95381" lon="7.36929">
        <ele>1494.5999755859</ele>
        <time>2019-04-20T11:38:20.000Z</time>
      </trkpt>
      <trkpt lat="43.95374" lon="7.36926">
        <ele>1495</ele>
        <time>2019-04-20T11:38:27.000Z</time>
      </trkpt>
      <trkpt lat="43.95372" lon="7.36924">
        <ele>1495</ele>
        <time>2019-04-20T11:38:28.000Z</time>
      </trkpt>
      <trkpt lat="43.95363" lon="7.36919">
        <ele>1495.4000244141</ele>
        <time>2019-04-20T11:38:33.000Z</time>
      </trkpt>
      <trkpt lat="43.95359" lon="7.36915">
        <ele>1496</ele>
        <time>2019-04-20T11:38:37.000Z</time>
      </trkpt>
      <trkpt lat="43.95358" lon="7.36914">
        <ele>1496.4000244141</ele>
        <time>2019-04-20T11:38:39.000Z</time>
      </trkpt>
      <trkpt lat="43.95355" lon="7.36908">
        <ele>1496.8000488281</ele>
        <time>2019-04-20T11:38:46.000Z</time>
      </trkpt>
      <trkpt lat="43.95353" lon="7.36904">
        <ele>1497</ele>
        <time>2019-04-20T11:38:50.000Z</time>
      </trkpt>
      <trkpt lat="43.9535" lon="7.369">
        <ele>1497.4000244141</ele>
        <time>2019-04-20T11:38:54.000Z</time>
      </trkpt>
      <trkpt lat="43.95348" lon="7.36897">
        <ele>1497.8000488281</ele>
        <time>2019-04-20T11:38:59.000Z</time>
      </trkpt>
      <trkpt lat="43.95346" lon="7.36896">
        <ele>1498</ele>
        <time>2019-04-20T11:39:01.000Z</time>
      </trkpt>
      <trkpt lat="43.95342" lon="7.36891">
        <ele>1498.4000244141</ele>
        <time>2019-04-20T11:39:08.000Z</time>
      </trkpt>
      <trkpt lat="43.9534" lon="7.36889">
        <ele>1498.5999755859</ele>
        <time>2019-04-20T11:39:13.000Z</time>
      </trkpt>
      <trkpt lat="43.95337" lon="7.36884">
        <ele>1499.1999511719</ele>
        <time>2019-04-20T11:39:18.000Z</time>
      </trkpt>
      <trkpt lat="43.95336" lon="7.36881">
        <ele>1499</ele>
        <time>2019-04-20T11:39:21.000Z</time>
      </trkpt>
      <trkpt lat="43.95332" lon="7.36874">
        <ele>1499.5999755859</ele>
        <time>2019-04-20T11:39:27.000Z</time>
      </trkpt>
      <trkpt lat="43.95328" lon="7.36867">
        <ele>1500.1999511719</ele>
        <time>2019-04-20T11:39:35.000Z</time>
      </trkpt>
      <trkpt lat="43.95322" lon="7.36859">
        <ele>1500.8000488281</ele>
        <time>2019-04-20T11:39:42.000Z</time>
      </trkpt>
      <trkpt lat="43.95318" lon="7.3685">
        <ele>1501.1999511719</ele>
        <time>2019-04-20T11:39:49.000Z</time>
      </trkpt>
      <trkpt lat="43.95317" lon="7.36849">
        <ele>1501.1999511719</ele>
        <time>2019-04-20T11:39:50.000Z</time>
      </trkpt>
      <trkpt lat="43.95314" lon="7.36844">
        <ele>1501.5999755859</ele>
        <time>2019-04-20T11:39:54.000Z</time>
      </trkpt>
      <trkpt lat="43.95312" lon="7.36842">
        <ele>1501.8000488281</ele>
        <time>2019-04-20T11:39:56.000Z</time>
      </trkpt>
      <trkpt lat="43.9531" lon="7.36839">
        <ele>1502.1999511719</ele>
        <time>2019-04-20T11:39:59.000Z</time>
      </trkpt>
      <trkpt lat="43.95308" lon="7.36836">
        <ele>1502.5999755859</ele>
        <time>2019-04-20T11:40:02.000Z</time>
      </trkpt>
      <trkpt lat="43.95307" lon="7.36834">
        <ele>1503.1999511719</ele>
        <time>2019-04-20T11:40:05.000Z</time>
      </trkpt>
      <trkpt lat="43.95305" lon="7.36832">
        <ele>1503.5999755859</ele>
        <time>2019-04-20T11:40:07.000Z</time>
      </trkpt>
      <trkpt lat="43.95299" lon="7.36824">
        <ele>1504.4000244141</ele>
        <time>2019-04-20T11:40:13.000Z</time>
      </trkpt>
      <trkpt lat="43.95297" lon="7.3682">
        <ele>1504.8000488281</ele>
        <time>2019-04-20T11:40:15.000Z</time>
      </trkpt>
      <trkpt lat="43.95293" lon="7.36815">
        <ele>1505.5999755859</ele>
        <time>2019-04-20T11:40:19.000Z</time>
      </trkpt>
      <trkpt lat="43.95292" lon="7.36813">
        <ele>1505.8000488281</ele>
        <time>2019-04-20T11:40:20.000Z</time>
      </trkpt>
      <trkpt lat="43.95289" lon="7.3681">
        <ele>1506</ele>
        <time>2019-04-20T11:40:22.000Z</time>
      </trkpt>
      <trkpt lat="43.95284" lon="7.36804">
        <ele>1506.4000244141</ele>
        <time>2019-04-20T11:40:25.000Z</time>
      </trkpt>
      <trkpt lat="43.95275" lon="7.36787">
        <ele>1506.1999511719</ele>
        <time>2019-04-20T11:40:30.000Z</time>
      </trkpt>
      <trkpt lat="43.9527" lon="7.36771">
        <ele>1505</ele>
        <time>2019-04-20T11:40:34.000Z</time>
      </trkpt>
      <trkpt lat="43.95268" lon="7.36765">
        <ele>1504.5999755859</ele>
        <time>2019-04-20T11:40:35.000Z</time>
      </trkpt>
      <trkpt lat="43.95267" lon="7.36759">
        <ele>1504.4000244141</ele>
        <time>2019-04-20T11:40:36.000Z</time>
      </trkpt>
      <trkpt lat="43.95264" lon="7.36742">
        <ele>1504.8000488281</ele>
        <time>2019-04-20T11:40:39.000Z</time>
      </trkpt>
      <trkpt lat="43.95259" lon="7.36726">
        <ele>1505.1999511719</ele>
        <time>2019-04-20T11:40:42.000Z</time>
      </trkpt>
      <trkpt lat="43.95257" lon="7.36721">
        <ele>1505.1999511719</ele>
        <time>2019-04-20T11:40:43.000Z</time>
      </trkpt>
      <trkpt lat="43.95249" lon="7.367">
        <ele>1505.4000244141</ele>
        <time>2019-04-20T11:40:47.000Z</time>
      </trkpt>
      <trkpt lat="43.95247" lon="7.36695">
        <ele>1505.4000244141</ele>
        <time>2019-04-20T11:40:48.000Z</time>
      </trkpt>
      <trkpt lat="43.95245" lon="7.36691">
        <ele>1505.5999755859</ele>
        <time>2019-04-20T11:40:49.000Z</time>
      </trkpt>
      <trkpt lat="43.95232" lon="7.36666">
        <ele>1506</ele>
        <time>2019-04-20T11:40:54.000Z</time>
      </trkpt>
      <trkpt lat="43.95229" lon="7.36659">
        <ele>1506.1999511719</ele>
        <time>2019-04-20T11:40:55.000Z</time>
      </trkpt>
      <trkpt lat="43.95227" lon="7.36654">
        <ele>1506.1999511719</ele>
        <time>2019-04-20T11:40:56.000Z</time>
      </trkpt>
      <trkpt lat="43.95223" lon="7.36638">
        <ele>1506.4000244141</ele>
        <time>2019-04-20T11:40:59.000Z</time>
      </trkpt>
      <trkpt lat="43.9522" lon="7.36626">
        <ele>1506.4000244141</ele>
        <time>2019-04-20T11:41:01.000Z</time>
      </trkpt>
      <trkpt lat="43.95219" lon="7.36609">
        <ele>1506.8000488281</ele>
        <time>2019-04-20T11:41:04.000Z</time>
      </trkpt>
      <trkpt lat="43.95219" lon="7.36603">
        <ele>1506.8000488281</ele>
        <time>2019-04-20T11:41:05.000Z</time>
      </trkpt>
      <trkpt lat="43.95218" lon="7.36597">
        <ele>1507</ele>
        <time>2019-04-20T11:41:06.000Z</time>
      </trkpt>
      <trkpt lat="43.95216" lon="7.36575">
        <ele>1507.1999511719</ele>
        <time>2019-04-20T11:41:10.000Z</time>
      </trkpt>
      <trkpt lat="43.95214" lon="7.36568">
        <ele>1507.4000244141</ele>
        <time>2019-04-20T11:41:11.000Z</time>
      </trkpt>
      <trkpt lat="43.95211" lon="7.3655">
        <ele>1507.4000244141</ele>
        <time>2019-04-20T11:41:14.000Z</time>
      </trkpt>
      <trkpt lat="43.95203" lon="7.36529">
        <ele>1507.5999755859</ele>
        <time>2019-04-20T11:41:18.000Z</time>
      </trkpt>
      <trkpt lat="43.95191" lon="7.36516">
        <ele>1507.8000488281</ele>
        <time>2019-04-20T11:41:22.000Z</time>
      </trkpt>
      <trkpt lat="43.95175" lon="7.3652">
        <ele>1507.8000488281</ele>
        <time>2019-04-20T11:41:26.000Z</time>
      </trkpt>
      <trkpt lat="43.95164" lon="7.36527">
        <ele>1507.5999755859</ele>
        <time>2019-04-20T11:41:29.000Z</time>
      </trkpt>
      <trkpt lat="43.95161" lon="7.36527">
        <ele>1507.5999755859</ele>
        <time>2019-04-20T11:41:30.000Z</time>
      </trkpt>
      <trkpt lat="43.95158" lon="7.3653">
        <ele>1507.5999755859</ele>
        <time>2019-04-20T11:41:32.000Z</time>
      </trkpt>
      <trkpt lat="43.95154" lon="7.36534">
        <ele>1507.5999755859</ele>
        <time>2019-04-20T11:41:34.000Z</time>
      </trkpt>
      <trkpt lat="43.9514" lon="7.36556">
        <ele>1506.4000244141</ele>
        <time>2019-04-20T11:41:40.000Z</time>
      </trkpt>
      <trkpt lat="43.95123" lon="7.36586">
        <ele>1506</ele>
        <time>2019-04-20T11:41:48.000Z</time>
      </trkpt>
      <trkpt lat="43.95121" lon="7.3659">
        <ele>1506.8000488281</ele>
        <time>2019-04-20T11:41:52.000Z</time>
      </trkpt>
      <trkpt lat="43.9512" lon="7.36591">
        <ele>1506.5999755859</ele>
        <time>2019-04-20T11:42:01.000Z</time>
      </trkpt>
      <trkpt lat="43.9512" lon="7.36591">
        <ele>1506.5999755859</ele>
        <time>2019-04-20T11:42:13.000Z</time>
      </trkpt>
      <trkpt lat="43.9512" lon="7.36591">
        <ele>1507.4000244141</ele>
        <time>2019-04-20T11:42:22.000Z</time>
      </trkpt>
      <trkpt lat="43.9512" lon="7.36591">
        <ele>1507.5999755859</ele>
        <time>2019-04-20T11:42:27.000Z</time>
      </trkpt>
      <trkpt lat="43.9512" lon="7.3659">
        <ele>1508.4000244141</ele>
        <time>2019-04-20T11:42:41.000Z</time>
      </trkpt>
      <trkpt lat="43.9512" lon="7.3659">
        <ele>1508.5999755859</ele>
        <time>2019-04-20T11:42:46.000Z</time>
      </trkpt>
      <trkpt lat="43.9512" lon="7.3659">
        <ele>1508.5999755859</ele>
        <time>2019-04-20T11:43:06.000Z</time>
      </trkpt>
      <trkpt lat="43.9512" lon="7.3659">
        <ele>1509</ele>
        <time>2019-04-20T11:43:16.000Z</time>
      </trkpt>
      <trkpt lat="43.95118" lon="7.36587">
        <ele>1509</ele>
        <time>2019-04-20T11:43:18.000Z</time>
      </trkpt>
      <trkpt lat="43.95118" lon="7.36587">
        <ele>1509</ele>
        <time>2019-04-20T11:43:20.000Z</time>
      </trkpt>
      <trkpt lat="43.95118" lon="7.36588">
        <ele>1508.1999511719</ele>
        <time>2019-04-20T11:43:25.000Z</time>
      </trkpt>
      <trkpt lat="43.95114" lon="7.36589">
        <ele>1509</ele>
        <time>2019-04-20T11:43:32.000Z</time>
      </trkpt>
      <trkpt lat="43.95112" lon="7.3659">
        <ele>1508.8000488281</ele>
        <time>2019-04-20T11:43:39.000Z</time>
      </trkpt>
      <trkpt lat="43.95112" lon="7.3659">
        <ele>1508.5999755859</ele>
        <time>2019-04-20T11:43:52.000Z</time>
      </trkpt>
      <trkpt lat="43.95113" lon="7.3659">
        <ele>1508</ele>
        <time>2019-04-20T11:44:09.000Z</time>
      </trkpt>
      <trkpt lat="43.95113" lon="7.36591">
        <ele>1507.5999755859</ele>
        <time>2019-04-20T11:44:28.000Z</time>
      </trkpt>
      <trkpt lat="43.95113" lon="7.36591">
        <ele>1507.8000488281</ele>
        <time>2019-04-20T11:44:46.000Z</time>
      </trkpt>
      <trkpt lat="43.95113" lon="7.36591">
        <ele>1508</ele>
        <time>2019-04-20T11:45:02.000Z</time>
      </trkpt>
      <trkpt lat="43.95115" lon="7.36591">
        <ele>1508.1999511719</ele>
        <time>2019-04-20T11:45:26.000Z</time>
      </trkpt>
      <trkpt lat="43.95115" lon="7.36591">
        <ele>1507.4000244141</ele>
        <time>2019-04-20T11:45:41.000Z</time>
      </trkpt>
      <trkpt lat="43.95115" lon="7.36591">
        <ele>1507.5999755859</ele>
        <time>2019-04-20T11:45:46.000Z</time>
      </trkpt>
      <trkpt lat="43.95116" lon="7.36591">
        <ele>1506.4000244141</ele>
        <time>2019-04-20T11:45:56.000Z</time>
      </trkpt>
      <trkpt lat="43.95116" lon="7.36591">
        <ele>1506</ele>
        <time>2019-04-20T11:46:03.000Z</time>
      </trkpt>
      <trkpt lat="43.95117" lon="7.36592">
        <ele>1506.4000244141</ele>
        <time>2019-04-20T11:46:23.000Z</time>
      </trkpt>
      <trkpt lat="43.95117" lon="7.36592">
        <ele>1506.1999511719</ele>
        <time>2019-04-20T11:46:48.000Z</time>
      </trkpt>
      <trkpt lat="43.95117" lon="7.36592">
        <ele>1505.8000488281</ele>
        <time>2019-04-20T11:47:00.000Z</time>
      </trkpt>
      <trkpt lat="43.95117" lon="7.36592">
        <ele>1505.8000488281</ele>
        <time>2019-04-20T11:47:17.000Z</time>
      </trkpt>
      <trkpt lat="43.95117" lon="7.36592">
        <ele>1505.8000488281</ele>
        <time>2019-04-20T11:47:36.000Z</time>
      </trkpt>
      <trkpt lat="43.95117" lon="7.36593">
        <ele>1507</ele>
        <time>2019-04-20T11:47:59.000Z</time>
      </trkpt>
      <trkpt lat="43.95117" lon="7.36593">
        <ele>1507.1999511719</ele>
        <time>2019-04-20T11:48:17.000Z</time>
      </trkpt>
      <trkpt lat="43.95117" lon="7.36593">
        <ele>1507.4000244141</ele>
        <time>2019-04-20T11:48:18.000Z</time>
      </trkpt>
      <trkpt lat="43.95117" lon="7.36593">
        <ele>1507.5999755859</ele>
        <time>2019-04-20T11:48:38.000Z</time>
      </trkpt>
      <trkpt lat="43.95117" lon="7.36593">
        <ele>1507.5999755859</ele>
        <time>2019-04-20T11:48:47.000Z</time>
      </trkpt>
      <trkpt lat="43.95117" lon="7.36592">
        <ele>1507.4000244141</ele>
        <time>2019-04-20T11:49:10.000Z</time>
      </trkpt>
      <trkpt lat="43.95116" lon="7.36592">
        <ele>1507.1999511719</ele>
        <time>2019-04-20T11:49:30.000Z</time>
      </trkpt>
      <trkpt lat="43.95116" lon="7.36593">
        <ele>1507.1999511719</ele>
        <time>2019-04-20T11:49:36.000Z</time>
      </trkpt>
      <trkpt lat="43.95113" lon="7.36599">
        <ele>1507.1999511719</ele>
        <time>2019-04-20T11:49:41.000Z</time>
      </trkpt>
      <trkpt lat="43.95101" lon="7.36612">
        <ele>1506.1999511719</ele>
        <time>2019-04-20T11:49:47.000Z</time>
      </trkpt>
      <trkpt lat="43.9508" lon="7.36625">
        <ele>1506.1999511719</ele>
        <time>2019-04-20T11:49:54.000Z</time>
      </trkpt>
      <trkpt lat="43.95059" lon="7.36631">
        <ele>1506.5999755859</ele>
        <time>2019-04-20T11:50:00.000Z</time>
      </trkpt>
      <trkpt lat="43.9504" lon="7.36637">
        <ele>1506.4000244141</ele>
        <time>2019-04-20T11:50:05.000Z</time>
      </trkpt>
      <trkpt lat="43.95017" lon="7.36644">
        <ele>1506.4000244141</ele>
        <time>2019-04-20T11:50:11.000Z</time>
      </trkpt>
      <trkpt lat="43.95012" lon="7.36643">
        <ele>1506.4000244141</ele>
        <time>2019-04-20T11:50:12.000Z</time>
      </trkpt>
      <trkpt lat="43.95" lon="7.36647">
        <ele>1506.1999511719</ele>
        <time>2019-04-20T11:50:15.000Z</time>
      </trkpt>
      <trkpt lat="43.94996" lon="7.36649">
        <ele>1506.1999511719</ele>
        <time>2019-04-20T11:50:16.000Z</time>
      </trkpt>
      <trkpt lat="43.94978" lon="7.36653">
        <ele>1506.1999511719</ele>
        <time>2019-04-20T11:50:20.000Z</time>
      </trkpt>
      <trkpt lat="43.94973" lon="7.36652">
        <ele>1506.1999511719</ele>
        <time>2019-04-20T11:50:21.000Z</time>
      </trkpt>
      <trkpt lat="43.94961" lon="7.3665">
        <ele>1506.1999511719</ele>
        <time>2019-04-20T11:50:24.000Z</time>
      </trkpt>
      <trkpt lat="43.94953" lon="7.36649">
        <ele>1506.1999511719</ele>
        <time>2019-04-20T11:50:26.000Z</time>
      </trkpt>
      <trkpt lat="43.94937" lon="7.36649">
        <ele>1505.5999755859</ele>
        <time>2019-04-20T11:50:30.000Z</time>
      </trkpt>
      <trkpt lat="43.9493" lon="7.36651">
        <ele>1505.5999755859</ele>
        <time>2019-04-20T11:50:32.000Z</time>
      </trkpt>
      <trkpt lat="43.94914" lon="7.36653">
        <ele>1505.5999755859</ele>
        <time>2019-04-20T11:50:36.000Z</time>
      </trkpt>
      <trkpt lat="43.94909" lon="7.36654">
        <ele>1505.5999755859</ele>
        <time>2019-04-20T11:50:37.000Z</time>
      </trkpt>
      <trkpt lat="43.94901" lon="7.36654">
        <ele>1505.4000244141</ele>
        <time>2019-04-20T11:50:39.000Z</time>
      </trkpt>
      <trkpt lat="43.94892" lon="7.36651">
        <ele>1505.4000244141</ele>
        <time>2019-04-20T11:50:41.000Z</time>
      </trkpt>
      <trkpt lat="43.94883" lon="7.36648">
        <ele>1505.1999511719</ele>
        <time>2019-04-20T11:50:43.000Z</time>
      </trkpt>
      <trkpt lat="43.94879" lon="7.36649">
        <ele>1505.1999511719</ele>
        <time>2019-04-20T11:50:44.000Z</time>
      </trkpt>
      <trkpt lat="43.9487" lon="7.3665">
        <ele>1505.1999511719</ele>
        <time>2019-04-20T11:50:46.000Z</time>
      </trkpt>
      <trkpt lat="43.94865" lon="7.3665">
        <ele>1505.1999511719</ele>
        <time>2019-04-20T11:50:47.000Z</time>
      </trkpt>
      <trkpt lat="43.94855" lon="7.3665">
        <ele>1505.1999511719</ele>
        <time>2019-04-20T11:50:49.000Z</time>
      </trkpt>
      <trkpt lat="43.94849" lon="7.36647">
        <ele>1505.1999511719</ele>
        <time>2019-04-20T11:50:50.000Z</time>
      </trkpt>
      <trkpt lat="43.94839" lon="7.36647">
        <ele>1504.8000488281</ele>
        <time>2019-04-20T11:50:52.000Z</time>
      </trkpt>
      <trkpt lat="43.94831" lon="7.36649">
        <ele>1504.5999755859</ele>
        <time>2019-04-20T11:50:54.000Z</time>
      </trkpt>
      <trkpt lat="43.94827" lon="7.36649">
        <ele>1504.5999755859</ele>
        <time>2019-04-20T11:50:55.000Z</time>
      </trkpt>
      <trkpt lat="43.94818" lon="7.36652">
        <ele>1504.5999755859</ele>
        <time>2019-04-20T11:50:57.000Z</time>
      </trkpt>
      <trkpt lat="43.94804" lon="7.36655">
        <ele>1505</ele>
        <time>2019-04-20T11:51:00.000Z</time>
      </trkpt>
      <trkpt lat="43.9479" lon="7.36654">
        <ele>1505</ele>
        <time>2019-04-20T11:51:03.000Z</time>
      </trkpt>
      <trkpt lat="43.9478" lon="7.36654">
        <ele>1505</ele>
        <time>2019-04-20T11:51:05.000Z</time>
      </trkpt>
      <trkpt lat="43.94771" lon="7.36655">
        <ele>1504.8000488281</ele>
        <time>2019-04-20T11:51:07.000Z</time>
      </trkpt>
      <trkpt lat="43.94761" lon="7.36655">
        <ele>1504.5999755859</ele>
        <time>2019-04-20T11:51:09.000Z</time>
      </trkpt>
      <trkpt lat="43.94756" lon="7.36656">
        <ele>1504.5999755859</ele>
        <time>2019-04-20T11:51:10.000Z</time>
      </trkpt>
      <trkpt lat="43.94752" lon="7.36654">
        <ele>1504.5999755859</ele>
        <time>2019-04-20T11:51:11.000Z</time>
      </trkpt>
      <trkpt lat="43.94738" lon="7.36655">
        <ele>1504.4000244141</ele>
        <time>2019-04-20T11:51:14.000Z</time>
      </trkpt>
      <trkpt lat="43.94733" lon="7.36655">
        <ele>1504.4000244141</ele>
        <time>2019-04-20T11:51:15.000Z</time>
      </trkpt>
      <trkpt lat="43.94728" lon="7.36656">
        <ele>1504.4000244141</ele>
        <time>2019-04-20T11:51:16.000Z</time>
      </trkpt>
      <trkpt lat="43.94719" lon="7.36657">
        <ele>1504.4000244141</ele>
        <time>2019-04-20T11:51:18.000Z</time>
      </trkpt>
      <trkpt lat="43.94704" lon="7.36656">
        <ele>1504.1999511719</ele>
        <time>2019-04-20T11:51:21.000Z</time>
      </trkpt>
      <trkpt lat="43.947" lon="7.36655">
        <ele>1504.1999511719</ele>
        <time>2019-04-20T11:51:22.000Z</time>
      </trkpt>
      <trkpt lat="43.94695" lon="7.36654">
        <ele>1504</ele>
        <time>2019-04-20T11:51:23.000Z</time>
      </trkpt>
      <trkpt lat="43.9468" lon="7.36652">
        <ele>1503.8000488281</ele>
        <time>2019-04-20T11:51:26.000Z</time>
      </trkpt>
      <trkpt lat="43.94675" lon="7.3665">
        <ele>1503.8000488281</ele>
        <time>2019-04-20T11:51:27.000Z</time>
      </trkpt>
      <trkpt lat="43.94649" lon="7.36642">
        <ele>1503</ele>
        <time>2019-04-20T11:51:32.000Z</time>
      </trkpt>
      <trkpt lat="43.94632" lon="7.36636">
        <ele>1502.4000244141</ele>
        <time>2019-04-20T11:51:35.000Z</time>
      </trkpt>
      <trkpt lat="43.9462" lon="7.36631">
        <ele>1502</ele>
        <time>2019-04-20T11:51:37.000Z</time>
      </trkpt>
      <trkpt lat="43.94595" lon="7.36619">
        <ele>1500.5999755859</ele>
        <time>2019-04-20T11:51:41.000Z</time>
      </trkpt>
      <trkpt lat="43.94587" lon="7.36614">
        <ele>1500.4000244141</ele>
        <time>2019-04-20T11:51:42.000Z</time>
      </trkpt>
      <trkpt lat="43.94556" lon="7.36595">
        <ele>1499.4000244141</ele>
        <time>2019-04-20T11:51:46.000Z</time>
      </trkpt>
      <trkpt lat="43.94537" lon="7.36594">
        <ele>1498.5999755859</ele>
        <time>2019-04-20T11:51:49.000Z</time>
      </trkpt>
      <trkpt lat="43.94529" lon="7.36591">
        <ele>1498.5999755859</ele>
        <time>2019-04-20T11:51:50.000Z</time>
      </trkpt>
      <trkpt lat="43.94513" lon="7.36586">
        <ele>1498.4000244141</ele>
        <time>2019-04-20T11:51:52.000Z</time>
      </trkpt>
      <trkpt lat="43.94504" lon="7.36581">
        <ele>1498.4000244141</ele>
        <time>2019-04-20T11:51:53.000Z</time>
      </trkpt>
      <trkpt lat="43.94479" lon="7.36569">
        <ele>1498</ele>
        <time>2019-04-20T11:51:56.000Z</time>
      </trkpt>
      <trkpt lat="43.94459" lon="7.36558">
        <ele>1496.8000488281</ele>
        <time>2019-04-20T11:51:58.000Z</time>
      </trkpt>
      <trkpt lat="43.9445" lon="7.36552">
        <ele>1496</ele>
        <time>2019-04-20T11:51:59.000Z</time>
      </trkpt>
      <trkpt lat="43.9444" lon="7.36547">
        <ele>1495.4000244141</ele>
        <time>2019-04-20T11:52:00.000Z</time>
      </trkpt>
      <trkpt lat="43.94432" lon="7.36545">
        <ele>1494.5999755859</ele>
        <time>2019-04-20T11:52:01.000Z</time>
      </trkpt>
      <trkpt lat="43.94422" lon="7.36541">
        <ele>1493.8000488281</ele>
        <time>2019-04-20T11:52:02.000Z</time>
      </trkpt>
      <trkpt lat="43.94403" lon="7.36536">
        <ele>1492.5999755859</ele>
        <time>2019-04-20T11:52:04.000Z</time>
      </trkpt>
      <trkpt lat="43.94384" lon="7.36534">
        <ele>1491</ele>
        <time>2019-04-20T11:52:06.000Z</time>
      </trkpt>
      <trkpt lat="43.94375" lon="7.36539">
        <ele>1490.4000244141</ele>
        <time>2019-04-20T11:52:07.000Z</time>
      </trkpt>
      <trkpt lat="43.94366" lon="7.36539">
        <ele>1489.5999755859</ele>
        <time>2019-04-20T11:52:08.000Z</time>
      </trkpt>
      <trkpt lat="43.94303" lon="7.36602">
        <ele>1484.1999511719</ele>
        <time>2019-04-20T11:52:16.000Z</time>
      </trkpt>
      <trkpt lat="43.9427" lon="7.36645">
        <ele>1482.5999755859</ele>
        <time>2019-04-20T11:52:20.000Z</time>
      </trkpt>
      <trkpt lat="43.9426" lon="7.36648">
        <ele>1482</ele>
        <time>2019-04-20T11:52:21.000Z</time>
      </trkpt>
      <trkpt lat="43.94233" lon="7.36671">
        <ele>1480</ele>
        <time>2019-04-20T11:52:24.000Z</time>
      </trkpt>
      <trkpt lat="43.94211" lon="7.3667">
        <ele>1478.8000488281</ele>
        <time>2019-04-20T11:52:26.000Z</time>
      </trkpt>
      <trkpt lat="43.942" lon="7.36668">
        <ele>1477.8000488281</ele>
        <time>2019-04-20T11:52:27.000Z</time>
      </trkpt>
      <trkpt lat="43.94183" lon="7.36663">
        <ele>1476.5999755859</ele>
        <time>2019-04-20T11:52:29.000Z</time>
      </trkpt>
      <trkpt lat="43.94172" lon="7.36653">
        <ele>1477</ele>
        <time>2019-04-20T11:52:30.000Z</time>
      </trkpt>
      <trkpt lat="43.94127" lon="7.36621">
        <ele>1474.4000244141</ele>
        <time>2019-04-20T11:52:35.000Z</time>
      </trkpt>
      <trkpt lat="43.94117" lon="7.36616">
        <ele>1473</ele>
        <time>2019-04-20T11:52:36.000Z</time>
      </trkpt>
      <trkpt lat="43.94107" lon="7.36612">
        <ele>1471.4000244141</ele>
        <time>2019-04-20T11:52:37.000Z</time>
      </trkpt>
      <trkpt lat="43.94085" lon="7.36601">
        <ele>1470.1999511719</ele>
        <time>2019-04-20T11:52:39.000Z</time>
      </trkpt>
      <trkpt lat="43.94064" lon="7.36598">
        <ele>1468.8000488281</ele>
        <time>2019-04-20T11:52:41.000Z</time>
      </trkpt>
      <trkpt lat="43.94052" lon="7.36596">
        <ele>1467.5999755859</ele>
        <time>2019-04-20T11:52:42.000Z</time>
      </trkpt>
      <trkpt lat="43.94041" lon="7.36595">
        <ele>1465.8000488281</ele>
        <time>2019-04-20T11:52:43.000Z</time>
      </trkpt>
      <trkpt lat="43.9403" lon="7.36593">
        <ele>1464</ele>
        <time>2019-04-20T11:52:44.000Z</time>
      </trkpt>
      <trkpt lat="43.93998" lon="7.3658">
        <ele>1460.5999755859</ele>
        <time>2019-04-20T11:52:47.000Z</time>
      </trkpt>
      <trkpt lat="43.93988" lon="7.36572">
        <ele>1460.4000244141</ele>
        <time>2019-04-20T11:52:48.000Z</time>
      </trkpt>
      <trkpt lat="43.93978" lon="7.36566">
        <ele>1460</ele>
        <time>2019-04-20T11:52:49.000Z</time>
      </trkpt>
      <trkpt lat="43.93958" lon="7.36553">
        <ele>1458.1999511719</ele>
        <time>2019-04-20T11:52:51.000Z</time>
      </trkpt>
      <trkpt lat="43.93948" lon="7.36548">
        <ele>1457</ele>
        <time>2019-04-20T11:52:52.000Z</time>
      </trkpt>
      <trkpt lat="43.93928" lon="7.36537">
        <ele>1455.1999511719</ele>
        <time>2019-04-20T11:52:54.000Z</time>
      </trkpt>
      <trkpt lat="43.93918" lon="7.36529">
        <ele>1454.5999755859</ele>
        <time>2019-04-20T11:52:55.000Z</time>
      </trkpt>
      <trkpt lat="43.939" lon="7.36511">
        <ele>1454</ele>
        <time>2019-04-20T11:52:57.000Z</time>
      </trkpt>
      <trkpt lat="43.93892" lon="7.36503">
        <ele>1453.4000244141</ele>
        <time>2019-04-20T11:52:58.000Z</time>
      </trkpt>
      <trkpt lat="43.93878" lon="7.36482">
        <ele>1452.5999755859</ele>
        <time>2019-04-20T11:53:00.000Z</time>
      </trkpt>
      <trkpt lat="43.93866" lon="7.36457">
        <ele>1451.5999755859</ele>
        <time>2019-04-20T11:53:02.000Z</time>
      </trkpt>
      <trkpt lat="43.93856" lon="7.36431">
        <ele>1450.4000244141</ele>
        <time>2019-04-20T11:53:04.000Z</time>
      </trkpt>
      <trkpt lat="43.93846" lon="7.36403">
        <ele>1448.8000488281</ele>
        <time>2019-04-20T11:53:06.000Z</time>
      </trkpt>
      <trkpt lat="43.93836" lon="7.36377">
        <ele>1447</ele>
        <time>2019-04-20T11:53:08.000Z</time>
      </trkpt>
      <trkpt lat="43.93831" lon="7.36366">
        <ele>1445.8000488281</ele>
        <time>2019-04-20T11:53:09.000Z</time>
      </trkpt>
      <trkpt lat="43.93823" lon="7.36356">
        <ele>1445.1999511719</ele>
        <time>2019-04-20T11:53:10.000Z</time>
      </trkpt>
      <trkpt lat="43.93815" lon="7.36349">
        <ele>1444.5999755859</ele>
        <time>2019-04-20T11:53:11.000Z</time>
      </trkpt>
      <trkpt lat="43.93805" lon="7.36345">
        <ele>1444.1999511719</ele>
        <time>2019-04-20T11:53:12.000Z</time>
      </trkpt>
      <trkpt lat="43.93779" lon="7.36342">
        <ele>1444.1999511719</ele>
        <time>2019-04-20T11:53:15.000Z</time>
      </trkpt>
      <trkpt lat="43.93756" lon="7.36353">
        <ele>1445.4000244141</ele>
        <time>2019-04-20T11:53:18.000Z</time>
      </trkpt>
      <trkpt lat="43.93749" lon="7.36358">
        <ele>1445.5999755859</ele>
        <time>2019-04-20T11:53:19.000Z</time>
      </trkpt>
      <trkpt lat="43.9372" lon="7.36378">
        <ele>1445.1999511719</ele>
        <time>2019-04-20T11:53:23.000Z</time>
      </trkpt>
      <trkpt lat="43.93712" lon="7.3638">
        <ele>1445.5999755859</ele>
        <time>2019-04-20T11:53:24.000Z</time>
      </trkpt>
      <trkpt lat="43.93697" lon="7.36389">
        <ele>1445.4000244141</ele>
        <time>2019-04-20T11:53:26.000Z</time>
      </trkpt>
      <trkpt lat="43.93681" lon="7.36399">
        <ele>1444.4000244141</ele>
        <time>2019-04-20T11:53:28.000Z</time>
      </trkpt>
      <trkpt lat="43.93674" lon="7.36404">
        <ele>1443.4000244141</ele>
        <time>2019-04-20T11:53:29.000Z</time>
      </trkpt>
      <trkpt lat="43.93665" lon="7.36408">
        <ele>1442.8000488281</ele>
        <time>2019-04-20T11:53:30.000Z</time>
      </trkpt>
      <trkpt lat="43.93647" lon="7.36408">
        <ele>1442</ele>
        <time>2019-04-20T11:53:32.000Z</time>
      </trkpt>
      <trkpt lat="43.93639" lon="7.36408">
        <ele>1441.4000244141</ele>
        <time>2019-04-20T11:53:33.000Z</time>
      </trkpt>
      <trkpt lat="43.93621" lon="7.36407">
        <ele>1440</ele>
        <time>2019-04-20T11:53:35.000Z</time>
      </trkpt>
      <trkpt lat="43.9361" lon="7.36409">
        <ele>1439.5999755859</ele>
        <time>2019-04-20T11:53:36.000Z</time>
      </trkpt>
      <trkpt lat="43.9359" lon="7.36413">
        <ele>1438.5999755859</ele>
        <time>2019-04-20T11:53:38.000Z</time>
      </trkpt>
      <trkpt lat="43.93582" lon="7.36415">
        <ele>1438.1999511719</ele>
        <time>2019-04-20T11:53:39.000Z</time>
      </trkpt>
      <trkpt lat="43.93563" lon="7.36419">
        <ele>1437</ele>
        <time>2019-04-20T11:53:41.000Z</time>
      </trkpt>
      <trkpt lat="43.93543" lon="7.36422">
        <ele>1435.4000244141</ele>
        <time>2019-04-20T11:53:43.000Z</time>
      </trkpt>
      <trkpt lat="43.93518" lon="7.36423">
        <ele>1433.4000244141</ele>
        <time>2019-04-20T11:53:46.000Z</time>
      </trkpt>
      <trkpt lat="43.93503" lon="7.36421">
        <ele>1432.4000244141</ele>
        <time>2019-04-20T11:53:48.000Z</time>
      </trkpt>
      <trkpt lat="43.9349" lon="7.36416">
        <ele>1432.1999511719</ele>
        <time>2019-04-20T11:53:50.000Z</time>
      </trkpt>
      <trkpt lat="43.93484" lon="7.36413">
        <ele>1432.1999511719</ele>
        <time>2019-04-20T11:53:51.000Z</time>
      </trkpt>
      <trkpt lat="43.93469" lon="7.36404">
        <ele>1433.4000244141</ele>
        <time>2019-04-20T11:53:54.000Z</time>
      </trkpt>
      <trkpt lat="43.93463" lon="7.36401">
        <ele>1433.8000488281</ele>
        <time>2019-04-20T11:53:55.000Z</time>
      </trkpt>
      <trkpt lat="43.93454" lon="7.36394">
        <ele>1434.5999755859</ele>
        <time>2019-04-20T11:53:57.000Z</time>
      </trkpt>
      <trkpt lat="43.93437" lon="7.36382">
        <ele>1435.4000244141</ele>
        <time>2019-04-20T11:54:01.000Z</time>
      </trkpt>
      <trkpt lat="43.93434" lon="7.36378">
        <ele>1435.5999755859</ele>
        <time>2019-04-20T11:54:02.000Z</time>
      </trkpt>
      <trkpt lat="43.93426" lon="7.36365">
        <ele>1435.5999755859</ele>
        <time>2019-04-20T11:54:05.000Z</time>
      </trkpt>
      <trkpt lat="43.93419" lon="7.36346">
        <ele>1436.1999511719</ele>
        <time>2019-04-20T11:54:09.000Z</time>
      </trkpt>
      <trkpt lat="43.93417" lon="7.3634">
        <ele>1436.1999511719</ele>
        <time>2019-04-20T11:54:10.000Z</time>
      </trkpt>
      <trkpt lat="43.93402" lon="7.36311">
        <ele>1436.1999511719</ele>
        <time>2019-04-20T11:54:16.000Z</time>
      </trkpt>
      <trkpt lat="43.93393" lon="7.36299">
        <ele>1436.4000244141</ele>
        <time>2019-04-20T11:54:19.000Z</time>
      </trkpt>
      <trkpt lat="43.9338" lon="7.36285">
        <ele>1436.4000244141</ele>
        <time>2019-04-20T11:54:23.000Z</time>
      </trkpt>
      <trkpt lat="43.93373" lon="7.3628">
        <ele>1436.1999511719</ele>
        <time>2019-04-20T11:54:25.000Z</time>
      </trkpt>
      <trkpt lat="43.93366" lon="7.36272">
        <ele>1436</ele>
        <time>2019-04-20T11:54:27.000Z</time>
      </trkpt>
      <trkpt lat="43.93365" lon="7.36268">
        <ele>1435.8000488281</ele>
        <time>2019-04-20T11:54:28.000Z</time>
      </trkpt>
      <trkpt lat="43.93352" lon="7.36252">
        <ele>1435.1999511719</ele>
        <time>2019-04-20T11:54:32.000Z</time>
      </trkpt>
      <trkpt lat="43.93348" lon="7.36247">
        <ele>1435.1999511719</ele>
        <time>2019-04-20T11:54:33.000Z</time>
      </trkpt>
      <trkpt lat="43.93334" lon="7.36223">
        <ele>1434.4000244141</ele>
        <time>2019-04-20T11:54:38.000Z</time>
      </trkpt>
      <trkpt lat="43.93331" lon="7.36221">
        <ele>1434.1999511719</ele>
        <time>2019-04-20T11:54:39.000Z</time>
      </trkpt>
      <trkpt lat="43.93327" lon="7.36218">
        <ele>1434.1999511719</ele>
        <time>2019-04-20T11:54:42.000Z</time>
      </trkpt>
      <trkpt lat="43.93327" lon="7.36218">
        <ele>1434.1999511719</ele>
        <time>2019-04-20T11:54:43.000Z</time>
      </trkpt>
      <trkpt lat="43.93327" lon="7.36221">
        <ele>1434.4000244141</ele>
        <time>2019-04-20T11:54:44.000Z</time>
      </trkpt>
      <trkpt lat="43.9333" lon="7.36224">
        <ele>1434.5999755859</ele>
        <time>2019-04-20T11:54:46.000Z</time>
      </trkpt>
      <trkpt lat="43.93339" lon="7.36237">
        <ele>1435</ele>
        <time>2019-04-20T11:54:50.000Z</time>
      </trkpt>
      <trkpt lat="43.93341" lon="7.36241">
        <ele>1435.1999511719</ele>
        <time>2019-04-20T11:54:51.000Z</time>
      </trkpt>
      <trkpt lat="43.93346" lon="7.3625">
        <ele>1435.4000244141</ele>
        <time>2019-04-20T11:54:54.000Z</time>
      </trkpt>
      <trkpt lat="43.93353" lon="7.36259">
        <ele>1435.8000488281</ele>
        <time>2019-04-20T11:54:57.000Z</time>
      </trkpt>
      <trkpt lat="43.93365" lon="7.36273">
        <ele>1436</ele>
        <time>2019-04-20T11:55:02.000Z</time>
      </trkpt>
      <trkpt lat="43.93382" lon="7.36286">
        <ele>1436.4000244141</ele>
        <time>2019-04-20T11:55:08.000Z</time>
      </trkpt>
      <trkpt lat="43.93385" lon="7.36289">
        <ele>1436.5999755859</ele>
        <time>2019-04-20T11:55:09.000Z</time>
      </trkpt>
      <trkpt lat="43.93395" lon="7.363">
        <ele>1437.1999511719</ele>
        <time>2019-04-20T11:55:13.000Z</time>
      </trkpt>
      <trkpt lat="43.93414" lon="7.36327">
        <ele>1437.1999511719</ele>
        <time>2019-04-20T11:55:21.000Z</time>
      </trkpt>
      <trkpt lat="43.93426" lon="7.36353">
        <ele>1437.5999755859</ele>
        <time>2019-04-20T11:55:27.000Z</time>
      </trkpt>
      <trkpt lat="43.93431" lon="7.36365">
        <ele>1437.8000488281</ele>
        <time>2019-04-20T11:55:30.000Z</time>
      </trkpt>
      <trkpt lat="43.93443" lon="7.36383">
        <ele>1437.5999755859</ele>
        <time>2019-04-20T11:55:37.000Z</time>
      </trkpt>
      <trkpt lat="43.93445" lon="7.36384">
        <ele>1437.4000244141</ele>
        <time>2019-04-20T11:55:38.000Z</time>
      </trkpt>
      <trkpt lat="43.93448" lon="7.36383">
        <ele>1437</ele>
        <time>2019-04-20T11:55:41.000Z</time>
      </trkpt>
      <trkpt lat="43.93449" lon="7.36383">
        <ele>1436.5999755859</ele>
        <time>2019-04-20T11:55:45.000Z</time>
      </trkpt>
      <trkpt lat="43.93449" lon="7.36382">
        <ele>1436</ele>
        <time>2019-04-20T11:55:57.000Z</time>
      </trkpt>
      <trkpt lat="43.93449" lon="7.36382">
        <ele>1436</ele>
        <time>2019-04-20T11:56:08.000Z</time>
      </trkpt>
      <trkpt lat="43.93449" lon="7.36382">
        <ele>1435.5999755859</ele>
        <time>2019-04-20T11:56:19.000Z</time>
      </trkpt>
      <trkpt lat="43.93449" lon="7.36382">
        <ele>1436.5999755859</ele>
        <time>2019-04-20T11:56:29.000Z</time>
      </trkpt>
      <trkpt lat="43.93449" lon="7.36382">
        <ele>1436.8000488281</ele>
        <time>2019-04-20T11:56:37.000Z</time>
      </trkpt>
      <trkpt lat="43.9345" lon="7.36384">
        <ele>1436.5999755859</ele>
        <time>2019-04-20T11:56:44.000Z</time>
      </trkpt>
      <trkpt lat="43.93452" lon="7.36386">
        <ele>1436.8000488281</ele>
        <time>2019-04-20T11:56:51.000Z</time>
      </trkpt>
      <trkpt lat="43.93452" lon="7.36386">
        <ele>1436.8000488281</ele>
        <time>2019-04-20T11:56:58.000Z</time>
      </trkpt>
      <trkpt lat="43.93452" lon="7.36386">
        <ele>1437.1999511719</ele>
        <time>2019-04-20T11:57:06.000Z</time>
      </trkpt>
      <trkpt lat="43.93452" lon="7.36386">
        <ele>1437.1999511719</ele>
        <time>2019-04-20T11:57:12.000Z</time>
      </trkpt>
      <trkpt lat="43.93452" lon="7.36385">
        <ele>1437.8000488281</ele>
        <time>2019-04-20T11:57:15.000Z</time>
      </trkpt>
      <trkpt lat="43.93451" lon="7.36385">
        <ele>1438</ele>
        <time>2019-04-20T11:57:17.000Z</time>
      </trkpt>
      <trkpt lat="43.93451" lon="7.36384">
        <ele>1436.8000488281</ele>
        <time>2019-04-20T11:57:22.000Z</time>
      </trkpt>
      <trkpt lat="43.93451" lon="7.36384">
        <ele>1436.8000488281</ele>
        <time>2019-04-20T11:57:23.000Z</time>
      </trkpt>
      <trkpt lat="43.93451" lon="7.36385">
        <ele>1436.8000488281</ele>
        <time>2019-04-20T11:57:28.000Z</time>
      </trkpt>
      <trkpt lat="43.93452" lon="7.36388">
        <ele>1437</ele>
        <time>2019-04-20T11:57:34.000Z</time>
      </trkpt>
      <trkpt lat="43.9345" lon="7.36391">
        <ele>1436.1999511719</ele>
        <time>2019-04-20T11:57:43.000Z</time>
      </trkpt>
      <trkpt lat="43.93449" lon="7.36394">
        <ele>1436.1999511719</ele>
        <time>2019-04-20T11:57:53.000Z</time>
      </trkpt>
      <trkpt lat="43.93449" lon="7.36396">
        <ele>1435.5999755859</ele>
        <time>2019-04-20T11:57:59.000Z</time>
      </trkpt>
      <trkpt lat="43.93449" lon="7.36397">
        <ele>1435.8000488281</ele>
        <time>2019-04-20T11:58:02.000Z</time>
      </trkpt>
      <trkpt lat="43.93449" lon="7.36398">
        <ele>1436</ele>
        <time>2019-04-20T11:58:12.000Z</time>
      </trkpt>
      <trkpt lat="43.93448" lon="7.36399">
        <ele>1435.4000244141</ele>
        <time>2019-04-20T11:58:20.000Z</time>
      </trkpt>
      <trkpt lat="43.93448" lon="7.364">
        <ele>1435.1999511719</ele>
        <time>2019-04-20T11:58:29.000Z</time>
      </trkpt>
      <trkpt lat="43.93449" lon="7.364">
        <ele>1434.5999755859</ele>
        <time>2019-04-20T11:58:34.000Z</time>
      </trkpt>
      <trkpt lat="43.93449" lon="7.36399">
        <ele>1434.5999755859</ele>
        <time>2019-04-20T11:58:43.000Z</time>
      </trkpt>
      <trkpt lat="43.93447" lon="7.36401">
        <ele>1435.8000488281</ele>
        <time>2019-04-20T11:58:53.000Z</time>
      </trkpt>
      <trkpt lat="43.93446" lon="7.36402">
        <ele>1436.1999511719</ele>
        <time>2019-04-20T11:58:56.000Z</time>
      </trkpt>
      <trkpt lat="43.93446" lon="7.36401">
        <ele>1436.8000488281</ele>
        <time>2019-04-20T11:59:02.000Z</time>
      </trkpt>
      <trkpt lat="43.93446" lon="7.36401">
        <ele>1437.1999511719</ele>
        <time>2019-04-20T11:59:06.000Z</time>
      </trkpt>
      <trkpt lat="43.93446" lon="7.36401">
        <ele>1437.1999511719</ele>
        <time>2019-04-20T11:59:14.000Z</time>
      </trkpt>
      <trkpt lat="43.93446" lon="7.36401">
        <ele>1437.8000488281</ele>
        <time>2019-04-20T11:59:19.000Z</time>
      </trkpt>
      <trkpt lat="43.93446" lon="7.36401">
        <ele>1438</ele>
        <time>2019-04-20T11:59:26.000Z</time>
      </trkpt>
      <trkpt lat="43.93447" lon="7.36401">
        <ele>1438.1999511719</ele>
        <time>2019-04-20T11:59:41.000Z</time>
      </trkpt>
      <trkpt lat="43.93448" lon="7.36398">
        <ele>1437.5999755859</ele>
        <time>2019-04-20T12:00:00.000Z</time>
      </trkpt>
      <trkpt lat="43.93448" lon="7.36399">
        <ele>1437.4000244141</ele>
        <time>2019-04-20T12:00:15.000Z</time>
      </trkpt>
      <trkpt lat="43.93448" lon="7.364">
        <ele>1437</ele>
        <time>2019-04-20T12:00:25.000Z</time>
      </trkpt>
      <trkpt lat="43.93447" lon="7.364">
        <ele>1437.4000244141</ele>
        <time>2019-04-20T12:00:35.000Z</time>
      </trkpt>
      <trkpt lat="43.93446" lon="7.36401">
        <ele>1437.4000244141</ele>
        <time>2019-04-20T12:00:47.000Z</time>
      </trkpt>
      <trkpt lat="43.93446" lon="7.36401">
        <ele>1437.4000244141</ele>
        <time>2019-04-20T12:00:59.000Z</time>
      </trkpt>
      <trkpt lat="43.93447" lon="7.364">
        <ele>1436.5999755859</ele>
        <time>2019-04-20T12:01:11.000Z</time>
      </trkpt>
      <trkpt lat="43.93447" lon="7.364">
        <ele>1437.4000244141</ele>
        <time>2019-04-20T12:01:19.000Z</time>
      </trkpt>
      <trkpt lat="43.93446" lon="7.36401">
        <ele>1437.5999755859</ele>
        <time>2019-04-20T12:01:34.000Z</time>
      </trkpt>
      <trkpt lat="43.93444" lon="7.36404">
        <ele>1437.1999511719</ele>
        <time>2019-04-20T12:01:57.000Z</time>
      </trkpt>
      <trkpt lat="43.93443" lon="7.36406">
        <ele>1437.1999511719</ele>
        <time>2019-04-20T12:02:12.000Z</time>
      </trkpt>
      <trkpt lat="43.93443" lon="7.36405">
        <ele>1436.5999755859</ele>
        <time>2019-04-20T12:02:18.000Z</time>
      </trkpt>
      <trkpt lat="43.93444" lon="7.36405">
        <ele>1436.8000488281</ele>
        <time>2019-04-20T12:02:25.000Z</time>
      </trkpt>
      <trkpt lat="43.93444" lon="7.36405">
        <ele>1437.5999755859</ele>
        <time>2019-04-20T12:02:30.000Z</time>
      </trkpt>
      <trkpt lat="43.93443" lon="7.36405">
        <ele>1438.8000488281</ele>
        <time>2019-04-20T12:02:37.000Z</time>
      </trkpt>
      <trkpt lat="43.93444" lon="7.36405">
        <ele>1438.8000488281</ele>
        <time>2019-04-20T12:02:38.000Z</time>
      </trkpt>
      <trkpt lat="43.93445" lon="7.36404">
        <ele>1437.5999755859</ele>
        <time>2019-04-20T12:02:52.000Z</time>
      </trkpt>
      <trkpt lat="43.93445" lon="7.36403">
        <ele>1436.5999755859</ele>
        <time>2019-04-20T12:02:56.000Z</time>
      </trkpt>
      <trkpt lat="43.93446" lon="7.36402">
        <ele>1436.4000244141</ele>
        <time>2019-04-20T12:02:57.000Z</time>
      </trkpt>
      <trkpt lat="43.93447" lon="7.36401">
        <ele>1437.5999755859</ele>
        <time>2019-04-20T12:03:03.000Z</time>
      </trkpt>
      <trkpt lat="43.93447" lon="7.36401">
        <ele>1438.4000244141</ele>
        <time>2019-04-20T12:03:09.000Z</time>
      </trkpt>
      <trkpt lat="43.93446" lon="7.36403">
        <ele>1436.1999511719</ele>
        <time>2019-04-20T12:03:15.000Z</time>
      </trkpt>
      <trkpt lat="43.93446" lon="7.36403">
        <ele>1436.5999755859</ele>
        <time>2019-04-20T12:03:18.000Z</time>
      </trkpt>
      <trkpt lat="43.93446" lon="7.36403">
        <ele>1437.4000244141</ele>
        <time>2019-04-20T12:03:21.000Z</time>
      </trkpt>
      <trkpt lat="43.93446" lon="7.36403">
        <ele>1436.1999511719</ele>
        <time>2019-04-20T12:03:26.000Z</time>
      </trkpt>
      <trkpt lat="43.93446" lon="7.36404">
        <ele>1436.4000244141</ele>
        <time>2019-04-20T12:03:32.000Z</time>
      </trkpt>
      <trkpt lat="43.93445" lon="7.36406">
        <ele>1437.1999511719</ele>
        <time>2019-04-20T12:03:40.000Z</time>
      </trkpt>
      <trkpt lat="43.93445" lon="7.36406">
        <ele>1437.1999511719</ele>
        <time>2019-04-20T12:03:41.000Z</time>
      </trkpt>
      <trkpt lat="43.93444" lon="7.36406">
        <ele>1438</ele>
        <time>2019-04-20T12:03:48.000Z</time>
      </trkpt>
      <trkpt lat="43.93444" lon="7.36406">
        <ele>1438.4000244141</ele>
        <time>2019-04-20T12:03:55.000Z</time>
      </trkpt>
      <trkpt lat="43.93444" lon="7.36406">
        <ele>1438.4000244141</ele>
        <time>2019-04-20T12:03:56.000Z</time>
      </trkpt>
      <trkpt lat="43.93444" lon="7.36407">
        <ele>1438.5999755859</ele>
        <time>2019-04-20T12:04:03.000Z</time>
      </trkpt>
      <trkpt lat="43.93443" lon="7.36408">
        <ele>1438.5999755859</ele>
        <time>2019-04-20T12:04:11.000Z</time>
      </trkpt>
      <trkpt lat="43.93442" lon="7.36409">
        <ele>1438</ele>
        <time>2019-04-20T12:04:23.000Z</time>
      </trkpt>
      <trkpt lat="43.93442" lon="7.36409">
        <ele>1437.5999755859</ele>
        <time>2019-04-20T12:04:30.000Z</time>
      </trkpt>
      <trkpt lat="43.93442" lon="7.36409">
        <ele>1437.1999511719</ele>
        <time>2019-04-20T12:04:34.000Z</time>
      </trkpt>
      <trkpt lat="43.93442" lon="7.36407">
        <ele>1437</ele>
        <time>2019-04-20T12:04:42.000Z</time>
      </trkpt>
      <trkpt lat="43.93441" lon="7.36408">
        <ele>1436.5999755859</ele>
        <time>2019-04-20T12:04:57.000Z</time>
      </trkpt>
      <trkpt lat="43.93441" lon="7.36409">
        <ele>1436.1999511719</ele>
        <time>2019-04-20T12:05:08.000Z</time>
      </trkpt>
      <trkpt lat="43.93441" lon="7.36409">
        <ele>1436</ele>
        <time>2019-04-20T12:05:11.000Z</time>
      </trkpt>
      <trkpt lat="43.93442" lon="7.36408">
        <ele>1436.1999511719</ele>
        <time>2019-04-20T12:05:23.000Z</time>
      </trkpt>
      <trkpt lat="43.93441" lon="7.36409">
        <ele>1436.5999755859</ele>
        <time>2019-04-20T12:05:30.000Z</time>
      </trkpt>
      <trkpt lat="43.93439" lon="7.36411">
        <ele>1436.1999511719</ele>
        <time>2019-04-20T12:05:43.000Z</time>
      </trkpt>
      <trkpt lat="43.93439" lon="7.36411">
        <ele>1436.5999755859</ele>
        <time>2019-04-20T12:05:53.000Z</time>
      </trkpt>
      <trkpt lat="43.93441" lon="7.36409">
        <ele>1436.4000244141</ele>
        <time>2019-04-20T12:06:05.000Z</time>
      </trkpt>
      <trkpt lat="43.93441" lon="7.36408">
        <ele>1436.5999755859</ele>
        <time>2019-04-20T12:06:15.000Z</time>
      </trkpt>
      <trkpt lat="43.93441" lon="7.36408">
        <ele>1436.8000488281</ele>
        <time>2019-04-20T12:06:26.000Z</time>
      </trkpt>
      <trkpt lat="43.93442" lon="7.36405">
        <ele>1437</ele>
        <time>2019-04-20T12:06:37.000Z</time>
      </trkpt>
      <trkpt lat="43.93441" lon="7.36406">
        <ele>1437.1999511719</ele>
        <time>2019-04-20T12:06:45.000Z</time>
      </trkpt>
      <trkpt lat="43.93441" lon="7.36408">
        <ele>1437.1999511719</ele>
        <time>2019-04-20T12:06:52.000Z</time>
      </trkpt>
      <trkpt lat="43.93441" lon="7.36408">
        <ele>1437.4000244141</ele>
        <time>2019-04-20T12:06:54.000Z</time>
      </trkpt>
      <trkpt lat="43.93443" lon="7.36405">
        <ele>1437</ele>
        <time>2019-04-20T12:07:10.000Z</time>
      </trkpt>
      <trkpt lat="43.93444" lon="7.36403">
        <ele>1436.4000244141</ele>
        <time>2019-04-20T12:07:29.000Z</time>
      </trkpt>
      <trkpt lat="43.93444" lon="7.36404">
        <ele>1436.4000244141</ele>
        <time>2019-04-20T12:07:48.000Z</time>
      </trkpt>
      <trkpt lat="43.93446" lon="7.36401">
        <ele>1436.5999755859</ele>
        <time>2019-04-20T12:08:09.000Z</time>
      </trkpt>
      <trkpt lat="43.93447" lon="7.364">
        <ele>1436.1999511719</ele>
        <time>2019-04-20T12:08:28.000Z</time>
      </trkpt>
      <trkpt lat="43.93448" lon="7.364">
        <ele>1436</ele>
        <time>2019-04-20T12:08:31.000Z</time>
      </trkpt>
      <trkpt lat="43.93447" lon="7.36401">
        <ele>1436.1999511719</ele>
        <time>2019-04-20T12:08:44.000Z</time>
      </trkpt>
      <trkpt lat="43.93445" lon="7.36404">
        <ele>1437</ele>
        <time>2019-04-20T12:08:57.000Z</time>
      </trkpt>
      <trkpt lat="43.93446" lon="7.36402">
        <ele>1436.5999755859</ele>
        <time>2019-04-20T12:09:11.000Z</time>
      </trkpt>
      <trkpt lat="43.93446" lon="7.36402">
        <ele>1436.8000488281</ele>
        <time>2019-04-20T12:09:34.000Z</time>
      </trkpt>
      <trkpt lat="43.93446" lon="7.36401">
        <ele>1436.4000244141</ele>
        <time>2019-04-20T12:09:49.000Z</time>
      </trkpt>
      <trkpt lat="43.93445" lon="7.36402">
        <ele>1435.8000488281</ele>
        <time>2019-04-20T12:10:04.000Z</time>
      </trkpt>
      <trkpt lat="43.93445" lon="7.36403">
        <ele>1435.1999511719</ele>
        <time>2019-04-20T12:10:12.000Z</time>
      </trkpt>
      <trkpt lat="43.93445" lon="7.36403">
        <ele>1436.5999755859</ele>
        <time>2019-04-20T12:10:18.000Z</time>
      </trkpt>
      <trkpt lat="43.93445" lon="7.36403">
        <ele>1437.8000488281</ele>
        <time>2019-04-20T12:10:20.000Z</time>
      </trkpt>
      <trkpt lat="43.93445" lon="7.36402">
        <ele>1437.1999511719</ele>
        <time>2019-04-20T12:10:29.000Z</time>
      </trkpt>
      <trkpt lat="43.93445" lon="7.36402">
        <ele>1436.8000488281</ele>
        <time>2019-04-20T12:10:31.000Z</time>
      </trkpt>
      <trkpt lat="43.93446" lon="7.36401">
        <ele>1435.5999755859</ele>
        <time>2019-04-20T12:10:38.000Z</time>
      </trkpt>
      <trkpt lat="43.93446" lon="7.36402">
        <ele>1435.5999755859</ele>
        <time>2019-04-20T12:10:40.000Z</time>
      </trkpt>
      <trkpt lat="43.93445" lon="7.36402">
        <ele>1435.5999755859</ele>
        <time>2019-04-20T12:10:52.000Z</time>
      </trkpt>
      <trkpt lat="43.93446" lon="7.36401">
        <ele>1436</ele>
        <time>2019-04-20T12:11:03.000Z</time>
      </trkpt>
      <trkpt lat="43.93447" lon="7.36399">
        <ele>1435.1999511719</ele>
        <time>2019-04-20T12:11:21.000Z</time>
      </trkpt>
      <trkpt lat="43.93446" lon="7.36401">
        <ele>1436.1999511719</ele>
        <time>2019-04-20T12:11:32.000Z</time>
      </trkpt>
      <trkpt lat="43.93447" lon="7.36402">
        <ele>1435.4000244141</ele>
        <time>2019-04-20T12:11:38.000Z</time>
      </trkpt>
      <trkpt lat="43.93447" lon="7.36402">
        <ele>1437.1999511719</ele>
        <time>2019-04-20T12:11:41.000Z</time>
      </trkpt>
      <trkpt lat="43.93446" lon="7.36402">
        <ele>1438.1999511719</ele>
        <time>2019-04-20T12:11:43.000Z</time>
      </trkpt>
      <trkpt lat="43.93445" lon="7.36403">
        <ele>1439</ele>
        <time>2019-04-20T12:11:46.000Z</time>
      </trkpt>
      <trkpt lat="43.93445" lon="7.36404">
        <ele>1436.8000488281</ele>
        <time>2019-04-20T12:11:51.000Z</time>
      </trkpt>
      <trkpt lat="43.93446" lon="7.36404">
        <ele>1435.8000488281</ele>
        <time>2019-04-20T12:11:53.000Z</time>
      </trkpt>
      <trkpt lat="43.93446" lon="7.36403">
        <ele>1436.1999511719</ele>
        <time>2019-04-20T12:11:56.000Z</time>
      </trkpt>
      <trkpt lat="43.93446" lon="7.36403">
        <ele>1437.1999511719</ele>
        <time>2019-04-20T12:11:58.000Z</time>
      </trkpt>
      <trkpt lat="43.93446" lon="7.36403">
        <ele>1438.1999511719</ele>
        <time>2019-04-20T12:12:01.000Z</time>
      </trkpt>
      <trkpt lat="43.93446" lon="7.36403">
        <ele>1437</ele>
        <time>2019-04-20T12:12:08.000Z</time>
      </trkpt>
      <trkpt lat="43.93446" lon="7.36404">
        <ele>1436.4000244141</ele>
        <time>2019-04-20T12:12:10.000Z</time>
      </trkpt>
      <trkpt lat="43.93446" lon="7.36404">
        <ele>1435.8000488281</ele>
        <time>2019-04-20T12:12:12.000Z</time>
      </trkpt>
      <trkpt lat="43.93445" lon="7.36405">
        <ele>1434.4000244141</ele>
        <time>2019-04-20T12:12:18.000Z</time>
      </trkpt>
      <trkpt lat="43.93444" lon="7.36406">
        <ele>1434.5999755859</ele>
        <time>2019-04-20T12:12:23.000Z</time>
      </trkpt>
      <trkpt lat="43.93444" lon="7.36406">
        <ele>1435.5999755859</ele>
        <time>2019-04-20T12:12:25.000Z</time>
      </trkpt>
      <trkpt lat="43.93443" lon="7.36407">
        <ele>1436</ele>
        <time>2019-04-20T12:12:44.000Z</time>
      </trkpt>
      <trkpt lat="43.93443" lon="7.36408">
        <ele>1436</ele>
        <time>2019-04-20T12:12:51.000Z</time>
      </trkpt>
      <trkpt lat="43.93443" lon="7.36408">
        <ele>1435.1999511719</ele>
        <time>2019-04-20T12:13:03.000Z</time>
      </trkpt>
      <trkpt lat="43.93442" lon="7.36407">
        <ele>1434.4000244141</ele>
        <time>2019-04-20T12:13:13.000Z</time>
      </trkpt>
      <trkpt lat="43.93442" lon="7.36407">
        <ele>1433.5999755859</ele>
        <time>2019-04-20T12:13:17.000Z</time>
      </trkpt>
      <trkpt lat="43.93442" lon="7.36408">
        <ele>1433.4000244141</ele>
        <time>2019-04-20T12:13:20.000Z</time>
      </trkpt>
      <trkpt lat="43.93442" lon="7.36407">
        <ele>1434.5999755859</ele>
        <time>2019-04-20T12:13:26.000Z</time>
      </trkpt>
      <trkpt lat="43.93442" lon="7.36408">
        <ele>1435.5999755859</ele>
        <time>2019-04-20T12:13:33.000Z</time>
      </trkpt>
      <trkpt lat="43.93441" lon="7.36408">
        <ele>1436</ele>
        <time>2019-04-20T12:13:39.000Z</time>
      </trkpt>
      <trkpt lat="43.93442" lon="7.36408">
        <ele>1436.1999511719</ele>
        <time>2019-04-20T12:13:50.000Z</time>
      </trkpt>
      <trkpt lat="43.93442" lon="7.36407">
        <ele>1436.1999511719</ele>
        <time>2019-04-20T12:14:11.000Z</time>
      </trkpt>
      <trkpt lat="43.93442" lon="7.36407">
        <ele>1436</ele>
        <time>2019-04-20T12:14:25.000Z</time>
      </trkpt>
      <trkpt lat="43.93443" lon="7.36406">
        <ele>1436</ele>
        <time>2019-04-20T12:14:30.000Z</time>
      </trkpt>
      <trkpt lat="43.93443" lon="7.36406">
        <ele>1436</ele>
        <time>2019-04-20T12:14:31.000Z</time>
      </trkpt>
      <trkpt lat="43.93438" lon="7.36414">
        <ele>1436.4000244141</ele>
        <time>2019-04-20T12:14:46.000Z</time>
      </trkpt>
      <trkpt lat="43.93438" lon="7.36418">
        <ele>1436.4000244141</ele>
        <time>2019-04-20T12:15:03.000Z</time>
      </trkpt>
      <trkpt lat="43.93437" lon="7.36419">
        <ele>1436.4000244141</ele>
        <time>2019-04-20T12:15:22.000Z</time>
      </trkpt>
      <trkpt lat="43.93436" lon="7.36419">
        <ele>1436.5999755859</ele>
        <time>2019-04-20T12:15:29.000Z</time>
      </trkpt>
      <trkpt lat="43.93437" lon="7.36419">
        <ele>1436.8000488281</ele>
        <time>2019-04-20T12:15:48.000Z</time>
      </trkpt>
      <trkpt lat="43.93436" lon="7.3642">
        <ele>1437</ele>
        <time>2019-04-20T12:16:06.000Z</time>
      </trkpt>
      <trkpt lat="43.93434" lon="7.36421">
        <ele>1437.1999511719</ele>
        <time>2019-04-20T12:16:29.000Z</time>
      </trkpt>
      <trkpt lat="43.93436" lon="7.36416">
        <ele>1436.5999755859</ele>
        <time>2019-04-20T12:16:51.000Z</time>
      </trkpt>
      <trkpt lat="43.93438" lon="7.36411">
        <ele>1437</ele>
        <time>2019-04-20T12:17:18.000Z</time>
      </trkpt>
      <trkpt lat="43.93439" lon="7.36409">
        <ele>1437.1999511719</ele>
        <time>2019-04-20T12:17:33.000Z</time>
      </trkpt>
      <trkpt lat="43.93441" lon="7.36406">
        <ele>1436.8000488281</ele>
        <time>2019-04-20T12:17:46.000Z</time>
      </trkpt>
      <trkpt lat="43.93442" lon="7.36403">
        <ele>1436.5999755859</ele>
        <time>2019-04-20T12:18:12.000Z</time>
      </trkpt>
      <trkpt lat="43.93445" lon="7.36399">
        <ele>1437.5999755859</ele>
        <time>2019-04-20T12:18:35.000Z</time>
      </trkpt>
      <trkpt lat="43.93445" lon="7.364">
        <ele>1437.5999755859</ele>
        <time>2019-04-20T12:18:53.000Z</time>
      </trkpt>
      <trkpt lat="43.93445" lon="7.364">
        <ele>1438</ele>
        <time>2019-04-20T12:19:00.000Z</time>
      </trkpt>
      <trkpt lat="43.93445" lon="7.36401">
        <ele>1438.1999511719</ele>
        <time>2019-04-20T12:19:25.000Z</time>
      </trkpt>
      <trkpt lat="43.93445" lon="7.36404">
        <ele>1438.1999511719</ele>
        <time>2019-04-20T12:19:41.000Z</time>
      </trkpt>
      <trkpt lat="43.93446" lon="7.36404">
        <ele>1437.4000244141</ele>
        <time>2019-04-20T12:19:59.000Z</time>
      </trkpt>
      <trkpt lat="43.93446" lon="7.36405">
        <ele>1437.5999755859</ele>
        <time>2019-04-20T12:20:16.000Z</time>
      </trkpt>
      <trkpt lat="43.93448" lon="7.36403">
        <ele>1438</ele>
        <time>2019-04-20T12:20:37.000Z</time>
      </trkpt>
      <trkpt lat="43.9345" lon="7.36403">
        <ele>1437.5999755859</ele>
        <time>2019-04-20T12:21:00.000Z</time>
      </trkpt>
      <trkpt lat="43.93451" lon="7.36403">
        <ele>1437.8000488281</ele>
        <time>2019-04-20T12:21:25.000Z</time>
      </trkpt>
      <trkpt lat="43.93452" lon="7.364">
        <ele>1437.5999755859</ele>
        <time>2019-04-20T12:21:43.000Z</time>
      </trkpt>
      <trkpt lat="43.93453" lon="7.36398">
        <ele>1438.1999511719</ele>
        <time>2019-04-20T12:22:01.000Z</time>
      </trkpt>
      <trkpt lat="43.93453" lon="7.36396">
        <ele>1437.5999755859</ele>
        <time>2019-04-20T12:22:23.000Z</time>
      </trkpt>
      <trkpt lat="43.93453" lon="7.36398">
        <ele>1437.1999511719</ele>
        <time>2019-04-20T12:22:41.000Z</time>
      </trkpt>
      <trkpt lat="43.93453" lon="7.36398">
        <ele>1436.5999755859</ele>
        <time>2019-04-20T12:22:54.000Z</time>
      </trkpt>
      <trkpt lat="43.93453" lon="7.36397">
        <ele>1436.4000244141</ele>
        <time>2019-04-20T12:23:01.000Z</time>
      </trkpt>
      <trkpt lat="43.93452" lon="7.364">
        <ele>1436.4000244141</ele>
        <time>2019-04-20T12:23:13.000Z</time>
      </trkpt>
      <trkpt lat="43.93452" lon="7.36399">
        <ele>1435.5999755859</ele>
        <time>2019-04-20T12:23:25.000Z</time>
      </trkpt>
      <trkpt lat="43.93452" lon="7.36399">
        <ele>1435.4000244141</ele>
        <time>2019-04-20T12:23:28.000Z</time>
      </trkpt>
      <trkpt lat="43.93452" lon="7.364">
        <ele>1435</ele>
        <time>2019-04-20T12:23:39.000Z</time>
      </trkpt>
      <trkpt lat="43.93451" lon="7.36401">
        <ele>1436.4000244141</ele>
        <time>2019-04-20T12:23:49.000Z</time>
      </trkpt>
      <trkpt lat="43.93451" lon="7.364">
        <ele>1436.5999755859</ele>
        <time>2019-04-20T12:23:53.000Z</time>
      </trkpt>
      <trkpt lat="43.93451" lon="7.36399">
        <ele>1436.8000488281</ele>
        <time>2019-04-20T12:23:55.000Z</time>
      </trkpt>
      <trkpt lat="43.93453" lon="7.36395">
        <ele>1437.5999755859</ele>
        <time>2019-04-20T12:24:14.000Z</time>
      </trkpt>
      <trkpt lat="43.93453" lon="7.36395">
        <ele>1437.5999755859</ele>
        <time>2019-04-20T12:24:22.000Z</time>
      </trkpt>
      <trkpt lat="43.93454" lon="7.36396">
        <ele>1437.4000244141</ele>
        <time>2019-04-20T12:24:32.000Z</time>
      </trkpt>
      <trkpt lat="43.93454" lon="7.36394">
        <ele>1436.8000488281</ele>
        <time>2019-04-20T12:24:58.000Z</time>
      </trkpt>
      <trkpt lat="43.93454" lon="7.36394">
        <ele>1436.5999755859</ele>
        <time>2019-04-20T12:25:02.000Z</time>
      </trkpt>
      <trkpt lat="43.93454" lon="7.36397">
        <ele>1436.5999755859</ele>
        <time>2019-04-20T12:25:20.000Z</time>
      </trkpt>
      <trkpt lat="43.93455" lon="7.36396">
        <ele>1436.4000244141</ele>
        <time>2019-04-20T12:25:44.000Z</time>
      </trkpt>
      <trkpt lat="43.93455" lon="7.36398">
        <ele>1437</ele>
        <time>2019-04-20T12:26:15.000Z</time>
      </trkpt>
      <trkpt lat="43.93456" lon="7.36395">
        <ele>1437.5999755859</ele>
        <time>2019-04-20T12:26:36.000Z</time>
      </trkpt>
      <trkpt lat="43.93456" lon="7.36393">
        <ele>1437.5999755859</ele>
        <time>2019-04-20T12:26:49.000Z</time>
      </trkpt>
      <trkpt lat="43.93456" lon="7.36393">
        <ele>1437.8000488281</ele>
        <time>2019-04-20T12:26:55.000Z</time>
      </trkpt>
      <trkpt lat="43.93457" lon="7.36393">
        <ele>1437.5999755859</ele>
        <time>2019-04-20T12:27:04.000Z</time>
      </trkpt>
      <trkpt lat="43.93456" lon="7.36393">
        <ele>1437.4000244141</ele>
        <time>2019-04-20T12:27:14.000Z</time>
      </trkpt>
      <trkpt lat="43.93456" lon="7.36394">
        <ele>1437.1999511719</ele>
        <time>2019-04-20T12:27:32.000Z</time>
      </trkpt>
      <trkpt lat="43.93456" lon="7.36395">
        <ele>1437.4000244141</ele>
        <time>2019-04-20T12:27:40.000Z</time>
      </trkpt>
      <trkpt lat="43.93455" lon="7.36397">
        <ele>1437.4000244141</ele>
        <time>2019-04-20T12:27:51.000Z</time>
      </trkpt>
      <trkpt lat="43.93455" lon="7.36398">
        <ele>1437.4000244141</ele>
        <time>2019-04-20T12:28:03.000Z</time>
      </trkpt>
      <trkpt lat="43.93455" lon="7.364">
        <ele>1437</ele>
        <time>2019-04-20T12:28:16.000Z</time>
      </trkpt>
      <trkpt lat="43.93454" lon="7.36399">
        <ele>1436.5999755859</ele>
        <time>2019-04-20T12:28:18.000Z</time>
      </trkpt>
      <trkpt lat="43.93455" lon="7.36399">
        <ele>1436.8000488281</ele>
        <time>2019-04-20T12:28:23.000Z</time>
      </trkpt>
      <trkpt lat="43.93455" lon="7.364">
        <ele>1436.1999511719</ele>
        <time>2019-04-20T12:28:31.000Z</time>
      </trkpt>
      <trkpt lat="43.93455" lon="7.36401">
        <ele>1435.4000244141</ele>
        <time>2019-04-20T12:28:36.000Z</time>
      </trkpt>
      <trkpt lat="43.93455" lon="7.36401">
        <ele>1435.4000244141</ele>
        <time>2019-04-20T12:28:37.000Z</time>
      </trkpt>
      <trkpt lat="43.93454" lon="7.36402">
        <ele>1435</ele>
        <time>2019-04-20T12:28:42.000Z</time>
      </trkpt>
      <trkpt lat="43.93453" lon="7.36401">
        <ele>1435</ele>
        <time>2019-04-20T12:28:49.000Z</time>
      </trkpt>
      <trkpt lat="43.93453" lon="7.36402">
        <ele>1434.5999755859</ele>
        <time>2019-04-20T12:28:55.000Z</time>
      </trkpt>
      <trkpt lat="43.93453" lon="7.36401">
        <ele>1434.4000244141</ele>
        <time>2019-04-20T12:28:56.000Z</time>
      </trkpt>
      <trkpt lat="43.93453" lon="7.36401">
        <ele>1435.4000244141</ele>
        <time>2019-04-20T12:29:01.000Z</time>
      </trkpt>
      <trkpt lat="43.93453" lon="7.36401">
        <ele>1435.8000488281</ele>
        <time>2019-04-20T12:29:02.000Z</time>
      </trkpt>
      <trkpt lat="43.93454" lon="7.36398">
        <ele>1435.5999755859</ele>
        <time>2019-04-20T12:29:10.000Z</time>
      </trkpt>
      <trkpt lat="43.93454" lon="7.36396">
        <ele>1435.1999511719</ele>
        <time>2019-04-20T12:29:20.000Z</time>
      </trkpt>
      <trkpt lat="43.93454" lon="7.36395">
        <ele>1435.1999511719</ele>
        <time>2019-04-20T12:29:26.000Z</time>
      </trkpt>
      <trkpt lat="43.93452" lon="7.36394">
        <ele>1435.4000244141</ele>
        <time>2019-04-20T12:29:35.000Z</time>
      </trkpt>
      <trkpt lat="43.93451" lon="7.36394">
        <ele>1435.5999755859</ele>
        <time>2019-04-20T12:29:46.000Z</time>
      </trkpt>
      <trkpt lat="43.93451" lon="7.36393">
        <ele>1436</ele>
        <time>2019-04-20T12:29:50.000Z</time>
      </trkpt>
      <trkpt lat="43.9345" lon="7.36395">
        <ele>1436</ele>
        <time>2019-04-20T12:29:59.000Z</time>
      </trkpt>
      <trkpt lat="43.93449" lon="7.36395">
        <ele>1436.5999755859</ele>
        <time>2019-04-20T12:30:09.000Z</time>
      </trkpt>
      <trkpt lat="43.93449" lon="7.36395">
        <ele>1437</ele>
        <time>2019-04-20T12:30:10.000Z</time>
      </trkpt>
      <trkpt lat="43.9345" lon="7.36395">
        <ele>1437</ele>
        <time>2019-04-20T12:30:17.000Z</time>
      </trkpt>
      <trkpt lat="43.93453" lon="7.36394">
        <ele>1437.1999511719</ele>
        <time>2019-04-20T12:30:23.000Z</time>
      </trkpt>
      <trkpt lat="43.93453" lon="7.36393">
        <ele>1438</ele>
        <time>2019-04-20T12:30:29.000Z</time>
      </trkpt>
      <trkpt lat="43.93453" lon="7.36393">
        <ele>1438</ele>
        <time>2019-04-20T12:30:31.000Z</time>
      </trkpt>
      <trkpt lat="43.93454" lon="7.36393">
        <ele>1437</ele>
        <time>2019-04-20T12:30:36.000Z</time>
      </trkpt>
      <trkpt lat="43.93454" lon="7.36392">
        <ele>1436.1999511719</ele>
        <time>2019-04-20T12:30:40.000Z</time>
      </trkpt>
      <trkpt lat="43.93454" lon="7.36392">
        <ele>1435.8000488281</ele>
        <time>2019-04-20T12:30:42.000Z</time>
      </trkpt>
      <trkpt lat="43.93454" lon="7.36391">
        <ele>1434.8000488281</ele>
        <time>2019-04-20T12:30:48.000Z</time>
      </trkpt>
      <trkpt lat="43.93454" lon="7.36393">
        <ele>1435.1999511719</ele>
        <time>2019-04-20T12:30:52.000Z</time>
      </trkpt>
      <trkpt lat="43.93454" lon="7.36392">
        <ele>1435.5999755859</ele>
        <time>2019-04-20T12:30:53.000Z</time>
      </trkpt>
      <trkpt lat="43.93453" lon="7.36394">
        <ele>1436</ele>
        <time>2019-04-20T12:30:54.000Z</time>
      </trkpt>
      <trkpt lat="43.93452" lon="7.36393">
        <ele>1436.4000244141</ele>
        <time>2019-04-20T12:30:57.000Z</time>
      </trkpt>
      <trkpt lat="43.9345" lon="7.36392">
        <ele>1436.8000488281</ele>
        <time>2019-04-20T12:30:59.000Z</time>
      </trkpt>
      <trkpt lat="43.93449" lon="7.36391">
        <ele>1437</ele>
        <time>2019-04-20T12:31:00.000Z</time>
      </trkpt>
      <trkpt lat="43.93442" lon="7.36384">
        <ele>1437</ele>
        <time>2019-04-20T12:31:04.000Z</time>
      </trkpt>
      <trkpt lat="43.93435" lon="7.36368">
        <ele>1436.1999511719</ele>
        <time>2019-04-20T12:31:09.000Z</time>
      </trkpt>
      <trkpt lat="43.93433" lon="7.36364">
        <ele>1436.1999511719</ele>
        <time>2019-04-20T12:31:10.000Z</time>
      </trkpt>
      <trkpt lat="43.93426" lon="7.36344">
        <ele>1435.8000488281</ele>
        <time>2019-04-20T12:31:15.000Z</time>
      </trkpt>
      <trkpt lat="43.93424" lon="7.3634">
        <ele>1435.4000244141</ele>
        <time>2019-04-20T12:31:16.000Z</time>
      </trkpt>
      <trkpt lat="43.93421" lon="7.36332">
        <ele>1434.4000244141</ele>
        <time>2019-04-20T12:31:18.000Z</time>
      </trkpt>
      <trkpt lat="43.93411" lon="7.36318">
        <ele>1436</ele>
        <time>2019-04-20T12:31:22.000Z</time>
      </trkpt>
      <trkpt lat="43.93408" lon="7.36314">
        <ele>1436.4000244141</ele>
        <time>2019-04-20T12:31:23.000Z</time>
      </trkpt>
      <trkpt lat="43.93399" lon="7.36303">
        <ele>1437</ele>
        <time>2019-04-20T12:31:26.000Z</time>
      </trkpt>
      <trkpt lat="43.93385" lon="7.3629">
        <ele>1436.5999755859</ele>
        <time>2019-04-20T12:31:30.000Z</time>
      </trkpt>
      <trkpt lat="43.93382" lon="7.36286">
        <ele>1435.8000488281</ele>
        <time>2019-04-20T12:31:31.000Z</time>
      </trkpt>
      <trkpt lat="43.93374" lon="7.36278">
        <ele>1434.8000488281</ele>
        <time>2019-04-20T12:31:33.000Z</time>
      </trkpt>
      <trkpt lat="43.93363" lon="7.36266">
        <ele>1434.4000244141</ele>
        <time>2019-04-20T12:31:36.000Z</time>
      </trkpt>
      <trkpt lat="43.93355" lon="7.36256">
        <ele>1433.8000488281</ele>
        <time>2019-04-20T12:31:38.000Z</time>
      </trkpt>
      <trkpt lat="43.93351" lon="7.36251">
        <ele>1433.5999755859</ele>
        <time>2019-04-20T12:31:39.000Z</time>
      </trkpt>
      <trkpt lat="43.93348" lon="7.36245">
        <ele>1433.5999755859</ele>
        <time>2019-04-20T12:31:40.000Z</time>
      </trkpt>
      <trkpt lat="43.93348" lon="7.36232">
        <ele>1434</ele>
        <time>2019-04-20T12:31:43.000Z</time>
      </trkpt>
      <trkpt lat="43.93353" lon="7.36235">
        <ele>1434</ele>
        <time>2019-04-20T12:31:46.000Z</time>
      </trkpt>
      <trkpt lat="43.93353" lon="7.36236">
        <ele>1434</ele>
        <time>2019-04-20T12:31:51.000Z</time>
      </trkpt>
      <trkpt lat="43.93353" lon="7.36235">
        <ele>1434.8000488281</ele>
        <time>2019-04-20T12:31:56.000Z</time>
      </trkpt>
      <trkpt lat="43.93354" lon="7.36235">
        <ele>1434</ele>
        <time>2019-04-20T12:32:09.000Z</time>
      </trkpt>
      <trkpt lat="43.93355" lon="7.36234">
        <ele>1433.4000244141</ele>
        <time>2019-04-20T12:32:14.000Z</time>
      </trkpt>
      <trkpt lat="43.93355" lon="7.36234">
        <ele>1433.1999511719</ele>
        <time>2019-04-20T12:32:26.000Z</time>
      </trkpt>
      <trkpt lat="43.93359" lon="7.3624">
        <ele>1433.8000488281</ele>
        <time>2019-04-20T12:32:32.000Z</time>
      </trkpt>
      <trkpt lat="43.93367" lon="7.3626">
        <ele>1432.5999755859</ele>
        <time>2019-04-20T12:32:38.000Z</time>
      </trkpt>
      <trkpt lat="43.9337" lon="7.36262">
        <ele>1432.4000244141</ele>
        <time>2019-04-20T12:32:39.000Z</time>
      </trkpt>
      <trkpt lat="43.93378" lon="7.36267">
        <ele>1432</ele>
        <time>2019-04-20T12:32:41.000Z</time>
      </trkpt>
      <trkpt lat="43.93385" lon="7.3627">
        <ele>1431.5999755859</ele>
        <time>2019-04-20T12:32:43.000Z</time>
      </trkpt>
      <trkpt lat="43.9339" lon="7.36271">
        <ele>1431.4000244141</ele>
        <time>2019-04-20T12:32:44.000Z</time>
      </trkpt>
      <trkpt lat="43.93395" lon="7.36273">
        <ele>1431.4000244141</ele>
        <time>2019-04-20T12:32:45.000Z</time>
      </trkpt>
      <trkpt lat="43.93401" lon="7.36274">
        <ele>1431.1999511719</ele>
        <time>2019-04-20T12:32:46.000Z</time>
      </trkpt>
      <trkpt lat="43.93412" lon="7.36279">
        <ele>1430.8000488281</ele>
        <time>2019-04-20T12:32:48.000Z</time>
      </trkpt>
      <trkpt lat="43.93424" lon="7.36286">
        <ele>1430</ele>
        <time>2019-04-20T12:32:50.000Z</time>
      </trkpt>
      <trkpt lat="43.93431" lon="7.3629">
        <ele>1429.4000244141</ele>
        <time>2019-04-20T12:32:51.000Z</time>
      </trkpt>
      <trkpt lat="43.93437" lon="7.36295">
        <ele>1428.8000488281</ele>
        <time>2019-04-20T12:32:52.000Z</time>
      </trkpt>
      <trkpt lat="43.93449" lon="7.36306">
        <ele>1427.8000488281</ele>
        <time>2019-04-20T12:32:54.000Z</time>
      </trkpt>
      <trkpt lat="43.93463" lon="7.36317">
        <ele>1426.1999511719</ele>
        <time>2019-04-20T12:32:56.000Z</time>
      </trkpt>
      <trkpt lat="43.93471" lon="7.36322">
        <ele>1425.5999755859</ele>
        <time>2019-04-20T12:32:57.000Z</time>
      </trkpt>
      <trkpt lat="43.93479" lon="7.36326">
        <ele>1425</ele>
        <time>2019-04-20T12:32:58.000Z</time>
      </trkpt>
      <trkpt lat="43.93494" lon="7.36332">
        <ele>1424</ele>
        <time>2019-04-20T12:33:00.000Z</time>
      </trkpt>
      <trkpt lat="43.93502" lon="7.36335">
        <ele>1423.5999755859</ele>
        <time>2019-04-20T12:33:01.000Z</time>
      </trkpt>
      <trkpt lat="43.93515" lon="7.3634">
        <ele>1422.4000244141</ele>
        <time>2019-04-20T12:33:03.000Z</time>
      </trkpt>
      <trkpt lat="43.93541" lon="7.36348">
        <ele>1421.8000488281</ele>
        <time>2019-04-20T12:33:07.000Z</time>
      </trkpt>
      <trkpt lat="43.93569" lon="7.36354">
        <ele>1421.5999755859</ele>
        <time>2019-04-20T12:33:12.000Z</time>
      </trkpt>
      <trkpt lat="43.93574" lon="7.36355">
        <ele>1421.4000244141</ele>
        <time>2019-04-20T12:33:13.000Z</time>
      </trkpt>
      <trkpt lat="43.93591" lon="7.36353">
        <ele>1420.1999511719</ele>
        <time>2019-04-20T12:33:16.000Z</time>
      </trkpt>
      <trkpt lat="43.93597" lon="7.36352">
        <ele>1419.8000488281</ele>
        <time>2019-04-20T12:33:17.000Z</time>
      </trkpt>
      <trkpt lat="43.93609" lon="7.3635">
        <ele>1419.1999511719</ele>
        <time>2019-04-20T12:33:19.000Z</time>
      </trkpt>
      <trkpt lat="43.93627" lon="7.36351">
        <ele>1418.8000488281</ele>
        <time>2019-04-20T12:33:22.000Z</time>
      </trkpt>
      <trkpt lat="43.93633" lon="7.36351">
        <ele>1418.8000488281</ele>
        <time>2019-04-20T12:33:23.000Z</time>
      </trkpt>
      <trkpt lat="43.93646" lon="7.36348">
        <ele>1418.1999511719</ele>
        <time>2019-04-20T12:33:25.000Z</time>
      </trkpt>
      <trkpt lat="43.93652" lon="7.36344">
        <ele>1417.5999755859</ele>
        <time>2019-04-20T12:33:26.000Z</time>
      </trkpt>
      <trkpt lat="43.93658" lon="7.3634">
        <ele>1417</ele>
        <time>2019-04-20T12:33:27.000Z</time>
      </trkpt>
      <trkpt lat="43.93664" lon="7.36336">
        <ele>1416</ele>
        <time>2019-04-20T12:33:28.000Z</time>
      </trkpt>
      <trkpt lat="43.93671" lon="7.36333">
        <ele>1415.5999755859</ele>
        <time>2019-04-20T12:33:29.000Z</time>
      </trkpt>
      <trkpt lat="43.93678" lon="7.36331">
        <ele>1415</ele>
        <time>2019-04-20T12:33:30.000Z</time>
      </trkpt>
      <trkpt lat="43.93706" lon="7.36319">
        <ele>1414.8000488281</ele>
        <time>2019-04-20T12:33:35.000Z</time>
      </trkpt>
      <trkpt lat="43.93711" lon="7.36316">
        <ele>1414.5999755859</ele>
        <time>2019-04-20T12:33:36.000Z</time>
      </trkpt>
      <trkpt lat="43.93728" lon="7.36305">
        <ele>1414.4000244141</ele>
        <time>2019-04-20T12:33:39.000Z</time>
      </trkpt>
      <trkpt lat="43.9374" lon="7.36297">
        <ele>1414</ele>
        <time>2019-04-20T12:33:41.000Z</time>
      </trkpt>
      <trkpt lat="43.93745" lon="7.36295">
        <ele>1413.4000244141</ele>
        <time>2019-04-20T12:33:42.000Z</time>
      </trkpt>
      <trkpt lat="43.93749" lon="7.36293">
        <ele>1412.8000488281</ele>
        <time>2019-04-20T12:33:43.000Z</time>
      </trkpt>
      <trkpt lat="43.93754" lon="7.36291">
        <ele>1412.4000244141</ele>
        <time>2019-04-20T12:33:45.000Z</time>
      </trkpt>
      <trkpt lat="43.93755" lon="7.36289">
        <ele>1412.5999755859</ele>
        <time>2019-04-20T12:33:46.000Z</time>
      </trkpt>
      <trkpt lat="43.93766" lon="7.36281">
        <ele>1412.8000488281</ele>
        <time>2019-04-20T12:33:50.000Z</time>
      </trkpt>
      <trkpt lat="43.93774" lon="7.36275">
        <ele>1412</ele>
        <time>2019-04-20T12:33:53.000Z</time>
      </trkpt>
      <trkpt lat="43.93782" lon="7.36268">
        <ele>1412.5999755859</ele>
        <time>2019-04-20T12:33:57.000Z</time>
      </trkpt>
      <trkpt lat="43.9379" lon="7.36255">
        <ele>1412.4000244141</ele>
        <time>2019-04-20T12:34:02.000Z</time>
      </trkpt>
      <trkpt lat="43.93795" lon="7.36249">
        <ele>1411.5999755859</ele>
        <time>2019-04-20T12:34:04.000Z</time>
      </trkpt>
      <trkpt lat="43.93798" lon="7.36246">
        <ele>1411.4000244141</ele>
        <time>2019-04-20T12:34:05.000Z</time>
      </trkpt>
      <trkpt lat="43.93804" lon="7.36239">
        <ele>1410.4000244141</ele>
        <time>2019-04-20T12:34:07.000Z</time>
      </trkpt>
      <trkpt lat="43.93809" lon="7.36234">
        <ele>1409.4000244141</ele>
        <time>2019-04-20T12:34:09.000Z</time>
      </trkpt>
      <trkpt lat="43.93818" lon="7.36223">
        <ele>1408.5999755859</ele>
        <time>2019-04-20T12:34:14.000Z</time>
      </trkpt>
      <trkpt lat="43.93825" lon="7.3622">
        <ele>1408.1999511719</ele>
        <time>2019-04-20T12:34:15.000Z</time>
      </trkpt>
      <trkpt lat="43.93835" lon="7.36213">
        <ele>1406.4000244141</ele>
        <time>2019-04-20T12:34:17.000Z</time>
      </trkpt>
      <trkpt lat="43.9384" lon="7.36209">
        <ele>1405.4000244141</ele>
        <time>2019-04-20T12:34:18.000Z</time>
      </trkpt>
      <trkpt lat="43.93845" lon="7.36206">
        <ele>1404</ele>
        <time>2019-04-20T12:34:19.000Z</time>
      </trkpt>
      <trkpt lat="43.9385" lon="7.36201">
        <ele>1403</ele>
        <time>2019-04-20T12:34:20.000Z</time>
      </trkpt>
      <trkpt lat="43.93854" lon="7.36197">
        <ele>1400.8000488281</ele>
        <time>2019-04-20T12:34:21.000Z</time>
      </trkpt>
      <trkpt lat="43.93859" lon="7.36193">
        <ele>1400.4000244141</ele>
        <time>2019-04-20T12:34:22.000Z</time>
      </trkpt>
      <trkpt lat="43.93863" lon="7.3619">
        <ele>1399.1999511719</ele>
        <time>2019-04-20T12:34:23.000Z</time>
      </trkpt>
      <trkpt lat="43.93871" lon="7.36182">
        <ele>1396.1999511719</ele>
        <time>2019-04-20T12:34:25.000Z</time>
      </trkpt>
      <trkpt lat="43.93874" lon="7.36179">
        <ele>1395.8000488281</ele>
        <time>2019-04-20T12:34:26.000Z</time>
      </trkpt>
      <trkpt lat="43.93882" lon="7.36173">
        <ele>1395</ele>
        <time>2019-04-20T12:34:29.000Z</time>
      </trkpt>
      <trkpt lat="43.93888" lon="7.36163">
        <ele>1395.8000488281</ele>
        <time>2019-04-20T12:34:31.000Z</time>
      </trkpt>
      <trkpt lat="43.93899" lon="7.36146">
        <ele>1395</ele>
        <time>2019-04-20T12:34:34.000Z</time>
      </trkpt>
      <trkpt lat="43.93907" lon="7.36142">
        <ele>1394</ele>
        <time>2019-04-20T12:34:36.000Z</time>
      </trkpt>
      <trkpt lat="43.93909" lon="7.36142">
        <ele>1393.8000488281</ele>
        <time>2019-04-20T12:34:39.000Z</time>
      </trkpt>
      <trkpt lat="43.93912" lon="7.36143">
        <ele>1394.1999511719</ele>
        <time>2019-04-20T12:34:40.000Z</time>
      </trkpt>
      <trkpt lat="43.93918" lon="7.36139">
        <ele>1394.8000488281</ele>
        <time>2019-04-20T12:34:42.000Z</time>
      </trkpt>
      <trkpt lat="43.93923" lon="7.36139">
        <ele>1394</ele>
        <time>2019-04-20T12:34:44.000Z</time>
      </trkpt>
      <trkpt lat="43.93927" lon="7.36142">
        <ele>1393.8000488281</ele>
        <time>2019-04-20T12:34:46.000Z</time>
      </trkpt>
      <trkpt lat="43.9393" lon="7.36137">
        <ele>1393.1999511719</ele>
        <time>2019-04-20T12:34:49.000Z</time>
      </trkpt>
      <trkpt lat="43.93931" lon="7.36136">
        <ele>1392.5999755859</ele>
        <time>2019-04-20T12:34:50.000Z</time>
      </trkpt>
      <trkpt lat="43.93939" lon="7.3613">
        <ele>1391.4000244141</ele>
        <time>2019-04-20T12:34:52.000Z</time>
      </trkpt>
      <trkpt lat="43.93943" lon="7.36127">
        <ele>1391.4000244141</ele>
        <time>2019-04-20T12:34:53.000Z</time>
      </trkpt>
      <trkpt lat="43.93951" lon="7.3612">
        <ele>1390.4000244141</ele>
        <time>2019-04-20T12:34:55.000Z</time>
      </trkpt>
      <trkpt lat="43.93959" lon="7.36116">
        <ele>1388.8000488281</ele>
        <time>2019-04-20T12:34:57.000Z</time>
      </trkpt>
      <trkpt lat="43.93964" lon="7.36115">
        <ele>1387.4000244141</ele>
        <time>2019-04-20T12:34:58.000Z</time>
      </trkpt>
      <trkpt lat="43.93972" lon="7.36114">
        <ele>1385.8000488281</ele>
        <time>2019-04-20T12:35:00.000Z</time>
      </trkpt>
      <trkpt lat="43.93976" lon="7.36114">
        <ele>1385.1999511719</ele>
        <time>2019-04-20T12:35:01.000Z</time>
      </trkpt>
      <trkpt lat="43.93979" lon="7.36112">
        <ele>1384.4000244141</ele>
        <time>2019-04-20T12:35:02.000Z</time>
      </trkpt>
      <trkpt lat="43.93981" lon="7.36111">
        <ele>1383.5999755859</ele>
        <time>2019-04-20T12:35:03.000Z</time>
      </trkpt>
      <trkpt lat="43.93984" lon="7.3611">
        <ele>1383</ele>
        <time>2019-04-20T12:35:04.000Z</time>
      </trkpt>
      <trkpt lat="43.93987" lon="7.36106">
        <ele>1381.4000244141</ele>
        <time>2019-04-20T12:35:06.000Z</time>
      </trkpt>
      <trkpt lat="43.9399" lon="7.36104">
        <ele>1381.1999511719</ele>
        <time>2019-04-20T12:35:08.000Z</time>
      </trkpt>
      <trkpt lat="43.94001" lon="7.36099">
        <ele>1380.4000244141</ele>
        <time>2019-04-20T12:35:12.000Z</time>
      </trkpt>
      <trkpt lat="43.94004" lon="7.36098">
        <ele>1379.8000488281</ele>
        <time>2019-04-20T12:35:13.000Z</time>
      </trkpt>
      <trkpt lat="43.9401" lon="7.36103">
        <ele>1379.4000244141</ele>
        <time>2019-04-20T12:35:15.000Z</time>
      </trkpt>
      <trkpt lat="43.94013" lon="7.36106">
        <ele>1378.5999755859</ele>
        <time>2019-04-20T12:35:16.000Z</time>
      </trkpt>
      <trkpt lat="43.94019" lon="7.36108">
        <ele>1378.1999511719</ele>
        <time>2019-04-20T12:35:18.000Z</time>
      </trkpt>
      <trkpt lat="43.94023" lon="7.36107">
        <ele>1377</ele>
        <time>2019-04-20T12:35:20.000Z</time>
      </trkpt>
      <trkpt lat="43.94026" lon="7.36106">
        <ele>1376.5999755859</ele>
        <time>2019-04-20T12:35:21.000Z</time>
      </trkpt>
      <trkpt lat="43.94028" lon="7.36105">
        <ele>1375.8000488281</ele>
        <time>2019-04-20T12:35:22.000Z</time>
      </trkpt>
      <trkpt lat="43.94036" lon="7.36103">
        <ele>1374.5999755859</ele>
        <time>2019-04-20T12:35:26.000Z</time>
      </trkpt>
      <trkpt lat="43.94037" lon="7.36103">
        <ele>1374</ele>
        <time>2019-04-20T12:35:27.000Z</time>
      </trkpt>
      <trkpt lat="43.94039" lon="7.36102">
        <ele>1373.5999755859</ele>
        <time>2019-04-20T12:35:28.000Z</time>
      </trkpt>
      <trkpt lat="43.94048" lon="7.361">
        <ele>1372.4000244141</ele>
        <time>2019-04-20T12:35:31.000Z</time>
      </trkpt>
      <trkpt lat="43.94051" lon="7.361">
        <ele>1371.4000244141</ele>
        <time>2019-04-20T12:35:33.000Z</time>
      </trkpt>
      <trkpt lat="43.94052" lon="7.36099">
        <ele>1371</ele>
        <time>2019-04-20T12:35:34.000Z</time>
      </trkpt>
      <trkpt lat="43.94056" lon="7.36097">
        <ele>1370.5999755859</ele>
        <time>2019-04-20T12:35:39.000Z</time>
      </trkpt>
      <trkpt lat="43.94056" lon="7.36098">
        <ele>1370.1999511719</ele>
        <time>2019-04-20T12:35:50.000Z</time>
      </trkpt>
      <trkpt lat="43.9406" lon="7.36099">
        <ele>1370.5999755859</ele>
        <time>2019-04-20T12:35:56.000Z</time>
      </trkpt>
      <trkpt lat="43.9406" lon="7.361">
        <ele>1371</ele>
        <time>2019-04-20T12:36:02.000Z</time>
      </trkpt>
      <trkpt lat="43.94068" lon="7.36104">
        <ele>1371</ele>
        <time>2019-04-20T12:36:09.000Z</time>
      </trkpt>
      <trkpt lat="43.94082" lon="7.36103">
        <ele>1370.5999755859</ele>
        <time>2019-04-20T12:36:15.000Z</time>
      </trkpt>
      <trkpt lat="43.94094" lon="7.36092">
        <ele>1370</ele>
        <time>2019-04-20T12:36:20.000Z</time>
      </trkpt>
      <trkpt lat="43.94103" lon="7.36081">
        <ele>1369</ele>
        <time>2019-04-20T12:36:25.000Z</time>
      </trkpt>
      <trkpt lat="43.94104" lon="7.36077">
        <ele>1369</ele>
        <time>2019-04-20T12:36:26.000Z</time>
      </trkpt>
      <trkpt lat="43.94107" lon="7.36076">
        <ele>1368.8000488281</ele>
        <time>2019-04-20T12:36:28.000Z</time>
      </trkpt>
      <trkpt lat="43.9411" lon="7.36076">
        <ele>1369</ele>
        <time>2019-04-20T12:36:30.000Z</time>
      </trkpt>
      <trkpt lat="43.94111" lon="7.36077">
        <ele>1368.8000488281</ele>
        <time>2019-04-20T12:36:35.000Z</time>
      </trkpt>
      <trkpt lat="43.94118" lon="7.3608">
        <ele>1368.5999755859</ele>
        <time>2019-04-20T12:36:39.000Z</time>
      </trkpt>
      <trkpt lat="43.94137" lon="7.36075">
        <ele>1368.5999755859</ele>
        <time>2019-04-20T12:36:45.000Z</time>
      </trkpt>
      <trkpt lat="43.9415" lon="7.36071">
        <ele>1368</ele>
        <time>2019-04-20T12:36:49.000Z</time>
      </trkpt>
      <trkpt lat="43.94157" lon="7.36069">
        <ele>1367.5999755859</ele>
        <time>2019-04-20T12:36:51.000Z</time>
      </trkpt>
      <trkpt lat="43.9416" lon="7.36067">
        <ele>1367.1999511719</ele>
        <time>2019-04-20T12:36:54.000Z</time>
      </trkpt>
      <trkpt lat="43.94162" lon="7.36066">
        <ele>1367</ele>
        <time>2019-04-20T12:36:58.000Z</time>
      </trkpt>
      <trkpt lat="43.94165" lon="7.36065">
        <ele>1367</ele>
        <time>2019-04-20T12:37:02.000Z</time>
      </trkpt>
      <trkpt lat="43.94174" lon="7.36058">
        <ele>1367</ele>
        <time>2019-04-20T12:37:07.000Z</time>
      </trkpt>
      <trkpt lat="43.94185" lon="7.36055">
        <ele>1366.5999755859</ele>
        <time>2019-04-20T12:37:12.000Z</time>
      </trkpt>
      <trkpt lat="43.94192" lon="7.36052">
        <ele>1366</ele>
        <time>2019-04-20T12:37:16.000Z</time>
      </trkpt>
      <trkpt lat="43.94195" lon="7.36052">
        <ele>1365.5999755859</ele>
        <time>2019-04-20T12:37:17.000Z</time>
      </trkpt>
      <trkpt lat="43.94203" lon="7.3605">
        <ele>1365.1999511719</ele>
        <time>2019-04-20T12:37:20.000Z</time>
      </trkpt>
      <trkpt lat="43.9421" lon="7.36048">
        <ele>1364.8000488281</ele>
        <time>2019-04-20T12:37:22.000Z</time>
      </trkpt>
      <trkpt lat="43.94216" lon="7.36044">
        <ele>1364.4000244141</ele>
        <time>2019-04-20T12:37:24.000Z</time>
      </trkpt>
      <trkpt lat="43.94221" lon="7.36038">
        <ele>1363.8000488281</ele>
        <time>2019-04-20T12:37:26.000Z</time>
      </trkpt>
      <trkpt lat="43.94227" lon="7.36031">
        <ele>1363.5999755859</ele>
        <time>2019-04-20T12:37:29.000Z</time>
      </trkpt>
      <trkpt lat="43.94232" lon="7.36025">
        <ele>1363.5999755859</ele>
        <time>2019-04-20T12:37:32.000Z</time>
      </trkpt>
      <trkpt lat="43.94235" lon="7.36023">
        <ele>1363.4000244141</ele>
        <time>2019-04-20T12:37:33.000Z</time>
      </trkpt>
      <trkpt lat="43.94242" lon="7.36021">
        <ele>1362.5999755859</ele>
        <time>2019-04-20T12:37:35.000Z</time>
      </trkpt>
      <trkpt lat="43.94246" lon="7.3602">
        <ele>1362.1999511719</ele>
        <time>2019-04-20T12:37:36.000Z</time>
      </trkpt>
      <trkpt lat="43.9425" lon="7.36018">
        <ele>1362.1999511719</ele>
        <time>2019-04-20T12:37:37.000Z</time>
      </trkpt>
      <trkpt lat="43.94254" lon="7.36015">
        <ele>1361.8000488281</ele>
        <time>2019-04-20T12:37:38.000Z</time>
      </trkpt>
      <trkpt lat="43.94258" lon="7.36012">
        <ele>1361</ele>
        <time>2019-04-20T12:37:39.000Z</time>
      </trkpt>
      <trkpt lat="43.94265" lon="7.36004">
        <ele>1359.4000244141</ele>
        <time>2019-04-20T12:37:41.000Z</time>
      </trkpt>
      <trkpt lat="43.94272" lon="7.36">
        <ele>1358.1999511719</ele>
        <time>2019-04-20T12:37:43.000Z</time>
      </trkpt>
      <trkpt lat="43.94282" lon="7.35994">
        <ele>1357.5999755859</ele>
        <time>2019-04-20T12:37:46.000Z</time>
      </trkpt>
      <trkpt lat="43.94285" lon="7.3599">
        <ele>1357</ele>
        <time>2019-04-20T12:37:47.000Z</time>
      </trkpt>
      <trkpt lat="43.94291" lon="7.35984">
        <ele>1356.4000244141</ele>
        <time>2019-04-20T12:37:50.000Z</time>
      </trkpt>
      <trkpt lat="43.94292" lon="7.35985">
        <ele>1356</ele>
        <time>2019-04-20T12:37:51.000Z</time>
      </trkpt>
      <trkpt lat="43.94297" lon="7.35983">
        <ele>1356.8000488281</ele>
        <time>2019-04-20T12:37:54.000Z</time>
      </trkpt>
      <trkpt lat="43.94299" lon="7.35981">
        <ele>1357</ele>
        <time>2019-04-20T12:37:55.000Z</time>
      </trkpt>
      <trkpt lat="43.94301" lon="7.3598">
        <ele>1357.4000244141</ele>
        <time>2019-04-20T12:37:56.000Z</time>
      </trkpt>
      <trkpt lat="43.94307" lon="7.35973">
        <ele>1358.1999511719</ele>
        <time>2019-04-20T12:38:00.000Z</time>
      </trkpt>
      <trkpt lat="43.9431" lon="7.3597">
        <ele>1358.4000244141</ele>
        <time>2019-04-20T12:38:02.000Z</time>
      </trkpt>
      <trkpt lat="43.94315" lon="7.35965">
        <ele>1358.8000488281</ele>
        <time>2019-04-20T12:38:05.000Z</time>
      </trkpt>
      <trkpt lat="43.94317" lon="7.35964">
        <ele>1358.8000488281</ele>
        <time>2019-04-20T12:38:06.000Z</time>
      </trkpt>
      <trkpt lat="43.9432" lon="7.35962">
        <ele>1359.1999511719</ele>
        <time>2019-04-20T12:38:09.000Z</time>
      </trkpt>
      <trkpt lat="43.94323" lon="7.35961">
        <ele>1360</ele>
        <time>2019-04-20T12:38:13.000Z</time>
      </trkpt>
      <trkpt lat="43.94324" lon="7.3596">
        <ele>1360.1999511719</ele>
        <time>2019-04-20T12:38:14.000Z</time>
      </trkpt>
      <trkpt lat="43.94325" lon="7.35959">
        <ele>1360.5999755859</ele>
        <time>2019-04-20T12:38:15.000Z</time>
      </trkpt>
      <trkpt lat="43.94326" lon="7.35957">
        <ele>1361.5999755859</ele>
        <time>2019-04-20T12:38:19.000Z</time>
      </trkpt>
      <trkpt lat="43.94327" lon="7.35956">
        <ele>1361.8000488281</ele>
        <time>2019-04-20T12:38:20.000Z</time>
      </trkpt>
      <trkpt lat="43.94331" lon="7.35951">
        <ele>1361.5999755859</ele>
        <time>2019-04-20T12:38:25.000Z</time>
      </trkpt>
      <trkpt lat="43.94333" lon="7.35948">
        <ele>1361.5999755859</ele>
        <time>2019-04-20T12:38:26.000Z</time>
      </trkpt>
      <trkpt lat="43.94337" lon="7.35942">
        <ele>1361.4000244141</ele>
        <time>2019-04-20T12:38:29.000Z</time>
      </trkpt>
      <trkpt lat="43.9434" lon="7.35937">
        <ele>1361.1999511719</ele>
        <time>2019-04-20T12:38:31.000Z</time>
      </trkpt>
      <trkpt lat="43.94342" lon="7.35932">
        <ele>1360.8000488281</ele>
        <time>2019-04-20T12:38:33.000Z</time>
      </trkpt>
      <trkpt lat="43.94345" lon="7.35925">
        <ele>1360.5999755859</ele>
        <time>2019-04-20T12:38:35.000Z</time>
      </trkpt>
      <trkpt lat="43.94349" lon="7.3592">
        <ele>1360.8000488281</ele>
        <time>2019-04-20T12:38:37.000Z</time>
      </trkpt>
      <trkpt lat="43.94359" lon="7.3591">
        <ele>1361.8000488281</ele>
        <time>2019-04-20T12:38:42.000Z</time>
      </trkpt>
      <trkpt lat="43.94363" lon="7.35906">
        <ele>1362</ele>
        <time>2019-04-20T12:38:44.000Z</time>
      </trkpt>
      <trkpt lat="43.94365" lon="7.35903">
        <ele>1361.8000488281</ele>
        <time>2019-04-20T12:38:45.000Z</time>
      </trkpt>
      <trkpt lat="43.94368" lon="7.35893">
        <ele>1361.4000244141</ele>
        <time>2019-04-20T12:38:48.000Z</time>
      </trkpt>
      <trkpt lat="43.94369" lon="7.35889">
        <ele>1361.4000244141</ele>
        <time>2019-04-20T12:38:49.000Z</time>
      </trkpt>
      <trkpt lat="43.94369" lon="7.35885">
        <ele>1361.1999511719</ele>
        <time>2019-04-20T12:38:50.000Z</time>
      </trkpt>
      <trkpt lat="43.94371" lon="7.35878">
        <ele>1361</ele>
        <time>2019-04-20T12:38:52.000Z</time>
      </trkpt>
      <trkpt lat="43.94375" lon="7.35865">
        <ele>1361.1999511719</ele>
        <time>2019-04-20T12:38:56.000Z</time>
      </trkpt>
      <trkpt lat="43.94381" lon="7.35843">
        <ele>1361.5999755859</ele>
        <time>2019-04-20T12:39:01.000Z</time>
      </trkpt>
      <trkpt lat="43.94381" lon="7.35834">
        <ele>1360.5999755859</ele>
        <time>2019-04-20T12:39:03.000Z</time>
      </trkpt>
      <trkpt lat="43.94379" lon="7.35831">
        <ele>1360.1999511719</ele>
        <time>2019-04-20T12:39:04.000Z</time>
      </trkpt>
      <trkpt lat="43.94377" lon="7.35828">
        <ele>1360</ele>
        <time>2019-04-20T12:39:05.000Z</time>
      </trkpt>
      <trkpt lat="43.94376" lon="7.35823">
        <ele>1359.1999511719</ele>
        <time>2019-04-20T12:39:06.000Z</time>
      </trkpt>
      <trkpt lat="43.94375" lon="7.35812">
        <ele>1358.4000244141</ele>
        <time>2019-04-20T12:39:09.000Z</time>
      </trkpt>
      <trkpt lat="43.94375" lon="7.35808">
        <ele>1358.1999511719</ele>
        <time>2019-04-20T12:39:10.000Z</time>
      </trkpt>
      <trkpt lat="43.94373" lon="7.35794">
        <ele>1357.4000244141</ele>
        <time>2019-04-20T12:39:13.000Z</time>
      </trkpt>
      <trkpt lat="43.94372" lon="7.35791">
        <ele>1357</ele>
        <time>2019-04-20T12:39:14.000Z</time>
      </trkpt>
      <trkpt lat="43.94371" lon="7.35782">
        <ele>1356.5999755859</ele>
        <time>2019-04-20T12:39:16.000Z</time>
      </trkpt>
      <trkpt lat="43.94371" lon="7.35775">
        <ele>1355.8000488281</ele>
        <time>2019-04-20T12:39:18.000Z</time>
      </trkpt>
      <trkpt lat="43.94369" lon="7.35767">
        <ele>1355.1999511719</ele>
        <time>2019-04-20T12:39:20.000Z</time>
      </trkpt>
      <trkpt lat="43.94368" lon="7.35762">
        <ele>1354.5999755859</ele>
        <time>2019-04-20T12:39:21.000Z</time>
      </trkpt>
      <trkpt lat="43.94366" lon="7.3575">
        <ele>1353.4000244141</ele>
        <time>2019-04-20T12:39:23.000Z</time>
      </trkpt>
      <trkpt lat="43.94366" lon="7.35745">
        <ele>1352</ele>
        <time>2019-04-20T12:39:24.000Z</time>
      </trkpt>
      <trkpt lat="43.94369" lon="7.3573">
        <ele>1351.1999511719</ele>
        <time>2019-04-20T12:39:26.000Z</time>
      </trkpt>
      <trkpt lat="43.94369" lon="7.35723">
        <ele>1350</ele>
        <time>2019-04-20T12:39:27.000Z</time>
      </trkpt>
      <trkpt lat="43.94366" lon="7.35712">
        <ele>1349</ele>
        <time>2019-04-20T12:39:29.000Z</time>
      </trkpt>
      <trkpt lat="43.94364" lon="7.35699">
        <ele>1347.1999511719</ele>
        <time>2019-04-20T12:39:31.000Z</time>
      </trkpt>
      <trkpt lat="43.94364" lon="7.35696">
        <ele>1345.5999755859</ele>
        <time>2019-04-20T12:39:32.000Z</time>
      </trkpt>
      <trkpt lat="43.94364" lon="7.35697">
        <ele>1344.5999755859</ele>
        <time>2019-04-20T12:39:33.000Z</time>
      </trkpt>
      <trkpt lat="43.94365" lon="7.35692">
        <ele>1343.1999511719</ele>
        <time>2019-04-20T12:39:36.000Z</time>
      </trkpt>
      <trkpt lat="43.94364" lon="7.3569">
        <ele>1344.1999511719</ele>
        <time>2019-04-20T12:39:38.000Z</time>
      </trkpt>
      <trkpt lat="43.94363" lon="7.35687">
        <ele>1344.1999511719</ele>
        <time>2019-04-20T12:39:41.000Z</time>
      </trkpt>
      <trkpt lat="43.94361" lon="7.3567">
        <ele>1343.1999511719</ele>
        <time>2019-04-20T12:39:46.000Z</time>
      </trkpt>
      <trkpt lat="43.9436" lon="7.35652">
        <ele>1341.8000488281</ele>
        <time>2019-04-20T12:39:49.000Z</time>
      </trkpt>
      <trkpt lat="43.94362" lon="7.35639">
        <ele>1340.5999755859</ele>
        <time>2019-04-20T12:39:51.000Z</time>
      </trkpt>
      <trkpt lat="43.94362" lon="7.3563">
        <ele>1340.4000244141</ele>
        <time>2019-04-20T12:39:52.000Z</time>
      </trkpt>
      <trkpt lat="43.94363" lon="7.35623">
        <ele>1339.1999511719</ele>
        <time>2019-04-20T12:39:53.000Z</time>
      </trkpt>
      <trkpt lat="43.94365" lon="7.35605">
        <ele>1337.5999755859</ele>
        <time>2019-04-20T12:39:56.000Z</time>
      </trkpt>
      <trkpt lat="43.94365" lon="7.356">
        <ele>1336</ele>
        <time>2019-04-20T12:39:57.000Z</time>
      </trkpt>
      <trkpt lat="43.94365" lon="7.35594">
        <ele>1335.4000244141</ele>
        <time>2019-04-20T12:39:58.000Z</time>
      </trkpt>
      <trkpt lat="43.94365" lon="7.35588">
        <ele>1333.8000488281</ele>
        <time>2019-04-20T12:39:59.000Z</time>
      </trkpt>
      <trkpt lat="43.94364" lon="7.3558">
        <ele>1333</ele>
        <time>2019-04-20T12:40:00.000Z</time>
      </trkpt>
      <trkpt lat="43.94363" lon="7.35571">
        <ele>1332</ele>
        <time>2019-04-20T12:40:01.000Z</time>
      </trkpt>
      <trkpt lat="43.94364" lon="7.35555">
        <ele>1330.8000488281</ele>
        <time>2019-04-20T12:40:03.000Z</time>
      </trkpt>
      <trkpt lat="43.94365" lon="7.35547">
        <ele>1329.8000488281</ele>
        <time>2019-04-20T12:40:04.000Z</time>
      </trkpt>
      <trkpt lat="43.94369" lon="7.35533">
        <ele>1328.1999511719</ele>
        <time>2019-04-20T12:40:06.000Z</time>
      </trkpt>
      <trkpt lat="43.94372" lon="7.35521">
        <ele>1327.4000244141</ele>
        <time>2019-04-20T12:40:08.000Z</time>
      </trkpt>
      <trkpt lat="43.94376" lon="7.3551">
        <ele>1327.1999511719</ele>
        <time>2019-04-20T12:40:10.000Z</time>
      </trkpt>
      <trkpt lat="43.94383" lon="7.355">
        <ele>1327.4000244141</ele>
        <time>2019-04-20T12:40:12.000Z</time>
      </trkpt>
      <trkpt lat="43.94385" lon="7.35494">
        <ele>1327</ele>
        <time>2019-04-20T12:40:13.000Z</time>
      </trkpt>
      <trkpt lat="43.94391" lon="7.35478">
        <ele>1326.1999511719</ele>
        <time>2019-04-20T12:40:16.000Z</time>
      </trkpt>
      <trkpt lat="43.94393" lon="7.35474">
        <ele>1325.1999511719</ele>
        <time>2019-04-20T12:40:17.000Z</time>
      </trkpt>
      <trkpt lat="43.94399" lon="7.35465">
        <ele>1323.1999511719</ele>
        <time>2019-04-20T12:40:20.000Z</time>
      </trkpt>
      <trkpt lat="43.94404" lon="7.35457">
        <ele>1321.8000488281</ele>
        <time>2019-04-20T12:40:23.000Z</time>
      </trkpt>
      <trkpt lat="43.94409" lon="7.35448">
        <ele>1320.4000244141</ele>
        <time>2019-04-20T12:40:25.000Z</time>
      </trkpt>
      <trkpt lat="43.94411" lon="7.35442">
        <ele>1319.1999511719</ele>
        <time>2019-04-20T12:40:27.000Z</time>
      </trkpt>
      <trkpt lat="43.94412" lon="7.35434">
        <ele>1317.5999755859</ele>
        <time>2019-04-20T12:40:29.000Z</time>
      </trkpt>
      <trkpt lat="43.94413" lon="7.35427">
        <ele>1316.4000244141</ele>
        <time>2019-04-20T12:40:31.000Z</time>
      </trkpt>
      <trkpt lat="43.94414" lon="7.35422">
        <ele>1315.1999511719</ele>
        <time>2019-04-20T12:40:32.000Z</time>
      </trkpt>
      <trkpt lat="43.94416" lon="7.35415">
        <ele>1313.5999755859</ele>
        <time>2019-04-20T12:40:34.000Z</time>
      </trkpt>
      <trkpt lat="43.94417" lon="7.35413">
        <ele>1312.8000488281</ele>
        <time>2019-04-20T12:40:35.000Z</time>
      </trkpt>
      <trkpt lat="43.94418" lon="7.35409">
        <ele>1312.1999511719</ele>
        <time>2019-04-20T12:40:36.000Z</time>
      </trkpt>
      <trkpt lat="43.9442" lon="7.35405">
        <ele>1311.1999511719</ele>
        <time>2019-04-20T12:40:37.000Z</time>
      </trkpt>
      <trkpt lat="43.94421" lon="7.354">
        <ele>1310.8000488281</ele>
        <time>2019-04-20T12:40:38.000Z</time>
      </trkpt>
      <trkpt lat="43.94422" lon="7.35394">
        <ele>1309.4000244141</ele>
        <time>2019-04-20T12:40:39.000Z</time>
      </trkpt>
      <trkpt lat="43.94423" lon="7.35383">
        <ele>1307.5999755859</ele>
        <time>2019-04-20T12:40:41.000Z</time>
      </trkpt>
      <trkpt lat="43.94423" lon="7.35376">
        <ele>1307.4000244141</ele>
        <time>2019-04-20T12:40:42.000Z</time>
      </trkpt>
      <trkpt lat="43.94424" lon="7.35369">
        <ele>1306</ele>
        <time>2019-04-20T12:40:43.000Z</time>
      </trkpt>
      <trkpt lat="43.94424" lon="7.35356">
        <ele>1304.1999511719</ele>
        <time>2019-04-20T12:40:45.000Z</time>
      </trkpt>
      <trkpt lat="43.94424" lon="7.35351">
        <ele>1303.8000488281</ele>
        <time>2019-04-20T12:40:46.000Z</time>
      </trkpt>
      <trkpt lat="43.94425" lon="7.35346">
        <ele>1302.8000488281</ele>
        <time>2019-04-20T12:40:47.000Z</time>
      </trkpt>
      <trkpt lat="43.94428" lon="7.35334">
        <ele>1300.8000488281</ele>
        <time>2019-04-20T12:40:49.000Z</time>
      </trkpt>
      <trkpt lat="43.94429" lon="7.35328">
        <ele>1299.4000244141</ele>
        <time>2019-04-20T12:40:50.000Z</time>
      </trkpt>
      <trkpt lat="43.9443" lon="7.35322">
        <ele>1298.1999511719</ele>
        <time>2019-04-20T12:40:51.000Z</time>
      </trkpt>
      <trkpt lat="43.94433" lon="7.35312">
        <ele>1296</ele>
        <time>2019-04-20T12:40:53.000Z</time>
      </trkpt>
      <trkpt lat="43.94435" lon="7.35307">
        <ele>1294.8000488281</ele>
        <time>2019-04-20T12:40:54.000Z</time>
      </trkpt>
      <trkpt lat="43.9444" lon="7.35298">
        <ele>1293</ele>
        <time>2019-04-20T12:40:56.000Z</time>
      </trkpt>
      <trkpt lat="43.94442" lon="7.35294">
        <ele>1291.1999511719</ele>
        <time>2019-04-20T12:40:57.000Z</time>
      </trkpt>
      <trkpt lat="43.94446" lon="7.3529">
        <ele>1290</ele>
        <time>2019-04-20T12:40:59.000Z</time>
      </trkpt>
      <trkpt lat="43.94449" lon="7.3529">
        <ele>1289.1999511719</ele>
        <time>2019-04-20T12:41:00.000Z</time>
      </trkpt>
      <trkpt lat="43.9445" lon="7.35291">
        <ele>1288.5999755859</ele>
        <time>2019-04-20T12:41:01.000Z</time>
      </trkpt>
      <trkpt lat="43.94451" lon="7.35292">
        <ele>1287.4000244141</ele>
        <time>2019-04-20T12:41:03.000Z</time>
      </trkpt>
      <trkpt lat="43.9445" lon="7.35292">
        <ele>1286.4000244141</ele>
        <time>2019-04-20T12:41:09.000Z</time>
      </trkpt>
      <trkpt lat="43.9445" lon="7.35295">
        <ele>1285.8000488281</ele>
        <time>2019-04-20T12:41:14.000Z</time>
      </trkpt>
      <trkpt lat="43.9445" lon="7.35294">
        <ele>1285.1999511719</ele>
        <time>2019-04-20T12:41:16.000Z</time>
      </trkpt>
      <trkpt lat="43.9445" lon="7.35299">
        <ele>1284.8000488281</ele>
        <time>2019-04-20T12:41:23.000Z</time>
      </trkpt>
      <trkpt lat="43.94451" lon="7.353">
        <ele>1284.1999511719</ele>
        <time>2019-04-20T12:41:25.000Z</time>
      </trkpt>
      <trkpt lat="43.94453" lon="7.35298">
        <ele>1283</ele>
        <time>2019-04-20T12:41:28.000Z</time>
      </trkpt>
      <trkpt lat="43.94454" lon="7.35298">
        <ele>1281.5999755859</ele>
        <time>2019-04-20T12:41:30.000Z</time>
      </trkpt>
      <trkpt lat="43.94454" lon="7.35298">
        <ele>1280.5999755859</ele>
        <time>2019-04-20T12:41:32.000Z</time>
      </trkpt>
      <trkpt lat="43.94454" lon="7.35297">
        <ele>1280.4000244141</ele>
        <time>2019-04-20T12:41:33.000Z</time>
      </trkpt>
      <trkpt lat="43.94457" lon="7.35295">
        <ele>1280.4000244141</ele>
        <time>2019-04-20T12:41:43.000Z</time>
      </trkpt>
      <trkpt lat="43.94459" lon="7.35293">
        <ele>1280.4000244141</ele>
        <time>2019-04-20T12:42:02.000Z</time>
      </trkpt>
      <trkpt lat="43.94463" lon="7.35291">
        <ele>1280.1999511719</ele>
        <time>2019-04-20T12:42:07.000Z</time>
      </trkpt>
      <trkpt lat="43.94464" lon="7.35291">
        <ele>1280.1999511719</ele>
        <time>2019-04-20T12:42:08.000Z</time>
      </trkpt>
      <trkpt lat="43.94471" lon="7.35288">
        <ele>1279.4000244141</ele>
        <time>2019-04-20T12:42:11.000Z</time>
      </trkpt>
      <trkpt lat="43.94476" lon="7.35284">
        <ele>1278.4000244141</ele>
        <time>2019-04-20T12:42:13.000Z</time>
      </trkpt>
      <trkpt lat="43.9448" lon="7.35282">
        <ele>1277.8000488281</ele>
        <time>2019-04-20T12:42:14.000Z</time>
      </trkpt>
      <trkpt lat="43.94487" lon="7.35279">
        <ele>1276.5999755859</ele>
        <time>2019-04-20T12:42:16.000Z</time>
      </trkpt>
      <trkpt lat="43.94489" lon="7.35278">
        <ele>1275.5999755859</ele>
        <time>2019-04-20T12:42:17.000Z</time>
      </trkpt>
      <trkpt lat="43.94492" lon="7.35278">
        <ele>1274</ele>
        <time>2019-04-20T12:42:18.000Z</time>
      </trkpt>
      <trkpt lat="43.94494" lon="7.35277">
        <ele>1272.8000488281</ele>
        <time>2019-04-20T12:42:19.000Z</time>
      </trkpt>
      <trkpt lat="43.94498" lon="7.35276">
        <ele>1271.1999511719</ele>
        <time>2019-04-20T12:42:20.000Z</time>
      </trkpt>
      <trkpt lat="43.94501" lon="7.35274">
        <ele>1270</ele>
        <time>2019-04-20T12:42:21.000Z</time>
      </trkpt>
      <trkpt lat="43.94504" lon="7.35273">
        <ele>1268.5999755859</ele>
        <time>2019-04-20T12:42:22.000Z</time>
      </trkpt>
      <trkpt lat="43.94511" lon="7.35271">
        <ele>1267</ele>
        <time>2019-04-20T12:42:24.000Z</time>
      </trkpt>
      <trkpt lat="43.94514" lon="7.35271">
        <ele>1265.8000488281</ele>
        <time>2019-04-20T12:42:25.000Z</time>
      </trkpt>
      <trkpt lat="43.9452" lon="7.3527">
        <ele>1263.8000488281</ele>
        <time>2019-04-20T12:42:27.000Z</time>
      </trkpt>
      <trkpt lat="43.94523" lon="7.35269">
        <ele>1262.5999755859</ele>
        <time>2019-04-20T12:42:28.000Z</time>
      </trkpt>
      <trkpt lat="43.94526" lon="7.35268">
        <ele>1261.8000488281</ele>
        <time>2019-04-20T12:42:29.000Z</time>
      </trkpt>
      <trkpt lat="43.9453" lon="7.35267">
        <ele>1260.4000244141</ele>
        <time>2019-04-20T12:42:30.000Z</time>
      </trkpt>
      <trkpt lat="43.94537" lon="7.35263">
        <ele>1258.5999755859</ele>
        <time>2019-04-20T12:42:32.000Z</time>
      </trkpt>
      <trkpt lat="43.94539" lon="7.35261">
        <ele>1257.5999755859</ele>
        <time>2019-04-20T12:42:33.000Z</time>
      </trkpt>
      <trkpt lat="43.94539" lon="7.35259">
        <ele>1256.1999511719</ele>
        <time>2019-04-20T12:42:34.000Z</time>
      </trkpt>
      <trkpt lat="43.94541" lon="7.35256">
        <ele>1255</ele>
        <time>2019-04-20T12:42:35.000Z</time>
      </trkpt>
      <trkpt lat="43.94542" lon="7.35256">
        <ele>1254.4000244141</ele>
        <time>2019-04-20T12:42:36.000Z</time>
      </trkpt>
      <trkpt lat="43.94543" lon="7.35259">
        <ele>1253.4000244141</ele>
        <time>2019-04-20T12:42:37.000Z</time>
      </trkpt>
      <trkpt lat="43.94543" lon="7.35264">
        <ele>1252.5999755859</ele>
        <time>2019-04-20T12:42:39.000Z</time>
      </trkpt>
      <trkpt lat="43.94544" lon="7.35264">
        <ele>1251.8000488281</ele>
        <time>2019-04-20T12:42:41.000Z</time>
      </trkpt>
      <trkpt lat="43.94544" lon="7.3526">
        <ele>1251.4000244141</ele>
        <time>2019-04-20T12:42:42.000Z</time>
      </trkpt>
      <trkpt lat="43.94545" lon="7.35257">
        <ele>1250.5999755859</ele>
        <time>2019-04-20T12:42:43.000Z</time>
      </trkpt>
      <trkpt lat="43.94549" lon="7.35258">
        <ele>1249.8000488281</ele>
        <time>2019-04-20T12:42:45.000Z</time>
      </trkpt>
      <trkpt lat="43.94549" lon="7.3526">
        <ele>1249.4000244141</ele>
        <time>2019-04-20T12:42:46.000Z</time>
      </trkpt>
      <trkpt lat="43.94548" lon="7.35267">
        <ele>1248.8000488281</ele>
        <time>2019-04-20T12:42:48.000Z</time>
      </trkpt>
      <trkpt lat="43.94547" lon="7.35271">
        <ele>1248.1999511719</ele>
        <time>2019-04-20T12:42:49.000Z</time>
      </trkpt>
      <trkpt lat="43.94544" lon="7.3528">
        <ele>1246.8000488281</ele>
        <time>2019-04-20T12:42:51.000Z</time>
      </trkpt>
      <trkpt lat="43.94542" lon="7.35284">
        <ele>1246</ele>
        <time>2019-04-20T12:42:52.000Z</time>
      </trkpt>
      <trkpt lat="43.9454" lon="7.35288">
        <ele>1245.1999511719</ele>
        <time>2019-04-20T12:42:53.000Z</time>
      </trkpt>
      <trkpt lat="43.94537" lon="7.35297">
        <ele>1244</ele>
        <time>2019-04-20T12:42:55.000Z</time>
      </trkpt>
      <trkpt lat="43.94533" lon="7.35305">
        <ele>1242.4000244141</ele>
        <time>2019-04-20T12:42:57.000Z</time>
      </trkpt>
      <trkpt lat="43.94529" lon="7.3531">
        <ele>1240.4000244141</ele>
        <time>2019-04-20T12:42:59.000Z</time>
      </trkpt>
      <trkpt lat="43.94528" lon="7.35312">
        <ele>1239</ele>
        <time>2019-04-20T12:43:00.000Z</time>
      </trkpt>
      <trkpt lat="43.94529" lon="7.35312">
        <ele>1237.8000488281</ele>
        <time>2019-04-20T12:43:01.000Z</time>
      </trkpt>
      <trkpt lat="43.94531" lon="7.35312">
        <ele>1237.1999511719</ele>
        <time>2019-04-20T12:43:02.000Z</time>
      </trkpt>
      <trkpt lat="43.94533" lon="7.35312">
        <ele>1236</ele>
        <time>2019-04-20T12:43:03.000Z</time>
      </trkpt>
      <trkpt lat="43.94539" lon="7.35311">
        <ele>1235.4000244141</ele>
        <time>2019-04-20T12:43:05.000Z</time>
      </trkpt>
      <trkpt lat="43.94543" lon="7.35312">
        <ele>1234.5999755859</ele>
        <time>2019-04-20T12:43:06.000Z</time>
      </trkpt>
      <trkpt lat="43.9455" lon="7.3531">
        <ele>1233.1999511719</ele>
        <time>2019-04-20T12:43:08.000Z</time>
      </trkpt>
      <trkpt lat="43.94556" lon="7.35307">
        <ele>1232</ele>
        <time>2019-04-20T12:43:10.000Z</time>
      </trkpt>
      <trkpt lat="43.9456" lon="7.35306">
        <ele>1231</ele>
        <time>2019-04-20T12:43:11.000Z</time>
      </trkpt>
      <trkpt lat="43.94562" lon="7.35304">
        <ele>1230</ele>
        <time>2019-04-20T12:43:12.000Z</time>
      </trkpt>
      <trkpt lat="43.94564" lon="7.35303">
        <ele>1228.5999755859</ele>
        <time>2019-04-20T12:43:13.000Z</time>
      </trkpt>
      <trkpt lat="43.94564" lon="7.35302">
        <ele>1227</ele>
        <time>2019-04-20T12:43:14.000Z</time>
      </trkpt>
      <trkpt lat="43.94565" lon="7.35301">
        <ele>1225.8000488281</ele>
        <time>2019-04-20T12:43:15.000Z</time>
      </trkpt>
      <trkpt lat="43.94568" lon="7.35298">
        <ele>1224</ele>
        <time>2019-04-20T12:43:17.000Z</time>
      </trkpt>
      <trkpt lat="43.9457" lon="7.35296">
        <ele>1223.8000488281</ele>
        <time>2019-04-20T12:43:18.000Z</time>
      </trkpt>
      <trkpt lat="43.94573" lon="7.3529">
        <ele>1223</ele>
        <time>2019-04-20T12:43:20.000Z</time>
      </trkpt>
      <trkpt lat="43.94574" lon="7.35286">
        <ele>1222.5999755859</ele>
        <time>2019-04-20T12:43:21.000Z</time>
      </trkpt>
      <trkpt lat="43.94575" lon="7.35282">
        <ele>1221.8000488281</ele>
        <time>2019-04-20T12:43:22.000Z</time>
      </trkpt>
      <trkpt lat="43.94578" lon="7.35276">
        <ele>1220.8000488281</ele>
        <time>2019-04-20T12:43:24.000Z</time>
      </trkpt>
      <trkpt lat="43.9458" lon="7.35273">
        <ele>1220.5999755859</ele>
        <time>2019-04-20T12:43:25.000Z</time>
      </trkpt>
      <trkpt lat="43.94585" lon="7.35264">
        <ele>1220</ele>
        <time>2019-04-20T12:43:27.000Z</time>
      </trkpt>
      <trkpt lat="43.94586" lon="7.35259">
        <ele>1218.8000488281</ele>
        <time>2019-04-20T12:43:28.000Z</time>
      </trkpt>
      <trkpt lat="43.94586" lon="7.35256">
        <ele>1217.5999755859</ele>
        <time>2019-04-20T12:43:29.000Z</time>
      </trkpt>
      <trkpt lat="43.94586" lon="7.35252">
        <ele>1216.8000488281</ele>
        <time>2019-04-20T12:43:30.000Z</time>
      </trkpt>
      <trkpt lat="43.94585" lon="7.35248">
        <ele>1216</ele>
        <time>2019-04-20T12:43:31.000Z</time>
      </trkpt>
      <trkpt lat="43.94584" lon="7.35243">
        <ele>1214.8000488281</ele>
        <time>2019-04-20T12:43:32.000Z</time>
      </trkpt>
      <trkpt lat="43.94581" lon="7.35232">
        <ele>1214</ele>
        <time>2019-04-20T12:43:34.000Z</time>
      </trkpt>
      <trkpt lat="43.94578" lon="7.35228">
        <ele>1213</ele>
        <time>2019-04-20T12:43:35.000Z</time>
      </trkpt>
      <trkpt lat="43.94575" lon="7.35222">
        <ele>1211.5999755859</ele>
        <time>2019-04-20T12:43:36.000Z</time>
      </trkpt>
      <trkpt lat="43.94574" lon="7.35218">
        <ele>1210.5999755859</ele>
        <time>2019-04-20T12:43:37.000Z</time>
      </trkpt>
      <trkpt lat="43.94572" lon="7.35212">
        <ele>1209.8000488281</ele>
        <time>2019-04-20T12:43:38.000Z</time>
      </trkpt>
      <trkpt lat="43.94569" lon="7.35206">
        <ele>1208.8000488281</ele>
        <time>2019-04-20T12:43:39.000Z</time>
      </trkpt>
      <trkpt lat="43.94567" lon="7.352">
        <ele>1207.8000488281</ele>
        <time>2019-04-20T12:43:40.000Z</time>
      </trkpt>
      <trkpt lat="43.94565" lon="7.35194">
        <ele>1207</ele>
        <time>2019-04-20T12:43:41.000Z</time>
      </trkpt>
      <trkpt lat="43.94563" lon="7.35187">
        <ele>1205.8000488281</ele>
        <time>2019-04-20T12:43:42.000Z</time>
      </trkpt>
      <trkpt lat="43.94562" lon="7.35182">
        <ele>1204</ele>
        <time>2019-04-20T12:43:43.000Z</time>
      </trkpt>
      <trkpt lat="43.94562" lon="7.35176">
        <ele>1203</ele>
        <time>2019-04-20T12:43:44.000Z</time>
      </trkpt>
      <trkpt lat="43.94562" lon="7.35171">
        <ele>1202</ele>
        <time>2019-04-20T12:43:45.000Z</time>
      </trkpt>
      <trkpt lat="43.94562" lon="7.35166">
        <ele>1201</ele>
        <time>2019-04-20T12:43:46.000Z</time>
      </trkpt>
      <trkpt lat="43.94563" lon="7.35156">
        <ele>1199.8000488281</ele>
        <time>2019-04-20T12:43:48.000Z</time>
      </trkpt>
      <trkpt lat="43.94563" lon="7.35154">
        <ele>1199.1999511719</ele>
        <time>2019-04-20T12:43:49.000Z</time>
      </trkpt>
      <trkpt lat="43.94564" lon="7.35152">
        <ele>1198.1999511719</ele>
        <time>2019-04-20T12:43:50.000Z</time>
      </trkpt>
      <trkpt lat="43.94564" lon="7.35152">
        <ele>1197</ele>
        <time>2019-04-20T12:43:51.000Z</time>
      </trkpt>
      <trkpt lat="43.94565" lon="7.3515">
        <ele>1195.8000488281</ele>
        <time>2019-04-20T12:43:52.000Z</time>
      </trkpt>
      <trkpt lat="43.94566" lon="7.35148">
        <ele>1194.1999511719</ele>
        <time>2019-04-20T12:43:54.000Z</time>
      </trkpt>
      <trkpt lat="43.94566" lon="7.35146">
        <ele>1194</ele>
        <time>2019-04-20T12:43:55.000Z</time>
      </trkpt>
      <trkpt lat="43.94568" lon="7.3514">
        <ele>1193.1999511719</ele>
        <time>2019-04-20T12:43:59.000Z</time>
      </trkpt>
      <trkpt lat="43.94569" lon="7.35124">
        <ele>1192.1999511719</ele>
        <time>2019-04-20T12:44:02.000Z</time>
      </trkpt>
      <trkpt lat="43.94569" lon="7.35118">
        <ele>1191.5999755859</ele>
        <time>2019-04-20T12:44:03.000Z</time>
      </trkpt>
      <trkpt lat="43.94569" lon="7.35113">
        <ele>1190.8000488281</ele>
        <time>2019-04-20T12:44:04.000Z</time>
      </trkpt>
      <trkpt lat="43.94569" lon="7.35104">
        <ele>1189.5999755859</ele>
        <time>2019-04-20T12:44:06.000Z</time>
      </trkpt>
      <trkpt lat="43.94569" lon="7.351">
        <ele>1189</ele>
        <time>2019-04-20T12:44:07.000Z</time>
      </trkpt>
      <trkpt lat="43.9457" lon="7.35097">
        <ele>1188</ele>
        <time>2019-04-20T12:44:08.000Z</time>
      </trkpt>
      <trkpt lat="43.94571" lon="7.35091">
        <ele>1186.1999511719</ele>
        <time>2019-04-20T12:44:10.000Z</time>
      </trkpt>
      <trkpt lat="43.94571" lon="7.35089">
        <ele>1185.4000244141</ele>
        <time>2019-04-20T12:44:11.000Z</time>
      </trkpt>
      <trkpt lat="43.94573" lon="7.35086">
        <ele>1183.1999511719</ele>
        <time>2019-04-20T12:44:12.000Z</time>
      </trkpt>
      <trkpt lat="43.94576" lon="7.35079">
        <ele>1181.5999755859</ele>
        <time>2019-04-20T12:44:14.000Z</time>
      </trkpt>
      <trkpt lat="43.94577" lon="7.35075">
        <ele>1180.4000244141</ele>
        <time>2019-04-20T12:44:15.000Z</time>
      </trkpt>
      <trkpt lat="43.94582" lon="7.35069">
        <ele>1179.1999511719</ele>
        <time>2019-04-20T12:44:17.000Z</time>
      </trkpt>
      <trkpt lat="43.94583" lon="7.35066">
        <ele>1177.5999755859</ele>
        <time>2019-04-20T12:44:18.000Z</time>
      </trkpt>
      <trkpt lat="43.94584" lon="7.35064">
        <ele>1176.5999755859</ele>
        <time>2019-04-20T12:44:19.000Z</time>
      </trkpt>
      <trkpt lat="43.94586" lon="7.35061">
        <ele>1175.4000244141</ele>
        <time>2019-04-20T12:44:20.000Z</time>
      </trkpt>
      <trkpt lat="43.94587" lon="7.35059">
        <ele>1174.1999511719</ele>
        <time>2019-04-20T12:44:21.000Z</time>
      </trkpt>
      <trkpt lat="43.94589" lon="7.35055">
        <ele>1172.5999755859</ele>
        <time>2019-04-20T12:44:23.000Z</time>
      </trkpt>
      <trkpt lat="43.94591" lon="7.35051">
        <ele>1171.8000488281</ele>
        <time>2019-04-20T12:44:24.000Z</time>
      </trkpt>
      <trkpt lat="43.94594" lon="7.35047">
        <ele>1171</ele>
        <time>2019-04-20T12:44:25.000Z</time>
      </trkpt>
      <trkpt lat="43.94597" lon="7.35045">
        <ele>1170</ele>
        <time>2019-04-20T12:44:26.000Z</time>
      </trkpt>
      <trkpt lat="43.94601" lon="7.35046">
        <ele>1169.4000244141</ele>
        <time>2019-04-20T12:44:27.000Z</time>
      </trkpt>
      <trkpt lat="43.94604" lon="7.35047">
        <ele>1169</ele>
        <time>2019-04-20T12:44:28.000Z</time>
      </trkpt>
      <trkpt lat="43.94612" lon="7.35046">
        <ele>1168</ele>
        <time>2019-04-20T12:44:30.000Z</time>
      </trkpt>
      <trkpt lat="43.94617" lon="7.35046">
        <ele>1167.5999755859</ele>
        <time>2019-04-20T12:44:31.000Z</time>
      </trkpt>
      <trkpt lat="43.94622" lon="7.35045">
        <ele>1167.1999511719</ele>
        <time>2019-04-20T12:44:32.000Z</time>
      </trkpt>
      <trkpt lat="43.94626" lon="7.35043">
        <ele>1166.4000244141</ele>
        <time>2019-04-20T12:44:33.000Z</time>
      </trkpt>
      <trkpt lat="43.94634" lon="7.35039">
        <ele>1164.5999755859</ele>
        <time>2019-04-20T12:44:35.000Z</time>
      </trkpt>
      <trkpt lat="43.94639" lon="7.35035">
        <ele>1163.5999755859</ele>
        <time>2019-04-20T12:44:36.000Z</time>
      </trkpt>
      <trkpt lat="43.94644" lon="7.35031">
        <ele>1162.5999755859</ele>
        <time>2019-04-20T12:44:37.000Z</time>
      </trkpt>
      <trkpt lat="43.9465" lon="7.35026">
        <ele>1161.5999755859</ele>
        <time>2019-04-20T12:44:38.000Z</time>
      </trkpt>
      <trkpt lat="43.94655" lon="7.35022">
        <ele>1160.1999511719</ele>
        <time>2019-04-20T12:44:39.000Z</time>
      </trkpt>
      <trkpt lat="43.94668" lon="7.35016">
        <ele>1158.4000244141</ele>
        <time>2019-04-20T12:44:41.000Z</time>
      </trkpt>
      <trkpt lat="43.94674" lon="7.35012">
        <ele>1157.1999511719</ele>
        <time>2019-04-20T12:44:42.000Z</time>
      </trkpt>
      <trkpt lat="43.94684" lon="7.35003">
        <ele>1155.8000488281</ele>
        <time>2019-04-20T12:44:44.000Z</time>
      </trkpt>
      <trkpt lat="43.94689" lon="7.35002">
        <ele>1154.5999755859</ele>
        <time>2019-04-20T12:44:45.000Z</time>
      </trkpt>
      <trkpt lat="43.94694" lon="7.35">
        <ele>1153.8000488281</ele>
        <time>2019-04-20T12:44:46.000Z</time>
      </trkpt>
      <trkpt lat="43.94699" lon="7.34996">
        <ele>1153.1999511719</ele>
        <time>2019-04-20T12:44:47.000Z</time>
      </trkpt>
      <trkpt lat="43.94704" lon="7.3499">
        <ele>1151.8000488281</ele>
        <time>2019-04-20T12:44:48.000Z</time>
      </trkpt>
      <trkpt lat="43.94707" lon="7.34985">
        <ele>1150.4000244141</ele>
        <time>2019-04-20T12:44:49.000Z</time>
      </trkpt>
      <trkpt lat="43.94713" lon="7.34974">
        <ele>1149.1999511719</ele>
        <time>2019-04-20T12:44:51.000Z</time>
      </trkpt>
      <trkpt lat="43.94715" lon="7.34969">
        <ele>1147.8000488281</ele>
        <time>2019-04-20T12:44:52.000Z</time>
      </trkpt>
      <trkpt lat="43.94716" lon="7.34964">
        <ele>1146.8000488281</ele>
        <time>2019-04-20T12:44:53.000Z</time>
      </trkpt>
      <trkpt lat="43.94717" lon="7.34956">
        <ele>1146</ele>
        <time>2019-04-20T12:44:55.000Z</time>
      </trkpt>
      <trkpt lat="43.94718" lon="7.34953">
        <ele>1145</ele>
        <time>2019-04-20T12:44:56.000Z</time>
      </trkpt>
      <trkpt lat="43.94717" lon="7.34945">
        <ele>1143.5999755859</ele>
        <time>2019-04-20T12:44:59.000Z</time>
      </trkpt>
      <trkpt lat="43.94718" lon="7.34929">
        <ele>1141.1999511719</ele>
        <time>2019-04-20T12:45:02.000Z</time>
      </trkpt>
      <trkpt lat="43.94722" lon="7.34915">
        <ele>1139.8000488281</ele>
        <time>2019-04-20T12:45:04.000Z</time>
      </trkpt>
      <trkpt lat="43.94726" lon="7.34911">
        <ele>1139</ele>
        <time>2019-04-20T12:45:05.000Z</time>
      </trkpt>
      <trkpt lat="43.94731" lon="7.34907">
        <ele>1138</ele>
        <time>2019-04-20T12:45:06.000Z</time>
      </trkpt>
      <trkpt lat="43.9474" lon="7.34899">
        <ele>1136.4000244141</ele>
        <time>2019-04-20T12:45:08.000Z</time>
      </trkpt>
      <trkpt lat="43.94743" lon="7.34897">
        <ele>1136.1999511719</ele>
        <time>2019-04-20T12:45:09.000Z</time>
      </trkpt>
      <trkpt lat="43.94748" lon="7.34892">
        <ele>1135.4000244141</ele>
        <time>2019-04-20T12:45:11.000Z</time>
      </trkpt>
      <trkpt lat="43.94752" lon="7.34888">
        <ele>1134.8000488281</ele>
        <time>2019-04-20T12:45:13.000Z</time>
      </trkpt>
      <trkpt lat="43.94756" lon="7.34886">
        <ele>1134.1999511719</ele>
        <time>2019-04-20T12:45:15.000Z</time>
      </trkpt>
      <trkpt lat="43.9476" lon="7.34884">
        <ele>1133.5999755859</ele>
        <time>2019-04-20T12:45:18.000Z</time>
      </trkpt>
      <trkpt lat="43.94774" lon="7.34875">
        <ele>1133</ele>
        <time>2019-04-20T12:45:22.000Z</time>
      </trkpt>
      <trkpt lat="43.94779" lon="7.34873">
        <ele>1132.4000244141</ele>
        <time>2019-04-20T12:45:23.000Z</time>
      </trkpt>
      <trkpt lat="43.94783" lon="7.3487">
        <ele>1131.8000488281</ele>
        <time>2019-04-20T12:45:24.000Z</time>
      </trkpt>
      <trkpt lat="43.94787" lon="7.34867">
        <ele>1131.4000244141</ele>
        <time>2019-04-20T12:45:25.000Z</time>
      </trkpt>
      <trkpt lat="43.94794" lon="7.34857">
        <ele>1131</ele>
        <time>2019-04-20T12:45:28.000Z</time>
      </trkpt>
      <trkpt lat="43.948" lon="7.34837">
        <ele>1131.4000244141</ele>
        <time>2019-04-20T12:45:32.000Z</time>
      </trkpt>
      <trkpt lat="43.94796" lon="7.34826">
        <ele>1132.1999511719</ele>
        <time>2019-04-20T12:45:35.000Z</time>
      </trkpt>
      <trkpt lat="43.9479" lon="7.34823">
        <ele>1132.8000488281</ele>
        <time>2019-04-20T12:45:37.000Z</time>
      </trkpt>
      <trkpt lat="43.94782" lon="7.3482">
        <ele>1133.4000244141</ele>
        <time>2019-04-20T12:45:39.000Z</time>
      </trkpt>
      <trkpt lat="43.94762" lon="7.34813">
        <ele>1133</ele>
        <time>2019-04-20T12:45:44.000Z</time>
      </trkpt>
      <trkpt lat="43.94756" lon="7.34805">
        <ele>1132</ele>
        <time>2019-04-20T12:45:46.000Z</time>
      </trkpt>
      <trkpt lat="43.94753" lon="7.348">
        <ele>1131.8000488281</ele>
        <time>2019-04-20T12:45:47.000Z</time>
      </trkpt>
      <trkpt lat="43.94747" lon="7.34787">
        <ele>1130.4000244141</ele>
        <time>2019-04-20T12:45:50.000Z</time>
      </trkpt>
      <trkpt lat="43.94745" lon="7.34784">
        <ele>1130</ele>
        <time>2019-04-20T12:45:51.000Z</time>
      </trkpt>
      <trkpt lat="43.94739" lon="7.34778">
        <ele>1129.4000244141</ele>
        <time>2019-04-20T12:45:53.000Z</time>
      </trkpt>
      <trkpt lat="43.94736" lon="7.34774">
        <ele>1129</ele>
        <time>2019-04-20T12:45:54.000Z</time>
      </trkpt>
      <trkpt lat="43.94733" lon="7.34771">
        <ele>1128.8000488281</ele>
        <time>2019-04-20T12:45:55.000Z</time>
      </trkpt>
      <trkpt lat="43.94726" lon="7.34761">
        <ele>1127.8000488281</ele>
        <time>2019-04-20T12:45:58.000Z</time>
      </trkpt>
      <trkpt lat="43.94719" lon="7.34758">
        <ele>1127.5999755859</ele>
        <time>2019-04-20T12:46:00.000Z</time>
      </trkpt>
      <trkpt lat="43.94715" lon="7.34756">
        <ele>1127.4000244141</ele>
        <time>2019-04-20T12:46:01.000Z</time>
      </trkpt>
      <trkpt lat="43.94705" lon="7.3475">
        <ele>1126.4000244141</ele>
        <time>2019-04-20T12:46:04.000Z</time>
      </trkpt>
      <trkpt lat="43.94702" lon="7.34747">
        <ele>1125.8000488281</ele>
        <time>2019-04-20T12:46:05.000Z</time>
      </trkpt>
      <trkpt lat="43.94696" lon="7.34743">
        <ele>1125.4000244141</ele>
        <time>2019-04-20T12:46:07.000Z</time>
      </trkpt>
      <trkpt lat="43.94696" lon="7.34736">
        <ele>1124</ele>
        <time>2019-04-20T12:46:09.000Z</time>
      </trkpt>
      <trkpt lat="43.94698" lon="7.34726">
        <ele>1123.5999755859</ele>
        <time>2019-04-20T12:46:14.000Z</time>
      </trkpt>
      <trkpt lat="43.947" lon="7.34717">
        <ele>1123</ele>
        <time>2019-04-20T12:46:16.000Z</time>
      </trkpt>
      <trkpt lat="43.94701" lon="7.3471">
        <ele>1121.5999755859</ele>
        <time>2019-04-20T12:46:18.000Z</time>
      </trkpt>
      <trkpt lat="43.94702" lon="7.34707">
        <ele>1121.4000244141</ele>
        <time>2019-04-20T12:46:19.000Z</time>
      </trkpt>
      <trkpt lat="43.94702" lon="7.34704">
        <ele>1121</ele>
        <time>2019-04-20T12:46:20.000Z</time>
      </trkpt>
      <trkpt lat="43.94704" lon="7.34697">
        <ele>1120.4000244141</ele>
        <time>2019-04-20T12:46:23.000Z</time>
      </trkpt>
      <trkpt lat="43.94705" lon="7.3469">
        <ele>1119</ele>
        <time>2019-04-20T12:46:25.000Z</time>
      </trkpt>
      <trkpt lat="43.94705" lon="7.34686">
        <ele>1118.1999511719</ele>
        <time>2019-04-20T12:46:26.000Z</time>
      </trkpt>
      <trkpt lat="43.94704" lon="7.34678">
        <ele>1117.4000244141</ele>
        <time>2019-04-20T12:46:28.000Z</time>
      </trkpt>
      <trkpt lat="43.94703" lon="7.34673">
        <ele>1117.1999511719</ele>
        <time>2019-04-20T12:46:29.000Z</time>
      </trkpt>
      <trkpt lat="43.94704" lon="7.34667">
        <ele>1117.1999511719</ele>
        <time>2019-04-20T12:46:30.000Z</time>
      </trkpt>
      <trkpt lat="43.94703" lon="7.34657">
        <ele>1116.4000244141</ele>
        <time>2019-04-20T12:46:32.000Z</time>
      </trkpt>
      <trkpt lat="43.94704" lon="7.34652">
        <ele>1115.8000488281</ele>
        <time>2019-04-20T12:46:33.000Z</time>
      </trkpt>
      <trkpt lat="43.94708" lon="7.34647">
        <ele>1114.5999755859</ele>
        <time>2019-04-20T12:46:35.000Z</time>
      </trkpt>
      <trkpt lat="43.94716" lon="7.34639">
        <ele>1113.1999511719</ele>
        <time>2019-04-20T12:46:37.000Z</time>
      </trkpt>
      <trkpt lat="43.9472" lon="7.34635">
        <ele>1112.8000488281</ele>
        <time>2019-04-20T12:46:38.000Z</time>
      </trkpt>
      <trkpt lat="43.94725" lon="7.34631">
        <ele>1112</ele>
        <time>2019-04-20T12:46:39.000Z</time>
      </trkpt>
      <trkpt lat="43.94734" lon="7.34619">
        <ele>1111.1999511719</ele>
        <time>2019-04-20T12:46:42.000Z</time>
      </trkpt>
      <trkpt lat="43.94735" lon="7.34617">
        <ele>1111</ele>
        <time>2019-04-20T12:46:43.000Z</time>
      </trkpt>
      <trkpt lat="43.94736" lon="7.34615">
        <ele>1111.1999511719</ele>
        <time>2019-04-20T12:46:45.000Z</time>
      </trkpt>
      <trkpt lat="43.94739" lon="7.34607">
        <ele>1110.5999755859</ele>
        <time>2019-04-20T12:46:51.000Z</time>
      </trkpt>
      <trkpt lat="43.94743" lon="7.34596">
        <ele>1110.8000488281</ele>
        <time>2019-04-20T12:46:57.000Z</time>
      </trkpt>
      <trkpt lat="43.94744" lon="7.34592">
        <ele>1110.5999755859</ele>
        <time>2019-04-20T12:47:00.000Z</time>
      </trkpt>
      <trkpt lat="43.94746" lon="7.3459">
        <ele>1110.1999511719</ele>
        <time>2019-04-20T12:47:01.000Z</time>
      </trkpt>
      <trkpt lat="43.94748" lon="7.34588">
        <ele>1109.8000488281</ele>
        <time>2019-04-20T12:47:02.000Z</time>
      </trkpt>
      <trkpt lat="43.94753" lon="7.3458">
        <ele>1108.4000244141</ele>
        <time>2019-04-20T12:47:05.000Z</time>
      </trkpt>
      <trkpt lat="43.94757" lon="7.34568">
        <ele>1106.8000488281</ele>
        <time>2019-04-20T12:47:08.000Z</time>
      </trkpt>
      <trkpt lat="43.94757" lon="7.34559">
        <ele>1105</ele>
        <time>2019-04-20T12:47:10.000Z</time>
      </trkpt>
      <trkpt lat="43.94755" lon="7.34553">
        <ele>1104</ele>
        <time>2019-04-20T12:47:11.000Z</time>
      </trkpt>
      <trkpt lat="43.94753" lon="7.34548">
        <ele>1103.4000244141</ele>
        <time>2019-04-20T12:47:12.000Z</time>
      </trkpt>
      <trkpt lat="43.94749" lon="7.34538">
        <ele>1102.1999511719</ele>
        <time>2019-04-20T12:47:14.000Z</time>
      </trkpt>
      <trkpt lat="43.94745" lon="7.3453">
        <ele>1101.8000488281</ele>
        <time>2019-04-20T12:47:16.000Z</time>
      </trkpt>
      <trkpt lat="43.94744" lon="7.34526">
        <ele>1101.8000488281</ele>
        <time>2019-04-20T12:47:17.000Z</time>
      </trkpt>
      <trkpt lat="43.94744" lon="7.34522">
        <ele>1102</ele>
        <time>2019-04-20T12:47:18.000Z</time>
      </trkpt>
      <trkpt lat="43.94749" lon="7.34517">
        <ele>1102.1999511719</ele>
        <time>2019-04-20T12:47:21.000Z</time>
      </trkpt>
      <trkpt lat="43.94752" lon="7.34517">
        <ele>1102.4000244141</ele>
        <time>2019-04-20T12:47:22.000Z</time>
      </trkpt>
      <trkpt lat="43.94755" lon="7.34516">
        <ele>1102.1999511719</ele>
        <time>2019-04-20T12:47:23.000Z</time>
      </trkpt>
      <trkpt lat="43.94756" lon="7.34515">
        <ele>1101.4000244141</ele>
        <time>2019-04-20T12:47:25.000Z</time>
      </trkpt>
      <trkpt lat="43.94757" lon="7.34513">
        <ele>1101.1999511719</ele>
        <time>2019-04-20T12:47:26.000Z</time>
      </trkpt>
      <trkpt lat="43.94758" lon="7.34512">
        <ele>1100.8000488281</ele>
        <time>2019-04-20T12:47:27.000Z</time>
      </trkpt>
      <trkpt lat="43.94759" lon="7.34511">
        <ele>1101.4000244141</ele>
        <time>2019-04-20T12:47:30.000Z</time>
      </trkpt>
      <trkpt lat="43.94764" lon="7.34509">
        <ele>1101.5999755859</ele>
        <time>2019-04-20T12:47:35.000Z</time>
      </trkpt>
      <trkpt lat="43.94767" lon="7.34506">
        <ele>1101.5999755859</ele>
        <time>2019-04-20T12:47:38.000Z</time>
      </trkpt>
      <trkpt lat="43.9477" lon="7.34501">
        <ele>1101.5999755859</ele>
        <time>2019-04-20T12:47:41.000Z</time>
      </trkpt>
      <trkpt lat="43.94772" lon="7.34499">
        <ele>1101.8000488281</ele>
        <time>2019-04-20T12:47:43.000Z</time>
      </trkpt>
      <trkpt lat="43.94776" lon="7.34497">
        <ele>1102.1999511719</ele>
        <time>2019-04-20T12:47:46.000Z</time>
      </trkpt>
      <trkpt lat="43.94777" lon="7.34496">
        <ele>1102.4000244141</ele>
        <time>2019-04-20T12:47:47.000Z</time>
      </trkpt>
      <trkpt lat="43.94786" lon="7.34488">
        <ele>1103.4000244141</ele>
        <time>2019-04-20T12:47:54.000Z</time>
      </trkpt>
      <trkpt lat="43.94789" lon="7.34483">
        <ele>1104</ele>
        <time>2019-04-20T12:47:58.000Z</time>
      </trkpt>
      <trkpt lat="43.9479" lon="7.34482">
        <ele>1104.1999511719</ele>
        <time>2019-04-20T12:47:59.000Z</time>
      </trkpt>
      <trkpt lat="43.94793" lon="7.34481">
        <ele>1104.4000244141</ele>
        <time>2019-04-20T12:48:01.000Z</time>
      </trkpt>
      <trkpt lat="43.94795" lon="7.34479">
        <ele>1104.8000488281</ele>
        <time>2019-04-20T12:48:04.000Z</time>
      </trkpt>
      <trkpt lat="43.94801" lon="7.34472">
        <ele>1105.4000244141</ele>
        <time>2019-04-20T12:48:10.000Z</time>
      </trkpt>
      <trkpt lat="43.94802" lon="7.34471">
        <ele>1105.5999755859</ele>
        <time>2019-04-20T12:48:11.000Z</time>
      </trkpt>
      <trkpt lat="43.94806" lon="7.34463">
        <ele>1106.4000244141</ele>
        <time>2019-04-20T12:48:15.000Z</time>
      </trkpt>
      <trkpt lat="43.94806" lon="7.34461">
        <ele>1106.5999755859</ele>
        <time>2019-04-20T12:48:16.000Z</time>
      </trkpt>
      <trkpt lat="43.94804" lon="7.34452">
        <ele>1107.4000244141</ele>
        <time>2019-04-20T12:48:19.000Z</time>
      </trkpt>
      <trkpt lat="43.94802" lon="7.34448">
        <ele>1107.4000244141</ele>
        <time>2019-04-20T12:48:21.000Z</time>
      </trkpt>
      <trkpt lat="43.94799" lon="7.34444">
        <ele>1107.4000244141</ele>
        <time>2019-04-20T12:48:23.000Z</time>
      </trkpt>
      <trkpt lat="43.94796" lon="7.34439">
        <ele>1107.1999511719</ele>
        <time>2019-04-20T12:48:25.000Z</time>
      </trkpt>
      <trkpt lat="43.94793" lon="7.34421">
        <ele>1105.8000488281</ele>
        <time>2019-04-20T12:48:29.000Z</time>
      </trkpt>
      <trkpt lat="43.94793" lon="7.34412">
        <ele>1105.8000488281</ele>
        <time>2019-04-20T12:48:31.000Z</time>
      </trkpt>
      <trkpt lat="43.94793" lon="7.34409">
        <ele>1105.1999511719</ele>
        <time>2019-04-20T12:48:32.000Z</time>
      </trkpt>
      <trkpt lat="43.94796" lon="7.34404">
        <ele>1104</ele>
        <time>2019-04-20T12:48:35.000Z</time>
      </trkpt>
      <trkpt lat="43.94798" lon="7.344">
        <ele>1103</ele>
        <time>2019-04-20T12:48:42.000Z</time>
      </trkpt>
      <trkpt lat="43.94798" lon="7.344">
        <ele>1102.8000488281</ele>
        <time>2019-04-20T12:48:43.000Z</time>
      </trkpt>
      <trkpt lat="43.94799" lon="7.34398">
        <ele>1102.5999755859</ele>
        <time>2019-04-20T12:48:47.000Z</time>
      </trkpt>
      <trkpt lat="43.94802" lon="7.34394">
        <ele>1102.8000488281</ele>
        <time>2019-04-20T12:48:52.000Z</time>
      </trkpt>
      <trkpt lat="43.94808" lon="7.34389">
        <ele>1102.4000244141</ele>
        <time>2019-04-20T12:48:56.000Z</time>
      </trkpt>
      <trkpt lat="43.94811" lon="7.34388">
        <ele>1101.8000488281</ele>
        <time>2019-04-20T12:48:57.000Z</time>
      </trkpt>
      <trkpt lat="43.94815" lon="7.34388">
        <ele>1101.5999755859</ele>
        <time>2019-04-20T12:48:58.000Z</time>
      </trkpt>
      <trkpt lat="43.94818" lon="7.34386">
        <ele>1101</ele>
        <time>2019-04-20T12:48:59.000Z</time>
      </trkpt>
      <trkpt lat="43.94821" lon="7.34383">
        <ele>1100</ele>
        <time>2019-04-20T12:49:00.000Z</time>
      </trkpt>
      <trkpt lat="43.94824" lon="7.34378">
        <ele>1098.8000488281</ele>
        <time>2019-04-20T12:49:02.000Z</time>
      </trkpt>
      <trkpt lat="43.94828" lon="7.34362">
        <ele>1097.8000488281</ele>
        <time>2019-04-20T12:49:05.000Z</time>
      </trkpt>
      <trkpt lat="43.9483" lon="7.34355">
        <ele>1097.5999755859</ele>
        <time>2019-04-20T12:49:06.000Z</time>
      </trkpt>
      <trkpt lat="43.94836" lon="7.34348">
        <ele>1096.8000488281</ele>
        <time>2019-04-20T12:49:08.000Z</time>
      </trkpt>
      <trkpt lat="43.94839" lon="7.34344">
        <ele>1096.4000244141</ele>
        <time>2019-04-20T12:49:09.000Z</time>
      </trkpt>
      <trkpt lat="43.94841" lon="7.3434">
        <ele>1095.8000488281</ele>
        <time>2019-04-20T12:49:10.000Z</time>
      </trkpt>
      <trkpt lat="43.94845" lon="7.34336">
        <ele>1095.1999511719</ele>
        <time>2019-04-20T12:49:11.000Z</time>
      </trkpt>
      <trkpt lat="43.94857" lon="7.34321">
        <ele>1094.1999511719</ele>
        <time>2019-04-20T12:49:15.000Z</time>
      </trkpt>
      <trkpt lat="43.94861" lon="7.34313">
        <ele>1093.8000488281</ele>
        <time>2019-04-20T12:49:17.000Z</time>
      </trkpt>
      <trkpt lat="43.94862" lon="7.34307">
        <ele>1093.5999755859</ele>
        <time>2019-04-20T12:49:18.000Z</time>
      </trkpt>
      <trkpt lat="43.94869" lon="7.34292">
        <ele>1094.1999511719</ele>
        <time>2019-04-20T12:49:21.000Z</time>
      </trkpt>
      <trkpt lat="43.94871" lon="7.34286">
        <ele>1093.8000488281</ele>
        <time>2019-04-20T12:49:22.000Z</time>
      </trkpt>
      <trkpt lat="43.94876" lon="7.34273">
        <ele>1093.1999511719</ele>
        <time>2019-04-20T12:49:24.000Z</time>
      </trkpt>
      <trkpt lat="43.94877" lon="7.3427">
        <ele>1093</ele>
        <time>2019-04-20T12:49:25.000Z</time>
      </trkpt>
      <trkpt lat="43.94879" lon="7.34259">
        <ele>1092.5999755859</ele>
        <time>2019-04-20T12:49:31.000Z</time>
      </trkpt>
      <trkpt lat="43.94883" lon="7.34245">
        <ele>1092.8000488281</ele>
        <time>2019-04-20T12:49:35.000Z</time>
      </trkpt>
      <trkpt lat="43.9489" lon="7.34226">
        <ele>1093</ele>
        <time>2019-04-20T12:49:39.000Z</time>
      </trkpt>
      <trkpt lat="43.94892" lon="7.34223">
        <ele>1093</ele>
        <time>2019-04-20T12:49:40.000Z</time>
      </trkpt>
      <trkpt lat="43.94897" lon="7.34206">
        <ele>1093.5999755859</ele>
        <time>2019-04-20T12:49:43.000Z</time>
      </trkpt>
      <trkpt lat="43.94896" lon="7.34187">
        <ele>1093.8000488281</ele>
        <time>2019-04-20T12:49:47.000Z</time>
      </trkpt>
      <trkpt lat="43.94894" lon="7.3417">
        <ele>1094.1999511719</ele>
        <time>2019-04-20T12:49:51.000Z</time>
      </trkpt>
      <trkpt lat="43.94893" lon="7.34166">
        <ele>1094.4000244141</ele>
        <time>2019-04-20T12:49:52.000Z</time>
      </trkpt>
      <trkpt lat="43.94893" lon="7.3416">
        <ele>1095.1999511719</ele>
        <time>2019-04-20T12:49:54.000Z</time>
      </trkpt>
      <trkpt lat="43.94894" lon="7.34156">
        <ele>1095.4000244141</ele>
        <time>2019-04-20T12:49:55.000Z</time>
      </trkpt>
      <trkpt lat="43.94895" lon="7.34152">
        <ele>1095.5999755859</ele>
        <time>2019-04-20T12:49:56.000Z</time>
      </trkpt>
      <trkpt lat="43.94901" lon="7.34135">
        <ele>1094.4000244141</ele>
        <time>2019-04-20T12:50:00.000Z</time>
      </trkpt>
      <trkpt lat="43.94906" lon="7.34114">
        <ele>1092.8000488281</ele>
        <time>2019-04-20T12:50:03.000Z</time>
      </trkpt>
      <trkpt lat="43.94908" lon="7.34107">
        <ele>1092.1999511719</ele>
        <time>2019-04-20T12:50:04.000Z</time>
      </trkpt>
      <trkpt lat="43.9491" lon="7.34102">
        <ele>1091.4000244141</ele>
        <time>2019-04-20T12:50:05.000Z</time>
      </trkpt>
      <trkpt lat="43.94912" lon="7.34097">
        <ele>1090.8000488281</ele>
        <time>2019-04-20T12:50:06.000Z</time>
      </trkpt>
      <trkpt lat="43.94913" lon="7.34092">
        <ele>1090</ele>
        <time>2019-04-20T12:50:07.000Z</time>
      </trkpt>
      <trkpt lat="43.94915" lon="7.34088">
        <ele>1089.5999755859</ele>
        <time>2019-04-20T12:50:08.000Z</time>
      </trkpt>
      <trkpt lat="43.94917" lon="7.34085">
        <ele>1089</ele>
        <time>2019-04-20T12:50:09.000Z</time>
      </trkpt>
      <trkpt lat="43.94919" lon="7.34081">
        <ele>1088.4000244141</ele>
        <time>2019-04-20T12:50:10.000Z</time>
      </trkpt>
      <trkpt lat="43.94922" lon="7.34077">
        <ele>1088</ele>
        <time>2019-04-20T12:50:11.000Z</time>
      </trkpt>
      <trkpt lat="43.94923" lon="7.34074">
        <ele>1086.5999755859</ele>
        <time>2019-04-20T12:50:12.000Z</time>
      </trkpt>
      <trkpt lat="43.94925" lon="7.34072">
        <ele>1085.8000488281</ele>
        <time>2019-04-20T12:50:13.000Z</time>
      </trkpt>
      <trkpt lat="43.94927" lon="7.3407">
        <ele>1085.4000244141</ele>
        <time>2019-04-20T12:50:14.000Z</time>
      </trkpt>
      <trkpt lat="43.94932" lon="7.34064">
        <ele>1084</ele>
        <time>2019-04-20T12:50:16.000Z</time>
      </trkpt>
      <trkpt lat="43.94937" lon="7.3406">
        <ele>1083.8000488281</ele>
        <time>2019-04-20T12:50:18.000Z</time>
      </trkpt>
      <trkpt lat="43.9494" lon="7.34057">
        <ele>1082.5999755859</ele>
        <time>2019-04-20T12:50:19.000Z</time>
      </trkpt>
      <trkpt lat="43.94949" lon="7.34052">
        <ele>1081.8000488281</ele>
        <time>2019-04-20T12:50:21.000Z</time>
      </trkpt>
      <trkpt lat="43.94951" lon="7.34049">
        <ele>1081.4000244141</ele>
        <time>2019-04-20T12:50:22.000Z</time>
      </trkpt>
      <trkpt lat="43.94952" lon="7.34045">
        <ele>1080.1999511719</ele>
        <time>2019-04-20T12:50:23.000Z</time>
      </trkpt>
      <trkpt lat="43.9495" lon="7.34038">
        <ele>1078.4000244141</ele>
        <time>2019-04-20T12:50:25.000Z</time>
      </trkpt>
      <trkpt lat="43.94947" lon="7.34029">
        <ele>1077.1999511719</ele>
        <time>2019-04-20T12:50:27.000Z</time>
      </trkpt>
      <trkpt lat="43.94944" lon="7.34018">
        <ele>1075.4000244141</ele>
        <time>2019-04-20T12:50:30.000Z</time>
      </trkpt>
      <trkpt lat="43.94944" lon="7.34013">
        <ele>1074</ele>
        <time>2019-04-20T12:50:32.000Z</time>
      </trkpt>
      <trkpt lat="43.94944" lon="7.34012">
        <ele>1072.8000488281</ele>
        <time>2019-04-20T12:50:33.000Z</time>
      </trkpt>
      <trkpt lat="43.94945" lon="7.34012">
        <ele>1072.1999511719</ele>
        <time>2019-04-20T12:50:34.000Z</time>
      </trkpt>
      <trkpt lat="43.94945" lon="7.34014">
        <ele>1071.5999755859</ele>
        <time>2019-04-20T12:50:35.000Z</time>
      </trkpt>
      <trkpt lat="43.94946" lon="7.34019">
        <ele>1070.1999511719</ele>
        <time>2019-04-20T12:50:37.000Z</time>
      </trkpt>
      <trkpt lat="43.94951" lon="7.34024">
        <ele>1069</ele>
        <time>2019-04-20T12:50:39.000Z</time>
      </trkpt>
      <trkpt lat="43.94952" lon="7.34024">
        <ele>1068.8000488281</ele>
        <time>2019-04-20T12:50:40.000Z</time>
      </trkpt>
      <trkpt lat="43.94952" lon="7.3402">
        <ele>1067.8000488281</ele>
        <time>2019-04-20T12:50:42.000Z</time>
      </trkpt>
      <trkpt lat="43.94952" lon="7.34017">
        <ele>1067.4000244141</ele>
        <time>2019-04-20T12:50:43.000Z</time>
      </trkpt>
      <trkpt lat="43.94951" lon="7.34011">
        <ele>1066.8000488281</ele>
        <time>2019-04-20T12:50:45.000Z</time>
      </trkpt>
      <trkpt lat="43.94951" lon="7.34003">
        <ele>1065.1999511719</ele>
        <time>2019-04-20T12:50:49.000Z</time>
      </trkpt>
      <trkpt lat="43.94953" lon="7.34005">
        <ele>1064.1999511719</ele>
        <time>2019-04-20T12:50:51.000Z</time>
      </trkpt>
      <trkpt lat="43.94955" lon="7.34007">
        <ele>1063</ele>
        <time>2019-04-20T12:50:52.000Z</time>
      </trkpt>
      <trkpt lat="43.94958" lon="7.34012">
        <ele>1061.8000488281</ele>
        <time>2019-04-20T12:50:54.000Z</time>
      </trkpt>
      <trkpt lat="43.94961" lon="7.34015">
        <ele>1060.8000488281</ele>
        <time>2019-04-20T12:50:56.000Z</time>
      </trkpt>
      <trkpt lat="43.94964" lon="7.34017">
        <ele>1060.1999511719</ele>
        <time>2019-04-20T12:50:57.000Z</time>
      </trkpt>
      <trkpt lat="43.94966" lon="7.34018">
        <ele>1059.5999755859</ele>
        <time>2019-04-20T12:50:58.000Z</time>
      </trkpt>
      <trkpt lat="43.94974" lon="7.34021">
        <ele>1057.4000244141</ele>
        <time>2019-04-20T12:51:02.000Z</time>
      </trkpt>
      <trkpt lat="43.94972" lon="7.3402">
        <ele>1055.8000488281</ele>
        <time>2019-04-20T12:51:04.000Z</time>
      </trkpt>
      <trkpt lat="43.94971" lon="7.34018">
        <ele>1055</ele>
        <time>2019-04-20T12:51:05.000Z</time>
      </trkpt>
      <trkpt lat="43.94967" lon="7.34011">
        <ele>1054.5999755859</ele>
        <time>2019-04-20T12:51:07.000Z</time>
      </trkpt>
      <trkpt lat="43.94967" lon="7.34008">
        <ele>1054.4000244141</ele>
        <time>2019-04-20T12:51:08.000Z</time>
      </trkpt>
      <trkpt lat="43.94967" lon="7.34004">
        <ele>1054</ele>
        <time>2019-04-20T12:51:09.000Z</time>
      </trkpt>
      <trkpt lat="43.94965" lon="7.34002">
        <ele>1053</ele>
        <time>2019-04-20T12:51:10.000Z</time>
      </trkpt>
      <trkpt lat="43.94963" lon="7.33996">
        <ele>1051.5999755859</ele>
        <time>2019-04-20T12:51:12.000Z</time>
      </trkpt>
      <trkpt lat="43.94962" lon="7.33989">
        <ele>1050.4000244141</ele>
        <time>2019-04-20T12:51:14.000Z</time>
      </trkpt>
      <trkpt lat="43.94958" lon="7.33977">
        <ele>1049</ele>
        <time>2019-04-20T12:51:17.000Z</time>
      </trkpt>
      <trkpt lat="43.94955" lon="7.33972">
        <ele>1048.4000244141</ele>
        <time>2019-04-20T12:51:18.000Z</time>
      </trkpt>
      <trkpt lat="43.94953" lon="7.33968">
        <ele>1047.8000488281</ele>
        <time>2019-04-20T12:51:19.000Z</time>
      </trkpt>
      <trkpt lat="43.94944" lon="7.33963">
        <ele>1047.4000244141</ele>
        <time>2019-04-20T12:51:22.000Z</time>
      </trkpt>
      <trkpt lat="43.94941" lon="7.3396">
        <ele>1047.1999511719</ele>
        <time>2019-04-20T12:51:23.000Z</time>
      </trkpt>
      <trkpt lat="43.94938" lon="7.33952">
        <ele>1046.8000488281</ele>
        <time>2019-04-20T12:51:25.000Z</time>
      </trkpt>
      <trkpt lat="43.94936" lon="7.33943">
        <ele>1045.1999511719</ele>
        <time>2019-04-20T12:51:27.000Z</time>
      </trkpt>
      <trkpt lat="43.94934" lon="7.3393">
        <ele>1043.8000488281</ele>
        <time>2019-04-20T12:51:30.000Z</time>
      </trkpt>
      <trkpt lat="43.94934" lon="7.33925">
        <ele>1042.8000488281</ele>
        <time>2019-04-20T12:51:31.000Z</time>
      </trkpt>
      <trkpt lat="43.94935" lon="7.33915">
        <ele>1042.1999511719</ele>
        <time>2019-04-20T12:51:33.000Z</time>
      </trkpt>
      <trkpt lat="43.94935" lon="7.3391">
        <ele>1041.5999755859</ele>
        <time>2019-04-20T12:51:34.000Z</time>
      </trkpt>
      <trkpt lat="43.9493" lon="7.33897">
        <ele>1040.1999511719</ele>
        <time>2019-04-20T12:51:37.000Z</time>
      </trkpt>
      <trkpt lat="43.94927" lon="7.33894">
        <ele>1039.8000488281</ele>
        <time>2019-04-20T12:51:38.000Z</time>
      </trkpt>
      <trkpt lat="43.94925" lon="7.3388">
        <ele>1039</ele>
        <time>2019-04-20T12:51:41.000Z</time>
      </trkpt>
      <trkpt lat="43.94925" lon="7.33876">
        <ele>1038.8000488281</ele>
        <time>2019-04-20T12:51:42.000Z</time>
      </trkpt>
      <trkpt lat="43.94927" lon="7.33864">
        <ele>1037.1999511719</ele>
        <time>2019-04-20T12:51:45.000Z</time>
      </trkpt>
      <trkpt lat="43.94927" lon="7.33862">
        <ele>1036.5999755859</ele>
        <time>2019-04-20T12:51:46.000Z</time>
      </trkpt>
      <trkpt lat="43.94926" lon="7.33859">
        <ele>1036.1999511719</ele>
        <time>2019-04-20T12:51:47.000Z</time>
      </trkpt>
      <trkpt lat="43.94927" lon="7.33857">
        <ele>1035</ele>
        <time>2019-04-20T12:51:49.000Z</time>
      </trkpt>
      <trkpt lat="43.94928" lon="7.33855">
        <ele>1034.5999755859</ele>
        <time>2019-04-20T12:51:51.000Z</time>
      </trkpt>
      <trkpt lat="43.94929" lon="7.33855">
        <ele>1034.1999511719</ele>
        <time>2019-04-20T12:51:52.000Z</time>
      </trkpt>
      <trkpt lat="43.9493" lon="7.33856">
        <ele>1033.5999755859</ele>
        <time>2019-04-20T12:51:53.000Z</time>
      </trkpt>
      <trkpt lat="43.9493" lon="7.3386">
        <ele>1032.4000244141</ele>
        <time>2019-04-20T12:51:55.000Z</time>
      </trkpt>
      <trkpt lat="43.94931" lon="7.33861">
        <ele>1031.1999511719</ele>
        <time>2019-04-20T12:51:58.000Z</time>
      </trkpt>
      <trkpt lat="43.94931" lon="7.33858">
        <ele>1030.8000488281</ele>
        <time>2019-04-20T12:51:59.000Z</time>
      </trkpt>
      <trkpt lat="43.94931" lon="7.33851">
        <ele>1030</ele>
        <time>2019-04-20T12:52:02.000Z</time>
      </trkpt>
      <trkpt lat="43.9493" lon="7.33848">
        <ele>1029</ele>
        <time>2019-04-20T12:52:04.000Z</time>
      </trkpt>
      <trkpt lat="43.94929" lon="7.33846">
        <ele>1028.4000244141</ele>
        <time>2019-04-20T12:52:05.000Z</time>
      </trkpt>
      <trkpt lat="43.94928" lon="7.33842">
        <ele>1027.1999511719</ele>
        <time>2019-04-20T12:52:07.000Z</time>
      </trkpt>
      <trkpt lat="43.94927" lon="7.33837">
        <ele>1026</ele>
        <time>2019-04-20T12:52:09.000Z</time>
      </trkpt>
      <trkpt lat="43.94929" lon="7.33826">
        <ele>1024.8000488281</ele>
        <time>2019-04-20T12:52:13.000Z</time>
      </trkpt>
      <trkpt lat="43.94929" lon="7.33823">
        <ele>1024.4000244141</ele>
        <time>2019-04-20T12:52:14.000Z</time>
      </trkpt>
      <trkpt lat="43.94929" lon="7.33821">
        <ele>1023.5999755859</ele>
        <time>2019-04-20T12:52:15.000Z</time>
      </trkpt>
      <trkpt lat="43.9493" lon="7.33816">
        <ele>1022.4000244141</ele>
        <time>2019-04-20T12:52:17.000Z</time>
      </trkpt>
      <trkpt lat="43.9493" lon="7.33812">
        <ele>1021.200012207</ele>
        <time>2019-04-20T12:52:19.000Z</time>
      </trkpt>
      <trkpt lat="43.9493" lon="7.33809">
        <ele>1020.799987793</ele>
        <time>2019-04-20T12:52:20.000Z</time>
      </trkpt>
      <trkpt lat="43.94926" lon="7.33801">
        <ele>1019.5999755859</ele>
        <time>2019-04-20T12:52:22.000Z</time>
      </trkpt>
      <trkpt lat="43.94925" lon="7.33797">
        <ele>1018.5999755859</ele>
        <time>2019-04-20T12:52:23.000Z</time>
      </trkpt>
      <trkpt lat="43.94924" lon="7.33795">
        <ele>1017.799987793</ele>
        <time>2019-04-20T12:52:24.000Z</time>
      </trkpt>
      <trkpt lat="43.9492" lon="7.33789">
        <ele>1015.799987793</ele>
        <time>2019-04-20T12:52:26.000Z</time>
      </trkpt>
      <trkpt lat="43.94919" lon="7.33785">
        <ele>1015.200012207</ele>
        <time>2019-04-20T12:52:27.000Z</time>
      </trkpt>
      <trkpt lat="43.94919" lon="7.33783">
        <ele>1014.4000244141</ele>
        <time>2019-04-20T12:52:28.000Z</time>
      </trkpt>
      <trkpt lat="43.94919" lon="7.33776">
        <ele>1013.200012207</ele>
        <time>2019-04-20T12:52:30.000Z</time>
      </trkpt>
      <trkpt lat="43.94917" lon="7.33769">
        <ele>1012.200012207</ele>
        <time>2019-04-20T12:52:32.000Z</time>
      </trkpt>
      <trkpt lat="43.94917" lon="7.33764">
        <ele>1011.5999755859</ele>
        <time>2019-04-20T12:52:33.000Z</time>
      </trkpt>
      <trkpt lat="43.94919" lon="7.33754">
        <ele>1010.5999755859</ele>
        <time>2019-04-20T12:52:35.000Z</time>
      </trkpt>
      <trkpt lat="43.9492" lon="7.33747">
        <ele>1009.799987793</ele>
        <time>2019-04-20T12:52:36.000Z</time>
      </trkpt>
      <trkpt lat="43.9492" lon="7.33742">
        <ele>1009.5999755859</ele>
        <time>2019-04-20T12:52:37.000Z</time>
      </trkpt>
      <trkpt lat="43.94919" lon="7.33733">
        <ele>1008.799987793</ele>
        <time>2019-04-20T12:52:39.000Z</time>
      </trkpt>
      <trkpt lat="43.9492" lon="7.3373">
        <ele>1009</ele>
        <time>2019-04-20T12:52:40.000Z</time>
      </trkpt>
      <trkpt lat="43.94922" lon="7.33722">
        <ele>1008</ele>
        <time>2019-04-20T12:52:42.000Z</time>
      </trkpt>
      <trkpt lat="43.94928" lon="7.33719">
        <ele>1006.799987793</ele>
        <time>2019-04-20T12:52:44.000Z</time>
      </trkpt>
      <trkpt lat="43.9493" lon="7.33714">
        <ele>1005.5999755859</ele>
        <time>2019-04-20T12:52:46.000Z</time>
      </trkpt>
      <trkpt lat="43.9493" lon="7.33712">
        <ele>1005.4000244141</ele>
        <time>2019-04-20T12:52:47.000Z</time>
      </trkpt>
      <trkpt lat="43.94929" lon="7.337">
        <ele>1004.200012207</ele>
        <time>2019-04-20T12:52:50.000Z</time>
      </trkpt>
      <trkpt lat="43.94929" lon="7.33696">
        <ele>1003.5999755859</ele>
        <time>2019-04-20T12:52:51.000Z</time>
      </trkpt>
      <trkpt lat="43.94928" lon="7.33692">
        <ele>1003.200012207</ele>
        <time>2019-04-20T12:52:52.000Z</time>
      </trkpt>
      <trkpt lat="43.94929" lon="7.33684">
        <ele>1002.799987793</ele>
        <time>2019-04-20T12:52:54.000Z</time>
      </trkpt>
      <trkpt lat="43.94927" lon="7.33675">
        <ele>1001</ele>
        <time>2019-04-20T12:52:56.000Z</time>
      </trkpt>
      <trkpt lat="43.94926" lon="7.33667">
        <ele>1000.799987793</ele>
        <time>2019-04-20T12:52:59.000Z</time>
      </trkpt>
      <trkpt lat="43.94926" lon="7.33663">
        <ele>999.79998779297</ele>
        <time>2019-04-20T12:53:02.000Z</time>
      </trkpt>
      <trkpt lat="43.94927" lon="7.33656">
        <ele>998.59997558594</ele>
        <time>2019-04-20T12:53:04.000Z</time>
      </trkpt>
      <trkpt lat="43.94933" lon="7.33651">
        <ele>997.59997558594</ele>
        <time>2019-04-20T12:53:06.000Z</time>
      </trkpt>
      <trkpt lat="43.94935" lon="7.33647">
        <ele>997.40002441406</ele>
        <time>2019-04-20T12:53:07.000Z</time>
      </trkpt>
      <trkpt lat="43.9494" lon="7.33638">
        <ele>996.40002441406</ele>
        <time>2019-04-20T12:53:09.000Z</time>
      </trkpt>
      <trkpt lat="43.94943" lon="7.33629">
        <ele>995</ele>
        <time>2019-04-20T12:53:11.000Z</time>
      </trkpt>
      <trkpt lat="43.94945" lon="7.33622">
        <ele>994.20001220703</ele>
        <time>2019-04-20T12:53:12.000Z</time>
      </trkpt>
      <trkpt lat="43.94944" lon="7.33606">
        <ele>993.40002441406</ele>
        <time>2019-04-20T12:53:15.000Z</time>
      </trkpt>
      <trkpt lat="43.9494" lon="7.33589">
        <ele>990.20001220703</ele>
        <time>2019-04-20T12:53:17.000Z</time>
      </trkpt>
      <trkpt lat="43.94937" lon="7.33582">
        <ele>989.20001220703</ele>
        <time>2019-04-20T12:53:18.000Z</time>
      </trkpt>
      <trkpt lat="43.94937" lon="7.33573">
        <ele>988</ele>
        <time>2019-04-20T12:53:19.000Z</time>
      </trkpt>
      <trkpt lat="43.94939" lon="7.33556">
        <ele>987</ele>
        <time>2019-04-20T12:53:21.000Z</time>
      </trkpt>
      <trkpt lat="43.9494" lon="7.33551">
        <ele>986.40002441406</ele>
        <time>2019-04-20T12:53:22.000Z</time>
      </trkpt>
      <trkpt lat="43.9494" lon="7.33545">
        <ele>985.59997558594</ele>
        <time>2019-04-20T12:53:23.000Z</time>
      </trkpt>
      <trkpt lat="43.94936" lon="7.33538">
        <ele>984.40002441406</ele>
        <time>2019-04-20T12:53:25.000Z</time>
      </trkpt>
      <trkpt lat="43.94929" lon="7.33531">
        <ele>983</ele>
        <time>2019-04-20T12:53:28.000Z</time>
      </trkpt>
      <trkpt lat="43.94927" lon="7.33528">
        <ele>981.59997558594</ele>
        <time>2019-04-20T12:53:30.000Z</time>
      </trkpt>
      <trkpt lat="43.94923" lon="7.33519">
        <ele>980</ele>
        <time>2019-04-20T12:53:33.000Z</time>
      </trkpt>
      <trkpt lat="43.94921" lon="7.33516">
        <ele>979.20001220703</ele>
        <time>2019-04-20T12:53:34.000Z</time>
      </trkpt>
      <trkpt lat="43.94919" lon="7.33512">
        <ele>978.59997558594</ele>
        <time>2019-04-20T12:53:35.000Z</time>
      </trkpt>
      <trkpt lat="43.94916" lon="7.33497">
        <ele>976.79998779297</ele>
        <time>2019-04-20T12:53:37.000Z</time>
      </trkpt>
      <trkpt lat="43.94914" lon="7.33488">
        <ele>975.40002441406</ele>
        <time>2019-04-20T12:53:38.000Z</time>
      </trkpt>
      <trkpt lat="43.94912" lon="7.33477">
        <ele>974</ele>
        <time>2019-04-20T12:53:39.000Z</time>
      </trkpt>
      <trkpt lat="43.9491" lon="7.33469">
        <ele>972.20001220703</ele>
        <time>2019-04-20T12:53:40.000Z</time>
      </trkpt>
      <trkpt lat="43.94909" lon="7.3346">
        <ele>971.59997558594</ele>
        <time>2019-04-20T12:53:41.000Z</time>
      </trkpt>
      <trkpt lat="43.94909" lon="7.3345">
        <ele>969.59997558594</ele>
        <time>2019-04-20T12:53:42.000Z</time>
      </trkpt>
      <trkpt lat="43.9491" lon="7.33439">
        <ele>967.20001220703</ele>
        <time>2019-04-20T12:53:43.000Z</time>
      </trkpt>
      <trkpt lat="43.94912" lon="7.33429">
        <ele>969</ele>
        <time>2019-04-20T12:53:44.000Z</time>
      </trkpt>
      <trkpt lat="43.94914" lon="7.3342">
        <ele>967.20001220703</ele>
        <time>2019-04-20T12:53:45.000Z</time>
      </trkpt>
      <trkpt lat="43.94915" lon="7.33412">
        <ele>965.59997558594</ele>
        <time>2019-04-20T12:53:46.000Z</time>
      </trkpt>
      <trkpt lat="43.94916" lon="7.33404">
        <ele>964.40002441406</ele>
        <time>2019-04-20T12:53:47.000Z</time>
      </trkpt>
      <trkpt lat="43.94917" lon="7.33397">
        <ele>963.20001220703</ele>
        <time>2019-04-20T12:53:48.000Z</time>
      </trkpt>
      <trkpt lat="43.94919" lon="7.3339">
        <ele>961.79998779297</ele>
        <time>2019-04-20T12:53:49.000Z</time>
      </trkpt>
      <trkpt lat="43.94919" lon="7.33385">
        <ele>960.20001220703</ele>
        <time>2019-04-20T12:53:50.000Z</time>
      </trkpt>
      <trkpt lat="43.94918" lon="7.33381">
        <ele>959.20001220703</ele>
        <time>2019-04-20T12:53:51.000Z</time>
      </trkpt>
      <trkpt lat="43.94916" lon="7.33376">
        <ele>957.79998779297</ele>
        <time>2019-04-20T12:53:52.000Z</time>
      </trkpt>
      <trkpt lat="43.94913" lon="7.33371">
        <ele>956.59997558594</ele>
        <time>2019-04-20T12:53:53.000Z</time>
      </trkpt>
      <trkpt lat="43.94909" lon="7.33369">
        <ele>955.20001220703</ele>
        <time>2019-04-20T12:53:54.000Z</time>
      </trkpt>
      <trkpt lat="43.94904" lon="7.33367">
        <ele>954</ele>
        <time>2019-04-20T12:53:55.000Z</time>
      </trkpt>
      <trkpt lat="43.94901" lon="7.33365">
        <ele>953</ele>
        <time>2019-04-20T12:53:56.000Z</time>
      </trkpt>
      <trkpt lat="43.94898" lon="7.33364">
        <ele>951.79998779297</ele>
        <time>2019-04-20T12:53:57.000Z</time>
      </trkpt>
      <trkpt lat="43.94895" lon="7.33361">
        <ele>950.59997558594</ele>
        <time>2019-04-20T12:53:58.000Z</time>
      </trkpt>
      <trkpt lat="43.94893" lon="7.33358">
        <ele>949.40002441406</ele>
        <time>2019-04-20T12:53:59.000Z</time>
      </trkpt>
      <trkpt lat="43.94887" lon="7.33353">
        <ele>947.79998779297</ele>
        <time>2019-04-20T12:54:01.000Z</time>
      </trkpt>
      <trkpt lat="43.94879" lon="7.3335">
        <ele>946.20001220703</ele>
        <time>2019-04-20T12:54:03.000Z</time>
      </trkpt>
      <trkpt lat="43.94878" lon="7.33346">
        <ele>945.20001220703</ele>
        <time>2019-04-20T12:54:04.000Z</time>
      </trkpt>
      <trkpt lat="43.94878" lon="7.33342">
        <ele>944.20001220703</ele>
        <time>2019-04-20T12:54:05.000Z</time>
      </trkpt>
      <trkpt lat="43.9488" lon="7.33339">
        <ele>943</ele>
        <time>2019-04-20T12:54:06.000Z</time>
      </trkpt>
      <trkpt lat="43.94882" lon="7.33326">
        <ele>941</ele>
        <time>2019-04-20T12:54:08.000Z</time>
      </trkpt>
      <trkpt lat="43.9488" lon="7.33319">
        <ele>939.79998779297</ele>
        <time>2019-04-20T12:54:09.000Z</time>
      </trkpt>
      <trkpt lat="43.94879" lon="7.33313">
        <ele>938.59997558594</ele>
        <time>2019-04-20T12:54:10.000Z</time>
      </trkpt>
      <trkpt lat="43.94876" lon="7.33306">
        <ele>936.59997558594</ele>
        <time>2019-04-20T12:54:12.000Z</time>
      </trkpt>
      <trkpt lat="43.94876" lon="7.33302">
        <ele>935.79998779297</ele>
        <time>2019-04-20T12:54:13.000Z</time>
      </trkpt>
      <trkpt lat="43.94874" lon="7.33298">
        <ele>935</ele>
        <time>2019-04-20T12:54:14.000Z</time>
      </trkpt>
      <trkpt lat="43.94871" lon="7.33295">
        <ele>934</ele>
        <time>2019-04-20T12:54:15.000Z</time>
      </trkpt>
      <trkpt lat="43.94868" lon="7.3329">
        <ele>933</ele>
        <time>2019-04-20T12:54:16.000Z</time>
      </trkpt>
      <trkpt lat="43.94861" lon="7.33283">
        <ele>931.59997558594</ele>
        <time>2019-04-20T12:54:18.000Z</time>
      </trkpt>
      <trkpt lat="43.94852" lon="7.33285">
        <ele>929.40002441406</ele>
        <time>2019-04-20T12:54:20.000Z</time>
      </trkpt>
      <trkpt lat="43.94841" lon="7.33281">
        <ele>927.79998779297</ele>
        <time>2019-04-20T12:54:22.000Z</time>
      </trkpt>
      <trkpt lat="43.94836" lon="7.33279">
        <ele>927.20001220703</ele>
        <time>2019-04-20T12:54:23.000Z</time>
      </trkpt>
      <trkpt lat="43.9483" lon="7.33274">
        <ele>926.40002441406</ele>
        <time>2019-04-20T12:54:24.000Z</time>
      </trkpt>
      <trkpt lat="43.94822" lon="7.33258">
        <ele>924.59997558594</ele>
        <time>2019-04-20T12:54:26.000Z</time>
      </trkpt>
      <trkpt lat="43.94819" lon="7.3325">
        <ele>923.40002441406</ele>
        <time>2019-04-20T12:54:27.000Z</time>
      </trkpt>
      <trkpt lat="43.94816" lon="7.33241">
        <ele>922.40002441406</ele>
        <time>2019-04-20T12:54:28.000Z</time>
      </trkpt>
      <trkpt lat="43.94814" lon="7.33232">
        <ele>922</ele>
        <time>2019-04-20T12:54:29.000Z</time>
      </trkpt>
      <trkpt lat="43.94812" lon="7.33223">
        <ele>921.20001220703</ele>
        <time>2019-04-20T12:54:30.000Z</time>
      </trkpt>
      <trkpt lat="43.94808" lon="7.33214">
        <ele>920.40002441406</ele>
        <time>2019-04-20T12:54:31.000Z</time>
      </trkpt>
      <trkpt lat="43.94804" lon="7.33204">
        <ele>920</ele>
        <time>2019-04-20T12:54:32.000Z</time>
      </trkpt>
      <trkpt lat="43.948" lon="7.33196">
        <ele>918.79998779297</ele>
        <time>2019-04-20T12:54:33.000Z</time>
      </trkpt>
      <trkpt lat="43.94793" lon="7.33187">
        <ele>917.40002441406</ele>
        <time>2019-04-20T12:54:35.000Z</time>
      </trkpt>
      <trkpt lat="43.94792" lon="7.33187">
        <ele>916.79998779297</ele>
        <time>2019-04-20T12:54:36.000Z</time>
      </trkpt>
      <trkpt lat="43.94786" lon="7.33185">
        <ele>915.59997558594</ele>
        <time>2019-04-20T12:54:37.000Z</time>
      </trkpt>
      <trkpt lat="43.94787" lon="7.33178">
        <ele>915</ele>
        <time>2019-04-20T12:54:39.000Z</time>
      </trkpt>
      <trkpt lat="43.94787" lon="7.33178">
        <ele>915</ele>
        <time>2019-04-20T12:54:40.000Z</time>
      </trkpt>
      <trkpt lat="43.94787" lon="7.33177">
        <ele>914.40002441406</ele>
        <time>2019-04-20T12:54:42.000Z</time>
      </trkpt>
      <trkpt lat="43.94787" lon="7.33177">
        <ele>914.79998779297</ele>
        <time>2019-04-20T12:54:43.000Z</time>
      </trkpt>
      <trkpt lat="43.94787" lon="7.33177">
        <ele>914.20001220703</ele>
        <time>2019-04-20T12:54:49.000Z</time>
      </trkpt>
      <trkpt lat="43.94788" lon="7.33178">
        <ele>913.40002441406</ele>
        <time>2019-04-20T12:54:52.000Z</time>
      </trkpt>
      <trkpt lat="43.94787" lon="7.33177">
        <ele>913.20001220703</ele>
        <time>2019-04-20T12:54:53.000Z</time>
      </trkpt>
      <trkpt lat="43.94786" lon="7.33178">
        <ele>912.40002441406</ele>
        <time>2019-04-20T12:54:57.000Z</time>
      </trkpt>
      <trkpt lat="43.94786" lon="7.33178">
        <ele>912.20001220703</ele>
        <time>2019-04-20T12:54:58.000Z</time>
      </trkpt>
      <trkpt lat="43.94786" lon="7.33178">
        <ele>911.20001220703</ele>
        <time>2019-04-20T12:55:01.000Z</time>
      </trkpt>
      <trkpt lat="43.94787" lon="7.33178">
        <ele>910.40002441406</ele>
        <time>2019-04-20T12:55:05.000Z</time>
      </trkpt>
      <trkpt lat="43.94787" lon="7.33178">
        <ele>910.20001220703</ele>
        <time>2019-04-20T12:55:06.000Z</time>
      </trkpt>
      <trkpt lat="43.94787" lon="7.33177">
        <ele>910</ele>
        <time>2019-04-20T12:55:12.000Z</time>
      </trkpt>
      <trkpt lat="43.94789" lon="7.33176">
        <ele>909.59997558594</ele>
        <time>2019-04-20T12:55:21.000Z</time>
      </trkpt>
      <trkpt lat="43.9479" lon="7.33175">
        <ele>910.79998779297</ele>
        <time>2019-04-20T12:55:29.000Z</time>
      </trkpt>
      <trkpt lat="43.94791" lon="7.33176">
        <ele>910.59997558594</ele>
        <time>2019-04-20T12:55:42.000Z</time>
      </trkpt>
      <trkpt lat="43.9479" lon="7.33175">
        <ele>910.40002441406</ele>
        <time>2019-04-20T12:55:49.000Z</time>
      </trkpt>
      <trkpt lat="43.9479" lon="7.33175">
        <ele>909.59997558594</ele>
        <time>2019-04-20T12:55:54.000Z</time>
      </trkpt>
      <trkpt lat="43.9479" lon="7.33176">
        <ele>910</ele>
        <time>2019-04-20T12:56:05.000Z</time>
      </trkpt>
      <trkpt lat="43.9479" lon="7.33175">
        <ele>909.79998779297</ele>
        <time>2019-04-20T12:56:25.000Z</time>
      </trkpt>
      <trkpt lat="43.9479" lon="7.33175">
        <ele>910.79998779297</ele>
        <time>2019-04-20T12:56:35.000Z</time>
      </trkpt>
      <trkpt lat="43.9479" lon="7.33175">
        <ele>910.20001220703</ele>
        <time>2019-04-20T12:56:48.000Z</time>
      </trkpt>
      <trkpt lat="43.94791" lon="7.33174">
        <ele>910</ele>
        <time>2019-04-20T12:57:03.000Z</time>
      </trkpt>
      <trkpt lat="43.94791" lon="7.33173">
        <ele>910</ele>
        <time>2019-04-20T12:57:11.000Z</time>
      </trkpt>
      <trkpt lat="43.94791" lon="7.33173">
        <ele>910.20001220703</ele>
        <time>2019-04-20T12:57:34.000Z</time>
      </trkpt>
      <trkpt lat="43.94791" lon="7.33174">
        <ele>910</ele>
        <time>2019-04-20T12:57:46.000Z</time>
      </trkpt>
      <trkpt lat="43.94791" lon="7.33175">
        <ele>910</ele>
        <time>2019-04-20T12:57:53.000Z</time>
      </trkpt>
      <trkpt lat="43.94791" lon="7.33175">
        <ele>910.20001220703</ele>
        <time>2019-04-20T12:57:56.000Z</time>
      </trkpt>
      <trkpt lat="43.9479" lon="7.33175">
        <ele>909.79998779297</ele>
        <time>2019-04-20T12:58:03.000Z</time>
      </trkpt>
      <trkpt lat="43.94789" lon="7.33175">
        <ele>910</ele>
        <time>2019-04-20T12:58:18.000Z</time>
      </trkpt>
      <trkpt lat="43.94789" lon="7.33175">
        <ele>910.59997558594</ele>
        <time>2019-04-20T12:58:34.000Z</time>
      </trkpt>
      <trkpt lat="43.9479" lon="7.33175">
        <ele>910.59997558594</ele>
        <time>2019-04-20T12:58:53.000Z</time>
      </trkpt>
      <trkpt lat="43.9479" lon="7.33174">
        <ele>911.20001220703</ele>
        <time>2019-04-20T12:58:59.000Z</time>
      </trkpt>
      <trkpt lat="43.9479" lon="7.33175">
        <ele>910.79998779297</ele>
        <time>2019-04-20T12:59:11.000Z</time>
      </trkpt>
      <trkpt lat="43.9479" lon="7.33176">
        <ele>910.59997558594</ele>
        <time>2019-04-20T12:59:20.000Z</time>
      </trkpt>
      <trkpt lat="43.94788" lon="7.33175">
        <ele>910.40002441406</ele>
        <time>2019-04-20T12:59:33.000Z</time>
      </trkpt>
      <trkpt lat="43.94788" lon="7.33175">
        <ele>910.59997558594</ele>
        <time>2019-04-20T12:59:51.000Z</time>
      </trkpt>
      <trkpt lat="43.94788" lon="7.33175">
        <ele>910.79998779297</ele>
        <time>2019-04-20T13:00:03.000Z</time>
      </trkpt>
      <trkpt lat="43.94788" lon="7.33175">
        <ele>910.79998779297</ele>
        <time>2019-04-20T13:00:27.000Z</time>
      </trkpt>
      <trkpt lat="43.94788" lon="7.33175">
        <ele>910.59997558594</ele>
        <time>2019-04-20T13:00:44.000Z</time>
      </trkpt>
      <trkpt lat="43.94786" lon="7.33175">
        <ele>910.59997558594</ele>
        <time>2019-04-20T13:01:06.000Z</time>
      </trkpt>
      <trkpt lat="43.94787" lon="7.33175">
        <ele>910.59997558594</ele>
        <time>2019-04-20T13:01:07.000Z</time>
      </trkpt>
      <trkpt lat="43.94787" lon="7.33175">
        <ele>909.79998779297</ele>
        <time>2019-04-20T13:01:15.000Z</time>
      </trkpt>
      <trkpt lat="43.94787" lon="7.33176">
        <ele>910</ele>
        <time>2019-04-20T13:01:20.000Z</time>
      </trkpt>
      <trkpt lat="43.94787" lon="7.33175">
        <ele>910.59997558594</ele>
        <time>2019-04-20T13:01:30.000Z</time>
      </trkpt>
      <trkpt lat="43.94788" lon="7.33175">
        <ele>910.59997558594</ele>
        <time>2019-04-20T13:01:38.000Z</time>
      </trkpt>
      <trkpt lat="43.9479" lon="7.33174">
        <ele>910.59997558594</ele>
        <time>2019-04-20T13:01:51.000Z</time>
      </trkpt>
      <trkpt lat="43.9479" lon="7.33174">
        <ele>910.40002441406</ele>
        <time>2019-04-20T13:01:59.000Z</time>
      </trkpt>
      <trkpt lat="43.94791" lon="7.33174">
        <ele>910</ele>
        <time>2019-04-20T13:02:13.000Z</time>
      </trkpt>
      <trkpt lat="43.9479" lon="7.33172">
        <ele>910.40002441406</ele>
        <time>2019-04-20T13:02:21.000Z</time>
      </trkpt>
      <trkpt lat="43.94792" lon="7.33171">
        <ele>911.40002441406</ele>
        <time>2019-04-20T13:02:29.000Z</time>
      </trkpt>
      <trkpt lat="43.94792" lon="7.33172">
        <ele>910.79998779297</ele>
        <time>2019-04-20T13:02:44.000Z</time>
      </trkpt>
      <trkpt lat="43.94792" lon="7.33172">
        <ele>910.59997558594</ele>
        <time>2019-04-20T13:02:58.000Z</time>
      </trkpt>
      <trkpt lat="43.94793" lon="7.33173">
        <ele>910.40002441406</ele>
        <time>2019-04-20T13:03:04.000Z</time>
      </trkpt>
      <trkpt lat="43.94792" lon="7.33174">
        <ele>911.20001220703</ele>
        <time>2019-04-20T13:03:15.000Z</time>
      </trkpt>
      <trkpt lat="43.94791" lon="7.33174">
        <ele>910.59997558594</ele>
        <time>2019-04-20T13:03:21.000Z</time>
      </trkpt>
      <trkpt lat="43.94791" lon="7.33174">
        <ele>910.20001220703</ele>
        <time>2019-04-20T13:03:23.000Z</time>
      </trkpt>
      <trkpt lat="43.9479" lon="7.33174">
        <ele>910.40002441406</ele>
        <time>2019-04-20T13:03:30.000Z</time>
      </trkpt>
      <trkpt lat="43.94789" lon="7.33174">
        <ele>910.79998779297</ele>
        <time>2019-04-20T13:03:44.000Z</time>
      </trkpt>
      <trkpt lat="43.94788" lon="7.33176">
        <ele>910.59997558594</ele>
        <time>2019-04-20T13:03:57.000Z</time>
      </trkpt>
      <trkpt lat="43.94788" lon="7.33176">
        <ele>910.40002441406</ele>
        <time>2019-04-20T13:04:07.000Z</time>
      </trkpt>
      <trkpt lat="43.94788" lon="7.33177">
        <ele>910.40002441406</ele>
        <time>2019-04-20T13:04:15.000Z</time>
      </trkpt>
      <trkpt lat="43.94788" lon="7.33177">
        <ele>910.20001220703</ele>
        <time>2019-04-20T13:04:29.000Z</time>
      </trkpt>
      <trkpt lat="43.94788" lon="7.33177">
        <ele>910.20001220703</ele>
        <time>2019-04-20T13:04:54.000Z</time>
      </trkpt>
      <trkpt lat="43.94788" lon="7.33177">
        <ele>910.40002441406</ele>
        <time>2019-04-20T13:05:19.000Z</time>
      </trkpt>
      <trkpt lat="43.94787" lon="7.33176">
        <ele>910.40002441406</ele>
        <time>2019-04-20T13:05:24.000Z</time>
      </trkpt>
      <trkpt lat="43.94787" lon="7.33176">
        <ele>910.40002441406</ele>
        <time>2019-04-20T13:05:27.000Z</time>
      </trkpt>
      <trkpt lat="43.94788" lon="7.33176">
        <ele>910.20001220703</ele>
        <time>2019-04-20T13:05:34.000Z</time>
      </trkpt>
      <trkpt lat="43.94788" lon="7.33177">
        <ele>910.20001220703</ele>
        <time>2019-04-20T13:05:45.000Z</time>
      </trkpt>
      <trkpt lat="43.94788" lon="7.33177">
        <ele>910.40002441406</ele>
        <time>2019-04-20T13:05:53.000Z</time>
      </trkpt>
      <trkpt lat="43.94788" lon="7.33182">
        <ele>910.40002441406</ele>
        <time>2019-04-20T13:06:09.000Z</time>
      </trkpt>
      <trkpt lat="43.94785" lon="7.33186">
        <ele>910.20001220703</ele>
        <time>2019-04-20T13:06:11.000Z</time>
      </trkpt>
      <trkpt lat="43.94783" lon="7.33187">
        <ele>910.20001220703</ele>
        <time>2019-04-20T13:06:12.000Z</time>
      </trkpt>
      <trkpt lat="43.94777" lon="7.33198">
        <ele>909.40002441406</ele>
        <time>2019-04-20T13:06:15.000Z</time>
      </trkpt>
      <trkpt lat="43.94778" lon="7.33203">
        <ele>908.79998779297</ele>
        <time>2019-04-20T13:06:16.000Z</time>
      </trkpt>
      <trkpt lat="43.94781" lon="7.33213">
        <ele>907.79998779297</ele>
        <time>2019-04-20T13:06:18.000Z</time>
      </trkpt>
      <trkpt lat="43.94782" lon="7.33218">
        <ele>907.20001220703</ele>
        <time>2019-04-20T13:06:19.000Z</time>
      </trkpt>
      <trkpt lat="43.94785" lon="7.33222">
        <ele>906.20001220703</ele>
        <time>2019-04-20T13:06:20.000Z</time>
      </trkpt>
      <trkpt lat="43.9479" lon="7.33241">
        <ele>904.59997558594</ele>
        <time>2019-04-20T13:06:23.000Z</time>
      </trkpt>
      <trkpt lat="43.94792" lon="7.33249">
        <ele>903</ele>
        <time>2019-04-20T13:06:24.000Z</time>
      </trkpt>
      <trkpt lat="43.94793" lon="7.33257">
        <ele>902.20001220703</ele>
        <time>2019-04-20T13:06:25.000Z</time>
      </trkpt>
      <trkpt lat="43.94794" lon="7.33264">
        <ele>900.79998779297</ele>
        <time>2019-04-20T13:06:26.000Z</time>
      </trkpt>
      <trkpt lat="43.94796" lon="7.33273">
        <ele>898.79998779297</ele>
        <time>2019-04-20T13:06:27.000Z</time>
      </trkpt>
      <trkpt lat="43.94796" lon="7.33282">
        <ele>897.20001220703</ele>
        <time>2019-04-20T13:06:28.000Z</time>
      </trkpt>
      <trkpt lat="43.94794" lon="7.3329">
        <ele>896.40002441406</ele>
        <time>2019-04-20T13:06:29.000Z</time>
      </trkpt>
      <trkpt lat="43.94794" lon="7.33295">
        <ele>894.79998779297</ele>
        <time>2019-04-20T13:06:30.000Z</time>
      </trkpt>
      <trkpt lat="43.94796" lon="7.33299">
        <ele>893.20001220703</ele>
        <time>2019-04-20T13:06:31.000Z</time>
      </trkpt>
      <trkpt lat="43.94799" lon="7.33304">
        <ele>891.79998779297</ele>
        <time>2019-04-20T13:06:32.000Z</time>
      </trkpt>
      <trkpt lat="43.94804" lon="7.33309">
        <ele>890.59997558594</ele>
        <time>2019-04-20T13:06:33.000Z</time>
      </trkpt>
      <trkpt lat="43.94808" lon="7.33321">
        <ele>889.40002441406</ele>
        <time>2019-04-20T13:06:35.000Z</time>
      </trkpt>
      <trkpt lat="43.9481" lon="7.33343">
        <ele>888.59997558594</ele>
        <time>2019-04-20T13:06:39.000Z</time>
      </trkpt>
      <trkpt lat="43.94807" lon="7.33344">
        <ele>888.40002441406</ele>
        <time>2019-04-20T13:06:40.000Z</time>
      </trkpt>
      <trkpt lat="43.94803" lon="7.33357">
        <ele>888</ele>
        <time>2019-04-20T13:06:42.000Z</time>
      </trkpt>
      <trkpt lat="43.9481" lon="7.33378">
        <ele>886.59997558594</ele>
        <time>2019-04-20T13:06:45.000Z</time>
      </trkpt>
      <trkpt lat="43.94814" lon="7.33385">
        <ele>885.59997558594</ele>
        <time>2019-04-20T13:06:46.000Z</time>
      </trkpt>
      <trkpt lat="43.94818" lon="7.33396">
        <ele>883.40002441406</ele>
        <time>2019-04-20T13:06:48.000Z</time>
      </trkpt>
      <trkpt lat="43.94817" lon="7.33402">
        <ele>882.40002441406</ele>
        <time>2019-04-20T13:06:49.000Z</time>
      </trkpt>
      <trkpt lat="43.94808" lon="7.3341">
        <ele>881</ele>
        <time>2019-04-20T13:06:52.000Z</time>
      </trkpt>
      <trkpt lat="43.94798" lon="7.33406">
        <ele>880.79998779297</ele>
        <time>2019-04-20T13:06:56.000Z</time>
      </trkpt>
      <trkpt lat="43.94793" lon="7.33409">
        <ele>882.40002441406</ele>
        <time>2019-04-20T13:06:59.000Z</time>
      </trkpt>
      <trkpt lat="43.94789" lon="7.33411">
        <ele>883</ele>
        <time>2019-04-20T13:07:00.000Z</time>
      </trkpt>
      <trkpt lat="43.9478" lon="7.33404">
        <ele>883.20001220703</ele>
        <time>2019-04-20T13:07:03.000Z</time>
      </trkpt>
      <trkpt lat="43.94773" lon="7.33402">
        <ele>883.59997558594</ele>
        <time>2019-04-20T13:07:06.000Z</time>
      </trkpt>
      <trkpt lat="43.94768" lon="7.33399">
        <ele>884.20001220703</ele>
        <time>2019-04-20T13:07:08.000Z</time>
      </trkpt>
      <trkpt lat="43.94759" lon="7.33398">
        <ele>884.79998779297</ele>
        <time>2019-04-20T13:07:11.000Z</time>
      </trkpt>
      <trkpt lat="43.94752" lon="7.33397">
        <ele>885.40002441406</ele>
        <time>2019-04-20T13:07:14.000Z</time>
      </trkpt>
      <trkpt lat="43.94747" lon="7.33393">
        <ele>885.79998779297</ele>
        <time>2019-04-20T13:07:16.000Z</time>
      </trkpt>
      <trkpt lat="43.9474" lon="7.33389">
        <ele>886.79998779297</ele>
        <time>2019-04-20T13:07:19.000Z</time>
      </trkpt>
      <trkpt lat="43.94735" lon="7.33388">
        <ele>887</ele>
        <time>2019-04-20T13:07:21.000Z</time>
      </trkpt>
      <trkpt lat="43.94729" lon="7.33385">
        <ele>887</ele>
        <time>2019-04-20T13:07:24.000Z</time>
      </trkpt>
      <trkpt lat="43.94709" lon="7.33383">
        <ele>887</ele>
        <time>2019-04-20T13:07:30.000Z</time>
      </trkpt>
      <trkpt lat="43.94703" lon="7.3339">
        <ele>886.79998779297</ele>
        <time>2019-04-20T13:07:32.000Z</time>
      </trkpt>
      <trkpt lat="43.94698" lon="7.33399">
        <ele>886.59997558594</ele>
        <time>2019-04-20T13:07:34.000Z</time>
      </trkpt>
      <trkpt lat="43.94694" lon="7.33403">
        <ele>886.20001220703</ele>
        <time>2019-04-20T13:07:35.000Z</time>
      </trkpt>
      <trkpt lat="43.94689" lon="7.33404">
        <ele>885.79998779297</ele>
        <time>2019-04-20T13:07:36.000Z</time>
      </trkpt>
      <trkpt lat="43.94684" lon="7.33404">
        <ele>885.40002441406</ele>
        <time>2019-04-20T13:07:37.000Z</time>
      </trkpt>
      <trkpt lat="43.94675" lon="7.33405">
        <ele>885</ele>
        <time>2019-04-20T13:07:39.000Z</time>
      </trkpt>
      <trkpt lat="43.9467" lon="7.33407">
        <ele>885.20001220703</ele>
        <time>2019-04-20T13:07:40.000Z</time>
      </trkpt>
      <trkpt lat="43.9466" lon="7.3341">
        <ele>885</ele>
        <time>2019-04-20T13:07:42.000Z</time>
      </trkpt>
      <trkpt lat="43.94657" lon="7.33414">
        <ele>884.59997558594</ele>
        <time>2019-04-20T13:07:43.000Z</time>
      </trkpt>
      <trkpt lat="43.94656" lon="7.33423">
        <ele>883</ele>
        <time>2019-04-20T13:07:45.000Z</time>
      </trkpt>
      <trkpt lat="43.94661" lon="7.3343">
        <ele>881.40002441406</ele>
        <time>2019-04-20T13:07:47.000Z</time>
      </trkpt>
      <trkpt lat="43.94665" lon="7.33434">
        <ele>880.40002441406</ele>
        <time>2019-04-20T13:07:48.000Z</time>
      </trkpt>
      <trkpt lat="43.94669" lon="7.33439">
        <ele>880.20001220703</ele>
        <time>2019-04-20T13:07:49.000Z</time>
      </trkpt>
      <trkpt lat="43.94672" lon="7.33445">
        <ele>878.59997558594</ele>
        <time>2019-04-20T13:07:51.000Z</time>
      </trkpt>
      <trkpt lat="43.94675" lon="7.33448">
        <ele>878.20001220703</ele>
        <time>2019-04-20T13:07:52.000Z</time>
      </trkpt>
      <trkpt lat="43.94683" lon="7.33454">
        <ele>877.20001220703</ele>
        <time>2019-04-20T13:07:54.000Z</time>
      </trkpt>
      <trkpt lat="43.94687" lon="7.33458">
        <ele>876.79998779297</ele>
        <time>2019-04-20T13:07:55.000Z</time>
      </trkpt>
      <trkpt lat="43.9469" lon="7.33463">
        <ele>876.40002441406</ele>
        <time>2019-04-20T13:07:56.000Z</time>
      </trkpt>
      <trkpt lat="43.94693" lon="7.33468">
        <ele>875.79998779297</ele>
        <time>2019-04-20T13:07:57.000Z</time>
      </trkpt>
      <trkpt lat="43.94697" lon="7.33471">
        <ele>875.59997558594</ele>
        <time>2019-04-20T13:07:58.000Z</time>
      </trkpt>
      <trkpt lat="43.94706" lon="7.33484">
        <ele>874.79998779297</ele>
        <time>2019-04-20T13:08:01.000Z</time>
      </trkpt>
      <trkpt lat="43.94701" lon="7.33499">
        <ele>874.40002441406</ele>
        <time>2019-04-20T13:08:04.000Z</time>
      </trkpt>
      <trkpt lat="43.947" lon="7.33505">
        <ele>874.40002441406</ele>
        <time>2019-04-20T13:08:05.000Z</time>
      </trkpt>
      <trkpt lat="43.94698" lon="7.33516">
        <ele>873.59997558594</ele>
        <time>2019-04-20T13:08:07.000Z</time>
      </trkpt>
      <trkpt lat="43.94693" lon="7.33525">
        <ele>872.59997558594</ele>
        <time>2019-04-20T13:08:09.000Z</time>
      </trkpt>
      <trkpt lat="43.94693" lon="7.3353">
        <ele>872</ele>
        <time>2019-04-20T13:08:10.000Z</time>
      </trkpt>
      <trkpt lat="43.94691" lon="7.33537">
        <ele>871.40002441406</ele>
        <time>2019-04-20T13:08:11.000Z</time>
      </trkpt>
      <trkpt lat="43.94683" lon="7.33541">
        <ele>870.40002441406</ele>
        <time>2019-04-20T13:08:13.000Z</time>
      </trkpt>
      <trkpt lat="43.94673" lon="7.33538">
        <ele>869.59997558594</ele>
        <time>2019-04-20T13:08:16.000Z</time>
      </trkpt>
      <trkpt lat="43.94663" lon="7.33534">
        <ele>871</ele>
        <time>2019-04-20T13:08:21.000Z</time>
      </trkpt>
      <trkpt lat="43.94661" lon="7.33534">
        <ele>871.59997558594</ele>
        <time>2019-04-20T13:08:22.000Z</time>
      </trkpt>
      <trkpt lat="43.94655" lon="7.33537">
        <ele>873</ele>
        <time>2019-04-20T13:08:26.000Z</time>
      </trkpt>
      <trkpt lat="43.94653" lon="7.33542">
        <ele>873.20001220703</ele>
        <time>2019-04-20T13:08:27.000Z</time>
      </trkpt>
      <trkpt lat="43.94647" lon="7.3356">
        <ele>872.20001220703</ele>
        <time>2019-04-20T13:08:31.000Z</time>
      </trkpt>
      <trkpt lat="43.94645" lon="7.33564">
        <ele>871.59997558594</ele>
        <time>2019-04-20T13:08:32.000Z</time>
      </trkpt>
      <trkpt lat="43.94645" lon="7.3357">
        <ele>870.40002441406</ele>
        <time>2019-04-20T13:08:33.000Z</time>
      </trkpt>
      <trkpt lat="43.94648" lon="7.33576">
        <ele>869.40002441406</ele>
        <time>2019-04-20T13:08:34.000Z</time>
      </trkpt>
      <trkpt lat="43.9465" lon="7.33581">
        <ele>868.20001220703</ele>
        <time>2019-04-20T13:08:35.000Z</time>
      </trkpt>
      <trkpt lat="43.9465" lon="7.33595">
        <ele>866.59997558594</ele>
        <time>2019-04-20T13:08:37.000Z</time>
      </trkpt>
      <trkpt lat="43.94648" lon="7.336">
        <ele>866</ele>
        <time>2019-04-20T13:08:38.000Z</time>
      </trkpt>
      <trkpt lat="43.94642" lon="7.33611">
        <ele>866.40002441406</ele>
        <time>2019-04-20T13:08:41.000Z</time>
      </trkpt>
      <trkpt lat="43.94635" lon="7.33617">
        <ele>866.40002441406</ele>
        <time>2019-04-20T13:08:45.000Z</time>
      </trkpt>
      <trkpt lat="43.94633" lon="7.33616">
        <ele>866.79998779297</ele>
        <time>2019-04-20T13:08:47.000Z</time>
      </trkpt>
      <trkpt lat="43.94631" lon="7.33617">
        <ele>867.20001220703</ele>
        <time>2019-04-20T13:08:49.000Z</time>
      </trkpt>
      <trkpt lat="43.94628" lon="7.33618">
        <ele>868</ele>
        <time>2019-04-20T13:08:51.000Z</time>
      </trkpt>
      <trkpt lat="43.94624" lon="7.33616">
        <ele>868.79998779297</ele>
        <time>2019-04-20T13:08:54.000Z</time>
      </trkpt>
      <trkpt lat="43.94622" lon="7.33615">
        <ele>869</ele>
        <time>2019-04-20T13:08:55.000Z</time>
      </trkpt>
      <trkpt lat="43.94617" lon="7.33613">
        <ele>869.79998779297</ele>
        <time>2019-04-20T13:08:58.000Z</time>
      </trkpt>
      <trkpt lat="43.94615" lon="7.33611">
        <ele>870.40002441406</ele>
        <time>2019-04-20T13:09:00.000Z</time>
      </trkpt>
      <trkpt lat="43.94611" lon="7.33607">
        <ele>870.79998779297</ele>
        <time>2019-04-20T13:09:02.000Z</time>
      </trkpt>
      <trkpt lat="43.946" lon="7.33596">
        <ele>870.79998779297</ele>
        <time>2019-04-20T13:09:07.000Z</time>
      </trkpt>
      <trkpt lat="43.94586" lon="7.33584">
        <ele>870</ele>
        <time>2019-04-20T13:09:12.000Z</time>
      </trkpt>
      <trkpt lat="43.94574" lon="7.33574">
        <ele>871.40002441406</ele>
        <time>2019-04-20T13:09:18.000Z</time>
      </trkpt>
      <trkpt lat="43.94566" lon="7.33574">
        <ele>872</ele>
        <time>2019-04-20T13:09:23.000Z</time>
      </trkpt>
      <trkpt lat="43.94562" lon="7.33574">
        <ele>872.40002441406</ele>
        <time>2019-04-20T13:09:25.000Z</time>
      </trkpt>
      <trkpt lat="43.9456" lon="7.33575">
        <ele>873.20001220703</ele>
        <time>2019-04-20T13:09:28.000Z</time>
      </trkpt>
      <trkpt lat="43.94558" lon="7.33577">
        <ele>873.40002441406</ele>
        <time>2019-04-20T13:09:29.000Z</time>
      </trkpt>
      <trkpt lat="43.94557" lon="7.33577">
        <ele>873.59997558594</ele>
        <time>2019-04-20T13:09:30.000Z</time>
      </trkpt>
      <trkpt lat="43.94554" lon="7.3358">
        <ele>873.79998779297</ele>
        <time>2019-04-20T13:09:32.000Z</time>
      </trkpt>
      <trkpt lat="43.94549" lon="7.33584">
        <ele>874.59997558594</ele>
        <time>2019-04-20T13:09:36.000Z</time>
      </trkpt>
      <trkpt lat="43.94547" lon="7.33587">
        <ele>875.20001220703</ele>
        <time>2019-04-20T13:09:38.000Z</time>
      </trkpt>
      <trkpt lat="43.94546" lon="7.33588">
        <ele>875.59997558594</ele>
        <time>2019-04-20T13:09:39.000Z</time>
      </trkpt>
      <trkpt lat="43.94539" lon="7.33594">
        <ele>876</ele>
        <time>2019-04-20T13:09:42.000Z</time>
      </trkpt>
      <trkpt lat="43.94538" lon="7.33594">
        <ele>875.59997558594</ele>
        <time>2019-04-20T13:09:43.000Z</time>
      </trkpt>
      <trkpt lat="43.94534" lon="7.33594">
        <ele>875.20001220703</ele>
        <time>2019-04-20T13:09:46.000Z</time>
      </trkpt>
      <trkpt lat="43.94531" lon="7.33595">
        <ele>875</ele>
        <time>2019-04-20T13:09:47.000Z</time>
      </trkpt>
      <trkpt lat="43.94526" lon="7.33599">
        <ele>874.59997558594</ele>
        <time>2019-04-20T13:09:49.000Z</time>
      </trkpt>
      <trkpt lat="43.94522" lon="7.33602">
        <ele>873.20001220703</ele>
        <time>2019-04-20T13:09:51.000Z</time>
      </trkpt>
      <trkpt lat="43.94521" lon="7.33604">
        <ele>872</ele>
        <time>2019-04-20T13:09:52.000Z</time>
      </trkpt>
      <trkpt lat="43.94518" lon="7.33601">
        <ele>870.40002441406</ele>
        <time>2019-04-20T13:09:54.000Z</time>
      </trkpt>
      <trkpt lat="43.94519" lon="7.33599">
        <ele>869.59997558594</ele>
        <time>2019-04-20T13:09:55.000Z</time>
      </trkpt>
      <trkpt lat="43.94519" lon="7.33598">
        <ele>869</ele>
        <time>2019-04-20T13:09:56.000Z</time>
      </trkpt>
      <trkpt lat="43.94517" lon="7.33597">
        <ele>868</ele>
        <time>2019-04-20T13:09:58.000Z</time>
      </trkpt>
      <trkpt lat="43.94515" lon="7.33598">
        <ele>867.79998779297</ele>
        <time>2019-04-20T13:09:59.000Z</time>
      </trkpt>
      <trkpt lat="43.94512" lon="7.33606">
        <ele>866.59997558594</ele>
        <time>2019-04-20T13:10:03.000Z</time>
      </trkpt>
      <trkpt lat="43.94504" lon="7.33605">
        <ele>866.40002441406</ele>
        <time>2019-04-20T13:10:05.000Z</time>
      </trkpt>
      <trkpt lat="43.94496" lon="7.33594">
        <ele>865.79998779297</ele>
        <time>2019-04-20T13:10:09.000Z</time>
      </trkpt>
      <trkpt lat="43.94494" lon="7.3359">
        <ele>865.40002441406</ele>
        <time>2019-04-20T13:10:10.000Z</time>
      </trkpt>
      <trkpt lat="43.9449" lon="7.33582">
        <ele>864.79998779297</ele>
        <time>2019-04-20T13:10:12.000Z</time>
      </trkpt>
      <trkpt lat="43.94488" lon="7.33574">
        <ele>864.40002441406</ele>
        <time>2019-04-20T13:10:14.000Z</time>
      </trkpt>
      <trkpt lat="43.94482" lon="7.33559">
        <ele>864</ele>
        <time>2019-04-20T13:10:18.000Z</time>
      </trkpt>
      <trkpt lat="43.94476" lon="7.33541">
        <ele>864.40002441406</ele>
        <time>2019-04-20T13:10:23.000Z</time>
      </trkpt>
      <trkpt lat="43.94471" lon="7.33529">
        <ele>865</ele>
        <time>2019-04-20T13:10:27.000Z</time>
      </trkpt>
      <trkpt lat="43.94463" lon="7.33513">
        <ele>865.40002441406</ele>
        <time>2019-04-20T13:10:31.000Z</time>
      </trkpt>
      <trkpt lat="43.94458" lon="7.33507">
        <ele>865.40002441406</ele>
        <time>2019-04-20T13:10:33.000Z</time>
      </trkpt>
      <trkpt lat="43.94446" lon="7.33502">
        <ele>865.20001220703</ele>
        <time>2019-04-20T13:10:37.000Z</time>
      </trkpt>
      <trkpt lat="43.94429" lon="7.33493">
        <ele>865.20001220703</ele>
        <time>2019-04-20T13:10:42.000Z</time>
      </trkpt>
      <trkpt lat="43.9442" lon="7.33472">
        <ele>864.59997558594</ele>
        <time>2019-04-20T13:10:47.000Z</time>
      </trkpt>
      <trkpt lat="43.94414" lon="7.33445">
        <ele>866</ele>
        <time>2019-04-20T13:10:54.000Z</time>
      </trkpt>
      <trkpt lat="43.94408" lon="7.33439">
        <ele>866.59997558594</ele>
        <time>2019-04-20T13:10:57.000Z</time>
      </trkpt>
      <trkpt lat="43.94406" lon="7.33437">
        <ele>867</ele>
        <time>2019-04-20T13:10:59.000Z</time>
      </trkpt>
      <trkpt lat="43.94403" lon="7.33435">
        <ele>867.59997558594</ele>
        <time>2019-04-20T13:11:01.000Z</time>
      </trkpt>
      <trkpt lat="43.94397" lon="7.33431">
        <ele>868.59997558594</ele>
        <time>2019-04-20T13:11:05.000Z</time>
      </trkpt>
      <trkpt lat="43.94395" lon="7.3343">
        <ele>868.79998779297</ele>
        <time>2019-04-20T13:11:06.000Z</time>
      </trkpt>
      <trkpt lat="43.94389" lon="7.33427">
        <ele>870</ele>
        <time>2019-04-20T13:11:10.000Z</time>
      </trkpt>
      <trkpt lat="43.94387" lon="7.33427">
        <ele>870.40002441406</ele>
        <time>2019-04-20T13:11:12.000Z</time>
      </trkpt>
      <trkpt lat="43.94383" lon="7.33427">
        <ele>871</ele>
        <time>2019-04-20T13:11:15.000Z</time>
      </trkpt>
      <trkpt lat="43.94378" lon="7.33426">
        <ele>871.59997558594</ele>
        <time>2019-04-20T13:11:18.000Z</time>
      </trkpt>
      <trkpt lat="43.94373" lon="7.33426">
        <ele>872</ele>
        <time>2019-04-20T13:11:20.000Z</time>
      </trkpt>
      <trkpt lat="43.94367" lon="7.33428">
        <ele>873.40002441406</ele>
        <time>2019-04-20T13:11:23.000Z</time>
      </trkpt>
      <trkpt lat="43.94363" lon="7.33431">
        <ele>874.20001220703</ele>
        <time>2019-04-20T13:11:25.000Z</time>
      </trkpt>
      <trkpt lat="43.94359" lon="7.33433">
        <ele>874.59997558594</ele>
        <time>2019-04-20T13:11:27.000Z</time>
      </trkpt>
      <trkpt lat="43.94345" lon="7.33441">
        <ele>875</ele>
        <time>2019-04-20T13:11:31.000Z</time>
      </trkpt>
      <trkpt lat="43.94329" lon="7.33451">
        <ele>873.40002441406</ele>
        <time>2019-04-20T13:11:35.000Z</time>
      </trkpt>
      <trkpt lat="43.94325" lon="7.33455">
        <ele>873</ele>
        <time>2019-04-20T13:11:36.000Z</time>
      </trkpt>
      <trkpt lat="43.94322" lon="7.33458">
        <ele>872.79998779297</ele>
        <time>2019-04-20T13:11:37.000Z</time>
      </trkpt>
      <trkpt lat="43.94313" lon="7.33461">
        <ele>872.79998779297</ele>
        <time>2019-04-20T13:11:39.000Z</time>
      </trkpt>
      <trkpt lat="43.9431" lon="7.33461">
        <ele>872.79998779297</ele>
        <time>2019-04-20T13:11:40.000Z</time>
      </trkpt>
      <trkpt lat="43.94297" lon="7.33477">
        <ele>873</ele>
        <time>2019-04-20T13:11:44.000Z</time>
      </trkpt>
      <trkpt lat="43.94295" lon="7.33493">
        <ele>872.20001220703</ele>
        <time>2019-04-20T13:11:46.000Z</time>
      </trkpt>
      <trkpt lat="43.9429" lon="7.33497">
        <ele>871.79998779297</ele>
        <time>2019-04-20T13:11:47.000Z</time>
      </trkpt>
      <trkpt lat="43.94285" lon="7.33497">
        <ele>871.20001220703</ele>
        <time>2019-04-20T13:11:48.000Z</time>
      </trkpt>
      <trkpt lat="43.9428" lon="7.33499">
        <ele>870.20001220703</ele>
        <time>2019-04-20T13:11:49.000Z</time>
      </trkpt>
      <trkpt lat="43.94276" lon="7.33501">
        <ele>869.79998779297</ele>
        <time>2019-04-20T13:11:50.000Z</time>
      </trkpt>
      <trkpt lat="43.94271" lon="7.33504">
        <ele>869.79998779297</ele>
        <time>2019-04-20T13:11:51.000Z</time>
      </trkpt>
      <trkpt lat="43.94258" lon="7.33515">
        <ele>870.20001220703</ele>
        <time>2019-04-20T13:11:54.000Z</time>
      </trkpt>
      <trkpt lat="43.94255" lon="7.33518">
        <ele>870.40002441406</ele>
        <time>2019-04-20T13:11:55.000Z</time>
      </trkpt>
      <trkpt lat="43.9425" lon="7.33522">
        <ele>870.40002441406</ele>
        <time>2019-04-20T13:11:56.000Z</time>
      </trkpt>
      <trkpt lat="43.94241" lon="7.33525">
        <ele>870.59997558594</ele>
        <time>2019-04-20T13:11:58.000Z</time>
      </trkpt>
      <trkpt lat="43.94226" lon="7.33527">
        <ele>870</ele>
        <time>2019-04-20T13:12:01.000Z</time>
      </trkpt>
      <trkpt lat="43.94223" lon="7.3353">
        <ele>869.79998779297</ele>
        <time>2019-04-20T13:12:02.000Z</time>
      </trkpt>
      <trkpt lat="43.94208" lon="7.33546">
        <ele>868.79998779297</ele>
        <time>2019-04-20T13:12:06.000Z</time>
      </trkpt>
      <trkpt lat="43.94205" lon="7.33552">
        <ele>868.20001220703</ele>
        <time>2019-04-20T13:12:07.000Z</time>
      </trkpt>
      <trkpt lat="43.94197" lon="7.33565">
        <ele>868</ele>
        <time>2019-04-20T13:12:10.000Z</time>
      </trkpt>
      <trkpt lat="43.94193" lon="7.33567">
        <ele>868</ele>
        <time>2019-04-20T13:12:11.000Z</time>
      </trkpt>
      <trkpt lat="43.9418" lon="7.33572">
        <ele>867.59997558594</ele>
        <time>2019-04-20T13:12:14.000Z</time>
      </trkpt>
      <trkpt lat="43.94171" lon="7.33576">
        <ele>867.20001220703</ele>
        <time>2019-04-20T13:12:16.000Z</time>
      </trkpt>
      <trkpt lat="43.9417" lon="7.33581">
        <ele>867</ele>
        <time>2019-04-20T13:12:17.000Z</time>
      </trkpt>
      <trkpt lat="43.94171" lon="7.33588">
        <ele>866.79998779297</ele>
        <time>2019-04-20T13:12:18.000Z</time>
      </trkpt>
      <trkpt lat="43.94169" lon="7.33602">
        <ele>865.59997558594</ele>
        <time>2019-04-20T13:12:20.000Z</time>
      </trkpt>
      <trkpt lat="43.94165" lon="7.33607">
        <ele>864.59997558594</ele>
        <time>2019-04-20T13:12:21.000Z</time>
      </trkpt>
      <trkpt lat="43.94162" lon="7.33613">
        <ele>864.20001220703</ele>
        <time>2019-04-20T13:12:22.000Z</time>
      </trkpt>
      <trkpt lat="43.9416" lon="7.33626">
        <ele>863.20001220703</ele>
        <time>2019-04-20T13:12:24.000Z</time>
      </trkpt>
      <trkpt lat="43.94159" lon="7.33632">
        <ele>862.79998779297</ele>
        <time>2019-04-20T13:12:25.000Z</time>
      </trkpt>
      <trkpt lat="43.94158" lon="7.3364">
        <ele>862.59997558594</ele>
        <time>2019-04-20T13:12:26.000Z</time>
      </trkpt>
      <trkpt lat="43.94156" lon="7.33656">
        <ele>861.40002441406</ele>
        <time>2019-04-20T13:12:28.000Z</time>
      </trkpt>
      <trkpt lat="43.94156" lon="7.33662">
        <ele>861</ele>
        <time>2019-04-20T13:12:29.000Z</time>
      </trkpt>
      <trkpt lat="43.94156" lon="7.33666">
        <ele>860.59997558594</ele>
        <time>2019-04-20T13:12:30.000Z</time>
      </trkpt>
      <trkpt lat="43.9416" lon="7.33684">
        <ele>861</ele>
        <time>2019-04-20T13:12:34.000Z</time>
      </trkpt>
      <trkpt lat="43.94164" lon="7.33694">
        <ele>860.20001220703</ele>
        <time>2019-04-20T13:12:36.000Z</time>
      </trkpt>
      <trkpt lat="43.94166" lon="7.33699">
        <ele>860</ele>
        <time>2019-04-20T13:12:37.000Z</time>
      </trkpt>
      <trkpt lat="43.9417" lon="7.33703">
        <ele>858.59997558594</ele>
        <time>2019-04-20T13:12:38.000Z</time>
      </trkpt>
      <trkpt lat="43.94178" lon="7.33711">
        <ele>857</ele>
        <time>2019-04-20T13:12:40.000Z</time>
      </trkpt>
      <trkpt lat="43.94181" lon="7.33716">
        <ele>856.40002441406</ele>
        <time>2019-04-20T13:12:41.000Z</time>
      </trkpt>
      <trkpt lat="43.94184" lon="7.33722">
        <ele>854.79998779297</ele>
        <time>2019-04-20T13:12:42.000Z</time>
      </trkpt>
      <trkpt lat="43.9418" lon="7.33738">
        <ele>854.20001220703</ele>
        <time>2019-04-20T13:12:45.000Z</time>
      </trkpt>
      <trkpt lat="43.94175" lon="7.33759">
        <ele>854.40002441406</ele>
        <time>2019-04-20T13:12:49.000Z</time>
      </trkpt>
      <trkpt lat="43.94173" lon="7.33765">
        <ele>854.40002441406</ele>
        <time>2019-04-20T13:12:50.000Z</time>
      </trkpt>
      <trkpt lat="43.94171" lon="7.33774">
        <ele>854.40002441406</ele>
        <time>2019-04-20T13:12:51.000Z</time>
      </trkpt>
      <trkpt lat="43.9417" lon="7.33784">
        <ele>854.20001220703</ele>
        <time>2019-04-20T13:12:52.000Z</time>
      </trkpt>
      <trkpt lat="43.94169" lon="7.33792">
        <ele>853.79998779297</ele>
        <time>2019-04-20T13:12:53.000Z</time>
      </trkpt>
      <trkpt lat="43.94166" lon="7.33799">
        <ele>853.20001220703</ele>
        <time>2019-04-20T13:12:54.000Z</time>
      </trkpt>
      <trkpt lat="43.94162" lon="7.33804">
        <ele>852.40002441406</ele>
        <time>2019-04-20T13:12:55.000Z</time>
      </trkpt>
      <trkpt lat="43.94159" lon="7.33809">
        <ele>852</ele>
        <time>2019-04-20T13:12:56.000Z</time>
      </trkpt>
      <trkpt lat="43.94157" lon="7.33813">
        <ele>851.20001220703</ele>
        <time>2019-04-20T13:12:57.000Z</time>
      </trkpt>
      <trkpt lat="43.94151" lon="7.33818">
        <ele>851</ele>
        <time>2019-04-20T13:13:00.000Z</time>
      </trkpt>
      <trkpt lat="43.94138" lon="7.33824">
        <ele>851.59997558594</ele>
        <time>2019-04-20T13:13:05.000Z</time>
      </trkpt>
      <trkpt lat="43.94127" lon="7.33823">
        <ele>852.40002441406</ele>
        <time>2019-04-20T13:13:09.000Z</time>
      </trkpt>
      <trkpt lat="43.94124" lon="7.33823">
        <ele>852.59997558594</ele>
        <time>2019-04-20T13:13:10.000Z</time>
      </trkpt>
      <trkpt lat="43.94118" lon="7.33822">
        <ele>853.59997558594</ele>
        <time>2019-04-20T13:13:12.000Z</time>
      </trkpt>
      <trkpt lat="43.94102" lon="7.33823">
        <ele>854.40002441406</ele>
        <time>2019-04-20T13:13:16.000Z</time>
      </trkpt>
      <trkpt lat="43.94097" lon="7.33822">
        <ele>854.20001220703</ele>
        <time>2019-04-20T13:13:17.000Z</time>
      </trkpt>
      <trkpt lat="43.94086" lon="7.33825">
        <ele>854</ele>
        <time>2019-04-20T13:13:19.000Z</time>
      </trkpt>
      <trkpt lat="43.94078" lon="7.33833">
        <ele>853</ele>
        <time>2019-04-20T13:13:21.000Z</time>
      </trkpt>
      <trkpt lat="43.94074" lon="7.33839">
        <ele>852.40002441406</ele>
        <time>2019-04-20T13:13:22.000Z</time>
      </trkpt>
      <trkpt lat="43.94069" lon="7.3385">
        <ele>851.40002441406</ele>
        <time>2019-04-20T13:13:24.000Z</time>
      </trkpt>
      <trkpt lat="43.94069" lon="7.33855">
        <ele>851.20001220703</ele>
        <time>2019-04-20T13:13:25.000Z</time>
      </trkpt>
      <trkpt lat="43.94075" lon="7.33876">
        <ele>850.40002441406</ele>
        <time>2019-04-20T13:13:28.000Z</time>
      </trkpt>
      <trkpt lat="43.94082" lon="7.33892">
        <ele>849</ele>
        <time>2019-04-20T13:13:30.000Z</time>
      </trkpt>
      <trkpt lat="43.94084" lon="7.33899">
        <ele>848</ele>
        <time>2019-04-20T13:13:31.000Z</time>
      </trkpt>
      <trkpt lat="43.94087" lon="7.33904">
        <ele>847</ele>
        <time>2019-04-20T13:13:32.000Z</time>
      </trkpt>
      <trkpt lat="43.94087" lon="7.33915">
        <ele>844.79998779297</ele>
        <time>2019-04-20T13:13:34.000Z</time>
      </trkpt>
      <trkpt lat="43.94089" lon="7.33922">
        <ele>844</ele>
        <time>2019-04-20T13:13:35.000Z</time>
      </trkpt>
      <trkpt lat="43.94089" lon="7.33946">
        <ele>843.59997558594</ele>
        <time>2019-04-20T13:13:38.000Z</time>
      </trkpt>
      <trkpt lat="43.94089" lon="7.33951">
        <ele>843.40002441406</ele>
        <time>2019-04-20T13:13:39.000Z</time>
      </trkpt>
      <trkpt lat="43.94088" lon="7.33954">
        <ele>842.79998779297</ele>
        <time>2019-04-20T13:13:41.000Z</time>
      </trkpt>
      <trkpt lat="43.94088" lon="7.33954">
        <ele>843</ele>
        <time>2019-04-20T13:13:46.000Z</time>
      </trkpt>
      <trkpt lat="43.94087" lon="7.33956">
        <ele>843.40002441406</ele>
        <time>2019-04-20T13:13:52.000Z</time>
      </trkpt>
      <trkpt lat="43.94085" lon="7.33957">
        <ele>844</ele>
        <time>2019-04-20T13:13:55.000Z</time>
      </trkpt>
      <trkpt lat="43.94084" lon="7.33955">
        <ele>844.20001220703</ele>
        <time>2019-04-20T13:13:57.000Z</time>
      </trkpt>
      <trkpt lat="43.94079" lon="7.33954">
        <ele>844</ele>
        <time>2019-04-20T13:14:03.000Z</time>
      </trkpt>
      <trkpt lat="43.94076" lon="7.33951">
        <ele>844.59997558594</ele>
        <time>2019-04-20T13:14:09.000Z</time>
      </trkpt>
      <trkpt lat="43.94076" lon="7.3395">
        <ele>844.79998779297</ele>
        <time>2019-04-20T13:14:11.000Z</time>
      </trkpt>
      <trkpt lat="43.9407" lon="7.33949">
        <ele>845</ele>
        <time>2019-04-20T13:14:18.000Z</time>
      </trkpt>
      <trkpt lat="43.94068" lon="7.33948">
        <ele>844.59997558594</ele>
        <time>2019-04-20T13:14:24.000Z</time>
      </trkpt>
      <trkpt lat="43.94064" lon="7.33947">
        <ele>843.59997558594</ele>
        <time>2019-04-20T13:14:31.000Z</time>
      </trkpt>
      <trkpt lat="43.94063" lon="7.33947">
        <ele>843.59997558594</ele>
        <time>2019-04-20T13:14:32.000Z</time>
      </trkpt>
      <trkpt lat="43.94059" lon="7.33946">
        <ele>843.59997558594</ele>
        <time>2019-04-20T13:14:38.000Z</time>
      </trkpt>
      <trkpt lat="43.94055" lon="7.33947">
        <ele>843.40002441406</ele>
        <time>2019-04-20T13:14:44.000Z</time>
      </trkpt>
      <trkpt lat="43.94051" lon="7.33947">
        <ele>842.79998779297</ele>
        <time>2019-04-20T13:14:51.000Z</time>
      </trkpt>
      <trkpt lat="43.94046" lon="7.33948">
        <ele>842.40002441406</ele>
        <time>2019-04-20T13:14:56.000Z</time>
      </trkpt>
      <trkpt lat="43.94045" lon="7.33947">
        <ele>842.59997558594</ele>
        <time>2019-04-20T13:14:57.000Z</time>
      </trkpt>
      <trkpt lat="43.94039" lon="7.33948">
        <ele>842.79998779297</ele>
        <time>2019-04-20T13:15:04.000Z</time>
      </trkpt>
      <trkpt lat="43.94038" lon="7.33949">
        <ele>842.79998779297</ele>
        <time>2019-04-20T13:15:06.000Z</time>
      </trkpt>
      <trkpt lat="43.94035" lon="7.33948">
        <ele>843.59997558594</ele>
        <time>2019-04-20T13:15:10.000Z</time>
      </trkpt>
      <trkpt lat="43.94031" lon="7.33947">
        <ele>844.59997558594</ele>
        <time>2019-04-20T13:15:17.000Z</time>
      </trkpt>
      <trkpt lat="43.9403" lon="7.33947">
        <ele>845</ele>
        <time>2019-04-20T13:15:24.000Z</time>
      </trkpt>
      <trkpt lat="43.94027" lon="7.33946">
        <ele>845.40002441406</ele>
        <time>2019-04-20T13:15:43.000Z</time>
      </trkpt>
      <trkpt lat="43.94024" lon="7.33942">
        <ele>845.79998779297</ele>
        <time>2019-04-20T13:15:47.000Z</time>
      </trkpt>
      <trkpt lat="43.94021" lon="7.3394">
        <ele>846.20001220703</ele>
        <time>2019-04-20T13:15:50.000Z</time>
      </trkpt>
      <trkpt lat="43.94017" lon="7.33938">
        <ele>846.79998779297</ele>
        <time>2019-04-20T13:15:53.000Z</time>
      </trkpt>
      <trkpt lat="43.94011" lon="7.33936">
        <ele>847.59997558594</ele>
        <time>2019-04-20T13:15:59.000Z</time>
      </trkpt>
      <trkpt lat="43.9401" lon="7.33935">
        <ele>847.79998779297</ele>
        <time>2019-04-20T13:16:00.000Z</time>
      </trkpt>
      <trkpt lat="43.94004" lon="7.33934">
        <ele>849</ele>
        <time>2019-04-20T13:16:07.000Z</time>
      </trkpt>
      <trkpt lat="43.94004" lon="7.33934">
        <ele>849.20001220703</ele>
        <time>2019-04-20T13:16:08.000Z</time>
      </trkpt>
      <trkpt lat="43.94003" lon="7.33932">
        <ele>849.40002441406</ele>
        <time>2019-04-20T13:16:10.000Z</time>
      </trkpt>
      <trkpt lat="43.94003" lon="7.33933">
        <ele>849.59997558594</ele>
        <time>2019-04-20T13:16:12.000Z</time>
      </trkpt>
      <trkpt lat="43.94002" lon="7.33932">
        <ele>849.59997558594</ele>
        <time>2019-04-20T13:16:14.000Z</time>
      </trkpt>
      <trkpt lat="43.93996" lon="7.33929">
        <ele>849.79998779297</ele>
        <time>2019-04-20T13:16:17.000Z</time>
      </trkpt>
      <trkpt lat="43.93989" lon="7.33922">
        <ele>850.20001220703</ele>
        <time>2019-04-20T13:16:22.000Z</time>
      </trkpt>
      <trkpt lat="43.93988" lon="7.3392">
        <ele>850.59997558594</ele>
        <time>2019-04-20T13:16:23.000Z</time>
      </trkpt>
      <trkpt lat="43.93985" lon="7.33917">
        <ele>851.40002441406</ele>
        <time>2019-04-20T13:16:25.000Z</time>
      </trkpt>
      <trkpt lat="43.93979" lon="7.33914">
        <ele>852.59997558594</ele>
        <time>2019-04-20T13:16:29.000Z</time>
      </trkpt>
      <trkpt lat="43.93974" lon="7.33912">
        <ele>853.59997558594</ele>
        <time>2019-04-20T13:16:32.000Z</time>
      </trkpt>
      <trkpt lat="43.9397" lon="7.3391">
        <ele>854.79998779297</ele>
        <time>2019-04-20T13:16:35.000Z</time>
      </trkpt>
      <trkpt lat="43.93965" lon="7.33909">
        <ele>856.20001220703</ele>
        <time>2019-04-20T13:16:39.000Z</time>
      </trkpt>
      <trkpt lat="43.93963" lon="7.33907">
        <ele>856.40002441406</ele>
        <time>2019-04-20T13:16:40.000Z</time>
      </trkpt>
      <trkpt lat="43.93955" lon="7.33904">
        <ele>856.59997558594</ele>
        <time>2019-04-20T13:16:45.000Z</time>
      </trkpt>
      <trkpt lat="43.9395" lon="7.33902">
        <ele>857.20001220703</ele>
        <time>2019-04-20T13:16:48.000Z</time>
      </trkpt>
      <trkpt lat="43.93948" lon="7.339">
        <ele>857.40002441406</ele>
        <time>2019-04-20T13:16:49.000Z</time>
      </trkpt>
      <trkpt lat="43.93945" lon="7.33898">
        <ele>857.40002441406</ele>
        <time>2019-04-20T13:16:51.000Z</time>
      </trkpt>
      <trkpt lat="43.93934" lon="7.33895">
        <ele>858.59997558594</ele>
        <time>2019-04-20T13:16:57.000Z</time>
      </trkpt>
      <trkpt lat="43.93926" lon="7.33898">
        <ele>859.79998779297</ele>
        <time>2019-04-20T13:17:01.000Z</time>
      </trkpt>
      <trkpt lat="43.93924" lon="7.33902">
        <ele>859.59997558594</ele>
        <time>2019-04-20T13:17:02.000Z</time>
      </trkpt>
      <trkpt lat="43.93922" lon="7.33904">
        <ele>859.59997558594</ele>
        <time>2019-04-20T13:17:03.000Z</time>
      </trkpt>
      <trkpt lat="43.93909" lon="7.33928">
        <ele>859.79998779297</ele>
        <time>2019-04-20T13:17:09.000Z</time>
      </trkpt>
      <trkpt lat="43.93907" lon="7.33939">
        <ele>859.20001220703</ele>
        <time>2019-04-20T13:17:11.000Z</time>
      </trkpt>
      <trkpt lat="43.93901" lon="7.33949">
        <ele>858.79998779297</ele>
        <time>2019-04-20T13:17:13.000Z</time>
      </trkpt>
      <trkpt lat="43.93898" lon="7.3395">
        <ele>858.40002441406</ele>
        <time>2019-04-20T13:17:14.000Z</time>
      </trkpt>
      <trkpt lat="43.93894" lon="7.33955">
        <ele>858.20001220703</ele>
        <time>2019-04-20T13:17:16.000Z</time>
      </trkpt>
      <trkpt lat="43.93882" lon="7.33975">
        <ele>859.20001220703</ele>
        <time>2019-04-20T13:17:21.000Z</time>
      </trkpt>
      <trkpt lat="43.93882" lon="7.33981">
        <ele>859</ele>
        <time>2019-04-20T13:17:22.000Z</time>
      </trkpt>
      <trkpt lat="43.93878" lon="7.33991">
        <ele>858.79998779297</ele>
        <time>2019-04-20T13:17:24.000Z</time>
      </trkpt>
      <trkpt lat="43.93869" lon="7.33999">
        <ele>858.40002441406</ele>
        <time>2019-04-20T13:17:26.000Z</time>
      </trkpt>
      <trkpt lat="43.93862" lon="7.3401">
        <ele>857.79998779297</ele>
        <time>2019-04-20T13:17:29.000Z</time>
      </trkpt>
      <trkpt lat="43.93859" lon="7.34025">
        <ele>857.40002441406</ele>
        <time>2019-04-20T13:17:31.000Z</time>
      </trkpt>
      <trkpt lat="43.93856" lon="7.34029">
        <ele>857.20001220703</ele>
        <time>2019-04-20T13:17:32.000Z</time>
      </trkpt>
      <trkpt lat="43.93853" lon="7.34034">
        <ele>857</ele>
        <time>2019-04-20T13:17:33.000Z</time>
      </trkpt>
      <trkpt lat="43.93852" lon="7.3404">
        <ele>857</ele>
        <time>2019-04-20T13:17:34.000Z</time>
      </trkpt>
      <trkpt lat="43.93841" lon="7.34045">
        <ele>857.20001220703</ele>
        <time>2019-04-20T13:17:37.000Z</time>
      </trkpt>
      <trkpt lat="43.93827" lon="7.34059">
        <ele>857.59997558594</ele>
        <time>2019-04-20T13:17:42.000Z</time>
      </trkpt>
      <trkpt lat="43.93818" lon="7.34089">
        <ele>857.20001220703</ele>
        <time>2019-04-20T13:17:47.000Z</time>
      </trkpt>
      <trkpt lat="43.93816" lon="7.34103">
        <ele>856.40002441406</ele>
        <time>2019-04-20T13:17:49.000Z</time>
      </trkpt>
      <trkpt lat="43.93818" lon="7.34116">
        <ele>856</ele>
        <time>2019-04-20T13:17:51.000Z</time>
      </trkpt>
      <trkpt lat="43.93819" lon="7.34137">
        <ele>855.59997558594</ele>
        <time>2019-04-20T13:17:54.000Z</time>
      </trkpt>
      <trkpt lat="43.93814" lon="7.34148">
        <ele>855.20001220703</ele>
        <time>2019-04-20T13:17:57.000Z</time>
      </trkpt>
      <trkpt lat="43.93806" lon="7.34154">
        <ele>855.59997558594</ele>
        <time>2019-04-20T13:18:00.000Z</time>
      </trkpt>
      <trkpt lat="43.93792" lon="7.34157">
        <ele>855.40002441406</ele>
        <time>2019-04-20T13:18:03.000Z</time>
      </trkpt>
      <trkpt lat="43.93785" lon="7.34174">
        <ele>854.79998779297</ele>
        <time>2019-04-20T13:18:06.000Z</time>
      </trkpt>
      <trkpt lat="43.93784" lon="7.3418">
        <ele>854.40002441406</ele>
        <time>2019-04-20T13:18:07.000Z</time>
      </trkpt>
      <trkpt lat="43.9378" lon="7.3419">
        <ele>853.59997558594</ele>
        <time>2019-04-20T13:18:09.000Z</time>
      </trkpt>
      <trkpt lat="43.93776" lon="7.34204">
        <ele>853</ele>
        <time>2019-04-20T13:18:11.000Z</time>
      </trkpt>
      <trkpt lat="43.93773" lon="7.34211">
        <ele>852.59997558594</ele>
        <time>2019-04-20T13:18:12.000Z</time>
      </trkpt>
      <trkpt lat="43.93766" lon="7.3423">
        <ele>852.20001220703</ele>
        <time>2019-04-20T13:18:15.000Z</time>
      </trkpt>
      <trkpt lat="43.93763" lon="7.34242">
        <ele>851.40002441406</ele>
        <time>2019-04-20T13:18:17.000Z</time>
      </trkpt>
      <trkpt lat="43.93759" lon="7.34244">
        <ele>851.40002441406</ele>
        <time>2019-04-20T13:18:18.000Z</time>
      </trkpt>
      <trkpt lat="43.93754" lon="7.34247">
        <ele>850.40002441406</ele>
        <time>2019-04-20T13:18:19.000Z</time>
      </trkpt>
      <trkpt lat="43.93751" lon="7.34246">
        <ele>849.20001220703</ele>
        <time>2019-04-20T13:18:20.000Z</time>
      </trkpt>
      <trkpt lat="43.93749" lon="7.34245">
        <ele>848</ele>
        <time>2019-04-20T13:18:21.000Z</time>
      </trkpt>
      <trkpt lat="43.93742" lon="7.34241">
        <ele>848</ele>
        <time>2019-04-20T13:18:25.000Z</time>
      </trkpt>
      <trkpt lat="43.93744" lon="7.3424">
        <ele>847</ele>
        <time>2019-04-20T13:18:29.000Z</time>
      </trkpt>
      <trkpt lat="43.93745" lon="7.34241">
        <ele>846.79998779297</ele>
        <time>2019-04-20T13:18:30.000Z</time>
      </trkpt>
      <trkpt lat="43.93745" lon="7.34241">
        <ele>847.40002441406</ele>
        <time>2019-04-20T13:18:34.000Z</time>
      </trkpt>
      <trkpt lat="43.93743" lon="7.34238">
        <ele>846.79998779297</ele>
        <time>2019-04-20T13:18:40.000Z</time>
      </trkpt>
      <trkpt lat="43.93739" lon="7.34238">
        <ele>846</ele>
        <time>2019-04-20T13:18:44.000Z</time>
      </trkpt>
      <trkpt lat="43.93739" lon="7.34237">
        <ele>845.59997558594</ele>
        <time>2019-04-20T13:18:45.000Z</time>
      </trkpt>
      <trkpt lat="43.93738" lon="7.34236">
        <ele>844.59997558594</ele>
        <time>2019-04-20T13:18:49.000Z</time>
      </trkpt>
      <trkpt lat="43.93734" lon="7.34235">
        <ele>844.40002441406</ele>
        <time>2019-04-20T13:18:55.000Z</time>
      </trkpt>
      <trkpt lat="43.93734" lon="7.34234">
        <ele>844.40002441406</ele>
        <time>2019-04-20T13:18:56.000Z</time>
      </trkpt>
      <trkpt lat="43.93732" lon="7.34234">
        <ele>843.59997558594</ele>
        <time>2019-04-20T13:19:02.000Z</time>
      </trkpt>
      <trkpt lat="43.93732" lon="7.34234">
        <ele>843.59997558594</ele>
        <time>2019-04-20T13:19:04.000Z</time>
      </trkpt>
      <trkpt lat="43.93729" lon="7.34233">
        <ele>843.79998779297</ele>
        <time>2019-04-20T13:19:15.000Z</time>
      </trkpt>
      <trkpt lat="43.93728" lon="7.34233">
        <ele>842.40002441406</ele>
        <time>2019-04-20T13:19:22.000Z</time>
      </trkpt>
      <trkpt lat="43.93727" lon="7.34232">
        <ele>841.40002441406</ele>
        <time>2019-04-20T13:19:27.000Z</time>
      </trkpt>
      <trkpt lat="43.93726" lon="7.34232">
        <ele>841.20001220703</ele>
        <time>2019-04-20T13:19:28.000Z</time>
      </trkpt>
      <trkpt lat="43.93726" lon="7.34231">
        <ele>840.40002441406</ele>
        <time>2019-04-20T13:19:32.000Z</time>
      </trkpt>
      <trkpt lat="43.93724" lon="7.34233">
        <ele>841</ele>
        <time>2019-04-20T13:19:37.000Z</time>
      </trkpt>
      <trkpt lat="43.93723" lon="7.34231">
        <ele>840.59997558594</ele>
        <time>2019-04-20T13:19:42.000Z</time>
      </trkpt>
      <trkpt lat="43.9372" lon="7.34227">
        <ele>840</ele>
        <time>2019-04-20T13:19:47.000Z</time>
      </trkpt>
      <trkpt lat="43.9372" lon="7.34226">
        <ele>840</ele>
        <time>2019-04-20T13:19:48.000Z</time>
      </trkpt>
      <trkpt lat="43.9372" lon="7.34224">
        <ele>839.79998779297</ele>
        <time>2019-04-20T13:19:52.000Z</time>
      </trkpt>
      <trkpt lat="43.9372" lon="7.34223">
        <ele>839.59997558594</ele>
        <time>2019-04-20T13:19:53.000Z</time>
      </trkpt>
      <trkpt lat="43.93718" lon="7.3422">
        <ele>839.40002441406</ele>
        <time>2019-04-20T13:20:00.000Z</time>
      </trkpt>
      <trkpt lat="43.93715" lon="7.34218">
        <ele>839.40002441406</ele>
        <time>2019-04-20T13:20:03.000Z</time>
      </trkpt>
      <trkpt lat="43.93714" lon="7.34216">
        <ele>839.40002441406</ele>
        <time>2019-04-20T13:20:06.000Z</time>
      </trkpt>
      <trkpt lat="43.93714" lon="7.34214">
        <ele>839.79998779297</ele>
        <time>2019-04-20T13:20:08.000Z</time>
      </trkpt>
      <trkpt lat="43.93712" lon="7.34213">
        <ele>840.40002441406</ele>
        <time>2019-04-20T13:20:10.000Z</time>
      </trkpt>
      <trkpt lat="43.93713" lon="7.34214">
        <ele>840.59997558594</ele>
        <time>2019-04-20T13:20:11.000Z</time>
      </trkpt>
      <trkpt lat="43.93711" lon="7.34213">
        <ele>841.40002441406</ele>
        <time>2019-04-20T13:20:16.000Z</time>
      </trkpt>
      <trkpt lat="43.93712" lon="7.34213">
        <ele>841.79998779297</ele>
        <time>2019-04-20T13:20:17.000Z</time>
      </trkpt>
      <trkpt lat="43.93712" lon="7.34213">
        <ele>841.59997558594</ele>
        <time>2019-04-20T13:20:20.000Z</time>
      </trkpt>
      <trkpt lat="43.93713" lon="7.34212">
        <ele>841</ele>
        <time>2019-04-20T13:20:30.000Z</time>
      </trkpt>
      <trkpt lat="43.93708" lon="7.34213">
        <ele>842.59997558594</ele>
        <time>2019-04-20T13:20:36.000Z</time>
      </trkpt>
      <trkpt lat="43.93707" lon="7.34212">
        <ele>842.79998779297</ele>
        <time>2019-04-20T13:20:38.000Z</time>
      </trkpt>
      <trkpt lat="43.93707" lon="7.34213">
        <ele>843</ele>
        <time>2019-04-20T13:20:41.000Z</time>
      </trkpt>
      <trkpt lat="43.93707" lon="7.34212">
        <ele>842.20001220703</ele>
        <time>2019-04-20T13:20:50.000Z</time>
      </trkpt>
      <trkpt lat="43.93706" lon="7.34213">
        <ele>842.20001220703</ele>
        <time>2019-04-20T13:21:02.000Z</time>
      </trkpt>
      <trkpt lat="43.93703" lon="7.34214">
        <ele>842.20001220703</ele>
        <time>2019-04-20T13:21:14.000Z</time>
      </trkpt>
      <trkpt lat="43.93702" lon="7.34215">
        <ele>842.20001220703</ele>
        <time>2019-04-20T13:21:24.000Z</time>
      </trkpt>
      <trkpt lat="43.93702" lon="7.34216">
        <ele>842.59997558594</ele>
        <time>2019-04-20T13:21:31.000Z</time>
      </trkpt>
      <trkpt lat="43.93702" lon="7.34215">
        <ele>842.59997558594</ele>
        <time>2019-04-20T13:21:32.000Z</time>
      </trkpt>
      <trkpt lat="43.93703" lon="7.34216">
        <ele>842.59997558594</ele>
        <time>2019-04-20T13:21:38.000Z</time>
      </trkpt>
      <trkpt lat="43.93702" lon="7.34215">
        <ele>842.40002441406</ele>
        <time>2019-04-20T13:21:48.000Z</time>
      </trkpt>
      <trkpt lat="43.93702" lon="7.34215">
        <ele>842.40002441406</ele>
        <time>2019-04-20T13:21:55.000Z</time>
      </trkpt>
      <trkpt lat="43.93703" lon="7.34216">
        <ele>842</ele>
        <time>2019-04-20T13:22:06.000Z</time>
      </trkpt>
      <trkpt lat="43.93701" lon="7.34216">
        <ele>842</ele>
        <time>2019-04-20T13:22:20.000Z</time>
      </trkpt>
      <trkpt lat="43.93704" lon="7.34216">
        <ele>842.40002441406</ele>
        <time>2019-04-20T13:22:38.000Z</time>
      </trkpt>
      <trkpt lat="43.93704" lon="7.34217">
        <ele>842.40002441406</ele>
        <time>2019-04-20T13:22:49.000Z</time>
      </trkpt>
      <trkpt lat="43.93705" lon="7.34216">
        <ele>842.40002441406</ele>
        <time>2019-04-20T13:23:00.000Z</time>
      </trkpt>
      <trkpt lat="43.93705" lon="7.34216">
        <ele>842.40002441406</ele>
        <time>2019-04-20T13:23:06.000Z</time>
      </trkpt>
      <trkpt lat="43.93704" lon="7.34216">
        <ele>842.59997558594</ele>
        <time>2019-04-20T13:23:13.000Z</time>
      </trkpt>
      <trkpt lat="43.93704" lon="7.34217">
        <ele>842.79998779297</ele>
        <time>2019-04-20T13:23:20.000Z</time>
      </trkpt>
      <trkpt lat="43.93704" lon="7.34217">
        <ele>842.40002441406</ele>
        <time>2019-04-20T13:23:26.000Z</time>
      </trkpt>
      <trkpt lat="43.93704" lon="7.34217">
        <ele>842.79998779297</ele>
        <time>2019-04-20T13:23:32.000Z</time>
      </trkpt>
      <trkpt lat="43.93704" lon="7.34217">
        <ele>842.59997558594</ele>
        <time>2019-04-20T13:23:43.000Z</time>
      </trkpt>
      <trkpt lat="43.93703" lon="7.34217">
        <ele>842.40002441406</ele>
        <time>2019-04-20T13:23:51.000Z</time>
      </trkpt>
      <trkpt lat="43.93703" lon="7.34217">
        <ele>842.59997558594</ele>
        <time>2019-04-20T13:24:00.000Z</time>
      </trkpt>
      <trkpt lat="43.93704" lon="7.34214">
        <ele>842.79998779297</ele>
        <time>2019-04-20T13:24:06.000Z</time>
      </trkpt>
      <trkpt lat="43.93703" lon="7.34211">
        <ele>843</ele>
        <time>2019-04-20T13:24:10.000Z</time>
      </trkpt>
      <trkpt lat="43.93699" lon="7.34207">
        <ele>842.79998779297</ele>
        <time>2019-04-20T13:24:13.000Z</time>
      </trkpt>
      <trkpt lat="43.93696" lon="7.34201">
        <ele>842.40002441406</ele>
        <time>2019-04-20T13:24:15.000Z</time>
      </trkpt>
      <trkpt lat="43.93692" lon="7.34192">
        <ele>842.40002441406</ele>
        <time>2019-04-20T13:24:17.000Z</time>
      </trkpt>
      <trkpt lat="43.93693" lon="7.34187">
        <ele>842.20001220703</ele>
        <time>2019-04-20T13:24:18.000Z</time>
      </trkpt>
      <trkpt lat="43.93695" lon="7.34183">
        <ele>842</ele>
        <time>2019-04-20T13:24:19.000Z</time>
      </trkpt>
      <trkpt lat="43.93699" lon="7.34178">
        <ele>842.79998779297</ele>
        <time>2019-04-20T13:24:23.000Z</time>
      </trkpt>
      <trkpt lat="43.93702" lon="7.34172">
        <ele>843.79998779297</ele>
        <time>2019-04-20T13:24:26.000Z</time>
      </trkpt>
      <trkpt lat="43.93704" lon="7.34167">
        <ele>845</ele>
        <time>2019-04-20T13:24:29.000Z</time>
      </trkpt>
      <trkpt lat="43.93705" lon="7.34166">
        <ele>845.40002441406</ele>
        <time>2019-04-20T13:24:30.000Z</time>
      </trkpt>
      <trkpt lat="43.93705" lon="7.34163">
        <ele>846</ele>
        <time>2019-04-20T13:24:31.000Z</time>
      </trkpt>
      <trkpt lat="43.93705" lon="7.34161">
        <ele>846.20001220703</ele>
        <time>2019-04-20T13:24:32.000Z</time>
      </trkpt>
      <trkpt lat="43.93704" lon="7.34156">
        <ele>846.59997558594</ele>
        <time>2019-04-20T13:24:34.000Z</time>
      </trkpt>
      <trkpt lat="43.93704" lon="7.34153">
        <ele>846.59997558594</ele>
        <time>2019-04-20T13:24:35.000Z</time>
      </trkpt>
      <trkpt lat="43.93698" lon="7.34138">
        <ele>847.40002441406</ele>
        <time>2019-04-20T13:24:41.000Z</time>
      </trkpt>
      <trkpt lat="43.93697" lon="7.34131">
        <ele>848.20001220703</ele>
        <time>2019-04-20T13:24:44.000Z</time>
      </trkpt>
      <trkpt lat="43.93697" lon="7.34129">
        <ele>848.40002441406</ele>
        <time>2019-04-20T13:24:45.000Z</time>
      </trkpt>
      <trkpt lat="43.93696" lon="7.34123">
        <ele>848.59997558594</ele>
        <time>2019-04-20T13:24:47.000Z</time>
      </trkpt>
      <trkpt lat="43.93696" lon="7.3412">
        <ele>848.59997558594</ele>
        <time>2019-04-20T13:24:48.000Z</time>
      </trkpt>
      <trkpt lat="43.93693" lon="7.34109">
        <ele>848.79998779297</ele>
        <time>2019-04-20T13:24:52.000Z</time>
      </trkpt>
      <trkpt lat="43.9369" lon="7.34099">
        <ele>849.59997558594</ele>
        <time>2019-04-20T13:24:56.000Z</time>
      </trkpt>
      <trkpt lat="43.93688" lon="7.34096">
        <ele>850</ele>
        <time>2019-04-20T13:24:58.000Z</time>
      </trkpt>
      <trkpt lat="43.93687" lon="7.34091">
        <ele>850.59997558594</ele>
        <time>2019-04-20T13:25:00.000Z</time>
      </trkpt>
      <trkpt lat="43.93686" lon="7.34088">
        <ele>851.59997558594</ele>
        <time>2019-04-20T13:25:04.000Z</time>
      </trkpt>
      <trkpt lat="43.93686" lon="7.34087">
        <ele>851.59997558594</ele>
        <time>2019-04-20T13:25:05.000Z</time>
      </trkpt>
      <trkpt lat="43.93682" lon="7.34081">
        <ele>852</ele>
        <time>2019-04-20T13:25:10.000Z</time>
      </trkpt>
      <trkpt lat="43.93679" lon="7.34078">
        <ele>852.59997558594</ele>
        <time>2019-04-20T13:25:13.000Z</time>
      </trkpt>
      <trkpt lat="43.93676" lon="7.34075">
        <ele>853.59997558594</ele>
        <time>2019-04-20T13:25:16.000Z</time>
      </trkpt>
      <trkpt lat="43.93675" lon="7.34074">
        <ele>854</ele>
        <time>2019-04-20T13:25:17.000Z</time>
      </trkpt>
      <trkpt lat="43.93672" lon="7.34073">
        <ele>854.59997558594</ele>
        <time>2019-04-20T13:25:20.000Z</time>
      </trkpt>
      <trkpt lat="43.93669" lon="7.34072">
        <ele>855.20001220703</ele>
        <time>2019-04-20T13:25:23.000Z</time>
      </trkpt>
      <trkpt lat="43.93665" lon="7.3407">
        <ele>855.79998779297</ele>
        <time>2019-04-20T13:25:27.000Z</time>
      </trkpt>
      <trkpt lat="43.93664" lon="7.34069">
        <ele>856</ele>
        <time>2019-04-20T13:25:28.000Z</time>
      </trkpt>
      <trkpt lat="43.93657" lon="7.34061">
        <ele>856.59997558594</ele>
        <time>2019-04-20T13:25:34.000Z</time>
      </trkpt>
      <trkpt lat="43.93651" lon="7.34057">
        <ele>856.79998779297</ele>
        <time>2019-04-20T13:25:38.000Z</time>
      </trkpt>
      <trkpt lat="43.93645" lon="7.34052">
        <ele>857.20001220703</ele>
        <time>2019-04-20T13:25:42.000Z</time>
      </trkpt>
      <trkpt lat="43.93643" lon="7.34046">
        <ele>858</ele>
        <time>2019-04-20T13:25:47.000Z</time>
      </trkpt>
      <trkpt lat="43.9364" lon="7.34038">
        <ele>858</ele>
        <time>2019-04-20T13:25:51.000Z</time>
      </trkpt>
      <trkpt lat="43.9364" lon="7.34035">
        <ele>858.20001220703</ele>
        <time>2019-04-20T13:25:52.000Z</time>
      </trkpt>
      <trkpt lat="43.93639" lon="7.34029">
        <ele>858</ele>
        <time>2019-04-20T13:25:55.000Z</time>
      </trkpt>
      <trkpt lat="43.9364" lon="7.34026">
        <ele>858.20001220703</ele>
        <time>2019-04-20T13:25:57.000Z</time>
      </trkpt>
      <trkpt lat="43.9364" lon="7.34023">
        <ele>858.79998779297</ele>
        <time>2019-04-20T13:26:01.000Z</time>
      </trkpt>
      <trkpt lat="43.9364" lon="7.3402">
        <ele>859</ele>
        <time>2019-04-20T13:26:03.000Z</time>
      </trkpt>
      <trkpt lat="43.93641" lon="7.34019">
        <ele>859.20001220703</ele>
        <time>2019-04-20T13:26:04.000Z</time>
      </trkpt>
      <trkpt lat="43.93641" lon="7.34018">
        <ele>859.79998779297</ele>
        <time>2019-04-20T13:26:07.000Z</time>
      </trkpt>
      <trkpt lat="43.93642" lon="7.34016">
        <ele>860</ele>
        <time>2019-04-20T13:26:09.000Z</time>
      </trkpt>
      <trkpt lat="43.93643" lon="7.3401">
        <ele>861.20001220703</ele>
        <time>2019-04-20T13:26:14.000Z</time>
      </trkpt>
      <trkpt lat="43.93644" lon="7.34007">
        <ele>861.40002441406</ele>
        <time>2019-04-20T13:26:17.000Z</time>
      </trkpt>
      <trkpt lat="43.93645" lon="7.34006">
        <ele>861.59997558594</ele>
        <time>2019-04-20T13:26:20.000Z</time>
      </trkpt>
      <trkpt lat="43.93646" lon="7.34002">
        <ele>862.20001220703</ele>
        <time>2019-04-20T13:26:23.000Z</time>
      </trkpt>
      <trkpt lat="43.93646" lon="7.34">
        <ele>863</ele>
        <time>2019-04-20T13:26:27.000Z</time>
      </trkpt>
      <trkpt lat="43.93646" lon="7.33999">
        <ele>863.40002441406</ele>
        <time>2019-04-20T13:26:29.000Z</time>
      </trkpt>
      <trkpt lat="43.93648" lon="7.33995">
        <ele>864.20001220703</ele>
        <time>2019-04-20T13:26:33.000Z</time>
      </trkpt>
      <trkpt lat="43.93647" lon="7.33995">
        <ele>864.40002441406</ele>
        <time>2019-04-20T13:26:34.000Z</time>
      </trkpt>
      <trkpt lat="43.93649" lon="7.33991">
        <ele>865.40002441406</ele>
        <time>2019-04-20T13:26:38.000Z</time>
      </trkpt>
      <trkpt lat="43.93649" lon="7.3399">
        <ele>865.59997558594</ele>
        <time>2019-04-20T13:26:39.000Z</time>
      </trkpt>
      <trkpt lat="43.9365" lon="7.33983">
        <ele>866.79998779297</ele>
        <time>2019-04-20T13:26:46.000Z</time>
      </trkpt>
      <trkpt lat="43.9365" lon="7.33979">
        <ele>868</ele>
        <time>2019-04-20T13:26:50.000Z</time>
      </trkpt>
      <trkpt lat="43.93651" lon="7.33975">
        <ele>868.59997558594</ele>
        <time>2019-04-20T13:26:54.000Z</time>
      </trkpt>
      <trkpt lat="43.93651" lon="7.33973">
        <ele>869</ele>
        <time>2019-04-20T13:26:56.000Z</time>
      </trkpt>
      <trkpt lat="43.93651" lon="7.33967">
        <ele>870.20001220703</ele>
        <time>2019-04-20T13:27:01.000Z</time>
      </trkpt>
      <trkpt lat="43.93651" lon="7.33966">
        <ele>870.20001220703</ele>
        <time>2019-04-20T13:27:02.000Z</time>
      </trkpt>
      <trkpt lat="43.93653" lon="7.3396">
        <ele>871.20001220703</ele>
        <time>2019-04-20T13:27:09.000Z</time>
      </trkpt>
      <trkpt lat="43.93653" lon="7.3396">
        <ele>871.40002441406</ele>
        <time>2019-04-20T13:27:10.000Z</time>
      </trkpt>
      <trkpt lat="43.93652" lon="7.33952">
        <ele>872.20001220703</ele>
        <time>2019-04-20T13:27:19.000Z</time>
      </trkpt>
      <trkpt lat="43.93653" lon="7.33951">
        <ele>872.40002441406</ele>
        <time>2019-04-20T13:27:20.000Z</time>
      </trkpt>
      <trkpt lat="43.93652" lon="7.33948">
        <ele>873.40002441406</ele>
        <time>2019-04-20T13:27:24.000Z</time>
      </trkpt>
      <trkpt lat="43.93653" lon="7.33947">
        <ele>873.79998779297</ele>
        <time>2019-04-20T13:27:25.000Z</time>
      </trkpt>
      <trkpt lat="43.93652" lon="7.33944">
        <ele>874.79998779297</ele>
        <time>2019-04-20T13:27:28.000Z</time>
      </trkpt>
      <trkpt lat="43.93651" lon="7.33941">
        <ele>875.59997558594</ele>
        <time>2019-04-20T13:27:32.000Z</time>
      </trkpt>
      <trkpt lat="43.93651" lon="7.3394">
        <ele>875.79998779297</ele>
        <time>2019-04-20T13:27:33.000Z</time>
      </trkpt>
      <trkpt lat="43.93652" lon="7.33935">
        <ele>876.79998779297</ele>
        <time>2019-04-20T13:27:37.000Z</time>
      </trkpt>
      <trkpt lat="43.93654" lon="7.33932">
        <ele>877.40002441406</ele>
        <time>2019-04-20T13:27:40.000Z</time>
      </trkpt>
      <trkpt lat="43.93655" lon="7.33928">
        <ele>877.79998779297</ele>
        <time>2019-04-20T13:27:44.000Z</time>
      </trkpt>
      <trkpt lat="43.93654" lon="7.33925">
        <ele>878.59997558594</ele>
        <time>2019-04-20T13:27:47.000Z</time>
      </trkpt>
      <trkpt lat="43.93654" lon="7.33924">
        <ele>879</ele>
        <time>2019-04-20T13:27:48.000Z</time>
      </trkpt>
      <trkpt lat="43.93654" lon="7.3392">
        <ele>880</ele>
        <time>2019-04-20T13:27:51.000Z</time>
      </trkpt>
      <trkpt lat="43.93655" lon="7.33916">
        <ele>880.79998779297</ele>
        <time>2019-04-20T13:27:54.000Z</time>
      </trkpt>
      <trkpt lat="43.93654" lon="7.33915">
        <ele>881</ele>
        <time>2019-04-20T13:27:55.000Z</time>
      </trkpt>
      <trkpt lat="43.93653" lon="7.33909">
        <ele>881.79998779297</ele>
        <time>2019-04-20T13:28:00.000Z</time>
      </trkpt>
      <trkpt lat="43.93653" lon="7.33908">
        <ele>882.20001220703</ele>
        <time>2019-04-20T13:28:01.000Z</time>
      </trkpt>
      <trkpt lat="43.93653" lon="7.33903">
        <ele>883.20001220703</ele>
        <time>2019-04-20T13:28:06.000Z</time>
      </trkpt>
      <trkpt lat="43.93652" lon="7.339">
        <ele>883.59997558594</ele>
        <time>2019-04-20T13:28:08.000Z</time>
      </trkpt>
      <trkpt lat="43.93651" lon="7.33897">
        <ele>884.40002441406</ele>
        <time>2019-04-20T13:28:11.000Z</time>
      </trkpt>
      <trkpt lat="43.9365" lon="7.33893">
        <ele>884.79998779297</ele>
        <time>2019-04-20T13:28:15.000Z</time>
      </trkpt>
      <trkpt lat="43.9365" lon="7.33889">
        <ele>885.40002441406</ele>
        <time>2019-04-20T13:28:19.000Z</time>
      </trkpt>
      <trkpt lat="43.93649" lon="7.33888">
        <ele>885.59997558594</ele>
        <time>2019-04-20T13:28:20.000Z</time>
      </trkpt>
      <trkpt lat="43.93649" lon="7.33885">
        <ele>886.59997558594</ele>
        <time>2019-04-20T13:28:25.000Z</time>
      </trkpt>
      <trkpt lat="43.93648" lon="7.33885">
        <ele>887</ele>
        <time>2019-04-20T13:28:27.000Z</time>
      </trkpt>
      <trkpt lat="43.93646" lon="7.33886">
        <ele>888</ele>
        <time>2019-04-20T13:28:31.000Z</time>
      </trkpt>
      <trkpt lat="43.93645" lon="7.33889">
        <ele>889</ele>
        <time>2019-04-20T13:28:35.000Z</time>
      </trkpt>
      <trkpt lat="43.93643" lon="7.33893">
        <ele>890</ele>
        <time>2019-04-20T13:28:40.000Z</time>
      </trkpt>
      <trkpt lat="43.93642" lon="7.33895">
        <ele>890.40002441406</ele>
        <time>2019-04-20T13:28:43.000Z</time>
      </trkpt>
      <trkpt lat="43.93639" lon="7.33899">
        <ele>891.20001220703</ele>
        <time>2019-04-20T13:28:48.000Z</time>
      </trkpt>
      <trkpt lat="43.93638" lon="7.33901">
        <ele>891.59997558594</ele>
        <time>2019-04-20T13:28:51.000Z</time>
      </trkpt>
      <trkpt lat="43.93636" lon="7.33906">
        <ele>892.20001220703</ele>
        <time>2019-04-20T13:28:57.000Z</time>
      </trkpt>
      <trkpt lat="43.93635" lon="7.33907">
        <ele>892.40002441406</ele>
        <time>2019-04-20T13:28:58.000Z</time>
      </trkpt>
      <trkpt lat="43.93631" lon="7.33911">
        <ele>893.40002441406</ele>
        <time>2019-04-20T13:29:05.000Z</time>
      </trkpt>
      <trkpt lat="43.9363" lon="7.33912">
        <ele>893.59997558594</ele>
        <time>2019-04-20T13:29:06.000Z</time>
      </trkpt>
      <trkpt lat="43.93629" lon="7.33913">
        <ele>894.20001220703</ele>
        <time>2019-04-20T13:29:08.000Z</time>
      </trkpt>
      <trkpt lat="43.93628" lon="7.33914">
        <ele>894.59997558594</ele>
        <time>2019-04-20T13:29:09.000Z</time>
      </trkpt>
      <trkpt lat="43.93627" lon="7.33915">
        <ele>895.20001220703</ele>
        <time>2019-04-20T13:29:12.000Z</time>
      </trkpt>
      <trkpt lat="43.93624" lon="7.33917">
        <ele>895.59997558594</ele>
        <time>2019-04-20T13:29:15.000Z</time>
      </trkpt>
      <trkpt lat="43.9362" lon="7.33919">
        <ele>896.59997558594</ele>
        <time>2019-04-20T13:29:21.000Z</time>
      </trkpt>
      <trkpt lat="43.93619" lon="7.33918">
        <ele>896.79998779297</ele>
        <time>2019-04-20T13:29:22.000Z</time>
      </trkpt>
      <trkpt lat="43.93619" lon="7.33914">
        <ele>898</ele>
        <time>2019-04-20T13:29:26.000Z</time>
      </trkpt>
      <trkpt lat="43.93619" lon="7.3391">
        <ele>899</ele>
        <time>2019-04-20T13:29:30.000Z</time>
      </trkpt>
      <trkpt lat="43.93619" lon="7.33906">
        <ele>899.79998779297</ele>
        <time>2019-04-20T13:29:34.000Z</time>
      </trkpt>
      <trkpt lat="43.93619" lon="7.33906">
        <ele>900</ele>
        <time>2019-04-20T13:29:35.000Z</time>
      </trkpt>
      <trkpt lat="43.93618" lon="7.33906">
        <ele>901.20001220703</ele>
        <time>2019-04-20T13:29:39.000Z</time>
      </trkpt>
      <trkpt lat="43.93615" lon="7.33905">
        <ele>901.79998779297</ele>
        <time>2019-04-20T13:29:42.000Z</time>
      </trkpt>
      <trkpt lat="43.93614" lon="7.33905">
        <ele>902.40002441406</ele>
        <time>2019-04-20T13:29:44.000Z</time>
      </trkpt>
      <trkpt lat="43.93612" lon="7.33903">
        <ele>903.59997558594</ele>
        <time>2019-04-20T13:29:48.000Z</time>
      </trkpt>
      <trkpt lat="43.93612" lon="7.33901">
        <ele>904</ele>
        <time>2019-04-20T13:29:50.000Z</time>
      </trkpt>
      <trkpt lat="43.93612" lon="7.33899">
        <ele>904.59997558594</ele>
        <time>2019-04-20T13:29:53.000Z</time>
      </trkpt>
      <trkpt lat="43.93611" lon="7.33898">
        <ele>905.20001220703</ele>
        <time>2019-04-20T13:29:55.000Z</time>
      </trkpt>
      <trkpt lat="43.93611" lon="7.33896">
        <ele>905.79998779297</ele>
        <time>2019-04-20T13:29:57.000Z</time>
      </trkpt>
      <trkpt lat="43.93611" lon="7.33895">
        <ele>906</ele>
        <time>2019-04-20T13:29:58.000Z</time>
      </trkpt>
      <trkpt lat="43.93609" lon="7.3389">
        <ele>906.79998779297</ele>
        <time>2019-04-20T13:30:04.000Z</time>
      </trkpt>
      <trkpt lat="43.93607" lon="7.3389">
        <ele>907</ele>
        <time>2019-04-20T13:30:06.000Z</time>
      </trkpt>
      <trkpt lat="43.93603" lon="7.33891">
        <ele>907.79998779297</ele>
        <time>2019-04-20T13:30:12.000Z</time>
      </trkpt>
      <trkpt lat="43.93601" lon="7.33892">
        <ele>908</ele>
        <time>2019-04-20T13:30:14.000Z</time>
      </trkpt>
      <trkpt lat="43.93598" lon="7.33896">
        <ele>909</ele>
        <time>2019-04-20T13:30:21.000Z</time>
      </trkpt>
      <trkpt lat="43.93594" lon="7.33898">
        <ele>910</ele>
        <time>2019-04-20T13:30:28.000Z</time>
      </trkpt>
      <trkpt lat="43.93592" lon="7.33899">
        <ele>910.40002441406</ele>
        <time>2019-04-20T13:30:30.000Z</time>
      </trkpt>
      <trkpt lat="43.9359" lon="7.339">
        <ele>911</ele>
        <time>2019-04-20T13:30:33.000Z</time>
      </trkpt>
      <trkpt lat="43.93588" lon="7.33901">
        <ele>912.20001220703</ele>
        <time>2019-04-20T13:30:36.000Z</time>
      </trkpt>
      <trkpt lat="43.93587" lon="7.33902">
        <ele>912.59997558594</ele>
        <time>2019-04-20T13:30:38.000Z</time>
      </trkpt>
      <trkpt lat="43.93585" lon="7.33906">
        <ele>913.40002441406</ele>
        <time>2019-04-20T13:30:42.000Z</time>
      </trkpt>
      <trkpt lat="43.93584" lon="7.33907">
        <ele>914</ele>
        <time>2019-04-20T13:30:44.000Z</time>
      </trkpt>
      <trkpt lat="43.93582" lon="7.33908">
        <ele>914.20001220703</ele>
        <time>2019-04-20T13:30:47.000Z</time>
      </trkpt>
      <trkpt lat="43.9358" lon="7.33907">
        <ele>914.59997558594</ele>
        <time>2019-04-20T13:30:49.000Z</time>
      </trkpt>
      <trkpt lat="43.9358" lon="7.33907">
        <ele>914.59997558594</ele>
        <time>2019-04-20T13:30:50.000Z</time>
      </trkpt>
      <trkpt lat="43.93578" lon="7.33906">
        <ele>915.79998779297</ele>
        <time>2019-04-20T13:30:55.000Z</time>
      </trkpt>
      <trkpt lat="43.93578" lon="7.33906">
        <ele>915.79998779297</ele>
        <time>2019-04-20T13:30:57.000Z</time>
      </trkpt>
      <trkpt lat="43.93574" lon="7.33905">
        <ele>915.59997558594</ele>
        <time>2019-04-20T13:31:02.000Z</time>
      </trkpt>
      <trkpt lat="43.93573" lon="7.33904">
        <ele>916</ele>
        <time>2019-04-20T13:31:04.000Z</time>
      </trkpt>
      <trkpt lat="43.9357" lon="7.33904">
        <ele>916.40002441406</ele>
        <time>2019-04-20T13:31:07.000Z</time>
      </trkpt>
      <trkpt lat="43.93566" lon="7.33904">
        <ele>916.79998779297</ele>
        <time>2019-04-20T13:31:09.000Z</time>
      </trkpt>
      <trkpt lat="43.93562" lon="7.33903">
        <ele>917.59997558594</ele>
        <time>2019-04-20T13:31:12.000Z</time>
      </trkpt>
      <trkpt lat="43.93559" lon="7.33902">
        <ele>918</ele>
        <time>2019-04-20T13:31:14.000Z</time>
      </trkpt>
      <trkpt lat="43.93554" lon="7.33901">
        <ele>919.40002441406</ele>
        <time>2019-04-20T13:31:18.000Z</time>
      </trkpt>
      <trkpt lat="43.93551" lon="7.33899">
        <ele>920</ele>
        <time>2019-04-20T13:31:20.000Z</time>
      </trkpt>
      <trkpt lat="43.93547" lon="7.33895">
        <ele>920.40002441406</ele>
        <time>2019-04-20T13:31:23.000Z</time>
      </trkpt>
      <trkpt lat="43.93538" lon="7.33891">
        <ele>921.40002441406</ele>
        <time>2019-04-20T13:31:28.000Z</time>
      </trkpt>
      <trkpt lat="43.93536" lon="7.33891">
        <ele>921.79998779297</ele>
        <time>2019-04-20T13:31:29.000Z</time>
      </trkpt>
      <trkpt lat="43.93532" lon="7.33891">
        <ele>923.20001220703</ele>
        <time>2019-04-20T13:31:32.000Z</time>
      </trkpt>
      <trkpt lat="43.93529" lon="7.33889">
        <ele>923.79998779297</ele>
        <time>2019-04-20T13:31:34.000Z</time>
      </trkpt>
      <trkpt lat="43.93528" lon="7.33886">
        <ele>924</ele>
        <time>2019-04-20T13:31:35.000Z</time>
      </trkpt>
      <trkpt lat="43.93528" lon="7.33883">
        <ele>924.20001220703</ele>
        <time>2019-04-20T13:31:36.000Z</time>
      </trkpt>
      <trkpt lat="43.93527" lon="7.33878">
        <ele>924.40002441406</ele>
        <time>2019-04-20T13:31:38.000Z</time>
      </trkpt>
      <trkpt lat="43.93519" lon="7.33867">
        <ele>923.79998779297</ele>
        <time>2019-04-20T13:31:42.000Z</time>
      </trkpt>
      <trkpt lat="43.93512" lon="7.33859">
        <ele>923.79998779297</ele>
        <time>2019-04-20T13:31:46.000Z</time>
      </trkpt>
      <trkpt lat="43.93512" lon="7.33845">
        <ele>924.59997558594</ele>
        <time>2019-04-20T13:31:51.000Z</time>
      </trkpt>
      <trkpt lat="43.93513" lon="7.33838">
        <ele>925.40002441406</ele>
        <time>2019-04-20T13:31:55.000Z</time>
      </trkpt>
      <trkpt lat="43.93513" lon="7.33832">
        <ele>925.79998779297</ele>
        <time>2019-04-20T13:31:58.000Z</time>
      </trkpt>
      <trkpt lat="43.93513" lon="7.33831">
        <ele>925.79998779297</ele>
        <time>2019-04-20T13:31:59.000Z</time>
      </trkpt>
      <trkpt lat="43.93513" lon="7.33826">
        <ele>926.40002441406</ele>
        <time>2019-04-20T13:32:02.000Z</time>
      </trkpt>
      <trkpt lat="43.93512" lon="7.33821">
        <ele>927.20001220703</ele>
        <time>2019-04-20T13:32:05.000Z</time>
      </trkpt>
      <trkpt lat="43.93512" lon="7.3382">
        <ele>927.59997558594</ele>
        <time>2019-04-20T13:32:06.000Z</time>
      </trkpt>
      <trkpt lat="43.93511" lon="7.33813">
        <ele>928.40002441406</ele>
        <time>2019-04-20T13:32:11.000Z</time>
      </trkpt>
      <trkpt lat="43.93508" lon="7.3381">
        <ele>928.59997558594</ele>
        <time>2019-04-20T13:32:13.000Z</time>
      </trkpt>
      <trkpt lat="43.93506" lon="7.33805">
        <ele>929.20001220703</ele>
        <time>2019-04-20T13:32:16.000Z</time>
      </trkpt>
      <trkpt lat="43.93505" lon="7.33802">
        <ele>929.79998779297</ele>
        <time>2019-04-20T13:32:18.000Z</time>
      </trkpt>
      <trkpt lat="43.93502" lon="7.338">
        <ele>930.79998779297</ele>
        <time>2019-04-20T13:32:21.000Z</time>
      </trkpt>
      <trkpt lat="43.93501" lon="7.33799">
        <ele>931.20001220703</ele>
        <time>2019-04-20T13:32:22.000Z</time>
      </trkpt>
      <trkpt lat="43.93498" lon="7.33798">
        <ele>932</ele>
        <time>2019-04-20T13:32:25.000Z</time>
      </trkpt>
      <trkpt lat="43.93493" lon="7.33795">
        <ele>933</ele>
        <time>2019-04-20T13:32:29.000Z</time>
      </trkpt>
      <trkpt lat="43.93493" lon="7.33795">
        <ele>933</ele>
        <time>2019-04-20T13:32:30.000Z</time>
      </trkpt>
      <trkpt lat="43.93491" lon="7.33796">
        <ele>933.20001220703</ele>
        <time>2019-04-20T13:32:31.000Z</time>
      </trkpt>
      <trkpt lat="43.93489" lon="7.33797">
        <ele>933.79998779297</ele>
        <time>2019-04-20T13:32:33.000Z</time>
      </trkpt>
      <trkpt lat="43.93487" lon="7.33797">
        <ele>934</ele>
        <time>2019-04-20T13:32:35.000Z</time>
      </trkpt>
      <trkpt lat="43.93485" lon="7.33796">
        <ele>934</ele>
        <time>2019-04-20T13:32:37.000Z</time>
      </trkpt>
      <trkpt lat="43.93484" lon="7.33796">
        <ele>934.20001220703</ele>
        <time>2019-04-20T13:32:38.000Z</time>
      </trkpt>
      <trkpt lat="43.93478" lon="7.33795">
        <ele>934.59997558594</ele>
        <time>2019-04-20T13:32:42.000Z</time>
      </trkpt>
      <trkpt lat="43.93473" lon="7.33794">
        <ele>934.40002441406</ele>
        <time>2019-04-20T13:32:45.000Z</time>
      </trkpt>
      <trkpt lat="43.93469" lon="7.33792">
        <ele>934.20001220703</ele>
        <time>2019-04-20T13:32:47.000Z</time>
      </trkpt>
      <trkpt lat="43.93466" lon="7.33788">
        <ele>934.40002441406</ele>
        <time>2019-04-20T13:32:49.000Z</time>
      </trkpt>
      <trkpt lat="43.93466" lon="7.33782">
        <ele>934.59997558594</ele>
        <time>2019-04-20T13:32:51.000Z</time>
      </trkpt>
      <trkpt lat="43.93466" lon="7.33776">
        <ele>934.79998779297</ele>
        <time>2019-04-20T13:32:53.000Z</time>
      </trkpt>
      <trkpt lat="43.93466" lon="7.33766">
        <ele>935</ele>
        <time>2019-04-20T13:32:57.000Z</time>
      </trkpt>
      <trkpt lat="43.93464" lon="7.3376">
        <ele>935.20001220703</ele>
        <time>2019-04-20T13:32:59.000Z</time>
      </trkpt>
      <trkpt lat="43.93461" lon="7.33754">
        <ele>935.59997558594</ele>
        <time>2019-04-20T13:33:02.000Z</time>
      </trkpt>
      <trkpt lat="43.93456" lon="7.3375">
        <ele>936.40002441406</ele>
        <time>2019-04-20T13:33:05.000Z</time>
      </trkpt>
      <trkpt lat="43.9345" lon="7.3375">
        <ele>937.20001220703</ele>
        <time>2019-04-20T13:33:08.000Z</time>
      </trkpt>
      <trkpt lat="43.93449" lon="7.3375">
        <ele>937.59997558594</ele>
        <time>2019-04-20T13:33:09.000Z</time>
      </trkpt>
      <trkpt lat="43.93446" lon="7.33751">
        <ele>938</ele>
        <time>2019-04-20T13:33:11.000Z</time>
      </trkpt>
      <trkpt lat="43.93445" lon="7.33751">
        <ele>938.40002441406</ele>
        <time>2019-04-20T13:33:13.000Z</time>
      </trkpt>
      <trkpt lat="43.93446" lon="7.33751">
        <ele>938.59997558594</ele>
        <time>2019-04-20T13:33:14.000Z</time>
      </trkpt>
      <trkpt lat="43.93444" lon="7.33753">
        <ele>938.79998779297</ele>
        <time>2019-04-20T13:33:15.000Z</time>
      </trkpt>
      <trkpt lat="43.93442" lon="7.33754">
        <ele>938.79998779297</ele>
        <time>2019-04-20T13:33:16.000Z</time>
      </trkpt>
      <trkpt lat="43.93437" lon="7.33756">
        <ele>939.59997558594</ele>
        <time>2019-04-20T13:33:20.000Z</time>
      </trkpt>
      <trkpt lat="43.93438" lon="7.33756">
        <ele>939.79998779297</ele>
        <time>2019-04-20T13:33:21.000Z</time>
      </trkpt>
      <trkpt lat="43.93431" lon="7.33753">
        <ele>940.20001220703</ele>
        <time>2019-04-20T13:33:25.000Z</time>
      </trkpt>
      <trkpt lat="43.93427" lon="7.33746">
        <ele>940.79998779297</ele>
        <time>2019-04-20T13:33:29.000Z</time>
      </trkpt>
      <trkpt lat="43.93425" lon="7.33742">
        <ele>940.79998779297</ele>
        <time>2019-04-20T13:33:31.000Z</time>
      </trkpt>
      <trkpt lat="43.93418" lon="7.33736">
        <ele>941.59997558594</ele>
        <time>2019-04-20T13:33:37.000Z</time>
      </trkpt>
      <trkpt lat="43.93416" lon="7.33737">
        <ele>941.79998779297</ele>
        <time>2019-04-20T13:33:38.000Z</time>
      </trkpt>
      <trkpt lat="43.93412" lon="7.33737">
        <ele>942.79998779297</ele>
        <time>2019-04-20T13:33:42.000Z</time>
      </trkpt>
      <trkpt lat="43.93409" lon="7.33737">
        <ele>943</ele>
        <time>2019-04-20T13:33:44.000Z</time>
      </trkpt>
      <trkpt lat="43.93402" lon="7.33732">
        <ele>943.79998779297</ele>
        <time>2019-04-20T13:33:48.000Z</time>
      </trkpt>
      <trkpt lat="43.93401" lon="7.33731">
        <ele>944</ele>
        <time>2019-04-20T13:33:49.000Z</time>
      </trkpt>
      <trkpt lat="43.93397" lon="7.33731">
        <ele>945.20001220703</ele>
        <time>2019-04-20T13:33:53.000Z</time>
      </trkpt>
      <trkpt lat="43.93395" lon="7.3373">
        <ele>945.40002441406</ele>
        <time>2019-04-20T13:33:54.000Z</time>
      </trkpt>
      <trkpt lat="43.93391" lon="7.33729">
        <ele>946.20001220703</ele>
        <time>2019-04-20T13:33:57.000Z</time>
      </trkpt>
      <trkpt lat="43.93387" lon="7.33728">
        <ele>947.40002441406</ele>
        <time>2019-04-20T13:34:01.000Z</time>
      </trkpt>
      <trkpt lat="43.93381" lon="7.33726">
        <ele>948.40002441406</ele>
        <time>2019-04-20T13:34:06.000Z</time>
      </trkpt>
      <trkpt lat="43.9338" lon="7.33727">
        <ele>948.59997558594</ele>
        <time>2019-04-20T13:34:07.000Z</time>
      </trkpt>
      <trkpt lat="43.93377" lon="7.33726">
        <ele>949.59997558594</ele>
        <time>2019-04-20T13:34:11.000Z</time>
      </trkpt>
      <trkpt lat="43.93375" lon="7.33725">
        <ele>950</ele>
        <time>2019-04-20T13:34:13.000Z</time>
      </trkpt>
      <trkpt lat="43.93371" lon="7.33722">
        <ele>950.59997558594</ele>
        <time>2019-04-20T13:34:17.000Z</time>
      </trkpt>
      <trkpt lat="43.93369" lon="7.3372">
        <ele>951</ele>
        <time>2019-04-20T13:34:19.000Z</time>
      </trkpt>
      <trkpt lat="43.93364" lon="7.33715">
        <ele>951.59997558594</ele>
        <time>2019-04-20T13:34:25.000Z</time>
      </trkpt>
      <trkpt lat="43.93362" lon="7.33713">
        <ele>951.79998779297</ele>
        <time>2019-04-20T13:34:26.000Z</time>
      </trkpt>
      <trkpt lat="43.93358" lon="7.33708">
        <ele>952.59997558594</ele>
        <time>2019-04-20T13:34:31.000Z</time>
      </trkpt>
      <trkpt lat="43.93357" lon="7.33707">
        <ele>952.79998779297</ele>
        <time>2019-04-20T13:34:32.000Z</time>
      </trkpt>
      <trkpt lat="43.93354" lon="7.33701">
        <ele>954</ele>
        <time>2019-04-20T13:34:38.000Z</time>
      </trkpt>
      <trkpt lat="43.93353" lon="7.33701">
        <ele>954.40002441406</ele>
        <time>2019-04-20T13:34:39.000Z</time>
      </trkpt>
      <trkpt lat="43.93349" lon="7.33696">
        <ele>955.20001220703</ele>
        <time>2019-04-20T13:34:43.000Z</time>
      </trkpt>
      <trkpt lat="43.93349" lon="7.33695">
        <ele>955.40002441406</ele>
        <time>2019-04-20T13:34:44.000Z</time>
      </trkpt>
      <trkpt lat="43.93348" lon="7.33684">
        <ele>956.40002441406</ele>
        <time>2019-04-20T13:34:50.000Z</time>
      </trkpt>
      <trkpt lat="43.93351" lon="7.3368">
        <ele>956.59997558594</ele>
        <time>2019-04-20T13:34:52.000Z</time>
      </trkpt>
      <trkpt lat="43.93353" lon="7.33673">
        <ele>956.79998779297</ele>
        <time>2019-04-20T13:34:55.000Z</time>
      </trkpt>
      <trkpt lat="43.93354" lon="7.3367">
        <ele>956.79998779297</ele>
        <time>2019-04-20T13:34:56.000Z</time>
      </trkpt>
      <trkpt lat="43.93358" lon="7.33656">
        <ele>957.20001220703</ele>
        <time>2019-04-20T13:35:02.000Z</time>
      </trkpt>
      <trkpt lat="43.93357" lon="7.33654">
        <ele>957.40002441406</ele>
        <time>2019-04-20T13:35:03.000Z</time>
      </trkpt>
      <trkpt lat="43.93357" lon="7.33652">
        <ele>957.40002441406</ele>
        <time>2019-04-20T13:35:04.000Z</time>
      </trkpt>
      <trkpt lat="43.93355" lon="7.33648">
        <ele>957.79998779297</ele>
        <time>2019-04-20T13:35:07.000Z</time>
      </trkpt>
      <trkpt lat="43.93352" lon="7.33643">
        <ele>958.40002441406</ele>
        <time>2019-04-20T13:35:10.000Z</time>
      </trkpt>
      <trkpt lat="43.93347" lon="7.33635">
        <ele>959.59997558594</ele>
        <time>2019-04-20T13:35:15.000Z</time>
      </trkpt>
      <trkpt lat="43.93347" lon="7.33631">
        <ele>960.20001220703</ele>
        <time>2019-04-20T13:35:17.000Z</time>
      </trkpt>
      <trkpt lat="43.93347" lon="7.33626">
        <ele>960.79998779297</ele>
        <time>2019-04-20T13:35:19.000Z</time>
      </trkpt>
      <trkpt lat="43.93349" lon="7.3362">
        <ele>961</ele>
        <time>2019-04-20T13:35:22.000Z</time>
      </trkpt>
      <trkpt lat="43.93349" lon="7.33607">
        <ele>961.79998779297</ele>
        <time>2019-04-20T13:35:28.000Z</time>
      </trkpt>
      <trkpt lat="43.93343" lon="7.336">
        <ele>963</ele>
        <time>2019-04-20T13:35:32.000Z</time>
      </trkpt>
      <trkpt lat="43.93341" lon="7.33598">
        <ele>963.20001220703</ele>
        <time>2019-04-20T13:35:33.000Z</time>
      </trkpt>
      <trkpt lat="43.9334" lon="7.33594">
        <ele>963.59997558594</ele>
        <time>2019-04-20T13:35:34.000Z</time>
      </trkpt>
      <trkpt lat="43.93338" lon="7.3359">
        <ele>964.20001220703</ele>
        <time>2019-04-20T13:35:36.000Z</time>
      </trkpt>
      <trkpt lat="43.93337" lon="7.33588">
        <ele>964.59997558594</ele>
        <time>2019-04-20T13:35:37.000Z</time>
      </trkpt>
      <trkpt lat="43.93331" lon="7.33576">
        <ele>965.40002441406</ele>
        <time>2019-04-20T13:35:42.000Z</time>
      </trkpt>
      <trkpt lat="43.9333" lon="7.33574">
        <ele>965.59997558594</ele>
        <time>2019-04-20T13:35:43.000Z</time>
      </trkpt>
      <trkpt lat="43.93325" lon="7.33557">
        <ele>965.79998779297</ele>
        <time>2019-04-20T13:35:48.000Z</time>
      </trkpt>
      <trkpt lat="43.93322" lon="7.33541">
        <ele>966</ele>
        <time>2019-04-20T13:35:54.000Z</time>
      </trkpt>
      <trkpt lat="43.9332" lon="7.33537">
        <ele>966.40002441406</ele>
        <time>2019-04-20T13:35:58.000Z</time>
      </trkpt>
      <trkpt lat="43.9332" lon="7.33537">
        <ele>966.59997558594</ele>
        <time>2019-04-20T13:36:00.000Z</time>
      </trkpt>
      <trkpt lat="43.93318" lon="7.33537">
        <ele>967</ele>
        <time>2019-04-20T13:36:11.000Z</time>
      </trkpt>
      <trkpt lat="43.93318" lon="7.33538">
        <ele>966.79998779297</ele>
        <time>2019-04-20T13:36:19.000Z</time>
      </trkpt>
      <trkpt lat="43.93317" lon="7.33537">
        <ele>967</ele>
        <time>2019-04-20T13:36:26.000Z</time>
      </trkpt>
      <trkpt lat="43.93316" lon="7.33538">
        <ele>968</ele>
        <time>2019-04-20T13:36:32.000Z</time>
      </trkpt>
      <trkpt lat="43.93316" lon="7.33538">
        <ele>967.79998779297</ele>
        <time>2019-04-20T13:36:34.000Z</time>
      </trkpt>
      <trkpt lat="43.93316" lon="7.33538">
        <ele>966.79998779297</ele>
        <time>2019-04-20T13:36:37.000Z</time>
      </trkpt>
      <trkpt lat="43.93316" lon="7.33538">
        <ele>966.20001220703</ele>
        <time>2019-04-20T13:36:43.000Z</time>
      </trkpt>
      <trkpt lat="43.93315" lon="7.33538">
        <ele>966.40002441406</ele>
        <time>2019-04-20T13:36:56.000Z</time>
      </trkpt>
      <trkpt lat="43.93313" lon="7.33538">
        <ele>966.40002441406</ele>
        <time>2019-04-20T13:37:08.000Z</time>
      </trkpt>
      <trkpt lat="43.93312" lon="7.33538">
        <ele>966.79998779297</ele>
        <time>2019-04-20T13:37:21.000Z</time>
      </trkpt>
      <trkpt lat="43.93312" lon="7.33538">
        <ele>966.79998779297</ele>
        <time>2019-04-20T13:37:37.000Z</time>
      </trkpt>
      <trkpt lat="43.93312" lon="7.33538">
        <ele>966.40002441406</ele>
        <time>2019-04-20T13:37:54.000Z</time>
      </trkpt>
      <trkpt lat="43.93312" lon="7.33538">
        <ele>966</ele>
        <time>2019-04-20T13:38:09.000Z</time>
      </trkpt>
      <trkpt lat="43.93312" lon="7.33538">
        <ele>966</ele>
        <time>2019-04-20T13:38:26.000Z</time>
      </trkpt>
      <trkpt lat="43.93312" lon="7.33538">
        <ele>965.79998779297</ele>
        <time>2019-04-20T13:38:30.000Z</time>
      </trkpt>
      <trkpt lat="43.93312" lon="7.33538">
        <ele>965.59997558594</ele>
        <time>2019-04-20T13:38:50.000Z</time>
      </trkpt>
      <trkpt lat="43.93311" lon="7.33537">
        <ele>965.59997558594</ele>
        <time>2019-04-20T13:38:59.000Z</time>
      </trkpt>
      <trkpt lat="43.9331" lon="7.33535">
        <ele>965.40002441406</ele>
        <time>2019-04-20T13:39:20.000Z</time>
      </trkpt>
      <trkpt lat="43.93301" lon="7.33525">
        <ele>965.20001220703</ele>
        <time>2019-04-20T13:39:24.000Z</time>
      </trkpt>
      <trkpt lat="43.93298" lon="7.33521">
        <ele>965</ele>
        <time>2019-04-20T13:39:25.000Z</time>
      </trkpt>
      <trkpt lat="43.93298" lon="7.3351">
        <ele>964.40002441406</ele>
        <time>2019-04-20T13:39:27.000Z</time>
      </trkpt>
      <trkpt lat="43.93299" lon="7.33496">
        <ele>963</ele>
        <time>2019-04-20T13:39:29.000Z</time>
      </trkpt>
      <trkpt lat="43.93298" lon="7.33491">
        <ele>962.20001220703</ele>
        <time>2019-04-20T13:39:30.000Z</time>
      </trkpt>
      <trkpt lat="43.93295" lon="7.33489">
        <ele>961.20001220703</ele>
        <time>2019-04-20T13:39:31.000Z</time>
      </trkpt>
      <trkpt lat="43.9329" lon="7.33488">
        <ele>960.20001220703</ele>
        <time>2019-04-20T13:39:32.000Z</time>
      </trkpt>
      <trkpt lat="43.93285" lon="7.33479">
        <ele>958.59997558594</ele>
        <time>2019-04-20T13:39:34.000Z</time>
      </trkpt>
      <trkpt lat="43.93283" lon="7.33474">
        <ele>958.20001220703</ele>
        <time>2019-04-20T13:39:35.000Z</time>
      </trkpt>
      <trkpt lat="43.93279" lon="7.33469">
        <ele>957.59997558594</ele>
        <time>2019-04-20T13:39:36.000Z</time>
      </trkpt>
      <trkpt lat="43.93269" lon="7.33467">
        <ele>957.59997558594</ele>
        <time>2019-04-20T13:39:38.000Z</time>
      </trkpt>
      <trkpt lat="43.93249" lon="7.33464">
        <ele>957</ele>
        <time>2019-04-20T13:39:42.000Z</time>
      </trkpt>
      <trkpt lat="43.93237" lon="7.33457">
        <ele>956.40002441406</ele>
        <time>2019-04-20T13:39:44.000Z</time>
      </trkpt>
      <trkpt lat="43.93232" lon="7.33454">
        <ele>956.20001220703</ele>
        <time>2019-04-20T13:39:45.000Z</time>
      </trkpt>
      <trkpt lat="43.93226" lon="7.33456">
        <ele>956</ele>
        <time>2019-04-20T13:39:46.000Z</time>
      </trkpt>
      <trkpt lat="43.93209" lon="7.33469">
        <ele>955</ele>
        <time>2019-04-20T13:39:49.000Z</time>
      </trkpt>
      <trkpt lat="43.93192" lon="7.33483">
        <ele>953.40002441406</ele>
        <time>2019-04-20T13:39:52.000Z</time>
      </trkpt>
      <trkpt lat="43.93186" lon="7.33487">
        <ele>952.20001220703</ele>
        <time>2019-04-20T13:39:53.000Z</time>
      </trkpt>
      <trkpt lat="43.93181" lon="7.33489">
        <ele>951.79998779297</ele>
        <time>2019-04-20T13:39:54.000Z</time>
      </trkpt>
      <trkpt lat="43.93175" lon="7.33489">
        <ele>951</ele>
        <time>2019-04-20T13:39:55.000Z</time>
      </trkpt>
      <trkpt lat="43.93169" lon="7.33491">
        <ele>949.59997558594</ele>
        <time>2019-04-20T13:39:56.000Z</time>
      </trkpt>
      <trkpt lat="43.93165" lon="7.33492">
        <ele>949.20001220703</ele>
        <time>2019-04-20T13:39:57.000Z</time>
      </trkpt>
      <trkpt lat="43.9316" lon="7.33494">
        <ele>948.59997558594</ele>
        <time>2019-04-20T13:39:58.000Z</time>
      </trkpt>
      <trkpt lat="43.93156" lon="7.33499">
        <ele>947.40002441406</ele>
        <time>2019-04-20T13:39:59.000Z</time>
      </trkpt>
      <trkpt lat="43.93154" lon="7.33503">
        <ele>945.79998779297</ele>
        <time>2019-04-20T13:40:00.000Z</time>
      </trkpt>
      <trkpt lat="43.93151" lon="7.33504">
        <ele>947</ele>
        <time>2019-04-20T13:40:01.000Z</time>
      </trkpt>
      <trkpt lat="43.93148" lon="7.33505">
        <ele>945.79998779297</ele>
        <time>2019-04-20T13:40:02.000Z</time>
      </trkpt>
      <trkpt lat="43.93145" lon="7.33505">
        <ele>944.59997558594</ele>
        <time>2019-04-20T13:40:03.000Z</time>
      </trkpt>
      <trkpt lat="43.93141" lon="7.3351">
        <ele>942.59997558594</ele>
        <time>2019-04-20T13:40:05.000Z</time>
      </trkpt>
      <trkpt lat="43.93142" lon="7.3352">
        <ele>940.40002441406</ele>
        <time>2019-04-20T13:40:07.000Z</time>
      </trkpt>
      <trkpt lat="43.93145" lon="7.33524">
        <ele>939.59997558594</ele>
        <time>2019-04-20T13:40:08.000Z</time>
      </trkpt>
      <trkpt lat="43.93149" lon="7.33529">
        <ele>938.59997558594</ele>
        <time>2019-04-20T13:40:09.000Z</time>
      </trkpt>
      <trkpt lat="43.93156" lon="7.33537">
        <ele>936.79998779297</ele>
        <time>2019-04-20T13:40:11.000Z</time>
      </trkpt>
      <trkpt lat="43.93155" lon="7.33541">
        <ele>935.79998779297</ele>
        <time>2019-04-20T13:40:12.000Z</time>
      </trkpt>
      <trkpt lat="43.93149" lon="7.33544">
        <ele>934.59997558594</ele>
        <time>2019-04-20T13:40:14.000Z</time>
      </trkpt>
      <trkpt lat="43.93144" lon="7.33547">
        <ele>933.79998779297</ele>
        <time>2019-04-20T13:40:15.000Z</time>
      </trkpt>
      <trkpt lat="43.93138" lon="7.3355">
        <ele>933.20001220703</ele>
        <time>2019-04-20T13:40:16.000Z</time>
      </trkpt>
      <trkpt lat="43.93132" lon="7.33551">
        <ele>932</ele>
        <time>2019-04-20T13:40:17.000Z</time>
      </trkpt>
      <trkpt lat="43.93122" lon="7.33545">
        <ele>931</ele>
        <time>2019-04-20T13:40:19.000Z</time>
      </trkpt>
      <trkpt lat="43.93119" lon="7.33542">
        <ele>930.79998779297</ele>
        <time>2019-04-20T13:40:20.000Z</time>
      </trkpt>
      <trkpt lat="43.93114" lon="7.33539">
        <ele>930.20001220703</ele>
        <time>2019-04-20T13:40:21.000Z</time>
      </trkpt>
      <trkpt lat="43.93111" lon="7.33535">
        <ele>929.79998779297</ele>
        <time>2019-04-20T13:40:22.000Z</time>
      </trkpt>
      <trkpt lat="43.93107" lon="7.33531">
        <ele>929.59997558594</ele>
        <time>2019-04-20T13:40:23.000Z</time>
      </trkpt>
      <trkpt lat="43.93103" lon="7.33526">
        <ele>929.40002441406</ele>
        <time>2019-04-20T13:40:24.000Z</time>
      </trkpt>
      <trkpt lat="43.93101" lon="7.33521">
        <ele>928.79998779297</ele>
        <time>2019-04-20T13:40:25.000Z</time>
      </trkpt>
      <trkpt lat="43.93099" lon="7.33517">
        <ele>928.40002441406</ele>
        <time>2019-04-20T13:40:26.000Z</time>
      </trkpt>
      <trkpt lat="43.93095" lon="7.33506">
        <ele>927.59997558594</ele>
        <time>2019-04-20T13:40:28.000Z</time>
      </trkpt>
      <trkpt lat="43.93092" lon="7.33502">
        <ele>927.20001220703</ele>
        <time>2019-04-20T13:40:29.000Z</time>
      </trkpt>
      <trkpt lat="43.93079" lon="7.33496">
        <ele>926.79998779297</ele>
        <time>2019-04-20T13:40:32.000Z</time>
      </trkpt>
      <trkpt lat="43.93074" lon="7.33494">
        <ele>926.59997558594</ele>
        <time>2019-04-20T13:40:33.000Z</time>
      </trkpt>
      <trkpt lat="43.93058" lon="7.33492">
        <ele>926.40002441406</ele>
        <time>2019-04-20T13:40:36.000Z</time>
      </trkpt>
      <trkpt lat="43.9305" lon="7.33497">
        <ele>926</ele>
        <time>2019-04-20T13:40:38.000Z</time>
      </trkpt>
      <trkpt lat="43.93043" lon="7.33516">
        <ele>924.59997558594</ele>
        <time>2019-04-20T13:40:41.000Z</time>
      </trkpt>
      <trkpt lat="43.93028" lon="7.33537">
        <ele>923.40002441406</ele>
        <time>2019-04-20T13:40:44.000Z</time>
      </trkpt>
      <trkpt lat="43.93022" lon="7.33541">
        <ele>922.20001220703</ele>
        <time>2019-04-20T13:40:45.000Z</time>
      </trkpt>
      <trkpt lat="43.93015" lon="7.33545">
        <ele>920.79998779297</ele>
        <time>2019-04-20T13:40:46.000Z</time>
      </trkpt>
      <trkpt lat="43.93007" lon="7.33547">
        <ele>919</ele>
        <time>2019-04-20T13:40:47.000Z</time>
      </trkpt>
      <trkpt lat="43.93" lon="7.3355">
        <ele>917.40002441406</ele>
        <time>2019-04-20T13:40:48.000Z</time>
      </trkpt>
      <trkpt lat="43.92993" lon="7.33552">
        <ele>916.20001220703</ele>
        <time>2019-04-20T13:40:49.000Z</time>
      </trkpt>
      <trkpt lat="43.9299" lon="7.33553">
        <ele>915</ele>
        <time>2019-04-20T13:40:50.000Z</time>
      </trkpt>
      <trkpt lat="43.92985" lon="7.33553">
        <ele>914.59997558594</ele>
        <time>2019-04-20T13:40:51.000Z</time>
      </trkpt>
      <trkpt lat="43.92977" lon="7.33557">
        <ele>914</ele>
        <time>2019-04-20T13:40:53.000Z</time>
      </trkpt>
      <trkpt lat="43.92965" lon="7.33562">
        <ele>912.59997558594</ele>
        <time>2019-04-20T13:40:55.000Z</time>
      </trkpt>
      <trkpt lat="43.92958" lon="7.33564">
        <ele>911.40002441406</ele>
        <time>2019-04-20T13:40:56.000Z</time>
      </trkpt>
      <trkpt lat="43.92946" lon="7.33565">
        <ele>910</ele>
        <time>2019-04-20T13:40:58.000Z</time>
      </trkpt>
      <trkpt lat="43.92936" lon="7.33566">
        <ele>908.59997558594</ele>
        <time>2019-04-20T13:41:00.000Z</time>
      </trkpt>
      <trkpt lat="43.92925" lon="7.33573">
        <ele>906.59997558594</ele>
        <time>2019-04-20T13:41:02.000Z</time>
      </trkpt>
      <trkpt lat="43.92921" lon="7.33574">
        <ele>905.40002441406</ele>
        <time>2019-04-20T13:41:03.000Z</time>
      </trkpt>
      <trkpt lat="43.92915" lon="7.33576">
        <ele>904</ele>
        <time>2019-04-20T13:41:04.000Z</time>
      </trkpt>
      <trkpt lat="43.9291" lon="7.33578">
        <ele>903</ele>
        <time>2019-04-20T13:41:05.000Z</time>
      </trkpt>
      <trkpt lat="43.92905" lon="7.3358">
        <ele>901.40002441406</ele>
        <time>2019-04-20T13:41:06.000Z</time>
      </trkpt>
      <trkpt lat="43.92901" lon="7.33584">
        <ele>900.79998779297</ele>
        <time>2019-04-20T13:41:07.000Z</time>
      </trkpt>
      <trkpt lat="43.92899" lon="7.33589">
        <ele>899.79998779297</ele>
        <time>2019-04-20T13:41:08.000Z</time>
      </trkpt>
      <trkpt lat="43.92899" lon="7.33594">
        <ele>899.20001220703</ele>
        <time>2019-04-20T13:41:09.000Z</time>
      </trkpt>
      <trkpt lat="43.92899" lon="7.33599">
        <ele>898.20001220703</ele>
        <time>2019-04-20T13:41:10.000Z</time>
      </trkpt>
      <trkpt lat="43.92904" lon="7.33609">
        <ele>896.40002441406</ele>
        <time>2019-04-20T13:41:12.000Z</time>
      </trkpt>
      <trkpt lat="43.92911" lon="7.3362">
        <ele>895</ele>
        <time>2019-04-20T13:41:14.000Z</time>
      </trkpt>
      <trkpt lat="43.92918" lon="7.33629">
        <ele>894</ele>
        <time>2019-04-20T13:41:16.000Z</time>
      </trkpt>
      <trkpt lat="43.92921" lon="7.33635">
        <ele>892.59997558594</ele>
        <time>2019-04-20T13:41:17.000Z</time>
      </trkpt>
      <trkpt lat="43.92928" lon="7.33645">
        <ele>890.59997558594</ele>
        <time>2019-04-20T13:41:19.000Z</time>
      </trkpt>
      <trkpt lat="43.92932" lon="7.33649">
        <ele>890.20001220703</ele>
        <time>2019-04-20T13:41:20.000Z</time>
      </trkpt>
      <trkpt lat="43.92936" lon="7.33652">
        <ele>889</ele>
        <time>2019-04-20T13:41:21.000Z</time>
      </trkpt>
      <trkpt lat="43.92954" lon="7.33656">
        <ele>888.40002441406</ele>
        <time>2019-04-20T13:41:24.000Z</time>
      </trkpt>
      <trkpt lat="43.92966" lon="7.33663">
        <ele>887.40002441406</ele>
        <time>2019-04-20T13:41:26.000Z</time>
      </trkpt>
      <trkpt lat="43.92972" lon="7.33667">
        <ele>886.40002441406</ele>
        <time>2019-04-20T13:41:27.000Z</time>
      </trkpt>
      <trkpt lat="43.92977" lon="7.33672">
        <ele>885.59997558594</ele>
        <time>2019-04-20T13:41:28.000Z</time>
      </trkpt>
      <trkpt lat="43.9298" lon="7.33678">
        <ele>884.59997558594</ele>
        <time>2019-04-20T13:41:29.000Z</time>
      </trkpt>
      <trkpt lat="43.9298" lon="7.33689">
        <ele>884.20001220703</ele>
        <time>2019-04-20T13:41:31.000Z</time>
      </trkpt>
      <trkpt lat="43.92976" lon="7.337">
        <ele>884.59997558594</ele>
        <time>2019-04-20T13:41:34.000Z</time>
      </trkpt>
      <trkpt lat="43.92977" lon="7.33704">
        <ele>885</ele>
        <time>2019-04-20T13:41:36.000Z</time>
      </trkpt>
      <trkpt lat="43.92972" lon="7.3371">
        <ele>885.40002441406</ele>
        <time>2019-04-20T13:41:38.000Z</time>
      </trkpt>
      <trkpt lat="43.9297" lon="7.33715">
        <ele>885.79998779297</ele>
        <time>2019-04-20T13:41:40.000Z</time>
      </trkpt>
      <trkpt lat="43.92968" lon="7.33725">
        <ele>886.20001220703</ele>
        <time>2019-04-20T13:41:42.000Z</time>
      </trkpt>
      <trkpt lat="43.92968" lon="7.33733">
        <ele>886.79998779297</ele>
        <time>2019-04-20T13:41:44.000Z</time>
      </trkpt>
      <trkpt lat="43.92973" lon="7.33745">
        <ele>887.40002441406</ele>
        <time>2019-04-20T13:41:47.000Z</time>
      </trkpt>
      <trkpt lat="43.92977" lon="7.33753">
        <ele>888</ele>
        <time>2019-04-20T13:41:49.000Z</time>
      </trkpt>
      <trkpt lat="43.92987" lon="7.33766">
        <ele>888.79998779297</ele>
        <time>2019-04-20T13:41:53.000Z</time>
      </trkpt>
      <trkpt lat="43.92994" lon="7.3377">
        <ele>889</ele>
        <time>2019-04-20T13:41:55.000Z</time>
      </trkpt>
      <trkpt lat="43.92999" lon="7.33776">
        <ele>889.20001220703</ele>
        <time>2019-04-20T13:41:57.000Z</time>
      </trkpt>
      <trkpt lat="43.93005" lon="7.33788">
        <ele>889.59997558594</ele>
        <time>2019-04-20T13:42:01.000Z</time>
      </trkpt>
      <trkpt lat="43.93007" lon="7.33796">
        <ele>890</ele>
        <time>2019-04-20T13:42:05.000Z</time>
      </trkpt>
      <trkpt lat="43.93007" lon="7.33797">
        <ele>890.20001220703</ele>
        <time>2019-04-20T13:42:06.000Z</time>
      </trkpt>
      <trkpt lat="43.93005" lon="7.33801">
        <ele>890.59997558594</ele>
        <time>2019-04-20T13:42:08.000Z</time>
      </trkpt>
      <trkpt lat="43.93005" lon="7.338">
        <ele>890.59997558594</ele>
        <time>2019-04-20T13:42:10.000Z</time>
      </trkpt>
      <trkpt lat="43.93001" lon="7.338">
        <ele>890</ele>
        <time>2019-04-20T13:42:17.000Z</time>
      </trkpt>
      <trkpt lat="43.92996" lon="7.33799">
        <ele>891.20001220703</ele>
        <time>2019-04-20T13:42:22.000Z</time>
      </trkpt>
      <trkpt lat="43.92994" lon="7.33798">
        <ele>891.40002441406</ele>
        <time>2019-04-20T13:42:24.000Z</time>
      </trkpt>
      <trkpt lat="43.92983" lon="7.33797">
        <ele>891.40002441406</ele>
        <time>2019-04-20T13:42:28.000Z</time>
      </trkpt>
      <trkpt lat="43.9297" lon="7.33799">
        <ele>891.40002441406</ele>
        <time>2019-04-20T13:42:33.000Z</time>
      </trkpt>
      <trkpt lat="43.92957" lon="7.33802">
        <ele>891.79998779297</ele>
        <time>2019-04-20T13:42:38.000Z</time>
      </trkpt>
      <trkpt lat="43.92945" lon="7.3381">
        <ele>892.20001220703</ele>
        <time>2019-04-20T13:42:43.000Z</time>
      </trkpt>
      <trkpt lat="43.92937" lon="7.33824">
        <ele>892.20001220703</ele>
        <time>2019-04-20T13:42:47.000Z</time>
      </trkpt>
      <trkpt lat="43.92938" lon="7.33828">
        <ele>892.40002441406</ele>
        <time>2019-04-20T13:42:48.000Z</time>
      </trkpt>
      <trkpt lat="43.92939" lon="7.33838">
        <ele>892.20001220703</ele>
        <time>2019-04-20T13:42:51.000Z</time>
      </trkpt>
      <trkpt lat="43.9294" lon="7.33852">
        <ele>893</ele>
        <time>2019-04-20T13:42:56.000Z</time>
      </trkpt>
      <trkpt lat="43.92943" lon="7.33857">
        <ele>893.40002441406</ele>
        <time>2019-04-20T13:42:58.000Z</time>
      </trkpt>
      <trkpt lat="43.92944" lon="7.33862">
        <ele>893.59997558594</ele>
        <time>2019-04-20T13:43:00.000Z</time>
      </trkpt>
      <trkpt lat="43.92945" lon="7.33872">
        <ele>894.59997558594</ele>
        <time>2019-04-20T13:43:04.000Z</time>
      </trkpt>
      <trkpt lat="43.92945" lon="7.33878">
        <ele>894.79998779297</ele>
        <time>2019-04-20T13:43:06.000Z</time>
      </trkpt>
      <trkpt lat="43.92948" lon="7.33887">
        <ele>895.20001220703</ele>
        <time>2019-04-20T13:43:09.000Z</time>
      </trkpt>
      <trkpt lat="43.92949" lon="7.33894">
        <ele>895.79998779297</ele>
        <time>2019-04-20T13:43:12.000Z</time>
      </trkpt>
      <trkpt lat="43.92949" lon="7.33896">
        <ele>896</ele>
        <time>2019-04-20T13:43:13.000Z</time>
      </trkpt>
      <trkpt lat="43.92954" lon="7.33901">
        <ele>896.79998779297</ele>
        <time>2019-04-20T13:43:15.000Z</time>
      </trkpt>
      <trkpt lat="43.92955" lon="7.33904">
        <ele>897.40002441406</ele>
        <time>2019-04-20T13:43:16.000Z</time>
      </trkpt>
      <trkpt lat="43.9296" lon="7.33913">
        <ele>898</ele>
        <time>2019-04-20T13:43:19.000Z</time>
      </trkpt>
      <trkpt lat="43.92961" lon="7.33917">
        <ele>898.20001220703</ele>
        <time>2019-04-20T13:43:20.000Z</time>
      </trkpt>
      <trkpt lat="43.92963" lon="7.33932">
        <ele>898.40002441406</ele>
        <time>2019-04-20T13:43:23.000Z</time>
      </trkpt>
      <trkpt lat="43.92965" lon="7.33943">
        <ele>898.20001220703</ele>
        <time>2019-04-20T13:43:25.000Z</time>
      </trkpt>
      <trkpt lat="43.92971" lon="7.33965">
        <ele>896.79998779297</ele>
        <time>2019-04-20T13:43:29.000Z</time>
      </trkpt>
      <trkpt lat="43.92972" lon="7.33971">
        <ele>896.59997558594</ele>
        <time>2019-04-20T13:43:30.000Z</time>
      </trkpt>
      <trkpt lat="43.92974" lon="7.33978">
        <ele>896.79998779297</ele>
        <time>2019-04-20T13:43:31.000Z</time>
      </trkpt>
      <trkpt lat="43.92969" lon="7.33985">
        <ele>896.40002441406</ele>
        <time>2019-04-20T13:43:33.000Z</time>
      </trkpt>
      <trkpt lat="43.92958" lon="7.33995">
        <ele>896.20001220703</ele>
        <time>2019-04-20T13:43:36.000Z</time>
      </trkpt>
      <trkpt lat="43.92953" lon="7.33997">
        <ele>896.20001220703</ele>
        <time>2019-04-20T13:43:38.000Z</time>
      </trkpt>
      <trkpt lat="43.92944" lon="7.33997">
        <ele>897.20001220703</ele>
        <time>2019-04-20T13:43:42.000Z</time>
      </trkpt>
      <trkpt lat="43.92942" lon="7.33998">
        <ele>897.40002441406</ele>
        <time>2019-04-20T13:43:43.000Z</time>
      </trkpt>
      <trkpt lat="43.9294" lon="7.34">
        <ele>897.59997558594</ele>
        <time>2019-04-20T13:43:44.000Z</time>
      </trkpt>
      <trkpt lat="43.92934" lon="7.34008">
        <ele>897.40002441406</ele>
        <time>2019-04-20T13:43:47.000Z</time>
      </trkpt>
      <trkpt lat="43.92926" lon="7.34027">
        <ele>896.40002441406</ele>
        <time>2019-04-20T13:43:51.000Z</time>
      </trkpt>
      <trkpt lat="43.92923" lon="7.34031">
        <ele>896.20001220703</ele>
        <time>2019-04-20T13:43:52.000Z</time>
      </trkpt>
      <trkpt lat="43.92918" lon="7.34048">
        <ele>897</ele>
        <time>2019-04-20T13:43:56.000Z</time>
      </trkpt>
      <trkpt lat="43.92915" lon="7.34061">
        <ele>897.79998779297</ele>
        <time>2019-04-20T13:43:59.000Z</time>
      </trkpt>
      <trkpt lat="43.92912" lon="7.34065">
        <ele>898</ele>
        <time>2019-04-20T13:44:00.000Z</time>
      </trkpt>
      <trkpt lat="43.92906" lon="7.34074">
        <ele>898.20001220703</ele>
        <time>2019-04-20T13:44:02.000Z</time>
      </trkpt>
      <trkpt lat="43.92898" lon="7.3408">
        <ele>898.40002441406</ele>
        <time>2019-04-20T13:44:04.000Z</time>
      </trkpt>
      <trkpt lat="43.92886" lon="7.34093">
        <ele>898.59997558594</ele>
        <time>2019-04-20T13:44:08.000Z</time>
      </trkpt>
      <trkpt lat="43.92877" lon="7.34109">
        <ele>898.79998779297</ele>
        <time>2019-04-20T13:44:12.000Z</time>
      </trkpt>
      <trkpt lat="43.92875" lon="7.34119">
        <ele>899</ele>
        <time>2019-04-20T13:44:14.000Z</time>
      </trkpt>
      <trkpt lat="43.92871" lon="7.34125">
        <ele>899.40002441406</ele>
        <time>2019-04-20T13:44:16.000Z</time>
      </trkpt>
      <trkpt lat="43.92867" lon="7.34131">
        <ele>900.20001220703</ele>
        <time>2019-04-20T13:44:18.000Z</time>
      </trkpt>
      <trkpt lat="43.9286" lon="7.34143">
        <ele>901.59997558594</ele>
        <time>2019-04-20T13:44:21.000Z</time>
      </trkpt>
      <trkpt lat="43.92857" lon="7.34165">
        <ele>902.40002441406</ele>
        <time>2019-04-20T13:44:26.000Z</time>
      </trkpt>
      <trkpt lat="43.92858" lon="7.34169">
        <ele>902.59997558594</ele>
        <time>2019-04-20T13:44:27.000Z</time>
      </trkpt>
      <trkpt lat="43.92862" lon="7.34178">
        <ele>903.20001220703</ele>
        <time>2019-04-20T13:44:29.000Z</time>
      </trkpt>
      <trkpt lat="43.92864" lon="7.34187">
        <ele>903.40002441406</ele>
        <time>2019-04-20T13:44:31.000Z</time>
      </trkpt>
      <trkpt lat="43.92867" lon="7.34197">
        <ele>903.79998779297</ele>
        <time>2019-04-20T13:44:33.000Z</time>
      </trkpt>
      <trkpt lat="43.92864" lon="7.34208">
        <ele>904.40002441406</ele>
        <time>2019-04-20T13:44:36.000Z</time>
      </trkpt>
      <trkpt lat="43.92857" lon="7.34215">
        <ele>904.59997558594</ele>
        <time>2019-04-20T13:44:39.000Z</time>
      </trkpt>
      <trkpt lat="43.92848" lon="7.3421">
        <ele>904.40002441406</ele>
        <time>2019-04-20T13:44:43.000Z</time>
      </trkpt>
      <trkpt lat="43.92841" lon="7.34211">
        <ele>904.59997558594</ele>
        <time>2019-04-20T13:44:47.000Z</time>
      </trkpt>
      <trkpt lat="43.92839" lon="7.34215">
        <ele>905</ele>
        <time>2019-04-20T13:44:50.000Z</time>
      </trkpt>
      <trkpt lat="43.92836" lon="7.34218">
        <ele>905.20001220703</ele>
        <time>2019-04-20T13:44:51.000Z</time>
      </trkpt>
      <trkpt lat="43.92834" lon="7.34222">
        <ele>906.40002441406</ele>
        <time>2019-04-20T13:44:54.000Z</time>
      </trkpt>
      <trkpt lat="43.92832" lon="7.34225">
        <ele>906.59997558594</ele>
        <time>2019-04-20T13:44:55.000Z</time>
      </trkpt>
      <trkpt lat="43.92832" lon="7.3424">
        <ele>907.20001220703</ele>
        <time>2019-04-20T13:44:59.000Z</time>
      </trkpt>
      <trkpt lat="43.92826" lon="7.34255">
        <ele>907.40002441406</ele>
        <time>2019-04-20T13:45:03.000Z</time>
      </trkpt>
      <trkpt lat="43.92823" lon="7.34274">
        <ele>908.20001220703</ele>
        <time>2019-04-20T13:45:08.000Z</time>
      </trkpt>
      <trkpt lat="43.92819" lon="7.34297">
        <ele>908</ele>
        <time>2019-04-20T13:45:13.000Z</time>
      </trkpt>
      <trkpt lat="43.92825" lon="7.34306">
        <ele>907.59997558594</ele>
        <time>2019-04-20T13:45:16.000Z</time>
      </trkpt>
      <trkpt lat="43.92815" lon="7.34306">
        <ele>906.79998779297</ele>
        <time>2019-04-20T13:45:19.000Z</time>
      </trkpt>
      <trkpt lat="43.92808" lon="7.34315">
        <ele>905.79998779297</ele>
        <time>2019-04-20T13:45:22.000Z</time>
      </trkpt>
      <trkpt lat="43.92802" lon="7.34328">
        <ele>904.79998779297</ele>
        <time>2019-04-20T13:45:25.000Z</time>
      </trkpt>
      <trkpt lat="43.92802" lon="7.34339">
        <ele>904.40002441406</ele>
        <time>2019-04-20T13:45:29.000Z</time>
      </trkpt>
      <trkpt lat="43.92797" lon="7.3434">
        <ele>903.59997558594</ele>
        <time>2019-04-20T13:45:32.000Z</time>
      </trkpt>
      <trkpt lat="43.92794" lon="7.34342">
        <ele>903.59997558594</ele>
        <time>2019-04-20T13:45:34.000Z</time>
      </trkpt>
      <trkpt lat="43.92787" lon="7.34344">
        <ele>903.40002441406</ele>
        <time>2019-04-20T13:45:39.000Z</time>
      </trkpt>
      <trkpt lat="43.92779" lon="7.34344">
        <ele>903.40002441406</ele>
        <time>2019-04-20T13:45:45.000Z</time>
      </trkpt>
      <trkpt lat="43.92774" lon="7.34343">
        <ele>904.79998779297</ele>
        <time>2019-04-20T13:45:51.000Z</time>
      </trkpt>
      <trkpt lat="43.92773" lon="7.34342">
        <ele>905</ele>
        <time>2019-04-20T13:45:52.000Z</time>
      </trkpt>
      <trkpt lat="43.92766" lon="7.34339">
        <ele>906</ele>
        <time>2019-04-20T13:45:56.000Z</time>
      </trkpt>
      <trkpt lat="43.92763" lon="7.34337">
        <ele>906.40002441406</ele>
        <time>2019-04-20T13:45:58.000Z</time>
      </trkpt>
      <trkpt lat="43.92758" lon="7.34332">
        <ele>907</ele>
        <time>2019-04-20T13:46:02.000Z</time>
      </trkpt>
      <trkpt lat="43.92758" lon="7.34333">
        <ele>907.40002441406</ele>
        <time>2019-04-20T13:46:04.000Z</time>
      </trkpt>
      <trkpt lat="43.92758" lon="7.34331">
        <ele>907.59997558594</ele>
        <time>2019-04-20T13:46:05.000Z</time>
      </trkpt>
      <trkpt lat="43.92757" lon="7.34331">
        <ele>907.59997558594</ele>
        <time>2019-04-20T13:46:08.000Z</time>
      </trkpt>
      <trkpt lat="43.92758" lon="7.34329">
        <ele>907.59997558594</ele>
        <time>2019-04-20T13:46:10.000Z</time>
      </trkpt>
      <trkpt lat="43.9276" lon="7.34324">
        <ele>907.79998779297</ele>
        <time>2019-04-20T13:46:13.000Z</time>
      </trkpt>
      <trkpt lat="43.92761" lon="7.34321">
        <ele>908.20001220703</ele>
        <time>2019-04-20T13:46:15.000Z</time>
      </trkpt>
      <trkpt lat="43.92763" lon="7.34314">
        <ele>908.79998779297</ele>
        <time>2019-04-20T13:46:18.000Z</time>
      </trkpt>
      <trkpt lat="43.92764" lon="7.34309">
        <ele>909.20001220703</ele>
        <time>2019-04-20T13:46:20.000Z</time>
      </trkpt>
      <trkpt lat="43.92763" lon="7.34306">
        <ele>909.59997558594</ele>
        <time>2019-04-20T13:46:21.000Z</time>
      </trkpt>
      <trkpt lat="43.92759" lon="7.34297">
        <ele>910.40002441406</ele>
        <time>2019-04-20T13:46:24.000Z</time>
      </trkpt>
      <trkpt lat="43.92757" lon="7.34294">
        <ele>910.59997558594</ele>
        <time>2019-04-20T13:46:25.000Z</time>
      </trkpt>
      <trkpt lat="43.9276" lon="7.34287">
        <ele>911.59997558594</ele>
        <time>2019-04-20T13:46:28.000Z</time>
      </trkpt>
      <trkpt lat="43.92759" lon="7.34284">
        <ele>911.79998779297</ele>
        <time>2019-04-20T13:46:29.000Z</time>
      </trkpt>
      <trkpt lat="43.92757" lon="7.34269">
        <ele>912.40002441406</ele>
        <time>2019-04-20T13:46:34.000Z</time>
      </trkpt>
      <trkpt lat="43.92756" lon="7.3426">
        <ele>912.59997558594</ele>
        <time>2019-04-20T13:46:37.000Z</time>
      </trkpt>
      <trkpt lat="43.9275" lon="7.34247">
        <ele>913.20001220703</ele>
        <time>2019-04-20T13:46:42.000Z</time>
      </trkpt>
      <trkpt lat="43.92749" lon="7.34242">
        <ele>913.79998779297</ele>
        <time>2019-04-20T13:46:44.000Z</time>
      </trkpt>
      <trkpt lat="43.92744" lon="7.34236">
        <ele>914.40002441406</ele>
        <time>2019-04-20T13:46:47.000Z</time>
      </trkpt>
      <trkpt lat="43.92744" lon="7.34231">
        <ele>915</ele>
        <time>2019-04-20T13:46:50.000Z</time>
      </trkpt>
      <trkpt lat="43.92743" lon="7.34229">
        <ele>915.40002441406</ele>
        <time>2019-04-20T13:46:51.000Z</time>
      </trkpt>
      <trkpt lat="43.92741" lon="7.34227">
        <ele>915.79998779297</ele>
        <time>2019-04-20T13:46:52.000Z</time>
      </trkpt>
      <trkpt lat="43.92741" lon="7.34226">
        <ele>916</ele>
        <time>2019-04-20T13:46:53.000Z</time>
      </trkpt>
      <trkpt lat="43.9274" lon="7.34223">
        <ele>916.20001220703</ele>
        <time>2019-04-20T13:46:55.000Z</time>
      </trkpt>
      <trkpt lat="43.92742" lon="7.34216">
        <ele>917.20001220703</ele>
        <time>2019-04-20T13:46:59.000Z</time>
      </trkpt>
      <trkpt lat="43.92742" lon="7.34213">
        <ele>917.40002441406</ele>
        <time>2019-04-20T13:47:00.000Z</time>
      </trkpt>
      <trkpt lat="43.92743" lon="7.34206">
        <ele>918.20001220703</ele>
        <time>2019-04-20T13:47:05.000Z</time>
      </trkpt>
      <trkpt lat="43.92741" lon="7.34203">
        <ele>918.20001220703</ele>
        <time>2019-04-20T13:47:06.000Z</time>
      </trkpt>
      <trkpt lat="43.92741" lon="7.34201">
        <ele>918.40002441406</ele>
        <time>2019-04-20T13:47:07.000Z</time>
      </trkpt>
      <trkpt lat="43.92738" lon="7.34195">
        <ele>918.59997558594</ele>
        <time>2019-04-20T13:47:09.000Z</time>
      </trkpt>
      <trkpt lat="43.92741" lon="7.34187">
        <ele>919</ele>
        <time>2019-04-20T13:47:13.000Z</time>
      </trkpt>
      <trkpt lat="43.92741" lon="7.34183">
        <ele>919.59997558594</ele>
        <time>2019-04-20T13:47:15.000Z</time>
      </trkpt>
      <trkpt lat="43.9274" lon="7.34181">
        <ele>920</ele>
        <time>2019-04-20T13:47:17.000Z</time>
      </trkpt>
      <trkpt lat="43.92739" lon="7.34178">
        <ele>920</ele>
        <time>2019-04-20T13:47:18.000Z</time>
      </trkpt>
      <trkpt lat="43.92737" lon="7.34171">
        <ele>920.79998779297</ele>
        <time>2019-04-20T13:47:22.000Z</time>
      </trkpt>
      <trkpt lat="43.92733" lon="7.34163">
        <ele>921.40002441406</ele>
        <time>2019-04-20T13:47:26.000Z</time>
      </trkpt>
      <trkpt lat="43.92733" lon="7.34161">
        <ele>921.79998779297</ele>
        <time>2019-04-20T13:47:27.000Z</time>
      </trkpt>
      <trkpt lat="43.92735" lon="7.34154">
        <ele>922.40002441406</ele>
        <time>2019-04-20T13:47:31.000Z</time>
      </trkpt>
      <trkpt lat="43.92735" lon="7.34152">
        <ele>922.40002441406</ele>
        <time>2019-04-20T13:47:32.000Z</time>
      </trkpt>
      <trkpt lat="43.92737" lon="7.34149">
        <ele>922.79998779297</ele>
        <time>2019-04-20T13:47:34.000Z</time>
      </trkpt>
      <trkpt lat="43.92738" lon="7.34139">
        <ele>923.40002441406</ele>
        <time>2019-04-20T13:47:38.000Z</time>
      </trkpt>
      <trkpt lat="43.92738" lon="7.3413">
        <ele>923.79998779297</ele>
        <time>2019-04-20T13:47:42.000Z</time>
      </trkpt>
      <trkpt lat="43.92738" lon="7.34129">
        <ele>923.79998779297</ele>
        <time>2019-04-20T13:47:43.000Z</time>
      </trkpt>
      <trkpt lat="43.9274" lon="7.34128">
        <ele>924</ele>
        <time>2019-04-20T13:47:44.000Z</time>
      </trkpt>
      <trkpt lat="43.92738" lon="7.34125">
        <ele>924</ele>
        <time>2019-04-20T13:47:45.000Z</time>
      </trkpt>
      <trkpt lat="43.92737" lon="7.34109">
        <ele>924.59997558594</ele>
        <time>2019-04-20T13:47:50.000Z</time>
      </trkpt>
      <trkpt lat="43.92735" lon="7.34104">
        <ele>924.59997558594</ele>
        <time>2019-04-20T13:47:51.000Z</time>
      </trkpt>
      <trkpt lat="43.92733" lon="7.34097">
        <ele>925</ele>
        <time>2019-04-20T13:47:53.000Z</time>
      </trkpt>
      <trkpt lat="43.92731" lon="7.34094">
        <ele>925</ele>
        <time>2019-04-20T13:47:54.000Z</time>
      </trkpt>
      <trkpt lat="43.92728" lon="7.34092">
        <ele>925.20001220703</ele>
        <time>2019-04-20T13:47:55.000Z</time>
      </trkpt>
      <trkpt lat="43.92724" lon="7.34081">
        <ele>925.20001220703</ele>
        <time>2019-04-20T13:47:58.000Z</time>
      </trkpt>
      <trkpt lat="43.9272" lon="7.34072">
        <ele>924.79998779297</ele>
        <time>2019-04-20T13:48:00.000Z</time>
      </trkpt>
      <trkpt lat="43.92717" lon="7.34064">
        <ele>924.59997558594</ele>
        <time>2019-04-20T13:48:02.000Z</time>
      </trkpt>
      <trkpt lat="43.9271" lon="7.34041">
        <ele>924.20001220703</ele>
        <time>2019-04-20T13:48:07.000Z</time>
      </trkpt>
      <trkpt lat="43.92702" lon="7.3402">
        <ele>924.79998779297</ele>
        <time>2019-04-20T13:48:12.000Z</time>
      </trkpt>
      <trkpt lat="43.92702" lon="7.34013">
        <ele>924.79998779297</ele>
        <time>2019-04-20T13:48:14.000Z</time>
      </trkpt>
      <trkpt lat="43.92703" lon="7.34006">
        <ele>925</ele>
        <time>2019-04-20T13:48:16.000Z</time>
      </trkpt>
      <trkpt lat="43.92702" lon="7.33987">
        <ele>926.20001220703</ele>
        <time>2019-04-20T13:48:21.000Z</time>
      </trkpt>
      <trkpt lat="43.92692" lon="7.33973">
        <ele>926.40002441406</ele>
        <time>2019-04-20T13:48:26.000Z</time>
      </trkpt>
      <trkpt lat="43.92679" lon="7.33964">
        <ele>927.20001220703</ele>
        <time>2019-04-20T13:48:31.000Z</time>
      </trkpt>
      <trkpt lat="43.92672" lon="7.33953">
        <ele>927.59997558594</ele>
        <time>2019-04-20T13:48:35.000Z</time>
      </trkpt>
      <trkpt lat="43.92669" lon="7.33952">
        <ele>927.40002441406</ele>
        <time>2019-04-20T13:48:36.000Z</time>
      </trkpt>
      <trkpt lat="43.92658" lon="7.33946">
        <ele>927.59997558594</ele>
        <time>2019-04-20T13:48:39.000Z</time>
      </trkpt>
      <trkpt lat="43.92654" lon="7.33943">
        <ele>927.59997558594</ele>
        <time>2019-04-20T13:48:40.000Z</time>
      </trkpt>
      <trkpt lat="43.92644" lon="7.33928">
        <ele>927.20001220703</ele>
        <time>2019-04-20T13:48:44.000Z</time>
      </trkpt>
      <trkpt lat="43.92636" lon="7.33909">
        <ele>927.59997558594</ele>
        <time>2019-04-20T13:48:48.000Z</time>
      </trkpt>
      <trkpt lat="43.92628" lon="7.339">
        <ele>927.79998779297</ele>
        <time>2019-04-20T13:48:52.000Z</time>
      </trkpt>
      <trkpt lat="43.92624" lon="7.33896">
        <ele>928.40002441406</ele>
        <time>2019-04-20T13:48:54.000Z</time>
      </trkpt>
      <trkpt lat="43.92618" lon="7.3389">
        <ele>928.59997558594</ele>
        <time>2019-04-20T13:48:57.000Z</time>
      </trkpt>
      <trkpt lat="43.92606" lon="7.33879">
        <ele>929.20001220703</ele>
        <time>2019-04-20T13:49:04.000Z</time>
      </trkpt>
      <trkpt lat="43.92596" lon="7.33873">
        <ele>928.79998779297</ele>
        <time>2019-04-20T13:49:09.000Z</time>
      </trkpt>
      <trkpt lat="43.92591" lon="7.33869">
        <ele>929</ele>
        <time>2019-04-20T13:49:13.000Z</time>
      </trkpt>
      <trkpt lat="43.92589" lon="7.33866">
        <ele>929.40002441406</ele>
        <time>2019-04-20T13:49:14.000Z</time>
      </trkpt>
      <trkpt lat="43.92579" lon="7.33849">
        <ele>930</ele>
        <time>2019-04-20T13:49:20.000Z</time>
      </trkpt>
      <trkpt lat="43.92579" lon="7.3384">
        <ele>930.20001220703</ele>
        <time>2019-04-20T13:49:22.000Z</time>
      </trkpt>
      <trkpt lat="43.9258" lon="7.33831">
        <ele>930.59997558594</ele>
        <time>2019-04-20T13:49:24.000Z</time>
      </trkpt>
      <trkpt lat="43.92582" lon="7.33828">
        <ele>930.59997558594</ele>
        <time>2019-04-20T13:49:25.000Z</time>
      </trkpt>
      <trkpt lat="43.92582" lon="7.33818">
        <ele>930.79998779297</ele>
        <time>2019-04-20T13:49:27.000Z</time>
      </trkpt>
      <trkpt lat="43.92581" lon="7.33808">
        <ele>930.79998779297</ele>
        <time>2019-04-20T13:49:29.000Z</time>
      </trkpt>
      <trkpt lat="43.92579" lon="7.33795">
        <ele>931.20001220703</ele>
        <time>2019-04-20T13:49:32.000Z</time>
      </trkpt>
      <trkpt lat="43.92576" lon="7.33782">
        <ele>931.79998779297</ele>
        <time>2019-04-20T13:49:35.000Z</time>
      </trkpt>
      <trkpt lat="43.92573" lon="7.33771">
        <ele>932.40002441406</ele>
        <time>2019-04-20T13:49:38.000Z</time>
      </trkpt>
      <trkpt lat="43.92574" lon="7.33767">
        <ele>932.59997558594</ele>
        <time>2019-04-20T13:49:39.000Z</time>
      </trkpt>
      <trkpt lat="43.92573" lon="7.33759">
        <ele>933</ele>
        <time>2019-04-20T13:49:41.000Z</time>
      </trkpt>
      <trkpt lat="43.92572" lon="7.33754">
        <ele>933.40002441406</ele>
        <time>2019-04-20T13:49:42.000Z</time>
      </trkpt>
      <trkpt lat="43.9257" lon="7.3375">
        <ele>933.59997558594</ele>
        <time>2019-04-20T13:49:43.000Z</time>
      </trkpt>
      <trkpt lat="43.92563" lon="7.33744">
        <ele>934.40002441406</ele>
        <time>2019-04-20T13:49:45.000Z</time>
      </trkpt>
      <trkpt lat="43.9256" lon="7.33741">
        <ele>934.79998779297</ele>
        <time>2019-04-20T13:49:46.000Z</time>
      </trkpt>
      <trkpt lat="43.92547" lon="7.33733">
        <ele>935.59997558594</ele>
        <time>2019-04-20T13:49:50.000Z</time>
      </trkpt>
      <trkpt lat="43.92543" lon="7.33732">
        <ele>935.79998779297</ele>
        <time>2019-04-20T13:49:51.000Z</time>
      </trkpt>
      <trkpt lat="43.92529" lon="7.33734">
        <ele>936.59997558594</ele>
        <time>2019-04-20T13:49:55.000Z</time>
      </trkpt>
      <trkpt lat="43.92519" lon="7.33734">
        <ele>936</ele>
        <time>2019-04-20T13:49:57.000Z</time>
      </trkpt>
      <trkpt lat="43.92512" lon="7.3373">
        <ele>935.40002441406</ele>
        <time>2019-04-20T13:49:59.000Z</time>
      </trkpt>
      <trkpt lat="43.92504" lon="7.33722">
        <ele>935.59997558594</ele>
        <time>2019-04-20T13:50:03.000Z</time>
      </trkpt>
      <trkpt lat="43.92501" lon="7.33721">
        <ele>936</ele>
        <time>2019-04-20T13:50:04.000Z</time>
      </trkpt>
      <trkpt lat="43.92492" lon="7.33711">
        <ele>936</ele>
        <time>2019-04-20T13:50:08.000Z</time>
      </trkpt>
      <trkpt lat="43.92489" lon="7.33708">
        <ele>936.59997558594</ele>
        <time>2019-04-20T13:50:10.000Z</time>
      </trkpt>
      <trkpt lat="43.92485" lon="7.33704">
        <ele>937.20001220703</ele>
        <time>2019-04-20T13:50:12.000Z</time>
      </trkpt>
      <trkpt lat="43.92482" lon="7.33702">
        <ele>937.79998779297</ele>
        <time>2019-04-20T13:50:13.000Z</time>
      </trkpt>
      <trkpt lat="43.92473" lon="7.33696">
        <ele>938.20001220703</ele>
        <time>2019-04-20T13:50:16.000Z</time>
      </trkpt>
      <trkpt lat="43.92463" lon="7.33696">
        <ele>939</ele>
        <time>2019-04-20T13:50:19.000Z</time>
      </trkpt>
      <trkpt lat="43.92458" lon="7.33698">
        <ele>939.20001220703</ele>
        <time>2019-04-20T13:50:20.000Z</time>
      </trkpt>
      <trkpt lat="43.92443" lon="7.33703">
        <ele>939</ele>
        <time>2019-04-20T13:50:23.000Z</time>
      </trkpt>
      <trkpt lat="43.92438" lon="7.33706">
        <ele>938.79998779297</ele>
        <time>2019-04-20T13:50:24.000Z</time>
      </trkpt>
      <trkpt lat="43.92427" lon="7.33709">
        <ele>937.59997558594</ele>
        <time>2019-04-20T13:50:26.000Z</time>
      </trkpt>
      <trkpt lat="43.92422" lon="7.33709">
        <ele>937</ele>
        <time>2019-04-20T13:50:27.000Z</time>
      </trkpt>
      <trkpt lat="43.92413" lon="7.3371">
        <ele>936.40002441406</ele>
        <time>2019-04-20T13:50:29.000Z</time>
      </trkpt>
      <trkpt lat="43.92399" lon="7.3371">
        <ele>938</ele>
        <time>2019-04-20T13:50:33.000Z</time>
      </trkpt>
      <trkpt lat="43.92391" lon="7.33717">
        <ele>939.40002441406</ele>
        <time>2019-04-20T13:50:36.000Z</time>
      </trkpt>
      <trkpt lat="43.9239" lon="7.33723">
        <ele>939.79998779297</ele>
        <time>2019-04-20T13:50:37.000Z</time>
      </trkpt>
      <trkpt lat="43.92384" lon="7.33733">
        <ele>940</ele>
        <time>2019-04-20T13:50:39.000Z</time>
      </trkpt>
      <trkpt lat="43.92382" lon="7.33736">
        <ele>939.79998779297</ele>
        <time>2019-04-20T13:50:40.000Z</time>
      </trkpt>
      <trkpt lat="43.92374" lon="7.3375">
        <ele>940</ele>
        <time>2019-04-20T13:50:44.000Z</time>
      </trkpt>
      <trkpt lat="43.92373" lon="7.33755">
        <ele>940.40002441406</ele>
        <time>2019-04-20T13:50:45.000Z</time>
      </trkpt>
      <trkpt lat="43.92365" lon="7.33774">
        <ele>940.40002441406</ele>
        <time>2019-04-20T13:50:48.000Z</time>
      </trkpt>
      <trkpt lat="43.92357" lon="7.33796">
        <ele>939.59997558594</ele>
        <time>2019-04-20T13:50:52.000Z</time>
      </trkpt>
      <trkpt lat="43.92356" lon="7.33802">
        <ele>939.59997558594</ele>
        <time>2019-04-20T13:50:53.000Z</time>
      </trkpt>
      <trkpt lat="43.92355" lon="7.33808">
        <ele>939.79998779297</ele>
        <time>2019-04-20T13:50:54.000Z</time>
      </trkpt>
      <trkpt lat="43.9235" lon="7.33823">
        <ele>939.79998779297</ele>
        <time>2019-04-20T13:50:57.000Z</time>
      </trkpt>
      <trkpt lat="43.92346" lon="7.33825">
        <ele>939.40002441406</ele>
        <time>2019-04-20T13:50:59.000Z</time>
      </trkpt>
      <trkpt lat="43.92344" lon="7.33825">
        <ele>939.40002441406</ele>
        <time>2019-04-20T13:51:00.000Z</time>
      </trkpt>
      <trkpt lat="43.92338" lon="7.33825">
        <ele>939.59997558594</ele>
        <time>2019-04-20T13:51:03.000Z</time>
      </trkpt>
      <trkpt lat="43.9233" lon="7.33826">
        <ele>940.59997558594</ele>
        <time>2019-04-20T13:51:06.000Z</time>
      </trkpt>
      <trkpt lat="43.9232" lon="7.33832">
        <ele>941.40002441406</ele>
        <time>2019-04-20T13:51:10.000Z</time>
      </trkpt>
      <trkpt lat="43.92318" lon="7.33831">
        <ele>941.40002441406</ele>
        <time>2019-04-20T13:51:11.000Z</time>
      </trkpt>
      <trkpt lat="43.92307" lon="7.33833">
        <ele>941.59997558594</ele>
        <time>2019-04-20T13:51:16.000Z</time>
      </trkpt>
      <trkpt lat="43.92306" lon="7.33834">
        <ele>941.79998779297</ele>
        <time>2019-04-20T13:51:17.000Z</time>
      </trkpt>
      <trkpt lat="43.92299" lon="7.33838">
        <ele>942.79998779297</ele>
        <time>2019-04-20T13:51:20.000Z</time>
      </trkpt>
      <trkpt lat="43.92294" lon="7.33844">
        <ele>943.40002441406</ele>
        <time>2019-04-20T13:51:22.000Z</time>
      </trkpt>
      <trkpt lat="43.92292" lon="7.33847">
        <ele>943.79998779297</ele>
        <time>2019-04-20T13:51:23.000Z</time>
      </trkpt>
      <trkpt lat="43.92286" lon="7.33858">
        <ele>945</ele>
        <time>2019-04-20T13:51:27.000Z</time>
      </trkpt>
      <trkpt lat="43.92283" lon="7.33863">
        <ele>945.79998779297</ele>
        <time>2019-04-20T13:51:29.000Z</time>
      </trkpt>
      <trkpt lat="43.92281" lon="7.33865">
        <ele>946</ele>
        <time>2019-04-20T13:51:30.000Z</time>
      </trkpt>
      <trkpt lat="43.92273" lon="7.33879">
        <ele>946.40002441406</ele>
        <time>2019-04-20T13:51:34.000Z</time>
      </trkpt>
      <trkpt lat="43.92268" lon="7.33889">
        <ele>946.79998779297</ele>
        <time>2019-04-20T13:51:37.000Z</time>
      </trkpt>
      <trkpt lat="43.92264" lon="7.33897">
        <ele>947.20001220703</ele>
        <time>2019-04-20T13:51:39.000Z</time>
      </trkpt>
      <trkpt lat="43.92255" lon="7.33913">
        <ele>947.40002441406</ele>
        <time>2019-04-20T13:51:43.000Z</time>
      </trkpt>
      <trkpt lat="43.9225" lon="7.33922">
        <ele>947.79998779297</ele>
        <time>2019-04-20T13:51:46.000Z</time>
      </trkpt>
      <trkpt lat="43.92249" lon="7.33923">
        <ele>947.79998779297</ele>
        <time>2019-04-20T13:51:47.000Z</time>
      </trkpt>
      <trkpt lat="43.92247" lon="7.33928">
        <ele>948.20001220703</ele>
        <time>2019-04-20T13:51:49.000Z</time>
      </trkpt>
      <trkpt lat="43.92245" lon="7.33937">
        <ele>949</ele>
        <time>2019-04-20T13:51:52.000Z</time>
      </trkpt>
      <trkpt lat="43.92241" lon="7.33945">
        <ele>949.40002441406</ele>
        <time>2019-04-20T13:51:55.000Z</time>
      </trkpt>
      <trkpt lat="43.92237" lon="7.3395">
        <ele>949.79998779297</ele>
        <time>2019-04-20T13:51:57.000Z</time>
      </trkpt>
      <trkpt lat="43.92226" lon="7.33969">
        <ele>950.59997558594</ele>
        <time>2019-04-20T13:52:03.000Z</time>
      </trkpt>
      <trkpt lat="43.92223" lon="7.33974">
        <ele>949.40002441406</ele>
        <time>2019-04-20T13:52:06.000Z</time>
      </trkpt>
      <trkpt lat="43.92218" lon="7.33988">
        <ele>948</ele>
        <time>2019-04-20T13:52:09.000Z</time>
      </trkpt>
      <trkpt lat="43.92211" lon="7.34003">
        <ele>946.40002441406</ele>
        <time>2019-04-20T13:52:12.000Z</time>
      </trkpt>
      <trkpt lat="43.92207" lon="7.34007">
        <ele>945.40002441406</ele>
        <time>2019-04-20T13:52:13.000Z</time>
      </trkpt>
      <trkpt lat="43.92205" lon="7.34011">
        <ele>944.40002441406</ele>
        <time>2019-04-20T13:52:14.000Z</time>
      </trkpt>
      <trkpt lat="43.92205" lon="7.34017">
        <ele>942.59997558594</ele>
        <time>2019-04-20T13:52:16.000Z</time>
      </trkpt>
      <trkpt lat="43.92205" lon="7.34018">
        <ele>942.40002441406</ele>
        <time>2019-04-20T13:52:17.000Z</time>
      </trkpt>
      <trkpt lat="43.92199" lon="7.34027">
        <ele>941.59997558594</ele>
        <time>2019-04-20T13:52:20.000Z</time>
      </trkpt>
      <trkpt lat="43.92196" lon="7.34028">
        <ele>941.59997558594</ele>
        <time>2019-04-20T13:52:21.000Z</time>
      </trkpt>
      <trkpt lat="43.92189" lon="7.34029">
        <ele>940.59997558594</ele>
        <time>2019-04-20T13:52:23.000Z</time>
      </trkpt>
      <trkpt lat="43.92187" lon="7.34029">
        <ele>940.40002441406</ele>
        <time>2019-04-20T13:52:24.000Z</time>
      </trkpt>
      <trkpt lat="43.92175" lon="7.34031">
        <ele>940.40002441406</ele>
        <time>2019-04-20T13:52:27.000Z</time>
      </trkpt>
      <trkpt lat="43.92171" lon="7.34028">
        <ele>940.20001220703</ele>
        <time>2019-04-20T13:52:28.000Z</time>
      </trkpt>
      <trkpt lat="43.92148" lon="7.34019">
        <ele>939.59997558594</ele>
        <time>2019-04-20T13:52:34.000Z</time>
      </trkpt>
      <trkpt lat="43.92136" lon="7.34018">
        <ele>939.59997558594</ele>
        <time>2019-04-20T13:52:36.000Z</time>
      </trkpt>
      <trkpt lat="43.92133" lon="7.34024">
        <ele>939.40002441406</ele>
        <time>2019-04-20T13:52:37.000Z</time>
      </trkpt>
      <trkpt lat="43.9213" lon="7.34031">
        <ele>938.79998779297</ele>
        <time>2019-04-20T13:52:38.000Z</time>
      </trkpt>
      <trkpt lat="43.92125" lon="7.34038">
        <ele>938.20001220703</ele>
        <time>2019-04-20T13:52:39.000Z</time>
      </trkpt>
      <trkpt lat="43.92122" lon="7.34043">
        <ele>937.59997558594</ele>
        <time>2019-04-20T13:52:40.000Z</time>
      </trkpt>
      <trkpt lat="43.92118" lon="7.34049">
        <ele>937</ele>
        <time>2019-04-20T13:52:41.000Z</time>
      </trkpt>
      <trkpt lat="43.92113" lon="7.34055">
        <ele>936.40002441406</ele>
        <time>2019-04-20T13:52:42.000Z</time>
      </trkpt>
      <trkpt lat="43.92094" lon="7.34081">
        <ele>935.79998779297</ele>
        <time>2019-04-20T13:52:46.000Z</time>
      </trkpt>
      <trkpt lat="43.9209" lon="7.34087">
        <ele>935.20001220703</ele>
        <time>2019-04-20T13:52:47.000Z</time>
      </trkpt>
      <trkpt lat="43.92087" lon="7.34095">
        <ele>934</ele>
        <time>2019-04-20T13:52:48.000Z</time>
      </trkpt>
      <trkpt lat="43.92082" lon="7.34108">
        <ele>932.79998779297</ele>
        <time>2019-04-20T13:52:50.000Z</time>
      </trkpt>
      <trkpt lat="43.92077" lon="7.34113">
        <ele>932</ele>
        <time>2019-04-20T13:52:51.000Z</time>
      </trkpt>
      <trkpt lat="43.92077" lon="7.34115">
        <ele>932.20001220703</ele>
        <time>2019-04-20T13:52:54.000Z</time>
      </trkpt>
      <trkpt lat="43.92076" lon="7.34116">
        <ele>932.40002441406</ele>
        <time>2019-04-20T13:52:56.000Z</time>
      </trkpt>
      <trkpt lat="43.9207" lon="7.34112">
        <ele>931.59997558594</ele>
        <time>2019-04-20T13:52:58.000Z</time>
      </trkpt>
      <trkpt lat="43.92065" lon="7.34112">
        <ele>931.20001220703</ele>
        <time>2019-04-20T13:52:59.000Z</time>
      </trkpt>
      <trkpt lat="43.9206" lon="7.34111">
        <ele>930.40002441406</ele>
        <time>2019-04-20T13:53:00.000Z</time>
      </trkpt>
      <trkpt lat="43.9205" lon="7.34111">
        <ele>929.59997558594</ele>
        <time>2019-04-20T13:53:02.000Z</time>
      </trkpt>
      <trkpt lat="43.92048" lon="7.34114">
        <ele>929</ele>
        <time>2019-04-20T13:53:03.000Z</time>
      </trkpt>
      <trkpt lat="43.92043" lon="7.34119">
        <ele>928.59997558594</ele>
        <time>2019-04-20T13:53:04.000Z</time>
      </trkpt>
      <trkpt lat="43.92035" lon="7.34131">
        <ele>927.79998779297</ele>
        <time>2019-04-20T13:53:06.000Z</time>
      </trkpt>
      <trkpt lat="43.92022" lon="7.34143">
        <ele>926.59997558594</ele>
        <time>2019-04-20T13:53:08.000Z</time>
      </trkpt>
      <trkpt lat="43.92012" lon="7.34158">
        <ele>925.20001220703</ele>
        <time>2019-04-20T13:53:10.000Z</time>
      </trkpt>
      <trkpt lat="43.92001" lon="7.34177">
        <ele>923.40002441406</ele>
        <time>2019-04-20T13:53:12.000Z</time>
      </trkpt>
      <trkpt lat="43.91997" lon="7.34186">
        <ele>922.59997558594</ele>
        <time>2019-04-20T13:53:13.000Z</time>
      </trkpt>
      <trkpt lat="43.91995" lon="7.34195">
        <ele>921.20001220703</ele>
        <time>2019-04-20T13:53:14.000Z</time>
      </trkpt>
      <trkpt lat="43.91992" lon="7.34198">
        <ele>920.40002441406</ele>
        <time>2019-04-20T13:53:15.000Z</time>
      </trkpt>
      <trkpt lat="43.91992" lon="7.34199">
        <ele>920</ele>
        <time>2019-04-20T13:53:16.000Z</time>
      </trkpt>
      <trkpt lat="43.91997" lon="7.34198">
        <ele>920.20001220703</ele>
        <time>2019-04-20T13:53:18.000Z</time>
      </trkpt>
      <trkpt lat="43.91996" lon="7.34198">
        <ele>921.20001220703</ele>
        <time>2019-04-20T13:53:20.000Z</time>
      </trkpt>
      <trkpt lat="43.91996" lon="7.34198">
        <ele>921.40002441406</ele>
        <time>2019-04-20T13:53:22.000Z</time>
      </trkpt>
      <trkpt lat="43.91997" lon="7.34198">
        <ele>921.40002441406</ele>
        <time>2019-04-20T13:53:26.000Z</time>
      </trkpt>
      <trkpt lat="43.91997" lon="7.34198">
        <ele>921.20001220703</ele>
        <time>2019-04-20T13:53:27.000Z</time>
      </trkpt>
      <trkpt lat="43.91998" lon="7.34193">
        <ele>921.40002441406</ele>
        <time>2019-04-20T13:53:30.000Z</time>
      </trkpt>
      <trkpt lat="43.91999" lon="7.3419">
        <ele>921.79998779297</ele>
        <time>2019-04-20T13:53:33.000Z</time>
      </trkpt>
      <trkpt lat="43.92002" lon="7.34186">
        <ele>922</ele>
        <time>2019-04-20T13:53:35.000Z</time>
      </trkpt>
      <trkpt lat="43.92002" lon="7.34184">
        <ele>922.20001220703</ele>
        <time>2019-04-20T13:53:37.000Z</time>
      </trkpt>
      <trkpt lat="43.92001" lon="7.34183">
        <ele>922.40002441406</ele>
        <time>2019-04-20T13:53:38.000Z</time>
      </trkpt>
      <trkpt lat="43.92003" lon="7.34182">
        <ele>922.59997558594</ele>
        <time>2019-04-20T13:53:39.000Z</time>
      </trkpt>
      <trkpt lat="43.92005" lon="7.34181">
        <ele>923</ele>
        <time>2019-04-20T13:53:41.000Z</time>
      </trkpt>
      <trkpt lat="43.92007" lon="7.3418">
        <ele>923</ele>
        <time>2019-04-20T13:53:42.000Z</time>
      </trkpt>
      <trkpt lat="43.92009" lon="7.34176">
        <ele>923.40002441406</ele>
        <time>2019-04-20T13:53:44.000Z</time>
      </trkpt>
      <trkpt lat="43.92015" lon="7.34168">
        <ele>923.40002441406</ele>
        <time>2019-04-20T13:53:48.000Z</time>
      </trkpt>
      <trkpt lat="43.92025" lon="7.34159">
        <ele>924.40002441406</ele>
        <time>2019-04-20T13:53:52.000Z</time>
      </trkpt>
      <trkpt lat="43.92023" lon="7.34152">
        <ele>924.79998779297</ele>
        <time>2019-04-20T13:53:54.000Z</time>
      </trkpt>
      <trkpt lat="43.92023" lon="7.34143">
        <ele>925.40002441406</ele>
        <time>2019-04-20T13:53:56.000Z</time>
      </trkpt>
      <trkpt lat="43.92024" lon="7.34135">
        <ele>926.40002441406</ele>
        <time>2019-04-20T13:53:58.000Z</time>
      </trkpt>
      <trkpt lat="43.92023" lon="7.34133">
        <ele>926.59997558594</ele>
        <time>2019-04-20T13:53:59.000Z</time>
      </trkpt>
      <trkpt lat="43.92023" lon="7.34118">
        <ele>927.40002441406</ele>
        <time>2019-04-20T13:54:04.000Z</time>
      </trkpt>
      <trkpt lat="43.92022" lon="7.3411">
        <ele>927.79998779297</ele>
        <time>2019-04-20T13:54:06.000Z</time>
      </trkpt>
      <trkpt lat="43.92015" lon="7.341">
        <ele>928.40002441406</ele>
        <time>2019-04-20T13:54:09.000Z</time>
      </trkpt>
      <trkpt lat="43.92014" lon="7.34094">
        <ele>929</ele>
        <time>2019-04-20T13:54:11.000Z</time>
      </trkpt>
      <trkpt lat="43.92008" lon="7.34083">
        <ele>930</ele>
        <time>2019-04-20T13:54:15.000Z</time>
      </trkpt>
      <trkpt lat="43.92004" lon="7.34076">
        <ele>931</ele>
        <time>2019-04-20T13:54:18.000Z</time>
      </trkpt>
      <trkpt lat="43.92001" lon="7.34068">
        <ele>932</ele>
        <time>2019-04-20T13:54:22.000Z</time>
      </trkpt>
      <trkpt lat="43.91999" lon="7.34067">
        <ele>932.20001220703</ele>
        <time>2019-04-20T13:54:23.000Z</time>
      </trkpt>
      <trkpt lat="43.91991" lon="7.34063">
        <ele>932.79998779297</ele>
        <time>2019-04-20T13:54:27.000Z</time>
      </trkpt>
      <trkpt lat="43.91989" lon="7.34062">
        <ele>933.20001220703</ele>
        <time>2019-04-20T13:54:28.000Z</time>
      </trkpt>
      <trkpt lat="43.91981" lon="7.34056">
        <ele>933.79998779297</ele>
        <time>2019-04-20T13:54:32.000Z</time>
      </trkpt>
      <trkpt lat="43.91978" lon="7.34052">
        <ele>934.20001220703</ele>
        <time>2019-04-20T13:54:35.000Z</time>
      </trkpt>
      <trkpt lat="43.91977" lon="7.34048">
        <ele>934.59997558594</ele>
        <time>2019-04-20T13:54:37.000Z</time>
      </trkpt>
      <trkpt lat="43.91977" lon="7.34045">
        <ele>934.79998779297</ele>
        <time>2019-04-20T13:54:38.000Z</time>
      </trkpt>
      <trkpt lat="43.91975" lon="7.34031">
        <ele>934.79998779297</ele>
        <time>2019-04-20T13:54:44.000Z</time>
      </trkpt>
      <trkpt lat="43.91974" lon="7.34027">
        <ele>935.40002441406</ele>
        <time>2019-04-20T13:54:46.000Z</time>
      </trkpt>
      <trkpt lat="43.91972" lon="7.34025">
        <ele>935.59997558594</ele>
        <time>2019-04-20T13:54:47.000Z</time>
      </trkpt>
      <trkpt lat="43.91968" lon="7.3402">
        <ele>936.20001220703</ele>
        <time>2019-04-20T13:54:49.000Z</time>
      </trkpt>
      <trkpt lat="43.91967" lon="7.34017">
        <ele>936.40002441406</ele>
        <time>2019-04-20T13:54:50.000Z</time>
      </trkpt>
      <trkpt lat="43.91966" lon="7.3401">
        <ele>936.40002441406</ele>
        <time>2019-04-20T13:54:53.000Z</time>
      </trkpt>
      <trkpt lat="43.91965" lon="7.34005">
        <ele>936.79998779297</ele>
        <time>2019-04-20T13:54:55.000Z</time>
      </trkpt>
      <trkpt lat="43.91966" lon="7.34001">
        <ele>937</ele>
        <time>2019-04-20T13:54:57.000Z</time>
      </trkpt>
      <trkpt lat="43.91966" lon="7.33995">
        <ele>937.40002441406</ele>
        <time>2019-04-20T13:55:00.000Z</time>
      </trkpt>
      <trkpt lat="43.91964" lon="7.33993">
        <ele>937.79998779297</ele>
        <time>2019-04-20T13:55:01.000Z</time>
      </trkpt>
      <trkpt lat="43.91961" lon="7.33986">
        <ele>938.59997558594</ele>
        <time>2019-04-20T13:55:04.000Z</time>
      </trkpt>
      <trkpt lat="43.9196" lon="7.33984">
        <ele>938.79998779297</ele>
        <time>2019-04-20T13:55:05.000Z</time>
      </trkpt>
      <trkpt lat="43.91956" lon="7.33971">
        <ele>939.59997558594</ele>
        <time>2019-04-20T13:55:09.000Z</time>
      </trkpt>
      <trkpt lat="43.91948" lon="7.33956">
        <ele>939.59997558594</ele>
        <time>2019-04-20T13:55:13.000Z</time>
      </trkpt>
      <trkpt lat="43.91944" lon="7.3395">
        <ele>939.79998779297</ele>
        <time>2019-04-20T13:55:15.000Z</time>
      </trkpt>
      <trkpt lat="43.91946" lon="7.33937">
        <ele>940.79998779297</ele>
        <time>2019-04-20T13:55:18.000Z</time>
      </trkpt>
      <trkpt lat="43.91945" lon="7.3393">
        <ele>941</ele>
        <time>2019-04-20T13:55:20.000Z</time>
      </trkpt>
      <trkpt lat="43.91941" lon="7.33921">
        <ele>941.59997558594</ele>
        <time>2019-04-20T13:55:23.000Z</time>
      </trkpt>
      <trkpt lat="43.91937" lon="7.33915">
        <ele>942</ele>
        <time>2019-04-20T13:55:25.000Z</time>
      </trkpt>
      <trkpt lat="43.9193" lon="7.3391">
        <ele>942.59997558594</ele>
        <time>2019-04-20T13:55:28.000Z</time>
      </trkpt>
      <trkpt lat="43.91928" lon="7.33906">
        <ele>942.59997558594</ele>
        <time>2019-04-20T13:55:30.000Z</time>
      </trkpt>
      <trkpt lat="43.91925" lon="7.33902">
        <ele>942.79998779297</ele>
        <time>2019-04-20T13:55:32.000Z</time>
      </trkpt>
      <trkpt lat="43.91923" lon="7.33901">
        <ele>943</ele>
        <time>2019-04-20T13:55:33.000Z</time>
      </trkpt>
      <trkpt lat="43.91918" lon="7.33894">
        <ele>944.20001220703</ele>
        <time>2019-04-20T13:55:37.000Z</time>
      </trkpt>
      <trkpt lat="43.91917" lon="7.33891">
        <ele>944.59997558594</ele>
        <time>2019-04-20T13:55:38.000Z</time>
      </trkpt>
      <trkpt lat="43.91918" lon="7.33882">
        <ele>945</ele>
        <time>2019-04-20T13:55:41.000Z</time>
      </trkpt>
      <trkpt lat="43.91918" lon="7.33879">
        <ele>945.40002441406</ele>
        <time>2019-04-20T13:55:42.000Z</time>
      </trkpt>
      <trkpt lat="43.91914" lon="7.33869">
        <ele>946.59997558594</ele>
        <time>2019-04-20T13:55:46.000Z</time>
      </trkpt>
      <trkpt lat="43.91912" lon="7.33864">
        <ele>946.79998779297</ele>
        <time>2019-04-20T13:55:48.000Z</time>
      </trkpt>
      <trkpt lat="43.91908" lon="7.33854">
        <ele>947.40002441406</ele>
        <time>2019-04-20T13:55:51.000Z</time>
      </trkpt>
      <trkpt lat="43.91906" lon="7.33848">
        <ele>947.59997558594</ele>
        <time>2019-04-20T13:55:53.000Z</time>
      </trkpt>
      <trkpt lat="43.91903" lon="7.33834">
        <ele>947.79998779297</ele>
        <time>2019-04-20T13:55:57.000Z</time>
      </trkpt>
      <trkpt lat="43.91897" lon="7.33823">
        <ele>948.59997558594</ele>
        <time>2019-04-20T13:56:01.000Z</time>
      </trkpt>
      <trkpt lat="43.91892" lon="7.3382">
        <ele>949</ele>
        <time>2019-04-20T13:56:03.000Z</time>
      </trkpt>
      <trkpt lat="43.91886" lon="7.3382">
        <ele>949.79998779297</ele>
        <time>2019-04-20T13:56:05.000Z</time>
      </trkpt>
      <trkpt lat="43.91883" lon="7.33821">
        <ele>949.79998779297</ele>
        <time>2019-04-20T13:56:06.000Z</time>
      </trkpt>
      <trkpt lat="43.91877" lon="7.33823">
        <ele>950.40002441406</ele>
        <time>2019-04-20T13:56:08.000Z</time>
      </trkpt>
      <trkpt lat="43.91864" lon="7.33825">
        <ele>950.79998779297</ele>
        <time>2019-04-20T13:56:12.000Z</time>
      </trkpt>
      <trkpt lat="43.91858" lon="7.3383">
        <ele>951</ele>
        <time>2019-04-20T13:56:14.000Z</time>
      </trkpt>
      <trkpt lat="43.91855" lon="7.33834">
        <ele>951</ele>
        <time>2019-04-20T13:56:15.000Z</time>
      </trkpt>
      <trkpt lat="43.91846" lon="7.3384">
        <ele>950.79998779297</ele>
        <time>2019-04-20T13:56:17.000Z</time>
      </trkpt>
      <trkpt lat="43.91841" lon="7.33839">
        <ele>950.40002441406</ele>
        <time>2019-04-20T13:56:18.000Z</time>
      </trkpt>
      <trkpt lat="43.91828" lon="7.33836">
        <ele>949.79998779297</ele>
        <time>2019-04-20T13:56:21.000Z</time>
      </trkpt>
      <trkpt lat="43.91818" lon="7.33839">
        <ele>949.59997558594</ele>
        <time>2019-04-20T13:56:23.000Z</time>
      </trkpt>
      <trkpt lat="43.91813" lon="7.33838">
        <ele>949.40002441406</ele>
        <time>2019-04-20T13:56:24.000Z</time>
      </trkpt>
      <trkpt lat="43.91796" lon="7.33834">
        <ele>948.79998779297</ele>
        <time>2019-04-20T13:56:27.000Z</time>
      </trkpt>
      <trkpt lat="43.9179" lon="7.33834">
        <ele>948.40002441406</ele>
        <time>2019-04-20T13:56:28.000Z</time>
      </trkpt>
      <trkpt lat="43.91785" lon="7.33834">
        <ele>947.59997558594</ele>
        <time>2019-04-20T13:56:29.000Z</time>
      </trkpt>
      <trkpt lat="43.91781" lon="7.33833">
        <ele>947.40002441406</ele>
        <time>2019-04-20T13:56:30.000Z</time>
      </trkpt>
      <trkpt lat="43.91777" lon="7.33832">
        <ele>946.79998779297</ele>
        <time>2019-04-20T13:56:31.000Z</time>
      </trkpt>
      <trkpt lat="43.9176" lon="7.33838">
        <ele>947.79998779297</ele>
        <time>2019-04-20T13:56:36.000Z</time>
      </trkpt>
      <trkpt lat="43.9175" lon="7.33848">
        <ele>947.59997558594</ele>
        <time>2019-04-20T13:56:39.000Z</time>
      </trkpt>
      <trkpt lat="43.91741" lon="7.33849">
        <ele>947.59997558594</ele>
        <time>2019-04-20T13:56:41.000Z</time>
      </trkpt>
      <trkpt lat="43.91732" lon="7.33852">
        <ele>947.20001220703</ele>
        <time>2019-04-20T13:56:43.000Z</time>
      </trkpt>
      <trkpt lat="43.91715" lon="7.33856">
        <ele>947</ele>
        <time>2019-04-20T13:56:46.000Z</time>
      </trkpt>
      <trkpt lat="43.91712" lon="7.33858">
        <ele>946.59997558594</ele>
        <time>2019-04-20T13:56:47.000Z</time>
      </trkpt>
      <trkpt lat="43.91709" lon="7.3386">
        <ele>946.20001220703</ele>
        <time>2019-04-20T13:56:48.000Z</time>
      </trkpt>
      <trkpt lat="43.91706" lon="7.33862">
        <ele>945.59997558594</ele>
        <time>2019-04-20T13:56:49.000Z</time>
      </trkpt>
      <trkpt lat="43.91698" lon="7.33868">
        <ele>946.40002441406</ele>
        <time>2019-04-20T13:56:54.000Z</time>
      </trkpt>
      <trkpt lat="43.91699" lon="7.33869">
        <ele>947.20001220703</ele>
        <time>2019-04-20T13:56:58.000Z</time>
      </trkpt>
      <trkpt lat="43.917" lon="7.33869">
        <ele>947.20001220703</ele>
        <time>2019-04-20T13:57:00.000Z</time>
      </trkpt>
      <trkpt lat="43.917" lon="7.33869">
        <ele>947.20001220703</ele>
        <time>2019-04-20T13:57:02.000Z</time>
      </trkpt>
      <trkpt lat="43.917" lon="7.33867">
        <ele>947.20001220703</ele>
        <time>2019-04-20T13:57:08.000Z</time>
      </trkpt>
      <trkpt lat="43.91697" lon="7.33868">
        <ele>948</ele>
        <time>2019-04-20T13:57:16.000Z</time>
      </trkpt>
      <trkpt lat="43.91701" lon="7.3387">
        <ele>947.79998779297</ele>
        <time>2019-04-20T13:57:25.000Z</time>
      </trkpt>
      <trkpt lat="43.91709" lon="7.3387">
        <ele>947.59997558594</ele>
        <time>2019-04-20T13:57:35.000Z</time>
      </trkpt>
      <trkpt lat="43.9171" lon="7.33867">
        <ele>947.79998779297</ele>
        <time>2019-04-20T13:57:42.000Z</time>
      </trkpt>
      <trkpt lat="43.91709" lon="7.33866">
        <ele>947.79998779297</ele>
        <time>2019-04-20T13:57:56.000Z</time>
      </trkpt>
      <trkpt lat="43.91709" lon="7.33866">
        <ele>948.40002441406</ele>
        <time>2019-04-20T13:58:07.000Z</time>
      </trkpt>
      <trkpt lat="43.91709" lon="7.33867">
        <ele>948.40002441406</ele>
        <time>2019-04-20T13:58:08.000Z</time>
      </trkpt>
      <trkpt lat="43.9171" lon="7.33869">
        <ele>948</ele>
        <time>2019-04-20T13:58:13.000Z</time>
      </trkpt>
      <trkpt lat="43.91711" lon="7.33867">
        <ele>948.20001220703</ele>
        <time>2019-04-20T13:58:20.000Z</time>
      </trkpt>
      <trkpt lat="43.9171" lon="7.33867">
        <ele>948.20001220703</ele>
        <time>2019-04-20T13:58:21.000Z</time>
      </trkpt>
      <trkpt lat="43.9171" lon="7.33865">
        <ele>948</ele>
        <time>2019-04-20T13:58:30.000Z</time>
      </trkpt>
      <trkpt lat="43.91709" lon="7.33865">
        <ele>948.20001220703</ele>
        <time>2019-04-20T13:58:39.000Z</time>
      </trkpt>
      <trkpt lat="43.91709" lon="7.33863">
        <ele>948</ele>
        <time>2019-04-20T13:58:45.000Z</time>
      </trkpt>
      <trkpt lat="43.91712" lon="7.3386">
        <ele>947.79998779297</ele>
        <time>2019-04-20T13:58:54.000Z</time>
      </trkpt>
      <trkpt lat="43.91713" lon="7.33859">
        <ele>947.59997558594</ele>
        <time>2019-04-20T13:59:02.000Z</time>
      </trkpt>
      <trkpt lat="43.91711" lon="7.33858">
        <ele>948</ele>
        <time>2019-04-20T13:59:08.000Z</time>
      </trkpt>
      <trkpt lat="43.91711" lon="7.33858">
        <ele>948.20001220703</ele>
        <time>2019-04-20T13:59:10.000Z</time>
      </trkpt>
      <trkpt lat="43.91712" lon="7.33856">
        <ele>947.59997558594</ele>
        <time>2019-04-20T13:59:20.000Z</time>
      </trkpt>
      <trkpt lat="43.91711" lon="7.33856">
        <ele>947.40002441406</ele>
        <time>2019-04-20T13:59:27.000Z</time>
      </trkpt>
      <trkpt lat="43.91711" lon="7.33856">
        <ele>947.20001220703</ele>
        <time>2019-04-20T13:59:33.000Z</time>
      </trkpt>
      <trkpt lat="43.91711" lon="7.33856">
        <ele>947.40002441406</ele>
        <time>2019-04-20T13:59:35.000Z</time>
      </trkpt>
      <trkpt lat="43.91711" lon="7.33858">
        <ele>947.79998779297</ele>
        <time>2019-04-20T13:59:41.000Z</time>
      </trkpt>
      <trkpt lat="43.91708" lon="7.33858">
        <ele>947.59997558594</ele>
        <time>2019-04-20T13:59:54.000Z</time>
      </trkpt>
      <trkpt lat="43.9171" lon="7.33859">
        <ele>947.59997558594</ele>
        <time>2019-04-20T13:59:56.000Z</time>
      </trkpt>
      <trkpt lat="43.91712" lon="7.33857">
        <ele>947.40002441406</ele>
        <time>2019-04-20T13:59:58.000Z</time>
      </trkpt>
      <trkpt lat="43.91711" lon="7.3386">
        <ele>947.59997558594</ele>
        <time>2019-04-20T14:00:00.000Z</time>
      </trkpt>
      <trkpt lat="43.9171" lon="7.33862">
        <ele>947.79998779297</ele>
        <time>2019-04-20T14:00:02.000Z</time>
      </trkpt>
      <trkpt lat="43.91707" lon="7.33863">
        <ele>948</ele>
        <time>2019-04-20T14:00:04.000Z</time>
      </trkpt>
      <trkpt lat="43.91705" lon="7.33865">
        <ele>948.20001220703</ele>
        <time>2019-04-20T14:00:07.000Z</time>
      </trkpt>
      <trkpt lat="43.91704" lon="7.33869">
        <ele>948.20001220703</ele>
        <time>2019-04-20T14:00:12.000Z</time>
      </trkpt>
      <trkpt lat="43.91701" lon="7.33871">
        <ele>948.40002441406</ele>
        <time>2019-04-20T14:00:14.000Z</time>
      </trkpt>
      <trkpt lat="43.917" lon="7.33873">
        <ele>948.40002441406</ele>
        <time>2019-04-20T14:00:15.000Z</time>
      </trkpt>
      <trkpt lat="43.91696" lon="7.33877">
        <ele>948.59997558594</ele>
        <time>2019-04-20T14:00:17.000Z</time>
      </trkpt>
      <trkpt lat="43.91688" lon="7.33886">
        <ele>949.40002441406</ele>
        <time>2019-04-20T14:00:21.000Z</time>
      </trkpt>
      <trkpt lat="43.91687" lon="7.33888">
        <ele>949.59997558594</ele>
        <time>2019-04-20T14:00:22.000Z</time>
      </trkpt>
      <trkpt lat="43.9168" lon="7.33897">
        <ele>950.59997558594</ele>
        <time>2019-04-20T14:00:26.000Z</time>
      </trkpt>
      <trkpt lat="43.91677" lon="7.33901">
        <ele>951</ele>
        <time>2019-04-20T14:00:28.000Z</time>
      </trkpt>
      <trkpt lat="43.91672" lon="7.33907">
        <ele>951.59997558594</ele>
        <time>2019-04-20T14:00:31.000Z</time>
      </trkpt>
      <trkpt lat="43.91672" lon="7.33909">
        <ele>951.79998779297</ele>
        <time>2019-04-20T14:00:32.000Z</time>
      </trkpt>
      <trkpt lat="43.91672" lon="7.33909">
        <ele>952.20001220703</ele>
        <time>2019-04-20T14:00:33.000Z</time>
      </trkpt>
      <trkpt lat="43.91675" lon="7.33909">
        <ele>952.59997558594</ele>
        <time>2019-04-20T14:00:40.000Z</time>
      </trkpt>
      <trkpt lat="43.91676" lon="7.33913">
        <ele>952.79998779297</ele>
        <time>2019-04-20T14:00:47.000Z</time>
      </trkpt>
      <trkpt lat="43.91673" lon="7.33916">
        <ele>952.79998779297</ele>
        <time>2019-04-20T14:00:49.000Z</time>
      </trkpt>
      <trkpt lat="43.91662" lon="7.33927">
        <ele>953.79998779297</ele>
        <time>2019-04-20T14:00:55.000Z</time>
      </trkpt>
      <trkpt lat="43.9166" lon="7.33928">
        <ele>954.20001220703</ele>
        <time>2019-04-20T14:00:56.000Z</time>
      </trkpt>
      <trkpt lat="43.91652" lon="7.33934">
        <ele>954.79998779297</ele>
        <time>2019-04-20T14:01:01.000Z</time>
      </trkpt>
      <trkpt lat="43.91649" lon="7.33936">
        <ele>955</ele>
        <time>2019-04-20T14:01:03.000Z</time>
      </trkpt>
      <trkpt lat="43.91643" lon="7.33939">
        <ele>955.59997558594</ele>
        <time>2019-04-20T14:01:06.000Z</time>
      </trkpt>
      <trkpt lat="43.91639" lon="7.33939">
        <ele>956</ele>
        <time>2019-04-20T14:01:08.000Z</time>
      </trkpt>
      <trkpt lat="43.91629" lon="7.33936">
        <ele>957</ele>
        <time>2019-04-20T14:01:13.000Z</time>
      </trkpt>
      <trkpt lat="43.91628" lon="7.33936">
        <ele>957.20001220703</ele>
        <time>2019-04-20T14:01:14.000Z</time>
      </trkpt>
      <trkpt lat="43.91621" lon="7.33937">
        <ele>958.20001220703</ele>
        <time>2019-04-20T14:01:18.000Z</time>
      </trkpt>
      <trkpt lat="43.91618" lon="7.33939">
        <ele>958.79998779297</ele>
        <time>2019-04-20T14:01:20.000Z</time>
      </trkpt>
      <trkpt lat="43.91612" lon="7.33944">
        <ele>959.40002441406</ele>
        <time>2019-04-20T14:01:23.000Z</time>
      </trkpt>
      <trkpt lat="43.91606" lon="7.33951">
        <ele>960</ele>
        <time>2019-04-20T14:01:26.000Z</time>
      </trkpt>
      <trkpt lat="43.91602" lon="7.33956">
        <ele>960.40002441406</ele>
        <time>2019-04-20T14:01:29.000Z</time>
      </trkpt>
      <trkpt lat="43.91599" lon="7.33961">
        <ele>960.79998779297</ele>
        <time>2019-04-20T14:01:31.000Z</time>
      </trkpt>
      <trkpt lat="43.91584" lon="7.33968">
        <ele>961.40002441406</ele>
        <time>2019-04-20T14:01:35.000Z</time>
      </trkpt>
      <trkpt lat="43.91583" lon="7.33972">
        <ele>961.59997558594</ele>
        <time>2019-04-20T14:01:36.000Z</time>
      </trkpt>
      <trkpt lat="43.91579" lon="7.33977">
        <ele>961.79998779297</ele>
        <time>2019-04-20T14:01:38.000Z</time>
      </trkpt>
      <trkpt lat="43.91569" lon="7.33979">
        <ele>962.20001220703</ele>
        <time>2019-04-20T14:01:41.000Z</time>
      </trkpt>
      <trkpt lat="43.91567" lon="7.33978">
        <ele>962.40002441406</ele>
        <time>2019-04-20T14:01:42.000Z</time>
      </trkpt>
      <trkpt lat="43.91552" lon="7.33959">
        <ele>961.59997558594</ele>
        <time>2019-04-20T14:01:48.000Z</time>
      </trkpt>
      <trkpt lat="43.9157" lon="7.33841">
        <ele>967.40002441406</ele>
        <time>2019-04-20T14:02:23.000Z</time>
      </trkpt>
      <trkpt lat="43.91571" lon="7.33838">
        <ele>967.40002441406</ele>
        <time>2019-04-20T14:02:24.000Z</time>
      </trkpt>
      <trkpt lat="43.91576" lon="7.33826">
        <ele>968.20001220703</ele>
        <time>2019-04-20T14:02:28.000Z</time>
      </trkpt>
      <trkpt lat="43.91578" lon="7.3382">
        <ele>968.59997558594</ele>
        <time>2019-04-20T14:02:30.000Z</time>
      </trkpt>
      <trkpt lat="43.91569" lon="7.33807">
        <ele>969.20001220703</ele>
        <time>2019-04-20T14:02:33.000Z</time>
      </trkpt>
      <trkpt lat="43.91565" lon="7.33795">
        <ele>969.79998779297</ele>
        <time>2019-04-20T14:02:36.000Z</time>
      </trkpt>
      <trkpt lat="43.91558" lon="7.33785">
        <ele>970.40002441406</ele>
        <time>2019-04-20T14:02:39.000Z</time>
      </trkpt>
      <trkpt lat="43.91555" lon="7.33783">
        <ele>970.59997558594</ele>
        <time>2019-04-20T14:02:40.000Z</time>
      </trkpt>
      <trkpt lat="43.91552" lon="7.3378">
        <ele>970.79998779297</ele>
        <time>2019-04-20T14:02:41.000Z</time>
      </trkpt>
      <trkpt lat="43.91547" lon="7.33772">
        <ele>971.40002441406</ele>
        <time>2019-04-20T14:02:44.000Z</time>
      </trkpt>
      <trkpt lat="43.91539" lon="7.33763">
        <ele>972.40002441406</ele>
        <time>2019-04-20T14:02:48.000Z</time>
      </trkpt>
      <trkpt lat="43.91537" lon="7.33761">
        <ele>972.79998779297</ele>
        <time>2019-04-20T14:02:49.000Z</time>
      </trkpt>
      <trkpt lat="43.9153" lon="7.33747">
        <ele>973.59997558594</ele>
        <time>2019-04-20T14:02:54.000Z</time>
      </trkpt>
      <trkpt lat="43.91528" lon="7.33741">
        <ele>973.79998779297</ele>
        <time>2019-04-20T14:02:56.000Z</time>
      </trkpt>
      <trkpt lat="43.91525" lon="7.33732">
        <ele>974.59997558594</ele>
        <time>2019-04-20T14:02:59.000Z</time>
      </trkpt>
      <trkpt lat="43.91521" lon="7.33721">
        <ele>975.59997558594</ele>
        <time>2019-04-20T14:03:03.000Z</time>
      </trkpt>
      <trkpt lat="43.9152" lon="7.33719">
        <ele>975.79998779297</ele>
        <time>2019-04-20T14:03:04.000Z</time>
      </trkpt>
      <trkpt lat="43.91516" lon="7.33714">
        <ele>976.40002441406</ele>
        <time>2019-04-20T14:03:06.000Z</time>
      </trkpt>
      <trkpt lat="43.91512" lon="7.33711">
        <ele>976.79998779297</ele>
        <time>2019-04-20T14:03:08.000Z</time>
      </trkpt>
      <trkpt lat="43.9151" lon="7.33709">
        <ele>977</ele>
        <time>2019-04-20T14:03:09.000Z</time>
      </trkpt>
      <trkpt lat="43.91501" lon="7.33702">
        <ele>977.79998779297</ele>
        <time>2019-04-20T14:03:13.000Z</time>
      </trkpt>
      <trkpt lat="43.91498" lon="7.33698">
        <ele>978.20001220703</ele>
        <time>2019-04-20T14:03:15.000Z</time>
      </trkpt>
      <trkpt lat="43.91496" lon="7.33693">
        <ele>978.59997558594</ele>
        <time>2019-04-20T14:03:17.000Z</time>
      </trkpt>
      <trkpt lat="43.91496" lon="7.33691">
        <ele>978.79998779297</ele>
        <time>2019-04-20T14:03:18.000Z</time>
      </trkpt>
      <trkpt lat="43.91495" lon="7.33686">
        <ele>979.20001220703</ele>
        <time>2019-04-20T14:03:20.000Z</time>
      </trkpt>
      <trkpt lat="43.91491" lon="7.33682">
        <ele>979.79998779297</ele>
        <time>2019-04-20T14:03:22.000Z</time>
      </trkpt>
      <trkpt lat="43.91489" lon="7.33679">
        <ele>980</ele>
        <time>2019-04-20T14:03:23.000Z</time>
      </trkpt>
      <trkpt lat="43.91486" lon="7.33677">
        <ele>980.20001220703</ele>
        <time>2019-04-20T14:03:24.000Z</time>
      </trkpt>
      <trkpt lat="43.9148" lon="7.33669">
        <ele>981</ele>
        <time>2019-04-20T14:03:28.000Z</time>
      </trkpt>
      <trkpt lat="43.91477" lon="7.33666">
        <ele>981.20001220703</ele>
        <time>2019-04-20T14:03:29.000Z</time>
      </trkpt>
      <trkpt lat="43.91472" lon="7.3366">
        <ele>981.79998779297</ele>
        <time>2019-04-20T14:03:32.000Z</time>
      </trkpt>
      <trkpt lat="43.91468" lon="7.33654">
        <ele>982.20001220703</ele>
        <time>2019-04-20T14:03:34.000Z</time>
      </trkpt>
      <trkpt lat="43.91463" lon="7.33647">
        <ele>982.79998779297</ele>
        <time>2019-04-20T14:03:37.000Z</time>
      </trkpt>
      <trkpt lat="43.91461" lon="7.33642">
        <ele>983.20001220703</ele>
        <time>2019-04-20T14:03:39.000Z</time>
      </trkpt>
      <trkpt lat="43.91459" lon="7.3364">
        <ele>983.59997558594</ele>
        <time>2019-04-20T14:03:40.000Z</time>
      </trkpt>
      <trkpt lat="43.91457" lon="7.33634">
        <ele>984</ele>
        <time>2019-04-20T14:03:42.000Z</time>
      </trkpt>
      <trkpt lat="43.91456" lon="7.33627">
        <ele>984.59997558594</ele>
        <time>2019-04-20T14:03:45.000Z</time>
      </trkpt>
      <trkpt lat="43.91453" lon="7.33621">
        <ele>985</ele>
        <time>2019-04-20T14:03:47.000Z</time>
      </trkpt>
      <trkpt lat="43.91452" lon="7.33616">
        <ele>985.40002441406</ele>
        <time>2019-04-20T14:03:49.000Z</time>
      </trkpt>
      <trkpt lat="43.91452" lon="7.33614">
        <ele>985.79998779297</ele>
        <time>2019-04-20T14:03:50.000Z</time>
      </trkpt>
      <trkpt lat="43.91451" lon="7.33611">
        <ele>986</ele>
        <time>2019-04-20T14:03:51.000Z</time>
      </trkpt>
      <trkpt lat="43.91446" lon="7.33602">
        <ele>986.79998779297</ele>
        <time>2019-04-20T14:03:55.000Z</time>
      </trkpt>
      <trkpt lat="43.91445" lon="7.33599">
        <ele>987</ele>
        <time>2019-04-20T14:03:56.000Z</time>
      </trkpt>
      <trkpt lat="43.9144" lon="7.33589">
        <ele>987.79998779297</ele>
        <time>2019-04-20T14:04:00.000Z</time>
      </trkpt>
      <trkpt lat="43.91439" lon="7.33586">
        <ele>988</ele>
        <time>2019-04-20T14:04:01.000Z</time>
      </trkpt>
      <trkpt lat="43.91438" lon="7.33584">
        <ele>988.20001220703</ele>
        <time>2019-04-20T14:04:02.000Z</time>
      </trkpt>
      <trkpt lat="43.91432" lon="7.33573">
        <ele>989</ele>
        <time>2019-04-20T14:04:06.000Z</time>
      </trkpt>
      <trkpt lat="43.91429" lon="7.33567">
        <ele>989.40002441406</ele>
        <time>2019-04-20T14:04:08.000Z</time>
      </trkpt>
      <trkpt lat="43.91422" lon="7.33554">
        <ele>990.20001220703</ele>
        <time>2019-04-20T14:04:13.000Z</time>
      </trkpt>
      <trkpt lat="43.9142" lon="7.33549">
        <ele>990.59997558594</ele>
        <time>2019-04-20T14:04:15.000Z</time>
      </trkpt>
      <trkpt lat="43.91416" lon="7.33542">
        <ele>991.20001220703</ele>
        <time>2019-04-20T14:04:18.000Z</time>
      </trkpt>
      <trkpt lat="43.91413" lon="7.33536">
        <ele>991.79998779297</ele>
        <time>2019-04-20T14:04:21.000Z</time>
      </trkpt>
      <trkpt lat="43.9141" lon="7.33531">
        <ele>992.20001220703</ele>
        <time>2019-04-20T14:04:23.000Z</time>
      </trkpt>
      <trkpt lat="43.91404" lon="7.33523">
        <ele>993</ele>
        <time>2019-04-20T14:04:27.000Z</time>
      </trkpt>
      <trkpt lat="43.91402" lon="7.33522">
        <ele>993.40002441406</ele>
        <time>2019-04-20T14:04:28.000Z</time>
      </trkpt>
      <trkpt lat="43.91399" lon="7.33518">
        <ele>993.79998779297</ele>
        <time>2019-04-20T14:04:30.000Z</time>
      </trkpt>
      <trkpt lat="43.91398" lon="7.33515">
        <ele>994</ele>
        <time>2019-04-20T14:04:31.000Z</time>
      </trkpt>
      <trkpt lat="43.91395" lon="7.33511">
        <ele>994.40002441406</ele>
        <time>2019-04-20T14:04:33.000Z</time>
      </trkpt>
      <trkpt lat="43.9139" lon="7.33503">
        <ele>995.40002441406</ele>
        <time>2019-04-20T14:04:37.000Z</time>
      </trkpt>
      <trkpt lat="43.91388" lon="7.33501">
        <ele>995.79998779297</ele>
        <time>2019-04-20T14:04:38.000Z</time>
      </trkpt>
      <trkpt lat="43.91382" lon="7.33493">
        <ele>996.59997558594</ele>
        <time>2019-04-20T14:04:42.000Z</time>
      </trkpt>
      <trkpt lat="43.91374" lon="7.33489">
        <ele>997</ele>
        <time>2019-04-20T14:04:45.000Z</time>
      </trkpt>
      <trkpt lat="43.9136" lon="7.33489">
        <ele>997.40002441406</ele>
        <time>2019-04-20T14:04:49.000Z</time>
      </trkpt>
      <trkpt lat="43.91359" lon="7.33492">
        <ele>997.40002441406</ele>
        <time>2019-04-20T14:04:50.000Z</time>
      </trkpt>
      <trkpt lat="43.91357" lon="7.33494">
        <ele>997.59997558594</ele>
        <time>2019-04-20T14:04:51.000Z</time>
      </trkpt>
      <trkpt lat="43.91356" lon="7.33499">
        <ele>998</ele>
        <time>2019-04-20T14:04:53.000Z</time>
      </trkpt>
      <trkpt lat="43.91361" lon="7.33509">
        <ele>998.79998779297</ele>
        <time>2019-04-20T14:04:57.000Z</time>
      </trkpt>
      <trkpt lat="43.91363" lon="7.33511">
        <ele>999</ele>
        <time>2019-04-20T14:04:58.000Z</time>
      </trkpt>
      <trkpt lat="43.91377" lon="7.33525">
        <ele>999.59997558594</ele>
        <time>2019-04-20T14:05:04.000Z</time>
      </trkpt>
      <trkpt lat="43.91388" lon="7.33541">
        <ele>999.79998779297</ele>
        <time>2019-04-20T14:05:09.000Z</time>
      </trkpt>
      <trkpt lat="43.9139" lon="7.33544">
        <ele>1000</ele>
        <time>2019-04-20T14:05:10.000Z</time>
      </trkpt>
      <trkpt lat="43.91399" lon="7.33557">
        <ele>1000.5999755859</ele>
        <time>2019-04-20T14:05:14.000Z</time>
      </trkpt>
      <trkpt lat="43.91402" lon="7.33564">
        <ele>1001</ele>
        <time>2019-04-20T14:05:16.000Z</time>
      </trkpt>
      <trkpt lat="43.91405" lon="7.33583">
        <ele>1001.4000244141</ele>
        <time>2019-04-20T14:05:20.000Z</time>
      </trkpt>
      <trkpt lat="43.91398" lon="7.33587">
        <ele>1001.5999755859</ele>
        <time>2019-04-20T14:05:22.000Z</time>
      </trkpt>
      <trkpt lat="43.91396" lon="7.33585">
        <ele>1001.799987793</ele>
        <time>2019-04-20T14:05:23.000Z</time>
      </trkpt>
      <trkpt lat="43.91393" lon="7.33578">
        <ele>1002.200012207</ele>
        <time>2019-04-20T14:05:25.000Z</time>
      </trkpt>
      <trkpt lat="43.91391" lon="7.3357">
        <ele>1003</ele>
        <time>2019-04-20T14:05:27.000Z</time>
      </trkpt>
      <trkpt lat="43.91389" lon="7.33567">
        <ele>1003.4000244141</ele>
        <time>2019-04-20T14:05:28.000Z</time>
      </trkpt>
      <trkpt lat="43.91381" lon="7.33553">
        <ele>1004.200012207</ele>
        <time>2019-04-20T14:05:33.000Z</time>
      </trkpt>
      <trkpt lat="43.91377" lon="7.33548">
        <ele>1004.5999755859</ele>
        <time>2019-04-20T14:05:35.000Z</time>
      </trkpt>
      <trkpt lat="43.91371" lon="7.33538">
        <ele>1005.4000244141</ele>
        <time>2019-04-20T14:05:39.000Z</time>
      </trkpt>
      <trkpt lat="43.91369" lon="7.33536">
        <ele>1005.5999755859</ele>
        <time>2019-04-20T14:05:40.000Z</time>
      </trkpt>
      <trkpt lat="43.91358" lon="7.33529">
        <ele>1006.799987793</ele>
        <time>2019-04-20T14:05:45.000Z</time>
      </trkpt>
      <trkpt lat="43.91346" lon="7.33524">
        <ele>1007.799987793</ele>
        <time>2019-04-20T14:05:50.000Z</time>
      </trkpt>
      <trkpt lat="43.91338" lon="7.33517">
        <ele>1008.5999755859</ele>
        <time>2019-04-20T14:05:54.000Z</time>
      </trkpt>
      <trkpt lat="43.91335" lon="7.33513">
        <ele>1009</ele>
        <time>2019-04-20T14:05:56.000Z</time>
      </trkpt>
      <trkpt lat="43.91331" lon="7.33506">
        <ele>1009.5999755859</ele>
        <time>2019-04-20T14:05:59.000Z</time>
      </trkpt>
      <trkpt lat="43.9133" lon="7.33503">
        <ele>1010</ele>
        <time>2019-04-20T14:06:00.000Z</time>
      </trkpt>
      <trkpt lat="43.91327" lon="7.33494">
        <ele>1011</ele>
        <time>2019-04-20T14:06:04.000Z</time>
      </trkpt>
      <trkpt lat="43.91324" lon="7.33491">
        <ele>1011.4000244141</ele>
        <time>2019-04-20T14:06:06.000Z</time>
      </trkpt>
      <trkpt lat="43.91316" lon="7.33488">
        <ele>1012.200012207</ele>
        <time>2019-04-20T14:06:09.000Z</time>
      </trkpt>
      <trkpt lat="43.9131" lon="7.33487">
        <ele>1013</ele>
        <time>2019-04-20T14:06:12.000Z</time>
      </trkpt>
      <trkpt lat="43.91309" lon="7.33487">
        <ele>1013.200012207</ele>
        <time>2019-04-20T14:06:13.000Z</time>
      </trkpt>
      <trkpt lat="43.91302" lon="7.33489">
        <ele>1014.200012207</ele>
        <time>2019-04-20T14:06:17.000Z</time>
      </trkpt>
      <trkpt lat="43.91292" lon="7.33491">
        <ele>1015.4000244141</ele>
        <time>2019-04-20T14:06:23.000Z</time>
      </trkpt>
      <trkpt lat="43.9129" lon="7.33491">
        <ele>1015.4000244141</ele>
        <time>2019-04-20T14:06:24.000Z</time>
      </trkpt>
      <trkpt lat="43.91275" lon="7.33487">
        <ele>1016.4000244141</ele>
        <time>2019-04-20T14:06:29.000Z</time>
      </trkpt>
      <trkpt lat="43.91274" lon="7.33486">
        <ele>1016.4000244141</ele>
        <time>2019-04-20T14:06:30.000Z</time>
      </trkpt>
      <trkpt lat="43.9127" lon="7.33479">
        <ele>1017</ele>
        <time>2019-04-20T14:06:33.000Z</time>
      </trkpt>
      <trkpt lat="43.91268" lon="7.3347">
        <ele>1017.5999755859</ele>
        <time>2019-04-20T14:06:36.000Z</time>
      </trkpt>
      <trkpt lat="43.91268" lon="7.33464">
        <ele>1018</ele>
        <time>2019-04-20T14:06:38.000Z</time>
      </trkpt>
      <trkpt lat="43.91271" lon="7.33454">
        <ele>1018.799987793</ele>
        <time>2019-04-20T14:06:42.000Z</time>
      </trkpt>
      <trkpt lat="43.91273" lon="7.33441">
        <ele>1019.799987793</ele>
        <time>2019-04-20T14:06:47.000Z</time>
      </trkpt>
      <trkpt lat="43.91274" lon="7.33439">
        <ele>1020</ele>
        <time>2019-04-20T14:06:48.000Z</time>
      </trkpt>
      <trkpt lat="43.91279" lon="7.33425">
        <ele>1021</ele>
        <time>2019-04-20T14:06:54.000Z</time>
      </trkpt>
      <trkpt lat="43.91278" lon="7.33423">
        <ele>1021.200012207</ele>
        <time>2019-04-20T14:06:55.000Z</time>
      </trkpt>
      <trkpt lat="43.91279" lon="7.33414">
        <ele>1022.200012207</ele>
        <time>2019-04-20T14:06:59.000Z</time>
      </trkpt>
      <trkpt lat="43.91276" lon="7.33404">
        <ele>1023</ele>
        <time>2019-04-20T14:07:03.000Z</time>
      </trkpt>
      <trkpt lat="43.91275" lon="7.33403">
        <ele>1023</ele>
        <time>2019-04-20T14:07:04.000Z</time>
      </trkpt>
      <trkpt lat="43.91272" lon="7.33401">
        <ele>1023.200012207</ele>
        <time>2019-04-20T14:07:05.000Z</time>
      </trkpt>
      <trkpt lat="43.91263" lon="7.33399">
        <ele>1024</ele>
        <time>2019-04-20T14:07:09.000Z</time>
      </trkpt>
      <trkpt lat="43.91261" lon="7.334">
        <ele>1024.4000244141</ele>
        <time>2019-04-20T14:07:10.000Z</time>
      </trkpt>
      <trkpt lat="43.91252" lon="7.33405">
        <ele>1025.4000244141</ele>
        <time>2019-04-20T14:07:14.000Z</time>
      </trkpt>
      <trkpt lat="43.91251" lon="7.33407">
        <ele>1025.5999755859</ele>
        <time>2019-04-20T14:07:15.000Z</time>
      </trkpt>
      <trkpt lat="43.91244" lon="7.33414">
        <ele>1026.4000244141</ele>
        <time>2019-04-20T14:07:19.000Z</time>
      </trkpt>
      <trkpt lat="43.91177" lon="7.33439">
        <ele>1032.1999511719</ele>
        <time>2019-04-20T14:07:53.000Z</time>
      </trkpt>
      <trkpt lat="43.91175" lon="7.33439">
        <ele>1032.4000244141</ele>
        <time>2019-04-20T14:07:54.000Z</time>
      </trkpt>
      <trkpt lat="43.91168" lon="7.33438">
        <ele>1032.8000488281</ele>
        <time>2019-04-20T14:07:56.000Z</time>
      </trkpt>
      <trkpt lat="43.91151" lon="7.33435">
        <ele>1034</ele>
        <time>2019-04-20T14:08:01.000Z</time>
      </trkpt>
      <trkpt lat="43.9114" lon="7.33434">
        <ele>1035.1999511719</ele>
        <time>2019-04-20T14:08:05.000Z</time>
      </trkpt>
      <trkpt lat="43.91134" lon="7.33433">
        <ele>1035.4000244141</ele>
        <time>2019-04-20T14:08:07.000Z</time>
      </trkpt>
      <trkpt lat="43.91121" lon="7.33433">
        <ele>1036.1999511719</ele>
        <time>2019-04-20T14:08:11.000Z</time>
      </trkpt>
      <trkpt lat="43.91117" lon="7.33432">
        <ele>1036.4000244141</ele>
        <time>2019-04-20T14:08:12.000Z</time>
      </trkpt>
      <trkpt lat="43.91107" lon="7.33432">
        <ele>1037.1999511719</ele>
        <time>2019-04-20T14:08:16.000Z</time>
      </trkpt>
      <trkpt lat="43.91095" lon="7.33429">
        <ele>1038.1999511719</ele>
        <time>2019-04-20T14:08:20.000Z</time>
      </trkpt>
      <trkpt lat="43.91093" lon="7.33428">
        <ele>1038.4000244141</ele>
        <time>2019-04-20T14:08:21.000Z</time>
      </trkpt>
      <trkpt lat="43.91083" lon="7.3342">
        <ele>1039.1999511719</ele>
        <time>2019-04-20T14:08:25.000Z</time>
      </trkpt>
      <trkpt lat="43.91081" lon="7.33418">
        <ele>1039.4000244141</ele>
        <time>2019-04-20T14:08:26.000Z</time>
      </trkpt>
      <trkpt lat="43.91078" lon="7.3341">
        <ele>1039.8000488281</ele>
        <time>2019-04-20T14:08:29.000Z</time>
      </trkpt>
      <trkpt lat="43.91077" lon="7.33404">
        <ele>1040</ele>
        <time>2019-04-20T14:08:31.000Z</time>
      </trkpt>
      <trkpt lat="43.91079" lon="7.33399">
        <ele>1040.4000244141</ele>
        <time>2019-04-20T14:08:33.000Z</time>
      </trkpt>
      <trkpt lat="43.91086" lon="7.33386">
        <ele>1041</ele>
        <time>2019-04-20T14:08:38.000Z</time>
      </trkpt>
      <trkpt lat="43.91091" lon="7.33376">
        <ele>1041.4000244141</ele>
        <time>2019-04-20T14:08:43.000Z</time>
      </trkpt>
      <trkpt lat="43.91094" lon="7.33372">
        <ele>1041.5999755859</ele>
        <time>2019-04-20T14:08:45.000Z</time>
      </trkpt>
      <trkpt lat="43.91096" lon="7.33367">
        <ele>1042</ele>
        <time>2019-04-20T14:08:48.000Z</time>
      </trkpt>
      <trkpt lat="43.91095" lon="7.33363">
        <ele>1042.4000244141</ele>
        <time>2019-04-20T14:08:50.000Z</time>
      </trkpt>
      <trkpt lat="43.91095" lon="7.33361">
        <ele>1042.5999755859</ele>
        <time>2019-04-20T14:08:51.000Z</time>
      </trkpt>
      <trkpt lat="43.91097" lon="7.33357">
        <ele>1042.8000488281</ele>
        <time>2019-04-20T14:08:53.000Z</time>
      </trkpt>
      <trkpt lat="43.91098" lon="7.33351">
        <ele>1043.1999511719</ele>
        <time>2019-04-20T14:08:55.000Z</time>
      </trkpt>
      <trkpt lat="43.91096" lon="7.33339">
        <ele>1043.5999755859</ele>
        <time>2019-04-20T14:08:59.000Z</time>
      </trkpt>
      <trkpt lat="43.91094" lon="7.33336">
        <ele>1043.8000488281</ele>
        <time>2019-04-20T14:09:00.000Z</time>
      </trkpt>
      <trkpt lat="43.91094" lon="7.33331">
        <ele>1044</ele>
        <time>2019-04-20T14:09:02.000Z</time>
      </trkpt>
      <trkpt lat="43.91096" lon="7.33325">
        <ele>1044.1999511719</ele>
        <time>2019-04-20T14:09:04.000Z</time>
      </trkpt>
      <trkpt lat="43.91099" lon="7.33314">
        <ele>1044.5999755859</ele>
        <time>2019-04-20T14:09:08.000Z</time>
      </trkpt>
      <trkpt lat="43.91096" lon="7.33301">
        <ele>1045.8000488281</ele>
        <time>2019-04-20T14:09:13.000Z</time>
      </trkpt>
      <trkpt lat="43.91096" lon="7.33298">
        <ele>1045.8000488281</ele>
        <time>2019-04-20T14:09:14.000Z</time>
      </trkpt>
      <trkpt lat="43.91086" lon="7.33287">
        <ele>1046.5999755859</ele>
        <time>2019-04-20T14:09:19.000Z</time>
      </trkpt>
      <trkpt lat="43.91083" lon="7.33285">
        <ele>1046.5999755859</ele>
        <time>2019-04-20T14:09:20.000Z</time>
      </trkpt>
      <trkpt lat="43.91081" lon="7.33284">
        <ele>1046.8000488281</ele>
        <time>2019-04-20T14:09:21.000Z</time>
      </trkpt>
      <trkpt lat="43.91076" lon="7.33282">
        <ele>1047.1999511719</ele>
        <time>2019-04-20T14:09:23.000Z</time>
      </trkpt>
      <trkpt lat="43.91068" lon="7.33281">
        <ele>1048</ele>
        <time>2019-04-20T14:09:26.000Z</time>
      </trkpt>
      <trkpt lat="43.91067" lon="7.33281">
        <ele>1048.1999511719</ele>
        <time>2019-04-20T14:09:27.000Z</time>
      </trkpt>
      <trkpt lat="43.91059" lon="7.3328">
        <ele>1049</ele>
        <time>2019-04-20T14:09:31.000Z</time>
      </trkpt>
      <trkpt lat="43.91056" lon="7.33279">
        <ele>1049.1999511719</ele>
        <time>2019-04-20T14:09:32.000Z</time>
      </trkpt>
      <trkpt lat="43.91047" lon="7.33278">
        <ele>1050.1999511719</ele>
        <time>2019-04-20T14:09:37.000Z</time>
      </trkpt>
      <trkpt lat="43.91039" lon="7.33277">
        <ele>1051.1999511719</ele>
        <time>2019-04-20T14:09:42.000Z</time>
      </trkpt>
      <trkpt lat="43.91035" lon="7.33279">
        <ele>1051.5999755859</ele>
        <time>2019-04-20T14:09:44.000Z</time>
      </trkpt>
      <trkpt lat="43.9103" lon="7.3328">
        <ele>1052.4000244141</ele>
        <time>2019-04-20T14:09:47.000Z</time>
      </trkpt>
      <trkpt lat="43.91028" lon="7.33281">
        <ele>1052.5999755859</ele>
        <time>2019-04-20T14:09:48.000Z</time>
      </trkpt>
      <trkpt lat="43.91024" lon="7.33285">
        <ele>1053.4000244141</ele>
        <time>2019-04-20T14:09:51.000Z</time>
      </trkpt>
      <trkpt lat="43.91021" lon="7.33287">
        <ele>1053.8000488281</ele>
        <time>2019-04-20T14:09:53.000Z</time>
      </trkpt>
      <trkpt lat="43.91017" lon="7.3329">
        <ele>1054.1999511719</ele>
        <time>2019-04-20T14:09:55.000Z</time>
      </trkpt>
      <trkpt lat="43.91015" lon="7.33291">
        <ele>1054.1999511719</ele>
        <time>2019-04-20T14:09:56.000Z</time>
      </trkpt>
      <trkpt lat="43.91012" lon="7.33294">
        <ele>1054.5999755859</ele>
        <time>2019-04-20T14:09:58.000Z</time>
      </trkpt>
      <trkpt lat="43.91008" lon="7.33298">
        <ele>1055.1999511719</ele>
        <time>2019-04-20T14:10:02.000Z</time>
      </trkpt>
      <trkpt lat="43.91006" lon="7.33299">
        <ele>1055.5999755859</ele>
        <time>2019-04-20T14:10:03.000Z</time>
      </trkpt>
      <trkpt lat="43.91006" lon="7.33301">
        <ele>1055.5999755859</ele>
        <time>2019-04-20T14:10:04.000Z</time>
      </trkpt>
      <trkpt lat="43.90999" lon="7.33307">
        <ele>1056.5999755859</ele>
        <time>2019-04-20T14:10:08.000Z</time>
      </trkpt>
      <trkpt lat="43.90998" lon="7.3331">
        <ele>1056.5999755859</ele>
        <time>2019-04-20T14:10:09.000Z</time>
      </trkpt>
      <trkpt lat="43.90996" lon="7.33328">
        <ele>1057.8000488281</ele>
        <time>2019-04-20T14:10:16.000Z</time>
      </trkpt>
      <trkpt lat="43.90993" lon="7.33343">
        <ele>1058.5999755859</ele>
        <time>2019-04-20T14:10:21.000Z</time>
      </trkpt>
      <trkpt lat="43.90992" lon="7.33351">
        <ele>1058.8000488281</ele>
        <time>2019-04-20T14:10:24.000Z</time>
      </trkpt>
      <trkpt lat="43.90987" lon="7.33362">
        <ele>1059.1999511719</ele>
        <time>2019-04-20T14:10:28.000Z</time>
      </trkpt>
      <trkpt lat="43.90981" lon="7.33368">
        <ele>1059.8000488281</ele>
        <time>2019-04-20T14:10:32.000Z</time>
      </trkpt>
      <trkpt lat="43.90979" lon="7.33369">
        <ele>1060</ele>
        <time>2019-04-20T14:10:33.000Z</time>
      </trkpt>
      <trkpt lat="43.90968" lon="7.3337">
        <ele>1061</ele>
        <time>2019-04-20T14:10:38.000Z</time>
      </trkpt>
      <trkpt lat="43.90966" lon="7.33371">
        <ele>1061.1999511719</ele>
        <time>2019-04-20T14:10:39.000Z</time>
      </trkpt>
      <trkpt lat="43.90955" lon="7.3337">
        <ele>1062</ele>
        <time>2019-04-20T14:10:43.000Z</time>
      </trkpt>
      <trkpt lat="43.90949" lon="7.3337">
        <ele>1062.4000244141</ele>
        <time>2019-04-20T14:10:45.000Z</time>
      </trkpt>
      <trkpt lat="43.90938" lon="7.3337">
        <ele>1063.1999511719</ele>
        <time>2019-04-20T14:10:49.000Z</time>
      </trkpt>
      <trkpt lat="43.90917" lon="7.33372">
        <ele>1064.4000244141</ele>
        <time>2019-04-20T14:10:56.000Z</time>
      </trkpt>
      <trkpt lat="43.90908" lon="7.33371">
        <ele>1065.1999511719</ele>
        <time>2019-04-20T14:11:00.000Z</time>
      </trkpt>
      <trkpt lat="43.90905" lon="7.3337">
        <ele>1065.8000488281</ele>
        <time>2019-04-20T14:11:02.000Z</time>
      </trkpt>
      <trkpt lat="43.90899" lon="7.3337">
        <ele>1066.4000244141</ele>
        <time>2019-04-20T14:11:05.000Z</time>
      </trkpt>
      <trkpt lat="43.90891" lon="7.33373">
        <ele>1067.4000244141</ele>
        <time>2019-04-20T14:11:09.000Z</time>
      </trkpt>
      <trkpt lat="43.90886" lon="7.33376">
        <ele>1068</ele>
        <time>2019-04-20T14:11:11.000Z</time>
      </trkpt>
      <trkpt lat="43.90879" lon="7.33382">
        <ele>1068.4000244141</ele>
        <time>2019-04-20T14:11:14.000Z</time>
      </trkpt>
      <trkpt lat="43.90814" lon="7.33358">
        <ele>1076.1999511719</ele>
        <time>2019-04-20T14:11:54.000Z</time>
      </trkpt>
      <trkpt lat="43.90813" lon="7.33356">
        <ele>1076.5999755859</ele>
        <time>2019-04-20T14:11:55.000Z</time>
      </trkpt>
      <trkpt lat="43.90807" lon="7.33349">
        <ele>1077.1999511719</ele>
        <time>2019-04-20T14:11:58.000Z</time>
      </trkpt>
      <trkpt lat="43.90793" lon="7.3334">
        <ele>1077.8000488281</ele>
        <time>2019-04-20T14:12:03.000Z</time>
      </trkpt>
      <trkpt lat="43.90776" lon="7.33329">
        <ele>1078.1999511719</ele>
        <time>2019-04-20T14:12:08.000Z</time>
      </trkpt>
      <trkpt lat="43.90762" lon="7.33332">
        <ele>1078.1999511719</ele>
        <time>2019-04-20T14:12:12.000Z</time>
      </trkpt>
      <trkpt lat="43.90759" lon="7.33335">
        <ele>1078.4000244141</ele>
        <time>2019-04-20T14:12:13.000Z</time>
      </trkpt>
      <trkpt lat="43.90748" lon="7.3334">
        <ele>1078.4000244141</ele>
        <time>2019-04-20T14:12:16.000Z</time>
      </trkpt>
      <trkpt lat="43.90742" lon="7.33331">
        <ele>1078.5999755859</ele>
        <time>2019-04-20T14:12:19.000Z</time>
      </trkpt>
      <trkpt lat="43.90742" lon="7.33328">
        <ele>1078.5999755859</ele>
        <time>2019-04-20T14:12:20.000Z</time>
      </trkpt>
      <trkpt lat="43.90743" lon="7.33319">
        <ele>1079.1999511719</ele>
        <time>2019-04-20T14:12:24.000Z</time>
      </trkpt>
      <trkpt lat="43.90744" lon="7.33317">
        <ele>1079.4000244141</ele>
        <time>2019-04-20T14:12:25.000Z</time>
      </trkpt>
      <trkpt lat="43.90744" lon="7.33301">
        <ele>1080.5999755859</ele>
        <time>2019-04-20T14:12:31.000Z</time>
      </trkpt>
      <trkpt lat="43.90743" lon="7.33299">
        <ele>1080.5999755859</ele>
        <time>2019-04-20T14:12:32.000Z</time>
      </trkpt>
      <trkpt lat="43.90744" lon="7.33291">
        <ele>1081.8000488281</ele>
        <time>2019-04-20T14:12:36.000Z</time>
      </trkpt>
      <trkpt lat="43.90744" lon="7.33288">
        <ele>1082.1999511719</ele>
        <time>2019-04-20T14:12:38.000Z</time>
      </trkpt>
      <trkpt lat="43.90744" lon="7.33289">
        <ele>1082.5999755859</ele>
        <time>2019-04-20T14:12:42.000Z</time>
      </trkpt>
      <trkpt lat="43.90745" lon="7.33288">
        <ele>1082.5999755859</ele>
        <time>2019-04-20T14:12:48.000Z</time>
      </trkpt>
      <trkpt lat="43.90744" lon="7.33287">
        <ele>1082.4000244141</ele>
        <time>2019-04-20T14:12:54.000Z</time>
      </trkpt>
      <trkpt lat="43.90745" lon="7.33287">
        <ele>1082.8000488281</ele>
        <time>2019-04-20T14:12:57.000Z</time>
      </trkpt>
      <trkpt lat="43.90746" lon="7.33285">
        <ele>1082.8000488281</ele>
        <time>2019-04-20T14:13:00.000Z</time>
      </trkpt>
      <trkpt lat="43.90746" lon="7.33286">
        <ele>1083.1999511719</ele>
        <time>2019-04-20T14:13:11.000Z</time>
      </trkpt>
      <trkpt lat="43.90748" lon="7.33288">
        <ele>1083.4000244141</ele>
        <time>2019-04-20T14:13:22.000Z</time>
      </trkpt>
      <trkpt lat="43.90749" lon="7.3329">
        <ele>1083.1999511719</ele>
        <time>2019-04-20T14:13:29.000Z</time>
      </trkpt>
      <trkpt lat="43.9075" lon="7.33292">
        <ele>1083.4000244141</ele>
        <time>2019-04-20T14:13:39.000Z</time>
      </trkpt>
      <trkpt lat="43.90752" lon="7.33293">
        <ele>1083.4000244141</ele>
        <time>2019-04-20T14:13:47.000Z</time>
      </trkpt>
      <trkpt lat="43.90752" lon="7.33293">
        <ele>1082.5999755859</ele>
        <time>2019-04-20T14:13:56.000Z</time>
      </trkpt>
      <trkpt lat="43.90752" lon="7.33294">
        <ele>1083.1999511719</ele>
        <time>2019-04-20T14:14:17.000Z</time>
      </trkpt>
      <trkpt lat="43.90751" lon="7.33293">
        <ele>1083.4000244141</ele>
        <time>2019-04-20T14:14:29.000Z</time>
      </trkpt>
      <trkpt lat="43.90752" lon="7.33292">
        <ele>1083.4000244141</ele>
        <time>2019-04-20T14:14:33.000Z</time>
      </trkpt>
      <trkpt lat="43.90752" lon="7.33292">
        <ele>1083.5999755859</ele>
        <time>2019-04-20T14:14:37.000Z</time>
      </trkpt>
      <trkpt lat="43.90752" lon="7.33292">
        <ele>1083.4000244141</ele>
        <time>2019-04-20T14:14:39.000Z</time>
      </trkpt>
      <trkpt lat="43.90753" lon="7.33294">
        <ele>1083.5999755859</ele>
        <time>2019-04-20T14:14:52.000Z</time>
      </trkpt>
      <trkpt lat="43.90753" lon="7.33294">
        <ele>1083.5999755859</ele>
        <time>2019-04-20T14:14:58.000Z</time>
      </trkpt>
      <trkpt lat="43.90753" lon="7.33294">
        <ele>1083.5999755859</ele>
        <time>2019-04-20T14:15:05.000Z</time>
      </trkpt>
      <trkpt lat="43.90753" lon="7.33295">
        <ele>1083.8000488281</ele>
        <time>2019-04-20T14:15:10.000Z</time>
      </trkpt>
      <trkpt lat="43.90753" lon="7.33295">
        <ele>1083.8000488281</ele>
        <time>2019-04-20T14:15:11.000Z</time>
      </trkpt>
      <trkpt lat="43.90753" lon="7.33294">
        <ele>1083.8000488281</ele>
        <time>2019-04-20T14:15:15.000Z</time>
      </trkpt>
      <trkpt lat="43.90755" lon="7.33295">
        <ele>1083.4000244141</ele>
        <time>2019-04-20T14:15:27.000Z</time>
      </trkpt>
      <trkpt lat="43.90757" lon="7.33297">
        <ele>1083.5999755859</ele>
        <time>2019-04-20T14:15:41.000Z</time>
      </trkpt>
      <trkpt lat="43.90758" lon="7.33302">
        <ele>1083.4000244141</ele>
        <time>2019-04-20T14:15:51.000Z</time>
      </trkpt>
      <trkpt lat="43.90758" lon="7.33304">
        <ele>1083</ele>
        <time>2019-04-20T14:16:07.000Z</time>
      </trkpt>
      <trkpt lat="43.90757" lon="7.33303">
        <ele>1083.4000244141</ele>
        <time>2019-04-20T14:16:12.000Z</time>
      </trkpt>
      <trkpt lat="43.90757" lon="7.33301">
        <ele>1083.4000244141</ele>
        <time>2019-04-20T14:16:18.000Z</time>
      </trkpt>
      <trkpt lat="43.90756" lon="7.33301">
        <ele>1083.4000244141</ele>
        <time>2019-04-20T14:16:26.000Z</time>
      </trkpt>
      <trkpt lat="43.90756" lon="7.33303">
        <ele>1083.8000488281</ele>
        <time>2019-04-20T14:16:31.000Z</time>
      </trkpt>
      <trkpt lat="43.90757" lon="7.33304">
        <ele>1084</ele>
        <time>2019-04-20T14:16:39.000Z</time>
      </trkpt>
      <trkpt lat="43.90756" lon="7.33304">
        <ele>1085</ele>
        <time>2019-04-20T14:16:44.000Z</time>
      </trkpt>
      <trkpt lat="43.90755" lon="7.33303">
        <ele>1085</ele>
        <time>2019-04-20T14:16:46.000Z</time>
      </trkpt>
      <trkpt lat="43.90756" lon="7.33303">
        <ele>1085</ele>
        <time>2019-04-20T14:16:47.000Z</time>
      </trkpt>
      <trkpt lat="43.90754" lon="7.33302">
        <ele>1084.5999755859</ele>
        <time>2019-04-20T14:16:56.000Z</time>
      </trkpt>
      <trkpt lat="43.90754" lon="7.333">
        <ele>1084.1999511719</ele>
        <time>2019-04-20T14:17:03.000Z</time>
      </trkpt>
      <trkpt lat="43.90755" lon="7.333">
        <ele>1084.1999511719</ele>
        <time>2019-04-20T14:17:09.000Z</time>
      </trkpt>
      <trkpt lat="43.90754" lon="7.33299">
        <ele>1084.1999511719</ele>
        <time>2019-04-20T14:17:14.000Z</time>
      </trkpt>
      <trkpt lat="43.90755" lon="7.333">
        <ele>1084</ele>
        <time>2019-04-20T14:17:19.000Z</time>
      </trkpt>
      <trkpt lat="43.90755" lon="7.333">
        <ele>1083.5999755859</ele>
        <time>2019-04-20T14:17:20.000Z</time>
      </trkpt>
      <trkpt lat="43.90755" lon="7.33299">
        <ele>1083.5999755859</ele>
        <time>2019-04-20T14:17:27.000Z</time>
      </trkpt>
      <trkpt lat="43.90755" lon="7.33296">
        <ele>1084.1999511719</ele>
        <time>2019-04-20T14:17:35.000Z</time>
      </trkpt>
      <trkpt lat="43.90755" lon="7.33296">
        <ele>1084.8000488281</ele>
        <time>2019-04-20T14:17:41.000Z</time>
      </trkpt>
      <trkpt lat="43.90753" lon="7.33295">
        <ele>1084.4000244141</ele>
        <time>2019-04-20T14:17:52.000Z</time>
      </trkpt>
      <trkpt lat="43.90751" lon="7.33294">
        <ele>1084.5999755859</ele>
        <time>2019-04-20T14:17:58.000Z</time>
      </trkpt>
      <trkpt lat="43.90749" lon="7.33294">
        <ele>1084.4000244141</ele>
        <time>2019-04-20T14:18:08.000Z</time>
      </trkpt>
      <trkpt lat="43.90748" lon="7.33293">
        <ele>1084.4000244141</ele>
        <time>2019-04-20T14:18:17.000Z</time>
      </trkpt>
      <trkpt lat="43.90747" lon="7.33293">
        <ele>1084.1999511719</ele>
        <time>2019-04-20T14:18:26.000Z</time>
      </trkpt>
      <trkpt lat="43.90746" lon="7.33294">
        <ele>1084.1999511719</ele>
        <time>2019-04-20T14:18:35.000Z</time>
      </trkpt>
      <trkpt lat="43.90748" lon="7.33295">
        <ele>1084.5999755859</ele>
        <time>2019-04-20T14:18:45.000Z</time>
      </trkpt>
      <trkpt lat="43.90749" lon="7.33296">
        <ele>1084.4000244141</ele>
        <time>2019-04-20T14:18:56.000Z</time>
      </trkpt>
      <trkpt lat="43.90749" lon="7.33296">
        <ele>1084.4000244141</ele>
        <time>2019-04-20T14:19:02.000Z</time>
      </trkpt>
      <trkpt lat="43.90749" lon="7.33296">
        <ele>1084.5999755859</ele>
        <time>2019-04-20T14:19:04.000Z</time>
      </trkpt>
      <trkpt lat="43.90749" lon="7.33296">
        <ele>1084.1999511719</ele>
        <time>2019-04-20T14:19:11.000Z</time>
      </trkpt>
      <trkpt lat="43.90746" lon="7.33295">
        <ele>1084.5999755859</ele>
        <time>2019-04-20T14:19:23.000Z</time>
      </trkpt>
      <trkpt lat="43.90745" lon="7.33295">
        <ele>1084.8000488281</ele>
        <time>2019-04-20T14:19:33.000Z</time>
      </trkpt>
      <trkpt lat="43.90746" lon="7.33295">
        <ele>1084.4000244141</ele>
        <time>2019-04-20T14:19:45.000Z</time>
      </trkpt>
      <trkpt lat="43.90749" lon="7.33294">
        <ele>1084.8000488281</ele>
        <time>2019-04-20T14:20:04.000Z</time>
      </trkpt>
      <trkpt lat="43.90745" lon="7.33295">
        <ele>1083.8000488281</ele>
        <time>2019-04-20T14:20:14.000Z</time>
      </trkpt>
      <trkpt lat="43.90745" lon="7.33295">
        <ele>1083.4000244141</ele>
        <time>2019-04-20T14:20:23.000Z</time>
      </trkpt>
      <trkpt lat="43.90746" lon="7.33296">
        <ele>1083.1999511719</ele>
        <time>2019-04-20T14:20:31.000Z</time>
      </trkpt>
      <trkpt lat="43.90748" lon="7.33297">
        <ele>1083</ele>
        <time>2019-04-20T14:20:37.000Z</time>
      </trkpt>
      <trkpt lat="43.90749" lon="7.33297">
        <ele>1083.1999511719</ele>
        <time>2019-04-20T14:20:42.000Z</time>
      </trkpt>
      <trkpt lat="43.90748" lon="7.33296">
        <ele>1083</ele>
        <time>2019-04-20T14:20:48.000Z</time>
      </trkpt>
      <trkpt lat="43.9075" lon="7.33298">
        <ele>1083</ele>
        <time>2019-04-20T14:20:57.000Z</time>
      </trkpt>
      <trkpt lat="43.90749" lon="7.33299">
        <ele>1083</ele>
        <time>2019-04-20T14:21:08.000Z</time>
      </trkpt>
      <trkpt lat="43.90748" lon="7.33299">
        <ele>1082.8000488281</ele>
        <time>2019-04-20T14:21:22.000Z</time>
      </trkpt>
      <trkpt lat="43.90748" lon="7.33299">
        <ele>1083</ele>
        <time>2019-04-20T14:21:39.000Z</time>
      </trkpt>
      <trkpt lat="43.90749" lon="7.33301">
        <ele>1082.5999755859</ele>
        <time>2019-04-20T14:21:46.000Z</time>
      </trkpt>
      <trkpt lat="43.90748" lon="7.33298">
        <ele>1082.4000244141</ele>
        <time>2019-04-20T14:21:53.000Z</time>
      </trkpt>
      <trkpt lat="43.90744" lon="7.33296">
        <ele>1082</ele>
        <time>2019-04-20T14:22:08.000Z</time>
      </trkpt>
      <trkpt lat="43.90744" lon="7.33295">
        <ele>1082.5999755859</ele>
        <time>2019-04-20T14:22:18.000Z</time>
      </trkpt>
      <trkpt lat="43.9074" lon="7.33291">
        <ele>1082.4000244141</ele>
        <time>2019-04-20T14:22:25.000Z</time>
      </trkpt>
      <trkpt lat="43.90742" lon="7.33294">
        <ele>1082.4000244141</ele>
        <time>2019-04-20T14:22:30.000Z</time>
      </trkpt>
      <trkpt lat="43.90745" lon="7.33296">
        <ele>1082.8000488281</ele>
        <time>2019-04-20T14:22:49.000Z</time>
      </trkpt>
      <trkpt lat="43.90747" lon="7.33298">
        <ele>1083.5999755859</ele>
        <time>2019-04-20T14:22:58.000Z</time>
      </trkpt>
      <trkpt lat="43.90749" lon="7.33298">
        <ele>1083.4000244141</ele>
        <time>2019-04-20T14:23:15.000Z</time>
      </trkpt>
      <trkpt lat="43.90749" lon="7.33298">
        <ele>1083.4000244141</ele>
        <time>2019-04-20T14:23:29.000Z</time>
      </trkpt>
      <trkpt lat="43.9075" lon="7.33298">
        <ele>1084</ele>
        <time>2019-04-20T14:23:33.000Z</time>
      </trkpt>
      <trkpt lat="43.9075" lon="7.33298">
        <ele>1084.4000244141</ele>
        <time>2019-04-20T14:23:37.000Z</time>
      </trkpt>
      <trkpt lat="43.90751" lon="7.33299">
        <ele>1084</ele>
        <time>2019-04-20T14:23:58.000Z</time>
      </trkpt>
      <trkpt lat="43.90751" lon="7.33299">
        <ele>1084.4000244141</ele>
        <time>2019-04-20T14:24:17.000Z</time>
      </trkpt>
      <trkpt lat="43.90749" lon="7.33297">
        <ele>1084.4000244141</ele>
        <time>2019-04-20T14:24:26.000Z</time>
      </trkpt>
      <trkpt lat="43.90749" lon="7.33295">
        <ele>1083.8000488281</ele>
        <time>2019-04-20T14:24:36.000Z</time>
      </trkpt>
      <trkpt lat="43.90749" lon="7.33295">
        <ele>1084.4000244141</ele>
        <time>2019-04-20T14:24:45.000Z</time>
      </trkpt>
      <trkpt lat="43.9075" lon="7.33294">
        <ele>1084.1999511719</ele>
        <time>2019-04-20T14:24:56.000Z</time>
      </trkpt>
      <trkpt lat="43.9075" lon="7.33294">
        <ele>1084.5999755859</ele>
        <time>2019-04-20T14:25:10.000Z</time>
      </trkpt>
      <trkpt lat="43.90751" lon="7.33294">
        <ele>1084.4000244141</ele>
        <time>2019-04-20T14:25:30.000Z</time>
      </trkpt>
      <trkpt lat="43.90751" lon="7.33294">
        <ele>1084.1999511719</ele>
        <time>2019-04-20T14:25:38.000Z</time>
      </trkpt>
      <trkpt lat="43.90752" lon="7.33295">
        <ele>1085</ele>
        <time>2019-04-20T14:25:47.000Z</time>
      </trkpt>
      <trkpt lat="43.90752" lon="7.33296">
        <ele>1085</ele>
        <time>2019-04-20T14:25:54.000Z</time>
      </trkpt>
      <trkpt lat="43.90753" lon="7.33297">
        <ele>1084.8000488281</ele>
        <time>2019-04-20T14:26:05.000Z</time>
      </trkpt>
      <trkpt lat="43.90761" lon="7.33307">
        <ele>1085</ele>
        <time>2019-04-20T14:26:19.000Z</time>
      </trkpt>
      <trkpt lat="43.90762" lon="7.33309">
        <ele>1085.1999511719</ele>
        <time>2019-04-20T14:26:26.000Z</time>
      </trkpt>
      <trkpt lat="43.90761" lon="7.33309">
        <ele>1085.5999755859</ele>
        <time>2019-04-20T14:26:31.000Z</time>
      </trkpt>
      <trkpt lat="43.9076" lon="7.33309">
        <ele>1085.4000244141</ele>
        <time>2019-04-20T14:26:32.000Z</time>
      </trkpt>
      <trkpt lat="43.90759" lon="7.33306">
        <ele>1084.4000244141</ele>
        <time>2019-04-20T14:26:37.000Z</time>
      </trkpt>
      <trkpt lat="43.90754" lon="7.33304">
        <ele>1084.4000244141</ele>
        <time>2019-04-20T14:26:45.000Z</time>
      </trkpt>
      <trkpt lat="43.9074" lon="7.33299">
        <ele>1085.1999511719</ele>
        <time>2019-04-20T14:26:53.000Z</time>
      </trkpt>
      <trkpt lat="43.9074" lon="7.33298">
        <ele>1085.8000488281</ele>
        <time>2019-04-20T14:27:06.000Z</time>
      </trkpt>
      <trkpt lat="43.90737" lon="7.33297">
        <ele>1085.5999755859</ele>
        <time>2019-04-20T14:27:14.000Z</time>
      </trkpt>
      <trkpt lat="43.90736" lon="7.33297">
        <ele>1086.1999511719</ele>
        <time>2019-04-20T14:27:17.000Z</time>
      </trkpt>
      <trkpt lat="43.90737" lon="7.33297">
        <ele>1086</ele>
        <time>2019-04-20T14:27:22.000Z</time>
      </trkpt>
      <trkpt lat="43.90737" lon="7.33297">
        <ele>1085.1999511719</ele>
        <time>2019-04-20T14:27:27.000Z</time>
      </trkpt>
      <trkpt lat="43.90737" lon="7.33297">
        <ele>1085.1999511719</ele>
        <time>2019-04-20T14:27:29.000Z</time>
      </trkpt>
      <trkpt lat="43.90738" lon="7.33297">
        <ele>1085.1999511719</ele>
        <time>2019-04-20T14:27:35.000Z</time>
      </trkpt>
      <trkpt lat="43.9074" lon="7.33296">
        <ele>1085.8000488281</ele>
        <time>2019-04-20T14:27:43.000Z</time>
      </trkpt>
      <trkpt lat="43.90743" lon="7.33295">
        <ele>1085.1999511719</ele>
        <time>2019-04-20T14:28:00.000Z</time>
      </trkpt>
      <trkpt lat="43.90743" lon="7.33295">
        <ele>1085.1999511719</ele>
        <time>2019-04-20T14:28:05.000Z</time>
      </trkpt>
      <trkpt lat="43.90742" lon="7.33296">
        <ele>1085.8000488281</ele>
        <time>2019-04-20T14:28:11.000Z</time>
      </trkpt>
      <trkpt lat="43.90743" lon="7.33295">
        <ele>1085.8000488281</ele>
        <time>2019-04-20T14:28:12.000Z</time>
      </trkpt>
      <trkpt lat="43.90745" lon="7.33295">
        <ele>1085.1999511719</ele>
        <time>2019-04-20T14:28:19.000Z</time>
      </trkpt>
      <trkpt lat="43.90745" lon="7.33295">
        <ele>1085.1999511719</ele>
        <time>2019-04-20T14:28:24.000Z</time>
      </trkpt>
      <trkpt lat="43.90747" lon="7.33295">
        <ele>1085.8000488281</ele>
        <time>2019-04-20T14:28:32.000Z</time>
      </trkpt>
      <trkpt lat="43.90748" lon="7.33295">
        <ele>1086.1999511719</ele>
        <time>2019-04-20T14:28:35.000Z</time>
      </trkpt>
      <trkpt lat="43.90748" lon="7.33294">
        <ele>1085.8000488281</ele>
        <time>2019-04-20T14:28:40.000Z</time>
      </trkpt>
      <trkpt lat="43.90745" lon="7.33294">
        <ele>1085.4000244141</ele>
        <time>2019-04-20T14:28:48.000Z</time>
      </trkpt>
      <trkpt lat="43.90745" lon="7.33294">
        <ele>1085.1999511719</ele>
        <time>2019-04-20T14:28:49.000Z</time>
      </trkpt>
      <trkpt lat="43.90742" lon="7.33294">
        <ele>1085.1999511719</ele>
        <time>2019-04-20T14:28:54.000Z</time>
      </trkpt>
      <trkpt lat="43.90741" lon="7.33294">
        <ele>1085.4000244141</ele>
        <time>2019-04-20T14:29:01.000Z</time>
      </trkpt>
      <trkpt lat="43.90741" lon="7.33294">
        <ele>1085</ele>
        <time>2019-04-20T14:29:09.000Z</time>
      </trkpt>
      <trkpt lat="43.90739" lon="7.33294">
        <ele>1085.1999511719</ele>
        <time>2019-04-20T14:29:19.000Z</time>
      </trkpt>
      <trkpt lat="43.90738" lon="7.33294">
        <ele>1085.1999511719</ele>
        <time>2019-04-20T14:29:24.000Z</time>
      </trkpt>
      <trkpt lat="43.90741" lon="7.33295">
        <ele>1085.8000488281</ele>
        <time>2019-04-20T14:29:36.000Z</time>
      </trkpt>
      <trkpt lat="43.90743" lon="7.33295">
        <ele>1085.5999755859</ele>
        <time>2019-04-20T14:29:48.000Z</time>
      </trkpt>
      <trkpt lat="43.90741" lon="7.33295">
        <ele>1085.4000244141</ele>
        <time>2019-04-20T14:29:54.000Z</time>
      </trkpt>
      <trkpt lat="43.90739" lon="7.33295">
        <ele>1085.5999755859</ele>
        <time>2019-04-20T14:30:03.000Z</time>
      </trkpt>
      <trkpt lat="43.90737" lon="7.33295">
        <ele>1085.4000244141</ele>
        <time>2019-04-20T14:30:13.000Z</time>
      </trkpt>
      <trkpt lat="43.90737" lon="7.33295">
        <ele>1085.8000488281</ele>
        <time>2019-04-20T14:30:20.000Z</time>
      </trkpt>
      <trkpt lat="43.90737" lon="7.33295">
        <ele>1085.5999755859</ele>
        <time>2019-04-20T14:30:27.000Z</time>
      </trkpt>
      <trkpt lat="43.90737" lon="7.33295">
        <ele>1085.4000244141</ele>
        <time>2019-04-20T14:30:33.000Z</time>
      </trkpt>
      <trkpt lat="43.90739" lon="7.33295">
        <ele>1085.5999755859</ele>
        <time>2019-04-20T14:30:47.000Z</time>
      </trkpt>
      <trkpt lat="43.9074" lon="7.33294">
        <ele>1086</ele>
        <time>2019-04-20T14:30:57.000Z</time>
      </trkpt>
      <trkpt lat="43.9074" lon="7.33295">
        <ele>1086.1999511719</ele>
        <time>2019-04-20T14:30:58.000Z</time>
      </trkpt>
      <trkpt lat="43.9074" lon="7.33295">
        <ele>1085.8000488281</ele>
        <time>2019-04-20T14:31:03.000Z</time>
      </trkpt>
      <trkpt lat="43.90741" lon="7.33295">
        <ele>1085.8000488281</ele>
        <time>2019-04-20T14:31:14.000Z</time>
      </trkpt>
      <trkpt lat="43.9074" lon="7.33296">
        <ele>1086</ele>
        <time>2019-04-20T14:31:27.000Z</time>
      </trkpt>
      <trkpt lat="43.90739" lon="7.33296">
        <ele>1086</ele>
        <time>2019-04-20T14:31:40.000Z</time>
      </trkpt>
      <trkpt lat="43.90738" lon="7.33296">
        <ele>1086.1999511719</ele>
        <time>2019-04-20T14:32:11.000Z</time>
      </trkpt>
      <trkpt lat="43.90738" lon="7.33295">
        <ele>1086.1999511719</ele>
        <time>2019-04-20T14:32:35.000Z</time>
      </trkpt>
      <trkpt lat="43.90739" lon="7.33295">
        <ele>1086.1999511719</ele>
        <time>2019-04-20T14:32:47.000Z</time>
      </trkpt>
      <trkpt lat="43.90739" lon="7.33295">
        <ele>1086.4000244141</ele>
        <time>2019-04-20T14:32:51.000Z</time>
      </trkpt>
      <trkpt lat="43.90741" lon="7.33295">
        <ele>1086.1999511719</ele>
        <time>2019-04-20T14:33:01.000Z</time>
      </trkpt>
      <trkpt lat="43.90741" lon="7.33296">
        <ele>1086.8000488281</ele>
        <time>2019-04-20T14:33:12.000Z</time>
      </trkpt>
      <trkpt lat="43.90742" lon="7.33296">
        <ele>1086.4000244141</ele>
        <time>2019-04-20T14:33:20.000Z</time>
      </trkpt>
      <trkpt lat="43.90743" lon="7.33295">
        <ele>1086.5999755859</ele>
        <time>2019-04-20T14:33:31.000Z</time>
      </trkpt>
      <trkpt lat="43.90745" lon="7.33294">
        <ele>1086.5999755859</ele>
        <time>2019-04-20T14:33:32.000Z</time>
      </trkpt>
      <trkpt lat="43.90745" lon="7.33294">
        <ele>1086.8000488281</ele>
        <time>2019-04-20T14:33:36.000Z</time>
      </trkpt>
      <trkpt lat="43.90745" lon="7.33294">
        <ele>1087</ele>
        <time>2019-04-20T14:33:42.000Z</time>
      </trkpt>
      <trkpt lat="43.90745" lon="7.33295">
        <ele>1087</ele>
        <time>2019-04-20T14:33:53.000Z</time>
      </trkpt>
      <trkpt lat="43.90745" lon="7.33295">
        <ele>1087.1999511719</ele>
        <time>2019-04-20T14:34:01.000Z</time>
      </trkpt>
      <trkpt lat="43.90745" lon="7.33296">
        <ele>1087</ele>
        <time>2019-04-20T14:34:07.000Z</time>
      </trkpt>
      <trkpt lat="43.90744" lon="7.33294">
        <ele>1087</ele>
        <time>2019-04-20T14:34:21.000Z</time>
      </trkpt>
      <trkpt lat="43.90743" lon="7.33294">
        <ele>1087</ele>
        <time>2019-04-20T14:34:32.000Z</time>
      </trkpt>
      <trkpt lat="43.90744" lon="7.33295">
        <ele>1086.8000488281</ele>
        <time>2019-04-20T14:34:59.000Z</time>
      </trkpt>
      <trkpt lat="43.90745" lon="7.33295">
        <ele>1087.1999511719</ele>
        <time>2019-04-20T14:35:05.000Z</time>
      </trkpt>
      <trkpt lat="43.90746" lon="7.33295">
        <ele>1087.4000244141</ele>
        <time>2019-04-20T14:35:07.000Z</time>
      </trkpt>
      <trkpt lat="43.90748" lon="7.33296">
        <ele>1086.5999755859</ele>
        <time>2019-04-20T14:35:27.000Z</time>
      </trkpt>
      <trkpt lat="43.90749" lon="7.33296">
        <ele>1086.5999755859</ele>
        <time>2019-04-20T14:35:37.000Z</time>
      </trkpt>
      <trkpt lat="43.90751" lon="7.33296">
        <ele>1086.4000244141</ele>
        <time>2019-04-20T14:35:44.000Z</time>
      </trkpt>
      <trkpt lat="43.90753" lon="7.33295">
        <ele>1087</ele>
        <time>2019-04-20T14:36:04.000Z</time>
      </trkpt>
      <trkpt lat="43.90753" lon="7.33296">
        <ele>1087.1999511719</ele>
        <time>2019-04-20T14:36:16.000Z</time>
      </trkpt>
      <trkpt lat="43.90754" lon="7.33296">
        <ele>1086.4000244141</ele>
        <time>2019-04-20T14:36:25.000Z</time>
      </trkpt>
      <trkpt lat="43.90754" lon="7.33297">
        <ele>1086.4000244141</ele>
        <time>2019-04-20T14:36:35.000Z</time>
      </trkpt>
      <trkpt lat="43.90754" lon="7.33297">
        <ele>1086.4000244141</ele>
        <time>2019-04-20T14:36:40.000Z</time>
      </trkpt>
      <trkpt lat="43.90755" lon="7.33297">
        <ele>1086.1999511719</ele>
        <time>2019-04-20T14:36:42.000Z</time>
      </trkpt>
      <trkpt lat="43.90756" lon="7.33297">
        <ele>1085.8000488281</ele>
        <time>2019-04-20T14:36:47.000Z</time>
      </trkpt>
      <trkpt lat="43.90759" lon="7.33299">
        <ele>1085.8000488281</ele>
        <time>2019-04-20T14:36:53.000Z</time>
      </trkpt>
      <trkpt lat="43.90761" lon="7.33298">
        <ele>1085.5999755859</ele>
        <time>2019-04-20T14:36:57.000Z</time>
      </trkpt>
      <trkpt lat="43.90762" lon="7.33296">
        <ele>1085.8000488281</ele>
        <time>2019-04-20T14:36:59.000Z</time>
      </trkpt>
      <trkpt lat="43.90764" lon="7.3329">
        <ele>1085.5999755859</ele>
        <time>2019-04-20T14:37:02.000Z</time>
      </trkpt>
      <trkpt lat="43.90765" lon="7.33288">
        <ele>1085.4000244141</ele>
        <time>2019-04-20T14:37:03.000Z</time>
      </trkpt>
      <trkpt lat="43.90772" lon="7.3328">
        <ele>1086</ele>
        <time>2019-04-20T14:37:08.000Z</time>
      </trkpt>
      <trkpt lat="43.9079" lon="7.33273">
        <ele>1086.8000488281</ele>
        <time>2019-04-20T14:37:16.000Z</time>
      </trkpt>
      <trkpt lat="43.90809" lon="7.33259">
        <ele>1087</ele>
        <time>2019-04-20T14:37:24.000Z</time>
      </trkpt>
      <trkpt lat="43.90827" lon="7.33246">
        <ele>1087</ele>
        <time>2019-04-20T14:37:30.000Z</time>
      </trkpt>
      <trkpt lat="43.9083" lon="7.33244">
        <ele>1087.1999511719</ele>
        <time>2019-04-20T14:37:31.000Z</time>
      </trkpt>
      <trkpt lat="43.90851" lon="7.33231">
        <ele>1087</ele>
        <time>2019-04-20T14:37:38.000Z</time>
      </trkpt>
      <trkpt lat="43.90857" lon="7.33228">
        <ele>1087.5999755859</ele>
        <time>2019-04-20T14:37:41.000Z</time>
      </trkpt>
      <trkpt lat="43.90868" lon="7.3322">
        <ele>1088.1999511719</ele>
        <time>2019-04-20T14:37:46.000Z</time>
      </trkpt>
      <trkpt lat="43.90877" lon="7.33211">
        <ele>1089</ele>
        <time>2019-04-20T14:37:51.000Z</time>
      </trkpt>
      <trkpt lat="43.90881" lon="7.33206">
        <ele>1089.4000244141</ele>
        <time>2019-04-20T14:37:53.000Z</time>
      </trkpt>
      <trkpt lat="43.90886" lon="7.33196">
        <ele>1090.1999511719</ele>
        <time>2019-04-20T14:37:56.000Z</time>
      </trkpt>
      <trkpt lat="43.90888" lon="7.33192">
        <ele>1090.4000244141</ele>
        <time>2019-04-20T14:37:57.000Z</time>
      </trkpt>
      <trkpt lat="43.90896" lon="7.33169">
        <ele>1091.8000488281</ele>
        <time>2019-04-20T14:38:03.000Z</time>
      </trkpt>
      <trkpt lat="43.90902" lon="7.33161">
        <ele>1092</ele>
        <time>2019-04-20T14:38:06.000Z</time>
      </trkpt>
      <trkpt lat="43.90905" lon="7.3316">
        <ele>1092.1999511719</ele>
        <time>2019-04-20T14:38:07.000Z</time>
      </trkpt>
      <trkpt lat="43.90911" lon="7.33152">
        <ele>1092.8000488281</ele>
        <time>2019-04-20T14:38:10.000Z</time>
      </trkpt>
      <trkpt lat="43.90913" lon="7.33148">
        <ele>1093.1999511719</ele>
        <time>2019-04-20T14:38:12.000Z</time>
      </trkpt>
      <trkpt lat="43.90919" lon="7.33139">
        <ele>1094</ele>
        <time>2019-04-20T14:38:15.000Z</time>
      </trkpt>
      <trkpt lat="43.90923" lon="7.33131">
        <ele>1094.5999755859</ele>
        <time>2019-04-20T14:38:18.000Z</time>
      </trkpt>
      <trkpt lat="43.90927" lon="7.33123">
        <ele>1095</ele>
        <time>2019-04-20T14:38:21.000Z</time>
      </trkpt>
      <trkpt lat="43.90931" lon="7.33116">
        <ele>1095.5999755859</ele>
        <time>2019-04-20T14:38:24.000Z</time>
      </trkpt>
      <trkpt lat="43.90933" lon="7.33112">
        <ele>1096.1999511719</ele>
        <time>2019-04-20T14:38:26.000Z</time>
      </trkpt>
      <trkpt lat="43.90938" lon="7.33103">
        <ele>1097</ele>
        <time>2019-04-20T14:38:30.000Z</time>
      </trkpt>
      <trkpt lat="43.9094" lon="7.33097">
        <ele>1097.4000244141</ele>
        <time>2019-04-20T14:38:32.000Z</time>
      </trkpt>
      <trkpt lat="43.90944" lon="7.33086">
        <ele>1098.1999511719</ele>
        <time>2019-04-20T14:38:36.000Z</time>
      </trkpt>
      <trkpt lat="43.90945" lon="7.33084">
        <ele>1098.4000244141</ele>
        <time>2019-04-20T14:38:37.000Z</time>
      </trkpt>
      <trkpt lat="43.90948" lon="7.33081">
        <ele>1098.5999755859</ele>
        <time>2019-04-20T14:38:38.000Z</time>
      </trkpt>
      <trkpt lat="43.9095" lon="7.33077">
        <ele>1098.8000488281</ele>
        <time>2019-04-20T14:38:40.000Z</time>
      </trkpt>
      <trkpt lat="43.90953" lon="7.33075">
        <ele>1099.4000244141</ele>
        <time>2019-04-20T14:38:43.000Z</time>
      </trkpt>
      <trkpt lat="43.90955" lon="7.33074">
        <ele>1099.5999755859</ele>
        <time>2019-04-20T14:38:44.000Z</time>
      </trkpt>
      <trkpt lat="43.90962" lon="7.33073">
        <ele>1100.4000244141</ele>
        <time>2019-04-20T14:38:48.000Z</time>
      </trkpt>
      <trkpt lat="43.90964" lon="7.33073">
        <ele>1100.5999755859</ele>
        <time>2019-04-20T14:38:49.000Z</time>
      </trkpt>
      <trkpt lat="43.90973" lon="7.33073">
        <ele>1101.5999755859</ele>
        <time>2019-04-20T14:38:54.000Z</time>
      </trkpt>
      <trkpt lat="43.90975" lon="7.33074">
        <ele>1101.8000488281</ele>
        <time>2019-04-20T14:38:55.000Z</time>
      </trkpt>
      <trkpt lat="43.90983" lon="7.33078">
        <ele>1102.5999755859</ele>
        <time>2019-04-20T14:39:00.000Z</time>
      </trkpt>
      <trkpt lat="43.90985" lon="7.33077">
        <ele>1102.8000488281</ele>
        <time>2019-04-20T14:39:01.000Z</time>
      </trkpt>
      <trkpt lat="43.90995" lon="7.33073">
        <ele>1103.5999755859</ele>
        <time>2019-04-20T14:39:06.000Z</time>
      </trkpt>
      <trkpt lat="43.90999" lon="7.33071">
        <ele>1103.8000488281</ele>
        <time>2019-04-20T14:39:08.000Z</time>
      </trkpt>
      <trkpt lat="43.91008" lon="7.33063">
        <ele>1105</ele>
        <time>2019-04-20T14:39:14.000Z</time>
      </trkpt>
      <trkpt lat="43.91016" lon="7.33057">
        <ele>1106</ele>
        <time>2019-04-20T14:39:19.000Z</time>
      </trkpt>
      <trkpt lat="43.91018" lon="7.33055">
        <ele>1106.4000244141</ele>
        <time>2019-04-20T14:39:21.000Z</time>
      </trkpt>
      <trkpt lat="43.91023" lon="7.33052">
        <ele>1107.1999511719</ele>
        <time>2019-04-20T14:39:24.000Z</time>
      </trkpt>
      <trkpt lat="43.9103" lon="7.33046">
        <ele>1107.5999755859</ele>
        <time>2019-04-20T14:39:29.000Z</time>
      </trkpt>
      <trkpt lat="43.91034" lon="7.33044">
        <ele>1108.1999511719</ele>
        <time>2019-04-20T14:39:32.000Z</time>
      </trkpt>
      <trkpt lat="43.91035" lon="7.33043">
        <ele>1108.5999755859</ele>
        <time>2019-04-20T14:39:33.000Z</time>
      </trkpt>
      <trkpt lat="43.9104" lon="7.3304">
        <ele>1109.4000244141</ele>
        <time>2019-04-20T14:39:36.000Z</time>
      </trkpt>
      <trkpt lat="43.91047" lon="7.33036">
        <ele>1110.4000244141</ele>
        <time>2019-04-20T14:39:40.000Z</time>
      </trkpt>
      <trkpt lat="43.9105" lon="7.33035">
        <ele>1110.5999755859</ele>
        <time>2019-04-20T14:39:42.000Z</time>
      </trkpt>
      <trkpt lat="43.9106" lon="7.33031">
        <ele>1111.5999755859</ele>
        <time>2019-04-20T14:39:48.000Z</time>
      </trkpt>
      <trkpt lat="43.91061" lon="7.3303">
        <ele>1111.8000488281</ele>
        <time>2019-04-20T14:39:49.000Z</time>
      </trkpt>
      <trkpt lat="43.91069" lon="7.33028">
        <ele>1112.5999755859</ele>
        <time>2019-04-20T14:39:54.000Z</time>
      </trkpt>
      <trkpt lat="43.91074" lon="7.33027">
        <ele>1113.1999511719</ele>
        <time>2019-04-20T14:39:57.000Z</time>
      </trkpt>
      <trkpt lat="43.91077" lon="7.33027">
        <ele>1113.8000488281</ele>
        <time>2019-04-20T14:39:59.000Z</time>
      </trkpt>
      <trkpt lat="43.91089" lon="7.33022">
        <ele>1114.8000488281</ele>
        <time>2019-04-20T14:40:06.000Z</time>
      </trkpt>
      <trkpt lat="43.91097" lon="7.3302">
        <ele>1116</ele>
        <time>2019-04-20T14:40:11.000Z</time>
      </trkpt>
      <trkpt lat="43.911" lon="7.33019">
        <ele>1116.4000244141</ele>
        <time>2019-04-20T14:40:13.000Z</time>
      </trkpt>
      <trkpt lat="43.91107" lon="7.33015">
        <ele>1117</ele>
        <time>2019-04-20T14:40:17.000Z</time>
      </trkpt>
      <trkpt lat="43.91111" lon="7.33012">
        <ele>1117.5999755859</ele>
        <time>2019-04-20T14:40:20.000Z</time>
      </trkpt>
      <trkpt lat="43.91114" lon="7.3301">
        <ele>1118</ele>
        <time>2019-04-20T14:40:22.000Z</time>
      </trkpt>
      <trkpt lat="43.9112" lon="7.33003">
        <ele>1119</ele>
        <time>2019-04-20T14:40:27.000Z</time>
      </trkpt>
      <trkpt lat="43.91121" lon="7.33001">
        <ele>1119.1999511719</ele>
        <time>2019-04-20T14:40:28.000Z</time>
      </trkpt>
      <trkpt lat="43.91128" lon="7.32987">
        <ele>1120</ele>
        <time>2019-04-20T14:40:35.000Z</time>
      </trkpt>
      <trkpt lat="43.91129" lon="7.32985">
        <ele>1120.1999511719</ele>
        <time>2019-04-20T14:40:36.000Z</time>
      </trkpt>
      <trkpt lat="43.91134" lon="7.32974">
        <ele>1121.1999511719</ele>
        <time>2019-04-20T14:40:41.000Z</time>
      </trkpt>
      <trkpt lat="43.91135" lon="7.32972">
        <ele>1121.4000244141</ele>
        <time>2019-04-20T14:40:42.000Z</time>
      </trkpt>
      <trkpt lat="43.91142" lon="7.32956">
        <ele>1122.1999511719</ele>
        <time>2019-04-20T14:40:49.000Z</time>
      </trkpt>
      <trkpt lat="43.91145" lon="7.32951">
        <ele>1122.1999511719</ele>
        <time>2019-04-20T14:40:51.000Z</time>
      </trkpt>
      <trkpt lat="43.9115" lon="7.32945">
        <ele>1122.8000488281</ele>
        <time>2019-04-20T14:40:55.000Z</time>
      </trkpt>
      <trkpt lat="43.91155" lon="7.32938">
        <ele>1123.4000244141</ele>
        <time>2019-04-20T14:40:59.000Z</time>
      </trkpt>
      <trkpt lat="43.91162" lon="7.32927">
        <ele>1124</ele>
        <time>2019-04-20T14:41:04.000Z</time>
      </trkpt>
      <trkpt lat="43.91171" lon="7.32916">
        <ele>1124.1999511719</ele>
        <time>2019-04-20T14:41:09.000Z</time>
      </trkpt>
      <trkpt lat="43.91177" lon="7.32911">
        <ele>1124.5999755859</ele>
        <time>2019-04-20T14:41:12.000Z</time>
      </trkpt>
      <trkpt lat="43.91186" lon="7.32904">
        <ele>1125</ele>
        <time>2019-04-20T14:41:16.000Z</time>
      </trkpt>
      <trkpt lat="43.91197" lon="7.32896">
        <ele>1125.1999511719</ele>
        <time>2019-04-20T14:41:21.000Z</time>
      </trkpt>
      <trkpt lat="43.91213" lon="7.32888">
        <ele>1125.1999511719</ele>
        <time>2019-04-20T14:41:26.000Z</time>
      </trkpt>
      <trkpt lat="43.91242" lon="7.32868">
        <ele>1124</ele>
        <time>2019-04-20T14:41:34.000Z</time>
      </trkpt>
      <trkpt lat="43.91246" lon="7.32862">
        <ele>1123.8000488281</ele>
        <time>2019-04-20T14:41:35.000Z</time>
      </trkpt>
      <trkpt lat="43.91251" lon="7.32851">
        <ele>1123.4000244141</ele>
        <time>2019-04-20T14:41:37.000Z</time>
      </trkpt>
      <trkpt lat="43.91255" lon="7.32845">
        <ele>1123</ele>
        <time>2019-04-20T14:41:38.000Z</time>
      </trkpt>
      <trkpt lat="43.91268" lon="7.32831">
        <ele>1122.1999511719</ele>
        <time>2019-04-20T14:41:41.000Z</time>
      </trkpt>
      <trkpt lat="43.91279" lon="7.32826">
        <ele>1122</ele>
        <time>2019-04-20T14:41:43.000Z</time>
      </trkpt>
      <trkpt lat="43.91291" lon="7.3282">
        <ele>1121.1999511719</ele>
        <time>2019-04-20T14:41:45.000Z</time>
      </trkpt>
      <trkpt lat="43.91297" lon="7.32815">
        <ele>1120.8000488281</ele>
        <time>2019-04-20T14:41:46.000Z</time>
      </trkpt>
      <trkpt lat="43.91307" lon="7.32807">
        <ele>1119.8000488281</ele>
        <time>2019-04-20T14:41:48.000Z</time>
      </trkpt>
      <trkpt lat="43.91315" lon="7.32798">
        <ele>1119.5999755859</ele>
        <time>2019-04-20T14:41:50.000Z</time>
      </trkpt>
      <trkpt lat="43.91335" lon="7.3278">
        <ele>1120.4000244141</ele>
        <time>2019-04-20T14:41:55.000Z</time>
      </trkpt>
      <trkpt lat="43.91349" lon="7.32769">
        <ele>1120.5999755859</ele>
        <time>2019-04-20T14:41:59.000Z</time>
      </trkpt>
      <trkpt lat="43.91354" lon="7.32764">
        <ele>1121</ele>
        <time>2019-04-20T14:42:01.000Z</time>
      </trkpt>
      <trkpt lat="43.91364" lon="7.32757">
        <ele>1121.5999755859</ele>
        <time>2019-04-20T14:42:04.000Z</time>
      </trkpt>
      <trkpt lat="43.91367" lon="7.32755">
        <ele>1122</ele>
        <time>2019-04-20T14:42:05.000Z</time>
      </trkpt>
      <trkpt lat="43.91381" lon="7.32747">
        <ele>1123.1999511719</ele>
        <time>2019-04-20T14:42:10.000Z</time>
      </trkpt>
      <trkpt lat="43.91396" lon="7.32738">
        <ele>1124.4000244141</ele>
        <time>2019-04-20T14:42:15.000Z</time>
      </trkpt>
      <trkpt lat="43.91402" lon="7.32734">
        <ele>1124.8000488281</ele>
        <time>2019-04-20T14:42:17.000Z</time>
      </trkpt>
      <trkpt lat="43.91407" lon="7.32731">
        <ele>1125.4000244141</ele>
        <time>2019-04-20T14:42:19.000Z</time>
      </trkpt>
      <trkpt lat="43.91417" lon="7.32726">
        <ele>1126.1999511719</ele>
        <time>2019-04-20T14:42:23.000Z</time>
      </trkpt>
      <trkpt lat="43.91419" lon="7.32725">
        <ele>1126.4000244141</ele>
        <time>2019-04-20T14:42:24.000Z</time>
      </trkpt>
      <trkpt lat="43.91434" lon="7.32717">
        <ele>1127.5999755859</ele>
        <time>2019-04-20T14:42:29.000Z</time>
      </trkpt>
      <trkpt lat="43.91439" lon="7.32714">
        <ele>1128.1999511719</ele>
        <time>2019-04-20T14:42:31.000Z</time>
      </trkpt>
      <trkpt lat="43.91448" lon="7.32709">
        <ele>1128.8000488281</ele>
        <time>2019-04-20T14:42:34.000Z</time>
      </trkpt>
      <trkpt lat="43.9146" lon="7.32701">
        <ele>1129.4000244141</ele>
        <time>2019-04-20T14:42:38.000Z</time>
      </trkpt>
      <trkpt lat="43.91466" lon="7.32691">
        <ele>1129.8000488281</ele>
        <time>2019-04-20T14:42:41.000Z</time>
      </trkpt>
      <trkpt lat="43.91467" lon="7.32683">
        <ele>1130.1999511719</ele>
        <time>2019-04-20T14:42:43.000Z</time>
      </trkpt>
      <trkpt lat="43.91467" lon="7.32657">
        <ele>1130.8000488281</ele>
        <time>2019-04-20T14:42:49.000Z</time>
      </trkpt>
      <trkpt lat="43.91467" lon="7.32648">
        <ele>1130.8000488281</ele>
        <time>2019-04-20T14:42:51.000Z</time>
      </trkpt>
      <trkpt lat="43.91467" lon="7.32636">
        <ele>1131</ele>
        <time>2019-04-20T14:42:54.000Z</time>
      </trkpt>
      <trkpt lat="43.91466" lon="7.32603">
        <ele>1131.8000488281</ele>
        <time>2019-04-20T14:43:02.000Z</time>
      </trkpt>
      <trkpt lat="43.91465" lon="7.32599">
        <ele>1132</ele>
        <time>2019-04-20T14:43:03.000Z</time>
      </trkpt>
      <trkpt lat="43.91462" lon="7.32571">
        <ele>1133</ele>
        <time>2019-04-20T14:43:10.000Z</time>
      </trkpt>
      <trkpt lat="43.91462" lon="7.32567">
        <ele>1133</ele>
        <time>2019-04-20T14:43:11.000Z</time>
      </trkpt>
      <trkpt lat="43.91462" lon="7.32546">
        <ele>1133.8000488281</ele>
        <time>2019-04-20T14:43:17.000Z</time>
      </trkpt>
      <trkpt lat="43.91462" lon="7.32543">
        <ele>1134</ele>
        <time>2019-04-20T14:43:18.000Z</time>
      </trkpt>
      <trkpt lat="43.91458" lon="7.3253">
        <ele>1134.1999511719</ele>
        <time>2019-04-20T14:43:21.000Z</time>
      </trkpt>
      <trkpt lat="43.91455" lon="7.32526">
        <ele>1134.1999511719</ele>
        <time>2019-04-20T14:43:22.000Z</time>
      </trkpt>
      <trkpt lat="43.91446" lon="7.32522">
        <ele>1134</ele>
        <time>2019-04-20T14:43:24.000Z</time>
      </trkpt>
      <trkpt lat="43.91427" lon="7.32512">
        <ele>1133.4000244141</ele>
        <time>2019-04-20T14:43:28.000Z</time>
      </trkpt>
      <trkpt lat="43.91425" lon="7.32508">
        <ele>1133</ele>
        <time>2019-04-20T14:43:29.000Z</time>
      </trkpt>
      <trkpt lat="43.91428" lon="7.32485">
        <ele>1131.5999755859</ele>
        <time>2019-04-20T14:43:32.000Z</time>
      </trkpt>
      <trkpt lat="43.91426" lon="7.32463">
        <ele>1129.8000488281</ele>
        <time>2019-04-20T14:43:35.000Z</time>
      </trkpt>
      <trkpt lat="43.91428" lon="7.32454">
        <ele>1129.5999755859</ele>
        <time>2019-04-20T14:43:36.000Z</time>
      </trkpt>
      <trkpt lat="43.91438" lon="7.32433">
        <ele>1128.5999755859</ele>
        <time>2019-04-20T14:43:38.000Z</time>
      </trkpt>
      <trkpt lat="43.9144" lon="7.32413">
        <ele>1127.5999755859</ele>
        <time>2019-04-20T14:43:40.000Z</time>
      </trkpt>
      <trkpt lat="43.9144" lon="7.32403">
        <ele>1126.5999755859</ele>
        <time>2019-04-20T14:43:41.000Z</time>
      </trkpt>
      <trkpt lat="43.91441" lon="7.32393">
        <ele>1126</ele>
        <time>2019-04-20T14:43:42.000Z</time>
      </trkpt>
      <trkpt lat="43.91441" lon="7.32367">
        <ele>1125.1999511719</ele>
        <time>2019-04-20T14:43:45.000Z</time>
      </trkpt>
      <trkpt lat="43.91442" lon="7.32359">
        <ele>1125</ele>
        <time>2019-04-20T14:43:46.000Z</time>
      </trkpt>
      <trkpt lat="43.91444" lon="7.32343">
        <ele>1126</ele>
        <time>2019-04-20T14:43:49.000Z</time>
      </trkpt>
      <trkpt lat="43.91445" lon="7.32331">
        <ele>1127.4000244141</ele>
        <time>2019-04-20T14:43:52.000Z</time>
      </trkpt>
      <trkpt lat="43.91445" lon="7.32325">
        <ele>1128</ele>
        <time>2019-04-20T14:43:54.000Z</time>
      </trkpt>
      <trkpt lat="43.91445" lon="7.32319">
        <ele>1128.5999755859</ele>
        <time>2019-04-20T14:43:56.000Z</time>
      </trkpt>
      <trkpt lat="43.91445" lon="7.32314">
        <ele>1129</ele>
        <time>2019-04-20T14:43:58.000Z</time>
      </trkpt>
      <trkpt lat="43.91447" lon="7.32311">
        <ele>1129.1999511719</ele>
        <time>2019-04-20T14:44:00.000Z</time>
      </trkpt>
      <trkpt lat="43.91448" lon="7.3231">
        <ele>1129.4000244141</ele>
        <time>2019-04-20T14:44:04.000Z</time>
      </trkpt>
      <trkpt lat="43.91448" lon="7.32309">
        <ele>1129.1999511719</ele>
        <time>2019-04-20T14:44:12.000Z</time>
      </trkpt>
      <trkpt lat="43.91448" lon="7.3231">
        <ele>1129.8000488281</ele>
        <time>2019-04-20T14:44:17.000Z</time>
      </trkpt>
      <trkpt lat="43.91448" lon="7.3231">
        <ele>1130.1999511719</ele>
        <time>2019-04-20T14:44:20.000Z</time>
      </trkpt>
      <trkpt lat="43.91448" lon="7.3231">
        <ele>1130</ele>
        <time>2019-04-20T14:44:31.000Z</time>
      </trkpt>
      <trkpt lat="43.91447" lon="7.3231">
        <ele>1130.1999511719</ele>
        <time>2019-04-20T14:44:37.000Z</time>
      </trkpt>
      <trkpt lat="43.91447" lon="7.3231">
        <ele>1130</ele>
        <time>2019-04-20T14:44:47.000Z</time>
      </trkpt>
      <trkpt lat="43.91447" lon="7.3231">
        <ele>1129.5999755859</ele>
        <time>2019-04-20T14:45:00.000Z</time>
      </trkpt>
      <trkpt lat="43.91447" lon="7.3231">
        <ele>1130</ele>
        <time>2019-04-20T14:45:24.000Z</time>
      </trkpt>
      <trkpt lat="43.91448" lon="7.3231">
        <ele>1129.5999755859</ele>
        <time>2019-04-20T14:45:38.000Z</time>
      </trkpt>
      <trkpt lat="43.91449" lon="7.32309">
        <ele>1129.5999755859</ele>
        <time>2019-04-20T14:45:39.000Z</time>
      </trkpt>
      <trkpt lat="43.9146" lon="7.32299">
        <ele>1129.1999511719</ele>
        <time>2019-04-20T14:45:43.000Z</time>
      </trkpt>
      <trkpt lat="43.91467" lon="7.3229">
        <ele>1128</ele>
        <time>2019-04-20T14:45:45.000Z</time>
      </trkpt>
      <trkpt lat="43.9147" lon="7.32286">
        <ele>1126.5999755859</ele>
        <time>2019-04-20T14:45:46.000Z</time>
      </trkpt>
      <trkpt lat="43.91476" lon="7.32278">
        <ele>1124.5999755859</ele>
        <time>2019-04-20T14:45:48.000Z</time>
      </trkpt>
      <trkpt lat="43.91488" lon="7.32269">
        <ele>1123.4000244141</ele>
        <time>2019-04-20T14:45:51.000Z</time>
      </trkpt>
      <trkpt lat="43.91492" lon="7.32265">
        <ele>1122.8000488281</ele>
        <time>2019-04-20T14:45:52.000Z</time>
      </trkpt>
      <trkpt lat="43.91495" lon="7.3226">
        <ele>1121.8000488281</ele>
        <time>2019-04-20T14:45:53.000Z</time>
      </trkpt>
      <trkpt lat="43.91498" lon="7.32256">
        <ele>1120.1999511719</ele>
        <time>2019-04-20T14:45:54.000Z</time>
      </trkpt>
      <trkpt lat="43.91506" lon="7.32246">
        <ele>1119</ele>
        <time>2019-04-20T14:45:56.000Z</time>
      </trkpt>
      <trkpt lat="43.91512" lon="7.32237">
        <ele>1117.8000488281</ele>
        <time>2019-04-20T14:45:58.000Z</time>
      </trkpt>
      <trkpt lat="43.91518" lon="7.32227">
        <ele>1116.4000244141</ele>
        <time>2019-04-20T14:46:00.000Z</time>
      </trkpt>
      <trkpt lat="43.91528" lon="7.32208">
        <ele>1114.8000488281</ele>
        <time>2019-04-20T14:46:03.000Z</time>
      </trkpt>
      <trkpt lat="43.91532" lon="7.32201">
        <ele>1113.8000488281</ele>
        <time>2019-04-20T14:46:04.000Z</time>
      </trkpt>
      <trkpt lat="43.91536" lon="7.32192">
        <ele>1113.1999511719</ele>
        <time>2019-04-20T14:46:05.000Z</time>
      </trkpt>
      <trkpt lat="43.91542" lon="7.32174">
        <ele>1111.1999511719</ele>
        <time>2019-04-20T14:46:07.000Z</time>
      </trkpt>
      <trkpt lat="43.91546" lon="7.32166">
        <ele>1110.1999511719</ele>
        <time>2019-04-20T14:46:08.000Z</time>
      </trkpt>
      <trkpt lat="43.91549" lon="7.3216">
        <ele>1109.1999511719</ele>
        <time>2019-04-20T14:46:09.000Z</time>
      </trkpt>
      <trkpt lat="43.91556" lon="7.32151">
        <ele>1107.8000488281</ele>
        <time>2019-04-20T14:46:11.000Z</time>
      </trkpt>
      <trkpt lat="43.91569" lon="7.32145">
        <ele>1108.5999755859</ele>
        <time>2019-04-20T14:46:15.000Z</time>
      </trkpt>
      <trkpt lat="43.91574" lon="7.32143">
        <ele>1108.4000244141</ele>
        <time>2019-04-20T14:46:16.000Z</time>
      </trkpt>
      <trkpt lat="43.91588" lon="7.32135">
        <ele>1107.1999511719</ele>
        <time>2019-04-20T14:46:19.000Z</time>
      </trkpt>
      <trkpt lat="43.91594" lon="7.3213">
        <ele>1107.1999511719</ele>
        <time>2019-04-20T14:46:20.000Z</time>
      </trkpt>
      <trkpt lat="43.91599" lon="7.32126">
        <ele>1106.5999755859</ele>
        <time>2019-04-20T14:46:21.000Z</time>
      </trkpt>
      <trkpt lat="43.91612" lon="7.32115">
        <ele>1105.5999755859</ele>
        <time>2019-04-20T14:46:23.000Z</time>
      </trkpt>
      <trkpt lat="43.91619" lon="7.32109">
        <ele>1105</ele>
        <time>2019-04-20T14:46:24.000Z</time>
      </trkpt>
      <trkpt lat="43.91625" lon="7.32102">
        <ele>1103.8000488281</ele>
        <time>2019-04-20T14:46:25.000Z</time>
      </trkpt>
      <trkpt lat="43.91631" lon="7.32096">
        <ele>1103</ele>
        <time>2019-04-20T14:46:26.000Z</time>
      </trkpt>
      <trkpt lat="43.91637" lon="7.32093">
        <ele>1101.8000488281</ele>
        <time>2019-04-20T14:46:27.000Z</time>
      </trkpt>
      <trkpt lat="43.91648" lon="7.32086">
        <ele>1101</ele>
        <time>2019-04-20T14:46:29.000Z</time>
      </trkpt>
      <trkpt lat="43.91653" lon="7.32081">
        <ele>1100.5999755859</ele>
        <time>2019-04-20T14:46:30.000Z</time>
      </trkpt>
      <trkpt lat="43.91658" lon="7.32076">
        <ele>1099.8000488281</ele>
        <time>2019-04-20T14:46:31.000Z</time>
      </trkpt>
      <trkpt lat="43.91668" lon="7.32069">
        <ele>1097.5999755859</ele>
        <time>2019-04-20T14:46:33.000Z</time>
      </trkpt>
      <trkpt lat="43.91672" lon="7.32064">
        <ele>1097</ele>
        <time>2019-04-20T14:46:34.000Z</time>
      </trkpt>
      <trkpt lat="43.91675" lon="7.32058">
        <ele>1096.1999511719</ele>
        <time>2019-04-20T14:46:35.000Z</time>
      </trkpt>
      <trkpt lat="43.91683" lon="7.32052">
        <ele>1095.1999511719</ele>
        <time>2019-04-20T14:46:37.000Z</time>
      </trkpt>
      <trkpt lat="43.91691" lon="7.32048">
        <ele>1095</ele>
        <time>2019-04-20T14:46:39.000Z</time>
      </trkpt>
      <trkpt lat="43.917" lon="7.32043">
        <ele>1094.5999755859</ele>
        <time>2019-04-20T14:46:41.000Z</time>
      </trkpt>
      <trkpt lat="43.91704" lon="7.32041">
        <ele>1094.1999511719</ele>
        <time>2019-04-20T14:46:42.000Z</time>
      </trkpt>
      <trkpt lat="43.91708" lon="7.3204">
        <ele>1094.1999511719</ele>
        <time>2019-04-20T14:46:43.000Z</time>
      </trkpt>
      <trkpt lat="43.91712" lon="7.3204">
        <ele>1093.5999755859</ele>
        <time>2019-04-20T14:46:44.000Z</time>
      </trkpt>
      <trkpt lat="43.9172" lon="7.32035">
        <ele>1091.8000488281</ele>
        <time>2019-04-20T14:46:46.000Z</time>
      </trkpt>
      <trkpt lat="43.91723" lon="7.32033">
        <ele>1091.1999511719</ele>
        <time>2019-04-20T14:46:47.000Z</time>
      </trkpt>
      <trkpt lat="43.91726" lon="7.32035">
        <ele>1090.1999511719</ele>
        <time>2019-04-20T14:46:48.000Z</time>
      </trkpt>
      <trkpt lat="43.91729" lon="7.32038">
        <ele>1089.8000488281</ele>
        <time>2019-04-20T14:46:49.000Z</time>
      </trkpt>
      <trkpt lat="43.91733" lon="7.32039">
        <ele>1089.1999511719</ele>
        <time>2019-04-20T14:46:50.000Z</time>
      </trkpt>
      <trkpt lat="43.91738" lon="7.3204">
        <ele>1089</ele>
        <time>2019-04-20T14:46:51.000Z</time>
      </trkpt>
      <trkpt lat="43.91742" lon="7.32042">
        <ele>1088.5999755859</ele>
        <time>2019-04-20T14:46:52.000Z</time>
      </trkpt>
      <trkpt lat="43.91748" lon="7.32042">
        <ele>1087.8000488281</ele>
        <time>2019-04-20T14:46:53.000Z</time>
      </trkpt>
      <trkpt lat="43.91761" lon="7.32039">
        <ele>1086.4000244141</ele>
        <time>2019-04-20T14:46:55.000Z</time>
      </trkpt>
      <trkpt lat="43.91773" lon="7.32034">
        <ele>1084</ele>
        <time>2019-04-20T14:46:57.000Z</time>
      </trkpt>
      <trkpt lat="43.91778" lon="7.32033">
        <ele>1082.5999755859</ele>
        <time>2019-04-20T14:46:58.000Z</time>
      </trkpt>
      <trkpt lat="43.91783" lon="7.32032">
        <ele>1082</ele>
        <time>2019-04-20T14:46:59.000Z</time>
      </trkpt>
      <trkpt lat="43.91789" lon="7.32031">
        <ele>1081</ele>
        <time>2019-04-20T14:47:00.000Z</time>
      </trkpt>
      <trkpt lat="43.91796" lon="7.32028">
        <ele>1079.8000488281</ele>
        <time>2019-04-20T14:47:01.000Z</time>
      </trkpt>
      <trkpt lat="43.91801" lon="7.32025">
        <ele>1078.4000244141</ele>
        <time>2019-04-20T14:47:02.000Z</time>
      </trkpt>
      <trkpt lat="43.91807" lon="7.32024">
        <ele>1077.4000244141</ele>
        <time>2019-04-20T14:47:03.000Z</time>
      </trkpt>
      <trkpt lat="43.91812" lon="7.32024">
        <ele>1075.1999511719</ele>
        <time>2019-04-20T14:47:04.000Z</time>
      </trkpt>
      <trkpt lat="43.91818" lon="7.32025">
        <ele>1073.8000488281</ele>
        <time>2019-04-20T14:47:05.000Z</time>
      </trkpt>
      <trkpt lat="43.91825" lon="7.32024">
        <ele>1072.5999755859</ele>
        <time>2019-04-20T14:47:06.000Z</time>
      </trkpt>
      <trkpt lat="43.9183" lon="7.32023">
        <ele>1071.1999511719</ele>
        <time>2019-04-20T14:47:07.000Z</time>
      </trkpt>
      <trkpt lat="43.91836" lon="7.32022">
        <ele>1069.8000488281</ele>
        <time>2019-04-20T14:47:08.000Z</time>
      </trkpt>
      <trkpt lat="43.9184" lon="7.32022">
        <ele>1069.4000244141</ele>
        <time>2019-04-20T14:47:09.000Z</time>
      </trkpt>
      <trkpt lat="43.91846" lon="7.32022">
        <ele>1068.5999755859</ele>
        <time>2019-04-20T14:47:10.000Z</time>
      </trkpt>
      <trkpt lat="43.91854" lon="7.32026">
        <ele>1066.8000488281</ele>
        <time>2019-04-20T14:47:12.000Z</time>
      </trkpt>
      <trkpt lat="43.91857" lon="7.32028">
        <ele>1065.8000488281</ele>
        <time>2019-04-20T14:47:13.000Z</time>
      </trkpt>
      <trkpt lat="43.91864" lon="7.3203">
        <ele>1063.8000488281</ele>
        <time>2019-04-20T14:47:15.000Z</time>
      </trkpt>
      <trkpt lat="43.91867" lon="7.32029">
        <ele>1062.5999755859</ele>
        <time>2019-04-20T14:47:16.000Z</time>
      </trkpt>
      <trkpt lat="43.91872" lon="7.32026">
        <ele>1061.1999511719</ele>
        <time>2019-04-20T14:47:17.000Z</time>
      </trkpt>
      <trkpt lat="43.91876" lon="7.32023">
        <ele>1060</ele>
        <time>2019-04-20T14:47:18.000Z</time>
      </trkpt>
      <trkpt lat="43.91892" lon="7.32019">
        <ele>1055.1999511719</ele>
        <time>2019-04-20T14:47:21.000Z</time>
      </trkpt>
      <trkpt lat="43.91897" lon="7.32021">
        <ele>1054</ele>
        <time>2019-04-20T14:47:22.000Z</time>
      </trkpt>
      <trkpt lat="43.91901" lon="7.32022">
        <ele>1052.8000488281</ele>
        <time>2019-04-20T14:47:23.000Z</time>
      </trkpt>
      <trkpt lat="43.91909" lon="7.3202">
        <ele>1050.5999755859</ele>
        <time>2019-04-20T14:47:25.000Z</time>
      </trkpt>
      <trkpt lat="43.91916" lon="7.32013">
        <ele>1049.4000244141</ele>
        <time>2019-04-20T14:47:27.000Z</time>
      </trkpt>
      <trkpt lat="43.9192" lon="7.32009">
        <ele>1048</ele>
        <time>2019-04-20T14:47:28.000Z</time>
      </trkpt>
      <trkpt lat="43.91925" lon="7.32006">
        <ele>1047</ele>
        <time>2019-04-20T14:47:29.000Z</time>
      </trkpt>
      <trkpt lat="43.91935" lon="7.32003">
        <ele>1045.1999511719</ele>
        <time>2019-04-20T14:47:31.000Z</time>
      </trkpt>
      <trkpt lat="43.91939" lon="7.32002">
        <ele>1044.8000488281</ele>
        <time>2019-04-20T14:47:32.000Z</time>
      </trkpt>
      <trkpt lat="43.91943" lon="7.32">
        <ele>1044</ele>
        <time>2019-04-20T14:47:33.000Z</time>
      </trkpt>
      <trkpt lat="43.91947" lon="7.31999">
        <ele>1042.5999755859</ele>
        <time>2019-04-20T14:47:34.000Z</time>
      </trkpt>
      <trkpt lat="43.9195" lon="7.31997">
        <ele>1041.4000244141</ele>
        <time>2019-04-20T14:47:35.000Z</time>
      </trkpt>
      <trkpt lat="43.91951" lon="7.31995">
        <ele>1040.1999511719</ele>
        <time>2019-04-20T14:47:36.000Z</time>
      </trkpt>
      <trkpt lat="43.91954" lon="7.31991">
        <ele>1038.8000488281</ele>
        <time>2019-04-20T14:47:37.000Z</time>
      </trkpt>
      <trkpt lat="43.9196" lon="7.3199">
        <ele>1037.1999511719</ele>
        <time>2019-04-20T14:47:39.000Z</time>
      </trkpt>
      <trkpt lat="43.9197" lon="7.31988">
        <ele>1035.5999755859</ele>
        <time>2019-04-20T14:47:41.000Z</time>
      </trkpt>
      <trkpt lat="43.91973" lon="7.31986">
        <ele>1034.8000488281</ele>
        <time>2019-04-20T14:47:42.000Z</time>
      </trkpt>
      <trkpt lat="43.91974" lon="7.31984">
        <ele>1033.8000488281</ele>
        <time>2019-04-20T14:47:43.000Z</time>
      </trkpt>
      <trkpt lat="43.91978" lon="7.31981">
        <ele>1032.1999511719</ele>
        <time>2019-04-20T14:47:45.000Z</time>
      </trkpt>
      <trkpt lat="43.91978" lon="7.31981">
        <ele>1031.8000488281</ele>
        <time>2019-04-20T14:47:46.000Z</time>
      </trkpt>
      <trkpt lat="43.9198" lon="7.3198">
        <ele>1031</ele>
        <time>2019-04-20T14:47:47.000Z</time>
      </trkpt>
      <trkpt lat="43.91981" lon="7.31978">
        <ele>1030</ele>
        <time>2019-04-20T14:47:51.000Z</time>
      </trkpt>
      <trkpt lat="43.91982" lon="7.31978">
        <ele>1030</ele>
        <time>2019-04-20T14:47:53.000Z</time>
      </trkpt>
      <trkpt lat="43.91987" lon="7.31974">
        <ele>1029.4000244141</ele>
        <time>2019-04-20T14:47:59.000Z</time>
      </trkpt>
      <trkpt lat="43.91992" lon="7.31965">
        <ele>1029</ele>
        <time>2019-04-20T14:48:04.000Z</time>
      </trkpt>
      <trkpt lat="43.91993" lon="7.31963">
        <ele>1029</ele>
        <time>2019-04-20T14:48:05.000Z</time>
      </trkpt>
      <trkpt lat="43.91997" lon="7.31955">
        <ele>1028.5999755859</ele>
        <time>2019-04-20T14:48:08.000Z</time>
      </trkpt>
      <trkpt lat="43.92" lon="7.3195">
        <ele>1027.8000488281</ele>
        <time>2019-04-20T14:48:10.000Z</time>
      </trkpt>
      <trkpt lat="43.92006" lon="7.31946">
        <ele>1027</ele>
        <time>2019-04-20T14:48:12.000Z</time>
      </trkpt>
      <trkpt lat="43.92009" lon="7.31943">
        <ele>1026.5999755859</ele>
        <time>2019-04-20T14:48:13.000Z</time>
      </trkpt>
      <trkpt lat="43.92014" lon="7.31931">
        <ele>1024.8000488281</ele>
        <time>2019-04-20T14:48:16.000Z</time>
      </trkpt>
      <trkpt lat="43.92016" lon="7.31925">
        <ele>1023.799987793</ele>
        <time>2019-04-20T14:48:17.000Z</time>
      </trkpt>
      <trkpt lat="43.92018" lon="7.31919">
        <ele>1022.5999755859</ele>
        <time>2019-04-20T14:48:18.000Z</time>
      </trkpt>
      <trkpt lat="43.92019" lon="7.31914">
        <ele>1022</ele>
        <time>2019-04-20T14:48:19.000Z</time>
      </trkpt>
      <trkpt lat="43.92022" lon="7.31905">
        <ele>1020.5999755859</ele>
        <time>2019-04-20T14:48:20.000Z</time>
      </trkpt>
      <trkpt lat="43.92026" lon="7.31897">
        <ele>1019.5999755859</ele>
        <time>2019-04-20T14:48:21.000Z</time>
      </trkpt>
      <trkpt lat="43.92028" lon="7.3189">
        <ele>1018.4000244141</ele>
        <time>2019-04-20T14:48:22.000Z</time>
      </trkpt>
      <trkpt lat="43.9203" lon="7.31882">
        <ele>1017.4000244141</ele>
        <time>2019-04-20T14:48:23.000Z</time>
      </trkpt>
      <trkpt lat="43.92033" lon="7.31875">
        <ele>1016.200012207</ele>
        <time>2019-04-20T14:48:24.000Z</time>
      </trkpt>
      <trkpt lat="43.92035" lon="7.31858">
        <ele>1014.799987793</ele>
        <time>2019-04-20T14:48:26.000Z</time>
      </trkpt>
      <trkpt lat="43.92034" lon="7.3185">
        <ele>1014.4000244141</ele>
        <time>2019-04-20T14:48:27.000Z</time>
      </trkpt>
      <trkpt lat="43.92036" lon="7.31834">
        <ele>1013.200012207</ele>
        <time>2019-04-20T14:48:29.000Z</time>
      </trkpt>
      <trkpt lat="43.92038" lon="7.31827">
        <ele>1012.799987793</ele>
        <time>2019-04-20T14:48:30.000Z</time>
      </trkpt>
      <trkpt lat="43.92039" lon="7.31821">
        <ele>1012.200012207</ele>
        <time>2019-04-20T14:48:31.000Z</time>
      </trkpt>
      <trkpt lat="43.92039" lon="7.31815">
        <ele>1011.4000244141</ele>
        <time>2019-04-20T14:48:32.000Z</time>
      </trkpt>
      <trkpt lat="43.92039" lon="7.31809">
        <ele>1010.5999755859</ele>
        <time>2019-04-20T14:48:33.000Z</time>
      </trkpt>
      <trkpt lat="43.92037" lon="7.31803">
        <ele>1009.5999755859</ele>
        <time>2019-04-20T14:48:34.000Z</time>
      </trkpt>
      <trkpt lat="43.92037" lon="7.31796">
        <ele>1008.5999755859</ele>
        <time>2019-04-20T14:48:35.000Z</time>
      </trkpt>
      <trkpt lat="43.92039" lon="7.31792">
        <ele>1008</ele>
        <time>2019-04-20T14:48:36.000Z</time>
      </trkpt>
      <trkpt lat="43.92048" lon="7.31792">
        <ele>1007.5999755859</ele>
        <time>2019-04-20T14:48:38.000Z</time>
      </trkpt>
      <trkpt lat="43.92051" lon="7.31793">
        <ele>1007.4000244141</ele>
        <time>2019-04-20T14:48:39.000Z</time>
      </trkpt>
      <trkpt lat="43.92057" lon="7.31789">
        <ele>1007.4000244141</ele>
        <time>2019-04-20T14:48:41.000Z</time>
      </trkpt>
      <trkpt lat="43.92067" lon="7.31785">
        <ele>1008.4000244141</ele>
        <time>2019-04-20T14:48:45.000Z</time>
      </trkpt>
      <trkpt lat="43.92075" lon="7.31778">
        <ele>1009.5999755859</ele>
        <time>2019-04-20T14:48:49.000Z</time>
      </trkpt>
      <trkpt lat="43.92077" lon="7.31776">
        <ele>1009.5999755859</ele>
        <time>2019-04-20T14:48:50.000Z</time>
      </trkpt>
      <trkpt lat="43.92084" lon="7.31771">
        <ele>1010.5999755859</ele>
        <time>2019-04-20T14:48:54.000Z</time>
      </trkpt>
      <trkpt lat="43.92088" lon="7.31768">
        <ele>1010.799987793</ele>
        <time>2019-04-20T14:48:55.000Z</time>
      </trkpt>
      <trkpt lat="43.92091" lon="7.31766">
        <ele>1011.4000244141</ele>
        <time>2019-04-20T14:48:58.000Z</time>
      </trkpt>
      <trkpt lat="43.92094" lon="7.31763">
        <ele>1011.4000244141</ele>
        <time>2019-04-20T14:49:00.000Z</time>
      </trkpt>
      <trkpt lat="43.92103" lon="7.31756">
        <ele>1011.4000244141</ele>
        <time>2019-04-20T14:49:02.000Z</time>
      </trkpt>
      <trkpt lat="43.92113" lon="7.3175">
        <ele>1011.4000244141</ele>
        <time>2019-04-20T14:49:05.000Z</time>
      </trkpt>
      <trkpt lat="43.92123" lon="7.31747">
        <ele>1011.200012207</ele>
        <time>2019-04-20T14:49:08.000Z</time>
      </trkpt>
      <trkpt lat="43.9213" lon="7.31734">
        <ele>1010.5999755859</ele>
        <time>2019-04-20T14:49:13.000Z</time>
      </trkpt>
      <trkpt lat="43.92131" lon="7.31732">
        <ele>1011</ele>
        <time>2019-04-20T14:49:14.000Z</time>
      </trkpt>
      <trkpt lat="43.92135" lon="7.31728">
        <ele>1012</ele>
        <time>2019-04-20T14:49:16.000Z</time>
      </trkpt>
      <trkpt lat="43.92137" lon="7.31722">
        <ele>1012.799987793</ele>
        <time>2019-04-20T14:49:18.000Z</time>
      </trkpt>
      <trkpt lat="43.92138" lon="7.31719">
        <ele>1013</ele>
        <time>2019-04-20T14:49:19.000Z</time>
      </trkpt>
      <trkpt lat="43.92139" lon="7.3171">
        <ele>1012.799987793</ele>
        <time>2019-04-20T14:49:22.000Z</time>
      </trkpt>
      <trkpt lat="43.92143" lon="7.31688">
        <ele>1012.799987793</ele>
        <time>2019-04-20T14:49:26.000Z</time>
      </trkpt>
      <trkpt lat="43.92147" lon="7.31667">
        <ele>1011.799987793</ele>
        <time>2019-04-20T14:49:30.000Z</time>
      </trkpt>
      <trkpt lat="43.92148" lon="7.31657">
        <ele>1011.799987793</ele>
        <time>2019-04-20T14:49:32.000Z</time>
      </trkpt>
      <trkpt lat="43.92149" lon="7.31647">
        <ele>1011.5999755859</ele>
        <time>2019-04-20T14:49:34.000Z</time>
      </trkpt>
      <trkpt lat="43.92154" lon="7.31625">
        <ele>1011.200012207</ele>
        <time>2019-04-20T14:49:38.000Z</time>
      </trkpt>
      <trkpt lat="43.92152" lon="7.31613">
        <ele>1011</ele>
        <time>2019-04-20T14:49:41.000Z</time>
      </trkpt>
      <trkpt lat="43.92151" lon="7.31607">
        <ele>1011</ele>
        <time>2019-04-20T14:49:42.000Z</time>
      </trkpt>
      <trkpt lat="43.92151" lon="7.316">
        <ele>1010.799987793</ele>
        <time>2019-04-20T14:49:43.000Z</time>
      </trkpt>
      <trkpt lat="43.92157" lon="7.31591">
        <ele>1009.5999755859</ele>
        <time>2019-04-20T14:49:45.000Z</time>
      </trkpt>
      <trkpt lat="43.92162" lon="7.31584">
        <ele>1009.200012207</ele>
        <time>2019-04-20T14:49:48.000Z</time>
      </trkpt>
      <trkpt lat="43.92164" lon="7.31581">
        <ele>1010.4000244141</ele>
        <time>2019-04-20T14:49:50.000Z</time>
      </trkpt>
      <trkpt lat="43.92165" lon="7.31579">
        <ele>1011</ele>
        <time>2019-04-20T14:49:51.000Z</time>
      </trkpt>
      <trkpt lat="43.92165" lon="7.31579">
        <ele>1011.5999755859</ele>
        <time>2019-04-20T14:49:52.000Z</time>
      </trkpt>
      <trkpt lat="43.92168" lon="7.31573">
        <ele>1012.200012207</ele>
        <time>2019-04-20T14:49:54.000Z</time>
      </trkpt>
      <trkpt lat="43.9217" lon="7.31569">
        <ele>1013</ele>
        <time>2019-04-20T14:49:57.000Z</time>
      </trkpt>
      <trkpt lat="43.9217" lon="7.31565">
        <ele>1013.4000244141</ele>
        <time>2019-04-20T14:49:59.000Z</time>
      </trkpt>
      <trkpt lat="43.92171" lon="7.31563">
        <ele>1013.5999755859</ele>
        <time>2019-04-20T14:50:00.000Z</time>
      </trkpt>
      <trkpt lat="43.92172" lon="7.31561">
        <ele>1013.799987793</ele>
        <time>2019-04-20T14:50:01.000Z</time>
      </trkpt>
      <trkpt lat="43.92174" lon="7.31555">
        <ele>1014.5999755859</ele>
        <time>2019-04-20T14:50:04.000Z</time>
      </trkpt>
      <trkpt lat="43.92176" lon="7.31549">
        <ele>1015.200012207</ele>
        <time>2019-04-20T14:50:06.000Z</time>
      </trkpt>
      <trkpt lat="43.9218" lon="7.31539">
        <ele>1015.4000244141</ele>
        <time>2019-04-20T14:50:09.000Z</time>
      </trkpt>
      <trkpt lat="43.92182" lon="7.31532">
        <ele>1015.200012207</ele>
        <time>2019-04-20T14:50:11.000Z</time>
      </trkpt>
      <trkpt lat="43.92183" lon="7.31523">
        <ele>1015.200012207</ele>
        <time>2019-04-20T14:50:14.000Z</time>
      </trkpt>
      <trkpt lat="43.92184" lon="7.3152">
        <ele>1015.200012207</ele>
        <time>2019-04-20T14:50:15.000Z</time>
      </trkpt>
      <trkpt lat="43.92186" lon="7.31517">
        <ele>1015.200012207</ele>
        <time>2019-04-20T14:50:18.000Z</time>
      </trkpt>
      <trkpt lat="43.92187" lon="7.31514">
        <ele>1015.200012207</ele>
        <time>2019-04-20T14:50:19.000Z</time>
      </trkpt>
      <trkpt lat="43.9219" lon="7.31502">
        <ele>1015</ele>
        <time>2019-04-20T14:50:23.000Z</time>
      </trkpt>
      <trkpt lat="43.92191" lon="7.31499">
        <ele>1015</ele>
        <time>2019-04-20T14:50:24.000Z</time>
      </trkpt>
      <trkpt lat="43.92191" lon="7.31494">
        <ele>1015.200012207</ele>
        <time>2019-04-20T14:50:26.000Z</time>
      </trkpt>
      <trkpt lat="43.92192" lon="7.31491">
        <ele>1015.4000244141</ele>
        <time>2019-04-20T14:50:27.000Z</time>
      </trkpt>
      <trkpt lat="43.92197" lon="7.31476">
        <ele>1015.200012207</ele>
        <time>2019-04-20T14:50:31.000Z</time>
      </trkpt>
      <trkpt lat="43.92199" lon="7.31464">
        <ele>1015.5999755859</ele>
        <time>2019-04-20T14:50:34.000Z</time>
      </trkpt>
      <trkpt lat="43.92199" lon="7.31456">
        <ele>1015.200012207</ele>
        <time>2019-04-20T14:50:36.000Z</time>
      </trkpt>
      <trkpt lat="43.92201" lon="7.31452">
        <ele>1015</ele>
        <time>2019-04-20T14:50:37.000Z</time>
      </trkpt>
      <trkpt lat="43.92202" lon="7.31442">
        <ele>1015.200012207</ele>
        <time>2019-04-20T14:50:39.000Z</time>
      </trkpt>
      <trkpt lat="43.92206" lon="7.31427">
        <ele>1015.5999755859</ele>
        <time>2019-04-20T14:50:43.000Z</time>
      </trkpt>
      <trkpt lat="43.92208" lon="7.3141">
        <ele>1016.200012207</ele>
        <time>2019-04-20T14:50:47.000Z</time>
      </trkpt>
      <trkpt lat="43.92209" lon="7.31402">
        <ele>1016.5999755859</ele>
        <time>2019-04-20T14:50:49.000Z</time>
      </trkpt>
      <trkpt lat="43.92211" lon="7.31392">
        <ele>1017</ele>
        <time>2019-04-20T14:50:52.000Z</time>
      </trkpt>
      <trkpt lat="43.9221" lon="7.31389">
        <ele>1017.200012207</ele>
        <time>2019-04-20T14:50:53.000Z</time>
      </trkpt>
      <trkpt lat="43.92208" lon="7.31385">
        <ele>1017.5999755859</ele>
        <time>2019-04-20T14:50:55.000Z</time>
      </trkpt>
      <trkpt lat="43.92208" lon="7.31376">
        <ele>1017.5999755859</ele>
        <time>2019-04-20T14:50:57.000Z</time>
      </trkpt>
      <trkpt lat="43.92213" lon="7.31358">
        <ele>1016.5999755859</ele>
        <time>2019-04-20T14:51:00.000Z</time>
      </trkpt>
      <trkpt lat="43.92216" lon="7.3134">
        <ele>1015</ele>
        <time>2019-04-20T14:51:03.000Z</time>
      </trkpt>
      <trkpt lat="43.92217" lon="7.31332">
        <ele>1014.4000244141</ele>
        <time>2019-04-20T14:51:04.000Z</time>
      </trkpt>
      <trkpt lat="43.92219" lon="7.31325">
        <ele>1013.799987793</ele>
        <time>2019-04-20T14:51:05.000Z</time>
      </trkpt>
      <trkpt lat="43.92219" lon="7.31318">
        <ele>1012.5999755859</ele>
        <time>2019-04-20T14:51:06.000Z</time>
      </trkpt>
      <trkpt lat="43.92221" lon="7.31303">
        <ele>1011.4000244141</ele>
        <time>2019-04-20T14:51:08.000Z</time>
      </trkpt>
      <trkpt lat="43.92225" lon="7.31282">
        <ele>1011.200012207</ele>
        <time>2019-04-20T14:51:11.000Z</time>
      </trkpt>
      <trkpt lat="43.92227" lon="7.31267">
        <ele>1011</ele>
        <time>2019-04-20T14:51:13.000Z</time>
      </trkpt>
      <trkpt lat="43.92226" lon="7.31253">
        <ele>1010.200012207</ele>
        <time>2019-04-20T14:51:15.000Z</time>
      </trkpt>
      <trkpt lat="43.92225" lon="7.3124">
        <ele>1009.200012207</ele>
        <time>2019-04-20T14:51:17.000Z</time>
      </trkpt>
      <trkpt lat="43.92224" lon="7.31226">
        <ele>1008.5999755859</ele>
        <time>2019-04-20T14:51:19.000Z</time>
      </trkpt>
      <trkpt lat="43.92223" lon="7.31217">
        <ele>1008.200012207</ele>
        <time>2019-04-20T14:51:20.000Z</time>
      </trkpt>
      <trkpt lat="43.92223" lon="7.31202">
        <ele>1006.799987793</ele>
        <time>2019-04-20T14:51:22.000Z</time>
      </trkpt>
      <trkpt lat="43.92226" lon="7.31196">
        <ele>1005.799987793</ele>
        <time>2019-04-20T14:51:23.000Z</time>
      </trkpt>
      <trkpt lat="43.92228" lon="7.31191">
        <ele>1005.4000244141</ele>
        <time>2019-04-20T14:51:24.000Z</time>
      </trkpt>
      <trkpt lat="43.92231" lon="7.31184">
        <ele>1005.200012207</ele>
        <time>2019-04-20T14:51:25.000Z</time>
      </trkpt>
      <trkpt lat="43.92237" lon="7.31171">
        <ele>1004.4000244141</ele>
        <time>2019-04-20T14:51:27.000Z</time>
      </trkpt>
      <trkpt lat="43.92239" lon="7.31164">
        <ele>1003.799987793</ele>
        <time>2019-04-20T14:51:28.000Z</time>
      </trkpt>
      <trkpt lat="43.92241" lon="7.31157">
        <ele>1002.5999755859</ele>
        <time>2019-04-20T14:51:29.000Z</time>
      </trkpt>
      <trkpt lat="43.92241" lon="7.3115">
        <ele>1001.4000244141</ele>
        <time>2019-04-20T14:51:30.000Z</time>
      </trkpt>
      <trkpt lat="43.9224" lon="7.31138">
        <ele>1000.200012207</ele>
        <time>2019-04-20T14:51:32.000Z</time>
      </trkpt>
      <trkpt lat="43.92241" lon="7.31126">
        <ele>999.79998779297</ele>
        <time>2019-04-20T14:51:34.000Z</time>
      </trkpt>
      <trkpt lat="43.92239" lon="7.31119">
        <ele>999.20001220703</ele>
        <time>2019-04-20T14:51:35.000Z</time>
      </trkpt>
      <trkpt lat="43.92239" lon="7.31111">
        <ele>998</ele>
        <time>2019-04-20T14:51:36.000Z</time>
      </trkpt>
      <trkpt lat="43.92238" lon="7.31103">
        <ele>997</ele>
        <time>2019-04-20T14:51:37.000Z</time>
      </trkpt>
      <trkpt lat="43.92238" lon="7.31097">
        <ele>995.59997558594</ele>
        <time>2019-04-20T14:51:38.000Z</time>
      </trkpt>
      <trkpt lat="43.92237" lon="7.31089">
        <ele>994.40002441406</ele>
        <time>2019-04-20T14:51:39.000Z</time>
      </trkpt>
      <trkpt lat="43.92236" lon="7.31083">
        <ele>993</ele>
        <time>2019-04-20T14:51:40.000Z</time>
      </trkpt>
      <trkpt lat="43.92236" lon="7.31076">
        <ele>992.59997558594</ele>
        <time>2019-04-20T14:51:41.000Z</time>
      </trkpt>
      <trkpt lat="43.92236" lon="7.31069">
        <ele>992</ele>
        <time>2019-04-20T14:51:42.000Z</time>
      </trkpt>
      <trkpt lat="43.92238" lon="7.31049">
        <ele>991.59997558594</ele>
        <time>2019-04-20T14:51:45.000Z</time>
      </trkpt>
      <trkpt lat="43.92239" lon="7.31027">
        <ele>991.40002441406</ele>
        <time>2019-04-20T14:51:49.000Z</time>
      </trkpt>
      <trkpt lat="43.92239" lon="7.31022">
        <ele>990.79998779297</ele>
        <time>2019-04-20T14:51:50.000Z</time>
      </trkpt>
      <trkpt lat="43.92238" lon="7.31003">
        <ele>991</ele>
        <time>2019-04-20T14:51:54.000Z</time>
      </trkpt>
      <trkpt lat="43.92238" lon="7.31">
        <ele>991.40002441406</ele>
        <time>2019-04-20T14:51:55.000Z</time>
      </trkpt>
      <trkpt lat="43.92236" lon="7.30989">
        <ele>991.59997558594</ele>
        <time>2019-04-20T14:51:57.000Z</time>
      </trkpt>
      <trkpt lat="43.92237" lon="7.30981">
        <ele>990.59997558594</ele>
        <time>2019-04-20T14:52:00.000Z</time>
      </trkpt>
      <trkpt lat="43.92237" lon="7.30976">
        <ele>990.40002441406</ele>
        <time>2019-04-20T14:52:03.000Z</time>
      </trkpt>
      <trkpt lat="43.92238" lon="7.30973">
        <ele>990.20001220703</ele>
        <time>2019-04-20T14:52:05.000Z</time>
      </trkpt>
      <trkpt lat="43.92242" lon="7.30967">
        <ele>990.79998779297</ele>
        <time>2019-04-20T14:52:10.000Z</time>
      </trkpt>
      <trkpt lat="43.92244" lon="7.30965">
        <ele>991.40002441406</ele>
        <time>2019-04-20T14:52:15.000Z</time>
      </trkpt>
      <trkpt lat="43.92246" lon="7.30964">
        <ele>991.40002441406</ele>
        <time>2019-04-20T14:52:18.000Z</time>
      </trkpt>
      <trkpt lat="43.92247" lon="7.30963">
        <ele>991.59997558594</ele>
        <time>2019-04-20T14:52:19.000Z</time>
      </trkpt>
      <trkpt lat="43.92249" lon="7.3096">
        <ele>992.20001220703</ele>
        <time>2019-04-20T14:52:21.000Z</time>
      </trkpt>
      <trkpt lat="43.92251" lon="7.30961">
        <ele>992.59997558594</ele>
        <time>2019-04-20T14:52:22.000Z</time>
      </trkpt>
      <trkpt lat="43.92251" lon="7.30961">
        <ele>993</ele>
        <time>2019-04-20T14:52:23.000Z</time>
      </trkpt>
      <trkpt lat="43.92252" lon="7.30963">
        <ele>993.20001220703</ele>
        <time>2019-04-20T14:52:24.000Z</time>
      </trkpt>
      <trkpt lat="43.92256" lon="7.3097">
        <ele>993.59997558594</ele>
        <time>2019-04-20T14:52:28.000Z</time>
      </trkpt>
      <trkpt lat="43.9226" lon="7.30974">
        <ele>993.20001220703</ele>
        <time>2019-04-20T14:52:30.000Z</time>
      </trkpt>
      <trkpt lat="43.92266" lon="7.30979">
        <ele>992.40002441406</ele>
        <time>2019-04-20T14:52:32.000Z</time>
      </trkpt>
      <trkpt lat="43.92268" lon="7.30981">
        <ele>991.79998779297</ele>
        <time>2019-04-20T14:52:33.000Z</time>
      </trkpt>
      <trkpt lat="43.92277" lon="7.30985">
        <ele>991.20001220703</ele>
        <time>2019-04-20T14:52:37.000Z</time>
      </trkpt>
      <trkpt lat="43.92281" lon="7.30986">
        <ele>991.79998779297</ele>
        <time>2019-04-20T14:52:39.000Z</time>
      </trkpt>
      <trkpt lat="43.92285" lon="7.30987">
        <ele>992.40002441406</ele>
        <time>2019-04-20T14:52:41.000Z</time>
      </trkpt>
      <trkpt lat="43.92289" lon="7.3099">
        <ele>993.20001220703</ele>
        <time>2019-04-20T14:52:43.000Z</time>
      </trkpt>
      <trkpt lat="43.92295" lon="7.30991">
        <ele>993.20001220703</ele>
        <time>2019-04-20T14:52:45.000Z</time>
      </trkpt>
      <trkpt lat="43.92306" lon="7.30992">
        <ele>993</ele>
        <time>2019-04-20T14:52:49.000Z</time>
      </trkpt>
      <trkpt lat="43.92317" lon="7.3099">
        <ele>993.79998779297</ele>
        <time>2019-04-20T14:52:54.000Z</time>
      </trkpt>
      <trkpt lat="43.9232" lon="7.30992">
        <ele>994.59997558594</ele>
        <time>2019-04-20T14:52:56.000Z</time>
      </trkpt>
      <trkpt lat="43.92326" lon="7.30995">
        <ele>995.40002441406</ele>
        <time>2019-04-20T14:52:59.000Z</time>
      </trkpt>
      <trkpt lat="43.92329" lon="7.30997">
        <ele>995.20001220703</ele>
        <time>2019-04-20T14:53:00.000Z</time>
      </trkpt>
      <trkpt lat="43.92334" lon="7.31001">
        <ele>994.79998779297</ele>
        <time>2019-04-20T14:53:02.000Z</time>
      </trkpt>
      <trkpt lat="43.92337" lon="7.31004">
        <ele>994.40002441406</ele>
        <time>2019-04-20T14:53:03.000Z</time>
      </trkpt>
      <trkpt lat="43.92341" lon="7.31009">
        <ele>993.40002441406</ele>
        <time>2019-04-20T14:53:05.000Z</time>
      </trkpt>
      <trkpt lat="43.92344" lon="7.31012">
        <ele>992.59997558594</ele>
        <time>2019-04-20T14:53:06.000Z</time>
      </trkpt>
      <trkpt lat="43.92347" lon="7.31014">
        <ele>992</ele>
        <time>2019-04-20T14:53:07.000Z</time>
      </trkpt>
      <trkpt lat="43.9235" lon="7.31013">
        <ele>991.20001220703</ele>
        <time>2019-04-20T14:53:08.000Z</time>
      </trkpt>
      <trkpt lat="43.92353" lon="7.31015">
        <ele>990.40002441406</ele>
        <time>2019-04-20T14:53:09.000Z</time>
      </trkpt>
      <trkpt lat="43.92355" lon="7.31016">
        <ele>989.79998779297</ele>
        <time>2019-04-20T14:53:10.000Z</time>
      </trkpt>
      <trkpt lat="43.92356" lon="7.31018">
        <ele>989.40002441406</ele>
        <time>2019-04-20T14:53:11.000Z</time>
      </trkpt>
      <trkpt lat="43.92359" lon="7.3102">
        <ele>988</ele>
        <time>2019-04-20T14:53:13.000Z</time>
      </trkpt>
      <trkpt lat="43.92362" lon="7.31025">
        <ele>987</ele>
        <time>2019-04-20T14:53:15.000Z</time>
      </trkpt>
      <trkpt lat="43.92363" lon="7.31028">
        <ele>985.79998779297</ele>
        <time>2019-04-20T14:53:16.000Z</time>
      </trkpt>
      <trkpt lat="43.92365" lon="7.31033">
        <ele>984.79998779297</ele>
        <time>2019-04-20T14:53:18.000Z</time>
      </trkpt>
      <trkpt lat="43.92368" lon="7.31036">
        <ele>983.40002441406</ele>
        <time>2019-04-20T14:53:20.000Z</time>
      </trkpt>
      <trkpt lat="43.9237" lon="7.31038">
        <ele>982.79998779297</ele>
        <time>2019-04-20T14:53:21.000Z</time>
      </trkpt>
      <trkpt lat="43.92373" lon="7.3104">
        <ele>982.20001220703</ele>
        <time>2019-04-20T14:53:22.000Z</time>
      </trkpt>
      <trkpt lat="43.92378" lon="7.31045">
        <ele>980.40002441406</ele>
        <time>2019-04-20T14:53:24.000Z</time>
      </trkpt>
      <trkpt lat="43.9238" lon="7.31046">
        <ele>979.40002441406</ele>
        <time>2019-04-20T14:53:25.000Z</time>
      </trkpt>
      <trkpt lat="43.92386" lon="7.31046">
        <ele>977.20001220703</ele>
        <time>2019-04-20T14:53:27.000Z</time>
      </trkpt>
      <trkpt lat="43.92388" lon="7.31046">
        <ele>976.20001220703</ele>
        <time>2019-04-20T14:53:28.000Z</time>
      </trkpt>
      <trkpt lat="43.92391" lon="7.31045">
        <ele>975.20001220703</ele>
        <time>2019-04-20T14:53:29.000Z</time>
      </trkpt>
      <trkpt lat="43.92393" lon="7.31045">
        <ele>974.20001220703</ele>
        <time>2019-04-20T14:53:30.000Z</time>
      </trkpt>
      <trkpt lat="43.92397" lon="7.31046">
        <ele>973</ele>
        <time>2019-04-20T14:53:31.000Z</time>
      </trkpt>
      <trkpt lat="43.924" lon="7.31047">
        <ele>972.40002441406</ele>
        <time>2019-04-20T14:53:32.000Z</time>
      </trkpt>
      <trkpt lat="43.92403" lon="7.31048">
        <ele>971.20001220703</ele>
        <time>2019-04-20T14:53:33.000Z</time>
      </trkpt>
      <trkpt lat="43.92406" lon="7.3105">
        <ele>970</ele>
        <time>2019-04-20T14:53:34.000Z</time>
      </trkpt>
      <trkpt lat="43.92409" lon="7.3105">
        <ele>968.79998779297</ele>
        <time>2019-04-20T14:53:35.000Z</time>
      </trkpt>
      <trkpt lat="43.92412" lon="7.31052">
        <ele>967.40002441406</ele>
        <time>2019-04-20T14:53:36.000Z</time>
      </trkpt>
      <trkpt lat="43.92414" lon="7.31052">
        <ele>966</ele>
        <time>2019-04-20T14:53:37.000Z</time>
      </trkpt>
      <trkpt lat="43.92416" lon="7.31052">
        <ele>964.79998779297</ele>
        <time>2019-04-20T14:53:38.000Z</time>
      </trkpt>
      <trkpt lat="43.9242" lon="7.31053">
        <ele>963.79998779297</ele>
        <time>2019-04-20T14:53:39.000Z</time>
      </trkpt>
      <trkpt lat="43.92425" lon="7.31055">
        <ele>962.79998779297</ele>
        <time>2019-04-20T14:53:40.000Z</time>
      </trkpt>
      <trkpt lat="43.92428" lon="7.31056">
        <ele>961.59997558594</ele>
        <time>2019-04-20T14:53:41.000Z</time>
      </trkpt>
      <trkpt lat="43.9243" lon="7.31058">
        <ele>960.79998779297</ele>
        <time>2019-04-20T14:53:42.000Z</time>
      </trkpt>
      <trkpt lat="43.92431" lon="7.3106">
        <ele>959.59997558594</ele>
        <time>2019-04-20T14:53:43.000Z</time>
      </trkpt>
      <trkpt lat="43.92434" lon="7.3106">
        <ele>958.59997558594</ele>
        <time>2019-04-20T14:53:44.000Z</time>
      </trkpt>
      <trkpt lat="43.92437" lon="7.31061">
        <ele>957.40002441406</ele>
        <time>2019-04-20T14:53:45.000Z</time>
      </trkpt>
      <trkpt lat="43.92439" lon="7.31061">
        <ele>955.59997558594</ele>
        <time>2019-04-20T14:53:46.000Z</time>
      </trkpt>
      <trkpt lat="43.92443" lon="7.31064">
        <ele>954.20001220703</ele>
        <time>2019-04-20T14:53:47.000Z</time>
      </trkpt>
      <trkpt lat="43.92447" lon="7.31064">
        <ele>952.79998779297</ele>
        <time>2019-04-20T14:53:48.000Z</time>
      </trkpt>
      <trkpt lat="43.9245" lon="7.31066">
        <ele>951.59997558594</ele>
        <time>2019-04-20T14:53:49.000Z</time>
      </trkpt>
      <trkpt lat="43.92453" lon="7.31065">
        <ele>950.20001220703</ele>
        <time>2019-04-20T14:53:50.000Z</time>
      </trkpt>
      <trkpt lat="43.92464" lon="7.31063">
        <ele>948.59997558594</ele>
        <time>2019-04-20T14:53:52.000Z</time>
      </trkpt>
      <trkpt lat="43.92471" lon="7.31065">
        <ele>947</ele>
        <time>2019-04-20T14:53:54.000Z</time>
      </trkpt>
      <trkpt lat="43.92475" lon="7.31065">
        <ele>946</ele>
        <time>2019-04-20T14:53:55.000Z</time>
      </trkpt>
      <trkpt lat="43.92478" lon="7.31064">
        <ele>944.79998779297</ele>
        <time>2019-04-20T14:53:56.000Z</time>
      </trkpt>
      <trkpt lat="43.92482" lon="7.31063">
        <ele>943.79998779297</ele>
        <time>2019-04-20T14:53:57.000Z</time>
      </trkpt>
      <trkpt lat="43.9249" lon="7.31063">
        <ele>941.79998779297</ele>
        <time>2019-04-20T14:53:59.000Z</time>
      </trkpt>
      <trkpt lat="43.92498" lon="7.31063">
        <ele>940.40002441406</ele>
        <time>2019-04-20T14:54:01.000Z</time>
      </trkpt>
      <trkpt lat="43.92507" lon="7.31065">
        <ele>938.79998779297</ele>
        <time>2019-04-20T14:54:03.000Z</time>
      </trkpt>
      <trkpt lat="43.92516" lon="7.31066">
        <ele>936.79998779297</ele>
        <time>2019-04-20T14:54:05.000Z</time>
      </trkpt>
      <trkpt lat="43.9252" lon="7.31066">
        <ele>935.20001220703</ele>
        <time>2019-04-20T14:54:06.000Z</time>
      </trkpt>
      <trkpt lat="43.92524" lon="7.31066">
        <ele>934</ele>
        <time>2019-04-20T14:54:07.000Z</time>
      </trkpt>
      <trkpt lat="43.92529" lon="7.31065">
        <ele>932.20001220703</ele>
        <time>2019-04-20T14:54:08.000Z</time>
      </trkpt>
      <trkpt lat="43.92534" lon="7.31062">
        <ele>930</ele>
        <time>2019-04-20T14:54:09.000Z</time>
      </trkpt>
      <trkpt lat="43.9254" lon="7.31057">
        <ele>929</ele>
        <time>2019-04-20T14:54:10.000Z</time>
      </trkpt>
      <trkpt lat="43.92544" lon="7.31054">
        <ele>928.20001220703</ele>
        <time>2019-04-20T14:54:11.000Z</time>
      </trkpt>
      <trkpt lat="43.92553" lon="7.31053">
        <ele>926.40002441406</ele>
        <time>2019-04-20T14:54:13.000Z</time>
      </trkpt>
      <trkpt lat="43.92562" lon="7.31051">
        <ele>924.59997558594</ele>
        <time>2019-04-20T14:54:15.000Z</time>
      </trkpt>
      <trkpt lat="43.92567" lon="7.3105">
        <ele>923.59997558594</ele>
        <time>2019-04-20T14:54:16.000Z</time>
      </trkpt>
      <trkpt lat="43.92571" lon="7.31051">
        <ele>922.79998779297</ele>
        <time>2019-04-20T14:54:17.000Z</time>
      </trkpt>
      <trkpt lat="43.92574" lon="7.31052">
        <ele>922.20001220703</ele>
        <time>2019-04-20T14:54:18.000Z</time>
      </trkpt>
      <trkpt lat="43.92577" lon="7.31051">
        <ele>921.20001220703</ele>
        <time>2019-04-20T14:54:19.000Z</time>
      </trkpt>
      <trkpt lat="43.92585" lon="7.31052">
        <ele>919.40002441406</ele>
        <time>2019-04-20T14:54:21.000Z</time>
      </trkpt>
      <trkpt lat="43.92588" lon="7.31055">
        <ele>918.20001220703</ele>
        <time>2019-04-20T14:54:22.000Z</time>
      </trkpt>
      <trkpt lat="43.92591" lon="7.31056">
        <ele>917</ele>
        <time>2019-04-20T14:54:23.000Z</time>
      </trkpt>
      <trkpt lat="43.92594" lon="7.31057">
        <ele>915.79998779297</ele>
        <time>2019-04-20T14:54:24.000Z</time>
      </trkpt>
      <trkpt lat="43.92599" lon="7.31057">
        <ele>914.40002441406</ele>
        <time>2019-04-20T14:54:25.000Z</time>
      </trkpt>
      <trkpt lat="43.92603" lon="7.31057">
        <ele>913</ele>
        <time>2019-04-20T14:54:26.000Z</time>
      </trkpt>
      <trkpt lat="43.92606" lon="7.31057">
        <ele>910.40002441406</ele>
        <time>2019-04-20T14:54:27.000Z</time>
      </trkpt>
      <trkpt lat="43.92609" lon="7.31055">
        <ele>909</ele>
        <time>2019-04-20T14:54:28.000Z</time>
      </trkpt>
      <trkpt lat="43.92615" lon="7.31052">
        <ele>907.59997558594</ele>
        <time>2019-04-20T14:54:30.000Z</time>
      </trkpt>
      <trkpt lat="43.92619" lon="7.31052">
        <ele>908.20001220703</ele>
        <time>2019-04-20T14:54:32.000Z</time>
      </trkpt>
      <trkpt lat="43.92623" lon="7.31052">
        <ele>908.40002441406</ele>
        <time>2019-04-20T14:54:33.000Z</time>
      </trkpt>
      <trkpt lat="43.92639" lon="7.31048">
        <ele>908</ele>
        <time>2019-04-20T14:54:36.000Z</time>
      </trkpt>
      <trkpt lat="43.92645" lon="7.31046">
        <ele>907.79998779297</ele>
        <time>2019-04-20T14:54:37.000Z</time>
      </trkpt>
      <trkpt lat="43.92656" lon="7.31045">
        <ele>907</ele>
        <time>2019-04-20T14:54:39.000Z</time>
      </trkpt>
      <trkpt lat="43.92659" lon="7.31047">
        <ele>906.40002441406</ele>
        <time>2019-04-20T14:54:40.000Z</time>
      </trkpt>
      <trkpt lat="43.92668" lon="7.31049">
        <ele>905.40002441406</ele>
        <time>2019-04-20T14:54:42.000Z</time>
      </trkpt>
      <trkpt lat="43.92677" lon="7.31055">
        <ele>904</ele>
        <time>2019-04-20T14:54:44.000Z</time>
      </trkpt>
      <trkpt lat="43.92682" lon="7.31056">
        <ele>902.79998779297</ele>
        <time>2019-04-20T14:54:45.000Z</time>
      </trkpt>
      <trkpt lat="43.92687" lon="7.31057">
        <ele>901.79998779297</ele>
        <time>2019-04-20T14:54:46.000Z</time>
      </trkpt>
      <trkpt lat="43.92693" lon="7.31057">
        <ele>901.20001220703</ele>
        <time>2019-04-20T14:54:47.000Z</time>
      </trkpt>
      <trkpt lat="43.92699" lon="7.31056">
        <ele>900.59997558594</ele>
        <time>2019-04-20T14:54:48.000Z</time>
      </trkpt>
      <trkpt lat="43.9271" lon="7.31057">
        <ele>900.20001220703</ele>
        <time>2019-04-20T14:54:50.000Z</time>
      </trkpt>
      <trkpt lat="43.92722" lon="7.3106">
        <ele>899.59997558594</ele>
        <time>2019-04-20T14:54:52.000Z</time>
      </trkpt>
      <trkpt lat="43.92732" lon="7.31061">
        <ele>898.59997558594</ele>
        <time>2019-04-20T14:54:54.000Z</time>
      </trkpt>
      <trkpt lat="43.92743" lon="7.31062">
        <ele>896.79998779297</ele>
        <time>2019-04-20T14:54:56.000Z</time>
      </trkpt>
      <trkpt lat="43.92748" lon="7.3106">
        <ele>896.20001220703</ele>
        <time>2019-04-20T14:54:57.000Z</time>
      </trkpt>
      <trkpt lat="43.92754" lon="7.31058">
        <ele>895.59997558594</ele>
        <time>2019-04-20T14:54:58.000Z</time>
      </trkpt>
      <trkpt lat="43.92768" lon="7.31058">
        <ele>894.20001220703</ele>
        <time>2019-04-20T14:55:00.000Z</time>
      </trkpt>
      <trkpt lat="43.92775" lon="7.31059">
        <ele>893.79998779297</ele>
        <time>2019-04-20T14:55:01.000Z</time>
      </trkpt>
      <trkpt lat="43.92783" lon="7.3106">
        <ele>892.40002441406</ele>
        <time>2019-04-20T14:55:02.000Z</time>
      </trkpt>
      <trkpt lat="43.92793" lon="7.31065">
        <ele>890.79998779297</ele>
        <time>2019-04-20T14:55:04.000Z</time>
      </trkpt>
      <trkpt lat="43.92797" lon="7.31068">
        <ele>890</ele>
        <time>2019-04-20T14:55:05.000Z</time>
      </trkpt>
      <trkpt lat="43.92802" lon="7.3107">
        <ele>889</ele>
        <time>2019-04-20T14:55:06.000Z</time>
      </trkpt>
      <trkpt lat="43.92807" lon="7.31072">
        <ele>888.59997558594</ele>
        <time>2019-04-20T14:55:07.000Z</time>
      </trkpt>
      <trkpt lat="43.92823" lon="7.31075">
        <ele>887.59997558594</ele>
        <time>2019-04-20T14:55:10.000Z</time>
      </trkpt>
      <trkpt lat="43.92827" lon="7.31079">
        <ele>887.79998779297</ele>
        <time>2019-04-20T14:55:11.000Z</time>
      </trkpt>
      <trkpt lat="43.92837" lon="7.31086">
        <ele>886.79998779297</ele>
        <time>2019-04-20T14:55:13.000Z</time>
      </trkpt>
      <trkpt lat="43.92843" lon="7.31089">
        <ele>886.40002441406</ele>
        <time>2019-04-20T14:55:14.000Z</time>
      </trkpt>
      <trkpt lat="43.92855" lon="7.31093">
        <ele>885.40002441406</ele>
        <time>2019-04-20T14:55:16.000Z</time>
      </trkpt>
      <trkpt lat="43.92862" lon="7.31096">
        <ele>884.59997558594</ele>
        <time>2019-04-20T14:55:17.000Z</time>
      </trkpt>
      <trkpt lat="43.92868" lon="7.31099">
        <ele>883.59997558594</ele>
        <time>2019-04-20T14:55:18.000Z</time>
      </trkpt>
      <trkpt lat="43.92879" lon="7.31105">
        <ele>882.20001220703</ele>
        <time>2019-04-20T14:55:20.000Z</time>
      </trkpt>
      <trkpt lat="43.92884" lon="7.31109">
        <ele>881.59997558594</ele>
        <time>2019-04-20T14:55:21.000Z</time>
      </trkpt>
      <trkpt lat="43.92888" lon="7.31115">
        <ele>881</ele>
        <time>2019-04-20T14:55:22.000Z</time>
      </trkpt>
      <trkpt lat="43.92892" lon="7.3112">
        <ele>880</ele>
        <time>2019-04-20T14:55:23.000Z</time>
      </trkpt>
      <trkpt lat="43.92901" lon="7.31131">
        <ele>877.20001220703</ele>
        <time>2019-04-20T14:55:25.000Z</time>
      </trkpt>
      <trkpt lat="43.92904" lon="7.31136">
        <ele>875.59997558594</ele>
        <time>2019-04-20T14:55:26.000Z</time>
      </trkpt>
      <trkpt lat="43.92908" lon="7.31141">
        <ele>874</ele>
        <time>2019-04-20T14:55:27.000Z</time>
      </trkpt>
      <trkpt lat="43.92916" lon="7.31153">
        <ele>871.79998779297</ele>
        <time>2019-04-20T14:55:29.000Z</time>
      </trkpt>
      <trkpt lat="43.92922" lon="7.31158">
        <ele>870.79998779297</ele>
        <time>2019-04-20T14:55:30.000Z</time>
      </trkpt>
      <trkpt lat="43.92934" lon="7.31156">
        <ele>868.79998779297</ele>
        <time>2019-04-20T14:55:32.000Z</time>
      </trkpt>
      <trkpt lat="43.92941" lon="7.31154">
        <ele>867.79998779297</ele>
        <time>2019-04-20T14:55:33.000Z</time>
      </trkpt>
      <trkpt lat="43.92953" lon="7.31149">
        <ele>866.40002441406</ele>
        <time>2019-04-20T14:55:35.000Z</time>
      </trkpt>
      <trkpt lat="43.92964" lon="7.31143">
        <ele>865.59997558594</ele>
        <time>2019-04-20T14:55:37.000Z</time>
      </trkpt>
      <trkpt lat="43.92968" lon="7.31141">
        <ele>865.20001220703</ele>
        <time>2019-04-20T14:55:38.000Z</time>
      </trkpt>
      <trkpt lat="43.92977" lon="7.31139">
        <ele>864.79998779297</ele>
        <time>2019-04-20T14:55:41.000Z</time>
      </trkpt>
      <trkpt lat="43.92979" lon="7.3114">
        <ele>864.59997558594</ele>
        <time>2019-04-20T14:55:42.000Z</time>
      </trkpt>
      <trkpt lat="43.92982" lon="7.31145">
        <ele>864.40002441406</ele>
        <time>2019-04-20T14:55:44.000Z</time>
      </trkpt>
      <trkpt lat="43.92982" lon="7.3115">
        <ele>864.20001220703</ele>
        <time>2019-04-20T14:55:45.000Z</time>
      </trkpt>
      <trkpt lat="43.92982" lon="7.31164">
        <ele>862.79998779297</ele>
        <time>2019-04-20T14:55:48.000Z</time>
      </trkpt>
      <trkpt lat="43.92986" lon="7.31169">
        <ele>861.40002441406</ele>
        <time>2019-04-20T14:55:50.000Z</time>
      </trkpt>
      <trkpt lat="43.92989" lon="7.3117">
        <ele>860.59997558594</ele>
        <time>2019-04-20T14:55:51.000Z</time>
      </trkpt>
      <trkpt lat="43.92992" lon="7.31171">
        <ele>860.20001220703</ele>
        <time>2019-04-20T14:55:52.000Z</time>
      </trkpt>
      <trkpt lat="43.92996" lon="7.3117">
        <ele>859</ele>
        <time>2019-04-20T14:55:54.000Z</time>
      </trkpt>
      <trkpt lat="43.92998" lon="7.31169">
        <ele>858.20001220703</ele>
        <time>2019-04-20T14:55:55.000Z</time>
      </trkpt>
      <trkpt lat="43.92999" lon="7.31169">
        <ele>857.59997558594</ele>
        <time>2019-04-20T14:55:56.000Z</time>
      </trkpt>
      <trkpt lat="43.93" lon="7.31168">
        <ele>856.79998779297</ele>
        <time>2019-04-20T14:56:00.000Z</time>
      </trkpt>
      <trkpt lat="43.93001" lon="7.31169">
        <ele>857.20001220703</ele>
        <time>2019-04-20T14:56:06.000Z</time>
      </trkpt>
      <trkpt lat="43.93001" lon="7.31169">
        <ele>856.59997558594</ele>
        <time>2019-04-20T14:56:12.000Z</time>
      </trkpt>
      <trkpt lat="43.93002" lon="7.3117">
        <ele>856.40002441406</ele>
        <time>2019-04-20T14:56:15.000Z</time>
      </trkpt>
      <trkpt lat="43.93004" lon="7.3117">
        <ele>856.20001220703</ele>
        <time>2019-04-20T14:56:28.000Z</time>
      </trkpt>
      <trkpt lat="43.93006" lon="7.31171">
        <ele>855.79998779297</ele>
        <time>2019-04-20T14:56:45.000Z</time>
      </trkpt>
      <trkpt lat="43.93007" lon="7.31172">
        <ele>856.20001220703</ele>
        <time>2019-04-20T14:56:55.000Z</time>
      </trkpt>
      <trkpt lat="43.93008" lon="7.31173">
        <ele>856.20001220703</ele>
        <time>2019-04-20T14:56:56.000Z</time>
      </trkpt>
      <trkpt lat="43.93014" lon="7.31178">
        <ele>856</ele>
        <time>2019-04-20T14:56:59.000Z</time>
      </trkpt>
      <trkpt lat="43.93018" lon="7.31179">
        <ele>855.59997558594</ele>
        <time>2019-04-20T14:57:00.000Z</time>
      </trkpt>
      <trkpt lat="43.93023" lon="7.31181">
        <ele>855</ele>
        <time>2019-04-20T14:57:01.000Z</time>
      </trkpt>
      <trkpt lat="43.93027" lon="7.31183">
        <ele>854.40002441406</ele>
        <time>2019-04-20T14:57:02.000Z</time>
      </trkpt>
      <trkpt lat="43.9303" lon="7.31184">
        <ele>853.40002441406</ele>
        <time>2019-04-20T14:57:03.000Z</time>
      </trkpt>
      <trkpt lat="43.93034" lon="7.31184">
        <ele>852</ele>
        <time>2019-04-20T14:57:05.000Z</time>
      </trkpt>
      <trkpt lat="43.93035" lon="7.31184">
        <ele>851.40002441406</ele>
        <time>2019-04-20T14:57:06.000Z</time>
      </trkpt>
      <trkpt lat="43.93035" lon="7.31184">
        <ele>850.79998779297</ele>
        <time>2019-04-20T14:57:07.000Z</time>
      </trkpt>
      <trkpt lat="43.93036" lon="7.31183">
        <ele>850.20001220703</ele>
        <time>2019-04-20T14:57:11.000Z</time>
      </trkpt>
      <trkpt lat="43.93041" lon="7.31183">
        <ele>850.20001220703</ele>
        <time>2019-04-20T14:57:14.000Z</time>
      </trkpt>
      <trkpt lat="43.93042" lon="7.31184">
        <ele>850.20001220703</ele>
        <time>2019-04-20T14:57:15.000Z</time>
      </trkpt>
      <trkpt lat="43.93042" lon="7.31188">
        <ele>849.79998779297</ele>
        <time>2019-04-20T14:57:18.000Z</time>
      </trkpt>
      <trkpt lat="43.93045" lon="7.31192">
        <ele>849.20001220703</ele>
        <time>2019-04-20T14:57:20.000Z</time>
      </trkpt>
      <trkpt lat="43.93054" lon="7.31194">
        <ele>848.40002441406</ele>
        <time>2019-04-20T14:57:22.000Z</time>
      </trkpt>
      <trkpt lat="43.93059" lon="7.31195">
        <ele>848</ele>
        <time>2019-04-20T14:57:23.000Z</time>
      </trkpt>
      <trkpt lat="43.93065" lon="7.31194">
        <ele>847.20001220703</ele>
        <time>2019-04-20T14:57:24.000Z</time>
      </trkpt>
      <trkpt lat="43.93073" lon="7.31191">
        <ele>846</ele>
        <time>2019-04-20T14:57:25.000Z</time>
      </trkpt>
      <trkpt lat="43.9308" lon="7.31188">
        <ele>844.59997558594</ele>
        <time>2019-04-20T14:57:26.000Z</time>
      </trkpt>
      <trkpt lat="43.93087" lon="7.31183">
        <ele>843.59997558594</ele>
        <time>2019-04-20T14:57:27.000Z</time>
      </trkpt>
      <trkpt lat="43.931" lon="7.31177">
        <ele>841.79998779297</ele>
        <time>2019-04-20T14:57:29.000Z</time>
      </trkpt>
      <trkpt lat="43.93107" lon="7.31174">
        <ele>841</ele>
        <time>2019-04-20T14:57:30.000Z</time>
      </trkpt>
      <trkpt lat="43.93113" lon="7.31173">
        <ele>840.40002441406</ele>
        <time>2019-04-20T14:57:31.000Z</time>
      </trkpt>
      <trkpt lat="43.93123" lon="7.31173">
        <ele>838.40002441406</ele>
        <time>2019-04-20T14:57:33.000Z</time>
      </trkpt>
      <trkpt lat="43.9313" lon="7.31172">
        <ele>837.20001220703</ele>
        <time>2019-04-20T14:57:35.000Z</time>
      </trkpt>
      <trkpt lat="43.93139" lon="7.31175">
        <ele>835.79998779297</ele>
        <time>2019-04-20T14:57:39.000Z</time>
      </trkpt>
      <trkpt lat="43.9314" lon="7.31178">
        <ele>835.59997558594</ele>
        <time>2019-04-20T14:57:40.000Z</time>
      </trkpt>
      <trkpt lat="43.93142" lon="7.31186">
        <ele>834.59997558594</ele>
        <time>2019-04-20T14:57:43.000Z</time>
      </trkpt>
      <trkpt lat="43.93143" lon="7.31189">
        <ele>834.40002441406</ele>
        <time>2019-04-20T14:57:44.000Z</time>
      </trkpt>
      <trkpt lat="43.93146" lon="7.31191">
        <ele>833.79998779297</ele>
        <time>2019-04-20T14:57:45.000Z</time>
      </trkpt>
      <trkpt lat="43.93149" lon="7.31192">
        <ele>833.40002441406</ele>
        <time>2019-04-20T14:57:46.000Z</time>
      </trkpt>
      <trkpt lat="43.93155" lon="7.31197">
        <ele>832.59997558594</ele>
        <time>2019-04-20T14:57:48.000Z</time>
      </trkpt>
      <trkpt lat="43.93159" lon="7.31199">
        <ele>831.79998779297</ele>
        <time>2019-04-20T14:57:49.000Z</time>
      </trkpt>
      <trkpt lat="43.93163" lon="7.31198">
        <ele>831</ele>
        <time>2019-04-20T14:57:50.000Z</time>
      </trkpt>
      <trkpt lat="43.93169" lon="7.31198">
        <ele>830.20001220703</ele>
        <time>2019-04-20T14:57:51.000Z</time>
      </trkpt>
      <trkpt lat="43.93174" lon="7.31197">
        <ele>829.59997558594</ele>
        <time>2019-04-20T14:57:52.000Z</time>
      </trkpt>
      <trkpt lat="43.9318" lon="7.31195">
        <ele>828.79998779297</ele>
        <time>2019-04-20T14:57:53.000Z</time>
      </trkpt>
      <trkpt lat="43.93189" lon="7.31189">
        <ele>828</ele>
        <time>2019-04-20T14:57:55.000Z</time>
      </trkpt>
      <trkpt lat="43.93194" lon="7.31187">
        <ele>827.79998779297</ele>
        <time>2019-04-20T14:57:56.000Z</time>
      </trkpt>
      <trkpt lat="43.93208" lon="7.31183">
        <ele>828.20001220703</ele>
        <time>2019-04-20T14:57:59.000Z</time>
      </trkpt>
      <trkpt lat="43.93222" lon="7.31176">
        <ele>828.20001220703</ele>
        <time>2019-04-20T14:58:01.000Z</time>
      </trkpt>
      <trkpt lat="43.93228" lon="7.3117">
        <ele>827.79998779297</ele>
        <time>2019-04-20T14:58:02.000Z</time>
      </trkpt>
      <trkpt lat="43.93267" lon="7.31143">
        <ele>824.79998779297</ele>
        <time>2019-04-20T14:58:08.000Z</time>
      </trkpt>
      <trkpt lat="43.93273" lon="7.31139">
        <ele>824</ele>
        <time>2019-04-20T14:58:09.000Z</time>
      </trkpt>
      <trkpt lat="43.9328" lon="7.31134">
        <ele>823.20001220703</ele>
        <time>2019-04-20T14:58:10.000Z</time>
      </trkpt>
      <trkpt lat="43.93297" lon="7.31107">
        <ele>820</ele>
        <time>2019-04-20T14:58:13.000Z</time>
      </trkpt>
      <trkpt lat="43.93304" lon="7.31102">
        <ele>819</ele>
        <time>2019-04-20T14:58:14.000Z</time>
      </trkpt>
      <trkpt lat="43.93312" lon="7.31099">
        <ele>817.79998779297</ele>
        <time>2019-04-20T14:58:15.000Z</time>
      </trkpt>
      <trkpt lat="43.93325" lon="7.31098">
        <ele>816</ele>
        <time>2019-04-20T14:58:17.000Z</time>
      </trkpt>
      <trkpt lat="43.93338" lon="7.31093">
        <ele>815.20001220703</ele>
        <time>2019-04-20T14:58:20.000Z</time>
      </trkpt>
      <trkpt lat="43.93342" lon="7.31086">
        <ele>814.79998779297</ele>
        <time>2019-04-20T14:58:21.000Z</time>
      </trkpt>
      <trkpt lat="43.93346" lon="7.3108">
        <ele>814.20001220703</ele>
        <time>2019-04-20T14:58:22.000Z</time>
      </trkpt>
      <trkpt lat="43.93393" lon="7.31029">
        <ele>805.40002441406</ele>
        <time>2019-04-20T14:58:28.000Z</time>
      </trkpt>
      <trkpt lat="43.934" lon="7.3102">
        <ele>804</ele>
        <time>2019-04-20T14:58:29.000Z</time>
      </trkpt>
      <trkpt lat="43.93407" lon="7.31011">
        <ele>802.79998779297</ele>
        <time>2019-04-20T14:58:30.000Z</time>
      </trkpt>
      <trkpt lat="43.93433" lon="7.30978">
        <ele>800.79998779297</ele>
        <time>2019-04-20T14:58:34.000Z</time>
      </trkpt>
      <trkpt lat="43.93443" lon="7.3096">
        <ele>801.59997558594</ele>
        <time>2019-04-20T14:58:36.000Z</time>
      </trkpt>
      <trkpt lat="43.93456" lon="7.30938">
        <ele>800.59997558594</ele>
        <time>2019-04-20T14:58:39.000Z</time>
      </trkpt>
      <trkpt lat="43.93469" lon="7.30924">
        <ele>799.79998779297</ele>
        <time>2019-04-20T14:58:43.000Z</time>
      </trkpt>
      <trkpt lat="43.93492" lon="7.30914">
        <ele>799.79998779297</ele>
        <time>2019-04-20T14:58:49.000Z</time>
      </trkpt>
      <trkpt lat="43.93495" lon="7.30914">
        <ele>799.59997558594</ele>
        <time>2019-04-20T14:58:50.000Z</time>
      </trkpt>
      <trkpt lat="43.93501" lon="7.30917">
        <ele>799.40002441406</ele>
        <time>2019-04-20T14:58:53.000Z</time>
      </trkpt>
      <trkpt lat="43.93501" lon="7.3092">
        <ele>799.20001220703</ele>
        <time>2019-04-20T14:58:54.000Z</time>
      </trkpt>
      <trkpt lat="43.93501" lon="7.30927">
        <ele>799</ele>
        <time>2019-04-20T14:58:56.000Z</time>
      </trkpt>
      <trkpt lat="43.93501" lon="7.30937">
        <ele>798.59997558594</ele>
        <time>2019-04-20T14:58:58.000Z</time>
      </trkpt>
      <trkpt lat="43.93499" lon="7.30951">
        <ele>797.40002441406</ele>
        <time>2019-04-20T14:59:01.000Z</time>
      </trkpt>
      <trkpt lat="43.93497" lon="7.30958">
        <ele>796.40002441406</ele>
        <time>2019-04-20T14:59:03.000Z</time>
      </trkpt>
      <trkpt lat="43.93502" lon="7.3096">
        <ele>796.59997558594</ele>
        <time>2019-04-20T14:59:05.000Z</time>
      </trkpt>
      <trkpt lat="43.93505" lon="7.30961">
        <ele>796.40002441406</ele>
        <time>2019-04-20T14:59:06.000Z</time>
      </trkpt>
      <trkpt lat="43.93513" lon="7.30961">
        <ele>795.79998779297</ele>
        <time>2019-04-20T14:59:08.000Z</time>
      </trkpt>
      <trkpt lat="43.93516" lon="7.3096">
        <ele>795</ele>
        <time>2019-04-20T14:59:09.000Z</time>
      </trkpt>
      <trkpt lat="43.93523" lon="7.3096">
        <ele>793.79998779297</ele>
        <time>2019-04-20T14:59:11.000Z</time>
      </trkpt>
      <trkpt lat="43.93526" lon="7.30961">
        <ele>793.40002441406</ele>
        <time>2019-04-20T14:59:12.000Z</time>
      </trkpt>
      <trkpt lat="43.93531" lon="7.30963">
        <ele>793.40002441406</ele>
        <time>2019-04-20T14:59:13.000Z</time>
      </trkpt>
      <trkpt lat="43.93539" lon="7.30965">
        <ele>793</ele>
        <time>2019-04-20T14:59:15.000Z</time>
      </trkpt>
      <trkpt lat="43.93543" lon="7.30964">
        <ele>792.40002441406</ele>
        <time>2019-04-20T14:59:16.000Z</time>
      </trkpt>
      <trkpt lat="43.93552" lon="7.3096">
        <ele>791.40002441406</ele>
        <time>2019-04-20T14:59:18.000Z</time>
      </trkpt>
      <trkpt lat="43.93567" lon="7.3095">
        <ele>792</ele>
        <time>2019-04-20T14:59:22.000Z</time>
      </trkpt>
      <trkpt lat="43.93571" lon="7.30941">
        <ele>792.40002441406</ele>
        <time>2019-04-20T14:59:25.000Z</time>
      </trkpt>
      <trkpt lat="43.93575" lon="7.30938">
        <ele>792.79998779297</ele>
        <time>2019-04-20T14:59:27.000Z</time>
      </trkpt>
      <trkpt lat="43.93576" lon="7.30939">
        <ele>793</ele>
        <time>2019-04-20T14:59:30.000Z</time>
      </trkpt>
      <trkpt lat="43.93575" lon="7.30941">
        <ele>792.59997558594</ele>
        <time>2019-04-20T14:59:38.000Z</time>
      </trkpt>
      <trkpt lat="43.93572" lon="7.30943">
        <ele>793.20001220703</ele>
        <time>2019-04-20T14:59:42.000Z</time>
      </trkpt>
      <trkpt lat="43.93571" lon="7.30944">
        <ele>793.20001220703</ele>
        <time>2019-04-20T14:59:43.000Z</time>
      </trkpt>
      <trkpt lat="43.93568" lon="7.30954">
        <ele>793</ele>
        <time>2019-04-20T14:59:47.000Z</time>
      </trkpt>
      <trkpt lat="43.93566" lon="7.30957">
        <ele>793</ele>
        <time>2019-04-20T14:59:48.000Z</time>
      </trkpt>
      <trkpt lat="43.93561" lon="7.3096">
        <ele>793</ele>
        <time>2019-04-20T14:59:50.000Z</time>
      </trkpt>
      <trkpt lat="43.93552" lon="7.30964">
        <ele>793.20001220703</ele>
        <time>2019-04-20T14:59:54.000Z</time>
      </trkpt>
      <trkpt lat="43.93548" lon="7.30966">
        <ele>793.20001220703</ele>
        <time>2019-04-20T14:59:56.000Z</time>
      </trkpt>
      <trkpt lat="43.93535" lon="7.30968">
        <ele>792.79998779297</ele>
        <time>2019-04-20T15:00:01.000Z</time>
      </trkpt>
      <trkpt lat="43.93528" lon="7.30965">
        <ele>792.40002441406</ele>
        <time>2019-04-20T15:00:05.000Z</time>
      </trkpt>
      <trkpt lat="43.93523" lon="7.30966">
        <ele>793.20001220703</ele>
        <time>2019-04-20T15:00:10.000Z</time>
      </trkpt>
      <trkpt lat="43.93523" lon="7.30965">
        <ele>793.59997558594</ele>
        <time>2019-04-20T15:00:12.000Z</time>
      </trkpt>
      <trkpt lat="43.93523" lon="7.30965">
        <ele>794.20001220703</ele>
        <time>2019-04-20T15:00:16.000Z</time>
      </trkpt>
      <trkpt lat="43.93523" lon="7.30967">
        <ele>794.20001220703</ele>
        <time>2019-04-20T15:00:27.000Z</time>
      </trkpt>
      <trkpt lat="43.93523" lon="7.30967">
        <ele>793.59997558594</ele>
        <time>2019-04-20T15:00:33.000Z</time>
      </trkpt>
      <trkpt lat="43.93525" lon="7.30966">
        <ele>793.59997558594</ele>
        <time>2019-04-20T15:00:34.000Z</time>
      </trkpt>
      <trkpt lat="43.93533" lon="7.30968">
        <ele>793.40002441406</ele>
        <time>2019-04-20T15:00:37.000Z</time>
      </trkpt>
      <trkpt lat="43.93537" lon="7.30969">
        <ele>793</ele>
        <time>2019-04-20T15:00:38.000Z</time>
      </trkpt>
      <trkpt lat="43.93546" lon="7.30968">
        <ele>792.40002441406</ele>
        <time>2019-04-20T15:00:40.000Z</time>
      </trkpt>
      <trkpt lat="43.9355" lon="7.30968">
        <ele>791.79998779297</ele>
        <time>2019-04-20T15:00:41.000Z</time>
      </trkpt>
      <trkpt lat="43.93555" lon="7.30965">
        <ele>791.40002441406</ele>
        <time>2019-04-20T15:00:43.000Z</time>
      </trkpt>
      <trkpt lat="43.93561" lon="7.30961">
        <ele>791.40002441406</ele>
        <time>2019-04-20T15:00:45.000Z</time>
      </trkpt>
      <trkpt lat="43.93565" lon="7.30959">
        <ele>791.79998779297</ele>
        <time>2019-04-20T15:00:46.000Z</time>
      </trkpt>
      <trkpt lat="43.9357" lon="7.30954">
        <ele>792.40002441406</ele>
        <time>2019-04-20T15:00:48.000Z</time>
      </trkpt>
      <trkpt lat="43.93573" lon="7.30948">
        <ele>792.59997558594</ele>
        <time>2019-04-20T15:00:50.000Z</time>
      </trkpt>
      <trkpt lat="43.93577" lon="7.30942">
        <ele>792.79998779297</ele>
        <time>2019-04-20T15:00:52.000Z</time>
      </trkpt>
      <trkpt lat="43.93584" lon="7.30943">
        <ele>793.20001220703</ele>
        <time>2019-04-20T15:00:54.000Z</time>
      </trkpt>
      <trkpt lat="43.9359" lon="7.30949">
        <ele>793.20001220703</ele>
        <time>2019-04-20T15:00:56.000Z</time>
      </trkpt>
      <trkpt lat="43.93598" lon="7.30955">
        <ele>792.59997558594</ele>
        <time>2019-04-20T15:00:59.000Z</time>
      </trkpt>
      <trkpt lat="43.93608" lon="7.30964">
        <ele>791.40002441406</ele>
        <time>2019-04-20T15:01:03.000Z</time>
      </trkpt>
      <trkpt lat="43.93614" lon="7.30975">
        <ele>790.59997558594</ele>
        <time>2019-04-20T15:01:07.000Z</time>
      </trkpt>
      <trkpt lat="43.93615" lon="7.30977">
        <ele>790.20001220703</ele>
        <time>2019-04-20T15:01:08.000Z</time>
      </trkpt>
      <trkpt lat="43.93618" lon="7.30979">
        <ele>789.59997558594</ele>
        <time>2019-04-20T15:01:12.000Z</time>
      </trkpt>
      <trkpt lat="43.93617" lon="7.3098">
        <ele>789.40002441406</ele>
        <time>2019-04-20T15:01:21.000Z</time>
      </trkpt>
      <trkpt lat="43.93615" lon="7.3098">
        <ele>789</ele>
        <time>2019-04-20T15:01:27.000Z</time>
      </trkpt>
      <trkpt lat="43.93614" lon="7.30978">
        <ele>788.79998779297</ele>
        <time>2019-04-20T15:01:28.000Z</time>
      </trkpt>
      <trkpt lat="43.93614" lon="7.30977">
        <ele>788.59997558594</ele>
        <time>2019-04-20T15:01:29.000Z</time>
      </trkpt>
      <trkpt lat="43.93612" lon="7.30972">
        <ele>789</ele>
        <time>2019-04-20T15:01:32.000Z</time>
      </trkpt>
      <trkpt lat="43.9361" lon="7.30967">
        <ele>789.40002441406</ele>
        <time>2019-04-20T15:01:36.000Z</time>
      </trkpt>
      <trkpt lat="43.93608" lon="7.30962">
        <ele>789.59997558594</ele>
        <time>2019-04-20T15:01:39.000Z</time>
      </trkpt>
      <trkpt lat="43.93599" lon="7.30955">
        <ele>789.79998779297</ele>
        <time>2019-04-20T15:01:45.000Z</time>
      </trkpt>
      <trkpt lat="43.93597" lon="7.30953">
        <ele>790</ele>
        <time>2019-04-20T15:01:47.000Z</time>
      </trkpt>
      <trkpt lat="43.93595" lon="7.3095">
        <ele>791.20001220703</ele>
        <time>2019-04-20T15:01:50.000Z</time>
      </trkpt>
      <trkpt lat="43.93595" lon="7.3095">
        <ele>791.59997558594</ele>
        <time>2019-04-20T15:01:51.000Z</time>
      </trkpt>
      <trkpt lat="43.93596" lon="7.30948">
        <ele>792.20001220703</ele>
        <time>2019-04-20T15:01:53.000Z</time>
      </trkpt>
      <trkpt lat="43.93596" lon="7.30945">
        <ele>792.79998779297</ele>
        <time>2019-04-20T15:01:57.000Z</time>
      </trkpt>
      <trkpt lat="43.93598" lon="7.30943">
        <ele>792.59997558594</ele>
        <time>2019-04-20T15:02:01.000Z</time>
      </trkpt>
      <trkpt lat="43.93599" lon="7.30941">
        <ele>792.40002441406</ele>
        <time>2019-04-20T15:02:02.000Z</time>
      </trkpt>
      <trkpt lat="43.93604" lon="7.30935">
        <ele>792.40002441406</ele>
        <time>2019-04-20T15:02:05.000Z</time>
      </trkpt>
      <trkpt lat="43.9361" lon="7.30927">
        <ele>792.40002441406</ele>
        <time>2019-04-20T15:02:08.000Z</time>
      </trkpt>
      <trkpt lat="43.93622" lon="7.3091">
        <ele>792.20001220703</ele>
        <time>2019-04-20T15:02:13.000Z</time>
      </trkpt>
      <trkpt lat="43.9363" lon="7.30898">
        <ele>792.59997558594</ele>
        <time>2019-04-20T15:02:17.000Z</time>
      </trkpt>
      <trkpt lat="43.93645" lon="7.30889">
        <ele>792.59997558594</ele>
        <time>2019-04-20T15:02:22.000Z</time>
      </trkpt>
      <trkpt lat="43.93652" lon="7.30884">
        <ele>793</ele>
        <time>2019-04-20T15:02:25.000Z</time>
      </trkpt>
      <trkpt lat="43.93653" lon="7.30881">
        <ele>793</ele>
        <time>2019-04-20T15:02:26.000Z</time>
      </trkpt>
      <trkpt lat="43.93654" lon="7.30877">
        <ele>793.40002441406</ele>
        <time>2019-04-20T15:02:27.000Z</time>
      </trkpt>
      <trkpt lat="43.93658" lon="7.3086">
        <ele>793.59997558594</ele>
        <time>2019-04-20T15:02:31.000Z</time>
      </trkpt>
      <trkpt lat="43.93661" lon="7.30852">
        <ele>793.79998779297</ele>
        <time>2019-04-20T15:02:36.000Z</time>
      </trkpt>
      <trkpt lat="43.93662" lon="7.30852">
        <ele>793.79998779297</ele>
        <time>2019-04-20T15:02:44.000Z</time>
      </trkpt>
      <trkpt lat="43.93662" lon="7.30851">
        <ele>793.79998779297</ele>
        <time>2019-04-20T15:02:49.000Z</time>
      </trkpt>
      <trkpt lat="43.93662" lon="7.30851">
        <ele>793.40002441406</ele>
        <time>2019-04-20T15:02:56.000Z</time>
      </trkpt>
      <trkpt lat="43.93663" lon="7.30852">
        <ele>792.59997558594</ele>
        <time>2019-04-20T15:03:04.000Z</time>
      </trkpt>
      <trkpt lat="43.93662" lon="7.30853">
        <ele>792.59997558594</ele>
        <time>2019-04-20T15:03:13.000Z</time>
      </trkpt>
      <trkpt lat="43.93662" lon="7.30852">
        <ele>793.20001220703</ele>
        <time>2019-04-20T15:03:18.000Z</time>
      </trkpt>
      <trkpt lat="43.9366" lon="7.30852">
        <ele>793.79998779297</ele>
        <time>2019-04-20T15:03:22.000Z</time>
      </trkpt>
      <trkpt lat="43.93661" lon="7.30852">
        <ele>793.59997558594</ele>
        <time>2019-04-20T15:03:24.000Z</time>
      </trkpt>
      <trkpt lat="43.93662" lon="7.3085">
        <ele>793.79998779297</ele>
        <time>2019-04-20T15:03:35.000Z</time>
      </trkpt>
      <trkpt lat="43.93663" lon="7.30848">
        <ele>794</ele>
        <time>2019-04-20T15:03:45.000Z</time>
      </trkpt>
      <trkpt lat="43.93664" lon="7.30845">
        <ele>792.79998779297</ele>
        <time>2019-04-20T15:03:55.000Z</time>
      </trkpt>
      <trkpt lat="43.9367" lon="7.30835">
        <ele>793</ele>
        <time>2019-04-20T15:04:06.000Z</time>
      </trkpt>
      <trkpt lat="43.93676" lon="7.30826">
        <ele>794</ele>
        <time>2019-04-20T15:04:13.000Z</time>
      </trkpt>
      <trkpt lat="43.93679" lon="7.30822">
        <ele>794</ele>
        <time>2019-04-20T15:04:20.000Z</time>
      </trkpt>
      <trkpt lat="43.9368" lon="7.3082">
        <ele>793.79998779297</ele>
        <time>2019-04-20T15:04:24.000Z</time>
      </trkpt>
      <trkpt lat="43.93681" lon="7.30818">
        <ele>794.40002441406</ele>
        <time>2019-04-20T15:04:28.000Z</time>
      </trkpt>
      <trkpt lat="43.93683" lon="7.30817">
        <ele>794</ele>
        <time>2019-04-20T15:04:31.000Z</time>
      </trkpt>
      <trkpt lat="43.93683" lon="7.30815">
        <ele>793.79998779297</ele>
        <time>2019-04-20T15:04:32.000Z</time>
      </trkpt>
      <trkpt lat="43.93686" lon="7.30809">
        <ele>793.59997558594</ele>
        <time>2019-04-20T15:04:35.000Z</time>
      </trkpt>
      <trkpt lat="43.93688" lon="7.30807">
        <ele>793.40002441406</ele>
        <time>2019-04-20T15:04:39.000Z</time>
      </trkpt>
      <trkpt lat="43.93689" lon="7.30805">
        <ele>793.40002441406</ele>
        <time>2019-04-20T15:04:41.000Z</time>
      </trkpt>
      <trkpt lat="43.93694" lon="7.30797">
        <ele>793.20001220703</ele>
        <time>2019-04-20T15:04:44.000Z</time>
      </trkpt>
      <trkpt lat="43.93695" lon="7.30793">
        <ele>793.20001220703</ele>
        <time>2019-04-20T15:04:45.000Z</time>
      </trkpt>
      <trkpt lat="43.93695" lon="7.30784">
        <ele>792.79998779297</ele>
        <time>2019-04-20T15:04:47.000Z</time>
      </trkpt>
      <trkpt lat="43.93696" lon="7.30776">
        <ele>792.40002441406</ele>
        <time>2019-04-20T15:04:49.000Z</time>
      </trkpt>
      <trkpt lat="43.93695" lon="7.30766">
        <ele>791.40002441406</ele>
        <time>2019-04-20T15:04:51.000Z</time>
      </trkpt>
      <trkpt lat="43.93695" lon="7.30762">
        <ele>791</ele>
        <time>2019-04-20T15:04:52.000Z</time>
      </trkpt>
      <trkpt lat="43.93692" lon="7.30757">
        <ele>790.59997558594</ele>
        <time>2019-04-20T15:04:54.000Z</time>
      </trkpt>
      <trkpt lat="43.93691" lon="7.30748">
        <ele>789.79998779297</ele>
        <time>2019-04-20T15:04:56.000Z</time>
      </trkpt>
      <trkpt lat="43.93691" lon="7.30741">
        <ele>789.79998779297</ele>
        <time>2019-04-20T15:04:57.000Z</time>
      </trkpt>
      <trkpt lat="43.93691" lon="7.30731">
        <ele>788.40002441406</ele>
        <time>2019-04-20T15:04:59.000Z</time>
      </trkpt>
      <trkpt lat="43.93691" lon="7.30723">
        <ele>787.79998779297</ele>
        <time>2019-04-20T15:05:01.000Z</time>
      </trkpt>
      <trkpt lat="43.93692" lon="7.30719">
        <ele>787.20001220703</ele>
        <time>2019-04-20T15:05:02.000Z</time>
      </trkpt>
      <trkpt lat="43.93693" lon="7.30716">
        <ele>786.59997558594</ele>
        <time>2019-04-20T15:05:03.000Z</time>
      </trkpt>
      <trkpt lat="43.93693" lon="7.30712">
        <ele>786</ele>
        <time>2019-04-20T15:05:04.000Z</time>
      </trkpt>
      <trkpt lat="43.93693" lon="7.30708">
        <ele>785.20001220703</ele>
        <time>2019-04-20T15:05:05.000Z</time>
      </trkpt>
      <trkpt lat="43.93692" lon="7.30702">
        <ele>784.20001220703</ele>
        <time>2019-04-20T15:05:06.000Z</time>
      </trkpt>
      <trkpt lat="43.9369" lon="7.30696">
        <ele>782.20001220703</ele>
        <time>2019-04-20T15:05:07.000Z</time>
      </trkpt>
      <trkpt lat="43.93689" lon="7.30691">
        <ele>781</ele>
        <time>2019-04-20T15:05:08.000Z</time>
      </trkpt>
      <trkpt lat="43.93688" lon="7.30687">
        <ele>780</ele>
        <time>2019-04-20T15:05:09.000Z</time>
      </trkpt>
      <trkpt lat="43.93688" lon="7.30682">
        <ele>779.40002441406</ele>
        <time>2019-04-20T15:05:10.000Z</time>
      </trkpt>
      <trkpt lat="43.93689" lon="7.30678">
        <ele>778.79998779297</ele>
        <time>2019-04-20T15:05:11.000Z</time>
      </trkpt>
      <trkpt lat="43.93695" lon="7.30665">
        <ele>778.20001220703</ele>
        <time>2019-04-20T15:05:13.000Z</time>
      </trkpt>
      <trkpt lat="43.93698" lon="7.30663">
        <ele>777.20001220703</ele>
        <time>2019-04-20T15:05:14.000Z</time>
      </trkpt>
      <trkpt lat="43.93703" lon="7.30659">
        <ele>776</ele>
        <time>2019-04-20T15:05:16.000Z</time>
      </trkpt>
      <trkpt lat="43.93709" lon="7.30651">
        <ele>775</ele>
        <time>2019-04-20T15:05:18.000Z</time>
      </trkpt>
      <trkpt lat="43.93717" lon="7.30634">
        <ele>773.59997558594</ele>
        <time>2019-04-20T15:05:22.000Z</time>
      </trkpt>
      <trkpt lat="43.93719" lon="7.30629">
        <ele>773.79998779297</ele>
        <time>2019-04-20T15:05:23.000Z</time>
      </trkpt>
      <trkpt lat="43.93724" lon="7.30616">
        <ele>773</ele>
        <time>2019-04-20T15:05:26.000Z</time>
      </trkpt>
      <trkpt lat="43.93727" lon="7.30615">
        <ele>772.59997558594</ele>
        <time>2019-04-20T15:05:27.000Z</time>
      </trkpt>
      <trkpt lat="43.93728" lon="7.30614">
        <ele>771.59997558594</ele>
        <time>2019-04-20T15:05:29.000Z</time>
      </trkpt>
      <trkpt lat="43.9373" lon="7.30612">
        <ele>770</ele>
        <time>2019-04-20T15:05:31.000Z</time>
      </trkpt>
      <trkpt lat="43.9373" lon="7.3061">
        <ele>769</ele>
        <time>2019-04-20T15:05:34.000Z</time>
      </trkpt>
      <trkpt lat="43.93729" lon="7.30605">
        <ele>768.79998779297</ele>
        <time>2019-04-20T15:05:36.000Z</time>
      </trkpt>
      <trkpt lat="43.93732" lon="7.306">
        <ele>767.79998779297</ele>
        <time>2019-04-20T15:05:40.000Z</time>
      </trkpt>
      <trkpt lat="43.93738" lon="7.30597">
        <ele>767.20001220703</ele>
        <time>2019-04-20T15:05:42.000Z</time>
      </trkpt>
      <trkpt lat="43.93741" lon="7.30594">
        <ele>766.20001220703</ele>
        <time>2019-04-20T15:05:43.000Z</time>
      </trkpt>
      <trkpt lat="43.93748" lon="7.30591">
        <ele>765</ele>
        <time>2019-04-20T15:05:45.000Z</time>
      </trkpt>
      <trkpt lat="43.9375" lon="7.30588">
        <ele>763.40002441406</ele>
        <time>2019-04-20T15:05:46.000Z</time>
      </trkpt>
      <trkpt lat="43.93752" lon="7.30585">
        <ele>762.40002441406</ele>
        <time>2019-04-20T15:05:47.000Z</time>
      </trkpt>
      <trkpt lat="43.93758" lon="7.30582">
        <ele>761.59997558594</ele>
        <time>2019-04-20T15:05:49.000Z</time>
      </trkpt>
      <trkpt lat="43.93761" lon="7.30581">
        <ele>760.79998779297</ele>
        <time>2019-04-20T15:05:50.000Z</time>
      </trkpt>
      <trkpt lat="43.93765" lon="7.30579">
        <ele>760.79998779297</ele>
        <time>2019-04-20T15:05:51.000Z</time>
      </trkpt>
      <trkpt lat="43.93771" lon="7.30577">
        <ele>759</ele>
        <time>2019-04-20T15:05:53.000Z</time>
      </trkpt>
      <trkpt lat="43.93773" lon="7.30574">
        <ele>758.20001220703</ele>
        <time>2019-04-20T15:05:54.000Z</time>
      </trkpt>
      <trkpt lat="43.93776" lon="7.30573">
        <ele>757.79998779297</ele>
        <time>2019-04-20T15:05:55.000Z</time>
      </trkpt>
      <trkpt lat="43.93776" lon="7.30565">
        <ele>756.59997558594</ele>
        <time>2019-04-20T15:05:58.000Z</time>
      </trkpt>
      <trkpt lat="43.93775" lon="7.30561">
        <ele>755.20001220703</ele>
        <time>2019-04-20T15:06:00.000Z</time>
      </trkpt>
      <trkpt lat="43.93776" lon="7.30556">
        <ele>753.59997558594</ele>
        <time>2019-04-20T15:06:02.000Z</time>
      </trkpt>
      <trkpt lat="43.93778" lon="7.30556">
        <ele>752.40002441406</ele>
        <time>2019-04-20T15:06:04.000Z</time>
      </trkpt>
      <trkpt lat="43.9378" lon="7.30554">
        <ele>751.40002441406</ele>
        <time>2019-04-20T15:06:07.000Z</time>
      </trkpt>
      <trkpt lat="43.93781" lon="7.30552">
        <ele>750</ele>
        <time>2019-04-20T15:06:10.000Z</time>
      </trkpt>
      <trkpt lat="43.9378" lon="7.3055">
        <ele>749.59997558594</ele>
        <time>2019-04-20T15:06:11.000Z</time>
      </trkpt>
      <trkpt lat="43.9378" lon="7.3055">
        <ele>749.40002441406</ele>
        <time>2019-04-20T15:06:13.000Z</time>
      </trkpt>
      <trkpt lat="43.93777" lon="7.30546">
        <ele>749</ele>
        <time>2019-04-20T15:06:16.000Z</time>
      </trkpt>
      <trkpt lat="43.93775" lon="7.30544">
        <ele>749</ele>
        <time>2019-04-20T15:06:17.000Z</time>
      </trkpt>
      <trkpt lat="43.93771" lon="7.30531">
        <ele>748</ele>
        <time>2019-04-20T15:06:21.000Z</time>
      </trkpt>
      <trkpt lat="43.9377" lon="7.30527">
        <ele>747.79998779297</ele>
        <time>2019-04-20T15:06:22.000Z</time>
      </trkpt>
      <trkpt lat="43.93769" lon="7.30519">
        <ele>746.20001220703</ele>
        <time>2019-04-20T15:06:24.000Z</time>
      </trkpt>
      <trkpt lat="43.93771" lon="7.30517">
        <ele>745.40002441406</ele>
        <time>2019-04-20T15:06:25.000Z</time>
      </trkpt>
      <trkpt lat="43.93772" lon="7.30514">
        <ele>744.40002441406</ele>
        <time>2019-04-20T15:06:26.000Z</time>
      </trkpt>
      <trkpt lat="43.93773" lon="7.30512">
        <ele>743.20001220703</ele>
        <time>2019-04-20T15:06:27.000Z</time>
      </trkpt>
      <trkpt lat="43.93775" lon="7.30503">
        <ele>741.59997558594</ele>
        <time>2019-04-20T15:06:29.000Z</time>
      </trkpt>
      <trkpt lat="43.93776" lon="7.30497">
        <ele>740.59997558594</ele>
        <time>2019-04-20T15:06:30.000Z</time>
      </trkpt>
      <trkpt lat="43.93779" lon="7.30492">
        <ele>739.79998779297</ele>
        <time>2019-04-20T15:06:31.000Z</time>
      </trkpt>
      <trkpt lat="43.93784" lon="7.30481">
        <ele>738</ele>
        <time>2019-04-20T15:06:33.000Z</time>
      </trkpt>
      <trkpt lat="43.93787" lon="7.30477">
        <ele>736.79998779297</ele>
        <time>2019-04-20T15:06:34.000Z</time>
      </trkpt>
      <trkpt lat="43.9379" lon="7.30471">
        <ele>735.59997558594</ele>
        <time>2019-04-20T15:06:35.000Z</time>
      </trkpt>
      <trkpt lat="43.93795" lon="7.30456">
        <ele>733.40002441406</ele>
        <time>2019-04-20T15:06:37.000Z</time>
      </trkpt>
      <trkpt lat="43.93797" lon="7.3045">
        <ele>732</ele>
        <time>2019-04-20T15:06:38.000Z</time>
      </trkpt>
      <trkpt lat="43.93799" lon="7.30444">
        <ele>730.40002441406</ele>
        <time>2019-04-20T15:06:39.000Z</time>
      </trkpt>
      <trkpt lat="43.93799" lon="7.30437">
        <ele>729.40002441406</ele>
        <time>2019-04-20T15:06:40.000Z</time>
      </trkpt>
      <trkpt lat="43.93798" lon="7.30431">
        <ele>727.59997558594</ele>
        <time>2019-04-20T15:06:41.000Z</time>
      </trkpt>
      <trkpt lat="43.93795" lon="7.30423">
        <ele>725.79998779297</ele>
        <time>2019-04-20T15:06:42.000Z</time>
      </trkpt>
      <trkpt lat="43.93793" lon="7.30416">
        <ele>724.59997558594</ele>
        <time>2019-04-20T15:06:43.000Z</time>
      </trkpt>
      <trkpt lat="43.9379" lon="7.3041">
        <ele>723.79998779297</ele>
        <time>2019-04-20T15:06:44.000Z</time>
      </trkpt>
      <trkpt lat="43.93786" lon="7.30405">
        <ele>722.59997558594</ele>
        <time>2019-04-20T15:06:45.000Z</time>
      </trkpt>
      <trkpt lat="43.93784" lon="7.304">
        <ele>721.59997558594</ele>
        <time>2019-04-20T15:06:46.000Z</time>
      </trkpt>
      <trkpt lat="43.93782" lon="7.30393">
        <ele>720.59997558594</ele>
        <time>2019-04-20T15:06:47.000Z</time>
      </trkpt>
      <trkpt lat="43.9378" lon="7.30385">
        <ele>719</ele>
        <time>2019-04-20T15:06:48.000Z</time>
      </trkpt>
      <trkpt lat="43.93779" lon="7.30378">
        <ele>717.59997558594</ele>
        <time>2019-04-20T15:06:49.000Z</time>
      </trkpt>
      <trkpt lat="43.93777" lon="7.3037">
        <ele>716</ele>
        <time>2019-04-20T15:06:50.000Z</time>
      </trkpt>
      <trkpt lat="43.93775" lon="7.30362">
        <ele>714.40002441406</ele>
        <time>2019-04-20T15:06:51.000Z</time>
      </trkpt>
      <trkpt lat="43.93773" lon="7.30356">
        <ele>712.40002441406</ele>
        <time>2019-04-20T15:06:52.000Z</time>
      </trkpt>
      <trkpt lat="43.93771" lon="7.30351">
        <ele>710.40002441406</ele>
        <time>2019-04-20T15:06:53.000Z</time>
      </trkpt>
      <trkpt lat="43.93767" lon="7.30348">
        <ele>708.20001220703</ele>
        <time>2019-04-20T15:06:54.000Z</time>
      </trkpt>
      <trkpt lat="43.93764" lon="7.30345">
        <ele>706.59997558594</ele>
        <time>2019-04-20T15:06:55.000Z</time>
      </trkpt>
      <trkpt lat="43.9376" lon="7.30342">
        <ele>705.40002441406</ele>
        <time>2019-04-20T15:06:56.000Z</time>
      </trkpt>
      <trkpt lat="43.93756" lon="7.30339">
        <ele>704.79998779297</ele>
        <time>2019-04-20T15:06:57.000Z</time>
      </trkpt>
      <trkpt lat="43.93753" lon="7.30337">
        <ele>704</ele>
        <time>2019-04-20T15:06:58.000Z</time>
      </trkpt>
      <trkpt lat="43.93751" lon="7.30335">
        <ele>703.59997558594</ele>
        <time>2019-04-20T15:06:59.000Z</time>
      </trkpt>
      <trkpt lat="43.93749" lon="7.30331">
        <ele>703.20001220703</ele>
        <time>2019-04-20T15:07:00.000Z</time>
      </trkpt>
      <trkpt lat="43.93749" lon="7.30327">
        <ele>703</ele>
        <time>2019-04-20T15:07:01.000Z</time>
      </trkpt>
      <trkpt lat="43.93751" lon="7.30311">
        <ele>701.40002441406</ele>
        <time>2019-04-20T15:07:04.000Z</time>
      </trkpt>
      <trkpt lat="43.93753" lon="7.30305">
        <ele>700.40002441406</ele>
        <time>2019-04-20T15:07:05.000Z</time>
      </trkpt>
      <trkpt lat="43.93755" lon="7.30298">
        <ele>699</ele>
        <time>2019-04-20T15:07:06.000Z</time>
      </trkpt>
      <trkpt lat="43.93756" lon="7.30292">
        <ele>697.59997558594</ele>
        <time>2019-04-20T15:07:07.000Z</time>
      </trkpt>
      <trkpt lat="43.93756" lon="7.30287">
        <ele>696.40002441406</ele>
        <time>2019-04-20T15:07:08.000Z</time>
      </trkpt>
      <trkpt lat="43.93755" lon="7.30281">
        <ele>695.40002441406</ele>
        <time>2019-04-20T15:07:09.000Z</time>
      </trkpt>
      <trkpt lat="43.93754" lon="7.30275">
        <ele>694.59997558594</ele>
        <time>2019-04-20T15:07:10.000Z</time>
      </trkpt>
      <trkpt lat="43.93754" lon="7.3027">
        <ele>694.20001220703</ele>
        <time>2019-04-20T15:07:11.000Z</time>
      </trkpt>
      <trkpt lat="43.93753" lon="7.30256">
        <ele>693.59997558594</ele>
        <time>2019-04-20T15:07:13.000Z</time>
      </trkpt>
      <trkpt lat="43.93752" lon="7.30248">
        <ele>693</ele>
        <time>2019-04-20T15:07:14.000Z</time>
      </trkpt>
      <trkpt lat="43.9375" lon="7.30231">
        <ele>691.40002441406</ele>
        <time>2019-04-20T15:07:16.000Z</time>
      </trkpt>
      <trkpt lat="43.93748" lon="7.30223">
        <ele>690.59997558594</ele>
        <time>2019-04-20T15:07:17.000Z</time>
      </trkpt>
      <trkpt lat="43.93747" lon="7.30216">
        <ele>689.20001220703</ele>
        <time>2019-04-20T15:07:18.000Z</time>
      </trkpt>
      <trkpt lat="43.93747" lon="7.30209">
        <ele>688</ele>
        <time>2019-04-20T15:07:19.000Z</time>
      </trkpt>
      <trkpt lat="43.93747" lon="7.30203">
        <ele>687.40002441406</ele>
        <time>2019-04-20T15:07:20.000Z</time>
      </trkpt>
      <trkpt lat="43.93749" lon="7.30196">
        <ele>686.79998779297</ele>
        <time>2019-04-20T15:07:21.000Z</time>
      </trkpt>
      <trkpt lat="43.9375" lon="7.30187">
        <ele>686.20001220703</ele>
        <time>2019-04-20T15:07:22.000Z</time>
      </trkpt>
      <trkpt lat="43.93753" lon="7.30178">
        <ele>686</ele>
        <time>2019-04-20T15:07:23.000Z</time>
      </trkpt>
      <trkpt lat="43.93755" lon="7.3017">
        <ele>685.79998779297</ele>
        <time>2019-04-20T15:07:24.000Z</time>
      </trkpt>
      <trkpt lat="43.93756" lon="7.30163">
        <ele>685.20001220703</ele>
        <time>2019-04-20T15:07:25.000Z</time>
      </trkpt>
      <trkpt lat="43.93756" lon="7.30158">
        <ele>684.40002441406</ele>
        <time>2019-04-20T15:07:26.000Z</time>
      </trkpt>
      <trkpt lat="43.93751" lon="7.30136">
        <ele>683.59997558594</ele>
        <time>2019-04-20T15:07:29.000Z</time>
      </trkpt>
      <trkpt lat="43.93748" lon="7.30126">
        <ele>683.40002441406</ele>
        <time>2019-04-20T15:07:30.000Z</time>
      </trkpt>
      <trkpt lat="43.93744" lon="7.30117">
        <ele>683</ele>
        <time>2019-04-20T15:07:31.000Z</time>
      </trkpt>
      <trkpt lat="43.9374" lon="7.30109">
        <ele>682</ele>
        <time>2019-04-20T15:07:32.000Z</time>
      </trkpt>
      <trkpt lat="43.93735" lon="7.30102">
        <ele>680.79998779297</ele>
        <time>2019-04-20T15:07:33.000Z</time>
      </trkpt>
      <trkpt lat="43.93731" lon="7.30097">
        <ele>679.79998779297</ele>
        <time>2019-04-20T15:07:34.000Z</time>
      </trkpt>
      <trkpt lat="43.93726" lon="7.30091">
        <ele>678.79998779297</ele>
        <time>2019-04-20T15:07:35.000Z</time>
      </trkpt>
      <trkpt lat="43.9372" lon="7.30086">
        <ele>678.20001220703</ele>
        <time>2019-04-20T15:07:36.000Z</time>
      </trkpt>
      <trkpt lat="43.93715" lon="7.3008">
        <ele>678.40002441406</ele>
        <time>2019-04-20T15:07:37.000Z</time>
      </trkpt>
      <trkpt lat="43.93711" lon="7.30065">
        <ele>678</ele>
        <time>2019-04-20T15:07:39.000Z</time>
      </trkpt>
      <trkpt lat="43.93708" lon="7.30052">
        <ele>677.40002441406</ele>
        <time>2019-04-20T15:07:41.000Z</time>
      </trkpt>
      <trkpt lat="43.93703" lon="7.30036">
        <ele>675.20001220703</ele>
        <time>2019-04-20T15:07:43.000Z</time>
      </trkpt>
      <trkpt lat="43.93703" lon="7.30028">
        <ele>674.20001220703</ele>
        <time>2019-04-20T15:07:44.000Z</time>
      </trkpt>
      <trkpt lat="43.93705" lon="7.3002">
        <ele>673</ele>
        <time>2019-04-20T15:07:45.000Z</time>
      </trkpt>
      <trkpt lat="43.93707" lon="7.30013">
        <ele>671.59997558594</ele>
        <time>2019-04-20T15:07:46.000Z</time>
      </trkpt>
      <trkpt lat="43.93709" lon="7.30005">
        <ele>670.40002441406</ele>
        <time>2019-04-20T15:07:47.000Z</time>
      </trkpt>
      <trkpt lat="43.93715" lon="7.29992">
        <ele>669.40002441406</ele>
        <time>2019-04-20T15:07:49.000Z</time>
      </trkpt>
      <trkpt lat="43.93718" lon="7.29986">
        <ele>668.59997558594</ele>
        <time>2019-04-20T15:07:50.000Z</time>
      </trkpt>
      <trkpt lat="43.93723" lon="7.29971">
        <ele>668.40002441406</ele>
        <time>2019-04-20T15:07:52.000Z</time>
      </trkpt>
      <trkpt lat="43.93725" lon="7.29963">
        <ele>668.20001220703</ele>
        <time>2019-04-20T15:07:53.000Z</time>
      </trkpt>
      <trkpt lat="43.93731" lon="7.29937">
        <ele>667</ele>
        <time>2019-04-20T15:07:56.000Z</time>
      </trkpt>
      <trkpt lat="43.93734" lon="7.29921">
        <ele>665.40002441406</ele>
        <time>2019-04-20T15:07:58.000Z</time>
      </trkpt>
      <trkpt lat="43.93736" lon="7.29913">
        <ele>664.59997558594</ele>
        <time>2019-04-20T15:07:59.000Z</time>
      </trkpt>
      <trkpt lat="43.93738" lon="7.29904">
        <ele>664</ele>
        <time>2019-04-20T15:08:00.000Z</time>
      </trkpt>
      <trkpt lat="43.9374" lon="7.29889">
        <ele>662.79998779297</ele>
        <time>2019-04-20T15:08:02.000Z</time>
      </trkpt>
      <trkpt lat="43.9374" lon="7.29883">
        <ele>662.59997558594</ele>
        <time>2019-04-20T15:08:03.000Z</time>
      </trkpt>
      <trkpt lat="43.9373" lon="7.29871">
        <ele>661.59997558594</ele>
        <time>2019-04-20T15:08:06.000Z</time>
      </trkpt>
      <trkpt lat="43.9372" lon="7.29851">
        <ele>661.59997558594</ele>
        <time>2019-04-20T15:08:09.000Z</time>
      </trkpt>
      <trkpt lat="43.93725" lon="7.29838">
        <ele>660.20001220703</ele>
        <time>2019-04-20T15:08:12.000Z</time>
      </trkpt>
      <trkpt lat="43.93731" lon="7.2983">
        <ele>658.79998779297</ele>
        <time>2019-04-20T15:08:14.000Z</time>
      </trkpt>
      <trkpt lat="43.93741" lon="7.29824">
        <ele>657.20001220703</ele>
        <time>2019-04-20T15:08:16.000Z</time>
      </trkpt>
      <trkpt lat="43.93746" lon="7.2982">
        <ele>656.20001220703</ele>
        <time>2019-04-20T15:08:17.000Z</time>
      </trkpt>
      <trkpt lat="43.9375" lon="7.29816">
        <ele>654.59997558594</ele>
        <time>2019-04-20T15:08:18.000Z</time>
      </trkpt>
      <trkpt lat="43.93754" lon="7.29813">
        <ele>653.40002441406</ele>
        <time>2019-04-20T15:08:19.000Z</time>
      </trkpt>
      <trkpt lat="43.93757" lon="7.29811">
        <ele>652.79998779297</ele>
        <time>2019-04-20T15:08:20.000Z</time>
      </trkpt>
      <trkpt lat="43.9376" lon="7.29809">
        <ele>651.20001220703</ele>
        <time>2019-04-20T15:08:21.000Z</time>
      </trkpt>
      <trkpt lat="43.93762" lon="7.29806">
        <ele>650</ele>
        <time>2019-04-20T15:08:22.000Z</time>
      </trkpt>
      <trkpt lat="43.93766" lon="7.29802">
        <ele>647.40002441406</ele>
        <time>2019-04-20T15:08:24.000Z</time>
      </trkpt>
      <trkpt lat="43.93769" lon="7.29802">
        <ele>646.40002441406</ele>
        <time>2019-04-20T15:08:25.000Z</time>
      </trkpt>
      <trkpt lat="43.93773" lon="7.29802">
        <ele>645</ele>
        <time>2019-04-20T15:08:27.000Z</time>
      </trkpt>
      <trkpt lat="43.93776" lon="7.298">
        <ele>643.59997558594</ele>
        <time>2019-04-20T15:08:28.000Z</time>
      </trkpt>
      <trkpt lat="43.9378" lon="7.29795">
        <ele>642.59997558594</ele>
        <time>2019-04-20T15:08:29.000Z</time>
      </trkpt>
      <trkpt lat="43.93784" lon="7.2979">
        <ele>641.40002441406</ele>
        <time>2019-04-20T15:08:30.000Z</time>
      </trkpt>
      <trkpt lat="43.93787" lon="7.29785">
        <ele>640</ele>
        <time>2019-04-20T15:08:31.000Z</time>
      </trkpt>
      <trkpt lat="43.93789" lon="7.29779">
        <ele>638.59997558594</ele>
        <time>2019-04-20T15:08:32.000Z</time>
      </trkpt>
      <trkpt lat="43.93791" lon="7.29776">
        <ele>637.20001220703</ele>
        <time>2019-04-20T15:08:33.000Z</time>
      </trkpt>
      <trkpt lat="43.93793" lon="7.29774">
        <ele>636</ele>
        <time>2019-04-20T15:08:34.000Z</time>
      </trkpt>
      <trkpt lat="43.93795" lon="7.29772">
        <ele>634.40002441406</ele>
        <time>2019-04-20T15:08:35.000Z</time>
      </trkpt>
      <trkpt lat="43.93802" lon="7.29766">
        <ele>633</ele>
        <time>2019-04-20T15:08:37.000Z</time>
      </trkpt>
      <trkpt lat="43.93806" lon="7.29762">
        <ele>632.59997558594</ele>
        <time>2019-04-20T15:08:38.000Z</time>
      </trkpt>
      <trkpt lat="43.9381" lon="7.29755">
        <ele>632</ele>
        <time>2019-04-20T15:08:40.000Z</time>
      </trkpt>
      <trkpt lat="43.93812" lon="7.29752">
        <ele>631</ele>
        <time>2019-04-20T15:08:41.000Z</time>
      </trkpt>
      <trkpt lat="43.93814" lon="7.29749">
        <ele>630</ele>
        <time>2019-04-20T15:08:42.000Z</time>
      </trkpt>
      <trkpt lat="43.93815" lon="7.29741">
        <ele>628.20001220703</ele>
        <time>2019-04-20T15:08:44.000Z</time>
      </trkpt>
      <trkpt lat="43.93818" lon="7.29734">
        <ele>626.59997558594</ele>
        <time>2019-04-20T15:08:46.000Z</time>
      </trkpt>
      <trkpt lat="43.9382" lon="7.29727">
        <ele>625.20001220703</ele>
        <time>2019-04-20T15:08:48.000Z</time>
      </trkpt>
      <trkpt lat="43.93824" lon="7.2972">
        <ele>623.59997558594</ele>
        <time>2019-04-20T15:08:50.000Z</time>
      </trkpt>
      <trkpt lat="43.93831" lon="7.29711">
        <ele>622.59997558594</ele>
        <time>2019-04-20T15:08:52.000Z</time>
      </trkpt>
      <trkpt lat="43.93834" lon="7.29705">
        <ele>622</ele>
        <time>2019-04-20T15:08:53.000Z</time>
      </trkpt>
      <trkpt lat="43.93837" lon="7.29697">
        <ele>621.40002441406</ele>
        <time>2019-04-20T15:08:54.000Z</time>
      </trkpt>
      <trkpt lat="43.93842" lon="7.29689">
        <ele>620.40002441406</ele>
        <time>2019-04-20T15:08:55.000Z</time>
      </trkpt>
      <trkpt lat="43.93846" lon="7.29683">
        <ele>619.59997558594</ele>
        <time>2019-04-20T15:08:56.000Z</time>
      </trkpt>
      <trkpt lat="43.93849" lon="7.29678">
        <ele>618.79998779297</ele>
        <time>2019-04-20T15:08:57.000Z</time>
      </trkpt>
      <trkpt lat="43.93854" lon="7.29673">
        <ele>618.59997558594</ele>
        <time>2019-04-20T15:08:59.000Z</time>
      </trkpt>
      <trkpt lat="43.93861" lon="7.29669">
        <ele>617.20001220703</ele>
        <time>2019-04-20T15:09:02.000Z</time>
      </trkpt>
      <trkpt lat="43.93864" lon="7.29666">
        <ele>616.59997558594</ele>
        <time>2019-04-20T15:09:03.000Z</time>
      </trkpt>
      <trkpt lat="43.93866" lon="7.29665">
        <ele>615.79998779297</ele>
        <time>2019-04-20T15:09:04.000Z</time>
      </trkpt>
      <trkpt lat="43.9387" lon="7.29661">
        <ele>614.40002441406</ele>
        <time>2019-04-20T15:09:06.000Z</time>
      </trkpt>
      <trkpt lat="43.93873" lon="7.29657">
        <ele>613.79998779297</ele>
        <time>2019-04-20T15:09:07.000Z</time>
      </trkpt>
      <trkpt lat="43.93876" lon="7.29654">
        <ele>613.40002441406</ele>
        <time>2019-04-20T15:09:08.000Z</time>
      </trkpt>
      <trkpt lat="43.93884" lon="7.2965">
        <ele>612</ele>
        <time>2019-04-20T15:09:10.000Z</time>
      </trkpt>
      <trkpt lat="43.93889" lon="7.29646">
        <ele>611.20001220703</ele>
        <time>2019-04-20T15:09:11.000Z</time>
      </trkpt>
      <trkpt lat="43.93894" lon="7.29643">
        <ele>610.59997558594</ele>
        <time>2019-04-20T15:09:12.000Z</time>
      </trkpt>
      <trkpt lat="43.93898" lon="7.29641">
        <ele>609.59997558594</ele>
        <time>2019-04-20T15:09:13.000Z</time>
      </trkpt>
      <trkpt lat="43.93902" lon="7.29637">
        <ele>608.79998779297</ele>
        <time>2019-04-20T15:09:14.000Z</time>
      </trkpt>
      <trkpt lat="43.93905" lon="7.29634">
        <ele>607.40002441406</ele>
        <time>2019-04-20T15:09:15.000Z</time>
      </trkpt>
      <trkpt lat="43.9391" lon="7.29628">
        <ele>605.40002441406</ele>
        <time>2019-04-20T15:09:17.000Z</time>
      </trkpt>
      <trkpt lat="43.93913" lon="7.29626">
        <ele>604.59997558594</ele>
        <time>2019-04-20T15:09:18.000Z</time>
      </trkpt>
      <trkpt lat="43.93916" lon="7.29625">
        <ele>603.79998779297</ele>
        <time>2019-04-20T15:09:19.000Z</time>
      </trkpt>
      <trkpt lat="43.93922" lon="7.29618">
        <ele>602.79998779297</ele>
        <time>2019-04-20T15:09:21.000Z</time>
      </trkpt>
      <trkpt lat="43.93923" lon="7.29616">
        <ele>601.79998779297</ele>
        <time>2019-04-20T15:09:22.000Z</time>
      </trkpt>
      <trkpt lat="43.93929" lon="7.29609">
        <ele>600.40002441406</ele>
        <time>2019-04-20T15:09:25.000Z</time>
      </trkpt>
      <trkpt lat="43.93937" lon="7.29599">
        <ele>598.79998779297</ele>
        <time>2019-04-20T15:09:28.000Z</time>
      </trkpt>
      <trkpt lat="43.9394" lon="7.29594">
        <ele>598</ele>
        <time>2019-04-20T15:09:29.000Z</time>
      </trkpt>
      <trkpt lat="43.93944" lon="7.29587">
        <ele>597.20001220703</ele>
        <time>2019-04-20T15:09:30.000Z</time>
      </trkpt>
      <trkpt lat="43.93948" lon="7.29578">
        <ele>594.40002441406</ele>
        <time>2019-04-20T15:09:32.000Z</time>
      </trkpt>
      <trkpt lat="43.93948" lon="7.29575">
        <ele>593.40002441406</ele>
        <time>2019-04-20T15:09:33.000Z</time>
      </trkpt>
      <trkpt lat="43.9395" lon="7.29567">
        <ele>591.20001220703</ele>
        <time>2019-04-20T15:09:35.000Z</time>
      </trkpt>
      <trkpt lat="43.93951" lon="7.29563">
        <ele>591</ele>
        <time>2019-04-20T15:09:36.000Z</time>
      </trkpt>
      <trkpt lat="43.9395" lon="7.29559">
        <ele>590.20001220703</ele>
        <time>2019-04-20T15:09:37.000Z</time>
      </trkpt>
      <trkpt lat="43.93946" lon="7.29552">
        <ele>588.79998779297</ele>
        <time>2019-04-20T15:09:39.000Z</time>
      </trkpt>
      <trkpt lat="43.93943" lon="7.29551">
        <ele>587.40002441406</ele>
        <time>2019-04-20T15:09:41.000Z</time>
      </trkpt>
      <trkpt lat="43.93941" lon="7.29549">
        <ele>586.20001220703</ele>
        <time>2019-04-20T15:09:43.000Z</time>
      </trkpt>
      <trkpt lat="43.93937" lon="7.29545">
        <ele>585.20001220703</ele>
        <time>2019-04-20T15:09:45.000Z</time>
      </trkpt>
      <trkpt lat="43.93935" lon="7.29542">
        <ele>585</ele>
        <time>2019-04-20T15:09:46.000Z</time>
      </trkpt>
      <trkpt lat="43.93932" lon="7.29539">
        <ele>584.59997558594</ele>
        <time>2019-04-20T15:09:47.000Z</time>
      </trkpt>
      <trkpt lat="43.93928" lon="7.29534">
        <ele>583.40002441406</ele>
        <time>2019-04-20T15:09:49.000Z</time>
      </trkpt>
      <trkpt lat="43.93919" lon="7.29525">
        <ele>581.79998779297</ele>
        <time>2019-04-20T15:09:51.000Z</time>
      </trkpt>
      <trkpt lat="43.93916" lon="7.29519">
        <ele>580.59997558594</ele>
        <time>2019-04-20T15:09:52.000Z</time>
      </trkpt>
      <trkpt lat="43.93913" lon="7.29512">
        <ele>579.20001220703</ele>
        <time>2019-04-20T15:09:53.000Z</time>
      </trkpt>
      <trkpt lat="43.9391" lon="7.29506">
        <ele>578.59997558594</ele>
        <time>2019-04-20T15:09:54.000Z</time>
      </trkpt>
      <trkpt lat="43.93908" lon="7.29499">
        <ele>578</ele>
        <time>2019-04-20T15:09:55.000Z</time>
      </trkpt>
      <trkpt lat="43.93908" lon="7.29491">
        <ele>577</ele>
        <time>2019-04-20T15:09:56.000Z</time>
      </trkpt>
      <trkpt lat="43.93909" lon="7.29484">
        <ele>576.59997558594</ele>
        <time>2019-04-20T15:09:57.000Z</time>
      </trkpt>
      <trkpt lat="43.9391" lon="7.29474">
        <ele>575.79998779297</ele>
        <time>2019-04-20T15:09:59.000Z</time>
      </trkpt>
      <trkpt lat="43.93911" lon="7.29469">
        <ele>575.20001220703</ele>
        <time>2019-04-20T15:10:00.000Z</time>
      </trkpt>
      <trkpt lat="43.93911" lon="7.29464">
        <ele>574.59997558594</ele>
        <time>2019-04-20T15:10:01.000Z</time>
      </trkpt>
      <trkpt lat="43.9391" lon="7.29452">
        <ele>574</ele>
        <time>2019-04-20T15:10:03.000Z</time>
      </trkpt>
      <trkpt lat="43.93911" lon="7.29447">
        <ele>573.59997558594</ele>
        <time>2019-04-20T15:10:04.000Z</time>
      </trkpt>
      <trkpt lat="43.93912" lon="7.29434">
        <ele>572.79998779297</ele>
        <time>2019-04-20T15:10:07.000Z</time>
      </trkpt>
      <trkpt lat="43.93912" lon="7.29431">
        <ele>572.20001220703</ele>
        <time>2019-04-20T15:10:08.000Z</time>
      </trkpt>
      <trkpt lat="43.93913" lon="7.29428">
        <ele>571.59997558594</ele>
        <time>2019-04-20T15:10:10.000Z</time>
      </trkpt>
      <trkpt lat="43.93912" lon="7.29429">
        <ele>571.20001220703</ele>
        <time>2019-04-20T15:10:11.000Z</time>
      </trkpt>
      <trkpt lat="43.93912" lon="7.29427">
        <ele>571</ele>
        <time>2019-04-20T15:10:12.000Z</time>
      </trkpt>
      <trkpt lat="43.93914" lon="7.2942">
        <ele>571.20001220703</ele>
        <time>2019-04-20T15:10:16.000Z</time>
      </trkpt>
      <trkpt lat="43.93918" lon="7.29412">
        <ele>570.40002441406</ele>
        <time>2019-04-20T15:10:21.000Z</time>
      </trkpt>
      <trkpt lat="43.93918" lon="7.29411">
        <ele>570</ele>
        <time>2019-04-20T15:10:22.000Z</time>
      </trkpt>
      <trkpt lat="43.93921" lon="7.29403">
        <ele>568.59997558594</ele>
        <time>2019-04-20T15:10:25.000Z</time>
      </trkpt>
      <trkpt lat="43.93922" lon="7.29399">
        <ele>568.40002441406</ele>
        <time>2019-04-20T15:10:26.000Z</time>
      </trkpt>
      <trkpt lat="43.93925" lon="7.2939">
        <ele>567.59997558594</ele>
        <time>2019-04-20T15:10:28.000Z</time>
      </trkpt>
      <trkpt lat="43.93929" lon="7.29378">
        <ele>566.79998779297</ele>
        <time>2019-04-20T15:10:31.000Z</time>
      </trkpt>
      <trkpt lat="43.93931" lon="7.29366">
        <ele>566.59997558594</ele>
        <time>2019-04-20T15:10:35.000Z</time>
      </trkpt>
      <trkpt lat="43.93932" lon="7.29364">
        <ele>566.59997558594</ele>
        <time>2019-04-20T15:10:36.000Z</time>
      </trkpt>
      <trkpt lat="43.93933" lon="7.29362">
        <ele>566.79998779297</ele>
        <time>2019-04-20T15:10:37.000Z</time>
      </trkpt>
      <trkpt lat="43.93934" lon="7.29358">
        <ele>567.59997558594</ele>
        <time>2019-04-20T15:10:39.000Z</time>
      </trkpt>
      <trkpt lat="43.93937" lon="7.29352">
        <ele>568.20001220703</ele>
        <time>2019-04-20T15:10:41.000Z</time>
      </trkpt>
      <trkpt lat="43.93942" lon="7.29339">
        <ele>568.40002441406</ele>
        <time>2019-04-20T15:10:44.000Z</time>
      </trkpt>
      <trkpt lat="43.93943" lon="7.29333">
        <ele>569</ele>
        <time>2019-04-20T15:10:45.000Z</time>
      </trkpt>
      <trkpt lat="43.93946" lon="7.29327">
        <ele>569</ele>
        <time>2019-04-20T15:10:46.000Z</time>
      </trkpt>
      <trkpt lat="43.93958" lon="7.29302">
        <ele>567.40002441406</ele>
        <time>2019-04-20T15:10:50.000Z</time>
      </trkpt>
      <trkpt lat="43.9396" lon="7.29288">
        <ele>566</ele>
        <time>2019-04-20T15:10:53.000Z</time>
      </trkpt>
      <trkpt lat="43.93963" lon="7.29285">
        <ele>565.79998779297</ele>
        <time>2019-04-20T15:10:54.000Z</time>
      </trkpt>
      <trkpt lat="43.9397" lon="7.29279">
        <ele>565.59997558594</ele>
        <time>2019-04-20T15:10:56.000Z</time>
      </trkpt>
      <trkpt lat="43.93981" lon="7.29275">
        <ele>564.59997558594</ele>
        <time>2019-04-20T15:10:59.000Z</time>
      </trkpt>
      <trkpt lat="43.93983" lon="7.29272">
        <ele>564.20001220703</ele>
        <time>2019-04-20T15:11:00.000Z</time>
      </trkpt>
      <trkpt lat="43.93985" lon="7.29269">
        <ele>563.59997558594</ele>
        <time>2019-04-20T15:11:01.000Z</time>
      </trkpt>
      <trkpt lat="43.93987" lon="7.29258">
        <ele>563</ele>
        <time>2019-04-20T15:11:04.000Z</time>
      </trkpt>
      <trkpt lat="43.93988" lon="7.29247">
        <ele>562.59997558594</ele>
        <time>2019-04-20T15:11:07.000Z</time>
      </trkpt>
      <trkpt lat="43.93988" lon="7.29246">
        <ele>562.40002441406</ele>
        <time>2019-04-20T15:11:08.000Z</time>
      </trkpt>
      <trkpt lat="43.93988" lon="7.29244">
        <ele>562.59997558594</ele>
        <time>2019-04-20T15:11:09.000Z</time>
      </trkpt>
      <trkpt lat="43.93987" lon="7.2924">
        <ele>563.59997558594</ele>
        <time>2019-04-20T15:11:12.000Z</time>
      </trkpt>
      <trkpt lat="43.93986" lon="7.29238">
        <ele>564.20001220703</ele>
        <time>2019-04-20T15:11:14.000Z</time>
      </trkpt>
      <trkpt lat="43.93987" lon="7.29234">
        <ele>564.59997558594</ele>
        <time>2019-04-20T15:11:17.000Z</time>
      </trkpt>
      <trkpt lat="43.93988" lon="7.29233">
        <ele>564.59997558594</ele>
        <time>2019-04-20T15:11:18.000Z</time>
      </trkpt>
      <trkpt lat="43.93992" lon="7.29227">
        <ele>565.40002441406</ele>
        <time>2019-04-20T15:11:23.000Z</time>
      </trkpt>
      <trkpt lat="43.93992" lon="7.29227">
        <ele>565.79998779297</ele>
        <time>2019-04-20T15:11:25.000Z</time>
      </trkpt>
      <trkpt lat="43.93994" lon="7.29223">
        <ele>566.20001220703</ele>
        <time>2019-04-20T15:11:28.000Z</time>
      </trkpt>
      <trkpt lat="43.93995" lon="7.29221">
        <ele>566.79998779297</ele>
        <time>2019-04-20T15:11:30.000Z</time>
      </trkpt>
      <trkpt lat="43.93995" lon="7.2922">
        <ele>567.59997558594</ele>
        <time>2019-04-20T15:11:34.000Z</time>
      </trkpt>
      <trkpt lat="43.93996" lon="7.2922">
        <ele>567.79998779297</ele>
        <time>2019-04-20T15:11:36.000Z</time>
      </trkpt>
      <trkpt lat="43.93996" lon="7.29222">
        <ele>568</ele>
        <time>2019-04-20T15:11:40.000Z</time>
      </trkpt>
      <trkpt lat="43.93997" lon="7.29223">
        <ele>568</ele>
        <time>2019-04-20T15:11:41.000Z</time>
      </trkpt>
      <trkpt lat="43.93998" lon="7.29223">
        <ele>568.40002441406</ele>
        <time>2019-04-20T15:11:43.000Z</time>
      </trkpt>
      <trkpt lat="43.94" lon="7.29223">
        <ele>568.79998779297</ele>
        <time>2019-04-20T15:11:45.000Z</time>
      </trkpt>
      <trkpt lat="43.94003" lon="7.29227">
        <ele>570</ele>
        <time>2019-04-20T15:11:49.000Z</time>
      </trkpt>
      <trkpt lat="43.94002" lon="7.29227">
        <ele>570.20001220703</ele>
        <time>2019-04-20T15:11:50.000Z</time>
      </trkpt>
      <trkpt lat="43.94009" lon="7.2923">
        <ele>570.40002441406</ele>
        <time>2019-04-20T15:11:54.000Z</time>
      </trkpt>
      <trkpt lat="43.94012" lon="7.29229">
        <ele>570.20001220703</ele>
        <time>2019-04-20T15:11:55.000Z</time>
      </trkpt>
      <trkpt lat="43.94021" lon="7.29232">
        <ele>570</ele>
        <time>2019-04-20T15:11:58.000Z</time>
      </trkpt>
      <trkpt lat="43.94031" lon="7.29233">
        <ele>570.40002441406</ele>
        <time>2019-04-20T15:12:02.000Z</time>
      </trkpt>
      <trkpt lat="43.94034" lon="7.29233">
        <ele>570.40002441406</ele>
        <time>2019-04-20T15:12:03.000Z</time>
      </trkpt>
      <trkpt lat="43.94036" lon="7.29236">
        <ele>570.40002441406</ele>
        <time>2019-04-20T15:12:04.000Z</time>
      </trkpt>
      <trkpt lat="43.94039" lon="7.29238">
        <ele>570.59997558594</ele>
        <time>2019-04-20T15:12:05.000Z</time>
      </trkpt>
      <trkpt lat="43.94053" lon="7.29242">
        <ele>569</ele>
        <time>2019-04-20T15:12:10.000Z</time>
      </trkpt>
      <trkpt lat="43.94055" lon="7.29242">
        <ele>568.40002441406</ele>
        <time>2019-04-20T15:12:11.000Z</time>
      </trkpt>
      <trkpt lat="43.94065" lon="7.2924">
        <ele>567.59997558594</ele>
        <time>2019-04-20T15:12:13.000Z</time>
      </trkpt>
      <trkpt lat="43.94071" lon="7.29241">
        <ele>566.59997558594</ele>
        <time>2019-04-20T15:12:14.000Z</time>
      </trkpt>
      <trkpt lat="43.94076" lon="7.29242">
        <ele>565</ele>
        <time>2019-04-20T15:12:15.000Z</time>
      </trkpt>
      <trkpt lat="43.94084" lon="7.29239">
        <ele>563.40002441406</ele>
        <time>2019-04-20T15:12:17.000Z</time>
      </trkpt>
      <trkpt lat="43.94091" lon="7.29232">
        <ele>562.79998779297</ele>
        <time>2019-04-20T15:12:19.000Z</time>
      </trkpt>
      <trkpt lat="43.94094" lon="7.2923">
        <ele>563</ele>
        <time>2019-04-20T15:12:20.000Z</time>
      </trkpt>
      <trkpt lat="43.94097" lon="7.29228">
        <ele>562.40002441406</ele>
        <time>2019-04-20T15:12:21.000Z</time>
      </trkpt>
      <trkpt lat="43.94099" lon="7.29226">
        <ele>562.40002441406</ele>
        <time>2019-04-20T15:12:23.000Z</time>
      </trkpt>
      <trkpt lat="43.94106" lon="7.29215">
        <ele>563.40002441406</ele>
        <time>2019-04-20T15:12:30.000Z</time>
      </trkpt>
      <trkpt lat="43.94107" lon="7.29213">
        <ele>563.59997558594</ele>
        <time>2019-04-20T15:12:31.000Z</time>
      </trkpt>
      <trkpt lat="43.94108" lon="7.29206">
        <ele>564.79998779297</ele>
        <time>2019-04-20T15:12:35.000Z</time>
      </trkpt>
      <trkpt lat="43.94108" lon="7.29204">
        <ele>565</ele>
        <time>2019-04-20T15:12:36.000Z</time>
      </trkpt>
      <trkpt lat="43.94108" lon="7.29202">
        <ele>565</ele>
        <time>2019-04-20T15:12:37.000Z</time>
      </trkpt>
      <trkpt lat="43.94106" lon="7.29195">
        <ele>564.40002441406</ele>
        <time>2019-04-20T15:12:41.000Z</time>
      </trkpt>
      <trkpt lat="43.94104" lon="7.29178">
        <ele>563.59997558594</ele>
        <time>2019-04-20T15:12:45.000Z</time>
      </trkpt>
      <trkpt lat="43.94105" lon="7.29174">
        <ele>563.40002441406</ele>
        <time>2019-04-20T15:12:46.000Z</time>
      </trkpt>
      <trkpt lat="43.94105" lon="7.2917">
        <ele>563.20001220703</ele>
        <time>2019-04-20T15:12:48.000Z</time>
      </trkpt>
      <trkpt lat="43.94103" lon="7.29165">
        <ele>563.59997558594</ele>
        <time>2019-04-20T15:12:50.000Z</time>
      </trkpt>
      <trkpt lat="43.94099" lon="7.2915">
        <ele>564.20001220703</ele>
        <time>2019-04-20T15:12:55.000Z</time>
      </trkpt>
      <trkpt lat="43.94101" lon="7.29135">
        <ele>564.20001220703</ele>
        <time>2019-04-20T15:12:59.000Z</time>
      </trkpt>
      <trkpt lat="43.94101" lon="7.29131">
        <ele>564</ele>
        <time>2019-04-20T15:13:00.000Z</time>
      </trkpt>
      <trkpt lat="43.94099" lon="7.29125">
        <ele>564</ele>
        <time>2019-04-20T15:13:02.000Z</time>
      </trkpt>
      <trkpt lat="43.94101" lon="7.29117">
        <ele>564.79998779297</ele>
        <time>2019-04-20T15:13:05.000Z</time>
      </trkpt>
      <trkpt lat="43.94102" lon="7.29113">
        <ele>565.20001220703</ele>
        <time>2019-04-20T15:13:06.000Z</time>
      </trkpt>
      <trkpt lat="43.94106" lon="7.29096">
        <ele>563.20001220703</ele>
        <time>2019-04-20T15:13:11.000Z</time>
      </trkpt>
      <trkpt lat="43.9411" lon="7.29089">
        <ele>562</ele>
        <time>2019-04-20T15:13:13.000Z</time>
      </trkpt>
      <trkpt lat="43.94111" lon="7.29084">
        <ele>561</ele>
        <time>2019-04-20T15:13:15.000Z</time>
      </trkpt>
      <trkpt lat="43.94111" lon="7.29081">
        <ele>560.59997558594</ele>
        <time>2019-04-20T15:13:16.000Z</time>
      </trkpt>
      <trkpt lat="43.94115" lon="7.29076">
        <ele>558.59997558594</ele>
        <time>2019-04-20T15:13:18.000Z</time>
      </trkpt>
      <trkpt lat="43.94118" lon="7.29073">
        <ele>557.59997558594</ele>
        <time>2019-04-20T15:13:19.000Z</time>
      </trkpt>
      <trkpt lat="43.94118" lon="7.2907">
        <ele>557.40002441406</ele>
        <time>2019-04-20T15:13:20.000Z</time>
      </trkpt>
      <trkpt lat="43.94118" lon="7.29062">
        <ele>556.59997558594</ele>
        <time>2019-04-20T15:13:22.000Z</time>
      </trkpt>
      <trkpt lat="43.94119" lon="7.29054">
        <ele>555.59997558594</ele>
        <time>2019-04-20T15:13:24.000Z</time>
      </trkpt>
      <trkpt lat="43.9412" lon="7.29049">
        <ele>554.59997558594</ele>
        <time>2019-04-20T15:13:25.000Z</time>
      </trkpt>
      <trkpt lat="43.94121" lon="7.29043">
        <ele>553.40002441406</ele>
        <time>2019-04-20T15:13:26.000Z</time>
      </trkpt>
      <trkpt lat="43.94126" lon="7.29026">
        <ele>553</ele>
        <time>2019-04-20T15:13:30.000Z</time>
      </trkpt>
      <trkpt lat="43.94128" lon="7.29022">
        <ele>553.40002441406</ele>
        <time>2019-04-20T15:13:31.000Z</time>
      </trkpt>
      <trkpt lat="43.94133" lon="7.29006">
        <ele>554.59997558594</ele>
        <time>2019-04-20T15:13:36.000Z</time>
      </trkpt>
      <trkpt lat="43.94134" lon="7.29003">
        <ele>555.59997558594</ele>
        <time>2019-04-20T15:13:39.000Z</time>
      </trkpt>
      <trkpt lat="43.94135" lon="7.29002">
        <ele>556</ele>
        <time>2019-04-20T15:13:40.000Z</time>
      </trkpt>
      <trkpt lat="43.94137" lon="7.29001">
        <ele>556</ele>
        <time>2019-04-20T15:13:41.000Z</time>
      </trkpt>
      <trkpt lat="43.9414" lon="7.28997">
        <ele>556.59997558594</ele>
        <time>2019-04-20T15:13:45.000Z</time>
      </trkpt>
      <trkpt lat="43.9414" lon="7.28994">
        <ele>556.79998779297</ele>
        <time>2019-04-20T15:13:47.000Z</time>
      </trkpt>
      <trkpt lat="43.94141" lon="7.28992">
        <ele>557</ele>
        <time>2019-04-20T15:13:48.000Z</time>
      </trkpt>
      <trkpt lat="43.94145" lon="7.28989">
        <ele>556.79998779297</ele>
        <time>2019-04-20T15:13:51.000Z</time>
      </trkpt>
      <trkpt lat="43.94147" lon="7.28988">
        <ele>556.59997558594</ele>
        <time>2019-04-20T15:13:53.000Z</time>
      </trkpt>
      <trkpt lat="43.9415" lon="7.28987">
        <ele>556.20001220703</ele>
        <time>2019-04-20T15:13:56.000Z</time>
      </trkpt>
      <trkpt lat="43.94156" lon="7.28988">
        <ele>557.20001220703</ele>
        <time>2019-04-20T15:14:02.000Z</time>
      </trkpt>
      <trkpt lat="43.94157" lon="7.28987">
        <ele>557.79998779297</ele>
        <time>2019-04-20T15:14:04.000Z</time>
      </trkpt>
      <trkpt lat="43.94161" lon="7.28984">
        <ele>558.79998779297</ele>
        <time>2019-04-20T15:14:09.000Z</time>
      </trkpt>
      <trkpt lat="43.94161" lon="7.28983">
        <ele>559</ele>
        <time>2019-04-20T15:14:10.000Z</time>
      </trkpt>
      <trkpt lat="43.94166" lon="7.28977">
        <ele>560</ele>
        <time>2019-04-20T15:14:15.000Z</time>
      </trkpt>
      <trkpt lat="43.94167" lon="7.28974">
        <ele>560.20001220703</ele>
        <time>2019-04-20T15:14:17.000Z</time>
      </trkpt>
      <trkpt lat="43.94167" lon="7.28973">
        <ele>560.20001220703</ele>
        <time>2019-04-20T15:14:18.000Z</time>
      </trkpt>
      <trkpt lat="43.94167" lon="7.28968">
        <ele>560.40002441406</ele>
        <time>2019-04-20T15:14:21.000Z</time>
      </trkpt>
      <trkpt lat="43.94168" lon="7.28963">
        <ele>560.79998779297</ele>
        <time>2019-04-20T15:14:24.000Z</time>
      </trkpt>
      <trkpt lat="43.9417" lon="7.28961">
        <ele>561</ele>
        <time>2019-04-20T15:14:27.000Z</time>
      </trkpt>
      <trkpt lat="43.94171" lon="7.2896">
        <ele>561.20001220703</ele>
        <time>2019-04-20T15:14:28.000Z</time>
      </trkpt>
      <trkpt lat="43.9418" lon="7.28958">
        <ele>560.79998779297</ele>
        <time>2019-04-20T15:14:32.000Z</time>
      </trkpt>
      <trkpt lat="43.94193" lon="7.28952">
        <ele>560.20001220703</ele>
        <time>2019-04-20T15:14:36.000Z</time>
      </trkpt>
      <trkpt lat="43.94195" lon="7.28949">
        <ele>559.59997558594</ele>
        <time>2019-04-20T15:14:37.000Z</time>
      </trkpt>
      <trkpt lat="43.94197" lon="7.28945">
        <ele>558.79998779297</ele>
        <time>2019-04-20T15:14:39.000Z</time>
      </trkpt>
      <trkpt lat="43.94199" lon="7.2894">
        <ele>558.79998779297</ele>
        <time>2019-04-20T15:14:41.000Z</time>
      </trkpt>
      <trkpt lat="43.942" lon="7.28938">
        <ele>558.79998779297</ele>
        <time>2019-04-20T15:14:42.000Z</time>
      </trkpt>
      <trkpt lat="43.94204" lon="7.28939">
        <ele>559</ele>
        <time>2019-04-20T15:14:44.000Z</time>
      </trkpt>
      <trkpt lat="43.94206" lon="7.28934">
        <ele>557.59997558594</ele>
        <time>2019-04-20T15:14:48.000Z</time>
      </trkpt>
      <trkpt lat="43.94202" lon="7.28929">
        <ele>556.20001220703</ele>
        <time>2019-04-20T15:14:50.000Z</time>
      </trkpt>
      <trkpt lat="43.942" lon="7.28926">
        <ele>556.20001220703</ele>
        <time>2019-04-20T15:14:51.000Z</time>
      </trkpt>
      <trkpt lat="43.94198" lon="7.28924">
        <ele>555.40002441406</ele>
        <time>2019-04-20T15:14:52.000Z</time>
      </trkpt>
      <trkpt lat="43.94194" lon="7.28921">
        <ele>555</ele>
        <time>2019-04-20T15:14:54.000Z</time>
      </trkpt>
      <trkpt lat="43.94192" lon="7.28919">
        <ele>554</ele>
        <time>2019-04-20T15:14:56.000Z</time>
      </trkpt>
      <trkpt lat="43.94192" lon="7.28917">
        <ele>553.79998779297</ele>
        <time>2019-04-20T15:14:57.000Z</time>
      </trkpt>
      <trkpt lat="43.9419" lon="7.28913">
        <ele>552.59997558594</ele>
        <time>2019-04-20T15:15:01.000Z</time>
      </trkpt>
      <trkpt lat="43.9419" lon="7.28912">
        <ele>552.40002441406</ele>
        <time>2019-04-20T15:15:02.000Z</time>
      </trkpt>
      <trkpt lat="43.94187" lon="7.28907">
        <ele>551.40002441406</ele>
        <time>2019-04-20T15:15:05.000Z</time>
      </trkpt>
      <trkpt lat="43.94185" lon="7.28905">
        <ele>550.40002441406</ele>
        <time>2019-04-20T15:15:07.000Z</time>
      </trkpt>
      <trkpt lat="43.94184" lon="7.28904">
        <ele>549.40002441406</ele>
        <time>2019-04-20T15:15:08.000Z</time>
      </trkpt>
      <trkpt lat="43.94182" lon="7.28901">
        <ele>548.40002441406</ele>
        <time>2019-04-20T15:15:12.000Z</time>
      </trkpt>
      <trkpt lat="43.94183" lon="7.289">
        <ele>548.79998779297</ele>
        <time>2019-04-20T15:15:13.000Z</time>
      </trkpt>
      <trkpt lat="43.94186" lon="7.289">
        <ele>548.20001220703</ele>
        <time>2019-04-20T15:15:16.000Z</time>
      </trkpt>
      <trkpt lat="43.94186" lon="7.289">
        <ele>547.79998779297</ele>
        <time>2019-04-20T15:15:18.000Z</time>
      </trkpt>
      <trkpt lat="43.94187" lon="7.28898">
        <ele>547.20001220703</ele>
        <time>2019-04-20T15:15:21.000Z</time>
      </trkpt>
      <trkpt lat="43.94186" lon="7.28897">
        <ele>546.79998779297</ele>
        <time>2019-04-20T15:15:23.000Z</time>
      </trkpt>
      <trkpt lat="43.94184" lon="7.28896">
        <ele>546</ele>
        <time>2019-04-20T15:15:27.000Z</time>
      </trkpt>
      <trkpt lat="43.94183" lon="7.28895">
        <ele>545.79998779297</ele>
        <time>2019-04-20T15:15:28.000Z</time>
      </trkpt>
      <trkpt lat="43.94182" lon="7.28894">
        <ele>545.59997558594</ele>
        <time>2019-04-20T15:15:29.000Z</time>
      </trkpt>
      <trkpt lat="43.94177" lon="7.2889">
        <ele>545</ele>
        <time>2019-04-20T15:15:32.000Z</time>
      </trkpt>
      <trkpt lat="43.94171" lon="7.28888">
        <ele>544.20001220703</ele>
        <time>2019-04-20T15:15:34.000Z</time>
      </trkpt>
      <trkpt lat="43.94168" lon="7.28886">
        <ele>543.59997558594</ele>
        <time>2019-04-20T15:15:35.000Z</time>
      </trkpt>
      <trkpt lat="43.94163" lon="7.2888">
        <ele>542.40002441406</ele>
        <time>2019-04-20T15:15:37.000Z</time>
      </trkpt>
      <trkpt lat="43.94163" lon="7.28879">
        <ele>541.20001220703</ele>
        <time>2019-04-20T15:15:38.000Z</time>
      </trkpt>
      <trkpt lat="43.94166" lon="7.28877">
        <ele>539.40002441406</ele>
        <time>2019-04-20T15:15:40.000Z</time>
      </trkpt>
      <trkpt lat="43.94169" lon="7.28878">
        <ele>538.59997558594</ele>
        <time>2019-04-20T15:15:41.000Z</time>
      </trkpt>
      <trkpt lat="43.94171" lon="7.28879">
        <ele>537.59997558594</ele>
        <time>2019-04-20T15:15:42.000Z</time>
      </trkpt>
      <trkpt lat="43.94172" lon="7.28876">
        <ele>536.40002441406</ele>
        <time>2019-04-20T15:15:44.000Z</time>
      </trkpt>
      <trkpt lat="43.94172" lon="7.28877">
        <ele>535.79998779297</ele>
        <time>2019-04-20T15:15:45.000Z</time>
      </trkpt>
      <trkpt lat="43.94171" lon="7.28874">
        <ele>535.20001220703</ele>
        <time>2019-04-20T15:15:46.000Z</time>
      </trkpt>
      <trkpt lat="43.94164" lon="7.28867">
        <ele>534.40002441406</ele>
        <time>2019-04-20T15:15:49.000Z</time>
      </trkpt>
      <trkpt lat="43.94162" lon="7.28864">
        <ele>534.20001220703</ele>
        <time>2019-04-20T15:15:50.000Z</time>
      </trkpt>
      <trkpt lat="43.94159" lon="7.28857">
        <ele>532.79998779297</ele>
        <time>2019-04-20T15:15:52.000Z</time>
      </trkpt>
      <trkpt lat="43.94155" lon="7.28852">
        <ele>531.20001220703</ele>
        <time>2019-04-20T15:15:54.000Z</time>
      </trkpt>
      <trkpt lat="43.94152" lon="7.2885">
        <ele>530</ele>
        <time>2019-04-20T15:15:56.000Z</time>
      </trkpt>
      <trkpt lat="43.94148" lon="7.28849">
        <ele>529</ele>
        <time>2019-04-20T15:15:58.000Z</time>
      </trkpt>
      <trkpt lat="43.94146" lon="7.28848">
        <ele>528.20001220703</ele>
        <time>2019-04-20T15:15:59.000Z</time>
      </trkpt>
      <trkpt lat="43.94142" lon="7.28844">
        <ele>527</ele>
        <time>2019-04-20T15:16:01.000Z</time>
      </trkpt>
      <trkpt lat="43.94139" lon="7.28841">
        <ele>525.59997558594</ele>
        <time>2019-04-20T15:16:03.000Z</time>
      </trkpt>
      <trkpt lat="43.94134" lon="7.28839">
        <ele>524.20001220703</ele>
        <time>2019-04-20T15:16:05.000Z</time>
      </trkpt>
      <trkpt lat="43.94132" lon="7.28837">
        <ele>523</ele>
        <time>2019-04-20T15:16:06.000Z</time>
      </trkpt>
      <trkpt lat="43.9413" lon="7.28834">
        <ele>522.40002441406</ele>
        <time>2019-04-20T15:16:07.000Z</time>
      </trkpt>
      <trkpt lat="43.94127" lon="7.28831">
        <ele>521.79998779297</ele>
        <time>2019-04-20T15:16:08.000Z</time>
      </trkpt>
      <trkpt lat="43.94121" lon="7.28823">
        <ele>520</ele>
        <time>2019-04-20T15:16:10.000Z</time>
      </trkpt>
      <trkpt lat="43.94118" lon="7.28817">
        <ele>519.40002441406</ele>
        <time>2019-04-20T15:16:11.000Z</time>
      </trkpt>
      <trkpt lat="43.94116" lon="7.28812">
        <ele>518.79998779297</ele>
        <time>2019-04-20T15:16:12.000Z</time>
      </trkpt>
      <trkpt lat="43.94114" lon="7.28807">
        <ele>518</ele>
        <time>2019-04-20T15:16:13.000Z</time>
      </trkpt>
      <trkpt lat="43.94112" lon="7.28804">
        <ele>517.20001220703</ele>
        <time>2019-04-20T15:16:14.000Z</time>
      </trkpt>
      <trkpt lat="43.9411" lon="7.28802">
        <ele>516.20001220703</ele>
        <time>2019-04-20T15:16:15.000Z</time>
      </trkpt>
      <trkpt lat="43.94109" lon="7.28799">
        <ele>515.59997558594</ele>
        <time>2019-04-20T15:16:16.000Z</time>
      </trkpt>
      <trkpt lat="43.94106" lon="7.28793">
        <ele>514.40002441406</ele>
        <time>2019-04-20T15:16:19.000Z</time>
      </trkpt>
      <trkpt lat="43.94104" lon="7.2879">
        <ele>513.79998779297</ele>
        <time>2019-04-20T15:16:20.000Z</time>
      </trkpt>
      <trkpt lat="43.94102" lon="7.28788">
        <ele>513.20001220703</ele>
        <time>2019-04-20T15:16:21.000Z</time>
      </trkpt>
      <trkpt lat="43.94101" lon="7.28786">
        <ele>512</ele>
        <time>2019-04-20T15:16:22.000Z</time>
      </trkpt>
      <trkpt lat="43.94099" lon="7.28784">
        <ele>510.79998779297</ele>
        <time>2019-04-20T15:16:23.000Z</time>
      </trkpt>
      <trkpt lat="43.94097" lon="7.28782">
        <ele>509.79998779297</ele>
        <time>2019-04-20T15:16:24.000Z</time>
      </trkpt>
      <trkpt lat="43.94096" lon="7.28779">
        <ele>509.39999389648</ele>
        <time>2019-04-20T15:16:25.000Z</time>
      </trkpt>
      <trkpt lat="43.94097" lon="7.28778">
        <ele>508.79998779297</ele>
        <time>2019-04-20T15:16:26.000Z</time>
      </trkpt>
      <trkpt lat="43.94098" lon="7.28777">
        <ele>508.20001220703</ele>
        <time>2019-04-20T15:16:27.000Z</time>
      </trkpt>
      <trkpt lat="43.941" lon="7.28777">
        <ele>507.79998779297</ele>
        <time>2019-04-20T15:16:28.000Z</time>
      </trkpt>
      <trkpt lat="43.94104" lon="7.28776">
        <ele>506.60000610352</ele>
        <time>2019-04-20T15:16:30.000Z</time>
      </trkpt>
      <trkpt lat="43.94109" lon="7.28777">
        <ele>505.60000610352</ele>
        <time>2019-04-20T15:16:32.000Z</time>
      </trkpt>
      <trkpt lat="43.94112" lon="7.28776">
        <ele>505</ele>
        <time>2019-04-20T15:16:33.000Z</time>
      </trkpt>
      <trkpt lat="43.94115" lon="7.28776">
        <ele>504.20001220703</ele>
        <time>2019-04-20T15:16:34.000Z</time>
      </trkpt>
      <trkpt lat="43.94118" lon="7.28776">
        <ele>503</ele>
        <time>2019-04-20T15:16:35.000Z</time>
      </trkpt>
      <trkpt lat="43.94121" lon="7.28778">
        <ele>502.39999389648</ele>
        <time>2019-04-20T15:16:36.000Z</time>
      </trkpt>
      <trkpt lat="43.94124" lon="7.2878">
        <ele>501.39999389648</ele>
        <time>2019-04-20T15:16:37.000Z</time>
      </trkpt>
      <trkpt lat="43.94131" lon="7.28785">
        <ele>500</ele>
        <time>2019-04-20T15:16:39.000Z</time>
      </trkpt>
      <trkpt lat="43.94136" lon="7.28785">
        <ele>499</ele>
        <time>2019-04-20T15:16:41.000Z</time>
      </trkpt>
      <trkpt lat="43.9414" lon="7.28785">
        <ele>497.60000610352</ele>
        <time>2019-04-20T15:16:42.000Z</time>
      </trkpt>
      <trkpt lat="43.94145" lon="7.28783">
        <ele>496.20001220703</ele>
        <time>2019-04-20T15:16:44.000Z</time>
      </trkpt>
      <trkpt lat="43.94148" lon="7.28782">
        <ele>495</ele>
        <time>2019-04-20T15:16:45.000Z</time>
      </trkpt>
      <trkpt lat="43.94152" lon="7.28781">
        <ele>494</ele>
        <time>2019-04-20T15:16:46.000Z</time>
      </trkpt>
      <trkpt lat="43.94154" lon="7.2878">
        <ele>493</ele>
        <time>2019-04-20T15:16:47.000Z</time>
      </trkpt>
      <trkpt lat="43.94157" lon="7.28779">
        <ele>491.79998779297</ele>
        <time>2019-04-20T15:16:48.000Z</time>
      </trkpt>
      <trkpt lat="43.9416" lon="7.28777">
        <ele>490.39999389648</ele>
        <time>2019-04-20T15:16:50.000Z</time>
      </trkpt>
      <trkpt lat="43.94158" lon="7.28775">
        <ele>488.79998779297</ele>
        <time>2019-04-20T15:16:52.000Z</time>
      </trkpt>
      <trkpt lat="43.94156" lon="7.28773">
        <ele>488.39999389648</ele>
        <time>2019-04-20T15:16:53.000Z</time>
      </trkpt>
      <trkpt lat="43.94153" lon="7.2877">
        <ele>487.79998779297</ele>
        <time>2019-04-20T15:16:54.000Z</time>
      </trkpt>
      <trkpt lat="43.9415" lon="7.28766">
        <ele>487.39999389648</ele>
        <time>2019-04-20T15:16:55.000Z</time>
      </trkpt>
      <trkpt lat="43.94145" lon="7.28763">
        <ele>486.60000610352</ele>
        <time>2019-04-20T15:16:56.000Z</time>
      </trkpt>
      <trkpt lat="43.94142" lon="7.2876">
        <ele>486</ele>
        <time>2019-04-20T15:16:57.000Z</time>
      </trkpt>
      <trkpt lat="43.94138" lon="7.28756">
        <ele>484.79998779297</ele>
        <time>2019-04-20T15:16:58.000Z</time>
      </trkpt>
      <trkpt lat="43.94132" lon="7.28748">
        <ele>482.20001220703</ele>
        <time>2019-04-20T15:17:00.000Z</time>
      </trkpt>
      <trkpt lat="43.94129" lon="7.28744">
        <ele>480.39999389648</ele>
        <time>2019-04-20T15:17:01.000Z</time>
      </trkpt>
      <trkpt lat="43.94125" lon="7.28741">
        <ele>479.39999389648</ele>
        <time>2019-04-20T15:17:02.000Z</time>
      </trkpt>
      <trkpt lat="43.94123" lon="7.28738">
        <ele>478.39999389648</ele>
        <time>2019-04-20T15:17:03.000Z</time>
      </trkpt>
      <trkpt lat="43.94119" lon="7.28734">
        <ele>476.60000610352</ele>
        <time>2019-04-20T15:17:05.000Z</time>
      </trkpt>
      <trkpt lat="43.94117" lon="7.28731">
        <ele>476.39999389648</ele>
        <time>2019-04-20T15:17:06.000Z</time>
      </trkpt>
      <trkpt lat="43.94114" lon="7.28729">
        <ele>475.39999389648</ele>
        <time>2019-04-20T15:17:08.000Z</time>
      </trkpt>
      <trkpt lat="43.94113" lon="7.28728">
        <ele>474.60000610352</ele>
        <time>2019-04-20T15:17:09.000Z</time>
      </trkpt>
      <trkpt lat="43.94111" lon="7.28726">
        <ele>474</ele>
        <time>2019-04-20T15:17:10.000Z</time>
      </trkpt>
      <trkpt lat="43.94111" lon="7.28726">
        <ele>472.79998779297</ele>
        <time>2019-04-20T15:17:12.000Z</time>
      </trkpt>
      <trkpt lat="43.94111" lon="7.28724">
        <ele>471.60000610352</ele>
        <time>2019-04-20T15:17:14.000Z</time>
      </trkpt>
      <trkpt lat="43.94113" lon="7.28723">
        <ele>470.39999389648</ele>
        <time>2019-04-20T15:17:18.000Z</time>
      </trkpt>
      <trkpt lat="43.94114" lon="7.28723">
        <ele>470.60000610352</ele>
        <time>2019-04-20T15:17:19.000Z</time>
      </trkpt>
      <trkpt lat="43.94115" lon="7.28722">
        <ele>469.20001220703</ele>
        <time>2019-04-20T15:17:25.000Z</time>
      </trkpt>
      <trkpt lat="43.94114" lon="7.28721">
        <ele>469</ele>
        <time>2019-04-20T15:17:26.000Z</time>
      </trkpt>
      <trkpt lat="43.94107" lon="7.2871">
        <ele>467.79998779297</ele>
        <time>2019-04-20T15:17:31.000Z</time>
      </trkpt>
      <trkpt lat="43.94103" lon="7.28707">
        <ele>466.79998779297</ele>
        <time>2019-04-20T15:17:33.000Z</time>
      </trkpt>
      <trkpt lat="43.941" lon="7.28708">
        <ele>465.79998779297</ele>
        <time>2019-04-20T15:17:35.000Z</time>
      </trkpt>
      <trkpt lat="43.94095" lon="7.28706">
        <ele>464.39999389648</ele>
        <time>2019-04-20T15:17:37.000Z</time>
      </trkpt>
      <trkpt lat="43.94091" lon="7.28702">
        <ele>463</ele>
        <time>2019-04-20T15:17:39.000Z</time>
      </trkpt>
      <trkpt lat="43.94088" lon="7.28698">
        <ele>462.20001220703</ele>
        <time>2019-04-20T15:17:40.000Z</time>
      </trkpt>
      <trkpt lat="43.94086" lon="7.28694">
        <ele>461.60000610352</ele>
        <time>2019-04-20T15:17:41.000Z</time>
      </trkpt>
      <trkpt lat="43.94085" lon="7.28691">
        <ele>460.60000610352</ele>
        <time>2019-04-20T15:17:42.000Z</time>
      </trkpt>
      <trkpt lat="43.94084" lon="7.28689">
        <ele>459.79998779297</ele>
        <time>2019-04-20T15:17:43.000Z</time>
      </trkpt>
      <trkpt lat="43.94085" lon="7.28687">
        <ele>459</ele>
        <time>2019-04-20T15:17:44.000Z</time>
      </trkpt>
      <trkpt lat="43.94086" lon="7.28686">
        <ele>458.39999389648</ele>
        <time>2019-04-20T15:17:45.000Z</time>
      </trkpt>
      <trkpt lat="43.94089" lon="7.28686">
        <ele>457.39999389648</ele>
        <time>2019-04-20T15:17:47.000Z</time>
      </trkpt>
      <trkpt lat="43.9409" lon="7.28686">
        <ele>456.39999389648</ele>
        <time>2019-04-20T15:17:49.000Z</time>
      </trkpt>
      <trkpt lat="43.9409" lon="7.28683">
        <ele>455.20001220703</ele>
        <time>2019-04-20T15:17:51.000Z</time>
      </trkpt>
      <trkpt lat="43.94089" lon="7.28682">
        <ele>454.79998779297</ele>
        <time>2019-04-20T15:17:52.000Z</time>
      </trkpt>
      <trkpt lat="43.94086" lon="7.28681">
        <ele>454</ele>
        <time>2019-04-20T15:17:53.000Z</time>
      </trkpt>
      <trkpt lat="43.94079" lon="7.28673">
        <ele>452.39999389648</ele>
        <time>2019-04-20T15:17:56.000Z</time>
      </trkpt>
      <trkpt lat="43.94082" lon="7.2867">
        <ele>451.39999389648</ele>
        <time>2019-04-20T15:17:58.000Z</time>
      </trkpt>
      <trkpt lat="43.94087" lon="7.28668">
        <ele>450.20001220703</ele>
        <time>2019-04-20T15:18:00.000Z</time>
      </trkpt>
      <trkpt lat="43.94093" lon="7.28667">
        <ele>449</ele>
        <time>2019-04-20T15:18:02.000Z</time>
      </trkpt>
      <trkpt lat="43.94095" lon="7.28666">
        <ele>448.20001220703</ele>
        <time>2019-04-20T15:18:03.000Z</time>
      </trkpt>
      <trkpt lat="43.94096" lon="7.28664">
        <ele>447.79998779297</ele>
        <time>2019-04-20T15:18:04.000Z</time>
      </trkpt>
      <trkpt lat="43.94096" lon="7.28659">
        <ele>446.39999389648</ele>
        <time>2019-04-20T15:18:06.000Z</time>
      </trkpt>
      <trkpt lat="43.94095" lon="7.28655">
        <ele>445.79998779297</ele>
        <time>2019-04-20T15:18:07.000Z</time>
      </trkpt>
      <trkpt lat="43.94094" lon="7.2865">
        <ele>444.60000610352</ele>
        <time>2019-04-20T15:18:09.000Z</time>
      </trkpt>
      <trkpt lat="43.94093" lon="7.28648">
        <ele>443.60000610352</ele>
        <time>2019-04-20T15:18:10.000Z</time>
      </trkpt>
      <trkpt lat="43.94091" lon="7.28645">
        <ele>442.39999389648</ele>
        <time>2019-04-20T15:18:11.000Z</time>
      </trkpt>
      <trkpt lat="43.94091" lon="7.2864">
        <ele>441</ele>
        <time>2019-04-20T15:18:13.000Z</time>
      </trkpt>
      <trkpt lat="43.94093" lon="7.28637">
        <ele>440.60000610352</ele>
        <time>2019-04-20T15:18:14.000Z</time>
      </trkpt>
      <trkpt lat="43.94096" lon="7.28633">
        <ele>439.20001220703</ele>
        <time>2019-04-20T15:18:16.000Z</time>
      </trkpt>
      <trkpt lat="43.94098" lon="7.28626">
        <ele>437.79998779297</ele>
        <time>2019-04-20T15:18:18.000Z</time>
      </trkpt>
      <trkpt lat="43.94099" lon="7.28622">
        <ele>437</ele>
        <time>2019-04-20T15:18:19.000Z</time>
      </trkpt>
      <trkpt lat="43.94099" lon="7.28618">
        <ele>436.20001220703</ele>
        <time>2019-04-20T15:18:20.000Z</time>
      </trkpt>
      <trkpt lat="43.941" lon="7.28614">
        <ele>434.60000610352</ele>
        <time>2019-04-20T15:18:22.000Z</time>
      </trkpt>
      <trkpt lat="43.94101" lon="7.28613">
        <ele>433.79998779297</ele>
        <time>2019-04-20T15:18:23.000Z</time>
      </trkpt>
      <trkpt lat="43.94101" lon="7.2861">
        <ele>433.39999389648</ele>
        <time>2019-04-20T15:18:24.000Z</time>
      </trkpt>
      <trkpt lat="43.94102" lon="7.28607">
        <ele>432.79998779297</ele>
        <time>2019-04-20T15:18:25.000Z</time>
      </trkpt>
      <trkpt lat="43.94103" lon="7.28604">
        <ele>432</ele>
        <time>2019-04-20T15:18:26.000Z</time>
      </trkpt>
      <trkpt lat="43.94104" lon="7.28603">
        <ele>431.79998779297</ele>
        <time>2019-04-20T15:18:27.000Z</time>
      </trkpt>
      <trkpt lat="43.94104" lon="7.28602">
        <ele>430.60000610352</ele>
        <time>2019-04-20T15:18:29.000Z</time>
      </trkpt>
      <trkpt lat="43.94104" lon="7.28599">
        <ele>429.60000610352</ele>
        <time>2019-04-20T15:18:31.000Z</time>
      </trkpt>
      <trkpt lat="43.94104" lon="7.28597">
        <ele>428.79998779297</ele>
        <time>2019-04-20T15:18:36.000Z</time>
      </trkpt>
      <trkpt lat="43.94104" lon="7.28597">
        <ele>428.60000610352</ele>
        <time>2019-04-20T15:18:37.000Z</time>
      </trkpt>
      <trkpt lat="43.94104" lon="7.28596">
        <ele>428.20001220703</ele>
        <time>2019-04-20T15:18:53.000Z</time>
      </trkpt>
      <trkpt lat="43.94104" lon="7.28596">
        <ele>428.20001220703</ele>
        <time>2019-04-20T15:19:08.000Z</time>
      </trkpt>
      <trkpt lat="43.94104" lon="7.28595">
        <ele>428.39999389648</ele>
        <time>2019-04-20T15:19:17.000Z</time>
      </trkpt>
      <trkpt lat="43.94105" lon="7.28593">
        <ele>428.39999389648</ele>
        <time>2019-04-20T15:19:24.000Z</time>
      </trkpt>
      <trkpt lat="43.94108" lon="7.28589">
        <ele>428.20001220703</ele>
        <time>2019-04-20T15:19:26.000Z</time>
      </trkpt>
      <trkpt lat="43.94107" lon="7.2858">
        <ele>427.39999389648</ele>
        <time>2019-04-20T15:19:29.000Z</time>
      </trkpt>
      <trkpt lat="43.94106" lon="7.28576">
        <ele>426.79998779297</ele>
        <time>2019-04-20T15:19:30.000Z</time>
      </trkpt>
      <trkpt lat="43.94106" lon="7.28571">
        <ele>426.20001220703</ele>
        <time>2019-04-20T15:19:31.000Z</time>
      </trkpt>
      <trkpt lat="43.94105" lon="7.28565">
        <ele>425.79998779297</ele>
        <time>2019-04-20T15:19:32.000Z</time>
      </trkpt>
      <trkpt lat="43.94105" lon="7.28557">
        <ele>425.20001220703</ele>
        <time>2019-04-20T15:19:33.000Z</time>
      </trkpt>
      <trkpt lat="43.94104" lon="7.2855">
        <ele>424.60000610352</ele>
        <time>2019-04-20T15:19:34.000Z</time>
      </trkpt>
      <trkpt lat="43.94103" lon="7.28537">
        <ele>423.39999389648</ele>
        <time>2019-04-20T15:19:36.000Z</time>
      </trkpt>
      <trkpt lat="43.94103" lon="7.28524">
        <ele>421.60000610352</ele>
        <time>2019-04-20T15:19:38.000Z</time>
      </trkpt>
      <trkpt lat="43.94105" lon="7.28508">
        <ele>419.79998779297</ele>
        <time>2019-04-20T15:19:40.000Z</time>
      </trkpt>
      <trkpt lat="43.94105" lon="7.28501">
        <ele>418.60000610352</ele>
        <time>2019-04-20T15:19:41.000Z</time>
      </trkpt>
      <trkpt lat="43.94105" lon="7.28494">
        <ele>417.60000610352</ele>
        <time>2019-04-20T15:19:42.000Z</time>
      </trkpt>
      <trkpt lat="43.94104" lon="7.28488">
        <ele>416</ele>
        <time>2019-04-20T15:19:43.000Z</time>
      </trkpt>
      <trkpt lat="43.94103" lon="7.28483">
        <ele>415</ele>
        <time>2019-04-20T15:19:44.000Z</time>
      </trkpt>
      <trkpt lat="43.94101" lon="7.28478">
        <ele>413.60000610352</ele>
        <time>2019-04-20T15:19:45.000Z</time>
      </trkpt>
      <trkpt lat="43.941" lon="7.28468">
        <ele>412</ele>
        <time>2019-04-20T15:19:47.000Z</time>
      </trkpt>
      <trkpt lat="43.941" lon="7.28454">
        <ele>410.79998779297</ele>
        <time>2019-04-20T15:19:49.000Z</time>
      </trkpt>
      <trkpt lat="43.941" lon="7.28446">
        <ele>410.20001220703</ele>
        <time>2019-04-20T15:19:50.000Z</time>
      </trkpt>
      <trkpt lat="43.941" lon="7.28439">
        <ele>409.39999389648</ele>
        <time>2019-04-20T15:19:51.000Z</time>
      </trkpt>
      <trkpt lat="43.94099" lon="7.28428">
        <ele>407.60000610352</ele>
        <time>2019-04-20T15:19:53.000Z</time>
      </trkpt>
      <trkpt lat="43.941" lon="7.28424">
        <ele>406</ele>
        <time>2019-04-20T15:19:55.000Z</time>
      </trkpt>
      <trkpt lat="43.941" lon="7.2842">
        <ele>405.20001220703</ele>
        <time>2019-04-20T15:19:56.000Z</time>
      </trkpt>
      <trkpt lat="43.94099" lon="7.28415">
        <ele>404</ele>
        <time>2019-04-20T15:19:58.000Z</time>
      </trkpt>
      <trkpt lat="43.94097" lon="7.28411">
        <ele>402.60000610352</ele>
        <time>2019-04-20T15:20:01.000Z</time>
      </trkpt>
      <trkpt lat="43.94099" lon="7.28408">
        <ele>401.20001220703</ele>
        <time>2019-04-20T15:20:03.000Z</time>
      </trkpt>
      <trkpt lat="43.94098" lon="7.28405">
        <ele>400.20001220703</ele>
        <time>2019-04-20T15:20:05.000Z</time>
      </trkpt>
      <trkpt lat="43.94097" lon="7.28404">
        <ele>399.79998779297</ele>
        <time>2019-04-20T15:20:06.000Z</time>
      </trkpt>
      <trkpt lat="43.94092" lon="7.28404">
        <ele>398.60000610352</ele>
        <time>2019-04-20T15:20:08.000Z</time>
      </trkpt>
      <trkpt lat="43.9409" lon="7.28403">
        <ele>398.39999389648</ele>
        <time>2019-04-20T15:20:09.000Z</time>
      </trkpt>
      <trkpt lat="43.94089" lon="7.28399">
        <ele>397.60000610352</ele>
        <time>2019-04-20T15:20:10.000Z</time>
      </trkpt>
      <trkpt lat="43.94094" lon="7.28394">
        <ele>395.79998779297</ele>
        <time>2019-04-20T15:20:12.000Z</time>
      </trkpt>
      <trkpt lat="43.94102" lon="7.28384">
        <ele>393.79998779297</ele>
        <time>2019-04-20T15:20:14.000Z</time>
      </trkpt>
      <trkpt lat="43.94107" lon="7.28379">
        <ele>392.79998779297</ele>
        <time>2019-04-20T15:20:15.000Z</time>
      </trkpt>
      <trkpt lat="43.94111" lon="7.28375">
        <ele>391.39999389648</ele>
        <time>2019-04-20T15:20:16.000Z</time>
      </trkpt>
      <trkpt lat="43.94116" lon="7.28371">
        <ele>390.20001220703</ele>
        <time>2019-04-20T15:20:17.000Z</time>
      </trkpt>
      <trkpt lat="43.9412" lon="7.28369">
        <ele>389</ele>
        <time>2019-04-20T15:20:18.000Z</time>
      </trkpt>
      <trkpt lat="43.94128" lon="7.28364">
        <ele>387.20001220703</ele>
        <time>2019-04-20T15:20:20.000Z</time>
      </trkpt>
      <trkpt lat="43.94129" lon="7.28363">
        <ele>386.20001220703</ele>
        <time>2019-04-20T15:20:21.000Z</time>
      </trkpt>
      <trkpt lat="43.9413" lon="7.2836">
        <ele>384.60000610352</ele>
        <time>2019-04-20T15:20:23.000Z</time>
      </trkpt>
      <trkpt lat="43.94132" lon="7.28357">
        <ele>383.60000610352</ele>
        <time>2019-04-20T15:20:25.000Z</time>
      </trkpt>
      <trkpt lat="43.94134" lon="7.28357">
        <ele>383.39999389648</ele>
        <time>2019-04-20T15:20:26.000Z</time>
      </trkpt>
      <trkpt lat="43.94136" lon="7.28357">
        <ele>383.20001220703</ele>
        <time>2019-04-20T15:20:27.000Z</time>
      </trkpt>
      <trkpt lat="43.94149" lon="7.28352">
        <ele>383</ele>
        <time>2019-04-20T15:20:32.000Z</time>
      </trkpt>
      <trkpt lat="43.94155" lon="7.2835">
        <ele>383.20001220703</ele>
        <time>2019-04-20T15:20:34.000Z</time>
      </trkpt>
      <trkpt lat="43.9417" lon="7.28343">
        <ele>383.20001220703</ele>
        <time>2019-04-20T15:20:38.000Z</time>
      </trkpt>
      <trkpt lat="43.94203" lon="7.28324">
        <ele>383.20001220703</ele>
        <time>2019-04-20T15:20:47.000Z</time>
      </trkpt>
      <trkpt lat="43.94234" lon="7.28301">
        <ele>383.20001220703</ele>
        <time>2019-04-20T15:20:56.000Z</time>
      </trkpt>
      <trkpt lat="43.94244" lon="7.28293">
        <ele>383.20001220703</ele>
        <time>2019-04-20T15:20:59.000Z</time>
      </trkpt>
      <trkpt lat="43.94257" lon="7.28293">
        <ele>383.39999389648</ele>
        <time>2019-04-20T15:21:02.000Z</time>
      </trkpt>
      <trkpt lat="43.94275" lon="7.28298">
        <ele>383.20001220703</ele>
        <time>2019-04-20T15:21:08.000Z</time>
      </trkpt>
      <trkpt lat="43.94276" lon="7.28298">
        <ele>383.39999389648</ele>
        <time>2019-04-20T15:21:09.000Z</time>
      </trkpt>
      <trkpt lat="43.94277" lon="7.28297">
        <ele>384</ele>
        <time>2019-04-20T15:21:12.000Z</time>
      </trkpt>
      <trkpt lat="43.94277" lon="7.28298">
        <ele>384.39999389648</ele>
        <time>2019-04-20T15:21:19.000Z</time>
      </trkpt>
      <trkpt lat="43.94276" lon="7.28298">
        <ele>384.39999389648</ele>
        <time>2019-04-20T15:21:20.000Z</time>
      </trkpt>
      <trkpt lat="43.94275" lon="7.28297">
        <ele>384.79998779297</ele>
        <time>2019-04-20T15:21:31.000Z</time>
      </trkpt>
      <trkpt lat="43.94274" lon="7.28297">
        <ele>384</ele>
        <time>2019-04-20T15:21:39.000Z</time>
      </trkpt>
      <trkpt lat="43.94275" lon="7.28296">
        <ele>383.79998779297</ele>
        <time>2019-04-20T15:21:46.000Z</time>
      </trkpt>
      <trkpt lat="43.94276" lon="7.28297">
        <ele>384</ele>
        <time>2019-04-20T15:21:51.000Z</time>
      </trkpt>
      <trkpt lat="43.94275" lon="7.28297">
        <ele>383.79998779297</ele>
        <time>2019-04-20T15:21:56.000Z</time>
      </trkpt>
      <trkpt lat="43.94274" lon="7.28296">
        <ele>383.39999389648</ele>
        <time>2019-04-20T15:21:59.000Z</time>
      </trkpt>
      <trkpt lat="43.94274" lon="7.28296">
        <ele>383.79998779297</ele>
        <time>2019-04-20T15:22:02.000Z</time>
      </trkpt>
      <trkpt lat="43.94274" lon="7.28295">
        <ele>384</ele>
        <time>2019-04-20T15:22:10.000Z</time>
      </trkpt>
      <trkpt lat="43.94273" lon="7.28294">
        <ele>383.60000610352</ele>
        <time>2019-04-20T15:22:18.000Z</time>
      </trkpt>
      <trkpt lat="43.9427" lon="7.28292">
        <ele>384.39999389648</ele>
        <time>2019-04-20T15:22:27.000Z</time>
      </trkpt>
      <trkpt lat="43.94269" lon="7.28293">
        <ele>383.39999389648</ele>
        <time>2019-04-20T15:22:33.000Z</time>
      </trkpt>
      <trkpt lat="43.94269" lon="7.28292">
        <ele>383.20001220703</ele>
        <time>2019-04-20T15:22:41.000Z</time>
      </trkpt>
      <trkpt lat="43.9427" lon="7.28292">
        <ele>383.39999389648</ele>
        <time>2019-04-20T15:22:50.000Z</time>
      </trkpt>
      <trkpt lat="43.9427" lon="7.28291">
        <ele>383.79998779297</ele>
        <time>2019-04-20T15:22:55.000Z</time>
      </trkpt>
      <trkpt lat="43.9427" lon="7.28291">
        <ele>383.20001220703</ele>
        <time>2019-04-20T15:23:04.000Z</time>
      </trkpt>
      <trkpt lat="43.9427" lon="7.28291">
        <ele>383.79998779297</ele>
        <time>2019-04-20T15:23:11.000Z</time>
      </trkpt>
      <trkpt lat="43.94269" lon="7.28292">
        <ele>383.60000610352</ele>
        <time>2019-04-20T15:23:17.000Z</time>
      </trkpt>
      <trkpt lat="43.94269" lon="7.28292">
        <ele>383.60000610352</ele>
        <time>2019-04-20T15:23:23.000Z</time>
      </trkpt>
      <trkpt lat="43.9427" lon="7.28292">
        <ele>383.60000610352</ele>
        <time>2019-04-20T15:23:24.000Z</time>
      </trkpt>
      <trkpt lat="43.94271" lon="7.28292">
        <ele>383.60000610352</ele>
        <time>2019-04-20T15:23:26.000Z</time>
      </trkpt>
      <trkpt lat="43.9427" lon="7.28291">
        <ele>384</ele>
        <time>2019-04-20T15:23:35.000Z</time>
      </trkpt>
      <trkpt lat="43.9427" lon="7.2829">
        <ele>383.79998779297</ele>
        <time>2019-04-20T15:23:45.000Z</time>
      </trkpt>
      <trkpt lat="43.94268" lon="7.2829">
        <ele>383.39999389648</ele>
        <time>2019-04-20T15:23:52.000Z</time>
      </trkpt>
      <trkpt lat="43.94268" lon="7.28289">
        <ele>383.79998779297</ele>
        <time>2019-04-20T15:24:02.000Z</time>
      </trkpt>
      <trkpt lat="43.94267" lon="7.28288">
        <ele>383.20001220703</ele>
        <time>2019-04-20T15:24:13.000Z</time>
      </trkpt>
      <trkpt lat="43.94267" lon="7.28288">
        <ele>383.39999389648</ele>
        <time>2019-04-20T15:24:24.000Z</time>
      </trkpt>
      <trkpt lat="43.94267" lon="7.28288">
        <ele>383.79998779297</ele>
        <time>2019-04-20T15:24:34.000Z</time>
      </trkpt>
      <trkpt lat="43.94266" lon="7.28289">
        <ele>383.20001220703</ele>
        <time>2019-04-20T15:24:47.000Z</time>
      </trkpt>
      <trkpt lat="43.94266" lon="7.28289">
        <ele>383</ele>
        <time>2019-04-20T15:24:53.000Z</time>
      </trkpt>
      <trkpt lat="43.94266" lon="7.28289">
        <ele>382.79998779297</ele>
        <time>2019-04-20T15:25:00.000Z</time>
      </trkpt>
      <trkpt lat="43.94266" lon="7.28289">
        <ele>383.20001220703</ele>
        <time>2019-04-20T15:25:07.000Z</time>
      </trkpt>
      <trkpt lat="43.94267" lon="7.28289">
        <ele>383.20001220703</ele>
        <time>2019-04-20T15:25:14.000Z</time>
      </trkpt>
      <trkpt lat="43.94266" lon="7.28287">
        <ele>383</ele>
        <time>2019-04-20T15:25:26.000Z</time>
      </trkpt>
      <trkpt lat="43.94265" lon="7.28288">
        <ele>382.60000610352</ele>
        <time>2019-04-20T15:25:34.000Z</time>
      </trkpt>
      <trkpt lat="43.94265" lon="7.28289">
        <ele>383.20001220703</ele>
        <time>2019-04-20T15:25:39.000Z</time>
      </trkpt>
      <trkpt lat="43.94263" lon="7.28288">
        <ele>382.79998779297</ele>
        <time>2019-04-20T15:25:43.000Z</time>
      </trkpt>
      <trkpt lat="43.94263" lon="7.28288">
        <ele>382.60000610352</ele>
        <time>2019-04-20T15:25:45.000Z</time>
      </trkpt>
      <trkpt lat="43.94264" lon="7.28288">
        <ele>382.60000610352</ele>
        <time>2019-04-20T15:25:52.000Z</time>
      </trkpt>
      <trkpt lat="43.94264" lon="7.28288">
        <ele>383</ele>
        <time>2019-04-20T15:25:58.000Z</time>
      </trkpt>
      <trkpt lat="43.94263" lon="7.28288">
        <ele>383.60000610352</ele>
        <time>2019-04-20T15:26:07.000Z</time>
      </trkpt>
      <trkpt lat="43.94264" lon="7.28288">
        <ele>383.60000610352</ele>
        <time>2019-04-20T15:26:18.000Z</time>
      </trkpt>
      <trkpt lat="43.94265" lon="7.28288">
        <ele>383</ele>
        <time>2019-04-20T15:26:26.000Z</time>
      </trkpt>
      <trkpt lat="43.94266" lon="7.28288">
        <ele>383.60000610352</ele>
        <time>2019-04-20T15:26:32.000Z</time>
      </trkpt>
      <trkpt lat="43.94266" lon="7.28289">
        <ele>384</ele>
        <time>2019-04-20T15:26:40.000Z</time>
      </trkpt>
      <trkpt lat="43.94266" lon="7.28289">
        <ele>383.60000610352</ele>
        <time>2019-04-20T15:26:48.000Z</time>
      </trkpt>
      <trkpt lat="43.94266" lon="7.2829">
        <ele>384.39999389648</ele>
        <time>2019-04-20T15:26:53.000Z</time>
      </trkpt>
      <trkpt lat="43.94266" lon="7.2829">
        <ele>384.39999389648</ele>
        <time>2019-04-20T15:27:08.000Z</time>
      </trkpt>
      <trkpt lat="43.94266" lon="7.2829">
        <ele>383.60000610352</ele>
        <time>2019-04-20T15:27:14.000Z</time>
      </trkpt>
      <trkpt lat="43.94267" lon="7.2829">
        <ele>384.60000610352</ele>
        <time>2019-04-20T15:27:25.000Z</time>
      </trkpt>
      <trkpt lat="43.94268" lon="7.2829">
        <ele>383.60000610352</ele>
        <time>2019-04-20T15:27:35.000Z</time>
      </trkpt>
      <trkpt lat="43.94268" lon="7.2829">
        <ele>383.60000610352</ele>
        <time>2019-04-20T15:27:41.000Z</time>
      </trkpt>
      <trkpt lat="43.94268" lon="7.2829">
        <ele>384.20001220703</ele>
        <time>2019-04-20T15:27:44.000Z</time>
      </trkpt>
    </trkseg>
  </trk>
</gpx>